<?xml version="1.0" encoding="UTF-8" standalone="no" ?>
<gpx xmlns="http://www.topografix.com/GPX/1/1" xmlns:xsi="http://www.w3.org/2001/XMLSchema-instance" xsi:schemaLocation="http://www.topografix.com/GPX/1/1 http://www.topografix.com/GPX/1/1/gpx.xsd" version="1.1" creator="VisuGPX - https://www.visugpx.com">
  <metadata>
    <name>+ Régis Pavezin</name>
    <desc><![CDATA[..............................................................]]></desc>
  </metadata>
  <trk>
    <name><![CDATA[+ Régis Pavezin_1]]></name>
    <trkseg>
      <trkpt lat="45.58585" lon="4.78465">
        <ele>161</ele>
        <time>2018-08-15T05:56:36.255Z</time>
      </trkpt>
      <trkpt lat="45.58585" lon="4.78465">
        <ele>161</ele>
        <time>2018-08-15T05:56:37.243Z</time>
      </trkpt>
      <trkpt lat="45.58585" lon="4.78465">
        <ele>161</ele>
        <time>2018-08-15T05:56:38.245Z</time>
      </trkpt>
      <trkpt lat="45.58585" lon="4.78465">
        <ele>161</ele>
        <time>2018-08-15T05:56:39.267Z</time>
      </trkpt>
      <trkpt lat="45.58585" lon="4.78465">
        <ele>161</ele>
        <time>2018-08-15T05:56:40.247Z</time>
      </trkpt>
      <trkpt lat="45.58585" lon="4.78465">
        <ele>161</ele>
        <time>2018-08-15T05:56:41.253Z</time>
      </trkpt>
      <trkpt lat="45.58585" lon="4.78465">
        <ele>161</ele>
        <time>2018-08-15T05:56:42.264Z</time>
      </trkpt>
      <trkpt lat="45.58585" lon="4.78465">
        <ele>161</ele>
        <time>2018-08-15T05:56:43.239Z</time>
      </trkpt>
      <trkpt lat="45.58585" lon="4.78465">
        <ele>161</ele>
        <time>2018-08-15T05:56:44.251Z</time>
      </trkpt>
      <trkpt lat="45.58585" lon="4.78465">
        <ele>161</ele>
        <time>2018-08-15T05:56:45.232Z</time>
      </trkpt>
      <trkpt lat="45.58585" lon="4.78465">
        <ele>161</ele>
        <time>2018-08-15T05:56:46.264Z</time>
      </trkpt>
      <trkpt lat="45.58585" lon="4.78465">
        <ele>161</ele>
        <time>2018-08-15T05:56:47.236Z</time>
      </trkpt>
      <trkpt lat="45.58585" lon="4.78465">
        <ele>161</ele>
        <time>2018-08-15T05:56:48.269Z</time>
      </trkpt>
      <trkpt lat="45.58585" lon="4.78465">
        <ele>161</ele>
        <time>2018-08-15T05:56:49.268Z</time>
      </trkpt>
      <trkpt lat="45.58585" lon="4.78465">
        <ele>161</ele>
        <time>2018-08-15T05:56:50.269Z</time>
      </trkpt>
      <trkpt lat="45.58585" lon="4.78465">
        <ele>161</ele>
        <time>2018-08-15T05:56:51.262Z</time>
      </trkpt>
      <trkpt lat="45.58585" lon="4.78465">
        <ele>161</ele>
        <time>2018-08-15T05:56:52.266Z</time>
      </trkpt>
      <trkpt lat="45.58585" lon="4.78465">
        <ele>161</ele>
        <time>2018-08-15T05:56:53.237Z</time>
      </trkpt>
      <trkpt lat="45.58585" lon="4.78465">
        <ele>161</ele>
        <time>2018-08-15T05:56:54.252Z</time>
      </trkpt>
      <trkpt lat="45.58585" lon="4.78465">
        <ele>161</ele>
        <time>2018-08-15T05:56:55.261Z</time>
      </trkpt>
      <trkpt lat="45.58585" lon="4.78465">
        <ele>161</ele>
        <time>2018-08-15T05:56:56.269Z</time>
      </trkpt>
      <trkpt lat="45.58585" lon="4.78465">
        <ele>161</ele>
        <time>2018-08-15T05:56:57.237Z</time>
      </trkpt>
      <trkpt lat="45.58585" lon="4.78465">
        <ele>161</ele>
        <time>2018-08-15T05:56:58.235Z</time>
      </trkpt>
      <trkpt lat="45.58585" lon="4.78465">
        <ele>161</ele>
        <time>2018-08-15T05:56:59.233Z</time>
      </trkpt>
      <trkpt lat="45.58585" lon="4.78465">
        <ele>161</ele>
        <time>2018-08-15T05:57:00.235Z</time>
      </trkpt>
      <trkpt lat="45.58585" lon="4.78465">
        <ele>161</ele>
        <time>2018-08-15T05:57:01.271Z</time>
      </trkpt>
      <trkpt lat="45.58585" lon="4.78465">
        <ele>161</ele>
        <time>2018-08-15T05:57:02.236Z</time>
      </trkpt>
      <trkpt lat="45.58585" lon="4.78465">
        <ele>161</ele>
        <time>2018-08-15T05:57:03.235Z</time>
      </trkpt>
      <trkpt lat="45.58585" lon="4.78465">
        <ele>161</ele>
        <time>2018-08-15T05:57:04.270Z</time>
      </trkpt>
      <trkpt lat="45.58585" lon="4.78465">
        <ele>161</ele>
        <time>2018-08-15T05:57:05.235Z</time>
      </trkpt>
      <trkpt lat="45.58585" lon="4.78465">
        <ele>161</ele>
        <time>2018-08-15T05:57:06.269Z</time>
      </trkpt>
      <trkpt lat="45.58585" lon="4.78465">
        <ele>161</ele>
        <time>2018-08-15T05:57:07.233Z</time>
      </trkpt>
      <trkpt lat="45.58585" lon="4.78465">
        <ele>161</ele>
        <time>2018-08-15T05:57:08.269Z</time>
      </trkpt>
      <trkpt lat="45.58585" lon="4.78465">
        <ele>161</ele>
        <time>2018-08-15T05:57:09.236Z</time>
      </trkpt>
      <trkpt lat="45.58585" lon="4.78465">
        <ele>161</ele>
        <time>2018-08-15T05:57:10.234Z</time>
      </trkpt>
      <trkpt lat="45.58585" lon="4.78465">
        <ele>161</ele>
        <time>2018-08-15T05:57:11.234Z</time>
      </trkpt>
      <trkpt lat="45.58585" lon="4.78465">
        <ele>161</ele>
        <time>2018-08-15T05:57:12.263Z</time>
      </trkpt>
      <trkpt lat="45.58585" lon="4.78465">
        <ele>161</ele>
        <time>2018-08-15T05:57:13.245Z</time>
      </trkpt>
      <trkpt lat="45.58585" lon="4.78465">
        <ele>161</ele>
        <time>2018-08-15T05:57:14.233Z</time>
      </trkpt>
      <trkpt lat="45.58585" lon="4.78465">
        <ele>161</ele>
        <time>2018-08-15T05:57:15.237Z</time>
      </trkpt>
      <trkpt lat="45.58585" lon="4.78465">
        <ele>161</ele>
        <time>2018-08-15T05:57:16.233Z</time>
      </trkpt>
      <trkpt lat="45.58585" lon="4.78465">
        <ele>161</ele>
        <time>2018-08-15T05:57:17.269Z</time>
      </trkpt>
      <trkpt lat="45.58578" lon="4.78466">
        <ele>158</ele>
        <time>2018-08-15T05:57:18.270Z</time>
      </trkpt>
      <trkpt lat="45.58577" lon="4.78466">
        <ele>158</ele>
        <time>2018-08-15T05:57:19.236Z</time>
      </trkpt>
      <trkpt lat="45.58577" lon="4.78466">
        <ele>158</ele>
        <time>2018-08-15T05:57:20.266Z</time>
      </trkpt>
      <trkpt lat="45.58573" lon="4.78464">
        <ele>158</ele>
        <time>2018-08-15T05:57:21.233Z</time>
      </trkpt>
      <trkpt lat="45.58573" lon="4.78464">
        <ele>158</ele>
        <time>2018-08-15T05:57:22.238Z</time>
      </trkpt>
      <trkpt lat="45.5857" lon="4.78461">
        <ele>158</ele>
        <time>2018-08-15T05:57:23.261Z</time>
      </trkpt>
      <trkpt lat="45.5857" lon="4.78461">
        <ele>158</ele>
        <time>2018-08-15T05:57:24.270Z</time>
      </trkpt>
      <trkpt lat="45.58566" lon="4.78458">
        <ele>158</ele>
        <time>2018-08-15T05:57:25.252Z</time>
      </trkpt>
      <trkpt lat="45.58563" lon="4.78457">
        <ele>158</ele>
        <time>2018-08-15T05:57:26.243Z</time>
      </trkpt>
      <trkpt lat="45.58563" lon="4.78457">
        <ele>158</ele>
        <time>2018-08-15T05:57:27.250Z</time>
      </trkpt>
      <trkpt lat="45.58558" lon="4.78453">
        <ele>158</ele>
        <time>2018-08-15T05:57:28.270Z</time>
      </trkpt>
      <trkpt lat="45.58558" lon="4.78453">
        <ele>158</ele>
        <time>2018-08-15T05:57:29.239Z</time>
      </trkpt>
      <trkpt lat="45.58551" lon="4.7845">
        <ele>157</ele>
        <time>2018-08-15T05:57:30.256Z</time>
      </trkpt>
      <trkpt lat="45.58551" lon="4.7845">
        <ele>157</ele>
        <time>2018-08-15T05:57:31.265Z</time>
      </trkpt>
      <trkpt lat="45.58544" lon="4.78445">
        <ele>157</ele>
        <time>2018-08-15T05:57:32.256Z</time>
      </trkpt>
      <trkpt lat="45.58544" lon="4.78445">
        <ele>157</ele>
        <time>2018-08-15T05:57:33.262Z</time>
      </trkpt>
      <trkpt lat="45.58537" lon="4.78441">
        <ele>157</ele>
        <time>2018-08-15T05:57:34.241Z</time>
      </trkpt>
      <trkpt lat="45.58537" lon="4.78441">
        <ele>157</ele>
        <time>2018-08-15T05:57:35.248Z</time>
      </trkpt>
      <trkpt lat="45.5853" lon="4.78436">
        <ele>157</ele>
        <time>2018-08-15T05:57:36.239Z</time>
      </trkpt>
      <trkpt lat="45.58527" lon="4.78434">
        <ele>157</ele>
        <time>2018-08-15T05:57:37.235Z</time>
      </trkpt>
      <trkpt lat="45.58527" lon="4.78434">
        <ele>157</ele>
        <time>2018-08-15T05:57:38.241Z</time>
      </trkpt>
      <trkpt lat="45.5852" lon="4.78429">
        <ele>156</ele>
        <time>2018-08-15T05:57:39.264Z</time>
      </trkpt>
      <trkpt lat="45.5852" lon="4.78429">
        <ele>156</ele>
        <time>2018-08-15T05:57:40.271Z</time>
      </trkpt>
      <trkpt lat="45.58513" lon="4.78425">
        <ele>157</ele>
        <time>2018-08-15T05:57:41.249Z</time>
      </trkpt>
      <trkpt lat="45.58513" lon="4.78425">
        <ele>157</ele>
        <time>2018-08-15T05:57:42.259Z</time>
      </trkpt>
      <trkpt lat="45.58506" lon="4.78421">
        <ele>157</ele>
        <time>2018-08-15T05:57:43.260Z</time>
      </trkpt>
      <trkpt lat="45.58506" lon="4.78421">
        <ele>157</ele>
        <time>2018-08-15T05:57:44.266Z</time>
      </trkpt>
      <trkpt lat="45.58498" lon="4.78416">
        <ele>157</ele>
        <time>2018-08-15T05:57:45.242Z</time>
      </trkpt>
      <trkpt lat="45.58494" lon="4.78414">
        <ele>157</ele>
        <time>2018-08-15T05:57:46.255Z</time>
      </trkpt>
      <trkpt lat="45.58494" lon="4.78414">
        <ele>157</ele>
        <time>2018-08-15T05:57:47.263Z</time>
      </trkpt>
      <trkpt lat="45.58487" lon="4.78408">
        <ele>157</ele>
        <time>2018-08-15T05:57:48.272Z</time>
      </trkpt>
      <trkpt lat="45.58487" lon="4.78408">
        <ele>157</ele>
        <time>2018-08-15T05:57:49.233Z</time>
      </trkpt>
      <trkpt lat="45.58479" lon="4.78402">
        <ele>157</ele>
        <time>2018-08-15T05:57:50.248Z</time>
      </trkpt>
      <trkpt lat="45.58475" lon="4.784">
        <ele>157</ele>
        <time>2018-08-15T05:57:51.238Z</time>
      </trkpt>
      <trkpt lat="45.58475" lon="4.784">
        <ele>157</ele>
        <time>2018-08-15T05:57:52.246Z</time>
      </trkpt>
      <trkpt lat="45.58468" lon="4.78394">
        <ele>156</ele>
        <time>2018-08-15T05:57:53.260Z</time>
      </trkpt>
      <trkpt lat="45.58468" lon="4.78394">
        <ele>156</ele>
        <time>2018-08-15T05:57:54.243Z</time>
      </trkpt>
      <trkpt lat="45.5846" lon="4.78389">
        <ele>156</ele>
        <time>2018-08-15T05:57:55.237Z</time>
      </trkpt>
      <trkpt lat="45.58457" lon="4.78387">
        <ele>156</ele>
        <time>2018-08-15T05:57:56.238Z</time>
      </trkpt>
      <trkpt lat="45.58457" lon="4.78387">
        <ele>156</ele>
        <time>2018-08-15T05:57:57.260Z</time>
      </trkpt>
      <trkpt lat="45.58449" lon="4.78382">
        <ele>155</ele>
        <time>2018-08-15T05:57:58.245Z</time>
      </trkpt>
      <trkpt lat="45.58449" lon="4.78382">
        <ele>155</ele>
        <time>2018-08-15T05:57:59.270Z</time>
      </trkpt>
      <trkpt lat="45.58442" lon="4.78377">
        <ele>156</ele>
        <time>2018-08-15T05:58:00.263Z</time>
      </trkpt>
      <trkpt lat="45.58442" lon="4.78377">
        <ele>156</ele>
        <time>2018-08-15T05:58:01.266Z</time>
      </trkpt>
      <trkpt lat="45.58435" lon="4.7837">
        <ele>156</ele>
        <time>2018-08-15T05:58:02.263Z</time>
      </trkpt>
      <trkpt lat="45.58435" lon="4.7837">
        <ele>156</ele>
        <time>2018-08-15T05:58:03.267Z</time>
      </trkpt>
      <trkpt lat="45.58428" lon="4.78364">
        <ele>156</ele>
        <time>2018-08-15T05:58:04.261Z</time>
      </trkpt>
      <trkpt lat="45.58428" lon="4.78364">
        <ele>156</ele>
        <time>2018-08-15T05:58:05.239Z</time>
      </trkpt>
      <trkpt lat="45.5842" lon="4.78357">
        <ele>156</ele>
        <time>2018-08-15T05:58:06.269Z</time>
      </trkpt>
      <trkpt lat="45.5842" lon="4.78357">
        <ele>156</ele>
        <time>2018-08-15T05:58:07.261Z</time>
      </trkpt>
      <trkpt lat="45.58413" lon="4.7835">
        <ele>156</ele>
        <time>2018-08-15T05:58:08.255Z</time>
      </trkpt>
      <trkpt lat="45.58413" lon="4.7835">
        <ele>156</ele>
        <time>2018-08-15T05:58:09.266Z</time>
      </trkpt>
      <trkpt lat="45.58407" lon="4.78342">
        <ele>156</ele>
        <time>2018-08-15T05:58:10.270Z</time>
      </trkpt>
      <trkpt lat="45.58407" lon="4.78342">
        <ele>156</ele>
        <time>2018-08-15T05:58:11.252Z</time>
      </trkpt>
      <trkpt lat="45.584" lon="4.78335">
        <ele>157</ele>
        <time>2018-08-15T05:58:12.246Z</time>
      </trkpt>
      <trkpt lat="45.584" lon="4.78335">
        <ele>157</ele>
        <time>2018-08-15T05:58:13.257Z</time>
      </trkpt>
      <trkpt lat="45.58394" lon="4.78331">
        <ele>157</ele>
        <time>2018-08-15T05:58:14.260Z</time>
      </trkpt>
      <trkpt lat="45.58394" lon="4.78331">
        <ele>157</ele>
        <time>2018-08-15T05:58:15.270Z</time>
      </trkpt>
      <trkpt lat="45.58387" lon="4.78327">
        <ele>157</ele>
        <time>2018-08-15T05:58:16.271Z</time>
      </trkpt>
      <trkpt lat="45.58387" lon="4.78327">
        <ele>157</ele>
        <time>2018-08-15T05:58:17.241Z</time>
      </trkpt>
      <trkpt lat="45.58381" lon="4.78321">
        <ele>157</ele>
        <time>2018-08-15T05:58:18.234Z</time>
      </trkpt>
      <trkpt lat="45.58381" lon="4.78321">
        <ele>157</ele>
        <time>2018-08-15T05:58:19.243Z</time>
      </trkpt>
      <trkpt lat="45.58378" lon="4.78311">
        <ele>158</ele>
        <time>2018-08-15T05:58:20.241Z</time>
      </trkpt>
      <trkpt lat="45.58378" lon="4.78311">
        <ele>158</ele>
        <time>2018-08-15T05:58:21.263Z</time>
      </trkpt>
      <trkpt lat="45.58373" lon="4.78301">
        <ele>158</ele>
        <time>2018-08-15T05:58:22.256Z</time>
      </trkpt>
      <trkpt lat="45.58371" lon="4.78296">
        <ele>158</ele>
        <time>2018-08-15T05:58:23.239Z</time>
      </trkpt>
      <trkpt lat="45.58369" lon="4.78291">
        <ele>158</ele>
        <time>2018-08-15T05:58:24.268Z</time>
      </trkpt>
      <trkpt lat="45.58369" lon="4.78291">
        <ele>158</ele>
        <time>2018-08-15T05:58:25.234Z</time>
      </trkpt>
      <trkpt lat="45.58363" lon="4.78281">
        <ele>158</ele>
        <time>2018-08-15T05:58:26.262Z</time>
      </trkpt>
      <trkpt lat="45.58363" lon="4.78281">
        <ele>158</ele>
        <time>2018-08-15T05:58:27.232Z</time>
      </trkpt>
      <trkpt lat="45.58357" lon="4.78272">
        <ele>157</ele>
        <time>2018-08-15T05:58:28.266Z</time>
      </trkpt>
      <trkpt lat="45.58357" lon="4.78272">
        <ele>157</ele>
        <time>2018-08-15T05:58:29.269Z</time>
      </trkpt>
      <trkpt lat="45.58351" lon="4.78264">
        <ele>157</ele>
        <time>2018-08-15T05:58:30.265Z</time>
      </trkpt>
      <trkpt lat="45.58351" lon="4.78264">
        <ele>157</ele>
        <time>2018-08-15T05:58:31.232Z</time>
      </trkpt>
      <trkpt lat="45.58344" lon="4.78256">
        <ele>157</ele>
        <time>2018-08-15T05:58:32.263Z</time>
      </trkpt>
      <trkpt lat="45.58344" lon="4.78256">
        <ele>157</ele>
        <time>2018-08-15T05:58:33.252Z</time>
      </trkpt>
      <trkpt lat="45.58338" lon="4.78248">
        <ele>158</ele>
        <time>2018-08-15T05:58:34.241Z</time>
      </trkpt>
      <trkpt lat="45.58338" lon="4.78248">
        <ele>158</ele>
        <time>2018-08-15T05:58:35.248Z</time>
      </trkpt>
      <trkpt lat="45.58332" lon="4.78239">
        <ele>158</ele>
        <time>2018-08-15T05:58:36.252Z</time>
      </trkpt>
      <trkpt lat="45.58332" lon="4.78239">
        <ele>158</ele>
        <time>2018-08-15T05:58:37.259Z</time>
      </trkpt>
      <trkpt lat="45.58326" lon="4.7823">
        <ele>158</ele>
        <time>2018-08-15T05:58:38.249Z</time>
      </trkpt>
      <trkpt lat="45.58326" lon="4.7823">
        <ele>158</ele>
        <time>2018-08-15T05:58:39.259Z</time>
      </trkpt>
      <trkpt lat="45.5832" lon="4.78221">
        <ele>158</ele>
        <time>2018-08-15T05:58:40.246Z</time>
      </trkpt>
      <trkpt lat="45.5832" lon="4.78221">
        <ele>158</ele>
        <time>2018-08-15T05:58:41.256Z</time>
      </trkpt>
      <trkpt lat="45.58314" lon="4.78212">
        <ele>158</ele>
        <time>2018-08-15T05:58:42.259Z</time>
      </trkpt>
      <trkpt lat="45.58314" lon="4.78212">
        <ele>158</ele>
        <time>2018-08-15T05:58:43.266Z</time>
      </trkpt>
      <trkpt lat="45.58309" lon="4.78203">
        <ele>158</ele>
        <time>2018-08-15T05:58:44.248Z</time>
      </trkpt>
      <trkpt lat="45.58309" lon="4.78203">
        <ele>158</ele>
        <time>2018-08-15T05:58:45.255Z</time>
      </trkpt>
      <trkpt lat="45.58304" lon="4.78195">
        <ele>157</ele>
        <time>2018-08-15T05:58:46.258Z</time>
      </trkpt>
      <trkpt lat="45.58304" lon="4.78195">
        <ele>157</ele>
        <time>2018-08-15T05:58:47.264Z</time>
      </trkpt>
      <trkpt lat="45.58298" lon="4.78188">
        <ele>158</ele>
        <time>2018-08-15T05:58:48.254Z</time>
      </trkpt>
      <trkpt lat="45.58298" lon="4.78188">
        <ele>158</ele>
        <time>2018-08-15T05:58:49.261Z</time>
      </trkpt>
      <trkpt lat="45.58293" lon="4.78181">
        <ele>158</ele>
        <time>2018-08-15T05:58:50.240Z</time>
      </trkpt>
      <trkpt lat="45.58293" lon="4.78181">
        <ele>158</ele>
        <time>2018-08-15T05:58:51.245Z</time>
      </trkpt>
      <trkpt lat="45.58288" lon="4.78174">
        <ele>158</ele>
        <time>2018-08-15T05:58:52.248Z</time>
      </trkpt>
      <trkpt lat="45.58288" lon="4.78174">
        <ele>158</ele>
        <time>2018-08-15T05:58:53.256Z</time>
      </trkpt>
      <trkpt lat="45.58284" lon="4.78168">
        <ele>158</ele>
        <time>2018-08-15T05:58:54.257Z</time>
      </trkpt>
      <trkpt lat="45.58282" lon="4.78164">
        <ele>158</ele>
        <time>2018-08-15T05:58:55.246Z</time>
      </trkpt>
      <trkpt lat="45.5828" lon="4.78161">
        <ele>158</ele>
        <time>2018-08-15T05:58:56.263Z</time>
      </trkpt>
      <trkpt lat="45.5828" lon="4.78161">
        <ele>158</ele>
        <time>2018-08-15T05:58:57.271Z</time>
      </trkpt>
      <trkpt lat="45.58276" lon="4.78155">
        <ele>158</ele>
        <time>2018-08-15T05:58:58.250Z</time>
      </trkpt>
      <trkpt lat="45.58276" lon="4.78155">
        <ele>158</ele>
        <time>2018-08-15T05:58:59.262Z</time>
      </trkpt>
      <trkpt lat="45.58271" lon="4.7815">
        <ele>157</ele>
        <time>2018-08-15T05:59:00.239Z</time>
      </trkpt>
      <trkpt lat="45.58271" lon="4.7815">
        <ele>157</ele>
        <time>2018-08-15T05:59:01.245Z</time>
      </trkpt>
      <trkpt lat="45.58267" lon="4.78145">
        <ele>157</ele>
        <time>2018-08-15T05:59:02.269Z</time>
      </trkpt>
      <trkpt lat="45.58267" lon="4.78145">
        <ele>157</ele>
        <time>2018-08-15T05:59:03.239Z</time>
      </trkpt>
      <trkpt lat="45.58262" lon="4.7814">
        <ele>157</ele>
        <time>2018-08-15T05:59:04.232Z</time>
      </trkpt>
      <trkpt lat="45.58262" lon="4.7814">
        <ele>157</ele>
        <time>2018-08-15T05:59:05.238Z</time>
      </trkpt>
      <trkpt lat="45.58257" lon="4.78135">
        <ele>157</ele>
        <time>2018-08-15T05:59:06.266Z</time>
      </trkpt>
      <trkpt lat="45.58257" lon="4.78135">
        <ele>157</ele>
        <time>2018-08-15T05:59:07.232Z</time>
      </trkpt>
      <trkpt lat="45.58252" lon="4.78129">
        <ele>158</ele>
        <time>2018-08-15T05:59:08.260Z</time>
      </trkpt>
      <trkpt lat="45.58252" lon="4.78129">
        <ele>158</ele>
        <time>2018-08-15T05:59:09.268Z</time>
      </trkpt>
      <trkpt lat="45.58246" lon="4.78124">
        <ele>158</ele>
        <time>2018-08-15T05:59:10.268Z</time>
      </trkpt>
      <trkpt lat="45.58246" lon="4.78124">
        <ele>158</ele>
        <time>2018-08-15T05:59:11.234Z</time>
      </trkpt>
      <trkpt lat="45.58241" lon="4.78116">
        <ele>159</ele>
        <time>2018-08-15T05:59:12.270Z</time>
      </trkpt>
      <trkpt lat="45.58241" lon="4.78116">
        <ele>159</ele>
        <time>2018-08-15T05:59:13.238Z</time>
      </trkpt>
      <trkpt lat="45.58235" lon="4.78107">
        <ele>159</ele>
        <time>2018-08-15T05:59:14.244Z</time>
      </trkpt>
      <trkpt lat="45.58235" lon="4.78107">
        <ele>159</ele>
        <time>2018-08-15T05:59:15.235Z</time>
      </trkpt>
      <trkpt lat="45.58229" lon="4.78098">
        <ele>160</ele>
        <time>2018-08-15T05:59:16.259Z</time>
      </trkpt>
      <trkpt lat="45.58229" lon="4.78098">
        <ele>160</ele>
        <time>2018-08-15T05:59:17.266Z</time>
      </trkpt>
      <trkpt lat="45.58223" lon="4.78088">
        <ele>160</ele>
        <time>2018-08-15T05:59:18.245Z</time>
      </trkpt>
      <trkpt lat="45.58223" lon="4.78088">
        <ele>160</ele>
        <time>2018-08-15T05:59:19.251Z</time>
      </trkpt>
      <trkpt lat="45.58217" lon="4.78079">
        <ele>161</ele>
        <time>2018-08-15T05:59:20.233Z</time>
      </trkpt>
      <trkpt lat="45.58217" lon="4.78079">
        <ele>161</ele>
        <time>2018-08-15T05:59:21.259Z</time>
      </trkpt>
      <trkpt lat="45.58212" lon="4.78071">
        <ele>161</ele>
        <time>2018-08-15T05:59:22.245Z</time>
      </trkpt>
      <trkpt lat="45.58212" lon="4.78071">
        <ele>161</ele>
        <time>2018-08-15T05:59:23.251Z</time>
      </trkpt>
      <trkpt lat="45.58208" lon="4.78063">
        <ele>161</ele>
        <time>2018-08-15T05:59:24.241Z</time>
      </trkpt>
      <trkpt lat="45.58208" lon="4.78063">
        <ele>161</ele>
        <time>2018-08-15T05:59:25.247Z</time>
      </trkpt>
      <trkpt lat="45.58202" lon="4.78055">
        <ele>162</ele>
        <time>2018-08-15T05:59:26.233Z</time>
      </trkpt>
      <trkpt lat="45.582" lon="4.78052">
        <ele>162</ele>
        <time>2018-08-15T05:59:27.259Z</time>
      </trkpt>
      <trkpt lat="45.582" lon="4.78052">
        <ele>162</ele>
        <time>2018-08-15T05:59:28.265Z</time>
      </trkpt>
      <trkpt lat="45.58194" lon="4.78045">
        <ele>163</ele>
        <time>2018-08-15T05:59:29.265Z</time>
      </trkpt>
      <trkpt lat="45.58194" lon="4.78045">
        <ele>163</ele>
        <time>2018-08-15T05:59:30.271Z</time>
      </trkpt>
      <trkpt lat="45.58189" lon="4.78038">
        <ele>164</ele>
        <time>2018-08-15T05:59:31.266Z</time>
      </trkpt>
      <trkpt lat="45.58187" lon="4.78034">
        <ele>164</ele>
        <time>2018-08-15T05:59:32.256Z</time>
      </trkpt>
      <trkpt lat="45.58187" lon="4.78034">
        <ele>164</ele>
        <time>2018-08-15T05:59:33.262Z</time>
      </trkpt>
      <trkpt lat="45.58183" lon="4.78028">
        <ele>165</ele>
        <time>2018-08-15T05:59:34.255Z</time>
      </trkpt>
      <trkpt lat="45.58183" lon="4.78028">
        <ele>165</ele>
        <time>2018-08-15T05:59:35.260Z</time>
      </trkpt>
      <trkpt lat="45.58178" lon="4.78021">
        <ele>166</ele>
        <time>2018-08-15T05:59:36.258Z</time>
      </trkpt>
      <trkpt lat="45.58178" lon="4.78021">
        <ele>166</ele>
        <time>2018-08-15T05:59:37.263Z</time>
      </trkpt>
      <trkpt lat="45.58173" lon="4.78014">
        <ele>167</ele>
        <time>2018-08-15T05:59:38.247Z</time>
      </trkpt>
      <trkpt lat="45.58173" lon="4.78014">
        <ele>167</ele>
        <time>2018-08-15T05:59:39.261Z</time>
      </trkpt>
      <trkpt lat="45.58167" lon="4.78007">
        <ele>167</ele>
        <time>2018-08-15T05:59:40.261Z</time>
      </trkpt>
      <trkpt lat="45.58167" lon="4.78007">
        <ele>167</ele>
        <time>2018-08-15T05:59:41.351Z</time>
      </trkpt>
      <trkpt lat="45.58162" lon="4.78">
        <ele>168</ele>
        <time>2018-08-15T05:59:42.270Z</time>
      </trkpt>
      <trkpt lat="45.58162" lon="4.78">
        <ele>168</ele>
        <time>2018-08-15T05:59:43.236Z</time>
      </trkpt>
      <trkpt lat="45.58157" lon="4.77992">
        <ele>168</ele>
        <time>2018-08-15T05:59:44.234Z</time>
      </trkpt>
      <trkpt lat="45.58157" lon="4.77992">
        <ele>168</ele>
        <time>2018-08-15T05:59:45.240Z</time>
      </trkpt>
      <trkpt lat="45.58152" lon="4.77984">
        <ele>167</ele>
        <time>2018-08-15T05:59:46.258Z</time>
      </trkpt>
      <trkpt lat="45.58152" lon="4.77984">
        <ele>167</ele>
        <time>2018-08-15T05:59:47.265Z</time>
      </trkpt>
      <trkpt lat="45.58145" lon="4.77976">
        <ele>167</ele>
        <time>2018-08-15T05:59:48.256Z</time>
      </trkpt>
      <trkpt lat="45.58142" lon="4.77971">
        <ele>167</ele>
        <time>2018-08-15T05:59:49.245Z</time>
      </trkpt>
      <trkpt lat="45.58139" lon="4.77966">
        <ele>167</ele>
        <time>2018-08-15T05:59:50.235Z</time>
      </trkpt>
      <trkpt lat="45.58139" lon="4.77966">
        <ele>167</ele>
        <time>2018-08-15T05:59:51.241Z</time>
      </trkpt>
      <trkpt lat="45.58132" lon="4.77957">
        <ele>166</ele>
        <time>2018-08-15T05:59:52.263Z</time>
      </trkpt>
      <trkpt lat="45.58132" lon="4.77957">
        <ele>166</ele>
        <time>2018-08-15T05:59:53.270Z</time>
      </trkpt>
      <trkpt lat="45.58125" lon="4.77946">
        <ele>165</ele>
        <time>2018-08-15T05:59:54.232Z</time>
      </trkpt>
      <trkpt lat="45.58125" lon="4.77946">
        <ele>165</ele>
        <time>2018-08-15T05:59:55.238Z</time>
      </trkpt>
      <trkpt lat="45.58118" lon="4.77935">
        <ele>164</ele>
        <time>2018-08-15T05:59:56.238Z</time>
      </trkpt>
      <trkpt lat="45.58118" lon="4.77935">
        <ele>164</ele>
        <time>2018-08-15T05:59:57.245Z</time>
      </trkpt>
      <trkpt lat="45.58111" lon="4.77924">
        <ele>164</ele>
        <time>2018-08-15T05:59:58.237Z</time>
      </trkpt>
      <trkpt lat="45.58107" lon="4.77918">
        <ele>163</ele>
        <time>2018-08-15T05:59:59.234Z</time>
      </trkpt>
      <trkpt lat="45.58103" lon="4.77913">
        <ele>163</ele>
        <time>2018-08-15T06:00:00.250Z</time>
      </trkpt>
      <trkpt lat="45.58103" lon="4.77913">
        <ele>163</ele>
        <time>2018-08-15T06:00:01.258Z</time>
      </trkpt>
      <trkpt lat="45.58095" lon="4.77902">
        <ele>163</ele>
        <time>2018-08-15T06:00:02.266Z</time>
      </trkpt>
      <trkpt lat="45.58095" lon="4.77902">
        <ele>163</ele>
        <time>2018-08-15T06:00:03.233Z</time>
      </trkpt>
      <trkpt lat="45.58088" lon="4.77893">
        <ele>162</ele>
        <time>2018-08-15T06:00:04.261Z</time>
      </trkpt>
      <trkpt lat="45.58086" lon="4.7789">
        <ele>162</ele>
        <time>2018-08-15T06:00:05.249Z</time>
      </trkpt>
      <trkpt lat="45.58086" lon="4.7789">
        <ele>162</ele>
        <time>2018-08-15T06:00:06.254Z</time>
      </trkpt>
      <trkpt lat="45.58081" lon="4.77882">
        <ele>161</ele>
        <time>2018-08-15T06:00:07.237Z</time>
      </trkpt>
      <trkpt lat="45.58082" lon="4.77876">
        <ele>162</ele>
        <time>2018-08-15T06:00:08.256Z</time>
      </trkpt>
      <trkpt lat="45.58082" lon="4.77876">
        <ele>162</ele>
        <time>2018-08-15T06:00:09.261Z</time>
      </trkpt>
      <trkpt lat="45.58088" lon="4.77867">
        <ele>162</ele>
        <time>2018-08-15T06:00:10.240Z</time>
      </trkpt>
      <trkpt lat="45.58088" lon="4.77867">
        <ele>162</ele>
        <time>2018-08-15T06:00:11.249Z</time>
      </trkpt>
      <trkpt lat="45.58094" lon="4.77858">
        <ele>161</ele>
        <time>2018-08-15T06:00:12.234Z</time>
      </trkpt>
      <trkpt lat="45.58094" lon="4.77858">
        <ele>161</ele>
        <time>2018-08-15T06:00:13.241Z</time>
      </trkpt>
      <trkpt lat="45.58101" lon="4.77849">
        <ele>161</ele>
        <time>2018-08-15T06:00:14.265Z</time>
      </trkpt>
      <trkpt lat="45.58101" lon="4.77849">
        <ele>161</ele>
        <time>2018-08-15T06:00:15.271Z</time>
      </trkpt>
      <trkpt lat="45.58106" lon="4.77836">
        <ele>162</ele>
        <time>2018-08-15T06:00:16.241Z</time>
      </trkpt>
      <trkpt lat="45.58106" lon="4.77836">
        <ele>162</ele>
        <time>2018-08-15T06:00:17.235Z</time>
      </trkpt>
      <trkpt lat="45.58109" lon="4.77822">
        <ele>162</ele>
        <time>2018-08-15T06:00:18.269Z</time>
      </trkpt>
      <trkpt lat="45.58109" lon="4.77822">
        <ele>162</ele>
        <time>2018-08-15T06:00:19.235Z</time>
      </trkpt>
      <trkpt lat="45.58112" lon="4.77807">
        <ele>162</ele>
        <time>2018-08-15T06:00:20.260Z</time>
      </trkpt>
      <trkpt lat="45.58112" lon="4.77807">
        <ele>162</ele>
        <time>2018-08-15T06:00:21.241Z</time>
      </trkpt>
      <trkpt lat="45.58116" lon="4.77792">
        <ele>162</ele>
        <time>2018-08-15T06:00:22.265Z</time>
      </trkpt>
      <trkpt lat="45.58116" lon="4.77792">
        <ele>162</ele>
        <time>2018-08-15T06:00:23.270Z</time>
      </trkpt>
      <trkpt lat="45.58119" lon="4.77779">
        <ele>162</ele>
        <time>2018-08-15T06:00:24.265Z</time>
      </trkpt>
      <trkpt lat="45.58119" lon="4.77779">
        <ele>162</ele>
        <time>2018-08-15T06:00:25.272Z</time>
      </trkpt>
      <trkpt lat="45.58122" lon="4.77766">
        <ele>162</ele>
        <time>2018-08-15T06:00:26.241Z</time>
      </trkpt>
      <trkpt lat="45.58122" lon="4.77766">
        <ele>162</ele>
        <time>2018-08-15T06:00:27.246Z</time>
      </trkpt>
      <trkpt lat="45.58125" lon="4.77753">
        <ele>162</ele>
        <time>2018-08-15T06:00:28.258Z</time>
      </trkpt>
      <trkpt lat="45.58125" lon="4.77753">
        <ele>162</ele>
        <time>2018-08-15T06:00:29.264Z</time>
      </trkpt>
      <trkpt lat="45.58129" lon="4.7774">
        <ele>162</ele>
        <time>2018-08-15T06:00:30.233Z</time>
      </trkpt>
      <trkpt lat="45.58131" lon="4.77733">
        <ele>162</ele>
        <time>2018-08-15T06:00:31.263Z</time>
      </trkpt>
      <trkpt lat="45.58133" lon="4.77726">
        <ele>162</ele>
        <time>2018-08-15T06:00:32.233Z</time>
      </trkpt>
      <trkpt lat="45.58133" lon="4.77726">
        <ele>162</ele>
        <time>2018-08-15T06:00:33.238Z</time>
      </trkpt>
      <trkpt lat="45.58136" lon="4.77714">
        <ele>162</ele>
        <time>2018-08-15T06:00:34.268Z</time>
      </trkpt>
      <trkpt lat="45.58136" lon="4.77714">
        <ele>162</ele>
        <time>2018-08-15T06:00:35.234Z</time>
      </trkpt>
      <trkpt lat="45.58137" lon="4.777">
        <ele>161</ele>
        <time>2018-08-15T06:00:36.253Z</time>
      </trkpt>
      <trkpt lat="45.58137" lon="4.777">
        <ele>161</ele>
        <time>2018-08-15T06:00:37.258Z</time>
      </trkpt>
      <trkpt lat="45.58142" lon="4.77684">
        <ele>161</ele>
        <time>2018-08-15T06:00:38.254Z</time>
      </trkpt>
      <trkpt lat="45.58142" lon="4.77684">
        <ele>161</ele>
        <time>2018-08-15T06:00:39.260Z</time>
      </trkpt>
      <trkpt lat="45.58146" lon="4.7767">
        <ele>161</ele>
        <time>2018-08-15T06:00:40.243Z</time>
      </trkpt>
      <trkpt lat="45.58148" lon="4.77663">
        <ele>161</ele>
        <time>2018-08-15T06:00:41.260Z</time>
      </trkpt>
      <trkpt lat="45.58148" lon="4.77663">
        <ele>161</ele>
        <time>2018-08-15T06:00:42.270Z</time>
      </trkpt>
      <trkpt lat="45.58153" lon="4.77649">
        <ele>161</ele>
        <time>2018-08-15T06:00:43.239Z</time>
      </trkpt>
      <trkpt lat="45.58156" lon="4.77643">
        <ele>161</ele>
        <time>2018-08-15T06:00:44.262Z</time>
      </trkpt>
      <trkpt lat="45.58156" lon="4.77643">
        <ele>161</ele>
        <time>2018-08-15T06:00:45.268Z</time>
      </trkpt>
      <trkpt lat="45.5816" lon="4.77628">
        <ele>161</ele>
        <time>2018-08-15T06:00:46.239Z</time>
      </trkpt>
      <trkpt lat="45.5816" lon="4.77628">
        <ele>161</ele>
        <time>2018-08-15T06:00:47.245Z</time>
      </trkpt>
      <trkpt lat="45.58164" lon="4.77614">
        <ele>160</ele>
        <time>2018-08-15T06:00:48.260Z</time>
      </trkpt>
      <trkpt lat="45.58164" lon="4.77614">
        <ele>160</ele>
        <time>2018-08-15T06:00:49.266Z</time>
      </trkpt>
      <trkpt lat="45.58169" lon="4.77601">
        <ele>160</ele>
        <time>2018-08-15T06:00:50.240Z</time>
      </trkpt>
      <trkpt lat="45.58169" lon="4.77601">
        <ele>160</ele>
        <time>2018-08-15T06:00:51.246Z</time>
      </trkpt>
      <trkpt lat="45.58173" lon="4.77587">
        <ele>160</ele>
        <time>2018-08-15T06:00:52.235Z</time>
      </trkpt>
      <trkpt lat="45.58173" lon="4.77587">
        <ele>160</ele>
        <time>2018-08-15T06:00:53.241Z</time>
      </trkpt>
      <trkpt lat="45.58177" lon="4.77573">
        <ele>160</ele>
        <time>2018-08-15T06:00:54.232Z</time>
      </trkpt>
      <trkpt lat="45.58177" lon="4.77573">
        <ele>160</ele>
        <time>2018-08-15T06:00:55.238Z</time>
      </trkpt>
      <trkpt lat="45.58181" lon="4.7756">
        <ele>160</ele>
        <time>2018-08-15T06:00:56.266Z</time>
      </trkpt>
      <trkpt lat="45.58183" lon="4.77554">
        <ele>160</ele>
        <time>2018-08-15T06:00:57.263Z</time>
      </trkpt>
      <trkpt lat="45.58183" lon="4.77554">
        <ele>160</ele>
        <time>2018-08-15T06:00:58.269Z</time>
      </trkpt>
      <trkpt lat="45.58186" lon="4.77544">
        <ele>160</ele>
        <time>2018-08-15T06:00:59.243Z</time>
      </trkpt>
      <trkpt lat="45.58186" lon="4.77544">
        <ele>160</ele>
        <time>2018-08-15T06:01:00.249Z</time>
      </trkpt>
      <trkpt lat="45.58189" lon="4.77532">
        <ele>160</ele>
        <time>2018-08-15T06:01:01.261Z</time>
      </trkpt>
      <trkpt lat="45.58189" lon="4.77532">
        <ele>160</ele>
        <time>2018-08-15T06:01:02.267Z</time>
      </trkpt>
      <trkpt lat="45.58192" lon="4.7752">
        <ele>159</ele>
        <time>2018-08-15T06:01:03.254Z</time>
      </trkpt>
      <trkpt lat="45.58192" lon="4.7752">
        <ele>159</ele>
        <time>2018-08-15T06:01:04.261Z</time>
      </trkpt>
      <trkpt lat="45.58196" lon="4.77504">
        <ele>159</ele>
        <time>2018-08-15T06:01:05.236Z</time>
      </trkpt>
      <trkpt lat="45.58196" lon="4.77504">
        <ele>159</ele>
        <time>2018-08-15T06:01:06.241Z</time>
      </trkpt>
      <trkpt lat="45.58202" lon="4.77492">
        <ele>159</ele>
        <time>2018-08-15T06:01:07.258Z</time>
      </trkpt>
      <trkpt lat="45.58204" lon="4.77486">
        <ele>159</ele>
        <time>2018-08-15T06:01:08.271Z</time>
      </trkpt>
      <trkpt lat="45.58204" lon="4.77486">
        <ele>159</ele>
        <time>2018-08-15T06:01:09.236Z</time>
      </trkpt>
      <trkpt lat="45.58206" lon="4.77476">
        <ele>159</ele>
        <time>2018-08-15T06:01:10.253Z</time>
      </trkpt>
      <trkpt lat="45.58206" lon="4.77476">
        <ele>159</ele>
        <time>2018-08-15T06:01:11.258Z</time>
      </trkpt>
      <trkpt lat="45.58206" lon="4.77468">
        <ele>159</ele>
        <time>2018-08-15T06:01:12.254Z</time>
      </trkpt>
      <trkpt lat="45.58206" lon="4.77468">
        <ele>159</ele>
        <time>2018-08-15T06:01:13.260Z</time>
      </trkpt>
      <trkpt lat="45.58207" lon="4.77462">
        <ele>159</ele>
        <time>2018-08-15T06:01:14.260Z</time>
      </trkpt>
      <trkpt lat="45.58207" lon="4.77462">
        <ele>159</ele>
        <time>2018-08-15T06:01:15.265Z</time>
      </trkpt>
      <trkpt lat="45.58209" lon="4.77455">
        <ele>158</ele>
        <time>2018-08-15T06:01:16.234Z</time>
      </trkpt>
      <trkpt lat="45.58209" lon="4.77455">
        <ele>158</ele>
        <time>2018-08-15T06:01:17.240Z</time>
      </trkpt>
      <trkpt lat="45.5821" lon="4.77448">
        <ele>158</ele>
        <time>2018-08-15T06:01:18.265Z</time>
      </trkpt>
      <trkpt lat="45.5821" lon="4.77448">
        <ele>158</ele>
        <time>2018-08-15T06:01:19.271Z</time>
      </trkpt>
      <trkpt lat="45.58213" lon="4.77437">
        <ele>159</ele>
        <time>2018-08-15T06:01:20.238Z</time>
      </trkpt>
      <trkpt lat="45.58213" lon="4.77437">
        <ele>159</ele>
        <time>2018-08-15T06:01:21.243Z</time>
      </trkpt>
      <trkpt lat="45.58213" lon="4.77427">
        <ele>159</ele>
        <time>2018-08-15T06:01:22.255Z</time>
      </trkpt>
      <trkpt lat="45.58213" lon="4.77427">
        <ele>159</ele>
        <time>2018-08-15T06:01:23.261Z</time>
      </trkpt>
      <trkpt lat="45.5821" lon="4.77417">
        <ele>159</ele>
        <time>2018-08-15T06:01:24.233Z</time>
      </trkpt>
      <trkpt lat="45.5821" lon="4.77417">
        <ele>159</ele>
        <time>2018-08-15T06:01:25.242Z</time>
      </trkpt>
      <trkpt lat="45.58206" lon="4.77406">
        <ele>159</ele>
        <time>2018-08-15T06:01:26.258Z</time>
      </trkpt>
      <trkpt lat="45.58206" lon="4.77406">
        <ele>159</ele>
        <time>2018-08-15T06:01:27.264Z</time>
      </trkpt>
      <trkpt lat="45.58204" lon="4.77394">
        <ele>159</ele>
        <time>2018-08-15T06:01:28.248Z</time>
      </trkpt>
      <trkpt lat="45.58204" lon="4.77394">
        <ele>159</ele>
        <time>2018-08-15T06:01:29.260Z</time>
      </trkpt>
      <trkpt lat="45.582" lon="4.77381">
        <ele>159</ele>
        <time>2018-08-15T06:01:30.259Z</time>
      </trkpt>
      <trkpt lat="45.58199" lon="4.77375">
        <ele>159</ele>
        <time>2018-08-15T06:01:31.236Z</time>
      </trkpt>
      <trkpt lat="45.58197" lon="4.77369">
        <ele>158</ele>
        <time>2018-08-15T06:01:32.243Z</time>
      </trkpt>
      <trkpt lat="45.58197" lon="4.77369">
        <ele>158</ele>
        <time>2018-08-15T06:01:33.248Z</time>
      </trkpt>
      <trkpt lat="45.58194" lon="4.77357">
        <ele>158</ele>
        <time>2018-08-15T06:01:34.271Z</time>
      </trkpt>
      <trkpt lat="45.58192" lon="4.77351">
        <ele>158</ele>
        <time>2018-08-15T06:01:35.267Z</time>
      </trkpt>
      <trkpt lat="45.58192" lon="4.77351">
        <ele>158</ele>
        <time>2018-08-15T06:01:36.244Z</time>
      </trkpt>
      <trkpt lat="45.58189" lon="4.7734">
        <ele>158</ele>
        <time>2018-08-15T06:01:37.252Z</time>
      </trkpt>
      <trkpt lat="45.58189" lon="4.77334">
        <ele>158</ele>
        <time>2018-08-15T06:01:38.243Z</time>
      </trkpt>
      <trkpt lat="45.58189" lon="4.77334">
        <ele>158</ele>
        <time>2018-08-15T06:01:39.248Z</time>
      </trkpt>
      <trkpt lat="45.5819" lon="4.77323">
        <ele>158</ele>
        <time>2018-08-15T06:01:40.232Z</time>
      </trkpt>
      <trkpt lat="45.5819" lon="4.77323">
        <ele>158</ele>
        <time>2018-08-15T06:01:41.237Z</time>
      </trkpt>
      <trkpt lat="45.58193" lon="4.77315">
        <ele>158</ele>
        <time>2018-08-15T06:01:42.233Z</time>
      </trkpt>
      <trkpt lat="45.58193" lon="4.77315">
        <ele>158</ele>
        <time>2018-08-15T06:01:43.239Z</time>
      </trkpt>
      <trkpt lat="45.58201" lon="4.77309">
        <ele>157</ele>
        <time>2018-08-15T06:01:44.259Z</time>
      </trkpt>
      <trkpt lat="45.58201" lon="4.77309">
        <ele>157</ele>
        <time>2018-08-15T06:01:45.264Z</time>
      </trkpt>
      <trkpt lat="45.58209" lon="4.77305">
        <ele>157</ele>
        <time>2018-08-15T06:01:46.249Z</time>
      </trkpt>
      <trkpt lat="45.58209" lon="4.77305">
        <ele>157</ele>
        <time>2018-08-15T06:01:47.258Z</time>
      </trkpt>
      <trkpt lat="45.58219" lon="4.77301">
        <ele>158</ele>
        <time>2018-08-15T06:01:48.264Z</time>
      </trkpt>
      <trkpt lat="45.58219" lon="4.77301">
        <ele>158</ele>
        <time>2018-08-15T06:01:49.270Z</time>
      </trkpt>
      <trkpt lat="45.58228" lon="4.77296">
        <ele>158</ele>
        <time>2018-08-15T06:01:50.248Z</time>
      </trkpt>
      <trkpt lat="45.58228" lon="4.77296">
        <ele>158</ele>
        <time>2018-08-15T06:01:51.254Z</time>
      </trkpt>
      <trkpt lat="45.58236" lon="4.77288">
        <ele>159</ele>
        <time>2018-08-15T06:01:52.261Z</time>
      </trkpt>
      <trkpt lat="45.58236" lon="4.77288">
        <ele>159</ele>
        <time>2018-08-15T06:01:53.270Z</time>
      </trkpt>
      <trkpt lat="45.58238" lon="4.77276">
        <ele>160</ele>
        <time>2018-08-15T06:01:54.239Z</time>
      </trkpt>
      <trkpt lat="45.58238" lon="4.77276">
        <ele>160</ele>
        <time>2018-08-15T06:01:55.245Z</time>
      </trkpt>
      <trkpt lat="45.58236" lon="4.77262">
        <ele>160</ele>
        <time>2018-08-15T06:01:56.266Z</time>
      </trkpt>
      <trkpt lat="45.58235" lon="4.77256">
        <ele>160</ele>
        <time>2018-08-15T06:01:57.232Z</time>
      </trkpt>
      <trkpt lat="45.58235" lon="4.77256">
        <ele>160</ele>
        <time>2018-08-15T06:01:58.254Z</time>
      </trkpt>
      <trkpt lat="45.58235" lon="4.77244">
        <ele>160</ele>
        <time>2018-08-15T06:01:59.270Z</time>
      </trkpt>
      <trkpt lat="45.58235" lon="4.77244">
        <ele>160</ele>
        <time>2018-08-15T06:02:00.236Z</time>
      </trkpt>
      <trkpt lat="45.58239" lon="4.77235">
        <ele>160</ele>
        <time>2018-08-15T06:02:01.249Z</time>
      </trkpt>
      <trkpt lat="45.58242" lon="4.7723">
        <ele>160</ele>
        <time>2018-08-15T06:02:02.248Z</time>
      </trkpt>
      <trkpt lat="45.58242" lon="4.7723">
        <ele>160</ele>
        <time>2018-08-15T06:02:03.258Z</time>
      </trkpt>
      <trkpt lat="45.5825" lon="4.77222">
        <ele>161</ele>
        <time>2018-08-15T06:02:04.239Z</time>
      </trkpt>
      <trkpt lat="45.5825" lon="4.77222">
        <ele>161</ele>
        <time>2018-08-15T06:02:05.261Z</time>
      </trkpt>
      <trkpt lat="45.58258" lon="4.77214">
        <ele>161</ele>
        <time>2018-08-15T06:02:06.264Z</time>
      </trkpt>
      <trkpt lat="45.58258" lon="4.77214">
        <ele>161</ele>
        <time>2018-08-15T06:02:07.269Z</time>
      </trkpt>
      <trkpt lat="45.58267" lon="4.77204">
        <ele>162</ele>
        <time>2018-08-15T06:02:08.264Z</time>
      </trkpt>
      <trkpt lat="45.58267" lon="4.77204">
        <ele>162</ele>
        <time>2018-08-15T06:02:09.269Z</time>
      </trkpt>
      <trkpt lat="45.58274" lon="4.77196">
        <ele>162</ele>
        <time>2018-08-15T06:02:10.245Z</time>
      </trkpt>
      <trkpt lat="45.58274" lon="4.77196">
        <ele>162</ele>
        <time>2018-08-15T06:02:11.250Z</time>
      </trkpt>
      <trkpt lat="45.58282" lon="4.77187">
        <ele>162</ele>
        <time>2018-08-15T06:02:12.244Z</time>
      </trkpt>
      <trkpt lat="45.58282" lon="4.77187">
        <ele>162</ele>
        <time>2018-08-15T06:02:13.250Z</time>
      </trkpt>
      <trkpt lat="45.58291" lon="4.77178">
        <ele>163</ele>
        <time>2018-08-15T06:02:14.266Z</time>
      </trkpt>
      <trkpt lat="45.58291" lon="4.77178">
        <ele>163</ele>
        <time>2018-08-15T06:02:15.272Z</time>
      </trkpt>
      <trkpt lat="45.583" lon="4.77167">
        <ele>164</ele>
        <time>2018-08-15T06:02:16.244Z</time>
      </trkpt>
      <trkpt lat="45.583" lon="4.77167">
        <ele>164</ele>
        <time>2018-08-15T06:02:17.249Z</time>
      </trkpt>
      <trkpt lat="45.58308" lon="4.77158">
        <ele>164</ele>
        <time>2018-08-15T06:02:18.241Z</time>
      </trkpt>
      <trkpt lat="45.58308" lon="4.77158">
        <ele>164</ele>
        <time>2018-08-15T06:02:19.247Z</time>
      </trkpt>
      <trkpt lat="45.58317" lon="4.77149">
        <ele>164</ele>
        <time>2018-08-15T06:02:20.261Z</time>
      </trkpt>
      <trkpt lat="45.58317" lon="4.77149">
        <ele>164</ele>
        <time>2018-08-15T06:02:21.267Z</time>
      </trkpt>
      <trkpt lat="45.58324" lon="4.77139">
        <ele>165</ele>
        <time>2018-08-15T06:02:22.247Z</time>
      </trkpt>
      <trkpt lat="45.58324" lon="4.77139">
        <ele>165</ele>
        <time>2018-08-15T06:02:23.258Z</time>
      </trkpt>
      <trkpt lat="45.58331" lon="4.7713">
        <ele>165</ele>
        <time>2018-08-15T06:02:24.233Z</time>
      </trkpt>
      <trkpt lat="45.58331" lon="4.7713">
        <ele>165</ele>
        <time>2018-08-15T06:02:25.238Z</time>
      </trkpt>
      <trkpt lat="45.5834" lon="4.77122">
        <ele>164</ele>
        <time>2018-08-15T06:02:26.243Z</time>
      </trkpt>
      <trkpt lat="45.5834" lon="4.77122">
        <ele>164</ele>
        <time>2018-08-15T06:02:27.248Z</time>
      </trkpt>
      <trkpt lat="45.58347" lon="4.77114">
        <ele>165</ele>
        <time>2018-08-15T06:02:28.255Z</time>
      </trkpt>
      <trkpt lat="45.58347" lon="4.77114">
        <ele>165</ele>
        <time>2018-08-15T06:02:29.260Z</time>
      </trkpt>
      <trkpt lat="45.58355" lon="4.77106">
        <ele>165</ele>
        <time>2018-08-15T06:02:30.254Z</time>
      </trkpt>
      <trkpt lat="45.58355" lon="4.77106">
        <ele>165</ele>
        <time>2018-08-15T06:02:31.260Z</time>
      </trkpt>
      <trkpt lat="45.58363" lon="4.77098">
        <ele>165</ele>
        <time>2018-08-15T06:02:32.235Z</time>
      </trkpt>
      <trkpt lat="45.58363" lon="4.77098">
        <ele>165</ele>
        <time>2018-08-15T06:02:33.240Z</time>
      </trkpt>
      <trkpt lat="45.58371" lon="4.77089">
        <ele>166</ele>
        <time>2018-08-15T06:02:34.269Z</time>
      </trkpt>
      <trkpt lat="45.58371" lon="4.77089">
        <ele>166</ele>
        <time>2018-08-15T06:02:35.234Z</time>
      </trkpt>
      <trkpt lat="45.58379" lon="4.77081">
        <ele>166</ele>
        <time>2018-08-15T06:02:36.260Z</time>
      </trkpt>
      <trkpt lat="45.58379" lon="4.77081">
        <ele>166</ele>
        <time>2018-08-15T06:02:37.265Z</time>
      </trkpt>
      <trkpt lat="45.58386" lon="4.7707">
        <ele>165</ele>
        <time>2018-08-15T06:02:38.264Z</time>
      </trkpt>
      <trkpt lat="45.58386" lon="4.7707">
        <ele>165</ele>
        <time>2018-08-15T06:02:39.270Z</time>
      </trkpt>
      <trkpt lat="45.58393" lon="4.7706">
        <ele>165</ele>
        <time>2018-08-15T06:02:40.241Z</time>
      </trkpt>
      <trkpt lat="45.58393" lon="4.7706">
        <ele>165</ele>
        <time>2018-08-15T06:02:41.246Z</time>
      </trkpt>
      <trkpt lat="45.58399" lon="4.77053">
        <ele>165</ele>
        <time>2018-08-15T06:02:42.253Z</time>
      </trkpt>
      <trkpt lat="45.58399" lon="4.77053">
        <ele>165</ele>
        <time>2018-08-15T06:02:43.260Z</time>
      </trkpt>
      <trkpt lat="45.58406" lon="4.77043">
        <ele>164</ele>
        <time>2018-08-15T06:02:44.233Z</time>
      </trkpt>
      <trkpt lat="45.58406" lon="4.77043">
        <ele>164</ele>
        <time>2018-08-15T06:02:45.238Z</time>
      </trkpt>
      <trkpt lat="45.58415" lon="4.77034">
        <ele>164</ele>
        <time>2018-08-15T06:02:46.270Z</time>
      </trkpt>
      <trkpt lat="45.58415" lon="4.77034">
        <ele>164</ele>
        <time>2018-08-15T06:02:47.235Z</time>
      </trkpt>
      <trkpt lat="45.58424" lon="4.77024">
        <ele>164</ele>
        <time>2018-08-15T06:02:48.248Z</time>
      </trkpt>
      <trkpt lat="45.58428" lon="4.77019">
        <ele>163</ele>
        <time>2018-08-15T06:02:49.255Z</time>
      </trkpt>
      <trkpt lat="45.58432" lon="4.77014">
        <ele>163</ele>
        <time>2018-08-15T06:02:50.269Z</time>
      </trkpt>
      <trkpt lat="45.58432" lon="4.77014">
        <ele>163</ele>
        <time>2018-08-15T06:02:51.234Z</time>
      </trkpt>
      <trkpt lat="45.5844" lon="4.77004">
        <ele>163</ele>
        <time>2018-08-15T06:02:52.265Z</time>
      </trkpt>
      <trkpt lat="45.5844" lon="4.77004">
        <ele>163</ele>
        <time>2018-08-15T06:02:53.232Z</time>
      </trkpt>
      <trkpt lat="45.58448" lon="4.76994">
        <ele>163</ele>
        <time>2018-08-15T06:02:54.238Z</time>
      </trkpt>
      <trkpt lat="45.58448" lon="4.76994">
        <ele>163</ele>
        <time>2018-08-15T06:02:55.243Z</time>
      </trkpt>
      <trkpt lat="45.58456" lon="4.76985">
        <ele>162</ele>
        <time>2018-08-15T06:02:56.271Z</time>
      </trkpt>
      <trkpt lat="45.58456" lon="4.76985">
        <ele>162</ele>
        <time>2018-08-15T06:02:57.237Z</time>
      </trkpt>
      <trkpt lat="45.58464" lon="4.76977">
        <ele>162</ele>
        <time>2018-08-15T06:02:58.263Z</time>
      </trkpt>
      <trkpt lat="45.58464" lon="4.76977">
        <ele>162</ele>
        <time>2018-08-15T06:02:59.269Z</time>
      </trkpt>
      <trkpt lat="45.58471" lon="4.76969">
        <ele>163</ele>
        <time>2018-08-15T06:03:00.258Z</time>
      </trkpt>
      <trkpt lat="45.58471" lon="4.76969">
        <ele>163</ele>
        <time>2018-08-15T06:03:01.263Z</time>
      </trkpt>
      <trkpt lat="45.58479" lon="4.76958">
        <ele>163</ele>
        <time>2018-08-15T06:03:02.241Z</time>
      </trkpt>
      <trkpt lat="45.58479" lon="4.76958">
        <ele>163</ele>
        <time>2018-08-15T06:03:03.247Z</time>
      </trkpt>
      <trkpt lat="45.58486" lon="4.76949">
        <ele>164</ele>
        <time>2018-08-15T06:03:04.234Z</time>
      </trkpt>
      <trkpt lat="45.58486" lon="4.76949">
        <ele>164</ele>
        <time>2018-08-15T06:03:05.239Z</time>
      </trkpt>
      <trkpt lat="45.58492" lon="4.7694">
        <ele>164</ele>
        <time>2018-08-15T06:03:06.257Z</time>
      </trkpt>
      <trkpt lat="45.58492" lon="4.7694">
        <ele>164</ele>
        <time>2018-08-15T06:03:07.262Z</time>
      </trkpt>
      <trkpt lat="45.58498" lon="4.76931">
        <ele>165</ele>
        <time>2018-08-15T06:03:08.253Z</time>
      </trkpt>
      <trkpt lat="45.58498" lon="4.76931">
        <ele>165</ele>
        <time>2018-08-15T06:03:09.259Z</time>
      </trkpt>
      <trkpt lat="45.58505" lon="4.76921">
        <ele>165</ele>
        <time>2018-08-15T06:03:10.243Z</time>
      </trkpt>
      <trkpt lat="45.58509" lon="4.76917">
        <ele>165</ele>
        <time>2018-08-15T06:03:11.233Z</time>
      </trkpt>
      <trkpt lat="45.58513" lon="4.76912">
        <ele>166</ele>
        <time>2018-08-15T06:03:12.260Z</time>
      </trkpt>
      <trkpt lat="45.58513" lon="4.76912">
        <ele>166</ele>
        <time>2018-08-15T06:03:13.255Z</time>
      </trkpt>
      <trkpt lat="45.5852" lon="4.76904">
        <ele>166</ele>
        <time>2018-08-15T06:03:14.239Z</time>
      </trkpt>
      <trkpt lat="45.5852" lon="4.76904">
        <ele>166</ele>
        <time>2018-08-15T06:03:15.245Z</time>
      </trkpt>
      <trkpt lat="45.58527" lon="4.76902">
        <ele>166</ele>
        <time>2018-08-15T06:03:16.241Z</time>
      </trkpt>
      <trkpt lat="45.58527" lon="4.76902">
        <ele>166</ele>
        <time>2018-08-15T06:03:17.246Z</time>
      </trkpt>
      <trkpt lat="45.58535" lon="4.76904">
        <ele>166</ele>
        <time>2018-08-15T06:03:18.259Z</time>
      </trkpt>
      <trkpt lat="45.58535" lon="4.76904">
        <ele>166</ele>
        <time>2018-08-15T06:03:19.264Z</time>
      </trkpt>
      <trkpt lat="45.58543" lon="4.76903">
        <ele>166</ele>
        <time>2018-08-15T06:03:20.245Z</time>
      </trkpt>
      <trkpt lat="45.58543" lon="4.76903">
        <ele>166</ele>
        <time>2018-08-15T06:03:21.250Z</time>
      </trkpt>
      <trkpt lat="45.5855" lon="4.76903">
        <ele>167</ele>
        <time>2018-08-15T06:03:22.240Z</time>
      </trkpt>
      <trkpt lat="45.5855" lon="4.76903">
        <ele>167</ele>
        <time>2018-08-15T06:03:23.247Z</time>
      </trkpt>
      <trkpt lat="45.58556" lon="4.76907">
        <ele>166</ele>
        <time>2018-08-15T06:03:24.243Z</time>
      </trkpt>
      <trkpt lat="45.58556" lon="4.76907">
        <ele>166</ele>
        <time>2018-08-15T06:03:25.249Z</time>
      </trkpt>
      <trkpt lat="45.58562" lon="4.76909">
        <ele>166</ele>
        <time>2018-08-15T06:03:26.242Z</time>
      </trkpt>
      <trkpt lat="45.58562" lon="4.76909">
        <ele>166</ele>
        <time>2018-08-15T06:03:27.248Z</time>
      </trkpt>
      <trkpt lat="45.58568" lon="4.76903">
        <ele>166</ele>
        <time>2018-08-15T06:03:28.241Z</time>
      </trkpt>
      <trkpt lat="45.58568" lon="4.76903">
        <ele>166</ele>
        <time>2018-08-15T06:03:29.246Z</time>
      </trkpt>
      <trkpt lat="45.58567" lon="4.76893">
        <ele>166</ele>
        <time>2018-08-15T06:03:30.246Z</time>
      </trkpt>
      <trkpt lat="45.58564" lon="4.76888">
        <ele>165</ele>
        <time>2018-08-15T06:03:31.270Z</time>
      </trkpt>
      <trkpt lat="45.58562" lon="4.76884">
        <ele>165</ele>
        <time>2018-08-15T06:03:32.266Z</time>
      </trkpt>
      <trkpt lat="45.58562" lon="4.76884">
        <ele>165</ele>
        <time>2018-08-15T06:03:33.232Z</time>
      </trkpt>
      <trkpt lat="45.58557" lon="4.76874">
        <ele>165</ele>
        <time>2018-08-15T06:03:34.233Z</time>
      </trkpt>
      <trkpt lat="45.58557" lon="4.76874">
        <ele>165</ele>
        <time>2018-08-15T06:03:35.260Z</time>
      </trkpt>
      <trkpt lat="45.58552" lon="4.76863">
        <ele>164</ele>
        <time>2018-08-15T06:03:36.255Z</time>
      </trkpt>
      <trkpt lat="45.58552" lon="4.76863">
        <ele>164</ele>
        <time>2018-08-15T06:03:37.261Z</time>
      </trkpt>
      <trkpt lat="45.5855" lon="4.76851">
        <ele>164</ele>
        <time>2018-08-15T06:03:38.250Z</time>
      </trkpt>
      <trkpt lat="45.5855" lon="4.76851">
        <ele>164</ele>
        <time>2018-08-15T06:03:39.256Z</time>
      </trkpt>
      <trkpt lat="45.58548" lon="4.7684">
        <ele>164</ele>
        <time>2018-08-15T06:03:40.240Z</time>
      </trkpt>
      <trkpt lat="45.58548" lon="4.7684">
        <ele>164</ele>
        <time>2018-08-15T06:03:41.246Z</time>
      </trkpt>
      <trkpt lat="45.58547" lon="4.76828">
        <ele>165</ele>
        <time>2018-08-15T06:03:42.236Z</time>
      </trkpt>
      <trkpt lat="45.58546" lon="4.76821">
        <ele>164</ele>
        <time>2018-08-15T06:03:43.257Z</time>
      </trkpt>
      <trkpt lat="45.58545" lon="4.76815">
        <ele>164</ele>
        <time>2018-08-15T06:03:44.246Z</time>
      </trkpt>
      <trkpt lat="45.58545" lon="4.76815">
        <ele>164</ele>
        <time>2018-08-15T06:03:45.257Z</time>
      </trkpt>
      <trkpt lat="45.58544" lon="4.76802">
        <ele>164</ele>
        <time>2018-08-15T06:03:46.267Z</time>
      </trkpt>
      <trkpt lat="45.58542" lon="4.76796">
        <ele>164</ele>
        <time>2018-08-15T06:03:47.264Z</time>
      </trkpt>
      <trkpt lat="45.58542" lon="4.76796">
        <ele>164</ele>
        <time>2018-08-15T06:03:48.233Z</time>
      </trkpt>
      <trkpt lat="45.58537" lon="4.76785">
        <ele>164</ele>
        <time>2018-08-15T06:03:49.264Z</time>
      </trkpt>
      <trkpt lat="45.58537" lon="4.76785">
        <ele>164</ele>
        <time>2018-08-15T06:03:50.250Z</time>
      </trkpt>
      <trkpt lat="45.58532" lon="4.76774">
        <ele>163</ele>
        <time>2018-08-15T06:03:51.235Z</time>
      </trkpt>
      <trkpt lat="45.58529" lon="4.76769">
        <ele>163</ele>
        <time>2018-08-15T06:03:52.271Z</time>
      </trkpt>
      <trkpt lat="45.58529" lon="4.76769">
        <ele>163</ele>
        <time>2018-08-15T06:03:53.263Z</time>
      </trkpt>
      <trkpt lat="45.58522" lon="4.7676">
        <ele>163</ele>
        <time>2018-08-15T06:03:54.255Z</time>
      </trkpt>
      <trkpt lat="45.58522" lon="4.7676">
        <ele>163</ele>
        <time>2018-08-15T06:03:55.261Z</time>
      </trkpt>
      <trkpt lat="45.58515" lon="4.76752">
        <ele>163</ele>
        <time>2018-08-15T06:03:56.257Z</time>
      </trkpt>
      <trkpt lat="45.58515" lon="4.76752">
        <ele>163</ele>
        <time>2018-08-15T06:03:57.263Z</time>
      </trkpt>
      <trkpt lat="45.58507" lon="4.76744">
        <ele>163</ele>
        <time>2018-08-15T06:03:58.252Z</time>
      </trkpt>
      <trkpt lat="45.58507" lon="4.76744">
        <ele>163</ele>
        <time>2018-08-15T06:03:59.260Z</time>
      </trkpt>
      <trkpt lat="45.58502" lon="4.76734">
        <ele>162</ele>
        <time>2018-08-15T06:04:00.265Z</time>
      </trkpt>
      <trkpt lat="45.58502" lon="4.76734">
        <ele>162</ele>
        <time>2018-08-15T06:04:01.271Z</time>
      </trkpt>
      <trkpt lat="45.58496" lon="4.76725">
        <ele>162</ele>
        <time>2018-08-15T06:04:02.256Z</time>
      </trkpt>
      <trkpt lat="45.58496" lon="4.76725">
        <ele>162</ele>
        <time>2018-08-15T06:04:03.261Z</time>
      </trkpt>
      <trkpt lat="45.5849" lon="4.76717">
        <ele>161</ele>
        <time>2018-08-15T06:04:04.246Z</time>
      </trkpt>
      <trkpt lat="45.58487" lon="4.76712">
        <ele>161</ele>
        <time>2018-08-15T06:04:05.271Z</time>
      </trkpt>
      <trkpt lat="45.58487" lon="4.76712">
        <ele>161</ele>
        <time>2018-08-15T06:04:06.237Z</time>
      </trkpt>
      <trkpt lat="45.58482" lon="4.76701">
        <ele>162</ele>
        <time>2018-08-15T06:04:07.260Z</time>
      </trkpt>
      <trkpt lat="45.58481" lon="4.76696">
        <ele>162</ele>
        <time>2018-08-15T06:04:08.245Z</time>
      </trkpt>
      <trkpt lat="45.58481" lon="4.76696">
        <ele>162</ele>
        <time>2018-08-15T06:04:09.259Z</time>
      </trkpt>
      <trkpt lat="45.58478" lon="4.76685">
        <ele>163</ele>
        <time>2018-08-15T06:04:10.259Z</time>
      </trkpt>
      <trkpt lat="45.58478" lon="4.76685">
        <ele>163</ele>
        <time>2018-08-15T06:04:11.266Z</time>
      </trkpt>
      <trkpt lat="45.58476" lon="4.76674">
        <ele>164</ele>
        <time>2018-08-15T06:04:12.246Z</time>
      </trkpt>
      <trkpt lat="45.58476" lon="4.76674">
        <ele>164</ele>
        <time>2018-08-15T06:04:13.251Z</time>
      </trkpt>
      <trkpt lat="45.58473" lon="4.76664">
        <ele>164</ele>
        <time>2018-08-15T06:04:14.250Z</time>
      </trkpt>
      <trkpt lat="45.58471" lon="4.7666">
        <ele>164</ele>
        <time>2018-08-15T06:04:15.249Z</time>
      </trkpt>
      <trkpt lat="45.58471" lon="4.7666">
        <ele>164</ele>
        <time>2018-08-15T06:04:16.256Z</time>
      </trkpt>
      <trkpt lat="45.58466" lon="4.76651">
        <ele>164</ele>
        <time>2018-08-15T06:04:17.263Z</time>
      </trkpt>
      <trkpt lat="45.58466" lon="4.76651">
        <ele>164</ele>
        <time>2018-08-15T06:04:18.268Z</time>
      </trkpt>
      <trkpt lat="45.58462" lon="4.76642">
        <ele>165</ele>
        <time>2018-08-15T06:04:19.266Z</time>
      </trkpt>
      <trkpt lat="45.58459" lon="4.76638">
        <ele>165</ele>
        <time>2018-08-15T06:04:20.250Z</time>
      </trkpt>
      <trkpt lat="45.58459" lon="4.76638">
        <ele>165</ele>
        <time>2018-08-15T06:04:21.257Z</time>
      </trkpt>
      <trkpt lat="45.58453" lon="4.76633">
        <ele>165</ele>
        <time>2018-08-15T06:04:22.240Z</time>
      </trkpt>
      <trkpt lat="45.58453" lon="4.76633">
        <ele>165</ele>
        <time>2018-08-15T06:04:23.246Z</time>
      </trkpt>
      <trkpt lat="45.58446" lon="4.76634">
        <ele>165</ele>
        <time>2018-08-15T06:04:24.238Z</time>
      </trkpt>
      <trkpt lat="45.58446" lon="4.76634">
        <ele>165</ele>
        <time>2018-08-15T06:04:25.243Z</time>
      </trkpt>
      <trkpt lat="45.58441" lon="4.76639">
        <ele>165</ele>
        <time>2018-08-15T06:04:26.242Z</time>
      </trkpt>
      <trkpt lat="45.58441" lon="4.76639">
        <ele>165</ele>
        <time>2018-08-15T06:04:27.248Z</time>
      </trkpt>
      <trkpt lat="45.58436" lon="4.76645">
        <ele>165</ele>
        <time>2018-08-15T06:04:28.239Z</time>
      </trkpt>
      <trkpt lat="45.58436" lon="4.76645">
        <ele>165</ele>
        <time>2018-08-15T06:04:29.244Z</time>
      </trkpt>
      <trkpt lat="45.58432" lon="4.76651">
        <ele>165</ele>
        <time>2018-08-15T06:04:30.263Z</time>
      </trkpt>
      <trkpt lat="45.58432" lon="4.76651">
        <ele>165</ele>
        <time>2018-08-15T06:04:31.268Z</time>
      </trkpt>
      <trkpt lat="45.58428" lon="4.76658">
        <ele>164</ele>
        <time>2018-08-15T06:04:32.257Z</time>
      </trkpt>
      <trkpt lat="45.58428" lon="4.76658">
        <ele>164</ele>
        <time>2018-08-15T06:04:33.263Z</time>
      </trkpt>
      <trkpt lat="45.58425" lon="4.76664">
        <ele>164</ele>
        <time>2018-08-15T06:04:34.247Z</time>
      </trkpt>
      <trkpt lat="45.58425" lon="4.76664">
        <ele>164</ele>
        <time>2018-08-15T06:04:35.256Z</time>
      </trkpt>
      <trkpt lat="45.58421" lon="4.76671">
        <ele>164</ele>
        <time>2018-08-15T06:04:36.258Z</time>
      </trkpt>
      <trkpt lat="45.58421" lon="4.76671">
        <ele>164</ele>
        <time>2018-08-15T06:04:37.263Z</time>
      </trkpt>
      <trkpt lat="45.58418" lon="4.76678">
        <ele>165</ele>
        <time>2018-08-15T06:04:38.241Z</time>
      </trkpt>
      <trkpt lat="45.58418" lon="4.76678">
        <ele>165</ele>
        <time>2018-08-15T06:04:39.246Z</time>
      </trkpt>
      <trkpt lat="45.58414" lon="4.76684">
        <ele>165</ele>
        <time>2018-08-15T06:04:40.239Z</time>
      </trkpt>
      <trkpt lat="45.58414" lon="4.76684">
        <ele>165</ele>
        <time>2018-08-15T06:04:41.245Z</time>
      </trkpt>
      <trkpt lat="45.58411" lon="4.76691">
        <ele>165</ele>
        <time>2018-08-15T06:04:42.254Z</time>
      </trkpt>
      <trkpt lat="45.5841" lon="4.76695">
        <ele>165</ele>
        <time>2018-08-15T06:04:43.263Z</time>
      </trkpt>
      <trkpt lat="45.5841" lon="4.76695">
        <ele>165</ele>
        <time>2018-08-15T06:04:44.268Z</time>
      </trkpt>
      <trkpt lat="45.58406" lon="4.767">
        <ele>165</ele>
        <time>2018-08-15T06:04:45.267Z</time>
      </trkpt>
      <trkpt lat="45.58406" lon="4.767">
        <ele>165</ele>
        <time>2018-08-15T06:04:46.233Z</time>
      </trkpt>
      <trkpt lat="45.58402" lon="4.76706">
        <ele>166</ele>
        <time>2018-08-15T06:04:47.254Z</time>
      </trkpt>
      <trkpt lat="45.58402" lon="4.76706">
        <ele>166</ele>
        <time>2018-08-15T06:04:48.261Z</time>
      </trkpt>
      <trkpt lat="45.58399" lon="4.76713">
        <ele>166</ele>
        <time>2018-08-15T06:04:49.265Z</time>
      </trkpt>
      <trkpt lat="45.58397" lon="4.76716">
        <ele>166</ele>
        <time>2018-08-15T06:04:50.251Z</time>
      </trkpt>
      <trkpt lat="45.58397" lon="4.76716">
        <ele>166</ele>
        <time>2018-08-15T06:04:51.257Z</time>
      </trkpt>
      <trkpt lat="45.58393" lon="4.76722">
        <ele>166</ele>
        <time>2018-08-15T06:04:52.234Z</time>
      </trkpt>
      <trkpt lat="45.58393" lon="4.76722">
        <ele>166</ele>
        <time>2018-08-15T06:04:53.239Z</time>
      </trkpt>
      <trkpt lat="45.5839" lon="4.76728">
        <ele>167</ele>
        <time>2018-08-15T06:04:54.232Z</time>
      </trkpt>
      <trkpt lat="45.5839" lon="4.76728">
        <ele>167</ele>
        <time>2018-08-15T06:04:55.238Z</time>
      </trkpt>
      <trkpt lat="45.58385" lon="4.76733">
        <ele>167</ele>
        <time>2018-08-15T06:04:56.263Z</time>
      </trkpt>
      <trkpt lat="45.58383" lon="4.76735">
        <ele>167</ele>
        <time>2018-08-15T06:04:57.269Z</time>
      </trkpt>
      <trkpt lat="45.58383" lon="4.76735">
        <ele>167</ele>
        <time>2018-08-15T06:04:58.234Z</time>
      </trkpt>
      <trkpt lat="45.5838" lon="4.7674">
        <ele>167</ele>
        <time>2018-08-15T06:04:59.253Z</time>
      </trkpt>
      <trkpt lat="45.5838" lon="4.7674">
        <ele>167</ele>
        <time>2018-08-15T06:05:00.259Z</time>
      </trkpt>
      <trkpt lat="45.58377" lon="4.76746">
        <ele>167</ele>
        <time>2018-08-15T06:05:01.249Z</time>
      </trkpt>
      <trkpt lat="45.58375" lon="4.76748">
        <ele>167</ele>
        <time>2018-08-15T06:05:02.252Z</time>
      </trkpt>
      <trkpt lat="45.58375" lon="4.76748">
        <ele>167</ele>
        <time>2018-08-15T06:05:03.259Z</time>
      </trkpt>
      <trkpt lat="45.58372" lon="4.76754">
        <ele>167</ele>
        <time>2018-08-15T06:05:04.240Z</time>
      </trkpt>
      <trkpt lat="45.58372" lon="4.76754">
        <ele>167</ele>
        <time>2018-08-15T06:05:05.245Z</time>
      </trkpt>
      <trkpt lat="45.58369" lon="4.76759">
        <ele>167</ele>
        <time>2018-08-15T06:05:06.270Z</time>
      </trkpt>
      <trkpt lat="45.58369" lon="4.76759">
        <ele>167</ele>
        <time>2018-08-15T06:05:07.235Z</time>
      </trkpt>
      <trkpt lat="45.58365" lon="4.76764">
        <ele>167</ele>
        <time>2018-08-15T06:05:08.266Z</time>
      </trkpt>
      <trkpt lat="45.58365" lon="4.76764">
        <ele>167</ele>
        <time>2018-08-15T06:05:09.272Z</time>
      </trkpt>
      <trkpt lat="45.58363" lon="4.76769">
        <ele>167</ele>
        <time>2018-08-15T06:05:10.255Z</time>
      </trkpt>
      <trkpt lat="45.58363" lon="4.76769">
        <ele>167</ele>
        <time>2018-08-15T06:05:11.261Z</time>
      </trkpt>
      <trkpt lat="45.58359" lon="4.76774">
        <ele>168</ele>
        <time>2018-08-15T06:05:12.254Z</time>
      </trkpt>
      <trkpt lat="45.58359" lon="4.76774">
        <ele>168</ele>
        <time>2018-08-15T06:05:13.260Z</time>
      </trkpt>
      <trkpt lat="45.58357" lon="4.76778">
        <ele>168</ele>
        <time>2018-08-15T06:05:14.253Z</time>
      </trkpt>
      <trkpt lat="45.58357" lon="4.76778">
        <ele>168</ele>
        <time>2018-08-15T06:05:15.259Z</time>
      </trkpt>
      <trkpt lat="45.58353" lon="4.76782">
        <ele>168</ele>
        <time>2018-08-15T06:05:16.245Z</time>
      </trkpt>
      <trkpt lat="45.58353" lon="4.76782">
        <ele>168</ele>
        <time>2018-08-15T06:05:17.265Z</time>
      </trkpt>
      <trkpt lat="45.5835" lon="4.76786">
        <ele>169</ele>
        <time>2018-08-15T06:05:18.261Z</time>
      </trkpt>
      <trkpt lat="45.58348" lon="4.76787">
        <ele>169</ele>
        <time>2018-08-15T06:05:19.248Z</time>
      </trkpt>
      <trkpt lat="45.58347" lon="4.76788">
        <ele>169</ele>
        <time>2018-08-15T06:05:20.237Z</time>
      </trkpt>
      <trkpt lat="45.58347" lon="4.76788">
        <ele>169</ele>
        <time>2018-08-15T06:05:21.242Z</time>
      </trkpt>
      <trkpt lat="45.58342" lon="4.76792">
        <ele>170</ele>
        <time>2018-08-15T06:05:22.264Z</time>
      </trkpt>
      <trkpt lat="45.58342" lon="4.76792">
        <ele>170</ele>
        <time>2018-08-15T06:05:23.269Z</time>
      </trkpt>
      <trkpt lat="45.58338" lon="4.76794">
        <ele>170</ele>
        <time>2018-08-15T06:05:24.265Z</time>
      </trkpt>
      <trkpt lat="45.58338" lon="4.76794">
        <ele>170</ele>
        <time>2018-08-15T06:05:25.271Z</time>
      </trkpt>
      <trkpt lat="45.58335" lon="4.76798">
        <ele>171</ele>
        <time>2018-08-15T06:05:26.262Z</time>
      </trkpt>
      <trkpt lat="45.58335" lon="4.76798">
        <ele>171</ele>
        <time>2018-08-15T06:05:27.268Z</time>
      </trkpt>
      <trkpt lat="45.58331" lon="4.76803">
        <ele>171</ele>
        <time>2018-08-15T06:05:28.258Z</time>
      </trkpt>
      <trkpt lat="45.58331" lon="4.76803">
        <ele>171</ele>
        <time>2018-08-15T06:05:29.233Z</time>
      </trkpt>
      <trkpt lat="45.58327" lon="4.76807">
        <ele>171</ele>
        <time>2018-08-15T06:05:30.250Z</time>
      </trkpt>
      <trkpt lat="45.58327" lon="4.76807">
        <ele>171</ele>
        <time>2018-08-15T06:05:31.256Z</time>
      </trkpt>
      <trkpt lat="45.58323" lon="4.7681">
        <ele>171</ele>
        <time>2018-08-15T06:05:32.243Z</time>
      </trkpt>
      <trkpt lat="45.58323" lon="4.7681">
        <ele>171</ele>
        <time>2018-08-15T06:05:33.249Z</time>
      </trkpt>
      <trkpt lat="45.58318" lon="4.76812">
        <ele>171</ele>
        <time>2018-08-15T06:05:34.240Z</time>
      </trkpt>
      <trkpt lat="45.58318" lon="4.76812">
        <ele>171</ele>
        <time>2018-08-15T06:05:35.245Z</time>
      </trkpt>
      <trkpt lat="45.58314" lon="4.76815">
        <ele>171</ele>
        <time>2018-08-15T06:05:36.253Z</time>
      </trkpt>
      <trkpt lat="45.58314" lon="4.76815">
        <ele>171</ele>
        <time>2018-08-15T06:05:37.259Z</time>
      </trkpt>
      <trkpt lat="45.5831" lon="4.76817">
        <ele>171</ele>
        <time>2018-08-15T06:05:38.239Z</time>
      </trkpt>
      <trkpt lat="45.5831" lon="4.76817">
        <ele>171</ele>
        <time>2018-08-15T06:05:39.244Z</time>
      </trkpt>
      <trkpt lat="45.58306" lon="4.76819">
        <ele>171</ele>
        <time>2018-08-15T06:05:40.265Z</time>
      </trkpt>
      <trkpt lat="45.58304" lon="4.7682">
        <ele>171</ele>
        <time>2018-08-15T06:05:41.249Z</time>
      </trkpt>
      <trkpt lat="45.58304" lon="4.7682">
        <ele>171</ele>
        <time>2018-08-15T06:05:42.256Z</time>
      </trkpt>
      <trkpt lat="45.58299" lon="4.76822">
        <ele>172</ele>
        <time>2018-08-15T06:05:43.242Z</time>
      </trkpt>
      <trkpt lat="45.58297" lon="4.76824">
        <ele>172</ele>
        <time>2018-08-15T06:05:44.266Z</time>
      </trkpt>
      <trkpt lat="45.58297" lon="4.76824">
        <ele>172</ele>
        <time>2018-08-15T06:05:45.271Z</time>
      </trkpt>
      <trkpt lat="45.58292" lon="4.76826">
        <ele>172</ele>
        <time>2018-08-15T06:05:46.253Z</time>
      </trkpt>
      <trkpt lat="45.58292" lon="4.76826">
        <ele>172</ele>
        <time>2018-08-15T06:05:47.258Z</time>
      </trkpt>
      <trkpt lat="45.58287" lon="4.76828">
        <ele>173</ele>
        <time>2018-08-15T06:05:48.238Z</time>
      </trkpt>
      <trkpt lat="45.58287" lon="4.76828">
        <ele>173</ele>
        <time>2018-08-15T06:05:49.244Z</time>
      </trkpt>
      <trkpt lat="45.58282" lon="4.7683">
        <ele>173</ele>
        <time>2018-08-15T06:05:50.239Z</time>
      </trkpt>
      <trkpt lat="45.5828" lon="4.76831">
        <ele>173</ele>
        <time>2018-08-15T06:05:51.258Z</time>
      </trkpt>
      <trkpt lat="45.5828" lon="4.76831">
        <ele>173</ele>
        <time>2018-08-15T06:05:52.264Z</time>
      </trkpt>
      <trkpt lat="45.58275" lon="4.76834">
        <ele>174</ele>
        <time>2018-08-15T06:05:53.253Z</time>
      </trkpt>
      <trkpt lat="45.58275" lon="4.76834">
        <ele>174</ele>
        <time>2018-08-15T06:05:54.259Z</time>
      </trkpt>
      <trkpt lat="45.5827" lon="4.76836">
        <ele>174</ele>
        <time>2018-08-15T06:05:55.250Z</time>
      </trkpt>
      <trkpt lat="45.58267" lon="4.76836">
        <ele>174</ele>
        <time>2018-08-15T06:05:56.239Z</time>
      </trkpt>
      <trkpt lat="45.58267" lon="4.76836">
        <ele>174</ele>
        <time>2018-08-15T06:05:57.244Z</time>
      </trkpt>
      <trkpt lat="45.58262" lon="4.76838">
        <ele>174</ele>
        <time>2018-08-15T06:05:58.269Z</time>
      </trkpt>
      <trkpt lat="45.58262" lon="4.76838">
        <ele>174</ele>
        <time>2018-08-15T06:05:59.235Z</time>
      </trkpt>
      <trkpt lat="45.58258" lon="4.76839">
        <ele>175</ele>
        <time>2018-08-15T06:06:00.267Z</time>
      </trkpt>
      <trkpt lat="45.58256" lon="4.76841">
        <ele>175</ele>
        <time>2018-08-15T06:06:01.254Z</time>
      </trkpt>
      <trkpt lat="45.58254" lon="4.76843">
        <ele>175</ele>
        <time>2018-08-15T06:06:02.263Z</time>
      </trkpt>
      <trkpt lat="45.58254" lon="4.76843">
        <ele>175</ele>
        <time>2018-08-15T06:06:03.268Z</time>
      </trkpt>
      <trkpt lat="45.5825" lon="4.76848">
        <ele>175</ele>
        <time>2018-08-15T06:06:04.263Z</time>
      </trkpt>
      <trkpt lat="45.5825" lon="4.76848">
        <ele>175</ele>
        <time>2018-08-15T06:06:05.269Z</time>
      </trkpt>
      <trkpt lat="45.58247" lon="4.76852">
        <ele>176</ele>
        <time>2018-08-15T06:06:06.258Z</time>
      </trkpt>
      <trkpt lat="45.58247" lon="4.76852">
        <ele>176</ele>
        <time>2018-08-15T06:06:07.264Z</time>
      </trkpt>
      <trkpt lat="45.58245" lon="4.76858">
        <ele>176</ele>
        <time>2018-08-15T06:06:08.257Z</time>
      </trkpt>
      <trkpt lat="45.58245" lon="4.76858">
        <ele>176</ele>
        <time>2018-08-15T06:06:09.263Z</time>
      </trkpt>
      <trkpt lat="45.58243" lon="4.76864">
        <ele>177</ele>
        <time>2018-08-15T06:06:10.250Z</time>
      </trkpt>
      <trkpt lat="45.58243" lon="4.76864">
        <ele>177</ele>
        <time>2018-08-15T06:06:11.256Z</time>
      </trkpt>
      <trkpt lat="45.5824" lon="4.76871">
        <ele>177</ele>
        <time>2018-08-15T06:06:12.244Z</time>
      </trkpt>
      <trkpt lat="45.5824" lon="4.76871">
        <ele>177</ele>
        <time>2018-08-15T06:06:13.249Z</time>
      </trkpt>
      <trkpt lat="45.58238" lon="4.76878">
        <ele>177</ele>
        <time>2018-08-15T06:06:14.244Z</time>
      </trkpt>
      <trkpt lat="45.58238" lon="4.76878">
        <ele>177</ele>
        <time>2018-08-15T06:06:15.264Z</time>
      </trkpt>
      <trkpt lat="45.58237" lon="4.76884">
        <ele>177</ele>
        <time>2018-08-15T06:06:16.270Z</time>
      </trkpt>
      <trkpt lat="45.58237" lon="4.76884">
        <ele>177</ele>
        <time>2018-08-15T06:06:17.235Z</time>
      </trkpt>
      <trkpt lat="45.58236" lon="4.7689">
        <ele>178</ele>
        <time>2018-08-15T06:06:18.253Z</time>
      </trkpt>
      <trkpt lat="45.58236" lon="4.7689">
        <ele>178</ele>
        <time>2018-08-15T06:06:19.259Z</time>
      </trkpt>
      <trkpt lat="45.58234" lon="4.76896">
        <ele>178</ele>
        <time>2018-08-15T06:06:20.245Z</time>
      </trkpt>
      <trkpt lat="45.58234" lon="4.76896">
        <ele>178</ele>
        <time>2018-08-15T06:06:21.250Z</time>
      </trkpt>
      <trkpt lat="45.58231" lon="4.76902">
        <ele>178</ele>
        <time>2018-08-15T06:06:22.261Z</time>
      </trkpt>
      <trkpt lat="45.5823" lon="4.76905">
        <ele>179</ele>
        <time>2018-08-15T06:06:23.250Z</time>
      </trkpt>
      <trkpt lat="45.58229" lon="4.76908">
        <ele>179</ele>
        <time>2018-08-15T06:06:24.240Z</time>
      </trkpt>
      <trkpt lat="45.58229" lon="4.76908">
        <ele>179</ele>
        <time>2018-08-15T06:06:25.245Z</time>
      </trkpt>
      <trkpt lat="45.58226" lon="4.76912">
        <ele>179</ele>
        <time>2018-08-15T06:06:26.269Z</time>
      </trkpt>
      <trkpt lat="45.58226" lon="4.76912">
        <ele>179</ele>
        <time>2018-08-15T06:06:27.235Z</time>
      </trkpt>
      <trkpt lat="45.58222" lon="4.76916">
        <ele>180</ele>
        <time>2018-08-15T06:06:28.258Z</time>
      </trkpt>
      <trkpt lat="45.58222" lon="4.76916">
        <ele>180</ele>
        <time>2018-08-15T06:06:29.234Z</time>
      </trkpt>
      <trkpt lat="45.58217" lon="4.76919">
        <ele>180</ele>
        <time>2018-08-15T06:06:30.245Z</time>
      </trkpt>
      <trkpt lat="45.58217" lon="4.76919">
        <ele>180</ele>
        <time>2018-08-15T06:06:31.250Z</time>
      </trkpt>
      <trkpt lat="45.58212" lon="4.76922">
        <ele>180</ele>
        <time>2018-08-15T06:06:32.245Z</time>
      </trkpt>
      <trkpt lat="45.58212" lon="4.76922">
        <ele>180</ele>
        <time>2018-08-15T06:06:33.258Z</time>
      </trkpt>
      <trkpt lat="45.58207" lon="4.76924">
        <ele>180</ele>
        <time>2018-08-15T06:06:34.239Z</time>
      </trkpt>
      <trkpt lat="45.58207" lon="4.76924">
        <ele>180</ele>
        <time>2018-08-15T06:06:35.245Z</time>
      </trkpt>
      <trkpt lat="45.58203" lon="4.76927">
        <ele>180</ele>
        <time>2018-08-15T06:06:36.249Z</time>
      </trkpt>
      <trkpt lat="45.58201" lon="4.76928">
        <ele>180</ele>
        <time>2018-08-15T06:06:37.234Z</time>
      </trkpt>
      <trkpt lat="45.58198" lon="4.7693">
        <ele>180</ele>
        <time>2018-08-15T06:06:38.252Z</time>
      </trkpt>
      <trkpt lat="45.58198" lon="4.7693">
        <ele>180</ele>
        <time>2018-08-15T06:06:39.258Z</time>
      </trkpt>
      <trkpt lat="45.58194" lon="4.76933">
        <ele>181</ele>
        <time>2018-08-15T06:06:40.251Z</time>
      </trkpt>
      <trkpt lat="45.58194" lon="4.76933">
        <ele>181</ele>
        <time>2018-08-15T06:06:41.257Z</time>
      </trkpt>
      <trkpt lat="45.58189" lon="4.76935">
        <ele>180</ele>
        <time>2018-08-15T06:06:42.254Z</time>
      </trkpt>
      <trkpt lat="45.58189" lon="4.76935">
        <ele>180</ele>
        <time>2018-08-15T06:06:43.260Z</time>
      </trkpt>
      <trkpt lat="45.58185" lon="4.76938">
        <ele>180</ele>
        <time>2018-08-15T06:06:44.255Z</time>
      </trkpt>
      <trkpt lat="45.58185" lon="4.76938">
        <ele>180</ele>
        <time>2018-08-15T06:06:45.261Z</time>
      </trkpt>
      <trkpt lat="45.5818" lon="4.76941">
        <ele>180</ele>
        <time>2018-08-15T06:06:46.256Z</time>
      </trkpt>
      <trkpt lat="45.5818" lon="4.76941">
        <ele>180</ele>
        <time>2018-08-15T06:06:47.261Z</time>
      </trkpt>
      <trkpt lat="45.58175" lon="4.76944">
        <ele>181</ele>
        <time>2018-08-15T06:06:48.267Z</time>
      </trkpt>
      <trkpt lat="45.58175" lon="4.76944">
        <ele>181</ele>
        <time>2018-08-15T06:06:49.232Z</time>
      </trkpt>
      <trkpt lat="45.5817" lon="4.76946">
        <ele>181</ele>
        <time>2018-08-15T06:06:50.258Z</time>
      </trkpt>
      <trkpt lat="45.5817" lon="4.76946">
        <ele>181</ele>
        <time>2018-08-15T06:06:51.263Z</time>
      </trkpt>
      <trkpt lat="45.58165" lon="4.76948">
        <ele>181</ele>
        <time>2018-08-15T06:06:52.253Z</time>
      </trkpt>
      <trkpt lat="45.58165" lon="4.76948">
        <ele>181</ele>
        <time>2018-08-15T06:06:53.233Z</time>
      </trkpt>
      <trkpt lat="45.5816" lon="4.7695">
        <ele>182</ele>
        <time>2018-08-15T06:06:54.268Z</time>
      </trkpt>
      <trkpt lat="45.58158" lon="4.7695">
        <ele>182</ele>
        <time>2018-08-15T06:06:55.251Z</time>
      </trkpt>
      <trkpt lat="45.58155" lon="4.7695">
        <ele>182</ele>
        <time>2018-08-15T06:06:56.264Z</time>
      </trkpt>
      <trkpt lat="45.58155" lon="4.7695">
        <ele>182</ele>
        <time>2018-08-15T06:06:57.270Z</time>
      </trkpt>
      <trkpt lat="45.58151" lon="4.7695">
        <ele>182</ele>
        <time>2018-08-15T06:06:58.252Z</time>
      </trkpt>
      <trkpt lat="45.58151" lon="4.7695">
        <ele>182</ele>
        <time>2018-08-15T06:06:59.259Z</time>
      </trkpt>
      <trkpt lat="45.58146" lon="4.76948">
        <ele>182</ele>
        <time>2018-08-15T06:07:00.248Z</time>
      </trkpt>
      <trkpt lat="45.58146" lon="4.76948">
        <ele>182</ele>
        <time>2018-08-15T06:07:01.253Z</time>
      </trkpt>
      <trkpt lat="45.58141" lon="4.76946">
        <ele>183</ele>
        <time>2018-08-15T06:07:02.246Z</time>
      </trkpt>
      <trkpt lat="45.58141" lon="4.76946">
        <ele>183</ele>
        <time>2018-08-15T06:07:03.259Z</time>
      </trkpt>
      <trkpt lat="45.58137" lon="4.76944">
        <ele>183</ele>
        <time>2018-08-15T06:07:04.247Z</time>
      </trkpt>
      <trkpt lat="45.58137" lon="4.76944">
        <ele>183</ele>
        <time>2018-08-15T06:07:05.262Z</time>
      </trkpt>
      <trkpt lat="45.58134" lon="4.7694">
        <ele>184</ele>
        <time>2018-08-15T06:07:06.246Z</time>
      </trkpt>
      <trkpt lat="45.58134" lon="4.7694">
        <ele>184</ele>
        <time>2018-08-15T06:07:07.252Z</time>
      </trkpt>
      <trkpt lat="45.58131" lon="4.76936">
        <ele>184</ele>
        <time>2018-08-15T06:07:08.237Z</time>
      </trkpt>
      <trkpt lat="45.58131" lon="4.76936">
        <ele>184</ele>
        <time>2018-08-15T06:07:09.242Z</time>
      </trkpt>
      <trkpt lat="45.58129" lon="4.76931">
        <ele>185</ele>
        <time>2018-08-15T06:07:10.262Z</time>
      </trkpt>
      <trkpt lat="45.58128" lon="4.76929">
        <ele>185</ele>
        <time>2018-08-15T06:07:11.254Z</time>
      </trkpt>
      <trkpt lat="45.58127" lon="4.76926">
        <ele>185</ele>
        <time>2018-08-15T06:07:12.241Z</time>
      </trkpt>
      <trkpt lat="45.58127" lon="4.76926">
        <ele>185</ele>
        <time>2018-08-15T06:07:13.246Z</time>
      </trkpt>
      <trkpt lat="45.58124" lon="4.76922">
        <ele>185</ele>
        <time>2018-08-15T06:07:14.243Z</time>
      </trkpt>
      <trkpt lat="45.58124" lon="4.76922">
        <ele>185</ele>
        <time>2018-08-15T06:07:15.248Z</time>
      </trkpt>
      <trkpt lat="45.58122" lon="4.76916">
        <ele>186</ele>
        <time>2018-08-15T06:07:16.232Z</time>
      </trkpt>
      <trkpt lat="45.58122" lon="4.76916">
        <ele>186</ele>
        <time>2018-08-15T06:07:17.237Z</time>
      </trkpt>
      <trkpt lat="45.5812" lon="4.76911">
        <ele>186</ele>
        <time>2018-08-15T06:07:18.257Z</time>
      </trkpt>
      <trkpt lat="45.5812" lon="4.76911">
        <ele>186</ele>
        <time>2018-08-15T06:07:19.263Z</time>
      </trkpt>
      <trkpt lat="45.58117" lon="4.76906">
        <ele>187</ele>
        <time>2018-08-15T06:07:20.253Z</time>
      </trkpt>
      <trkpt lat="45.58117" lon="4.76906">
        <ele>187</ele>
        <time>2018-08-15T06:07:21.259Z</time>
      </trkpt>
      <trkpt lat="45.58114" lon="4.76901">
        <ele>187</ele>
        <time>2018-08-15T06:07:22.242Z</time>
      </trkpt>
      <trkpt lat="45.58114" lon="4.76901">
        <ele>187</ele>
        <time>2018-08-15T06:07:23.247Z</time>
      </trkpt>
      <trkpt lat="45.5811" lon="4.76898">
        <ele>187</ele>
        <time>2018-08-15T06:07:24.233Z</time>
      </trkpt>
      <trkpt lat="45.5811" lon="4.76898">
        <ele>187</ele>
        <time>2018-08-15T06:07:25.240Z</time>
      </trkpt>
      <trkpt lat="45.58105" lon="4.76897">
        <ele>188</ele>
        <time>2018-08-15T06:07:26.271Z</time>
      </trkpt>
      <trkpt lat="45.58102" lon="4.76898">
        <ele>188</ele>
        <time>2018-08-15T06:07:27.271Z</time>
      </trkpt>
      <trkpt lat="45.58102" lon="4.76898">
        <ele>188</ele>
        <time>2018-08-15T06:07:28.237Z</time>
      </trkpt>
      <trkpt lat="45.58098" lon="4.76902">
        <ele>189</ele>
        <time>2018-08-15T06:07:29.265Z</time>
      </trkpt>
      <trkpt lat="45.58098" lon="4.76902">
        <ele>189</ele>
        <time>2018-08-15T06:07:30.271Z</time>
      </trkpt>
      <trkpt lat="45.58093" lon="4.76907">
        <ele>189</ele>
        <time>2018-08-15T06:07:31.264Z</time>
      </trkpt>
      <trkpt lat="45.58094" lon="4.76909">
        <ele>189</ele>
        <time>2018-08-15T06:07:32.241Z</time>
      </trkpt>
      <trkpt lat="45.58094" lon="4.76909">
        <ele>189</ele>
        <time>2018-08-15T06:07:33.246Z</time>
      </trkpt>
      <trkpt lat="45.58096" lon="4.76913">
        <ele>189</ele>
        <time>2018-08-15T06:07:34.236Z</time>
      </trkpt>
      <trkpt lat="45.58096" lon="4.76913">
        <ele>189</ele>
        <time>2018-08-15T06:07:35.242Z</time>
      </trkpt>
      <trkpt lat="45.581" lon="4.76918">
        <ele>189</ele>
        <time>2018-08-15T06:07:36.242Z</time>
      </trkpt>
      <trkpt lat="45.581" lon="4.76918">
        <ele>189</ele>
        <time>2018-08-15T06:07:37.248Z</time>
      </trkpt>
      <trkpt lat="45.58104" lon="4.76923">
        <ele>190</ele>
        <time>2018-08-15T06:07:38.272Z</time>
      </trkpt>
      <trkpt lat="45.58104" lon="4.76923">
        <ele>190</ele>
        <time>2018-08-15T06:07:39.238Z</time>
      </trkpt>
      <trkpt lat="45.58108" lon="4.76928">
        <ele>191</ele>
        <time>2018-08-15T06:07:40.268Z</time>
      </trkpt>
      <trkpt lat="45.58108" lon="4.76928">
        <ele>191</ele>
        <time>2018-08-15T06:07:41.233Z</time>
      </trkpt>
      <trkpt lat="45.58113" lon="4.76933">
        <ele>191</ele>
        <time>2018-08-15T06:07:42.260Z</time>
      </trkpt>
      <trkpt lat="45.58113" lon="4.76933">
        <ele>191</ele>
        <time>2018-08-15T06:07:43.265Z</time>
      </trkpt>
      <trkpt lat="45.58117" lon="4.76939">
        <ele>192</ele>
        <time>2018-08-15T06:07:44.257Z</time>
      </trkpt>
      <trkpt lat="45.58117" lon="4.76939">
        <ele>192</ele>
        <time>2018-08-15T06:07:45.265Z</time>
      </trkpt>
      <trkpt lat="45.58121" lon="4.76946">
        <ele>192</ele>
        <time>2018-08-15T06:07:46.247Z</time>
      </trkpt>
      <trkpt lat="45.58121" lon="4.76946">
        <ele>192</ele>
        <time>2018-08-15T06:07:47.252Z</time>
      </trkpt>
      <trkpt lat="45.58124" lon="4.76952">
        <ele>192</ele>
        <time>2018-08-15T06:07:48.244Z</time>
      </trkpt>
      <trkpt lat="45.58124" lon="4.76952">
        <ele>192</ele>
        <time>2018-08-15T06:07:49.258Z</time>
      </trkpt>
      <trkpt lat="45.58126" lon="4.76958">
        <ele>193</ele>
        <time>2018-08-15T06:07:50.248Z</time>
      </trkpt>
      <trkpt lat="45.58126" lon="4.76958">
        <ele>193</ele>
        <time>2018-08-15T06:07:51.253Z</time>
      </trkpt>
      <trkpt lat="45.58127" lon="4.76964">
        <ele>193</ele>
        <time>2018-08-15T06:07:52.240Z</time>
      </trkpt>
      <trkpt lat="45.58127" lon="4.76964">
        <ele>193</ele>
        <time>2018-08-15T06:07:53.245Z</time>
      </trkpt>
      <trkpt lat="45.58127" lon="4.76972">
        <ele>194</ele>
        <time>2018-08-15T06:07:54.232Z</time>
      </trkpt>
      <trkpt lat="45.58127" lon="4.76972">
        <ele>194</ele>
        <time>2018-08-15T06:07:55.237Z</time>
      </trkpt>
      <trkpt lat="45.58127" lon="4.76978">
        <ele>194</ele>
        <time>2018-08-15T06:07:56.254Z</time>
      </trkpt>
      <trkpt lat="45.58127" lon="4.76978">
        <ele>194</ele>
        <time>2018-08-15T06:07:57.242Z</time>
      </trkpt>
      <trkpt lat="45.58126" lon="4.76984">
        <ele>194</ele>
        <time>2018-08-15T06:07:58.235Z</time>
      </trkpt>
      <trkpt lat="45.58126" lon="4.76988">
        <ele>195</ele>
        <time>2018-08-15T06:07:59.264Z</time>
      </trkpt>
      <trkpt lat="45.58126" lon="4.76988">
        <ele>195</ele>
        <time>2018-08-15T06:08:00.270Z</time>
      </trkpt>
      <trkpt lat="45.58125" lon="4.76994">
        <ele>197</ele>
        <time>2018-08-15T06:08:01.233Z</time>
      </trkpt>
      <trkpt lat="45.58124" lon="4.76997">
        <ele>197</ele>
        <time>2018-08-15T06:08:02.260Z</time>
      </trkpt>
      <trkpt lat="45.58124" lon="4.76997">
        <ele>197</ele>
        <time>2018-08-15T06:08:03.265Z</time>
      </trkpt>
      <trkpt lat="45.58121" lon="4.77003">
        <ele>197</ele>
        <time>2018-08-15T06:08:04.257Z</time>
      </trkpt>
      <trkpt lat="45.58121" lon="4.77003">
        <ele>197</ele>
        <time>2018-08-15T06:08:05.262Z</time>
      </trkpt>
      <trkpt lat="45.58118" lon="4.77009">
        <ele>197</ele>
        <time>2018-08-15T06:08:06.265Z</time>
      </trkpt>
      <trkpt lat="45.58118" lon="4.77009">
        <ele>197</ele>
        <time>2018-08-15T06:08:07.270Z</time>
      </trkpt>
      <trkpt lat="45.58116" lon="4.77014">
        <ele>197</ele>
        <time>2018-08-15T06:08:08.262Z</time>
      </trkpt>
      <trkpt lat="45.58116" lon="4.77014">
        <ele>197</ele>
        <time>2018-08-15T06:08:09.268Z</time>
      </trkpt>
      <trkpt lat="45.58113" lon="4.7702">
        <ele>198</ele>
        <time>2018-08-15T06:08:10.246Z</time>
      </trkpt>
      <trkpt lat="45.58113" lon="4.7702">
        <ele>198</ele>
        <time>2018-08-15T06:08:11.256Z</time>
      </trkpt>
      <trkpt lat="45.58111" lon="4.77027">
        <ele>198</ele>
        <time>2018-08-15T06:08:12.241Z</time>
      </trkpt>
      <trkpt lat="45.58111" lon="4.77027">
        <ele>198</ele>
        <time>2018-08-15T06:08:13.247Z</time>
      </trkpt>
      <trkpt lat="45.58108" lon="4.77033">
        <ele>198</ele>
        <time>2018-08-15T06:08:14.267Z</time>
      </trkpt>
      <trkpt lat="45.58108" lon="4.77033">
        <ele>198</ele>
        <time>2018-08-15T06:08:15.232Z</time>
      </trkpt>
      <trkpt lat="45.58107" lon="4.77039">
        <ele>198</ele>
        <time>2018-08-15T06:08:16.255Z</time>
      </trkpt>
      <trkpt lat="45.58107" lon="4.77039">
        <ele>198</ele>
        <time>2018-08-15T06:08:17.260Z</time>
      </trkpt>
      <trkpt lat="45.58106" lon="4.77045">
        <ele>198</ele>
        <time>2018-08-15T06:08:18.240Z</time>
      </trkpt>
      <trkpt lat="45.58106" lon="4.77045">
        <ele>198</ele>
        <time>2018-08-15T06:08:19.247Z</time>
      </trkpt>
      <trkpt lat="45.58105" lon="4.77051">
        <ele>197</ele>
        <time>2018-08-15T06:08:20.243Z</time>
      </trkpt>
      <trkpt lat="45.58105" lon="4.77051">
        <ele>197</ele>
        <time>2018-08-15T06:08:21.248Z</time>
      </trkpt>
      <trkpt lat="45.58103" lon="4.77057">
        <ele>197</ele>
        <time>2018-08-15T06:08:22.243Z</time>
      </trkpt>
      <trkpt lat="45.58103" lon="4.77057">
        <ele>197</ele>
        <time>2018-08-15T06:08:23.248Z</time>
      </trkpt>
      <trkpt lat="45.58101" lon="4.77063">
        <ele>198</ele>
        <time>2018-08-15T06:08:24.234Z</time>
      </trkpt>
      <trkpt lat="45.58101" lon="4.77063">
        <ele>198</ele>
        <time>2018-08-15T06:08:25.239Z</time>
      </trkpt>
      <trkpt lat="45.581" lon="4.7707">
        <ele>197</ele>
        <time>2018-08-15T06:08:26.269Z</time>
      </trkpt>
      <trkpt lat="45.581" lon="4.7707">
        <ele>197</ele>
        <time>2018-08-15T06:08:27.234Z</time>
      </trkpt>
      <trkpt lat="45.58098" lon="4.77077">
        <ele>198</ele>
        <time>2018-08-15T06:08:28.264Z</time>
      </trkpt>
      <trkpt lat="45.58098" lon="4.77077">
        <ele>198</ele>
        <time>2018-08-15T06:08:29.270Z</time>
      </trkpt>
      <trkpt lat="45.58097" lon="4.77083">
        <ele>198</ele>
        <time>2018-08-15T06:08:30.250Z</time>
      </trkpt>
      <trkpt lat="45.58097" lon="4.77083">
        <ele>198</ele>
        <time>2018-08-15T06:08:31.258Z</time>
      </trkpt>
      <trkpt lat="45.58095" lon="4.77088">
        <ele>198</ele>
        <time>2018-08-15T06:08:32.237Z</time>
      </trkpt>
      <trkpt lat="45.58095" lon="4.77088">
        <ele>198</ele>
        <time>2018-08-15T06:08:33.242Z</time>
      </trkpt>
      <trkpt lat="45.58093" lon="4.77094">
        <ele>198</ele>
        <time>2018-08-15T06:08:34.267Z</time>
      </trkpt>
      <trkpt lat="45.58093" lon="4.77094">
        <ele>198</ele>
        <time>2018-08-15T06:08:35.233Z</time>
      </trkpt>
      <trkpt lat="45.5809" lon="4.771">
        <ele>198</ele>
        <time>2018-08-15T06:08:36.233Z</time>
      </trkpt>
      <trkpt lat="45.5809" lon="4.771">
        <ele>198</ele>
        <time>2018-08-15T06:08:37.238Z</time>
      </trkpt>
      <trkpt lat="45.58086" lon="4.77106">
        <ele>199</ele>
        <time>2018-08-15T06:08:38.267Z</time>
      </trkpt>
      <trkpt lat="45.58086" lon="4.77106">
        <ele>199</ele>
        <time>2018-08-15T06:08:39.235Z</time>
      </trkpt>
      <trkpt lat="45.58083" lon="4.77112">
        <ele>199</ele>
        <time>2018-08-15T06:08:40.252Z</time>
      </trkpt>
      <trkpt lat="45.58083" lon="4.77112">
        <ele>199</ele>
        <time>2018-08-15T06:08:41.258Z</time>
      </trkpt>
      <trkpt lat="45.58079" lon="4.77116">
        <ele>199</ele>
        <time>2018-08-15T06:08:42.262Z</time>
      </trkpt>
      <trkpt lat="45.58079" lon="4.77116">
        <ele>199</ele>
        <time>2018-08-15T06:08:43.267Z</time>
      </trkpt>
      <trkpt lat="45.58075" lon="4.77119">
        <ele>200</ele>
        <time>2018-08-15T06:08:44.261Z</time>
      </trkpt>
      <trkpt lat="45.58075" lon="4.77119">
        <ele>200</ele>
        <time>2018-08-15T06:08:45.267Z</time>
      </trkpt>
      <trkpt lat="45.58071" lon="4.77123">
        <ele>200</ele>
        <time>2018-08-15T06:08:46.252Z</time>
      </trkpt>
      <trkpt lat="45.58071" lon="4.77123">
        <ele>200</ele>
        <time>2018-08-15T06:08:47.259Z</time>
      </trkpt>
      <trkpt lat="45.58068" lon="4.77125">
        <ele>200</ele>
        <time>2018-08-15T06:08:48.244Z</time>
      </trkpt>
      <trkpt lat="45.58068" lon="4.77125">
        <ele>200</ele>
        <time>2018-08-15T06:08:49.249Z</time>
      </trkpt>
      <trkpt lat="45.58064" lon="4.7713">
        <ele>201</ele>
        <time>2018-08-15T06:08:50.237Z</time>
      </trkpt>
      <trkpt lat="45.58064" lon="4.7713">
        <ele>201</ele>
        <time>2018-08-15T06:08:51.244Z</time>
      </trkpt>
      <trkpt lat="45.58062" lon="4.77136">
        <ele>201</ele>
        <time>2018-08-15T06:08:52.271Z</time>
      </trkpt>
      <trkpt lat="45.58062" lon="4.77136">
        <ele>201</ele>
        <time>2018-08-15T06:08:53.236Z</time>
      </trkpt>
      <trkpt lat="45.58062" lon="4.77143">
        <ele>201</ele>
        <time>2018-08-15T06:08:54.262Z</time>
      </trkpt>
      <trkpt lat="45.58062" lon="4.77143">
        <ele>201</ele>
        <time>2018-08-15T06:08:55.267Z</time>
      </trkpt>
      <trkpt lat="45.58063" lon="4.7715">
        <ele>201</ele>
        <time>2018-08-15T06:08:56.251Z</time>
      </trkpt>
      <trkpt lat="45.58063" lon="4.7715">
        <ele>201</ele>
        <time>2018-08-15T06:08:57.258Z</time>
      </trkpt>
      <trkpt lat="45.58064" lon="4.77157">
        <ele>201</ele>
        <time>2018-08-15T06:08:58.247Z</time>
      </trkpt>
      <trkpt lat="45.58064" lon="4.77157">
        <ele>201</ele>
        <time>2018-08-15T06:08:59.254Z</time>
      </trkpt>
      <trkpt lat="45.58067" lon="4.77164">
        <ele>202</ele>
        <time>2018-08-15T06:09:00.255Z</time>
      </trkpt>
      <trkpt lat="45.58067" lon="4.77164">
        <ele>202</ele>
        <time>2018-08-15T06:09:01.260Z</time>
      </trkpt>
      <trkpt lat="45.58069" lon="4.77171">
        <ele>202</ele>
        <time>2018-08-15T06:09:02.255Z</time>
      </trkpt>
      <trkpt lat="45.58069" lon="4.77171">
        <ele>202</ele>
        <time>2018-08-15T06:09:03.260Z</time>
      </trkpt>
      <trkpt lat="45.58072" lon="4.77179">
        <ele>203</ele>
        <time>2018-08-15T06:09:04.269Z</time>
      </trkpt>
      <trkpt lat="45.58072" lon="4.77179">
        <ele>203</ele>
        <time>2018-08-15T06:09:05.235Z</time>
      </trkpt>
      <trkpt lat="45.58072" lon="4.77185">
        <ele>203</ele>
        <time>2018-08-15T06:09:06.233Z</time>
      </trkpt>
      <trkpt lat="45.58072" lon="4.77185">
        <ele>203</ele>
        <time>2018-08-15T06:09:07.238Z</time>
      </trkpt>
      <trkpt lat="45.58071" lon="4.77191">
        <ele>203</ele>
        <time>2018-08-15T06:09:08.244Z</time>
      </trkpt>
      <trkpt lat="45.58071" lon="4.77191">
        <ele>203</ele>
        <time>2018-08-15T06:09:09.255Z</time>
      </trkpt>
      <trkpt lat="45.58069" lon="4.77196">
        <ele>204</ele>
        <time>2018-08-15T06:09:10.259Z</time>
      </trkpt>
      <trkpt lat="45.58069" lon="4.77196">
        <ele>204</ele>
        <time>2018-08-15T06:09:11.239Z</time>
      </trkpt>
      <trkpt lat="45.58067" lon="4.77202">
        <ele>204</ele>
        <time>2018-08-15T06:09:12.270Z</time>
      </trkpt>
      <trkpt lat="45.58067" lon="4.77202">
        <ele>204</ele>
        <time>2018-08-15T06:09:13.235Z</time>
      </trkpt>
      <trkpt lat="45.58064" lon="4.77206">
        <ele>205</ele>
        <time>2018-08-15T06:09:14.240Z</time>
      </trkpt>
      <trkpt lat="45.58064" lon="4.77206">
        <ele>205</ele>
        <time>2018-08-15T06:09:15.246Z</time>
      </trkpt>
      <trkpt lat="45.58061" lon="4.7721">
        <ele>205</ele>
        <time>2018-08-15T06:09:16.251Z</time>
      </trkpt>
      <trkpt lat="45.58061" lon="4.7721">
        <ele>205</ele>
        <time>2018-08-15T06:09:17.256Z</time>
      </trkpt>
      <trkpt lat="45.58057" lon="4.77213">
        <ele>205</ele>
        <time>2018-08-15T06:09:18.259Z</time>
      </trkpt>
      <trkpt lat="45.58057" lon="4.77213">
        <ele>205</ele>
        <time>2018-08-15T06:09:19.265Z</time>
      </trkpt>
      <trkpt lat="45.58053" lon="4.77217">
        <ele>205</ele>
        <time>2018-08-15T06:09:20.255Z</time>
      </trkpt>
      <trkpt lat="45.58053" lon="4.77217">
        <ele>205</ele>
        <time>2018-08-15T06:09:21.260Z</time>
      </trkpt>
      <trkpt lat="45.58048" lon="4.7722">
        <ele>205</ele>
        <time>2018-08-15T06:09:22.243Z</time>
      </trkpt>
      <trkpt lat="45.58048" lon="4.7722">
        <ele>205</ele>
        <time>2018-08-15T06:09:23.248Z</time>
      </trkpt>
      <trkpt lat="45.58044" lon="4.77222">
        <ele>206</ele>
        <time>2018-08-15T06:09:24.236Z</time>
      </trkpt>
      <trkpt lat="45.58044" lon="4.77222">
        <ele>206</ele>
        <time>2018-08-15T06:09:25.242Z</time>
      </trkpt>
      <trkpt lat="45.5804" lon="4.77224">
        <ele>206</ele>
        <time>2018-08-15T06:09:26.266Z</time>
      </trkpt>
      <trkpt lat="45.5804" lon="4.77224">
        <ele>206</ele>
        <time>2018-08-15T06:09:27.232Z</time>
      </trkpt>
      <trkpt lat="45.58035" lon="4.77227">
        <ele>206</ele>
        <time>2018-08-15T06:09:28.263Z</time>
      </trkpt>
      <trkpt lat="45.58035" lon="4.77227">
        <ele>206</ele>
        <time>2018-08-15T06:09:29.270Z</time>
      </trkpt>
      <trkpt lat="45.58031" lon="4.77229">
        <ele>207</ele>
        <time>2018-08-15T06:09:30.261Z</time>
      </trkpt>
      <trkpt lat="45.58031" lon="4.77229">
        <ele>207</ele>
        <time>2018-08-15T06:09:31.266Z</time>
      </trkpt>
      <trkpt lat="45.58027" lon="4.77232">
        <ele>207</ele>
        <time>2018-08-15T06:09:32.253Z</time>
      </trkpt>
      <trkpt lat="45.58027" lon="4.77232">
        <ele>207</ele>
        <time>2018-08-15T06:09:33.259Z</time>
      </trkpt>
      <trkpt lat="45.58023" lon="4.77235">
        <ele>207</ele>
        <time>2018-08-15T06:09:34.249Z</time>
      </trkpt>
      <trkpt lat="45.58021" lon="4.77237">
        <ele>207</ele>
        <time>2018-08-15T06:09:35.244Z</time>
      </trkpt>
      <trkpt lat="45.58018" lon="4.77239">
        <ele>208</ele>
        <time>2018-08-15T06:09:36.233Z</time>
      </trkpt>
      <trkpt lat="45.58018" lon="4.77239">
        <ele>208</ele>
        <time>2018-08-15T06:09:37.238Z</time>
      </trkpt>
      <trkpt lat="45.58014" lon="4.77242">
        <ele>208</ele>
        <time>2018-08-15T06:09:38.233Z</time>
      </trkpt>
      <trkpt lat="45.58014" lon="4.77242">
        <ele>208</ele>
        <time>2018-08-15T06:09:39.239Z</time>
      </trkpt>
      <trkpt lat="45.5801" lon="4.77246">
        <ele>208</ele>
        <time>2018-08-15T06:09:40.266Z</time>
      </trkpt>
      <trkpt lat="45.5801" lon="4.77246">
        <ele>208</ele>
        <time>2018-08-15T06:09:41.271Z</time>
      </trkpt>
      <trkpt lat="45.58007" lon="4.77248">
        <ele>208</ele>
        <time>2018-08-15T06:09:42.267Z</time>
      </trkpt>
      <trkpt lat="45.58007" lon="4.77248">
        <ele>208</ele>
        <time>2018-08-15T06:09:43.233Z</time>
      </trkpt>
      <trkpt lat="45.58004" lon="4.7725">
        <ele>208</ele>
        <time>2018-08-15T06:09:44.256Z</time>
      </trkpt>
      <trkpt lat="45.58004" lon="4.7725">
        <ele>208</ele>
        <time>2018-08-15T06:09:45.262Z</time>
      </trkpt>
      <trkpt lat="45.58" lon="4.77252">
        <ele>209</ele>
        <time>2018-08-15T06:09:46.248Z</time>
      </trkpt>
      <trkpt lat="45.58" lon="4.77252">
        <ele>209</ele>
        <time>2018-08-15T06:09:47.255Z</time>
      </trkpt>
      <trkpt lat="45.57996" lon="4.77254">
        <ele>209</ele>
        <time>2018-08-15T06:09:48.267Z</time>
      </trkpt>
      <trkpt lat="45.57996" lon="4.77254">
        <ele>209</ele>
        <time>2018-08-15T06:09:49.232Z</time>
      </trkpt>
      <trkpt lat="45.57991" lon="4.77256">
        <ele>209</ele>
        <time>2018-08-15T06:09:50.269Z</time>
      </trkpt>
      <trkpt lat="45.57991" lon="4.77256">
        <ele>209</ele>
        <time>2018-08-15T06:09:51.234Z</time>
      </trkpt>
      <trkpt lat="45.57987" lon="4.77256">
        <ele>209</ele>
        <time>2018-08-15T06:09:52.251Z</time>
      </trkpt>
      <trkpt lat="45.57987" lon="4.77256">
        <ele>209</ele>
        <time>2018-08-15T06:09:53.257Z</time>
      </trkpt>
      <trkpt lat="45.57983" lon="4.77257">
        <ele>210</ele>
        <time>2018-08-15T06:09:54.236Z</time>
      </trkpt>
      <trkpt lat="45.57983" lon="4.77257">
        <ele>210</ele>
        <time>2018-08-15T06:09:55.245Z</time>
      </trkpt>
      <trkpt lat="45.57978" lon="4.77258">
        <ele>210</ele>
        <time>2018-08-15T06:09:56.235Z</time>
      </trkpt>
      <trkpt lat="45.57978" lon="4.77258">
        <ele>210</ele>
        <time>2018-08-15T06:09:57.240Z</time>
      </trkpt>
      <trkpt lat="45.57974" lon="4.77261">
        <ele>211</ele>
        <time>2018-08-15T06:09:58.232Z</time>
      </trkpt>
      <trkpt lat="45.57974" lon="4.77261">
        <ele>211</ele>
        <time>2018-08-15T06:09:59.246Z</time>
      </trkpt>
      <trkpt lat="45.5797" lon="4.77262">
        <ele>211</ele>
        <time>2018-08-15T06:10:00.267Z</time>
      </trkpt>
      <trkpt lat="45.5797" lon="4.77262">
        <ele>211</ele>
        <time>2018-08-15T06:10:01.233Z</time>
      </trkpt>
      <trkpt lat="45.57966" lon="4.77263">
        <ele>211</ele>
        <time>2018-08-15T06:10:02.259Z</time>
      </trkpt>
      <trkpt lat="45.57966" lon="4.77263">
        <ele>211</ele>
        <time>2018-08-15T06:10:03.264Z</time>
      </trkpt>
      <trkpt lat="45.57962" lon="4.77265">
        <ele>211</ele>
        <time>2018-08-15T06:10:04.235Z</time>
      </trkpt>
      <trkpt lat="45.57962" lon="4.77265">
        <ele>211</ele>
        <time>2018-08-15T06:10:05.241Z</time>
      </trkpt>
      <trkpt lat="45.57958" lon="4.77269">
        <ele>211</ele>
        <time>2018-08-15T06:10:06.263Z</time>
      </trkpt>
      <trkpt lat="45.57956" lon="4.77272">
        <ele>212</ele>
        <time>2018-08-15T06:10:07.256Z</time>
      </trkpt>
      <trkpt lat="45.57954" lon="4.77274">
        <ele>212</ele>
        <time>2018-08-15T06:10:08.250Z</time>
      </trkpt>
      <trkpt lat="45.57954" lon="4.77274">
        <ele>212</ele>
        <time>2018-08-15T06:10:09.256Z</time>
      </trkpt>
      <trkpt lat="45.5795" lon="4.77277">
        <ele>212</ele>
        <time>2018-08-15T06:10:10.251Z</time>
      </trkpt>
      <trkpt lat="45.5795" lon="4.77277">
        <ele>212</ele>
        <time>2018-08-15T06:10:11.257Z</time>
      </trkpt>
      <trkpt lat="45.57946" lon="4.77282">
        <ele>212</ele>
        <time>2018-08-15T06:10:12.250Z</time>
      </trkpt>
      <trkpt lat="45.57946" lon="4.77282">
        <ele>212</ele>
        <time>2018-08-15T06:10:13.256Z</time>
      </trkpt>
      <trkpt lat="45.57944" lon="4.77286">
        <ele>212</ele>
        <time>2018-08-15T06:10:14.235Z</time>
      </trkpt>
      <trkpt lat="45.57944" lon="4.77286">
        <ele>212</ele>
        <time>2018-08-15T06:10:15.264Z</time>
      </trkpt>
      <trkpt lat="45.57941" lon="4.7729">
        <ele>212</ele>
        <time>2018-08-15T06:10:16.253Z</time>
      </trkpt>
      <trkpt lat="45.57941" lon="4.7729">
        <ele>212</ele>
        <time>2018-08-15T06:10:17.259Z</time>
      </trkpt>
      <trkpt lat="45.57937" lon="4.77294">
        <ele>213</ele>
        <time>2018-08-15T06:10:18.243Z</time>
      </trkpt>
      <trkpt lat="45.57937" lon="4.77294">
        <ele>213</ele>
        <time>2018-08-15T06:10:19.249Z</time>
      </trkpt>
      <trkpt lat="45.57933" lon="4.77297">
        <ele>213</ele>
        <time>2018-08-15T06:10:20.238Z</time>
      </trkpt>
      <trkpt lat="45.57933" lon="4.77297">
        <ele>213</ele>
        <time>2018-08-15T06:10:21.244Z</time>
      </trkpt>
      <trkpt lat="45.57929" lon="4.77301">
        <ele>214</ele>
        <time>2018-08-15T06:10:22.243Z</time>
      </trkpt>
      <trkpt lat="45.57929" lon="4.77301">
        <ele>214</ele>
        <time>2018-08-15T06:10:23.255Z</time>
      </trkpt>
      <trkpt lat="45.57925" lon="4.77306">
        <ele>214</ele>
        <time>2018-08-15T06:10:24.244Z</time>
      </trkpt>
      <trkpt lat="45.57925" lon="4.77306">
        <ele>214</ele>
        <time>2018-08-15T06:10:25.250Z</time>
      </trkpt>
      <trkpt lat="45.57921" lon="4.77312">
        <ele>214</ele>
        <time>2018-08-15T06:10:26.247Z</time>
      </trkpt>
      <trkpt lat="45.57921" lon="4.77312">
        <ele>214</ele>
        <time>2018-08-15T06:10:27.255Z</time>
      </trkpt>
      <trkpt lat="45.57917" lon="4.77317">
        <ele>215</ele>
        <time>2018-08-15T06:10:28.241Z</time>
      </trkpt>
      <trkpt lat="45.57917" lon="4.77317">
        <ele>215</ele>
        <time>2018-08-15T06:10:29.246Z</time>
      </trkpt>
      <trkpt lat="45.57913" lon="4.77323">
        <ele>215</ele>
        <time>2018-08-15T06:10:30.241Z</time>
      </trkpt>
      <trkpt lat="45.57913" lon="4.77323">
        <ele>215</ele>
        <time>2018-08-15T06:10:31.246Z</time>
      </trkpt>
      <trkpt lat="45.5791" lon="4.77328">
        <ele>216</ele>
        <time>2018-08-15T06:10:32.235Z</time>
      </trkpt>
      <trkpt lat="45.5791" lon="4.77328">
        <ele>216</ele>
        <time>2018-08-15T06:10:33.241Z</time>
      </trkpt>
      <trkpt lat="45.57907" lon="4.77334">
        <ele>216</ele>
        <time>2018-08-15T06:10:34.267Z</time>
      </trkpt>
      <trkpt lat="45.57907" lon="4.77334">
        <ele>216</ele>
        <time>2018-08-15T06:10:35.232Z</time>
      </trkpt>
      <trkpt lat="45.57905" lon="4.77342">
        <ele>217</ele>
        <time>2018-08-15T06:10:36.235Z</time>
      </trkpt>
      <trkpt lat="45.57903" lon="4.77345">
        <ele>217</ele>
        <time>2018-08-15T06:10:37.264Z</time>
      </trkpt>
      <trkpt lat="45.57903" lon="4.77345">
        <ele>217</ele>
        <time>2018-08-15T06:10:38.271Z</time>
      </trkpt>
      <trkpt lat="45.57901" lon="4.77351">
        <ele>217</ele>
        <time>2018-08-15T06:10:39.253Z</time>
      </trkpt>
      <trkpt lat="45.57901" lon="4.77351">
        <ele>217</ele>
        <time>2018-08-15T06:10:40.258Z</time>
      </trkpt>
      <trkpt lat="45.57898" lon="4.77356">
        <ele>218</ele>
        <time>2018-08-15T06:10:41.264Z</time>
      </trkpt>
      <trkpt lat="45.57897" lon="4.77359">
        <ele>218</ele>
        <time>2018-08-15T06:10:42.263Z</time>
      </trkpt>
      <trkpt lat="45.57897" lon="4.77359">
        <ele>218</ele>
        <time>2018-08-15T06:10:43.268Z</time>
      </trkpt>
      <trkpt lat="45.57895" lon="4.77363">
        <ele>218</ele>
        <time>2018-08-15T06:10:44.252Z</time>
      </trkpt>
      <trkpt lat="45.57895" lon="4.77363">
        <ele>218</ele>
        <time>2018-08-15T06:10:45.258Z</time>
      </trkpt>
      <trkpt lat="45.57893" lon="4.77368">
        <ele>218</ele>
        <time>2018-08-15T06:10:46.268Z</time>
      </trkpt>
      <trkpt lat="45.57893" lon="4.77368">
        <ele>218</ele>
        <time>2018-08-15T06:10:47.233Z</time>
      </trkpt>
      <trkpt lat="45.5789" lon="4.77373">
        <ele>218</ele>
        <time>2018-08-15T06:10:48.270Z</time>
      </trkpt>
      <trkpt lat="45.5789" lon="4.77373">
        <ele>218</ele>
        <time>2018-08-15T06:10:49.235Z</time>
      </trkpt>
      <trkpt lat="45.57887" lon="4.77376">
        <ele>218</ele>
        <time>2018-08-15T06:10:50.269Z</time>
      </trkpt>
      <trkpt lat="45.57887" lon="4.77376">
        <ele>218</ele>
        <time>2018-08-15T06:10:51.234Z</time>
      </trkpt>
      <trkpt lat="45.57883" lon="4.7738">
        <ele>218</ele>
        <time>2018-08-15T06:10:52.270Z</time>
      </trkpt>
      <trkpt lat="45.57883" lon="4.7738">
        <ele>218</ele>
        <time>2018-08-15T06:10:53.235Z</time>
      </trkpt>
      <trkpt lat="45.57879" lon="4.77383">
        <ele>217</ele>
        <time>2018-08-15T06:10:54.261Z</time>
      </trkpt>
      <trkpt lat="45.57877" lon="4.77384">
        <ele>217</ele>
        <time>2018-08-15T06:10:55.253Z</time>
      </trkpt>
      <trkpt lat="45.57875" lon="4.77385">
        <ele>217</ele>
        <time>2018-08-15T06:10:56.243Z</time>
      </trkpt>
      <trkpt lat="45.57875" lon="4.77385">
        <ele>217</ele>
        <time>2018-08-15T06:10:57.255Z</time>
      </trkpt>
      <trkpt lat="45.57871" lon="4.77388">
        <ele>217</ele>
        <time>2018-08-15T06:10:58.264Z</time>
      </trkpt>
      <trkpt lat="45.57871" lon="4.77388">
        <ele>217</ele>
        <time>2018-08-15T06:10:59.269Z</time>
      </trkpt>
      <trkpt lat="45.57867" lon="4.77391">
        <ele>217</ele>
        <time>2018-08-15T06:11:00.242Z</time>
      </trkpt>
      <trkpt lat="45.57867" lon="4.77391">
        <ele>217</ele>
        <time>2018-08-15T06:11:01.258Z</time>
      </trkpt>
      <trkpt lat="45.57863" lon="4.77394">
        <ele>217</ele>
        <time>2018-08-15T06:11:02.240Z</time>
      </trkpt>
      <trkpt lat="45.57863" lon="4.77394">
        <ele>217</ele>
        <time>2018-08-15T06:11:03.245Z</time>
      </trkpt>
      <trkpt lat="45.57858" lon="4.77396">
        <ele>217</ele>
        <time>2018-08-15T06:11:04.250Z</time>
      </trkpt>
      <trkpt lat="45.57858" lon="4.77396">
        <ele>217</ele>
        <time>2018-08-15T06:11:05.255Z</time>
      </trkpt>
      <trkpt lat="45.57855" lon="4.77398">
        <ele>217</ele>
        <time>2018-08-15T06:11:06.259Z</time>
      </trkpt>
      <trkpt lat="45.57853" lon="4.774">
        <ele>217</ele>
        <time>2018-08-15T06:11:07.239Z</time>
      </trkpt>
      <trkpt lat="45.57853" lon="4.774">
        <ele>217</ele>
        <time>2018-08-15T06:11:08.244Z</time>
      </trkpt>
      <trkpt lat="45.57849" lon="4.77403">
        <ele>216</ele>
        <time>2018-08-15T06:11:09.247Z</time>
      </trkpt>
      <trkpt lat="45.57849" lon="4.77403">
        <ele>216</ele>
        <time>2018-08-15T06:11:10.253Z</time>
      </trkpt>
      <trkpt lat="45.57844" lon="4.77404">
        <ele>216</ele>
        <time>2018-08-15T06:11:11.246Z</time>
      </trkpt>
      <trkpt lat="45.57841" lon="4.77404">
        <ele>216</ele>
        <time>2018-08-15T06:11:12.233Z</time>
      </trkpt>
      <trkpt lat="45.57841" lon="4.77404">
        <ele>216</ele>
        <time>2018-08-15T06:11:13.239Z</time>
      </trkpt>
      <trkpt lat="45.57837" lon="4.77405">
        <ele>216</ele>
        <time>2018-08-15T06:11:14.239Z</time>
      </trkpt>
      <trkpt lat="45.57837" lon="4.77405">
        <ele>216</ele>
        <time>2018-08-15T06:11:15.244Z</time>
      </trkpt>
      <trkpt lat="45.57832" lon="4.77404">
        <ele>216</ele>
        <time>2018-08-15T06:11:16.235Z</time>
      </trkpt>
      <trkpt lat="45.57832" lon="4.77404">
        <ele>216</ele>
        <time>2018-08-15T06:11:17.240Z</time>
      </trkpt>
      <trkpt lat="45.57828" lon="4.77402">
        <ele>216</ele>
        <time>2018-08-15T06:11:18.233Z</time>
      </trkpt>
      <trkpt lat="45.57828" lon="4.77402">
        <ele>216</ele>
        <time>2018-08-15T06:11:19.238Z</time>
      </trkpt>
      <trkpt lat="45.57825" lon="4.77399">
        <ele>216</ele>
        <time>2018-08-15T06:11:20.263Z</time>
      </trkpt>
      <trkpt lat="45.57825" lon="4.77399">
        <ele>216</ele>
        <time>2018-08-15T06:11:21.268Z</time>
      </trkpt>
      <trkpt lat="45.57821" lon="4.77395">
        <ele>217</ele>
        <time>2018-08-15T06:11:22.256Z</time>
      </trkpt>
      <trkpt lat="45.57821" lon="4.77395">
        <ele>217</ele>
        <time>2018-08-15T06:11:23.261Z</time>
      </trkpt>
      <trkpt lat="45.57818" lon="4.77391">
        <ele>217</ele>
        <time>2018-08-15T06:11:24.262Z</time>
      </trkpt>
      <trkpt lat="45.57818" lon="4.77391">
        <ele>217</ele>
        <time>2018-08-15T06:11:25.267Z</time>
      </trkpt>
      <trkpt lat="45.57816" lon="4.77387">
        <ele>217</ele>
        <time>2018-08-15T06:11:26.250Z</time>
      </trkpt>
      <trkpt lat="45.57816" lon="4.77387">
        <ele>217</ele>
        <time>2018-08-15T06:11:27.255Z</time>
      </trkpt>
      <trkpt lat="45.57813" lon="4.77382">
        <ele>217</ele>
        <time>2018-08-15T06:11:28.234Z</time>
      </trkpt>
      <trkpt lat="45.57813" lon="4.77382">
        <ele>217</ele>
        <time>2018-08-15T06:11:29.239Z</time>
      </trkpt>
      <trkpt lat="45.5781" lon="4.77378">
        <ele>217</ele>
        <time>2018-08-15T06:11:30.267Z</time>
      </trkpt>
      <trkpt lat="45.5781" lon="4.77378">
        <ele>217</ele>
        <time>2018-08-15T06:11:31.232Z</time>
      </trkpt>
      <trkpt lat="45.57806" lon="4.77375">
        <ele>217</ele>
        <time>2018-08-15T06:11:32.262Z</time>
      </trkpt>
      <trkpt lat="45.57806" lon="4.77375">
        <ele>217</ele>
        <time>2018-08-15T06:11:33.267Z</time>
      </trkpt>
      <trkpt lat="45.57802" lon="4.77371">
        <ele>217</ele>
        <time>2018-08-15T06:11:34.251Z</time>
      </trkpt>
      <trkpt lat="45.57802" lon="4.77371">
        <ele>217</ele>
        <time>2018-08-15T06:11:35.257Z</time>
      </trkpt>
      <trkpt lat="45.57797" lon="4.77368">
        <ele>218</ele>
        <time>2018-08-15T06:11:36.254Z</time>
      </trkpt>
      <trkpt lat="45.57797" lon="4.77368">
        <ele>218</ele>
        <time>2018-08-15T06:11:37.259Z</time>
      </trkpt>
      <trkpt lat="45.57791" lon="4.77365">
        <ele>218</ele>
        <time>2018-08-15T06:11:38.242Z</time>
      </trkpt>
      <trkpt lat="45.57791" lon="4.77365">
        <ele>218</ele>
        <time>2018-08-15T06:11:39.248Z</time>
      </trkpt>
      <trkpt lat="45.57786" lon="4.77363">
        <ele>219</ele>
        <time>2018-08-15T06:11:40.240Z</time>
      </trkpt>
      <trkpt lat="45.57786" lon="4.77363">
        <ele>219</ele>
        <time>2018-08-15T06:11:41.245Z</time>
      </trkpt>
      <trkpt lat="45.5778" lon="4.77361">
        <ele>219</ele>
        <time>2018-08-15T06:11:42.269Z</time>
      </trkpt>
      <trkpt lat="45.57778" lon="4.7736">
        <ele>219</ele>
        <time>2018-08-15T06:11:43.237Z</time>
      </trkpt>
      <trkpt lat="45.57778" lon="4.7736">
        <ele>219</ele>
        <time>2018-08-15T06:11:44.243Z</time>
      </trkpt>
      <trkpt lat="45.57774" lon="4.77358">
        <ele>219</ele>
        <time>2018-08-15T06:11:45.233Z</time>
      </trkpt>
      <trkpt lat="45.57774" lon="4.77358">
        <ele>219</ele>
        <time>2018-08-15T06:11:46.239Z</time>
      </trkpt>
      <trkpt lat="45.57769" lon="4.77355">
        <ele>220</ele>
        <time>2018-08-15T06:11:47.265Z</time>
      </trkpt>
      <trkpt lat="45.57766" lon="4.77354">
        <ele>220</ele>
        <time>2018-08-15T06:11:48.254Z</time>
      </trkpt>
      <trkpt lat="45.57766" lon="4.77354">
        <ele>220</ele>
        <time>2018-08-15T06:11:49.233Z</time>
      </trkpt>
      <trkpt lat="45.57761" lon="4.77352">
        <ele>220</ele>
        <time>2018-08-15T06:11:50.263Z</time>
      </trkpt>
      <trkpt lat="45.57761" lon="4.77352">
        <ele>220</ele>
        <time>2018-08-15T06:11:51.268Z</time>
      </trkpt>
      <trkpt lat="45.57756" lon="4.7735">
        <ele>221</ele>
        <time>2018-08-15T06:11:52.247Z</time>
      </trkpt>
      <trkpt lat="45.57756" lon="4.7735">
        <ele>221</ele>
        <time>2018-08-15T06:11:53.253Z</time>
      </trkpt>
      <trkpt lat="45.57751" lon="4.77347">
        <ele>221</ele>
        <time>2018-08-15T06:11:54.235Z</time>
      </trkpt>
      <trkpt lat="45.57751" lon="4.77347">
        <ele>221</ele>
        <time>2018-08-15T06:11:55.240Z</time>
      </trkpt>
      <trkpt lat="45.57746" lon="4.77345">
        <ele>222</ele>
        <time>2018-08-15T06:11:56.271Z</time>
      </trkpt>
      <trkpt lat="45.57746" lon="4.77345">
        <ele>222</ele>
        <time>2018-08-15T06:11:57.237Z</time>
      </trkpt>
      <trkpt lat="45.57742" lon="4.77342">
        <ele>223</ele>
        <time>2018-08-15T06:11:58.260Z</time>
      </trkpt>
      <trkpt lat="45.57742" lon="4.77342">
        <ele>223</ele>
        <time>2018-08-15T06:11:59.266Z</time>
      </trkpt>
      <trkpt lat="45.57737" lon="4.77339">
        <ele>224</ele>
        <time>2018-08-15T06:12:00.247Z</time>
      </trkpt>
      <trkpt lat="45.57737" lon="4.77339">
        <ele>224</ele>
        <time>2018-08-15T06:12:01.256Z</time>
      </trkpt>
      <trkpt lat="45.57732" lon="4.77337">
        <ele>224</ele>
        <time>2018-08-15T06:12:02.248Z</time>
      </trkpt>
      <trkpt lat="45.57732" lon="4.77337">
        <ele>224</ele>
        <time>2018-08-15T06:12:03.255Z</time>
      </trkpt>
      <trkpt lat="45.57727" lon="4.77335">
        <ele>225</ele>
        <time>2018-08-15T06:12:04.241Z</time>
      </trkpt>
      <trkpt lat="45.57727" lon="4.77335">
        <ele>225</ele>
        <time>2018-08-15T06:12:05.246Z</time>
      </trkpt>
      <trkpt lat="45.57723" lon="4.77332">
        <ele>225</ele>
        <time>2018-08-15T06:12:06.234Z</time>
      </trkpt>
      <trkpt lat="45.57723" lon="4.77332">
        <ele>225</ele>
        <time>2018-08-15T06:12:07.240Z</time>
      </trkpt>
      <trkpt lat="45.57719" lon="4.77328">
        <ele>225</ele>
        <time>2018-08-15T06:12:08.262Z</time>
      </trkpt>
      <trkpt lat="45.57719" lon="4.77328">
        <ele>225</ele>
        <time>2018-08-15T06:12:09.267Z</time>
      </trkpt>
      <trkpt lat="45.57715" lon="4.77322">
        <ele>226</ele>
        <time>2018-08-15T06:12:10.249Z</time>
      </trkpt>
      <trkpt lat="45.57715" lon="4.77322">
        <ele>226</ele>
        <time>2018-08-15T06:12:11.256Z</time>
      </trkpt>
      <trkpt lat="45.5771" lon="4.77319">
        <ele>226</ele>
        <time>2018-08-15T06:12:12.242Z</time>
      </trkpt>
      <trkpt lat="45.5771" lon="4.77319">
        <ele>226</ele>
        <time>2018-08-15T06:12:13.247Z</time>
      </trkpt>
      <trkpt lat="45.57705" lon="4.77316">
        <ele>226</ele>
        <time>2018-08-15T06:12:14.237Z</time>
      </trkpt>
      <trkpt lat="45.57703" lon="4.77315">
        <ele>226</ele>
        <time>2018-08-15T06:12:15.254Z</time>
      </trkpt>
      <trkpt lat="45.57703" lon="4.77315">
        <ele>226</ele>
        <time>2018-08-15T06:12:16.260Z</time>
      </trkpt>
      <trkpt lat="45.57698" lon="4.77314">
        <ele>227</ele>
        <time>2018-08-15T06:12:17.251Z</time>
      </trkpt>
      <trkpt lat="45.57698" lon="4.77314">
        <ele>227</ele>
        <time>2018-08-15T06:12:18.257Z</time>
      </trkpt>
      <trkpt lat="45.57694" lon="4.77313">
        <ele>227</ele>
        <time>2018-08-15T06:12:19.238Z</time>
      </trkpt>
      <trkpt lat="45.57692" lon="4.77313">
        <ele>228</ele>
        <time>2018-08-15T06:12:20.261Z</time>
      </trkpt>
      <trkpt lat="45.57692" lon="4.77313">
        <ele>228</ele>
        <time>2018-08-15T06:12:21.267Z</time>
      </trkpt>
      <trkpt lat="45.57688" lon="4.77312">
        <ele>228</ele>
        <time>2018-08-15T06:12:22.233Z</time>
      </trkpt>
      <trkpt lat="45.57688" lon="4.77312">
        <ele>228</ele>
        <time>2018-08-15T06:12:23.238Z</time>
      </trkpt>
      <trkpt lat="45.57683" lon="4.77311">
        <ele>228</ele>
        <time>2018-08-15T06:12:24.270Z</time>
      </trkpt>
      <trkpt lat="45.57683" lon="4.77311">
        <ele>228</ele>
        <time>2018-08-15T06:12:25.236Z</time>
      </trkpt>
      <trkpt lat="45.57679" lon="4.7731">
        <ele>228</ele>
        <time>2018-08-15T06:12:26.233Z</time>
      </trkpt>
      <trkpt lat="45.57679" lon="4.7731">
        <ele>228</ele>
        <time>2018-08-15T06:12:27.238Z</time>
      </trkpt>
      <trkpt lat="45.57674" lon="4.7731">
        <ele>228</ele>
        <time>2018-08-15T06:12:28.265Z</time>
      </trkpt>
      <trkpt lat="45.57674" lon="4.7731">
        <ele>228</ele>
        <time>2018-08-15T06:12:29.271Z</time>
      </trkpt>
      <trkpt lat="45.5767" lon="4.77309">
        <ele>228</ele>
        <time>2018-08-15T06:12:30.259Z</time>
      </trkpt>
      <trkpt lat="45.5767" lon="4.77309">
        <ele>228</ele>
        <time>2018-08-15T06:12:31.264Z</time>
      </trkpt>
      <trkpt lat="45.57667" lon="4.77307">
        <ele>229</ele>
        <time>2018-08-15T06:12:32.261Z</time>
      </trkpt>
      <trkpt lat="45.57667" lon="4.77307">
        <ele>229</ele>
        <time>2018-08-15T06:12:33.266Z</time>
      </trkpt>
      <trkpt lat="45.57662" lon="4.77306">
        <ele>229</ele>
        <time>2018-08-15T06:12:34.246Z</time>
      </trkpt>
      <trkpt lat="45.57662" lon="4.77306">
        <ele>229</ele>
        <time>2018-08-15T06:12:35.254Z</time>
      </trkpt>
      <trkpt lat="45.57657" lon="4.77306">
        <ele>229</ele>
        <time>2018-08-15T06:12:36.265Z</time>
      </trkpt>
      <trkpt lat="45.57657" lon="4.77306">
        <ele>229</ele>
        <time>2018-08-15T06:12:37.271Z</time>
      </trkpt>
      <trkpt lat="45.57652" lon="4.77306">
        <ele>230</ele>
        <time>2018-08-15T06:12:38.240Z</time>
      </trkpt>
      <trkpt lat="45.57652" lon="4.77306">
        <ele>230</ele>
        <time>2018-08-15T06:12:39.245Z</time>
      </trkpt>
      <trkpt lat="45.57647" lon="4.77305">
        <ele>230</ele>
        <time>2018-08-15T06:12:40.240Z</time>
      </trkpt>
      <trkpt lat="45.57647" lon="4.77305">
        <ele>230</ele>
        <time>2018-08-15T06:12:41.245Z</time>
      </trkpt>
      <trkpt lat="45.57642" lon="4.77306">
        <ele>230</ele>
        <time>2018-08-15T06:12:42.273Z</time>
      </trkpt>
      <trkpt lat="45.57642" lon="4.77306">
        <ele>230</ele>
        <time>2018-08-15T06:12:43.243Z</time>
      </trkpt>
      <trkpt lat="45.57638" lon="4.77307">
        <ele>231</ele>
        <time>2018-08-15T06:12:44.238Z</time>
      </trkpt>
      <trkpt lat="45.57638" lon="4.77307">
        <ele>231</ele>
        <time>2018-08-15T06:12:45.243Z</time>
      </trkpt>
      <trkpt lat="45.57634" lon="4.77309">
        <ele>231</ele>
        <time>2018-08-15T06:12:46.233Z</time>
      </trkpt>
      <trkpt lat="45.57632" lon="4.7731">
        <ele>231</ele>
        <time>2018-08-15T06:12:47.271Z</time>
      </trkpt>
      <trkpt lat="45.57632" lon="4.7731">
        <ele>231</ele>
        <time>2018-08-15T06:12:48.236Z</time>
      </trkpt>
      <trkpt lat="45.57628" lon="4.77313">
        <ele>231</ele>
        <time>2018-08-15T06:12:49.257Z</time>
      </trkpt>
      <trkpt lat="45.57626" lon="4.77315">
        <ele>231</ele>
        <time>2018-08-15T06:12:50.254Z</time>
      </trkpt>
      <trkpt lat="45.57626" lon="4.77315">
        <ele>231</ele>
        <time>2018-08-15T06:12:51.260Z</time>
      </trkpt>
      <trkpt lat="45.57622" lon="4.77321">
        <ele>232</ele>
        <time>2018-08-15T06:12:52.243Z</time>
      </trkpt>
      <trkpt lat="45.57622" lon="4.77321">
        <ele>232</ele>
        <time>2018-08-15T06:12:53.254Z</time>
      </trkpt>
      <trkpt lat="45.5762" lon="4.77327">
        <ele>232</ele>
        <time>2018-08-15T06:12:54.232Z</time>
      </trkpt>
      <trkpt lat="45.5762" lon="4.77327">
        <ele>232</ele>
        <time>2018-08-15T06:12:55.238Z</time>
      </trkpt>
      <trkpt lat="45.5762" lon="4.77335">
        <ele>234</ele>
        <time>2018-08-15T06:12:56.265Z</time>
      </trkpt>
      <trkpt lat="45.5762" lon="4.77335">
        <ele>234</ele>
        <time>2018-08-15T06:12:57.270Z</time>
      </trkpt>
      <trkpt lat="45.57621" lon="4.77343">
        <ele>235</ele>
        <time>2018-08-15T06:12:58.255Z</time>
      </trkpt>
      <trkpt lat="45.57621" lon="4.77343">
        <ele>235</ele>
        <time>2018-08-15T06:12:59.260Z</time>
      </trkpt>
      <trkpt lat="45.57624" lon="4.77349">
        <ele>237</ele>
        <time>2018-08-15T06:13:00.252Z</time>
      </trkpt>
      <trkpt lat="45.57624" lon="4.77349">
        <ele>237</ele>
        <time>2018-08-15T06:13:01.258Z</time>
      </trkpt>
      <trkpt lat="45.57627" lon="4.77354">
        <ele>237</ele>
        <time>2018-08-15T06:13:02.251Z</time>
      </trkpt>
      <trkpt lat="45.57627" lon="4.77354">
        <ele>237</ele>
        <time>2018-08-15T06:13:03.257Z</time>
      </trkpt>
      <trkpt lat="45.57631" lon="4.77359">
        <ele>238</ele>
        <time>2018-08-15T06:13:04.252Z</time>
      </trkpt>
      <trkpt lat="45.57631" lon="4.77359">
        <ele>238</ele>
        <time>2018-08-15T06:13:05.259Z</time>
      </trkpt>
      <trkpt lat="45.57637" lon="4.77362">
        <ele>239</ele>
        <time>2018-08-15T06:13:06.252Z</time>
      </trkpt>
      <trkpt lat="45.57637" lon="4.77362">
        <ele>239</ele>
        <time>2018-08-15T06:13:07.259Z</time>
      </trkpt>
      <trkpt lat="45.57642" lon="4.77365">
        <ele>240</ele>
        <time>2018-08-15T06:13:08.256Z</time>
      </trkpt>
      <trkpt lat="45.57642" lon="4.77365">
        <ele>240</ele>
        <time>2018-08-15T06:13:09.261Z</time>
      </trkpt>
      <trkpt lat="45.57647" lon="4.77368">
        <ele>241</ele>
        <time>2018-08-15T06:13:10.250Z</time>
      </trkpt>
      <trkpt lat="45.57647" lon="4.77368">
        <ele>241</ele>
        <time>2018-08-15T06:13:11.257Z</time>
      </trkpt>
      <trkpt lat="45.57652" lon="4.77373">
        <ele>242</ele>
        <time>2018-08-15T06:13:12.250Z</time>
      </trkpt>
      <trkpt lat="45.57652" lon="4.77373">
        <ele>242</ele>
        <time>2018-08-15T06:13:13.258Z</time>
      </trkpt>
      <trkpt lat="45.57656" lon="4.77377">
        <ele>243</ele>
        <time>2018-08-15T06:13:14.245Z</time>
      </trkpt>
      <trkpt lat="45.57656" lon="4.77377">
        <ele>243</ele>
        <time>2018-08-15T06:13:15.253Z</time>
      </trkpt>
      <trkpt lat="45.5766" lon="4.7738">
        <ele>244</ele>
        <time>2018-08-15T06:13:16.235Z</time>
      </trkpt>
      <trkpt lat="45.5766" lon="4.7738">
        <ele>244</ele>
        <time>2018-08-15T06:13:17.240Z</time>
      </trkpt>
      <trkpt lat="45.57664" lon="4.77383">
        <ele>244</ele>
        <time>2018-08-15T06:13:18.263Z</time>
      </trkpt>
      <trkpt lat="45.57666" lon="4.77385">
        <ele>245</ele>
        <time>2018-08-15T06:13:19.251Z</time>
      </trkpt>
      <trkpt lat="45.57669" lon="4.77386">
        <ele>245</ele>
        <time>2018-08-15T06:13:20.245Z</time>
      </trkpt>
      <trkpt lat="45.57669" lon="4.77386">
        <ele>245</ele>
        <time>2018-08-15T06:13:21.255Z</time>
      </trkpt>
      <trkpt lat="45.57673" lon="4.77392">
        <ele>245</ele>
        <time>2018-08-15T06:13:22.244Z</time>
      </trkpt>
      <trkpt lat="45.57673" lon="4.77392">
        <ele>245</ele>
        <time>2018-08-15T06:13:23.254Z</time>
      </trkpt>
      <trkpt lat="45.57677" lon="4.77397">
        <ele>246</ele>
        <time>2018-08-15T06:13:24.245Z</time>
      </trkpt>
      <trkpt lat="45.57677" lon="4.77397">
        <ele>246</ele>
        <time>2018-08-15T06:13:25.255Z</time>
      </trkpt>
      <trkpt lat="45.57681" lon="4.77401">
        <ele>246</ele>
        <time>2018-08-15T06:13:26.243Z</time>
      </trkpt>
      <trkpt lat="45.57681" lon="4.77401">
        <ele>246</ele>
        <time>2018-08-15T06:13:27.248Z</time>
      </trkpt>
      <trkpt lat="45.57686" lon="4.77404">
        <ele>247</ele>
        <time>2018-08-15T06:13:28.267Z</time>
      </trkpt>
      <trkpt lat="45.57686" lon="4.77404">
        <ele>247</ele>
        <time>2018-08-15T06:13:29.232Z</time>
      </trkpt>
      <trkpt lat="45.57692" lon="4.77407">
        <ele>247</ele>
        <time>2018-08-15T06:13:30.236Z</time>
      </trkpt>
      <trkpt lat="45.57692" lon="4.77407">
        <ele>247</ele>
        <time>2018-08-15T06:13:31.242Z</time>
      </trkpt>
      <trkpt lat="45.57697" lon="4.77409">
        <ele>248</ele>
        <time>2018-08-15T06:13:32.233Z</time>
      </trkpt>
      <trkpt lat="45.57697" lon="4.77409">
        <ele>248</ele>
        <time>2018-08-15T06:13:33.238Z</time>
      </trkpt>
      <trkpt lat="45.57703" lon="4.77412">
        <ele>249</ele>
        <time>2018-08-15T06:13:34.264Z</time>
      </trkpt>
      <trkpt lat="45.57703" lon="4.77412">
        <ele>249</ele>
        <time>2018-08-15T06:13:35.269Z</time>
      </trkpt>
      <trkpt lat="45.57708" lon="4.77414">
        <ele>250</ele>
        <time>2018-08-15T06:13:36.264Z</time>
      </trkpt>
      <trkpt lat="45.5771" lon="4.77415">
        <ele>250</ele>
        <time>2018-08-15T06:13:37.253Z</time>
      </trkpt>
      <trkpt lat="45.57713" lon="4.77416">
        <ele>251</ele>
        <time>2018-08-15T06:13:38.239Z</time>
      </trkpt>
      <trkpt lat="45.57713" lon="4.77416">
        <ele>251</ele>
        <time>2018-08-15T06:13:39.244Z</time>
      </trkpt>
      <trkpt lat="45.57718" lon="4.77419">
        <ele>252</ele>
        <time>2018-08-15T06:13:40.261Z</time>
      </trkpt>
      <trkpt lat="45.5772" lon="4.77421">
        <ele>252</ele>
        <time>2018-08-15T06:13:41.253Z</time>
      </trkpt>
      <trkpt lat="45.5772" lon="4.77421">
        <ele>252</ele>
        <time>2018-08-15T06:13:42.233Z</time>
      </trkpt>
      <trkpt lat="45.57725" lon="4.77425">
        <ele>252</ele>
        <time>2018-08-15T06:13:43.257Z</time>
      </trkpt>
      <trkpt lat="45.57727" lon="4.77428">
        <ele>252</ele>
        <time>2018-08-15T06:13:44.243Z</time>
      </trkpt>
      <trkpt lat="45.57727" lon="4.77428">
        <ele>252</ele>
        <time>2018-08-15T06:13:45.255Z</time>
      </trkpt>
      <trkpt lat="45.57732" lon="4.77433">
        <ele>252</ele>
        <time>2018-08-15T06:13:46.252Z</time>
      </trkpt>
      <trkpt lat="45.57732" lon="4.77433">
        <ele>252</ele>
        <time>2018-08-15T06:13:47.258Z</time>
      </trkpt>
      <trkpt lat="45.57736" lon="4.77437">
        <ele>252</ele>
        <time>2018-08-15T06:13:48.246Z</time>
      </trkpt>
      <trkpt lat="45.57739" lon="4.7744">
        <ele>252</ele>
        <time>2018-08-15T06:13:49.254Z</time>
      </trkpt>
      <trkpt lat="45.57739" lon="4.7744">
        <ele>252</ele>
        <time>2018-08-15T06:13:50.260Z</time>
      </trkpt>
      <trkpt lat="45.57742" lon="4.77446">
        <ele>252</ele>
        <time>2018-08-15T06:13:51.253Z</time>
      </trkpt>
      <trkpt lat="45.57742" lon="4.77446">
        <ele>252</ele>
        <time>2018-08-15T06:13:52.259Z</time>
      </trkpt>
      <trkpt lat="45.57744" lon="4.77453">
        <ele>252</ele>
        <time>2018-08-15T06:13:53.247Z</time>
      </trkpt>
      <trkpt lat="45.57744" lon="4.77457">
        <ele>253</ele>
        <time>2018-08-15T06:13:54.266Z</time>
      </trkpt>
      <trkpt lat="45.57744" lon="4.77457">
        <ele>253</ele>
        <time>2018-08-15T06:13:55.232Z</time>
      </trkpt>
      <trkpt lat="45.57743" lon="4.77465">
        <ele>253</ele>
        <time>2018-08-15T06:13:56.254Z</time>
      </trkpt>
      <trkpt lat="45.57743" lon="4.77465">
        <ele>253</ele>
        <time>2018-08-15T06:13:57.261Z</time>
      </trkpt>
      <trkpt lat="45.5774" lon="4.77472">
        <ele>253</ele>
        <time>2018-08-15T06:13:58.251Z</time>
      </trkpt>
      <trkpt lat="45.57738" lon="4.77474">
        <ele>253</ele>
        <time>2018-08-15T06:13:59.238Z</time>
      </trkpt>
      <trkpt lat="45.57738" lon="4.77474">
        <ele>253</ele>
        <time>2018-08-15T06:14:00.244Z</time>
      </trkpt>
      <trkpt lat="45.57735" lon="4.77479">
        <ele>252</ele>
        <time>2018-08-15T06:14:01.243Z</time>
      </trkpt>
      <trkpt lat="45.57733" lon="4.77481">
        <ele>252</ele>
        <time>2018-08-15T06:14:02.233Z</time>
      </trkpt>
      <trkpt lat="45.57733" lon="4.77481">
        <ele>252</ele>
        <time>2018-08-15T06:14:03.238Z</time>
      </trkpt>
      <trkpt lat="45.57729" lon="4.77485">
        <ele>252</ele>
        <time>2018-08-15T06:14:04.271Z</time>
      </trkpt>
      <trkpt lat="45.57729" lon="4.77485">
        <ele>252</ele>
        <time>2018-08-15T06:14:05.236Z</time>
      </trkpt>
      <trkpt lat="45.57725" lon="4.77487">
        <ele>252</ele>
        <time>2018-08-15T06:14:06.259Z</time>
      </trkpt>
      <trkpt lat="45.57725" lon="4.77487">
        <ele>252</ele>
        <time>2018-08-15T06:14:07.264Z</time>
      </trkpt>
      <trkpt lat="45.5772" lon="4.7749">
        <ele>252</ele>
        <time>2018-08-15T06:14:08.261Z</time>
      </trkpt>
      <trkpt lat="45.5772" lon="4.7749">
        <ele>252</ele>
        <time>2018-08-15T06:14:09.266Z</time>
      </trkpt>
      <trkpt lat="45.57716" lon="4.77494">
        <ele>252</ele>
        <time>2018-08-15T06:14:10.262Z</time>
      </trkpt>
      <trkpt lat="45.57716" lon="4.77494">
        <ele>252</ele>
        <time>2018-08-15T06:14:11.268Z</time>
      </trkpt>
      <trkpt lat="45.57712" lon="4.77497">
        <ele>252</ele>
        <time>2018-08-15T06:14:12.251Z</time>
      </trkpt>
      <trkpt lat="45.57709" lon="4.77498">
        <ele>252</ele>
        <time>2018-08-15T06:14:13.236Z</time>
      </trkpt>
      <trkpt lat="45.57706" lon="4.77501">
        <ele>253</ele>
        <time>2018-08-15T06:14:14.255Z</time>
      </trkpt>
      <trkpt lat="45.57706" lon="4.77501">
        <ele>253</ele>
        <time>2018-08-15T06:14:15.261Z</time>
      </trkpt>
      <trkpt lat="45.57702" lon="4.77504">
        <ele>253</ele>
        <time>2018-08-15T06:14:16.246Z</time>
      </trkpt>
      <trkpt lat="45.57702" lon="4.77504">
        <ele>253</ele>
        <time>2018-08-15T06:14:17.256Z</time>
      </trkpt>
      <trkpt lat="45.57698" lon="4.77507">
        <ele>253</ele>
        <time>2018-08-15T06:14:18.255Z</time>
      </trkpt>
      <trkpt lat="45.57698" lon="4.77507">
        <ele>253</ele>
        <time>2018-08-15T06:14:19.261Z</time>
      </trkpt>
      <trkpt lat="45.57693" lon="4.77511">
        <ele>253</ele>
        <time>2018-08-15T06:14:20.247Z</time>
      </trkpt>
      <trkpt lat="45.57693" lon="4.77511">
        <ele>253</ele>
        <time>2018-08-15T06:14:21.254Z</time>
      </trkpt>
      <trkpt lat="45.57689" lon="4.77515">
        <ele>253</ele>
        <time>2018-08-15T06:14:22.239Z</time>
      </trkpt>
      <trkpt lat="45.57687" lon="4.77517">
        <ele>253</ele>
        <time>2018-08-15T06:14:23.266Z</time>
      </trkpt>
      <trkpt lat="45.57685" lon="4.77519">
        <ele>253</ele>
        <time>2018-08-15T06:14:24.270Z</time>
      </trkpt>
      <trkpt lat="45.57685" lon="4.77519">
        <ele>253</ele>
        <time>2018-08-15T06:14:25.236Z</time>
      </trkpt>
      <trkpt lat="45.5768" lon="4.77523">
        <ele>253</ele>
        <time>2018-08-15T06:14:26.268Z</time>
      </trkpt>
      <trkpt lat="45.5768" lon="4.77523">
        <ele>253</ele>
        <time>2018-08-15T06:14:27.233Z</time>
      </trkpt>
      <trkpt lat="45.57677" lon="4.77527">
        <ele>253</ele>
        <time>2018-08-15T06:14:28.245Z</time>
      </trkpt>
      <trkpt lat="45.57677" lon="4.77527">
        <ele>253</ele>
        <time>2018-08-15T06:14:29.253Z</time>
      </trkpt>
      <trkpt lat="45.57673" lon="4.77533">
        <ele>254</ele>
        <time>2018-08-15T06:14:30.243Z</time>
      </trkpt>
      <trkpt lat="45.57673" lon="4.77533">
        <ele>254</ele>
        <time>2018-08-15T06:14:31.254Z</time>
      </trkpt>
      <trkpt lat="45.57669" lon="4.77539">
        <ele>254</ele>
        <time>2018-08-15T06:14:32.243Z</time>
      </trkpt>
      <trkpt lat="45.57669" lon="4.77539">
        <ele>254</ele>
        <time>2018-08-15T06:14:33.250Z</time>
      </trkpt>
      <trkpt lat="45.57665" lon="4.77545">
        <ele>254</ele>
        <time>2018-08-15T06:14:34.248Z</time>
      </trkpt>
      <trkpt lat="45.57665" lon="4.77545">
        <ele>254</ele>
        <time>2018-08-15T06:14:35.253Z</time>
      </trkpt>
      <trkpt lat="45.57662" lon="4.77551">
        <ele>254</ele>
        <time>2018-08-15T06:14:36.259Z</time>
      </trkpt>
      <trkpt lat="45.57662" lon="4.77551">
        <ele>254</ele>
        <time>2018-08-15T06:14:37.268Z</time>
      </trkpt>
      <trkpt lat="45.57659" lon="4.77557">
        <ele>254</ele>
        <time>2018-08-15T06:14:38.264Z</time>
      </trkpt>
      <trkpt lat="45.57659" lon="4.77557">
        <ele>254</ele>
        <time>2018-08-15T06:14:39.270Z</time>
      </trkpt>
      <trkpt lat="45.57657" lon="4.77564">
        <ele>255</ele>
        <time>2018-08-15T06:14:40.232Z</time>
      </trkpt>
      <trkpt lat="45.57657" lon="4.77564">
        <ele>255</ele>
        <time>2018-08-15T06:14:41.237Z</time>
      </trkpt>
      <trkpt lat="45.57654" lon="4.7757">
        <ele>255</ele>
        <time>2018-08-15T06:14:42.264Z</time>
      </trkpt>
      <trkpt lat="45.57654" lon="4.7757">
        <ele>255</ele>
        <time>2018-08-15T06:14:43.269Z</time>
      </trkpt>
      <trkpt lat="45.57652" lon="4.77577">
        <ele>256</ele>
        <time>2018-08-15T06:14:44.250Z</time>
      </trkpt>
      <trkpt lat="45.57652" lon="4.77577">
        <ele>256</ele>
        <time>2018-08-15T06:14:45.257Z</time>
      </trkpt>
      <trkpt lat="45.57651" lon="4.77585">
        <ele>256</ele>
        <time>2018-08-15T06:14:46.257Z</time>
      </trkpt>
      <trkpt lat="45.57651" lon="4.77585">
        <ele>256</ele>
        <time>2018-08-15T06:14:47.262Z</time>
      </trkpt>
      <trkpt lat="45.5765" lon="4.77593">
        <ele>256</ele>
        <time>2018-08-15T06:14:48.271Z</time>
      </trkpt>
      <trkpt lat="45.57649" lon="4.77596">
        <ele>256</ele>
        <time>2018-08-15T06:14:49.257Z</time>
      </trkpt>
      <trkpt lat="45.57648" lon="4.776">
        <ele>256</ele>
        <time>2018-08-15T06:14:50.233Z</time>
      </trkpt>
      <trkpt lat="45.57648" lon="4.776">
        <ele>256</ele>
        <time>2018-08-15T06:14:51.238Z</time>
      </trkpt>
      <trkpt lat="45.57645" lon="4.77608">
        <ele>256</ele>
        <time>2018-08-15T06:14:52.256Z</time>
      </trkpt>
      <trkpt lat="45.57645" lon="4.77608">
        <ele>256</ele>
        <time>2018-08-15T06:14:53.262Z</time>
      </trkpt>
      <trkpt lat="45.57644" lon="4.77616">
        <ele>257</ele>
        <time>2018-08-15T06:14:54.261Z</time>
      </trkpt>
      <trkpt lat="45.57644" lon="4.7762">
        <ele>257</ele>
        <time>2018-08-15T06:14:55.264Z</time>
      </trkpt>
      <trkpt lat="45.57644" lon="4.77624">
        <ele>257</ele>
        <time>2018-08-15T06:14:56.255Z</time>
      </trkpt>
      <trkpt lat="45.57643" lon="4.77627">
        <ele>257</ele>
        <time>2018-08-15T06:14:57.256Z</time>
      </trkpt>
      <trkpt lat="45.57643" lon="4.77627">
        <ele>257</ele>
        <time>2018-08-15T06:14:58.261Z</time>
      </trkpt>
      <trkpt lat="45.57642" lon="4.77634">
        <ele>258</ele>
        <time>2018-08-15T06:14:59.244Z</time>
      </trkpt>
      <trkpt lat="45.57642" lon="4.77634">
        <ele>258</ele>
        <time>2018-08-15T06:15:00.254Z</time>
      </trkpt>
      <trkpt lat="45.57641" lon="4.77641">
        <ele>258</ele>
        <time>2018-08-15T06:15:01.242Z</time>
      </trkpt>
      <trkpt lat="45.57641" lon="4.77644">
        <ele>259</ele>
        <time>2018-08-15T06:15:02.234Z</time>
      </trkpt>
      <trkpt lat="45.57641" lon="4.77644">
        <ele>259</ele>
        <time>2018-08-15T06:15:03.240Z</time>
      </trkpt>
      <trkpt lat="45.57639" lon="4.77651">
        <ele>259</ele>
        <time>2018-08-15T06:15:04.248Z</time>
      </trkpt>
      <trkpt lat="45.57639" lon="4.77651">
        <ele>259</ele>
        <time>2018-08-15T06:15:05.256Z</time>
      </trkpt>
      <trkpt lat="45.57638" lon="4.77659">
        <ele>260</ele>
        <time>2018-08-15T06:15:06.244Z</time>
      </trkpt>
      <trkpt lat="45.57638" lon="4.77659">
        <ele>260</ele>
        <time>2018-08-15T06:15:07.254Z</time>
      </trkpt>
      <trkpt lat="45.57636" lon="4.77667">
        <ele>260</ele>
        <time>2018-08-15T06:15:08.243Z</time>
      </trkpt>
      <trkpt lat="45.57636" lon="4.77667">
        <ele>260</ele>
        <time>2018-08-15T06:15:09.250Z</time>
      </trkpt>
      <trkpt lat="45.57635" lon="4.77674">
        <ele>260</ele>
        <time>2018-08-15T06:15:10.263Z</time>
      </trkpt>
      <trkpt lat="45.57634" lon="4.77678">
        <ele>261</ele>
        <time>2018-08-15T06:15:11.255Z</time>
      </trkpt>
      <trkpt lat="45.57634" lon="4.77678">
        <ele>261</ele>
        <time>2018-08-15T06:15:12.261Z</time>
      </trkpt>
      <trkpt lat="45.57633" lon="4.77685">
        <ele>261</ele>
        <time>2018-08-15T06:15:13.260Z</time>
      </trkpt>
      <trkpt lat="45.57632" lon="4.77689">
        <ele>261</ele>
        <time>2018-08-15T06:15:14.263Z</time>
      </trkpt>
      <trkpt lat="45.57632" lon="4.77689">
        <ele>261</ele>
        <time>2018-08-15T06:15:15.268Z</time>
      </trkpt>
      <trkpt lat="45.5763" lon="4.77698">
        <ele>261</ele>
        <time>2018-08-15T06:15:16.264Z</time>
      </trkpt>
      <trkpt lat="45.5763" lon="4.77698">
        <ele>261</ele>
        <time>2018-08-15T06:15:17.269Z</time>
      </trkpt>
      <trkpt lat="45.5763" lon="4.77705">
        <ele>260</ele>
        <time>2018-08-15T06:15:18.263Z</time>
      </trkpt>
      <trkpt lat="45.5763" lon="4.77705">
        <ele>260</ele>
        <time>2018-08-15T06:15:19.254Z</time>
      </trkpt>
      <trkpt lat="45.57628" lon="4.77713">
        <ele>260</ele>
        <time>2018-08-15T06:15:20.246Z</time>
      </trkpt>
      <trkpt lat="45.57628" lon="4.77713">
        <ele>260</ele>
        <time>2018-08-15T06:15:21.254Z</time>
      </trkpt>
      <trkpt lat="45.57625" lon="4.77721">
        <ele>260</ele>
        <time>2018-08-15T06:15:22.235Z</time>
      </trkpt>
      <trkpt lat="45.57625" lon="4.77721">
        <ele>260</ele>
        <time>2018-08-15T06:15:23.241Z</time>
      </trkpt>
      <trkpt lat="45.57623" lon="4.7773">
        <ele>260</ele>
        <time>2018-08-15T06:15:24.263Z</time>
      </trkpt>
      <trkpt lat="45.57622" lon="4.77734">
        <ele>260</ele>
        <time>2018-08-15T06:15:25.246Z</time>
      </trkpt>
      <trkpt lat="45.57622" lon="4.77734">
        <ele>260</ele>
        <time>2018-08-15T06:15:26.251Z</time>
      </trkpt>
      <trkpt lat="45.57621" lon="4.77742">
        <ele>260</ele>
        <time>2018-08-15T06:15:27.240Z</time>
      </trkpt>
      <trkpt lat="45.57621" lon="4.77742">
        <ele>260</ele>
        <time>2018-08-15T06:15:28.246Z</time>
      </trkpt>
      <trkpt lat="45.57619" lon="4.77751">
        <ele>261</ele>
        <time>2018-08-15T06:15:29.270Z</time>
      </trkpt>
      <trkpt lat="45.57619" lon="4.77751">
        <ele>261</ele>
        <time>2018-08-15T06:15:30.235Z</time>
      </trkpt>
      <trkpt lat="45.57616" lon="4.77759">
        <ele>261</ele>
        <time>2018-08-15T06:15:31.265Z</time>
      </trkpt>
      <trkpt lat="45.57615" lon="4.77763">
        <ele>261</ele>
        <time>2018-08-15T06:15:32.250Z</time>
      </trkpt>
      <trkpt lat="45.57615" lon="4.77763">
        <ele>261</ele>
        <time>2018-08-15T06:15:33.255Z</time>
      </trkpt>
      <trkpt lat="45.57612" lon="4.77773">
        <ele>261</ele>
        <time>2018-08-15T06:15:34.244Z</time>
      </trkpt>
      <trkpt lat="45.57612" lon="4.77773">
        <ele>261</ele>
        <time>2018-08-15T06:15:35.255Z</time>
      </trkpt>
      <trkpt lat="45.57609" lon="4.77783">
        <ele>261</ele>
        <time>2018-08-15T06:15:36.261Z</time>
      </trkpt>
      <trkpt lat="45.57609" lon="4.77783">
        <ele>261</ele>
        <time>2018-08-15T06:15:37.269Z</time>
      </trkpt>
      <trkpt lat="45.57607" lon="4.77793">
        <ele>261</ele>
        <time>2018-08-15T06:15:38.261Z</time>
      </trkpt>
      <trkpt lat="45.57607" lon="4.77793">
        <ele>261</ele>
        <time>2018-08-15T06:15:39.268Z</time>
      </trkpt>
      <trkpt lat="45.57603" lon="4.77804">
        <ele>260</ele>
        <time>2018-08-15T06:15:40.255Z</time>
      </trkpt>
      <trkpt lat="45.57603" lon="4.77804">
        <ele>260</ele>
        <time>2018-08-15T06:15:41.234Z</time>
      </trkpt>
      <trkpt lat="45.576" lon="4.77815">
        <ele>260</ele>
        <time>2018-08-15T06:15:42.261Z</time>
      </trkpt>
      <trkpt lat="45.576" lon="4.77815">
        <ele>260</ele>
        <time>2018-08-15T06:15:43.271Z</time>
      </trkpt>
      <trkpt lat="45.57597" lon="4.77828">
        <ele>259</ele>
        <time>2018-08-15T06:15:44.257Z</time>
      </trkpt>
      <trkpt lat="45.57597" lon="4.77828">
        <ele>259</ele>
        <time>2018-08-15T06:15:45.262Z</time>
      </trkpt>
      <trkpt lat="45.57593" lon="4.77842">
        <ele>259</ele>
        <time>2018-08-15T06:15:46.244Z</time>
      </trkpt>
      <trkpt lat="45.57593" lon="4.77842">
        <ele>259</ele>
        <time>2018-08-15T06:15:47.253Z</time>
      </trkpt>
      <trkpt lat="45.5759" lon="4.77859">
        <ele>258</ele>
        <time>2018-08-15T06:15:48.271Z</time>
      </trkpt>
      <trkpt lat="45.5759" lon="4.77859">
        <ele>258</ele>
        <time>2018-08-15T06:15:49.236Z</time>
      </trkpt>
      <trkpt lat="45.57588" lon="4.77877">
        <ele>257</ele>
        <time>2018-08-15T06:15:50.233Z</time>
      </trkpt>
      <trkpt lat="45.57588" lon="4.77877">
        <ele>257</ele>
        <time>2018-08-15T06:15:51.238Z</time>
      </trkpt>
      <trkpt lat="45.57585" lon="4.77896">
        <ele>256</ele>
        <time>2018-08-15T06:15:52.265Z</time>
      </trkpt>
      <trkpt lat="45.57585" lon="4.77896">
        <ele>256</ele>
        <time>2018-08-15T06:15:53.235Z</time>
      </trkpt>
      <trkpt lat="45.57582" lon="4.77917">
        <ele>255</ele>
        <time>2018-08-15T06:15:54.259Z</time>
      </trkpt>
      <trkpt lat="45.57582" lon="4.77917">
        <ele>255</ele>
        <time>2018-08-15T06:15:55.264Z</time>
      </trkpt>
      <trkpt lat="45.57579" lon="4.77937">
        <ele>255</ele>
        <time>2018-08-15T06:15:56.244Z</time>
      </trkpt>
      <trkpt lat="45.57579" lon="4.77937">
        <ele>255</ele>
        <time>2018-08-15T06:15:57.249Z</time>
      </trkpt>
      <trkpt lat="45.57575" lon="4.77957">
        <ele>254</ele>
        <time>2018-08-15T06:15:58.241Z</time>
      </trkpt>
      <trkpt lat="45.57573" lon="4.77967">
        <ele>254</ele>
        <time>2018-08-15T06:15:59.260Z</time>
      </trkpt>
      <trkpt lat="45.57573" lon="4.77967">
        <ele>254</ele>
        <time>2018-08-15T06:16:00.266Z</time>
      </trkpt>
      <trkpt lat="45.57568" lon="4.77985">
        <ele>254</ele>
        <time>2018-08-15T06:16:01.241Z</time>
      </trkpt>
      <trkpt lat="45.57568" lon="4.77985">
        <ele>254</ele>
        <time>2018-08-15T06:16:02.239Z</time>
      </trkpt>
      <trkpt lat="45.57563" lon="4.78">
        <ele>254</ele>
        <time>2018-08-15T06:16:03.234Z</time>
      </trkpt>
      <trkpt lat="45.57563" lon="4.78">
        <ele>254</ele>
        <time>2018-08-15T06:16:04.239Z</time>
      </trkpt>
      <trkpt lat="45.57558" lon="4.78012">
        <ele>254</ele>
        <time>2018-08-15T06:16:05.261Z</time>
      </trkpt>
      <trkpt lat="45.57558" lon="4.78012">
        <ele>254</ele>
        <time>2018-08-15T06:16:06.266Z</time>
      </trkpt>
      <trkpt lat="45.57552" lon="4.78021">
        <ele>255</ele>
        <time>2018-08-15T06:16:07.255Z</time>
      </trkpt>
      <trkpt lat="45.5755" lon="4.78025">
        <ele>255</ele>
        <time>2018-08-15T06:16:08.239Z</time>
      </trkpt>
      <trkpt lat="45.5755" lon="4.78025">
        <ele>255</ele>
        <time>2018-08-15T06:16:09.244Z</time>
      </trkpt>
      <trkpt lat="45.57546" lon="4.78032">
        <ele>255</ele>
        <time>2018-08-15T06:16:10.244Z</time>
      </trkpt>
      <trkpt lat="45.57546" lon="4.78032">
        <ele>255</ele>
        <time>2018-08-15T06:16:11.254Z</time>
      </trkpt>
      <trkpt lat="45.57542" lon="4.78038">
        <ele>255</ele>
        <time>2018-08-15T06:16:12.238Z</time>
      </trkpt>
      <trkpt lat="45.57542" lon="4.78038">
        <ele>255</ele>
        <time>2018-08-15T06:16:13.243Z</time>
      </trkpt>
      <trkpt lat="45.57538" lon="4.78043">
        <ele>256</ele>
        <time>2018-08-15T06:16:14.242Z</time>
      </trkpt>
      <trkpt lat="45.57538" lon="4.78043">
        <ele>256</ele>
        <time>2018-08-15T06:16:15.253Z</time>
      </trkpt>
      <trkpt lat="45.57533" lon="4.78049">
        <ele>256</ele>
        <time>2018-08-15T06:16:16.244Z</time>
      </trkpt>
      <trkpt lat="45.57533" lon="4.78049">
        <ele>256</ele>
        <time>2018-08-15T06:16:17.255Z</time>
      </trkpt>
      <trkpt lat="45.57529" lon="4.78055">
        <ele>256</ele>
        <time>2018-08-15T06:16:18.243Z</time>
      </trkpt>
      <trkpt lat="45.57529" lon="4.78055">
        <ele>256</ele>
        <time>2018-08-15T06:16:19.261Z</time>
      </trkpt>
      <trkpt lat="45.57525" lon="4.7806">
        <ele>257</ele>
        <time>2018-08-15T06:16:20.267Z</time>
      </trkpt>
      <trkpt lat="45.57525" lon="4.7806">
        <ele>257</ele>
        <time>2018-08-15T06:16:21.232Z</time>
      </trkpt>
      <trkpt lat="45.57521" lon="4.78066">
        <ele>257</ele>
        <time>2018-08-15T06:16:22.264Z</time>
      </trkpt>
      <trkpt lat="45.57521" lon="4.78066">
        <ele>257</ele>
        <time>2018-08-15T06:16:23.269Z</time>
      </trkpt>
      <trkpt lat="45.57517" lon="4.78071">
        <ele>257</ele>
        <time>2018-08-15T06:16:24.254Z</time>
      </trkpt>
      <trkpt lat="45.57517" lon="4.78071">
        <ele>257</ele>
        <time>2018-08-15T06:16:25.259Z</time>
      </trkpt>
      <trkpt lat="45.57513" lon="4.78076">
        <ele>258</ele>
        <time>2018-08-15T06:16:26.243Z</time>
      </trkpt>
      <trkpt lat="45.57513" lon="4.78076">
        <ele>258</ele>
        <time>2018-08-15T06:16:27.254Z</time>
      </trkpt>
      <trkpt lat="45.5751" lon="4.78081">
        <ele>258</ele>
        <time>2018-08-15T06:16:28.249Z</time>
      </trkpt>
      <trkpt lat="45.5751" lon="4.78081">
        <ele>258</ele>
        <time>2018-08-15T06:16:29.256Z</time>
      </trkpt>
      <trkpt lat="45.57506" lon="4.78086">
        <ele>259</ele>
        <time>2018-08-15T06:16:30.233Z</time>
      </trkpt>
      <trkpt lat="45.57505" lon="4.78089">
        <ele>259</ele>
        <time>2018-08-15T06:16:31.263Z</time>
      </trkpt>
      <trkpt lat="45.57503" lon="4.78091">
        <ele>260</ele>
        <time>2018-08-15T06:16:32.246Z</time>
      </trkpt>
      <trkpt lat="45.57503" lon="4.78091">
        <ele>260</ele>
        <time>2018-08-15T06:16:33.254Z</time>
      </trkpt>
      <trkpt lat="45.57499" lon="4.78095">
        <ele>260</ele>
        <time>2018-08-15T06:16:34.262Z</time>
      </trkpt>
      <trkpt lat="45.57497" lon="4.78098">
        <ele>260</ele>
        <time>2018-08-15T06:16:35.269Z</time>
      </trkpt>
      <trkpt lat="45.57497" lon="4.78098">
        <ele>260</ele>
        <time>2018-08-15T06:16:36.245Z</time>
      </trkpt>
      <trkpt lat="45.57493" lon="4.78101">
        <ele>260</ele>
        <time>2018-08-15T06:16:37.234Z</time>
      </trkpt>
      <trkpt lat="45.57491" lon="4.78103">
        <ele>260</ele>
        <time>2018-08-15T06:16:38.251Z</time>
      </trkpt>
      <trkpt lat="45.57491" lon="4.78103">
        <ele>260</ele>
        <time>2018-08-15T06:16:39.258Z</time>
      </trkpt>
      <trkpt lat="45.57488" lon="4.78108">
        <ele>261</ele>
        <time>2018-08-15T06:16:40.236Z</time>
      </trkpt>
      <trkpt lat="45.57488" lon="4.78108">
        <ele>261</ele>
        <time>2018-08-15T06:16:41.242Z</time>
      </trkpt>
      <trkpt lat="45.57484" lon="4.78113">
        <ele>261</ele>
        <time>2018-08-15T06:16:42.235Z</time>
      </trkpt>
      <trkpt lat="45.57484" lon="4.78113">
        <ele>261</ele>
        <time>2018-08-15T06:16:43.240Z</time>
      </trkpt>
      <trkpt lat="45.57481" lon="4.78117">
        <ele>261</ele>
        <time>2018-08-15T06:16:44.270Z</time>
      </trkpt>
      <trkpt lat="45.57481" lon="4.78117">
        <ele>261</ele>
        <time>2018-08-15T06:16:45.235Z</time>
      </trkpt>
      <trkpt lat="45.57477" lon="4.78121">
        <ele>262</ele>
        <time>2018-08-15T06:16:46.254Z</time>
      </trkpt>
      <trkpt lat="45.57477" lon="4.78121">
        <ele>262</ele>
        <time>2018-08-15T06:16:47.260Z</time>
      </trkpt>
      <trkpt lat="45.57473" lon="4.78125">
        <ele>262</ele>
        <time>2018-08-15T06:16:48.265Z</time>
      </trkpt>
      <trkpt lat="45.57473" lon="4.78125">
        <ele>262</ele>
        <time>2018-08-15T06:16:49.271Z</time>
      </trkpt>
      <trkpt lat="45.5747" lon="4.78129">
        <ele>263</ele>
        <time>2018-08-15T06:16:50.261Z</time>
      </trkpt>
      <trkpt lat="45.5747" lon="4.78129">
        <ele>263</ele>
        <time>2018-08-15T06:16:51.267Z</time>
      </trkpt>
      <trkpt lat="45.57466" lon="4.78133">
        <ele>263</ele>
        <time>2018-08-15T06:16:52.244Z</time>
      </trkpt>
      <trkpt lat="45.57466" lon="4.78133">
        <ele>263</ele>
        <time>2018-08-15T06:16:53.251Z</time>
      </trkpt>
      <trkpt lat="45.57461" lon="4.78136">
        <ele>264</ele>
        <time>2018-08-15T06:16:54.267Z</time>
      </trkpt>
      <trkpt lat="45.57461" lon="4.78136">
        <ele>264</ele>
        <time>2018-08-15T06:16:55.233Z</time>
      </trkpt>
      <trkpt lat="45.57457" lon="4.78139">
        <ele>264</ele>
        <time>2018-08-15T06:16:56.264Z</time>
      </trkpt>
      <trkpt lat="45.57457" lon="4.78139">
        <ele>264</ele>
        <time>2018-08-15T06:16:57.269Z</time>
      </trkpt>
      <trkpt lat="45.57453" lon="4.78142">
        <ele>265</ele>
        <time>2018-08-15T06:16:58.264Z</time>
      </trkpt>
      <trkpt lat="45.57453" lon="4.78142">
        <ele>265</ele>
        <time>2018-08-15T06:16:59.270Z</time>
      </trkpt>
      <trkpt lat="45.57449" lon="4.78145">
        <ele>265</ele>
        <time>2018-08-15T06:17:00.237Z</time>
      </trkpt>
      <trkpt lat="45.57446" lon="4.78147">
        <ele>265</ele>
        <time>2018-08-15T06:17:01.267Z</time>
      </trkpt>
      <trkpt lat="45.57446" lon="4.78147">
        <ele>265</ele>
        <time>2018-08-15T06:17:02.232Z</time>
      </trkpt>
      <trkpt lat="45.57442" lon="4.78149">
        <ele>266</ele>
        <time>2018-08-15T06:17:03.255Z</time>
      </trkpt>
      <trkpt lat="45.57442" lon="4.78149">
        <ele>266</ele>
        <time>2018-08-15T06:17:04.262Z</time>
      </trkpt>
      <trkpt lat="45.57437" lon="4.78152">
        <ele>266</ele>
        <time>2018-08-15T06:17:05.248Z</time>
      </trkpt>
      <trkpt lat="45.57437" lon="4.78152">
        <ele>266</ele>
        <time>2018-08-15T06:17:06.256Z</time>
      </trkpt>
      <trkpt lat="45.57433" lon="4.78155">
        <ele>266</ele>
        <time>2018-08-15T06:17:07.238Z</time>
      </trkpt>
      <trkpt lat="45.57431" lon="4.78156">
        <ele>266</ele>
        <time>2018-08-15T06:17:08.269Z</time>
      </trkpt>
      <trkpt lat="45.57431" lon="4.78156">
        <ele>266</ele>
        <time>2018-08-15T06:17:09.234Z</time>
      </trkpt>
      <trkpt lat="45.57427" lon="4.7816">
        <ele>267</ele>
        <time>2018-08-15T06:17:10.260Z</time>
      </trkpt>
      <trkpt lat="45.57425" lon="4.78162">
        <ele>267</ele>
        <time>2018-08-15T06:17:11.249Z</time>
      </trkpt>
      <trkpt lat="45.57425" lon="4.78162">
        <ele>267</ele>
        <time>2018-08-15T06:17:12.256Z</time>
      </trkpt>
      <trkpt lat="45.57421" lon="4.78165">
        <ele>268</ele>
        <time>2018-08-15T06:17:13.240Z</time>
      </trkpt>
      <trkpt lat="45.57419" lon="4.78167">
        <ele>268</ele>
        <time>2018-08-15T06:17:14.253Z</time>
      </trkpt>
      <trkpt lat="45.57419" lon="4.78167">
        <ele>268</ele>
        <time>2018-08-15T06:17:15.258Z</time>
      </trkpt>
      <trkpt lat="45.57415" lon="4.7817">
        <ele>268</ele>
        <time>2018-08-15T06:17:16.251Z</time>
      </trkpt>
      <trkpt lat="45.57415" lon="4.7817">
        <ele>268</ele>
        <time>2018-08-15T06:17:17.258Z</time>
      </trkpt>
      <trkpt lat="45.57411" lon="4.78173">
        <ele>268</ele>
        <time>2018-08-15T06:17:18.252Z</time>
      </trkpt>
      <trkpt lat="45.57411" lon="4.78173">
        <ele>268</ele>
        <time>2018-08-15T06:17:19.259Z</time>
      </trkpt>
      <trkpt lat="45.57406" lon="4.78176">
        <ele>269</ele>
        <time>2018-08-15T06:17:20.242Z</time>
      </trkpt>
      <trkpt lat="45.57406" lon="4.78176">
        <ele>269</ele>
        <time>2018-08-15T06:17:21.255Z</time>
      </trkpt>
      <trkpt lat="45.57402" lon="4.78178">
        <ele>269</ele>
        <time>2018-08-15T06:17:22.239Z</time>
      </trkpt>
      <trkpt lat="45.57402" lon="4.78178">
        <ele>269</ele>
        <time>2018-08-15T06:17:23.245Z</time>
      </trkpt>
      <trkpt lat="45.57399" lon="4.78181">
        <ele>269</ele>
        <time>2018-08-15T06:17:24.272Z</time>
      </trkpt>
      <trkpt lat="45.57397" lon="4.78183">
        <ele>270</ele>
        <time>2018-08-15T06:17:25.252Z</time>
      </trkpt>
      <trkpt lat="45.57395" lon="4.78184">
        <ele>269</ele>
        <time>2018-08-15T06:17:26.269Z</time>
      </trkpt>
      <trkpt lat="45.57395" lon="4.78184">
        <ele>269</ele>
        <time>2018-08-15T06:17:27.234Z</time>
      </trkpt>
      <trkpt lat="45.57391" lon="4.78186">
        <ele>270</ele>
        <time>2018-08-15T06:17:28.259Z</time>
      </trkpt>
      <trkpt lat="45.57391" lon="4.78186">
        <ele>270</ele>
        <time>2018-08-15T06:17:29.265Z</time>
      </trkpt>
      <trkpt lat="45.57387" lon="4.78189">
        <ele>269</ele>
        <time>2018-08-15T06:17:30.250Z</time>
      </trkpt>
      <trkpt lat="45.57387" lon="4.78189">
        <ele>269</ele>
        <time>2018-08-15T06:17:31.255Z</time>
      </trkpt>
      <trkpt lat="45.57383" lon="4.78192">
        <ele>269</ele>
        <time>2018-08-15T06:17:32.236Z</time>
      </trkpt>
      <trkpt lat="45.57383" lon="4.78192">
        <ele>269</ele>
        <time>2018-08-15T06:17:33.241Z</time>
      </trkpt>
      <trkpt lat="45.5738" lon="4.78197">
        <ele>269</ele>
        <time>2018-08-15T06:17:34.249Z</time>
      </trkpt>
      <trkpt lat="45.57378" lon="4.78199">
        <ele>270</ele>
        <time>2018-08-15T06:17:35.247Z</time>
      </trkpt>
      <trkpt lat="45.57378" lon="4.78199">
        <ele>270</ele>
        <time>2018-08-15T06:17:36.259Z</time>
      </trkpt>
      <trkpt lat="45.57374" lon="4.78201">
        <ele>270</ele>
        <time>2018-08-15T06:17:37.244Z</time>
      </trkpt>
      <trkpt lat="45.57372" lon="4.78202">
        <ele>270</ele>
        <time>2018-08-15T06:17:38.233Z</time>
      </trkpt>
      <trkpt lat="45.57372" lon="4.78202">
        <ele>270</ele>
        <time>2018-08-15T06:17:39.238Z</time>
      </trkpt>
      <trkpt lat="45.57367" lon="4.78206">
        <ele>270</ele>
        <time>2018-08-15T06:17:40.269Z</time>
      </trkpt>
      <trkpt lat="45.57366" lon="4.78208">
        <ele>270</ele>
        <time>2018-08-15T06:17:41.253Z</time>
      </trkpt>
      <trkpt lat="45.57366" lon="4.78208">
        <ele>270</ele>
        <time>2018-08-15T06:17:42.258Z</time>
      </trkpt>
      <trkpt lat="45.57362" lon="4.78211">
        <ele>271</ele>
        <time>2018-08-15T06:17:43.243Z</time>
      </trkpt>
      <trkpt lat="45.5736" lon="4.78213">
        <ele>271</ele>
        <time>2018-08-15T06:17:44.242Z</time>
      </trkpt>
      <trkpt lat="45.5736" lon="4.78213">
        <ele>271</ele>
        <time>2018-08-15T06:17:45.253Z</time>
      </trkpt>
      <trkpt lat="45.57356" lon="4.78216">
        <ele>270</ele>
        <time>2018-08-15T06:17:46.250Z</time>
      </trkpt>
      <trkpt lat="45.57356" lon="4.78216">
        <ele>270</ele>
        <time>2018-08-15T06:17:47.255Z</time>
      </trkpt>
      <trkpt lat="45.57353" lon="4.7822">
        <ele>271</ele>
        <time>2018-08-15T06:17:48.246Z</time>
      </trkpt>
      <trkpt lat="45.57353" lon="4.7822">
        <ele>271</ele>
        <time>2018-08-15T06:17:49.253Z</time>
      </trkpt>
      <trkpt lat="45.57349" lon="4.78223">
        <ele>271</ele>
        <time>2018-08-15T06:17:50.232Z</time>
      </trkpt>
      <trkpt lat="45.57349" lon="4.78223">
        <ele>271</ele>
        <time>2018-08-15T06:17:51.237Z</time>
      </trkpt>
      <trkpt lat="45.57345" lon="4.78226">
        <ele>272</ele>
        <time>2018-08-15T06:17:52.258Z</time>
      </trkpt>
      <trkpt lat="45.57343" lon="4.78227">
        <ele>272</ele>
        <time>2018-08-15T06:17:53.240Z</time>
      </trkpt>
      <trkpt lat="45.57343" lon="4.78227">
        <ele>272</ele>
        <time>2018-08-15T06:17:54.255Z</time>
      </trkpt>
      <trkpt lat="45.57339" lon="4.7823">
        <ele>272</ele>
        <time>2018-08-15T06:17:55.239Z</time>
      </trkpt>
      <trkpt lat="45.57339" lon="4.7823">
        <ele>272</ele>
        <time>2018-08-15T06:17:56.248Z</time>
      </trkpt>
      <trkpt lat="45.57335" lon="4.78234">
        <ele>273</ele>
        <time>2018-08-15T06:17:57.241Z</time>
      </trkpt>
      <trkpt lat="45.57335" lon="4.78234">
        <ele>273</ele>
        <time>2018-08-15T06:17:58.256Z</time>
      </trkpt>
      <trkpt lat="45.57332" lon="4.78237">
        <ele>273</ele>
        <time>2018-08-15T06:17:59.238Z</time>
      </trkpt>
      <trkpt lat="45.57332" lon="4.78237">
        <ele>273</ele>
        <time>2018-08-15T06:18:00.243Z</time>
      </trkpt>
      <trkpt lat="45.57328" lon="4.7824">
        <ele>273</ele>
        <time>2018-08-15T06:18:01.243Z</time>
      </trkpt>
      <trkpt lat="45.57326" lon="4.78242">
        <ele>274</ele>
        <time>2018-08-15T06:18:02.268Z</time>
      </trkpt>
      <trkpt lat="45.57326" lon="4.78242">
        <ele>274</ele>
        <time>2018-08-15T06:18:03.234Z</time>
      </trkpt>
      <trkpt lat="45.57322" lon="4.78245">
        <ele>274</ele>
        <time>2018-08-15T06:18:04.259Z</time>
      </trkpt>
      <trkpt lat="45.5732" lon="4.78246">
        <ele>274</ele>
        <time>2018-08-15T06:18:05.264Z</time>
      </trkpt>
      <trkpt lat="45.5732" lon="4.78246">
        <ele>274</ele>
        <time>2018-08-15T06:18:06.269Z</time>
      </trkpt>
      <trkpt lat="45.57316" lon="4.78249">
        <ele>274</ele>
        <time>2018-08-15T06:18:07.255Z</time>
      </trkpt>
      <trkpt lat="45.57314" lon="4.78251">
        <ele>275</ele>
        <time>2018-08-15T06:18:08.252Z</time>
      </trkpt>
      <trkpt lat="45.57314" lon="4.78251">
        <ele>275</ele>
        <time>2018-08-15T06:18:09.257Z</time>
      </trkpt>
      <trkpt lat="45.57309" lon="4.78254">
        <ele>275</ele>
        <time>2018-08-15T06:18:10.234Z</time>
      </trkpt>
      <trkpt lat="45.57307" lon="4.78256">
        <ele>275</ele>
        <time>2018-08-15T06:18:11.265Z</time>
      </trkpt>
      <trkpt lat="45.57307" lon="4.78256">
        <ele>275</ele>
        <time>2018-08-15T06:18:12.271Z</time>
      </trkpt>
      <trkpt lat="45.57304" lon="4.7826">
        <ele>275</ele>
        <time>2018-08-15T06:18:13.267Z</time>
      </trkpt>
      <trkpt lat="45.57301" lon="4.78262">
        <ele>276</ele>
        <time>2018-08-15T06:18:14.256Z</time>
      </trkpt>
      <trkpt lat="45.57301" lon="4.78262">
        <ele>276</ele>
        <time>2018-08-15T06:18:15.261Z</time>
      </trkpt>
      <trkpt lat="45.57298" lon="4.78265">
        <ele>276</ele>
        <time>2018-08-15T06:18:16.244Z</time>
      </trkpt>
      <trkpt lat="45.57298" lon="4.78265">
        <ele>276</ele>
        <time>2018-08-15T06:18:17.249Z</time>
      </trkpt>
      <trkpt lat="45.57294" lon="4.78268">
        <ele>276</ele>
        <time>2018-08-15T06:18:18.240Z</time>
      </trkpt>
      <trkpt lat="45.57294" lon="4.78268">
        <ele>276</ele>
        <time>2018-08-15T06:18:19.245Z</time>
      </trkpt>
      <trkpt lat="45.5729" lon="4.78271">
        <ele>276</ele>
        <time>2018-08-15T06:18:20.239Z</time>
      </trkpt>
      <trkpt lat="45.5729" lon="4.78271">
        <ele>276</ele>
        <time>2018-08-15T06:18:21.244Z</time>
      </trkpt>
      <trkpt lat="45.57286" lon="4.78274">
        <ele>276</ele>
        <time>2018-08-15T06:18:22.272Z</time>
      </trkpt>
      <trkpt lat="45.57286" lon="4.78274">
        <ele>276</ele>
        <time>2018-08-15T06:18:23.237Z</time>
      </trkpt>
      <trkpt lat="45.57282" lon="4.78278">
        <ele>277</ele>
        <time>2018-08-15T06:18:24.237Z</time>
      </trkpt>
      <trkpt lat="45.57282" lon="4.78278">
        <ele>277</ele>
        <time>2018-08-15T06:18:25.242Z</time>
      </trkpt>
      <trkpt lat="45.57278" lon="4.78281">
        <ele>277</ele>
        <time>2018-08-15T06:18:26.259Z</time>
      </trkpt>
      <trkpt lat="45.57278" lon="4.78281">
        <ele>277</ele>
        <time>2018-08-15T06:18:27.264Z</time>
      </trkpt>
      <trkpt lat="45.57274" lon="4.78283">
        <ele>278</ele>
        <time>2018-08-15T06:18:28.247Z</time>
      </trkpt>
      <trkpt lat="45.57274" lon="4.78283">
        <ele>278</ele>
        <time>2018-08-15T06:18:29.252Z</time>
      </trkpt>
      <trkpt lat="45.57271" lon="4.78286">
        <ele>278</ele>
        <time>2018-08-15T06:18:30.241Z</time>
      </trkpt>
      <trkpt lat="45.57271" lon="4.78286">
        <ele>278</ele>
        <time>2018-08-15T06:18:31.246Z</time>
      </trkpt>
      <trkpt lat="45.57268" lon="4.78289">
        <ele>278</ele>
        <time>2018-08-15T06:18:32.270Z</time>
      </trkpt>
      <trkpt lat="45.57268" lon="4.78289">
        <ele>278</ele>
        <time>2018-08-15T06:18:33.236Z</time>
      </trkpt>
      <trkpt lat="45.57264" lon="4.78291">
        <ele>279</ele>
        <time>2018-08-15T06:18:34.260Z</time>
      </trkpt>
      <trkpt lat="45.57264" lon="4.78291">
        <ele>279</ele>
        <time>2018-08-15T06:18:35.268Z</time>
      </trkpt>
      <trkpt lat="45.57261" lon="4.78293">
        <ele>280</ele>
        <time>2018-08-15T06:18:36.246Z</time>
      </trkpt>
      <trkpt lat="45.57261" lon="4.78293">
        <ele>280</ele>
        <time>2018-08-15T06:18:37.254Z</time>
      </trkpt>
      <trkpt lat="45.57256" lon="4.78294">
        <ele>280</ele>
        <time>2018-08-15T06:18:38.239Z</time>
      </trkpt>
      <trkpt lat="45.57256" lon="4.78294">
        <ele>280</ele>
        <time>2018-08-15T06:18:39.245Z</time>
      </trkpt>
      <trkpt lat="45.57253" lon="4.78297">
        <ele>281</ele>
        <time>2018-08-15T06:18:40.235Z</time>
      </trkpt>
      <trkpt lat="45.57253" lon="4.78297">
        <ele>281</ele>
        <time>2018-08-15T06:18:41.240Z</time>
      </trkpt>
      <trkpt lat="45.57249" lon="4.783">
        <ele>281</ele>
        <time>2018-08-15T06:18:42.263Z</time>
      </trkpt>
      <trkpt lat="45.57249" lon="4.783">
        <ele>281</ele>
        <time>2018-08-15T06:18:43.269Z</time>
      </trkpt>
      <trkpt lat="45.57246" lon="4.78301">
        <ele>282</ele>
        <time>2018-08-15T06:18:44.257Z</time>
      </trkpt>
      <trkpt lat="45.57246" lon="4.78301">
        <ele>282</ele>
        <time>2018-08-15T06:18:45.263Z</time>
      </trkpt>
      <trkpt lat="45.57242" lon="4.78303">
        <ele>282</ele>
        <time>2018-08-15T06:18:46.269Z</time>
      </trkpt>
      <trkpt lat="45.57242" lon="4.78303">
        <ele>282</ele>
        <time>2018-08-15T06:18:47.234Z</time>
      </trkpt>
      <trkpt lat="45.57238" lon="4.78305">
        <ele>283</ele>
        <time>2018-08-15T06:18:48.267Z</time>
      </trkpt>
      <trkpt lat="45.57238" lon="4.78305">
        <ele>283</ele>
        <time>2018-08-15T06:18:49.232Z</time>
      </trkpt>
      <trkpt lat="45.57234" lon="4.78306">
        <ele>284</ele>
        <time>2018-08-15T06:18:50.254Z</time>
      </trkpt>
      <trkpt lat="45.57234" lon="4.78306">
        <ele>284</ele>
        <time>2018-08-15T06:18:51.259Z</time>
      </trkpt>
      <trkpt lat="45.5723" lon="4.78307">
        <ele>284</ele>
        <time>2018-08-15T06:18:52.253Z</time>
      </trkpt>
      <trkpt lat="45.5723" lon="4.78307">
        <ele>284</ele>
        <time>2018-08-15T06:18:53.265Z</time>
      </trkpt>
      <trkpt lat="45.57226" lon="4.78309">
        <ele>285</ele>
        <time>2018-08-15T06:18:54.261Z</time>
      </trkpt>
      <trkpt lat="45.57226" lon="4.78309">
        <ele>285</ele>
        <time>2018-08-15T06:18:55.266Z</time>
      </trkpt>
      <trkpt lat="45.57222" lon="4.78312">
        <ele>285</ele>
        <time>2018-08-15T06:18:56.243Z</time>
      </trkpt>
      <trkpt lat="45.57222" lon="4.78312">
        <ele>285</ele>
        <time>2018-08-15T06:18:57.253Z</time>
      </trkpt>
      <trkpt lat="45.57218" lon="4.78313">
        <ele>286</ele>
        <time>2018-08-15T06:18:58.244Z</time>
      </trkpt>
      <trkpt lat="45.57218" lon="4.78313">
        <ele>286</ele>
        <time>2018-08-15T06:18:59.249Z</time>
      </trkpt>
      <trkpt lat="45.57215" lon="4.78314">
        <ele>286</ele>
        <time>2018-08-15T06:19:00.241Z</time>
      </trkpt>
      <trkpt lat="45.57215" lon="4.78314">
        <ele>286</ele>
        <time>2018-08-15T06:19:01.249Z</time>
      </trkpt>
      <trkpt lat="45.57211" lon="4.78316">
        <ele>287</ele>
        <time>2018-08-15T06:19:02.243Z</time>
      </trkpt>
      <trkpt lat="45.57211" lon="4.78316">
        <ele>287</ele>
        <time>2018-08-15T06:19:03.252Z</time>
      </trkpt>
      <trkpt lat="45.57207" lon="4.78318">
        <ele>287</ele>
        <time>2018-08-15T06:19:04.238Z</time>
      </trkpt>
      <trkpt lat="45.57207" lon="4.78318">
        <ele>287</ele>
        <time>2018-08-15T06:19:05.245Z</time>
      </trkpt>
      <trkpt lat="45.57203" lon="4.78319">
        <ele>287</ele>
        <time>2018-08-15T06:19:06.268Z</time>
      </trkpt>
      <trkpt lat="45.57203" lon="4.78319">
        <ele>287</ele>
        <time>2018-08-15T06:19:07.233Z</time>
      </trkpt>
      <trkpt lat="45.57197" lon="4.7832">
        <ele>286</ele>
        <time>2018-08-15T06:19:08.260Z</time>
      </trkpt>
      <trkpt lat="45.57197" lon="4.7832">
        <ele>286</ele>
        <time>2018-08-15T06:19:09.267Z</time>
      </trkpt>
      <trkpt lat="45.57192" lon="4.78322">
        <ele>286</ele>
        <time>2018-08-15T06:19:10.241Z</time>
      </trkpt>
      <trkpt lat="45.5719" lon="4.78322">
        <ele>286</ele>
        <time>2018-08-15T06:19:11.269Z</time>
      </trkpt>
      <trkpt lat="45.5719" lon="4.78322">
        <ele>286</ele>
        <time>2018-08-15T06:19:12.234Z</time>
      </trkpt>
      <trkpt lat="45.57186" lon="4.78324">
        <ele>287</ele>
        <time>2018-08-15T06:19:13.268Z</time>
      </trkpt>
      <trkpt lat="45.57184" lon="4.78324">
        <ele>287</ele>
        <time>2018-08-15T06:19:14.254Z</time>
      </trkpt>
      <trkpt lat="45.57184" lon="4.78324">
        <ele>287</ele>
        <time>2018-08-15T06:19:15.260Z</time>
      </trkpt>
      <trkpt lat="45.57181" lon="4.78325">
        <ele>287</ele>
        <time>2018-08-15T06:19:16.250Z</time>
      </trkpt>
      <trkpt lat="45.57181" lon="4.78325">
        <ele>287</ele>
        <time>2018-08-15T06:19:17.256Z</time>
      </trkpt>
      <trkpt lat="45.57177" lon="4.78327">
        <ele>287</ele>
        <time>2018-08-15T06:19:18.249Z</time>
      </trkpt>
      <trkpt lat="45.57177" lon="4.78327">
        <ele>287</ele>
        <time>2018-08-15T06:19:19.254Z</time>
      </trkpt>
      <trkpt lat="45.57172" lon="4.78328">
        <ele>287</ele>
        <time>2018-08-15T06:19:20.254Z</time>
      </trkpt>
      <trkpt lat="45.57172" lon="4.78328">
        <ele>287</ele>
        <time>2018-08-15T06:19:21.260Z</time>
      </trkpt>
      <trkpt lat="45.57168" lon="4.78328">
        <ele>288</ele>
        <time>2018-08-15T06:19:22.269Z</time>
      </trkpt>
      <trkpt lat="45.57168" lon="4.78328">
        <ele>288</ele>
        <time>2018-08-15T06:19:23.234Z</time>
      </trkpt>
      <trkpt lat="45.57164" lon="4.7833">
        <ele>288</ele>
        <time>2018-08-15T06:19:24.262Z</time>
      </trkpt>
      <trkpt lat="45.57164" lon="4.7833">
        <ele>288</ele>
        <time>2018-08-15T06:19:25.269Z</time>
      </trkpt>
      <trkpt lat="45.5716" lon="4.78332">
        <ele>289</ele>
        <time>2018-08-15T06:19:26.255Z</time>
      </trkpt>
      <trkpt lat="45.5716" lon="4.78332">
        <ele>289</ele>
        <time>2018-08-15T06:19:27.261Z</time>
      </trkpt>
      <trkpt lat="45.57156" lon="4.78334">
        <ele>289</ele>
        <time>2018-08-15T06:19:28.243Z</time>
      </trkpt>
      <trkpt lat="45.57154" lon="4.78334">
        <ele>289</ele>
        <time>2018-08-15T06:19:29.242Z</time>
      </trkpt>
      <trkpt lat="45.57154" lon="4.78334">
        <ele>289</ele>
        <time>2018-08-15T06:19:30.252Z</time>
      </trkpt>
      <trkpt lat="45.5715" lon="4.78336">
        <ele>290</ele>
        <time>2018-08-15T06:19:31.239Z</time>
      </trkpt>
      <trkpt lat="45.57148" lon="4.78336">
        <ele>290</ele>
        <time>2018-08-15T06:19:32.270Z</time>
      </trkpt>
      <trkpt lat="45.57148" lon="4.78336">
        <ele>290</ele>
        <time>2018-08-15T06:19:33.235Z</time>
      </trkpt>
      <trkpt lat="45.57143" lon="4.78338">
        <ele>291</ele>
        <time>2018-08-15T06:19:34.256Z</time>
      </trkpt>
      <trkpt lat="45.57143" lon="4.78338">
        <ele>291</ele>
        <time>2018-08-15T06:19:35.261Z</time>
      </trkpt>
      <trkpt lat="45.57139" lon="4.7834">
        <ele>291</ele>
        <time>2018-08-15T06:19:36.269Z</time>
      </trkpt>
      <trkpt lat="45.57139" lon="4.7834">
        <ele>291</ele>
        <time>2018-08-15T06:19:37.234Z</time>
      </trkpt>
      <trkpt lat="45.57135" lon="4.7834">
        <ele>291</ele>
        <time>2018-08-15T06:19:38.255Z</time>
      </trkpt>
      <trkpt lat="45.57135" lon="4.7834">
        <ele>291</ele>
        <time>2018-08-15T06:19:39.260Z</time>
      </trkpt>
      <trkpt lat="45.57131" lon="4.7834">
        <ele>292</ele>
        <time>2018-08-15T06:19:40.260Z</time>
      </trkpt>
      <trkpt lat="45.57131" lon="4.7834">
        <ele>292</ele>
        <time>2018-08-15T06:19:41.265Z</time>
      </trkpt>
      <trkpt lat="45.57127" lon="4.78341">
        <ele>292</ele>
        <time>2018-08-15T06:19:42.244Z</time>
      </trkpt>
      <trkpt lat="45.57125" lon="4.78341">
        <ele>293</ele>
        <time>2018-08-15T06:19:43.237Z</time>
      </trkpt>
      <trkpt lat="45.57124" lon="4.78341">
        <ele>293</ele>
        <time>2018-08-15T06:19:44.244Z</time>
      </trkpt>
      <trkpt lat="45.57124" lon="4.78341">
        <ele>293</ele>
        <time>2018-08-15T06:19:45.250Z</time>
      </trkpt>
      <trkpt lat="45.57119" lon="4.78341">
        <ele>293</ele>
        <time>2018-08-15T06:19:46.260Z</time>
      </trkpt>
      <trkpt lat="45.57119" lon="4.78341">
        <ele>293</ele>
        <time>2018-08-15T06:19:47.266Z</time>
      </trkpt>
      <trkpt lat="45.57115" lon="4.78342">
        <ele>292</ele>
        <time>2018-08-15T06:19:48.254Z</time>
      </trkpt>
      <trkpt lat="45.57115" lon="4.78342">
        <ele>292</ele>
        <time>2018-08-15T06:19:49.259Z</time>
      </trkpt>
      <trkpt lat="45.57111" lon="4.78342">
        <ele>292</ele>
        <time>2018-08-15T06:19:50.255Z</time>
      </trkpt>
      <trkpt lat="45.57111" lon="4.78342">
        <ele>292</ele>
        <time>2018-08-15T06:19:51.260Z</time>
      </trkpt>
      <trkpt lat="45.57107" lon="4.78341">
        <ele>292</ele>
        <time>2018-08-15T06:19:52.253Z</time>
      </trkpt>
      <trkpt lat="45.57107" lon="4.78341">
        <ele>292</ele>
        <time>2018-08-15T06:19:53.258Z</time>
      </trkpt>
      <trkpt lat="45.57103" lon="4.78341">
        <ele>291</ele>
        <time>2018-08-15T06:19:54.242Z</time>
      </trkpt>
      <trkpt lat="45.57103" lon="4.78341">
        <ele>291</ele>
        <time>2018-08-15T06:19:55.253Z</time>
      </trkpt>
      <trkpt lat="45.57098" lon="4.7834">
        <ele>291</ele>
        <time>2018-08-15T06:19:56.254Z</time>
      </trkpt>
      <trkpt lat="45.57098" lon="4.7834">
        <ele>291</ele>
        <time>2018-08-15T06:19:57.259Z</time>
      </trkpt>
      <trkpt lat="45.57094" lon="4.7834">
        <ele>291</ele>
        <time>2018-08-15T06:19:58.257Z</time>
      </trkpt>
      <trkpt lat="45.57094" lon="4.7834">
        <ele>291</ele>
        <time>2018-08-15T06:19:59.262Z</time>
      </trkpt>
      <trkpt lat="45.5709" lon="4.7834">
        <ele>291</ele>
        <time>2018-08-15T06:20:00.264Z</time>
      </trkpt>
      <trkpt lat="45.5709" lon="4.7834">
        <ele>291</ele>
        <time>2018-08-15T06:20:01.270Z</time>
      </trkpt>
      <trkpt lat="45.57085" lon="4.7834">
        <ele>291</ele>
        <time>2018-08-15T06:20:02.260Z</time>
      </trkpt>
      <trkpt lat="45.57085" lon="4.7834">
        <ele>291</ele>
        <time>2018-08-15T06:20:03.265Z</time>
      </trkpt>
      <trkpt lat="45.57081" lon="4.78339">
        <ele>291</ele>
        <time>2018-08-15T06:20:04.258Z</time>
      </trkpt>
      <trkpt lat="45.57081" lon="4.78339">
        <ele>291</ele>
        <time>2018-08-15T06:20:05.264Z</time>
      </trkpt>
      <trkpt lat="45.57077" lon="4.78339">
        <ele>291</ele>
        <time>2018-08-15T06:20:06.257Z</time>
      </trkpt>
      <trkpt lat="45.57077" lon="4.78339">
        <ele>291</ele>
        <time>2018-08-15T06:20:07.262Z</time>
      </trkpt>
      <trkpt lat="45.57073" lon="4.7834">
        <ele>292</ele>
        <time>2018-08-15T06:20:08.248Z</time>
      </trkpt>
      <trkpt lat="45.57073" lon="4.7834">
        <ele>292</ele>
        <time>2018-08-15T06:20:09.254Z</time>
      </trkpt>
      <trkpt lat="45.57069" lon="4.78341">
        <ele>292</ele>
        <time>2018-08-15T06:20:10.266Z</time>
      </trkpt>
      <trkpt lat="45.57069" lon="4.78341">
        <ele>292</ele>
        <time>2018-08-15T06:20:11.271Z</time>
      </trkpt>
      <trkpt lat="45.57064" lon="4.78343">
        <ele>292</ele>
        <time>2018-08-15T06:20:12.253Z</time>
      </trkpt>
      <trkpt lat="45.57064" lon="4.78343">
        <ele>292</ele>
        <time>2018-08-15T06:20:13.259Z</time>
      </trkpt>
      <trkpt lat="45.5706" lon="4.78346">
        <ele>292</ele>
        <time>2018-08-15T06:20:14.243Z</time>
      </trkpt>
      <trkpt lat="45.57058" lon="4.78347">
        <ele>293</ele>
        <time>2018-08-15T06:20:15.233Z</time>
      </trkpt>
      <trkpt lat="45.57058" lon="4.78347">
        <ele>293</ele>
        <time>2018-08-15T06:20:16.233Z</time>
      </trkpt>
      <trkpt lat="45.57054" lon="4.78349">
        <ele>293</ele>
        <time>2018-08-15T06:20:17.268Z</time>
      </trkpt>
      <trkpt lat="45.57054" lon="4.78349">
        <ele>293</ele>
        <time>2018-08-15T06:20:18.233Z</time>
      </trkpt>
      <trkpt lat="45.5705" lon="4.78352">
        <ele>293</ele>
        <time>2018-08-15T06:20:19.261Z</time>
      </trkpt>
      <trkpt lat="45.57048" lon="4.78354">
        <ele>293</ele>
        <time>2018-08-15T06:20:20.252Z</time>
      </trkpt>
      <trkpt lat="45.57048" lon="4.78354">
        <ele>293</ele>
        <time>2018-08-15T06:20:21.257Z</time>
      </trkpt>
      <trkpt lat="45.57044" lon="4.78358">
        <ele>293</ele>
        <time>2018-08-15T06:20:22.249Z</time>
      </trkpt>
      <trkpt lat="45.57042" lon="4.7836">
        <ele>293</ele>
        <time>2018-08-15T06:20:23.243Z</time>
      </trkpt>
      <trkpt lat="45.57042" lon="4.7836">
        <ele>293</ele>
        <time>2018-08-15T06:20:24.252Z</time>
      </trkpt>
      <trkpt lat="45.57039" lon="4.78364">
        <ele>294</ele>
        <time>2018-08-15T06:20:25.233Z</time>
      </trkpt>
      <trkpt lat="45.57037" lon="4.78365">
        <ele>294</ele>
        <time>2018-08-15T06:20:26.253Z</time>
      </trkpt>
      <trkpt lat="45.57037" lon="4.78365">
        <ele>294</ele>
        <time>2018-08-15T06:20:27.259Z</time>
      </trkpt>
      <trkpt lat="45.57033" lon="4.78368">
        <ele>295</ele>
        <time>2018-08-15T06:20:28.243Z</time>
      </trkpt>
      <trkpt lat="45.57033" lon="4.78368">
        <ele>295</ele>
        <time>2018-08-15T06:20:29.253Z</time>
      </trkpt>
      <trkpt lat="45.57029" lon="4.7837">
        <ele>295</ele>
        <time>2018-08-15T06:20:30.266Z</time>
      </trkpt>
      <trkpt lat="45.57029" lon="4.7837">
        <ele>295</ele>
        <time>2018-08-15T06:20:31.238Z</time>
      </trkpt>
      <trkpt lat="45.57025" lon="4.78372">
        <ele>295</ele>
        <time>2018-08-15T06:20:32.257Z</time>
      </trkpt>
      <trkpt lat="45.57025" lon="4.78372">
        <ele>295</ele>
        <time>2018-08-15T06:20:33.264Z</time>
      </trkpt>
      <trkpt lat="45.57021" lon="4.78372">
        <ele>296</ele>
        <time>2018-08-15T06:20:34.253Z</time>
      </trkpt>
      <trkpt lat="45.57021" lon="4.78372">
        <ele>296</ele>
        <time>2018-08-15T06:20:35.235Z</time>
      </trkpt>
      <trkpt lat="45.57017" lon="4.78373">
        <ele>296</ele>
        <time>2018-08-15T06:20:36.232Z</time>
      </trkpt>
      <trkpt lat="45.57017" lon="4.78373">
        <ele>296</ele>
        <time>2018-08-15T06:20:37.238Z</time>
      </trkpt>
      <trkpt lat="45.57013" lon="4.78374">
        <ele>296</ele>
        <time>2018-08-15T06:20:38.265Z</time>
      </trkpt>
      <trkpt lat="45.57013" lon="4.78374">
        <ele>296</ele>
        <time>2018-08-15T06:20:39.232Z</time>
      </trkpt>
      <trkpt lat="45.57009" lon="4.78374">
        <ele>296</ele>
        <time>2018-08-15T06:20:40.252Z</time>
      </trkpt>
      <trkpt lat="45.57007" lon="4.78374">
        <ele>296</ele>
        <time>2018-08-15T06:20:41.233Z</time>
      </trkpt>
      <trkpt lat="45.57007" lon="4.78374">
        <ele>296</ele>
        <time>2018-08-15T06:20:42.238Z</time>
      </trkpt>
      <trkpt lat="45.57003" lon="4.78374">
        <ele>296</ele>
        <time>2018-08-15T06:20:43.268Z</time>
      </trkpt>
      <trkpt lat="45.57001" lon="4.78374">
        <ele>296</ele>
        <time>2018-08-15T06:20:44.254Z</time>
      </trkpt>
      <trkpt lat="45.57001" lon="4.78374">
        <ele>296</ele>
        <time>2018-08-15T06:20:45.259Z</time>
      </trkpt>
      <trkpt lat="45.56996" lon="4.78374">
        <ele>296</ele>
        <time>2018-08-15T06:20:46.254Z</time>
      </trkpt>
      <trkpt lat="45.56994" lon="4.78374">
        <ele>296</ele>
        <time>2018-08-15T06:20:47.241Z</time>
      </trkpt>
      <trkpt lat="45.56994" lon="4.78374">
        <ele>296</ele>
        <time>2018-08-15T06:20:48.248Z</time>
      </trkpt>
      <trkpt lat="45.5699" lon="4.78374">
        <ele>296</ele>
        <time>2018-08-15T06:20:49.259Z</time>
      </trkpt>
      <trkpt lat="45.56988" lon="4.78373">
        <ele>297</ele>
        <time>2018-08-15T06:20:50.250Z</time>
      </trkpt>
      <trkpt lat="45.56988" lon="4.78373">
        <ele>297</ele>
        <time>2018-08-15T06:20:51.256Z</time>
      </trkpt>
      <trkpt lat="45.56984" lon="4.78373">
        <ele>297</ele>
        <time>2018-08-15T06:20:52.254Z</time>
      </trkpt>
      <trkpt lat="45.56984" lon="4.78373">
        <ele>297</ele>
        <time>2018-08-15T06:20:53.260Z</time>
      </trkpt>
      <trkpt lat="45.5698" lon="4.78373">
        <ele>297</ele>
        <time>2018-08-15T06:20:54.252Z</time>
      </trkpt>
      <trkpt lat="45.56978" lon="4.78373">
        <ele>297</ele>
        <time>2018-08-15T06:20:55.247Z</time>
      </trkpt>
      <trkpt lat="45.56976" lon="4.78373">
        <ele>298</ele>
        <time>2018-08-15T06:20:56.234Z</time>
      </trkpt>
      <trkpt lat="45.56976" lon="4.78373">
        <ele>298</ele>
        <time>2018-08-15T06:20:57.239Z</time>
      </trkpt>
      <trkpt lat="45.56972" lon="4.78373">
        <ele>298</ele>
        <time>2018-08-15T06:20:58.254Z</time>
      </trkpt>
      <trkpt lat="45.56972" lon="4.78373">
        <ele>298</ele>
        <time>2018-08-15T06:20:59.260Z</time>
      </trkpt>
      <trkpt lat="45.56967" lon="4.78372">
        <ele>298</ele>
        <time>2018-08-15T06:21:00.244Z</time>
      </trkpt>
      <trkpt lat="45.56967" lon="4.78372">
        <ele>298</ele>
        <time>2018-08-15T06:21:01.249Z</time>
      </trkpt>
      <trkpt lat="45.56963" lon="4.78371">
        <ele>298</ele>
        <time>2018-08-15T06:21:02.250Z</time>
      </trkpt>
      <trkpt lat="45.56963" lon="4.78371">
        <ele>298</ele>
        <time>2018-08-15T06:21:03.256Z</time>
      </trkpt>
      <trkpt lat="45.56959" lon="4.78371">
        <ele>299</ele>
        <time>2018-08-15T06:21:04.236Z</time>
      </trkpt>
      <trkpt lat="45.56959" lon="4.78371">
        <ele>299</ele>
        <time>2018-08-15T06:21:05.241Z</time>
      </trkpt>
      <trkpt lat="45.56955" lon="4.78371">
        <ele>299</ele>
        <time>2018-08-15T06:21:06.271Z</time>
      </trkpt>
      <trkpt lat="45.56955" lon="4.78371">
        <ele>299</ele>
        <time>2018-08-15T06:21:07.237Z</time>
      </trkpt>
      <trkpt lat="45.56951" lon="4.78371">
        <ele>299</ele>
        <time>2018-08-15T06:21:08.262Z</time>
      </trkpt>
      <trkpt lat="45.56951" lon="4.78371">
        <ele>299</ele>
        <time>2018-08-15T06:21:09.269Z</time>
      </trkpt>
      <trkpt lat="45.56947" lon="4.78371">
        <ele>299</ele>
        <time>2018-08-15T06:21:10.253Z</time>
      </trkpt>
      <trkpt lat="45.56947" lon="4.78371">
        <ele>299</ele>
        <time>2018-08-15T06:21:11.259Z</time>
      </trkpt>
      <trkpt lat="45.56943" lon="4.78371">
        <ele>299</ele>
        <time>2018-08-15T06:21:12.265Z</time>
      </trkpt>
      <trkpt lat="45.56943" lon="4.78371">
        <ele>299</ele>
        <time>2018-08-15T06:21:13.271Z</time>
      </trkpt>
      <trkpt lat="45.56939" lon="4.78371">
        <ele>300</ele>
        <time>2018-08-15T06:21:14.265Z</time>
      </trkpt>
      <trkpt lat="45.56939" lon="4.78371">
        <ele>300</ele>
        <time>2018-08-15T06:21:15.270Z</time>
      </trkpt>
      <trkpt lat="45.56935" lon="4.7837">
        <ele>300</ele>
        <time>2018-08-15T06:21:16.258Z</time>
      </trkpt>
      <trkpt lat="45.56935" lon="4.7837">
        <ele>300</ele>
        <time>2018-08-15T06:21:17.264Z</time>
      </trkpt>
      <trkpt lat="45.56931" lon="4.7837">
        <ele>300</ele>
        <time>2018-08-15T06:21:18.257Z</time>
      </trkpt>
      <trkpt lat="45.56929" lon="4.7837">
        <ele>300</ele>
        <time>2018-08-15T06:21:19.245Z</time>
      </trkpt>
      <trkpt lat="45.56926" lon="4.7837">
        <ele>300</ele>
        <time>2018-08-15T06:21:20.261Z</time>
      </trkpt>
      <trkpt lat="45.56926" lon="4.7837">
        <ele>300</ele>
        <time>2018-08-15T06:21:21.268Z</time>
      </trkpt>
      <trkpt lat="45.56922" lon="4.78369">
        <ele>300</ele>
        <time>2018-08-15T06:21:22.252Z</time>
      </trkpt>
      <trkpt lat="45.56922" lon="4.78369">
        <ele>300</ele>
        <time>2018-08-15T06:21:23.258Z</time>
      </trkpt>
      <trkpt lat="45.56918" lon="4.78369">
        <ele>301</ele>
        <time>2018-08-15T06:21:24.240Z</time>
      </trkpt>
      <trkpt lat="45.56918" lon="4.78369">
        <ele>301</ele>
        <time>2018-08-15T06:21:25.245Z</time>
      </trkpt>
      <trkpt lat="45.56914" lon="4.78369">
        <ele>301</ele>
        <time>2018-08-15T06:21:26.235Z</time>
      </trkpt>
      <trkpt lat="45.56912" lon="4.78368">
        <ele>301</ele>
        <time>2018-08-15T06:21:27.260Z</time>
      </trkpt>
      <trkpt lat="45.56912" lon="4.78368">
        <ele>301</ele>
        <time>2018-08-15T06:21:28.265Z</time>
      </trkpt>
      <trkpt lat="45.56907" lon="4.78367">
        <ele>301</ele>
        <time>2018-08-15T06:21:29.258Z</time>
      </trkpt>
      <trkpt lat="45.56907" lon="4.78367">
        <ele>301</ele>
        <time>2018-08-15T06:21:30.263Z</time>
      </trkpt>
      <trkpt lat="45.56903" lon="4.78365">
        <ele>301</ele>
        <time>2018-08-15T06:21:31.265Z</time>
      </trkpt>
      <trkpt lat="45.56901" lon="4.78365">
        <ele>301</ele>
        <time>2018-08-15T06:21:32.253Z</time>
      </trkpt>
      <trkpt lat="45.56901" lon="4.78365">
        <ele>301</ele>
        <time>2018-08-15T06:21:33.269Z</time>
      </trkpt>
      <trkpt lat="45.56897" lon="4.78362">
        <ele>301</ele>
        <time>2018-08-15T06:21:34.256Z</time>
      </trkpt>
      <trkpt lat="45.56897" lon="4.78362">
        <ele>301</ele>
        <time>2018-08-15T06:21:35.261Z</time>
      </trkpt>
      <trkpt lat="45.56893" lon="4.7836">
        <ele>302</ele>
        <time>2018-08-15T06:21:36.260Z</time>
      </trkpt>
      <trkpt lat="45.56893" lon="4.7836">
        <ele>302</ele>
        <time>2018-08-15T06:21:37.267Z</time>
      </trkpt>
      <trkpt lat="45.5689" lon="4.78358">
        <ele>302</ele>
        <time>2018-08-15T06:21:38.244Z</time>
      </trkpt>
      <trkpt lat="45.5689" lon="4.78358">
        <ele>302</ele>
        <time>2018-08-15T06:21:39.254Z</time>
      </trkpt>
      <trkpt lat="45.56886" lon="4.78354">
        <ele>302</ele>
        <time>2018-08-15T06:21:40.271Z</time>
      </trkpt>
      <trkpt lat="45.56886" lon="4.78354">
        <ele>302</ele>
        <time>2018-08-15T06:21:41.236Z</time>
      </trkpt>
      <trkpt lat="45.56882" lon="4.78351">
        <ele>302</ele>
        <time>2018-08-15T06:21:42.262Z</time>
      </trkpt>
      <trkpt lat="45.56882" lon="4.78351">
        <ele>302</ele>
        <time>2018-08-15T06:21:43.269Z</time>
      </trkpt>
      <trkpt lat="45.56878" lon="4.78348">
        <ele>302</ele>
        <time>2018-08-15T06:21:44.259Z</time>
      </trkpt>
      <trkpt lat="45.56878" lon="4.78348">
        <ele>302</ele>
        <time>2018-08-15T06:21:45.265Z</time>
      </trkpt>
      <trkpt lat="45.56875" lon="4.78344">
        <ele>303</ele>
        <time>2018-08-15T06:21:46.273Z</time>
      </trkpt>
      <trkpt lat="45.56875" lon="4.78344">
        <ele>303</ele>
        <time>2018-08-15T06:21:47.252Z</time>
      </trkpt>
      <trkpt lat="45.56872" lon="4.78339">
        <ele>303</ele>
        <time>2018-08-15T06:21:48.245Z</time>
      </trkpt>
      <trkpt lat="45.56872" lon="4.78339">
        <ele>303</ele>
        <time>2018-08-15T06:21:49.252Z</time>
      </trkpt>
      <trkpt lat="45.56869" lon="4.78335">
        <ele>303</ele>
        <time>2018-08-15T06:21:50.257Z</time>
      </trkpt>
      <trkpt lat="45.56868" lon="4.78332">
        <ele>303</ele>
        <time>2018-08-15T06:21:51.247Z</time>
      </trkpt>
      <trkpt lat="45.56868" lon="4.78332">
        <ele>303</ele>
        <time>2018-08-15T06:21:52.253Z</time>
      </trkpt>
      <trkpt lat="45.56865" lon="4.78328">
        <ele>304</ele>
        <time>2018-08-15T06:21:53.235Z</time>
      </trkpt>
      <trkpt lat="45.56865" lon="4.78328">
        <ele>304</ele>
        <time>2018-08-15T06:21:54.241Z</time>
      </trkpt>
      <trkpt lat="45.56862" lon="4.78323">
        <ele>305</ele>
        <time>2018-08-15T06:21:55.236Z</time>
      </trkpt>
      <trkpt lat="45.56861" lon="4.78321">
        <ele>305</ele>
        <time>2018-08-15T06:21:56.265Z</time>
      </trkpt>
      <trkpt lat="45.56861" lon="4.78321">
        <ele>305</ele>
        <time>2018-08-15T06:21:57.271Z</time>
      </trkpt>
      <trkpt lat="45.56859" lon="4.78316">
        <ele>305</ele>
        <time>2018-08-15T06:21:58.255Z</time>
      </trkpt>
      <trkpt lat="45.56859" lon="4.78316">
        <ele>305</ele>
        <time>2018-08-15T06:21:59.260Z</time>
      </trkpt>
      <trkpt lat="45.56857" lon="4.7831">
        <ele>306</ele>
        <time>2018-08-15T06:22:00.246Z</time>
      </trkpt>
      <trkpt lat="45.56857" lon="4.78307">
        <ele>306</ele>
        <time>2018-08-15T06:22:01.235Z</time>
      </trkpt>
      <trkpt lat="45.56856" lon="4.78304">
        <ele>306</ele>
        <time>2018-08-15T06:22:02.259Z</time>
      </trkpt>
      <trkpt lat="45.56856" lon="4.78304">
        <ele>306</ele>
        <time>2018-08-15T06:22:03.265Z</time>
      </trkpt>
      <trkpt lat="45.56856" lon="4.78298">
        <ele>307</ele>
        <time>2018-08-15T06:22:04.248Z</time>
      </trkpt>
      <trkpt lat="45.56856" lon="4.78298">
        <ele>307</ele>
        <time>2018-08-15T06:22:05.254Z</time>
      </trkpt>
      <trkpt lat="45.56855" lon="4.78292">
        <ele>307</ele>
        <time>2018-08-15T06:22:06.239Z</time>
      </trkpt>
      <trkpt lat="45.56855" lon="4.78292">
        <ele>307</ele>
        <time>2018-08-15T06:22:07.244Z</time>
      </trkpt>
      <trkpt lat="45.56854" lon="4.78285">
        <ele>308</ele>
        <time>2018-08-15T06:22:08.233Z</time>
      </trkpt>
      <trkpt lat="45.56854" lon="4.78285">
        <ele>308</ele>
        <time>2018-08-15T06:22:09.238Z</time>
      </trkpt>
      <trkpt lat="45.56854" lon="4.78279">
        <ele>308</ele>
        <time>2018-08-15T06:22:10.271Z</time>
      </trkpt>
      <trkpt lat="45.56854" lon="4.78279">
        <ele>308</ele>
        <time>2018-08-15T06:22:11.246Z</time>
      </trkpt>
      <trkpt lat="45.56854" lon="4.78272">
        <ele>309</ele>
        <time>2018-08-15T06:22:12.265Z</time>
      </trkpt>
      <trkpt lat="45.56854" lon="4.78272">
        <ele>309</ele>
        <time>2018-08-15T06:22:13.271Z</time>
      </trkpt>
      <trkpt lat="45.56854" lon="4.78265">
        <ele>309</ele>
        <time>2018-08-15T06:22:14.252Z</time>
      </trkpt>
      <trkpt lat="45.56854" lon="4.78265">
        <ele>309</ele>
        <time>2018-08-15T06:22:15.258Z</time>
      </trkpt>
      <trkpt lat="45.56855" lon="4.78258">
        <ele>310</ele>
        <time>2018-08-15T06:22:16.259Z</time>
      </trkpt>
      <trkpt lat="45.56856" lon="4.78254">
        <ele>310</ele>
        <time>2018-08-15T06:22:17.263Z</time>
      </trkpt>
      <trkpt lat="45.56856" lon="4.78254">
        <ele>310</ele>
        <time>2018-08-15T06:22:18.269Z</time>
      </trkpt>
      <trkpt lat="45.56856" lon="4.78248">
        <ele>310</ele>
        <time>2018-08-15T06:22:19.252Z</time>
      </trkpt>
      <trkpt lat="45.56857" lon="4.78244">
        <ele>310</ele>
        <time>2018-08-15T06:22:20.239Z</time>
      </trkpt>
      <trkpt lat="45.56857" lon="4.78244">
        <ele>310</ele>
        <time>2018-08-15T06:22:21.244Z</time>
      </trkpt>
      <trkpt lat="45.56859" lon="4.78238">
        <ele>311</ele>
        <time>2018-08-15T06:22:22.269Z</time>
      </trkpt>
      <trkpt lat="45.56859" lon="4.78238">
        <ele>311</ele>
        <time>2018-08-15T06:22:23.236Z</time>
      </trkpt>
      <trkpt lat="45.56861" lon="4.78231">
        <ele>311</ele>
        <time>2018-08-15T06:22:24.244Z</time>
      </trkpt>
      <trkpt lat="45.56862" lon="4.78228">
        <ele>311</ele>
        <time>2018-08-15T06:22:25.245Z</time>
      </trkpt>
      <trkpt lat="45.56863" lon="4.78224">
        <ele>311</ele>
        <time>2018-08-15T06:22:26.264Z</time>
      </trkpt>
      <trkpt lat="45.56863" lon="4.78224">
        <ele>311</ele>
        <time>2018-08-15T06:22:27.269Z</time>
      </trkpt>
      <trkpt lat="45.56865" lon="4.78217">
        <ele>312</ele>
        <time>2018-08-15T06:22:28.250Z</time>
      </trkpt>
      <trkpt lat="45.56865" lon="4.78217">
        <ele>312</ele>
        <time>2018-08-15T06:22:29.255Z</time>
      </trkpt>
      <trkpt lat="45.56867" lon="4.78211">
        <ele>312</ele>
        <time>2018-08-15T06:22:30.235Z</time>
      </trkpt>
      <trkpt lat="45.56867" lon="4.78211">
        <ele>312</ele>
        <time>2018-08-15T06:22:31.256Z</time>
      </trkpt>
      <trkpt lat="45.56869" lon="4.78204">
        <ele>312</ele>
        <time>2018-08-15T06:22:32.250Z</time>
      </trkpt>
      <trkpt lat="45.56869" lon="4.78204">
        <ele>312</ele>
        <time>2018-08-15T06:22:33.256Z</time>
      </trkpt>
      <trkpt lat="45.56871" lon="4.78198">
        <ele>313</ele>
        <time>2018-08-15T06:22:34.245Z</time>
      </trkpt>
      <trkpt lat="45.56871" lon="4.78198">
        <ele>313</ele>
        <time>2018-08-15T06:22:35.252Z</time>
      </trkpt>
      <trkpt lat="45.56873" lon="4.78192">
        <ele>313</ele>
        <time>2018-08-15T06:22:36.241Z</time>
      </trkpt>
      <trkpt lat="45.56873" lon="4.78192">
        <ele>313</ele>
        <time>2018-08-15T06:22:37.252Z</time>
      </trkpt>
      <trkpt lat="45.56875" lon="4.78186">
        <ele>314</ele>
        <time>2018-08-15T06:22:38.271Z</time>
      </trkpt>
      <trkpt lat="45.56875" lon="4.78186">
        <ele>314</ele>
        <time>2018-08-15T06:22:39.238Z</time>
      </trkpt>
      <trkpt lat="45.56878" lon="4.78179">
        <ele>314</ele>
        <time>2018-08-15T06:22:40.256Z</time>
      </trkpt>
      <trkpt lat="45.56878" lon="4.78179">
        <ele>314</ele>
        <time>2018-08-15T06:22:41.266Z</time>
      </trkpt>
      <trkpt lat="45.5688" lon="4.78172">
        <ele>314</ele>
        <time>2018-08-15T06:22:42.257Z</time>
      </trkpt>
      <trkpt lat="45.56881" lon="4.78169">
        <ele>314</ele>
        <time>2018-08-15T06:22:43.250Z</time>
      </trkpt>
      <trkpt lat="45.56882" lon="4.78166">
        <ele>314</ele>
        <time>2018-08-15T06:22:44.241Z</time>
      </trkpt>
      <trkpt lat="45.56882" lon="4.78166">
        <ele>314</ele>
        <time>2018-08-15T06:22:45.248Z</time>
      </trkpt>
      <trkpt lat="45.56884" lon="4.78159">
        <ele>314</ele>
        <time>2018-08-15T06:22:46.252Z</time>
      </trkpt>
      <trkpt lat="45.56884" lon="4.78159">
        <ele>314</ele>
        <time>2018-08-15T06:22:47.235Z</time>
      </trkpt>
      <trkpt lat="45.56885" lon="4.78152">
        <ele>314</ele>
        <time>2018-08-15T06:22:48.254Z</time>
      </trkpt>
      <trkpt lat="45.56885" lon="4.78152">
        <ele>314</ele>
        <time>2018-08-15T06:22:49.260Z</time>
      </trkpt>
      <trkpt lat="45.56887" lon="4.78145">
        <ele>314</ele>
        <time>2018-08-15T06:22:50.269Z</time>
      </trkpt>
      <trkpt lat="45.56887" lon="4.78145">
        <ele>314</ele>
        <time>2018-08-15T06:22:51.234Z</time>
      </trkpt>
      <trkpt lat="45.56889" lon="4.78138">
        <ele>314</ele>
        <time>2018-08-15T06:22:52.262Z</time>
      </trkpt>
      <trkpt lat="45.56889" lon="4.78138">
        <ele>314</ele>
        <time>2018-08-15T06:22:53.267Z</time>
      </trkpt>
      <trkpt lat="45.56891" lon="4.78132">
        <ele>315</ele>
        <time>2018-08-15T06:22:54.271Z</time>
      </trkpt>
      <trkpt lat="45.56892" lon="4.78128">
        <ele>315</ele>
        <time>2018-08-15T06:22:55.252Z</time>
      </trkpt>
      <trkpt lat="45.56893" lon="4.78125">
        <ele>315</ele>
        <time>2018-08-15T06:22:56.240Z</time>
      </trkpt>
      <trkpt lat="45.56893" lon="4.78125">
        <ele>315</ele>
        <time>2018-08-15T06:22:57.245Z</time>
      </trkpt>
      <trkpt lat="45.56895" lon="4.78118">
        <ele>315</ele>
        <time>2018-08-15T06:22:58.270Z</time>
      </trkpt>
      <trkpt lat="45.56895" lon="4.78118">
        <ele>315</ele>
        <time>2018-08-15T06:22:59.237Z</time>
      </trkpt>
      <trkpt lat="45.56897" lon="4.78111">
        <ele>315</ele>
        <time>2018-08-15T06:23:00.258Z</time>
      </trkpt>
      <trkpt lat="45.56897" lon="4.78111">
        <ele>315</ele>
        <time>2018-08-15T06:23:01.263Z</time>
      </trkpt>
      <trkpt lat="45.569" lon="4.78104">
        <ele>315</ele>
        <time>2018-08-15T06:23:02.248Z</time>
      </trkpt>
      <trkpt lat="45.569" lon="4.78104">
        <ele>315</ele>
        <time>2018-08-15T06:23:03.253Z</time>
      </trkpt>
      <trkpt lat="45.56902" lon="4.78097">
        <ele>316</ele>
        <time>2018-08-15T06:23:04.232Z</time>
      </trkpt>
      <trkpt lat="45.56902" lon="4.78097">
        <ele>316</ele>
        <time>2018-08-15T06:23:05.237Z</time>
      </trkpt>
      <trkpt lat="45.56904" lon="4.78089">
        <ele>316</ele>
        <time>2018-08-15T06:23:06.266Z</time>
      </trkpt>
      <trkpt lat="45.56904" lon="4.78089">
        <ele>316</ele>
        <time>2018-08-15T06:23:07.271Z</time>
      </trkpt>
      <trkpt lat="45.56907" lon="4.78082">
        <ele>316</ele>
        <time>2018-08-15T06:23:08.262Z</time>
      </trkpt>
      <trkpt lat="45.56907" lon="4.78082">
        <ele>316</ele>
        <time>2018-08-15T06:23:09.267Z</time>
      </trkpt>
      <trkpt lat="45.56909" lon="4.78075">
        <ele>316</ele>
        <time>2018-08-15T06:23:10.248Z</time>
      </trkpt>
      <trkpt lat="45.56909" lon="4.78075">
        <ele>316</ele>
        <time>2018-08-15T06:23:11.255Z</time>
      </trkpt>
      <trkpt lat="45.56912" lon="4.78067">
        <ele>316</ele>
        <time>2018-08-15T06:23:12.239Z</time>
      </trkpt>
      <trkpt lat="45.56912" lon="4.78067">
        <ele>316</ele>
        <time>2018-08-15T06:23:13.244Z</time>
      </trkpt>
      <trkpt lat="45.56914" lon="4.78059">
        <ele>316</ele>
        <time>2018-08-15T06:23:14.236Z</time>
      </trkpt>
      <trkpt lat="45.56914" lon="4.78059">
        <ele>316</ele>
        <time>2018-08-15T06:23:15.241Z</time>
      </trkpt>
      <trkpt lat="45.56916" lon="4.78051">
        <ele>315</ele>
        <time>2018-08-15T06:23:16.268Z</time>
      </trkpt>
      <trkpt lat="45.56916" lon="4.78051">
        <ele>315</ele>
        <time>2018-08-15T06:23:17.234Z</time>
      </trkpt>
      <trkpt lat="45.56917" lon="4.78044">
        <ele>315</ele>
        <time>2018-08-15T06:23:18.263Z</time>
      </trkpt>
      <trkpt lat="45.56917" lon="4.78044">
        <ele>315</ele>
        <time>2018-08-15T06:23:19.269Z</time>
      </trkpt>
      <trkpt lat="45.56918" lon="4.78036">
        <ele>315</ele>
        <time>2018-08-15T06:23:20.269Z</time>
      </trkpt>
      <trkpt lat="45.56918" lon="4.78036">
        <ele>315</ele>
        <time>2018-08-15T06:23:21.234Z</time>
      </trkpt>
      <trkpt lat="45.56919" lon="4.78029">
        <ele>316</ele>
        <time>2018-08-15T06:23:22.258Z</time>
      </trkpt>
      <trkpt lat="45.56919" lon="4.78029">
        <ele>316</ele>
        <time>2018-08-15T06:23:23.265Z</time>
      </trkpt>
      <trkpt lat="45.56919" lon="4.78021">
        <ele>316</ele>
        <time>2018-08-15T06:23:24.257Z</time>
      </trkpt>
      <trkpt lat="45.56919" lon="4.78021">
        <ele>316</ele>
        <time>2018-08-15T06:23:25.262Z</time>
      </trkpt>
      <trkpt lat="45.56919" lon="4.78013">
        <ele>316</ele>
        <time>2018-08-15T06:23:26.249Z</time>
      </trkpt>
      <trkpt lat="45.56919" lon="4.78013">
        <ele>316</ele>
        <time>2018-08-15T06:23:27.254Z</time>
      </trkpt>
      <trkpt lat="45.56919" lon="4.78005">
        <ele>316</ele>
        <time>2018-08-15T06:23:28.263Z</time>
      </trkpt>
      <trkpt lat="45.56919" lon="4.78005">
        <ele>316</ele>
        <time>2018-08-15T06:23:29.269Z</time>
      </trkpt>
      <trkpt lat="45.56918" lon="4.77997">
        <ele>316</ele>
        <time>2018-08-15T06:23:30.268Z</time>
      </trkpt>
      <trkpt lat="45.56918" lon="4.77997">
        <ele>316</ele>
        <time>2018-08-15T06:23:31.233Z</time>
      </trkpt>
      <trkpt lat="45.56916" lon="4.7799">
        <ele>317</ele>
        <time>2018-08-15T06:23:32.256Z</time>
      </trkpt>
      <trkpt lat="45.56916" lon="4.7799">
        <ele>317</ele>
        <time>2018-08-15T06:23:33.263Z</time>
      </trkpt>
      <trkpt lat="45.56913" lon="4.77982">
        <ele>317</ele>
        <time>2018-08-15T06:23:34.251Z</time>
      </trkpt>
      <trkpt lat="45.56913" lon="4.77982">
        <ele>317</ele>
        <time>2018-08-15T06:23:35.257Z</time>
      </trkpt>
      <trkpt lat="45.5691" lon="4.77975">
        <ele>317</ele>
        <time>2018-08-15T06:23:36.247Z</time>
      </trkpt>
      <trkpt lat="45.56909" lon="4.77971">
        <ele>317</ele>
        <time>2018-08-15T06:23:37.233Z</time>
      </trkpt>
      <trkpt lat="45.56908" lon="4.77968">
        <ele>317</ele>
        <time>2018-08-15T06:23:38.262Z</time>
      </trkpt>
      <trkpt lat="45.56908" lon="4.77968">
        <ele>317</ele>
        <time>2018-08-15T06:23:39.267Z</time>
      </trkpt>
      <trkpt lat="45.56905" lon="4.77962">
        <ele>318</ele>
        <time>2018-08-15T06:23:40.259Z</time>
      </trkpt>
      <trkpt lat="45.56905" lon="4.77962">
        <ele>318</ele>
        <time>2018-08-15T06:23:41.265Z</time>
      </trkpt>
      <trkpt lat="45.56902" lon="4.77956">
        <ele>318</ele>
        <time>2018-08-15T06:23:42.248Z</time>
      </trkpt>
      <trkpt lat="45.56902" lon="4.77956">
        <ele>318</ele>
        <time>2018-08-15T06:23:43.254Z</time>
      </trkpt>
      <trkpt lat="45.569" lon="4.77949">
        <ele>319</ele>
        <time>2018-08-15T06:23:44.253Z</time>
      </trkpt>
      <trkpt lat="45.569" lon="4.77949">
        <ele>319</ele>
        <time>2018-08-15T06:23:45.258Z</time>
      </trkpt>
      <trkpt lat="45.56896" lon="4.77944">
        <ele>319</ele>
        <time>2018-08-15T06:23:46.247Z</time>
      </trkpt>
      <trkpt lat="45.56896" lon="4.77944">
        <ele>319</ele>
        <time>2018-08-15T06:23:47.253Z</time>
      </trkpt>
      <trkpt lat="45.56893" lon="4.77938">
        <ele>320</ele>
        <time>2018-08-15T06:23:48.243Z</time>
      </trkpt>
      <trkpt lat="45.56893" lon="4.77938">
        <ele>320</ele>
        <time>2018-08-15T06:23:49.254Z</time>
      </trkpt>
      <trkpt lat="45.56889" lon="4.77932">
        <ele>320</ele>
        <time>2018-08-15T06:23:50.243Z</time>
      </trkpt>
      <trkpt lat="45.56889" lon="4.77932">
        <ele>320</ele>
        <time>2018-08-15T06:23:51.249Z</time>
      </trkpt>
      <trkpt lat="45.56886" lon="4.77926">
        <ele>320</ele>
        <time>2018-08-15T06:23:52.236Z</time>
      </trkpt>
      <trkpt lat="45.56886" lon="4.77926">
        <ele>320</ele>
        <time>2018-08-15T06:23:53.242Z</time>
      </trkpt>
      <trkpt lat="45.56883" lon="4.7792">
        <ele>320</ele>
        <time>2018-08-15T06:23:54.253Z</time>
      </trkpt>
      <trkpt lat="45.56883" lon="4.7792">
        <ele>320</ele>
        <time>2018-08-15T06:23:55.258Z</time>
      </trkpt>
      <trkpt lat="45.56879" lon="4.77915">
        <ele>320</ele>
        <time>2018-08-15T06:23:56.252Z</time>
      </trkpt>
      <trkpt lat="45.56879" lon="4.77915">
        <ele>320</ele>
        <time>2018-08-15T06:23:57.258Z</time>
      </trkpt>
      <trkpt lat="45.56876" lon="4.77909">
        <ele>320</ele>
        <time>2018-08-15T06:23:58.253Z</time>
      </trkpt>
      <trkpt lat="45.56874" lon="4.77906">
        <ele>320</ele>
        <time>2018-08-15T06:23:59.256Z</time>
      </trkpt>
      <trkpt lat="45.56874" lon="4.77906">
        <ele>320</ele>
        <time>2018-08-15T06:24:00.261Z</time>
      </trkpt>
      <trkpt lat="45.56871" lon="4.779">
        <ele>320</ele>
        <time>2018-08-15T06:24:01.253Z</time>
      </trkpt>
      <trkpt lat="45.5687" lon="4.77897">
        <ele>320</ele>
        <time>2018-08-15T06:24:02.242Z</time>
      </trkpt>
      <trkpt lat="45.5687" lon="4.77897">
        <ele>320</ele>
        <time>2018-08-15T06:24:03.248Z</time>
      </trkpt>
      <trkpt lat="45.56866" lon="4.77891">
        <ele>320</ele>
        <time>2018-08-15T06:24:04.233Z</time>
      </trkpt>
      <trkpt lat="45.56866" lon="4.77891">
        <ele>320</ele>
        <time>2018-08-15T06:24:05.238Z</time>
      </trkpt>
      <trkpt lat="45.56863" lon="4.77885">
        <ele>320</ele>
        <time>2018-08-15T06:24:06.269Z</time>
      </trkpt>
      <trkpt lat="45.56863" lon="4.77885">
        <ele>320</ele>
        <time>2018-08-15T06:24:07.235Z</time>
      </trkpt>
      <trkpt lat="45.56859" lon="4.77879">
        <ele>320</ele>
        <time>2018-08-15T06:24:08.252Z</time>
      </trkpt>
      <trkpt lat="45.56859" lon="4.77879">
        <ele>320</ele>
        <time>2018-08-15T06:24:09.257Z</time>
      </trkpt>
      <trkpt lat="45.56856" lon="4.77873">
        <ele>321</ele>
        <time>2018-08-15T06:24:10.241Z</time>
      </trkpt>
      <trkpt lat="45.56856" lon="4.77873">
        <ele>321</ele>
        <time>2018-08-15T06:24:11.254Z</time>
      </trkpt>
      <trkpt lat="45.56852" lon="4.77868">
        <ele>321</ele>
        <time>2018-08-15T06:24:12.261Z</time>
      </trkpt>
      <trkpt lat="45.5685" lon="4.77866">
        <ele>321</ele>
        <time>2018-08-15T06:24:13.249Z</time>
      </trkpt>
      <trkpt lat="45.56848" lon="4.77864">
        <ele>320</ele>
        <time>2018-08-15T06:24:14.247Z</time>
      </trkpt>
      <trkpt lat="45.56848" lon="4.77864">
        <ele>320</ele>
        <time>2018-08-15T06:24:15.253Z</time>
      </trkpt>
      <trkpt lat="45.56844" lon="4.7786">
        <ele>320</ele>
        <time>2018-08-15T06:24:16.245Z</time>
      </trkpt>
      <trkpt lat="45.56844" lon="4.7786">
        <ele>320</ele>
        <time>2018-08-15T06:24:17.250Z</time>
      </trkpt>
      <trkpt lat="45.5684" lon="4.77855">
        <ele>321</ele>
        <time>2018-08-15T06:24:18.241Z</time>
      </trkpt>
      <trkpt lat="45.5684" lon="4.77855">
        <ele>321</ele>
        <time>2018-08-15T06:24:19.251Z</time>
      </trkpt>
      <trkpt lat="45.56836" lon="4.77851">
        <ele>321</ele>
        <time>2018-08-15T06:24:20.246Z</time>
      </trkpt>
      <trkpt lat="45.56836" lon="4.77851">
        <ele>321</ele>
        <time>2018-08-15T06:24:21.264Z</time>
      </trkpt>
      <trkpt lat="45.56832" lon="4.77846">
        <ele>321</ele>
        <time>2018-08-15T06:24:22.240Z</time>
      </trkpt>
      <trkpt lat="45.56832" lon="4.77846">
        <ele>321</ele>
        <time>2018-08-15T06:24:23.251Z</time>
      </trkpt>
      <trkpt lat="45.56828" lon="4.77843">
        <ele>321</ele>
        <time>2018-08-15T06:24:24.251Z</time>
      </trkpt>
      <trkpt lat="45.56828" lon="4.77843">
        <ele>321</ele>
        <time>2018-08-15T06:24:25.256Z</time>
      </trkpt>
      <trkpt lat="45.56823" lon="4.77839">
        <ele>321</ele>
        <time>2018-08-15T06:24:26.236Z</time>
      </trkpt>
      <trkpt lat="45.56823" lon="4.77839">
        <ele>321</ele>
        <time>2018-08-15T06:24:27.241Z</time>
      </trkpt>
      <trkpt lat="45.56819" lon="4.77836">
        <ele>321</ele>
        <time>2018-08-15T06:24:28.269Z</time>
      </trkpt>
      <trkpt lat="45.56819" lon="4.77836">
        <ele>321</ele>
        <time>2018-08-15T06:24:29.252Z</time>
      </trkpt>
      <trkpt lat="45.56815" lon="4.77833">
        <ele>321</ele>
        <time>2018-08-15T06:24:30.246Z</time>
      </trkpt>
      <trkpt lat="45.56812" lon="4.77831">
        <ele>321</ele>
        <time>2018-08-15T06:24:31.266Z</time>
      </trkpt>
      <trkpt lat="45.5681" lon="4.7783">
        <ele>322</ele>
        <time>2018-08-15T06:24:32.250Z</time>
      </trkpt>
      <trkpt lat="45.5681" lon="4.7783">
        <ele>322</ele>
        <time>2018-08-15T06:24:33.256Z</time>
      </trkpt>
      <trkpt lat="45.56805" lon="4.77827">
        <ele>322</ele>
        <time>2018-08-15T06:24:34.250Z</time>
      </trkpt>
      <trkpt lat="45.56805" lon="4.77827">
        <ele>322</ele>
        <time>2018-08-15T06:24:35.256Z</time>
      </trkpt>
      <trkpt lat="45.56801" lon="4.77824">
        <ele>322</ele>
        <time>2018-08-15T06:24:36.236Z</time>
      </trkpt>
      <trkpt lat="45.56801" lon="4.77824">
        <ele>322</ele>
        <time>2018-08-15T06:24:37.242Z</time>
      </trkpt>
      <trkpt lat="45.56797" lon="4.77821">
        <ele>322</ele>
        <time>2018-08-15T06:24:38.239Z</time>
      </trkpt>
      <trkpt lat="45.56797" lon="4.77821">
        <ele>322</ele>
        <time>2018-08-15T06:24:39.244Z</time>
      </trkpt>
      <trkpt lat="45.56792" lon="4.77817">
        <ele>322</ele>
        <time>2018-08-15T06:24:40.234Z</time>
      </trkpt>
      <trkpt lat="45.56792" lon="4.77817">
        <ele>322</ele>
        <time>2018-08-15T06:24:41.240Z</time>
      </trkpt>
      <trkpt lat="45.56788" lon="4.77813">
        <ele>322</ele>
        <time>2018-08-15T06:24:42.263Z</time>
      </trkpt>
      <trkpt lat="45.56788" lon="4.77813">
        <ele>322</ele>
        <time>2018-08-15T06:24:43.268Z</time>
      </trkpt>
      <trkpt lat="45.56783" lon="4.77809">
        <ele>322</ele>
        <time>2018-08-15T06:24:44.254Z</time>
      </trkpt>
      <trkpt lat="45.56783" lon="4.77809">
        <ele>322</ele>
        <time>2018-08-15T06:24:45.259Z</time>
      </trkpt>
      <trkpt lat="45.56779" lon="4.77805">
        <ele>322</ele>
        <time>2018-08-15T06:24:46.244Z</time>
      </trkpt>
      <trkpt lat="45.56779" lon="4.77805">
        <ele>322</ele>
        <time>2018-08-15T06:24:47.254Z</time>
      </trkpt>
      <trkpt lat="45.56774" lon="4.77802">
        <ele>322</ele>
        <time>2018-08-15T06:24:48.270Z</time>
      </trkpt>
      <trkpt lat="45.56771" lon="4.778">
        <ele>322</ele>
        <time>2018-08-15T06:24:49.254Z</time>
      </trkpt>
      <trkpt lat="45.56769" lon="4.77798">
        <ele>322</ele>
        <time>2018-08-15T06:24:50.237Z</time>
      </trkpt>
      <trkpt lat="45.56769" lon="4.77798">
        <ele>322</ele>
        <time>2018-08-15T06:24:51.242Z</time>
      </trkpt>
      <trkpt lat="45.56764" lon="4.77795">
        <ele>322</ele>
        <time>2018-08-15T06:24:52.269Z</time>
      </trkpt>
      <trkpt lat="45.56764" lon="4.77795">
        <ele>322</ele>
        <time>2018-08-15T06:24:53.235Z</time>
      </trkpt>
      <trkpt lat="45.5676" lon="4.77791">
        <ele>323</ele>
        <time>2018-08-15T06:24:54.258Z</time>
      </trkpt>
      <trkpt lat="45.5676" lon="4.77791">
        <ele>323</ele>
        <time>2018-08-15T06:24:55.264Z</time>
      </trkpt>
      <trkpt lat="45.56755" lon="4.77787">
        <ele>323</ele>
        <time>2018-08-15T06:24:56.246Z</time>
      </trkpt>
      <trkpt lat="45.56755" lon="4.77787">
        <ele>323</ele>
        <time>2018-08-15T06:24:57.251Z</time>
      </trkpt>
      <trkpt lat="45.5675" lon="4.77783">
        <ele>323</ele>
        <time>2018-08-15T06:24:58.249Z</time>
      </trkpt>
      <trkpt lat="45.5675" lon="4.77783">
        <ele>323</ele>
        <time>2018-08-15T06:24:59.258Z</time>
      </trkpt>
      <trkpt lat="45.56746" lon="4.77779">
        <ele>323</ele>
        <time>2018-08-15T06:25:00.253Z</time>
      </trkpt>
      <trkpt lat="45.56746" lon="4.77779">
        <ele>323</ele>
        <time>2018-08-15T06:25:01.258Z</time>
      </trkpt>
      <trkpt lat="45.56742" lon="4.77774">
        <ele>323</ele>
        <time>2018-08-15T06:25:02.253Z</time>
      </trkpt>
      <trkpt lat="45.5674" lon="4.77772">
        <ele>323</ele>
        <time>2018-08-15T06:25:03.268Z</time>
      </trkpt>
      <trkpt lat="45.5674" lon="4.77772">
        <ele>323</ele>
        <time>2018-08-15T06:25:04.233Z</time>
      </trkpt>
      <trkpt lat="45.56736" lon="4.77767">
        <ele>323</ele>
        <time>2018-08-15T06:25:05.240Z</time>
      </trkpt>
      <trkpt lat="45.56736" lon="4.77767">
        <ele>323</ele>
        <time>2018-08-15T06:25:06.246Z</time>
      </trkpt>
      <trkpt lat="45.56731" lon="4.77763">
        <ele>324</ele>
        <time>2018-08-15T06:25:07.264Z</time>
      </trkpt>
      <trkpt lat="45.56729" lon="4.7776">
        <ele>324</ele>
        <time>2018-08-15T06:25:08.248Z</time>
      </trkpt>
      <trkpt lat="45.56729" lon="4.7776">
        <ele>324</ele>
        <time>2018-08-15T06:25:09.254Z</time>
      </trkpt>
      <trkpt lat="45.56725" lon="4.77756">
        <ele>324</ele>
        <time>2018-08-15T06:25:10.256Z</time>
      </trkpt>
      <trkpt lat="45.56725" lon="4.77756">
        <ele>324</ele>
        <time>2018-08-15T06:25:11.261Z</time>
      </trkpt>
      <trkpt lat="45.56721" lon="4.77752">
        <ele>324</ele>
        <time>2018-08-15T06:25:12.246Z</time>
      </trkpt>
      <trkpt lat="45.56721" lon="4.77752">
        <ele>324</ele>
        <time>2018-08-15T06:25:13.251Z</time>
      </trkpt>
      <trkpt lat="45.56717" lon="4.77747">
        <ele>324</ele>
        <time>2018-08-15T06:25:14.233Z</time>
      </trkpt>
      <trkpt lat="45.56717" lon="4.77747">
        <ele>324</ele>
        <time>2018-08-15T06:25:15.238Z</time>
      </trkpt>
      <trkpt lat="45.56713" lon="4.77743">
        <ele>325</ele>
        <time>2018-08-15T06:25:16.255Z</time>
      </trkpt>
      <trkpt lat="45.56713" lon="4.77743">
        <ele>325</ele>
        <time>2018-08-15T06:25:17.260Z</time>
      </trkpt>
      <trkpt lat="45.56709" lon="4.77738">
        <ele>325</ele>
        <time>2018-08-15T06:25:18.262Z</time>
      </trkpt>
      <trkpt lat="45.56709" lon="4.77738">
        <ele>325</ele>
        <time>2018-08-15T06:25:19.268Z</time>
      </trkpt>
      <trkpt lat="45.56705" lon="4.77734">
        <ele>325</ele>
        <time>2018-08-15T06:25:20.268Z</time>
      </trkpt>
      <trkpt lat="45.56705" lon="4.77734">
        <ele>325</ele>
        <time>2018-08-15T06:25:21.234Z</time>
      </trkpt>
      <trkpt lat="45.567" lon="4.7773">
        <ele>325</ele>
        <time>2018-08-15T06:25:22.267Z</time>
      </trkpt>
      <trkpt lat="45.567" lon="4.7773">
        <ele>325</ele>
        <time>2018-08-15T06:25:23.232Z</time>
      </trkpt>
      <trkpt lat="45.56696" lon="4.77726">
        <ele>326</ele>
        <time>2018-08-15T06:25:24.262Z</time>
      </trkpt>
      <trkpt lat="45.56696" lon="4.77726">
        <ele>326</ele>
        <time>2018-08-15T06:25:25.268Z</time>
      </trkpt>
      <trkpt lat="45.56692" lon="4.77722">
        <ele>326</ele>
        <time>2018-08-15T06:25:26.258Z</time>
      </trkpt>
      <trkpt lat="45.56692" lon="4.77722">
        <ele>326</ele>
        <time>2018-08-15T06:25:27.263Z</time>
      </trkpt>
      <trkpt lat="45.56687" lon="4.77718">
        <ele>326</ele>
        <time>2018-08-15T06:25:28.263Z</time>
      </trkpt>
      <trkpt lat="45.56687" lon="4.77718">
        <ele>326</ele>
        <time>2018-08-15T06:25:29.269Z</time>
      </trkpt>
      <trkpt lat="45.56683" lon="4.77715">
        <ele>326</ele>
        <time>2018-08-15T06:25:30.267Z</time>
      </trkpt>
      <trkpt lat="45.56683" lon="4.77715">
        <ele>326</ele>
        <time>2018-08-15T06:25:31.233Z</time>
      </trkpt>
      <trkpt lat="45.56678" lon="4.77711">
        <ele>327</ele>
        <time>2018-08-15T06:25:32.266Z</time>
      </trkpt>
      <trkpt lat="45.56678" lon="4.77711">
        <ele>327</ele>
        <time>2018-08-15T06:25:33.271Z</time>
      </trkpt>
      <trkpt lat="45.56673" lon="4.77707">
        <ele>327</ele>
        <time>2018-08-15T06:25:34.270Z</time>
      </trkpt>
      <trkpt lat="45.56671" lon="4.77706">
        <ele>327</ele>
        <time>2018-08-15T06:25:35.254Z</time>
      </trkpt>
      <trkpt lat="45.56671" lon="4.77706">
        <ele>327</ele>
        <time>2018-08-15T06:25:36.269Z</time>
      </trkpt>
      <trkpt lat="45.56666" lon="4.77702">
        <ele>327</ele>
        <time>2018-08-15T06:25:37.263Z</time>
      </trkpt>
      <trkpt lat="45.56664" lon="4.777">
        <ele>327</ele>
        <time>2018-08-15T06:25:38.248Z</time>
      </trkpt>
      <trkpt lat="45.56664" lon="4.777">
        <ele>327</ele>
        <time>2018-08-15T06:25:39.254Z</time>
      </trkpt>
      <trkpt lat="45.56659" lon="4.77696">
        <ele>327</ele>
        <time>2018-08-15T06:25:40.248Z</time>
      </trkpt>
      <trkpt lat="45.56659" lon="4.77696">
        <ele>327</ele>
        <time>2018-08-15T06:25:41.253Z</time>
      </trkpt>
      <trkpt lat="45.56654" lon="4.77692">
        <ele>328</ele>
        <time>2018-08-15T06:25:42.241Z</time>
      </trkpt>
      <trkpt lat="45.56654" lon="4.77692">
        <ele>328</ele>
        <time>2018-08-15T06:25:43.251Z</time>
      </trkpt>
      <trkpt lat="45.56649" lon="4.77688">
        <ele>328</ele>
        <time>2018-08-15T06:25:44.237Z</time>
      </trkpt>
      <trkpt lat="45.56649" lon="4.77688">
        <ele>328</ele>
        <time>2018-08-15T06:25:45.242Z</time>
      </trkpt>
      <trkpt lat="45.56644" lon="4.77684">
        <ele>328</ele>
        <time>2018-08-15T06:25:46.237Z</time>
      </trkpt>
      <trkpt lat="45.56644" lon="4.77684">
        <ele>328</ele>
        <time>2018-08-15T06:25:47.242Z</time>
      </trkpt>
      <trkpt lat="45.5664" lon="4.7768">
        <ele>328</ele>
        <time>2018-08-15T06:25:48.253Z</time>
      </trkpt>
      <trkpt lat="45.5664" lon="4.7768">
        <ele>328</ele>
        <time>2018-08-15T06:25:49.258Z</time>
      </trkpt>
      <trkpt lat="45.56635" lon="4.77676">
        <ele>328</ele>
        <time>2018-08-15T06:25:50.243Z</time>
      </trkpt>
      <trkpt lat="45.56635" lon="4.77676">
        <ele>328</ele>
        <time>2018-08-15T06:25:51.255Z</time>
      </trkpt>
      <trkpt lat="45.5663" lon="4.77672">
        <ele>328</ele>
        <time>2018-08-15T06:25:52.244Z</time>
      </trkpt>
      <trkpt lat="45.5663" lon="4.77672">
        <ele>328</ele>
        <time>2018-08-15T06:25:53.253Z</time>
      </trkpt>
      <trkpt lat="45.56626" lon="4.77667">
        <ele>329</ele>
        <time>2018-08-15T06:25:54.241Z</time>
      </trkpt>
      <trkpt lat="45.56626" lon="4.77667">
        <ele>329</ele>
        <time>2018-08-15T06:25:55.247Z</time>
      </trkpt>
      <trkpt lat="45.56621" lon="4.77662">
        <ele>329</ele>
        <time>2018-08-15T06:25:56.237Z</time>
      </trkpt>
      <trkpt lat="45.56621" lon="4.77662">
        <ele>329</ele>
        <time>2018-08-15T06:25:57.242Z</time>
      </trkpt>
      <trkpt lat="45.56617" lon="4.77658">
        <ele>329</ele>
        <time>2018-08-15T06:25:58.242Z</time>
      </trkpt>
      <trkpt lat="45.56617" lon="4.77658">
        <ele>329</ele>
        <time>2018-08-15T06:25:59.247Z</time>
      </trkpt>
      <trkpt lat="45.56612" lon="4.77653">
        <ele>329</ele>
        <time>2018-08-15T06:26:00.237Z</time>
      </trkpt>
      <trkpt lat="45.56612" lon="4.77653">
        <ele>329</ele>
        <time>2018-08-15T06:26:01.242Z</time>
      </trkpt>
      <trkpt lat="45.56608" lon="4.77648">
        <ele>329</ele>
        <time>2018-08-15T06:26:02.232Z</time>
      </trkpt>
      <trkpt lat="45.56608" lon="4.77648">
        <ele>329</ele>
        <time>2018-08-15T06:26:03.237Z</time>
      </trkpt>
      <trkpt lat="45.56604" lon="4.77642">
        <ele>330</ele>
        <time>2018-08-15T06:26:04.263Z</time>
      </trkpt>
      <trkpt lat="45.56604" lon="4.77642">
        <ele>330</ele>
        <time>2018-08-15T06:26:05.269Z</time>
      </trkpt>
      <trkpt lat="45.566" lon="4.77637">
        <ele>330</ele>
        <time>2018-08-15T06:26:06.255Z</time>
      </trkpt>
      <trkpt lat="45.566" lon="4.77637">
        <ele>330</ele>
        <time>2018-08-15T06:26:07.260Z</time>
      </trkpt>
      <trkpt lat="45.56596" lon="4.77631">
        <ele>330</ele>
        <time>2018-08-15T06:26:08.257Z</time>
      </trkpt>
      <trkpt lat="45.56596" lon="4.77631">
        <ele>330</ele>
        <time>2018-08-15T06:26:09.263Z</time>
      </trkpt>
      <trkpt lat="45.56593" lon="4.77625">
        <ele>331</ele>
        <time>2018-08-15T06:26:10.233Z</time>
      </trkpt>
      <trkpt lat="45.56593" lon="4.77625">
        <ele>331</ele>
        <time>2018-08-15T06:26:11.238Z</time>
      </trkpt>
      <trkpt lat="45.56589" lon="4.77619">
        <ele>331</ele>
        <time>2018-08-15T06:26:12.266Z</time>
      </trkpt>
      <trkpt lat="45.56589" lon="4.77619">
        <ele>331</ele>
        <time>2018-08-15T06:26:13.271Z</time>
      </trkpt>
      <trkpt lat="45.56585" lon="4.77614">
        <ele>331</ele>
        <time>2018-08-15T06:26:14.268Z</time>
      </trkpt>
      <trkpt lat="45.56585" lon="4.77614">
        <ele>331</ele>
        <time>2018-08-15T06:26:15.234Z</time>
      </trkpt>
      <trkpt lat="45.56581" lon="4.77608">
        <ele>331</ele>
        <time>2018-08-15T06:26:16.262Z</time>
      </trkpt>
      <trkpt lat="45.56581" lon="4.77608">
        <ele>331</ele>
        <time>2018-08-15T06:26:17.268Z</time>
      </trkpt>
      <trkpt lat="45.56578" lon="4.77603">
        <ele>332</ele>
        <time>2018-08-15T06:26:18.261Z</time>
      </trkpt>
      <trkpt lat="45.56578" lon="4.77603">
        <ele>332</ele>
        <time>2018-08-15T06:26:19.267Z</time>
      </trkpt>
      <trkpt lat="45.56574" lon="4.77597">
        <ele>332</ele>
        <time>2018-08-15T06:26:20.254Z</time>
      </trkpt>
      <trkpt lat="45.56574" lon="4.77597">
        <ele>332</ele>
        <time>2018-08-15T06:26:21.260Z</time>
      </trkpt>
      <trkpt lat="45.56571" lon="4.77591">
        <ele>332</ele>
        <time>2018-08-15T06:26:22.244Z</time>
      </trkpt>
      <trkpt lat="45.56571" lon="4.77591">
        <ele>332</ele>
        <time>2018-08-15T06:26:23.251Z</time>
      </trkpt>
      <trkpt lat="45.56567" lon="4.77586">
        <ele>332</ele>
        <time>2018-08-15T06:26:24.237Z</time>
      </trkpt>
      <trkpt lat="45.56567" lon="4.77586">
        <ele>332</ele>
        <time>2018-08-15T06:26:25.242Z</time>
      </trkpt>
      <trkpt lat="45.56563" lon="4.77581">
        <ele>332</ele>
        <time>2018-08-15T06:26:26.232Z</time>
      </trkpt>
      <trkpt lat="45.56563" lon="4.77581">
        <ele>332</ele>
        <time>2018-08-15T06:26:27.237Z</time>
      </trkpt>
      <trkpt lat="45.56559" lon="4.77576">
        <ele>332</ele>
        <time>2018-08-15T06:26:28.257Z</time>
      </trkpt>
      <trkpt lat="45.56559" lon="4.77576">
        <ele>332</ele>
        <time>2018-08-15T06:26:29.263Z</time>
      </trkpt>
      <trkpt lat="45.56554" lon="4.77572">
        <ele>333</ele>
        <time>2018-08-15T06:26:30.262Z</time>
      </trkpt>
      <trkpt lat="45.56554" lon="4.77572">
        <ele>333</ele>
        <time>2018-08-15T06:26:31.268Z</time>
      </trkpt>
      <trkpt lat="45.56549" lon="4.77567">
        <ele>333</ele>
        <time>2018-08-15T06:26:32.256Z</time>
      </trkpt>
      <trkpt lat="45.56549" lon="4.77567">
        <ele>333</ele>
        <time>2018-08-15T06:26:33.261Z</time>
      </trkpt>
      <trkpt lat="45.56545" lon="4.77563">
        <ele>333</ele>
        <time>2018-08-15T06:26:34.249Z</time>
      </trkpt>
      <trkpt lat="45.56545" lon="4.77563">
        <ele>333</ele>
        <time>2018-08-15T06:26:35.255Z</time>
      </trkpt>
      <trkpt lat="45.5654" lon="4.7756">
        <ele>333</ele>
        <time>2018-08-15T06:26:36.238Z</time>
      </trkpt>
      <trkpt lat="45.56538" lon="4.77559">
        <ele>333</ele>
        <time>2018-08-15T06:26:37.257Z</time>
      </trkpt>
      <trkpt lat="45.56538" lon="4.77559">
        <ele>333</ele>
        <time>2018-08-15T06:26:38.264Z</time>
      </trkpt>
      <trkpt lat="45.56533" lon="4.77557">
        <ele>334</ele>
        <time>2018-08-15T06:26:39.252Z</time>
      </trkpt>
      <trkpt lat="45.56533" lon="4.77557">
        <ele>334</ele>
        <time>2018-08-15T06:26:40.258Z</time>
      </trkpt>
      <trkpt lat="45.56527" lon="4.77556">
        <ele>335</ele>
        <time>2018-08-15T06:26:41.250Z</time>
      </trkpt>
      <trkpt lat="45.56527" lon="4.77556">
        <ele>335</ele>
        <time>2018-08-15T06:26:42.255Z</time>
      </trkpt>
      <trkpt lat="45.56522" lon="4.77555">
        <ele>335</ele>
        <time>2018-08-15T06:26:43.241Z</time>
      </trkpt>
      <trkpt lat="45.56519" lon="4.77555">
        <ele>335</ele>
        <time>2018-08-15T06:26:44.237Z</time>
      </trkpt>
      <trkpt lat="45.56519" lon="4.77555">
        <ele>335</ele>
        <time>2018-08-15T06:26:45.242Z</time>
      </trkpt>
      <trkpt lat="45.56514" lon="4.77555">
        <ele>336</ele>
        <time>2018-08-15T06:26:46.239Z</time>
      </trkpt>
      <trkpt lat="45.56514" lon="4.77555">
        <ele>336</ele>
        <time>2018-08-15T06:26:47.244Z</time>
      </trkpt>
      <trkpt lat="45.56508" lon="4.77555">
        <ele>336</ele>
        <time>2018-08-15T06:26:48.264Z</time>
      </trkpt>
      <trkpt lat="45.56508" lon="4.77555">
        <ele>336</ele>
        <time>2018-08-15T06:26:49.270Z</time>
      </trkpt>
      <trkpt lat="45.56503" lon="4.77555">
        <ele>337</ele>
        <time>2018-08-15T06:26:50.257Z</time>
      </trkpt>
      <trkpt lat="45.56503" lon="4.77555">
        <ele>337</ele>
        <time>2018-08-15T06:26:51.263Z</time>
      </trkpt>
      <trkpt lat="45.56498" lon="4.77556">
        <ele>337</ele>
        <time>2018-08-15T06:26:52.261Z</time>
      </trkpt>
      <trkpt lat="45.56498" lon="4.77556">
        <ele>337</ele>
        <time>2018-08-15T06:26:53.266Z</time>
      </trkpt>
      <trkpt lat="45.56492" lon="4.77556">
        <ele>337</ele>
        <time>2018-08-15T06:26:54.263Z</time>
      </trkpt>
      <trkpt lat="45.56492" lon="4.77556">
        <ele>337</ele>
        <time>2018-08-15T06:26:55.269Z</time>
      </trkpt>
      <trkpt lat="45.56486" lon="4.77555">
        <ele>337</ele>
        <time>2018-08-15T06:26:56.253Z</time>
      </trkpt>
      <trkpt lat="45.56486" lon="4.77555">
        <ele>337</ele>
        <time>2018-08-15T06:26:57.258Z</time>
      </trkpt>
      <trkpt lat="45.56481" lon="4.77556">
        <ele>337</ele>
        <time>2018-08-15T06:26:58.241Z</time>
      </trkpt>
      <trkpt lat="45.56478" lon="4.77556">
        <ele>337</ele>
        <time>2018-08-15T06:26:59.241Z</time>
      </trkpt>
      <trkpt lat="45.56478" lon="4.77556">
        <ele>337</ele>
        <time>2018-08-15T06:27:00.250Z</time>
      </trkpt>
      <trkpt lat="45.56473" lon="4.77556">
        <ele>338</ele>
        <time>2018-08-15T06:27:01.242Z</time>
      </trkpt>
      <trkpt lat="45.5647" lon="4.77556">
        <ele>338</ele>
        <time>2018-08-15T06:27:02.264Z</time>
      </trkpt>
      <trkpt lat="45.5647" lon="4.77556">
        <ele>338</ele>
        <time>2018-08-15T06:27:03.270Z</time>
      </trkpt>
      <trkpt lat="45.56465" lon="4.77556">
        <ele>338</ele>
        <time>2018-08-15T06:27:04.253Z</time>
      </trkpt>
      <trkpt lat="45.56462" lon="4.77555">
        <ele>338</ele>
        <time>2018-08-15T06:27:05.237Z</time>
      </trkpt>
      <trkpt lat="45.56462" lon="4.77555">
        <ele>338</ele>
        <time>2018-08-15T06:27:06.242Z</time>
      </trkpt>
      <trkpt lat="45.56457" lon="4.77555">
        <ele>339</ele>
        <time>2018-08-15T06:27:07.236Z</time>
      </trkpt>
      <trkpt lat="45.56454" lon="4.77555">
        <ele>339</ele>
        <time>2018-08-15T06:27:08.264Z</time>
      </trkpt>
      <trkpt lat="45.56454" lon="4.77555">
        <ele>339</ele>
        <time>2018-08-15T06:27:09.269Z</time>
      </trkpt>
      <trkpt lat="45.56449" lon="4.77554">
        <ele>339</ele>
        <time>2018-08-15T06:27:10.233Z</time>
      </trkpt>
      <trkpt lat="45.56446" lon="4.77553">
        <ele>339</ele>
        <time>2018-08-15T06:27:11.270Z</time>
      </trkpt>
      <trkpt lat="45.56446" lon="4.77553">
        <ele>339</ele>
        <time>2018-08-15T06:27:12.250Z</time>
      </trkpt>
      <trkpt lat="45.56441" lon="4.77552">
        <ele>339</ele>
        <time>2018-08-15T06:27:13.234Z</time>
      </trkpt>
      <trkpt lat="45.56438" lon="4.77551">
        <ele>339</ele>
        <time>2018-08-15T06:27:14.253Z</time>
      </trkpt>
      <trkpt lat="45.56438" lon="4.77551">
        <ele>339</ele>
        <time>2018-08-15T06:27:15.259Z</time>
      </trkpt>
      <trkpt lat="45.56433" lon="4.77549">
        <ele>340</ele>
        <time>2018-08-15T06:27:16.253Z</time>
      </trkpt>
      <trkpt lat="45.56433" lon="4.77549">
        <ele>340</ele>
        <time>2018-08-15T06:27:17.271Z</time>
      </trkpt>
      <trkpt lat="45.56428" lon="4.77548">
        <ele>340</ele>
        <time>2018-08-15T06:27:18.271Z</time>
      </trkpt>
      <trkpt lat="45.56428" lon="4.77548">
        <ele>340</ele>
        <time>2018-08-15T06:27:19.236Z</time>
      </trkpt>
      <trkpt lat="45.56423" lon="4.77547">
        <ele>340</ele>
        <time>2018-08-15T06:27:20.266Z</time>
      </trkpt>
      <trkpt lat="45.56423" lon="4.77547">
        <ele>340</ele>
        <time>2018-08-15T06:27:21.271Z</time>
      </trkpt>
      <trkpt lat="45.56417" lon="4.77545">
        <ele>340</ele>
        <time>2018-08-15T06:27:22.254Z</time>
      </trkpt>
      <trkpt lat="45.56417" lon="4.77545">
        <ele>340</ele>
        <time>2018-08-15T06:27:23.259Z</time>
      </trkpt>
      <trkpt lat="45.56412" lon="4.77543">
        <ele>341</ele>
        <time>2018-08-15T06:27:24.247Z</time>
      </trkpt>
      <trkpt lat="45.56412" lon="4.77543">
        <ele>341</ele>
        <time>2018-08-15T06:27:25.252Z</time>
      </trkpt>
      <trkpt lat="45.56407" lon="4.77541">
        <ele>341</ele>
        <time>2018-08-15T06:27:26.236Z</time>
      </trkpt>
      <trkpt lat="45.56407" lon="4.77541">
        <ele>341</ele>
        <time>2018-08-15T06:27:27.241Z</time>
      </trkpt>
      <trkpt lat="45.56402" lon="4.7754">
        <ele>341</ele>
        <time>2018-08-15T06:27:28.271Z</time>
      </trkpt>
      <trkpt lat="45.56402" lon="4.7754">
        <ele>341</ele>
        <time>2018-08-15T06:27:29.236Z</time>
      </trkpt>
      <trkpt lat="45.56397" lon="4.77537">
        <ele>341</ele>
        <time>2018-08-15T06:27:30.266Z</time>
      </trkpt>
      <trkpt lat="45.56394" lon="4.77536">
        <ele>341</ele>
        <time>2018-08-15T06:27:31.259Z</time>
      </trkpt>
      <trkpt lat="45.56392" lon="4.77535">
        <ele>341</ele>
        <time>2018-08-15T06:27:32.244Z</time>
      </trkpt>
      <trkpt lat="45.56392" lon="4.77535">
        <ele>341</ele>
        <time>2018-08-15T06:27:33.250Z</time>
      </trkpt>
      <trkpt lat="45.56387" lon="4.77533">
        <ele>342</ele>
        <time>2018-08-15T06:27:34.234Z</time>
      </trkpt>
      <trkpt lat="45.56387" lon="4.77533">
        <ele>342</ele>
        <time>2018-08-15T06:27:35.240Z</time>
      </trkpt>
      <trkpt lat="45.56382" lon="4.77531">
        <ele>342</ele>
        <time>2018-08-15T06:27:36.244Z</time>
      </trkpt>
      <trkpt lat="45.56382" lon="4.77531">
        <ele>342</ele>
        <time>2018-08-15T06:27:37.252Z</time>
      </trkpt>
      <trkpt lat="45.56377" lon="4.77529">
        <ele>342</ele>
        <time>2018-08-15T06:27:38.234Z</time>
      </trkpt>
      <trkpt lat="45.56377" lon="4.77529">
        <ele>342</ele>
        <time>2018-08-15T06:27:39.243Z</time>
      </trkpt>
      <trkpt lat="45.56371" lon="4.77527">
        <ele>342</ele>
        <time>2018-08-15T06:27:40.232Z</time>
      </trkpt>
      <trkpt lat="45.56371" lon="4.77527">
        <ele>342</ele>
        <time>2018-08-15T06:27:41.237Z</time>
      </trkpt>
      <trkpt lat="45.56366" lon="4.77525">
        <ele>343</ele>
        <time>2018-08-15T06:27:42.264Z</time>
      </trkpt>
      <trkpt lat="45.56364" lon="4.77525">
        <ele>343</ele>
        <time>2018-08-15T06:27:43.271Z</time>
      </trkpt>
      <trkpt lat="45.56361" lon="4.77524">
        <ele>343</ele>
        <time>2018-08-15T06:27:44.263Z</time>
      </trkpt>
      <trkpt lat="45.56361" lon="4.77524">
        <ele>343</ele>
        <time>2018-08-15T06:27:45.268Z</time>
      </trkpt>
      <trkpt lat="45.56356" lon="4.77522">
        <ele>343</ele>
        <time>2018-08-15T06:27:46.265Z</time>
      </trkpt>
      <trkpt lat="45.56356" lon="4.77522">
        <ele>343</ele>
        <time>2018-08-15T06:27:47.271Z</time>
      </trkpt>
      <trkpt lat="45.56351" lon="4.77521">
        <ele>343</ele>
        <time>2018-08-15T06:27:48.265Z</time>
      </trkpt>
      <trkpt lat="45.56351" lon="4.77521">
        <ele>343</ele>
        <time>2018-08-15T06:27:49.271Z</time>
      </trkpt>
      <trkpt lat="45.56346" lon="4.77519">
        <ele>343</ele>
        <time>2018-08-15T06:27:50.264Z</time>
      </trkpt>
      <trkpt lat="45.56346" lon="4.77519">
        <ele>343</ele>
        <time>2018-08-15T06:27:51.270Z</time>
      </trkpt>
      <trkpt lat="45.56341" lon="4.77517">
        <ele>344</ele>
        <time>2018-08-15T06:27:52.263Z</time>
      </trkpt>
      <trkpt lat="45.56341" lon="4.77517">
        <ele>344</ele>
        <time>2018-08-15T06:27:53.269Z</time>
      </trkpt>
      <trkpt lat="45.56336" lon="4.77514">
        <ele>344</ele>
        <time>2018-08-15T06:27:54.258Z</time>
      </trkpt>
      <trkpt lat="45.56333" lon="4.77512">
        <ele>345</ele>
        <time>2018-08-15T06:27:55.262Z</time>
      </trkpt>
      <trkpt lat="45.56333" lon="4.77512">
        <ele>345</ele>
        <time>2018-08-15T06:27:56.267Z</time>
      </trkpt>
      <trkpt lat="45.56329" lon="4.77508">
        <ele>345</ele>
        <time>2018-08-15T06:27:57.260Z</time>
      </trkpt>
      <trkpt lat="45.56329" lon="4.77508">
        <ele>345</ele>
        <time>2018-08-15T06:27:58.265Z</time>
      </trkpt>
      <trkpt lat="45.56324" lon="4.77503">
        <ele>345</ele>
        <time>2018-08-15T06:27:59.255Z</time>
      </trkpt>
      <trkpt lat="45.56324" lon="4.77503">
        <ele>345</ele>
        <time>2018-08-15T06:28:00.260Z</time>
      </trkpt>
      <trkpt lat="45.5632" lon="4.77498">
        <ele>345</ele>
        <time>2018-08-15T06:28:01.262Z</time>
      </trkpt>
      <trkpt lat="45.56318" lon="4.77495">
        <ele>346</ele>
        <time>2018-08-15T06:28:02.247Z</time>
      </trkpt>
      <trkpt lat="45.56318" lon="4.77495">
        <ele>346</ele>
        <time>2018-08-15T06:28:03.252Z</time>
      </trkpt>
      <trkpt lat="45.56314" lon="4.77489">
        <ele>346</ele>
        <time>2018-08-15T06:28:04.247Z</time>
      </trkpt>
      <trkpt lat="45.56314" lon="4.77489">
        <ele>346</ele>
        <time>2018-08-15T06:28:05.254Z</time>
      </trkpt>
      <trkpt lat="45.56311" lon="4.77482">
        <ele>346</ele>
        <time>2018-08-15T06:28:06.239Z</time>
      </trkpt>
      <trkpt lat="45.56311" lon="4.77482">
        <ele>346</ele>
        <time>2018-08-15T06:28:07.252Z</time>
      </trkpt>
      <trkpt lat="45.56308" lon="4.77475">
        <ele>346</ele>
        <time>2018-08-15T06:28:08.243Z</time>
      </trkpt>
      <trkpt lat="45.56308" lon="4.77475">
        <ele>346</ele>
        <time>2018-08-15T06:28:09.250Z</time>
      </trkpt>
      <trkpt lat="45.56306" lon="4.77468">
        <ele>347</ele>
        <time>2018-08-15T06:28:10.270Z</time>
      </trkpt>
      <trkpt lat="45.56306" lon="4.77468">
        <ele>347</ele>
        <time>2018-08-15T06:28:11.235Z</time>
      </trkpt>
      <trkpt lat="45.56304" lon="4.7746">
        <ele>347</ele>
        <time>2018-08-15T06:28:12.269Z</time>
      </trkpt>
      <trkpt lat="45.56304" lon="4.77456">
        <ele>347</ele>
        <time>2018-08-15T06:28:13.254Z</time>
      </trkpt>
      <trkpt lat="45.56304" lon="4.77456">
        <ele>347</ele>
        <time>2018-08-15T06:28:14.259Z</time>
      </trkpt>
      <trkpt lat="45.56302" lon="4.77449">
        <ele>347</ele>
        <time>2018-08-15T06:28:15.250Z</time>
      </trkpt>
      <trkpt lat="45.56301" lon="4.77445">
        <ele>348</ele>
        <time>2018-08-15T06:28:16.270Z</time>
      </trkpt>
      <trkpt lat="45.56301" lon="4.77445">
        <ele>348</ele>
        <time>2018-08-15T06:28:17.235Z</time>
      </trkpt>
      <trkpt lat="45.56299" lon="4.77437">
        <ele>348</ele>
        <time>2018-08-15T06:28:18.271Z</time>
      </trkpt>
      <trkpt lat="45.56299" lon="4.77433">
        <ele>348</ele>
        <time>2018-08-15T06:28:19.255Z</time>
      </trkpt>
      <trkpt lat="45.56298" lon="4.77428">
        <ele>348</ele>
        <time>2018-08-15T06:28:20.233Z</time>
      </trkpt>
      <trkpt lat="45.56298" lon="4.77428">
        <ele>348</ele>
        <time>2018-08-15T06:28:21.238Z</time>
      </trkpt>
      <trkpt lat="45.56297" lon="4.7742">
        <ele>348</ele>
        <time>2018-08-15T06:28:22.270Z</time>
      </trkpt>
      <trkpt lat="45.56297" lon="4.7742">
        <ele>348</ele>
        <time>2018-08-15T06:28:23.236Z</time>
      </trkpt>
      <trkpt lat="45.56296" lon="4.77411">
        <ele>348</ele>
        <time>2018-08-15T06:28:24.271Z</time>
      </trkpt>
      <trkpt lat="45.56296" lon="4.77411">
        <ele>348</ele>
        <time>2018-08-15T06:28:25.237Z</time>
      </trkpt>
      <trkpt lat="45.56295" lon="4.77402">
        <ele>348</ele>
        <time>2018-08-15T06:28:26.258Z</time>
      </trkpt>
      <trkpt lat="45.56295" lon="4.77402">
        <ele>348</ele>
        <time>2018-08-15T06:28:27.264Z</time>
      </trkpt>
      <trkpt lat="45.56294" lon="4.77393">
        <ele>348</ele>
        <time>2018-08-15T06:28:28.253Z</time>
      </trkpt>
      <trkpt lat="45.56294" lon="4.77393">
        <ele>348</ele>
        <time>2018-08-15T06:28:29.259Z</time>
      </trkpt>
      <trkpt lat="45.56294" lon="4.77384">
        <ele>348</ele>
        <time>2018-08-15T06:28:30.242Z</time>
      </trkpt>
      <trkpt lat="45.56294" lon="4.77384">
        <ele>348</ele>
        <time>2018-08-15T06:28:31.251Z</time>
      </trkpt>
      <trkpt lat="45.56293" lon="4.77375">
        <ele>349</ele>
        <time>2018-08-15T06:28:32.266Z</time>
      </trkpt>
      <trkpt lat="45.56292" lon="4.77371">
        <ele>349</ele>
        <time>2018-08-15T06:28:33.271Z</time>
      </trkpt>
      <trkpt lat="45.56292" lon="4.77371">
        <ele>349</ele>
        <time>2018-08-15T06:28:34.237Z</time>
      </trkpt>
      <trkpt lat="45.56292" lon="4.77362">
        <ele>349</ele>
        <time>2018-08-15T06:28:35.232Z</time>
      </trkpt>
      <trkpt lat="45.56292" lon="4.77362">
        <ele>349</ele>
        <time>2018-08-15T06:28:36.250Z</time>
      </trkpt>
      <trkpt lat="45.5629" lon="4.77353">
        <ele>350</ele>
        <time>2018-08-15T06:28:37.234Z</time>
      </trkpt>
      <trkpt lat="45.5629" lon="4.77349">
        <ele>350</ele>
        <time>2018-08-15T06:28:38.236Z</time>
      </trkpt>
      <trkpt lat="45.5629" lon="4.77349">
        <ele>350</ele>
        <time>2018-08-15T06:28:39.252Z</time>
      </trkpt>
      <trkpt lat="45.56288" lon="4.7734">
        <ele>350</ele>
        <time>2018-08-15T06:28:40.242Z</time>
      </trkpt>
      <trkpt lat="45.56287" lon="4.77335">
        <ele>350</ele>
        <time>2018-08-15T06:28:41.270Z</time>
      </trkpt>
      <trkpt lat="45.56287" lon="4.77335">
        <ele>350</ele>
        <time>2018-08-15T06:28:42.235Z</time>
      </trkpt>
      <trkpt lat="45.56286" lon="4.77326">
        <ele>351</ele>
        <time>2018-08-15T06:28:43.250Z</time>
      </trkpt>
      <trkpt lat="45.56285" lon="4.77322">
        <ele>351</ele>
        <time>2018-08-15T06:28:44.233Z</time>
      </trkpt>
      <trkpt lat="45.56285" lon="4.77322">
        <ele>351</ele>
        <time>2018-08-15T06:28:45.238Z</time>
      </trkpt>
      <trkpt lat="45.56282" lon="4.77314">
        <ele>351</ele>
        <time>2018-08-15T06:28:46.237Z</time>
      </trkpt>
      <trkpt lat="45.56282" lon="4.7731">
        <ele>351</ele>
        <time>2018-08-15T06:28:47.271Z</time>
      </trkpt>
      <trkpt lat="45.56282" lon="4.7731">
        <ele>351</ele>
        <time>2018-08-15T06:28:48.237Z</time>
      </trkpt>
      <trkpt lat="45.56279" lon="4.77301">
        <ele>351</ele>
        <time>2018-08-15T06:28:49.262Z</time>
      </trkpt>
      <trkpt lat="45.56277" lon="4.77296">
        <ele>352</ele>
        <time>2018-08-15T06:28:50.253Z</time>
      </trkpt>
      <trkpt lat="45.56277" lon="4.77296">
        <ele>352</ele>
        <time>2018-08-15T06:28:51.258Z</time>
      </trkpt>
      <trkpt lat="45.56273" lon="4.77288">
        <ele>352</ele>
        <time>2018-08-15T06:28:52.243Z</time>
      </trkpt>
      <trkpt lat="45.56273" lon="4.77288">
        <ele>352</ele>
        <time>2018-08-15T06:28:53.249Z</time>
      </trkpt>
      <trkpt lat="45.56269" lon="4.7728">
        <ele>352</ele>
        <time>2018-08-15T06:28:54.239Z</time>
      </trkpt>
      <trkpt lat="45.56269" lon="4.7728">
        <ele>352</ele>
        <time>2018-08-15T06:28:55.249Z</time>
      </trkpt>
      <trkpt lat="45.56265" lon="4.77272">
        <ele>352</ele>
        <time>2018-08-15T06:28:56.262Z</time>
      </trkpt>
      <trkpt lat="45.56265" lon="4.77272">
        <ele>352</ele>
        <time>2018-08-15T06:28:57.235Z</time>
      </trkpt>
      <trkpt lat="45.56261" lon="4.77264">
        <ele>352</ele>
        <time>2018-08-15T06:28:58.261Z</time>
      </trkpt>
      <trkpt lat="45.56261" lon="4.77264">
        <ele>352</ele>
        <time>2018-08-15T06:28:59.267Z</time>
      </trkpt>
      <trkpt lat="45.56255" lon="4.77256">
        <ele>352</ele>
        <time>2018-08-15T06:29:00.253Z</time>
      </trkpt>
      <trkpt lat="45.56255" lon="4.77256">
        <ele>352</ele>
        <time>2018-08-15T06:29:01.266Z</time>
      </trkpt>
      <trkpt lat="45.5625" lon="4.77249">
        <ele>352</ele>
        <time>2018-08-15T06:29:02.262Z</time>
      </trkpt>
      <trkpt lat="45.5625" lon="4.77249">
        <ele>352</ele>
        <time>2018-08-15T06:29:03.267Z</time>
      </trkpt>
      <trkpt lat="45.56244" lon="4.77243">
        <ele>352</ele>
        <time>2018-08-15T06:29:04.254Z</time>
      </trkpt>
      <trkpt lat="45.56244" lon="4.77243">
        <ele>352</ele>
        <time>2018-08-15T06:29:05.259Z</time>
      </trkpt>
      <trkpt lat="45.56237" lon="4.77237">
        <ele>352</ele>
        <time>2018-08-15T06:29:06.242Z</time>
      </trkpt>
      <trkpt lat="45.56237" lon="4.77237">
        <ele>352</ele>
        <time>2018-08-15T06:29:07.249Z</time>
      </trkpt>
      <trkpt lat="45.56229" lon="4.77231">
        <ele>352</ele>
        <time>2018-08-15T06:29:08.233Z</time>
      </trkpt>
      <trkpt lat="45.56229" lon="4.77231">
        <ele>352</ele>
        <time>2018-08-15T06:29:09.238Z</time>
      </trkpt>
      <trkpt lat="45.56221" lon="4.77226">
        <ele>352</ele>
        <time>2018-08-15T06:29:10.267Z</time>
      </trkpt>
      <trkpt lat="45.56221" lon="4.77226">
        <ele>352</ele>
        <time>2018-08-15T06:29:11.235Z</time>
      </trkpt>
      <trkpt lat="45.56213" lon="4.77221">
        <ele>351</ele>
        <time>2018-08-15T06:29:12.270Z</time>
      </trkpt>
      <trkpt lat="45.56213" lon="4.77221">
        <ele>351</ele>
        <time>2018-08-15T06:29:13.235Z</time>
      </trkpt>
      <trkpt lat="45.56203" lon="4.77217">
        <ele>351</ele>
        <time>2018-08-15T06:29:14.259Z</time>
      </trkpt>
      <trkpt lat="45.56203" lon="4.77217">
        <ele>351</ele>
        <time>2018-08-15T06:29:15.264Z</time>
      </trkpt>
      <trkpt lat="45.56193" lon="4.77214">
        <ele>351</ele>
        <time>2018-08-15T06:29:16.251Z</time>
      </trkpt>
      <trkpt lat="45.56193" lon="4.77214">
        <ele>351</ele>
        <time>2018-08-15T06:29:17.256Z</time>
      </trkpt>
      <trkpt lat="45.56182" lon="4.77212">
        <ele>351</ele>
        <time>2018-08-15T06:29:18.243Z</time>
      </trkpt>
      <trkpt lat="45.56176" lon="4.7721">
        <ele>351</ele>
        <time>2018-08-15T06:29:19.237Z</time>
      </trkpt>
      <trkpt lat="45.5617" lon="4.7721">
        <ele>350</ele>
        <time>2018-08-15T06:29:20.255Z</time>
      </trkpt>
      <trkpt lat="45.5617" lon="4.7721">
        <ele>350</ele>
        <time>2018-08-15T06:29:21.261Z</time>
      </trkpt>
      <trkpt lat="45.56159" lon="4.77208">
        <ele>350</ele>
        <time>2018-08-15T06:29:22.264Z</time>
      </trkpt>
      <trkpt lat="45.56159" lon="4.77208">
        <ele>350</ele>
        <time>2018-08-15T06:29:23.269Z</time>
      </trkpt>
      <trkpt lat="45.56147" lon="4.77206">
        <ele>350</ele>
        <time>2018-08-15T06:29:24.253Z</time>
      </trkpt>
      <trkpt lat="45.56147" lon="4.77206">
        <ele>350</ele>
        <time>2018-08-15T06:29:25.259Z</time>
      </trkpt>
      <trkpt lat="45.56135" lon="4.77204">
        <ele>350</ele>
        <time>2018-08-15T06:29:26.253Z</time>
      </trkpt>
      <trkpt lat="45.56135" lon="4.77204">
        <ele>350</ele>
        <time>2018-08-15T06:29:27.258Z</time>
      </trkpt>
      <trkpt lat="45.56124" lon="4.77202">
        <ele>350</ele>
        <time>2018-08-15T06:29:28.252Z</time>
      </trkpt>
      <trkpt lat="45.56124" lon="4.77202">
        <ele>350</ele>
        <time>2018-08-15T06:29:29.257Z</time>
      </trkpt>
      <trkpt lat="45.56113" lon="4.77201">
        <ele>351</ele>
        <time>2018-08-15T06:29:30.243Z</time>
      </trkpt>
      <trkpt lat="45.56113" lon="4.77201">
        <ele>351</ele>
        <time>2018-08-15T06:29:31.251Z</time>
      </trkpt>
      <trkpt lat="45.56102" lon="4.772">
        <ele>351</ele>
        <time>2018-08-15T06:29:32.244Z</time>
      </trkpt>
      <trkpt lat="45.56102" lon="4.772">
        <ele>351</ele>
        <time>2018-08-15T06:29:33.252Z</time>
      </trkpt>
      <trkpt lat="45.56092" lon="4.77198">
        <ele>351</ele>
        <time>2018-08-15T06:29:34.241Z</time>
      </trkpt>
      <trkpt lat="45.56092" lon="4.77198">
        <ele>351</ele>
        <time>2018-08-15T06:29:35.249Z</time>
      </trkpt>
      <trkpt lat="45.56082" lon="4.77197">
        <ele>351</ele>
        <time>2018-08-15T06:29:36.259Z</time>
      </trkpt>
      <trkpt lat="45.56082" lon="4.77197">
        <ele>351</ele>
        <time>2018-08-15T06:29:37.265Z</time>
      </trkpt>
      <trkpt lat="45.56072" lon="4.77195">
        <ele>351</ele>
        <time>2018-08-15T06:29:38.233Z</time>
      </trkpt>
      <trkpt lat="45.56072" lon="4.77195">
        <ele>351</ele>
        <time>2018-08-15T06:29:39.254Z</time>
      </trkpt>
      <trkpt lat="45.56063" lon="4.77193">
        <ele>351</ele>
        <time>2018-08-15T06:29:40.264Z</time>
      </trkpt>
      <trkpt lat="45.56063" lon="4.77193">
        <ele>351</ele>
        <time>2018-08-15T06:29:41.247Z</time>
      </trkpt>
      <trkpt lat="45.56054" lon="4.77191">
        <ele>351</ele>
        <time>2018-08-15T06:29:42.237Z</time>
      </trkpt>
      <trkpt lat="45.56054" lon="4.77191">
        <ele>351</ele>
        <time>2018-08-15T06:29:43.251Z</time>
      </trkpt>
      <trkpt lat="45.56045" lon="4.77188">
        <ele>351</ele>
        <time>2018-08-15T06:29:44.254Z</time>
      </trkpt>
      <trkpt lat="45.56045" lon="4.77188">
        <ele>351</ele>
        <time>2018-08-15T06:29:45.261Z</time>
      </trkpt>
      <trkpt lat="45.56037" lon="4.77185">
        <ele>352</ele>
        <time>2018-08-15T06:29:46.253Z</time>
      </trkpt>
      <trkpt lat="45.56037" lon="4.77185">
        <ele>352</ele>
        <time>2018-08-15T06:29:47.262Z</time>
      </trkpt>
      <trkpt lat="45.56029" lon="4.7718">
        <ele>352</ele>
        <time>2018-08-15T06:29:48.233Z</time>
      </trkpt>
      <trkpt lat="45.56029" lon="4.7718">
        <ele>352</ele>
        <time>2018-08-15T06:29:49.240Z</time>
      </trkpt>
      <trkpt lat="45.56022" lon="4.77175">
        <ele>352</ele>
        <time>2018-08-15T06:29:50.271Z</time>
      </trkpt>
      <trkpt lat="45.56018" lon="4.77172">
        <ele>352</ele>
        <time>2018-08-15T06:29:51.240Z</time>
      </trkpt>
      <trkpt lat="45.56018" lon="4.77172">
        <ele>352</ele>
        <time>2018-08-15T06:29:52.250Z</time>
      </trkpt>
      <trkpt lat="45.56012" lon="4.77166">
        <ele>353</ele>
        <time>2018-08-15T06:29:53.239Z</time>
      </trkpt>
      <trkpt lat="45.56012" lon="4.77166">
        <ele>353</ele>
        <time>2018-08-15T06:29:54.246Z</time>
      </trkpt>
      <trkpt lat="45.56006" lon="4.77159">
        <ele>353</ele>
        <time>2018-08-15T06:29:55.269Z</time>
      </trkpt>
      <trkpt lat="45.56003" lon="4.77156">
        <ele>353</ele>
        <time>2018-08-15T06:29:56.265Z</time>
      </trkpt>
      <trkpt lat="45.56003" lon="4.77156">
        <ele>353</ele>
        <time>2018-08-15T06:29:57.271Z</time>
      </trkpt>
      <trkpt lat="45.55998" lon="4.77149">
        <ele>353</ele>
        <time>2018-08-15T06:29:58.253Z</time>
      </trkpt>
      <trkpt lat="45.55998" lon="4.77149">
        <ele>353</ele>
        <time>2018-08-15T06:29:59.261Z</time>
      </trkpt>
      <trkpt lat="45.55993" lon="4.77142">
        <ele>353</ele>
        <time>2018-08-15T06:30:00.247Z</time>
      </trkpt>
      <trkpt lat="45.55991" lon="4.77139">
        <ele>353</ele>
        <time>2018-08-15T06:30:01.271Z</time>
      </trkpt>
      <trkpt lat="45.55988" lon="4.77136">
        <ele>354</ele>
        <time>2018-08-15T06:30:02.257Z</time>
      </trkpt>
      <trkpt lat="45.55988" lon="4.77136">
        <ele>354</ele>
        <time>2018-08-15T06:30:03.264Z</time>
      </trkpt>
      <trkpt lat="45.55984" lon="4.77129">
        <ele>354</ele>
        <time>2018-08-15T06:30:04.256Z</time>
      </trkpt>
      <trkpt lat="45.55984" lon="4.77129">
        <ele>354</ele>
        <time>2018-08-15T06:30:05.264Z</time>
      </trkpt>
      <trkpt lat="45.55979" lon="4.77122">
        <ele>354</ele>
        <time>2018-08-15T06:30:06.252Z</time>
      </trkpt>
      <trkpt lat="45.55979" lon="4.77122">
        <ele>354</ele>
        <time>2018-08-15T06:30:07.264Z</time>
      </trkpt>
      <trkpt lat="45.55975" lon="4.77115">
        <ele>355</ele>
        <time>2018-08-15T06:30:08.254Z</time>
      </trkpt>
      <trkpt lat="45.55975" lon="4.77115">
        <ele>355</ele>
        <time>2018-08-15T06:30:09.261Z</time>
      </trkpt>
      <trkpt lat="45.55971" lon="4.77108">
        <ele>355</ele>
        <time>2018-08-15T06:30:10.246Z</time>
      </trkpt>
      <trkpt lat="45.55971" lon="4.77108">
        <ele>355</ele>
        <time>2018-08-15T06:30:11.255Z</time>
      </trkpt>
      <trkpt lat="45.55967" lon="4.771">
        <ele>356</ele>
        <time>2018-08-15T06:30:12.244Z</time>
      </trkpt>
      <trkpt lat="45.55967" lon="4.771">
        <ele>356</ele>
        <time>2018-08-15T06:30:13.251Z</time>
      </trkpt>
      <trkpt lat="45.55962" lon="4.77093">
        <ele>357</ele>
        <time>2018-08-15T06:30:14.241Z</time>
      </trkpt>
      <trkpt lat="45.55962" lon="4.77093">
        <ele>357</ele>
        <time>2018-08-15T06:30:15.254Z</time>
      </trkpt>
      <trkpt lat="45.55958" lon="4.77084">
        <ele>357</ele>
        <time>2018-08-15T06:30:16.250Z</time>
      </trkpt>
      <trkpt lat="45.55958" lon="4.77084">
        <ele>357</ele>
        <time>2018-08-15T06:30:17.257Z</time>
      </trkpt>
      <trkpt lat="45.55955" lon="4.77075">
        <ele>358</ele>
        <time>2018-08-15T06:30:18.264Z</time>
      </trkpt>
      <trkpt lat="45.55955" lon="4.77075">
        <ele>358</ele>
        <time>2018-08-15T06:30:19.233Z</time>
      </trkpt>
      <trkpt lat="45.55951" lon="4.77066">
        <ele>358</ele>
        <time>2018-08-15T06:30:20.246Z</time>
      </trkpt>
      <trkpt lat="45.55951" lon="4.77066">
        <ele>358</ele>
        <time>2018-08-15T06:30:21.253Z</time>
      </trkpt>
      <trkpt lat="45.55949" lon="4.77057">
        <ele>358</ele>
        <time>2018-08-15T06:30:22.245Z</time>
      </trkpt>
      <trkpt lat="45.55948" lon="4.77052">
        <ele>358</ele>
        <time>2018-08-15T06:30:23.232Z</time>
      </trkpt>
      <trkpt lat="45.55948" lon="4.77052">
        <ele>358</ele>
        <time>2018-08-15T06:30:24.239Z</time>
      </trkpt>
      <trkpt lat="45.55946" lon="4.77044">
        <ele>359</ele>
        <time>2018-08-15T06:30:25.271Z</time>
      </trkpt>
      <trkpt lat="45.55945" lon="4.77039">
        <ele>359</ele>
        <time>2018-08-15T06:30:26.257Z</time>
      </trkpt>
      <trkpt lat="45.55945" lon="4.77039">
        <ele>359</ele>
        <time>2018-08-15T06:30:27.264Z</time>
      </trkpt>
      <trkpt lat="45.55945" lon="4.7703">
        <ele>359</ele>
        <time>2018-08-15T06:30:28.250Z</time>
      </trkpt>
      <trkpt lat="45.55945" lon="4.7703">
        <ele>359</ele>
        <time>2018-08-15T06:30:29.259Z</time>
      </trkpt>
      <trkpt lat="45.55944" lon="4.77021">
        <ele>359</ele>
        <time>2018-08-15T06:30:30.253Z</time>
      </trkpt>
      <trkpt lat="45.55944" lon="4.77021">
        <ele>359</ele>
        <time>2018-08-15T06:30:31.260Z</time>
      </trkpt>
      <trkpt lat="45.55943" lon="4.77012">
        <ele>359</ele>
        <time>2018-08-15T06:30:32.245Z</time>
      </trkpt>
      <trkpt lat="45.55943" lon="4.77012">
        <ele>359</ele>
        <time>2018-08-15T06:30:33.253Z</time>
      </trkpt>
      <trkpt lat="45.55942" lon="4.77003">
        <ele>359</ele>
        <time>2018-08-15T06:30:34.241Z</time>
      </trkpt>
      <trkpt lat="45.55942" lon="4.77003">
        <ele>359</ele>
        <time>2018-08-15T06:30:35.251Z</time>
      </trkpt>
      <trkpt lat="45.55941" lon="4.76995">
        <ele>359</ele>
        <time>2018-08-15T06:30:36.259Z</time>
      </trkpt>
      <trkpt lat="45.55941" lon="4.76995">
        <ele>359</ele>
        <time>2018-08-15T06:30:37.266Z</time>
      </trkpt>
      <trkpt lat="45.5594" lon="4.76987">
        <ele>360</ele>
        <time>2018-08-15T06:30:38.260Z</time>
      </trkpt>
      <trkpt lat="45.5594" lon="4.76987">
        <ele>360</ele>
        <time>2018-08-15T06:30:39.265Z</time>
      </trkpt>
      <trkpt lat="45.55938" lon="4.76979">
        <ele>361</ele>
        <time>2018-08-15T06:30:40.271Z</time>
      </trkpt>
      <trkpt lat="45.55938" lon="4.76979">
        <ele>361</ele>
        <time>2018-08-15T06:30:41.237Z</time>
      </trkpt>
      <trkpt lat="45.55937" lon="4.76972">
        <ele>361</ele>
        <time>2018-08-15T06:30:42.271Z</time>
      </trkpt>
      <trkpt lat="45.55937" lon="4.76972">
        <ele>361</ele>
        <time>2018-08-15T06:30:43.238Z</time>
      </trkpt>
      <trkpt lat="45.55936" lon="4.76963">
        <ele>361</ele>
        <time>2018-08-15T06:30:44.269Z</time>
      </trkpt>
      <trkpt lat="45.55936" lon="4.76963">
        <ele>361</ele>
        <time>2018-08-15T06:30:45.235Z</time>
      </trkpt>
      <trkpt lat="45.55936" lon="4.76954">
        <ele>361</ele>
        <time>2018-08-15T06:30:46.256Z</time>
      </trkpt>
      <trkpt lat="45.55936" lon="4.76954">
        <ele>361</ele>
        <time>2018-08-15T06:30:47.262Z</time>
      </trkpt>
      <trkpt lat="45.55935" lon="4.76945">
        <ele>362</ele>
        <time>2018-08-15T06:30:48.242Z</time>
      </trkpt>
      <trkpt lat="45.55935" lon="4.76945">
        <ele>362</ele>
        <time>2018-08-15T06:30:49.252Z</time>
      </trkpt>
      <trkpt lat="45.55933" lon="4.76937">
        <ele>363</ele>
        <time>2018-08-15T06:30:50.237Z</time>
      </trkpt>
      <trkpt lat="45.55933" lon="4.76937">
        <ele>363</ele>
        <time>2018-08-15T06:30:51.249Z</time>
      </trkpt>
      <trkpt lat="45.55932" lon="4.76928">
        <ele>363</ele>
        <time>2018-08-15T06:30:52.240Z</time>
      </trkpt>
      <trkpt lat="45.55932" lon="4.76928">
        <ele>363</ele>
        <time>2018-08-15T06:30:53.249Z</time>
      </trkpt>
      <trkpt lat="45.55931" lon="4.76919">
        <ele>365</ele>
        <time>2018-08-15T06:30:54.236Z</time>
      </trkpt>
      <trkpt lat="45.55931" lon="4.76915">
        <ele>365</ele>
        <time>2018-08-15T06:30:55.257Z</time>
      </trkpt>
      <trkpt lat="45.5593" lon="4.76911">
        <ele>366</ele>
        <time>2018-08-15T06:30:56.255Z</time>
      </trkpt>
      <trkpt lat="45.5593" lon="4.76911">
        <ele>366</ele>
        <time>2018-08-15T06:30:57.260Z</time>
      </trkpt>
      <trkpt lat="45.55929" lon="4.76903">
        <ele>367</ele>
        <time>2018-08-15T06:30:58.253Z</time>
      </trkpt>
      <trkpt lat="45.55929" lon="4.76903">
        <ele>367</ele>
        <time>2018-08-15T06:30:59.258Z</time>
      </trkpt>
      <trkpt lat="45.55924" lon="4.76896">
        <ele>367</ele>
        <time>2018-08-15T06:31:00.244Z</time>
      </trkpt>
      <trkpt lat="45.55924" lon="4.76896">
        <ele>367</ele>
        <time>2018-08-15T06:31:01.249Z</time>
      </trkpt>
      <trkpt lat="45.5592" lon="4.76889">
        <ele>367</ele>
        <time>2018-08-15T06:31:02.239Z</time>
      </trkpt>
      <trkpt lat="45.5592" lon="4.76889">
        <ele>367</ele>
        <time>2018-08-15T06:31:03.249Z</time>
      </trkpt>
      <trkpt lat="45.55917" lon="4.76882">
        <ele>367</ele>
        <time>2018-08-15T06:31:04.243Z</time>
      </trkpt>
      <trkpt lat="45.55917" lon="4.76882">
        <ele>367</ele>
        <time>2018-08-15T06:31:05.249Z</time>
      </trkpt>
      <trkpt lat="45.55913" lon="4.76875">
        <ele>367</ele>
        <time>2018-08-15T06:31:06.237Z</time>
      </trkpt>
      <trkpt lat="45.55913" lon="4.76875">
        <ele>367</ele>
        <time>2018-08-15T06:31:07.245Z</time>
      </trkpt>
      <trkpt lat="45.5591" lon="4.76868">
        <ele>367</ele>
        <time>2018-08-15T06:31:08.264Z</time>
      </trkpt>
      <trkpt lat="45.5591" lon="4.76868">
        <ele>367</ele>
        <time>2018-08-15T06:31:09.270Z</time>
      </trkpt>
      <trkpt lat="45.55905" lon="4.76861">
        <ele>367</ele>
        <time>2018-08-15T06:31:10.246Z</time>
      </trkpt>
      <trkpt lat="45.55903" lon="4.76858">
        <ele>367</ele>
        <time>2018-08-15T06:31:11.233Z</time>
      </trkpt>
      <trkpt lat="45.55903" lon="4.76858">
        <ele>367</ele>
        <time>2018-08-15T06:31:12.239Z</time>
      </trkpt>
      <trkpt lat="45.559" lon="4.76851">
        <ele>368</ele>
        <time>2018-08-15T06:31:13.237Z</time>
      </trkpt>
      <trkpt lat="45.55898" lon="4.76848">
        <ele>368</ele>
        <time>2018-08-15T06:31:14.258Z</time>
      </trkpt>
      <trkpt lat="45.55898" lon="4.76848">
        <ele>368</ele>
        <time>2018-08-15T06:31:15.264Z</time>
      </trkpt>
      <trkpt lat="45.55893" lon="4.76841">
        <ele>367</ele>
        <time>2018-08-15T06:31:16.258Z</time>
      </trkpt>
      <trkpt lat="45.55893" lon="4.76841">
        <ele>367</ele>
        <time>2018-08-15T06:31:17.264Z</time>
      </trkpt>
      <trkpt lat="45.55888" lon="4.76835">
        <ele>367</ele>
        <time>2018-08-15T06:31:18.246Z</time>
      </trkpt>
      <trkpt lat="45.55888" lon="4.76835">
        <ele>367</ele>
        <time>2018-08-15T06:31:19.252Z</time>
      </trkpt>
      <trkpt lat="45.55884" lon="4.7683">
        <ele>367</ele>
        <time>2018-08-15T06:31:20.242Z</time>
      </trkpt>
      <trkpt lat="45.55884" lon="4.7683">
        <ele>367</ele>
        <time>2018-08-15T06:31:21.248Z</time>
      </trkpt>
      <trkpt lat="45.55879" lon="4.76825">
        <ele>368</ele>
        <time>2018-08-15T06:31:22.235Z</time>
      </trkpt>
      <trkpt lat="45.55879" lon="4.76825">
        <ele>368</ele>
        <time>2018-08-15T06:31:23.240Z</time>
      </trkpt>
      <trkpt lat="45.55874" lon="4.7682">
        <ele>368</ele>
        <time>2018-08-15T06:31:24.232Z</time>
      </trkpt>
      <trkpt lat="45.55874" lon="4.7682">
        <ele>368</ele>
        <time>2018-08-15T06:31:25.239Z</time>
      </trkpt>
      <trkpt lat="45.55869" lon="4.76815">
        <ele>369</ele>
        <time>2018-08-15T06:31:26.269Z</time>
      </trkpt>
      <trkpt lat="45.55869" lon="4.76815">
        <ele>369</ele>
        <time>2018-08-15T06:31:27.234Z</time>
      </trkpt>
      <trkpt lat="45.55864" lon="4.76809">
        <ele>369</ele>
        <time>2018-08-15T06:31:28.259Z</time>
      </trkpt>
      <trkpt lat="45.55864" lon="4.76809">
        <ele>369</ele>
        <time>2018-08-15T06:31:29.264Z</time>
      </trkpt>
      <trkpt lat="45.5586" lon="4.76804">
        <ele>369</ele>
        <time>2018-08-15T06:31:30.249Z</time>
      </trkpt>
      <trkpt lat="45.55857" lon="4.76801">
        <ele>369</ele>
        <time>2018-08-15T06:31:31.248Z</time>
      </trkpt>
      <trkpt lat="45.55855" lon="4.76798">
        <ele>369</ele>
        <time>2018-08-15T06:31:32.235Z</time>
      </trkpt>
      <trkpt lat="45.55855" lon="4.76798">
        <ele>369</ele>
        <time>2018-08-15T06:31:33.241Z</time>
      </trkpt>
      <trkpt lat="45.5585" lon="4.76793">
        <ele>369</ele>
        <time>2018-08-15T06:31:34.233Z</time>
      </trkpt>
      <trkpt lat="45.55847" lon="4.76791">
        <ele>368</ele>
        <time>2018-08-15T06:31:35.263Z</time>
      </trkpt>
      <trkpt lat="45.55847" lon="4.76791">
        <ele>368</ele>
        <time>2018-08-15T06:31:36.239Z</time>
      </trkpt>
      <trkpt lat="45.55842" lon="4.76785">
        <ele>368</ele>
        <time>2018-08-15T06:31:37.259Z</time>
      </trkpt>
      <trkpt lat="45.5584" lon="4.76782">
        <ele>368</ele>
        <time>2018-08-15T06:31:38.258Z</time>
      </trkpt>
      <trkpt lat="45.5584" lon="4.76782">
        <ele>368</ele>
        <time>2018-08-15T06:31:39.264Z</time>
      </trkpt>
      <trkpt lat="45.55834" lon="4.76778">
        <ele>368</ele>
        <time>2018-08-15T06:31:40.239Z</time>
      </trkpt>
      <trkpt lat="45.55834" lon="4.76778">
        <ele>368</ele>
        <time>2018-08-15T06:31:41.245Z</time>
      </trkpt>
      <trkpt lat="45.55828" lon="4.76773">
        <ele>368</ele>
        <time>2018-08-15T06:31:42.238Z</time>
      </trkpt>
      <trkpt lat="45.55825" lon="4.76771">
        <ele>368</ele>
        <time>2018-08-15T06:31:43.235Z</time>
      </trkpt>
      <trkpt lat="45.55823" lon="4.76768">
        <ele>368</ele>
        <time>2018-08-15T06:31:44.237Z</time>
      </trkpt>
      <trkpt lat="45.55823" lon="4.76768">
        <ele>368</ele>
        <time>2018-08-15T06:31:45.243Z</time>
      </trkpt>
      <trkpt lat="45.55817" lon="4.76762">
        <ele>368</ele>
        <time>2018-08-15T06:31:46.253Z</time>
      </trkpt>
      <trkpt lat="45.55817" lon="4.76762">
        <ele>368</ele>
        <time>2018-08-15T06:31:47.259Z</time>
      </trkpt>
      <trkpt lat="45.55811" lon="4.76757">
        <ele>369</ele>
        <time>2018-08-15T06:31:48.247Z</time>
      </trkpt>
      <trkpt lat="45.55811" lon="4.76757">
        <ele>369</ele>
        <time>2018-08-15T06:31:49.252Z</time>
      </trkpt>
      <trkpt lat="45.55805" lon="4.76751">
        <ele>369</ele>
        <time>2018-08-15T06:31:50.243Z</time>
      </trkpt>
      <trkpt lat="45.55805" lon="4.76751">
        <ele>369</ele>
        <time>2018-08-15T06:31:51.250Z</time>
      </trkpt>
      <trkpt lat="45.55798" lon="4.76745">
        <ele>369</ele>
        <time>2018-08-15T06:31:52.240Z</time>
      </trkpt>
      <trkpt lat="45.55798" lon="4.76745">
        <ele>369</ele>
        <time>2018-08-15T06:31:53.246Z</time>
      </trkpt>
      <trkpt lat="45.55791" lon="4.76739">
        <ele>368</ele>
        <time>2018-08-15T06:31:54.232Z</time>
      </trkpt>
      <trkpt lat="45.55787" lon="4.76737">
        <ele>368</ele>
        <time>2018-08-15T06:31:55.257Z</time>
      </trkpt>
      <trkpt lat="45.55787" lon="4.76737">
        <ele>368</ele>
        <time>2018-08-15T06:31:56.237Z</time>
      </trkpt>
      <trkpt lat="45.55778" lon="4.76731">
        <ele>368</ele>
        <time>2018-08-15T06:31:57.269Z</time>
      </trkpt>
      <trkpt lat="45.55778" lon="4.76731">
        <ele>368</ele>
        <time>2018-08-15T06:31:58.235Z</time>
      </trkpt>
      <trkpt lat="45.55771" lon="4.76723">
        <ele>368</ele>
        <time>2018-08-15T06:31:59.268Z</time>
      </trkpt>
      <trkpt lat="45.55771" lon="4.76723">
        <ele>368</ele>
        <time>2018-08-15T06:32:00.233Z</time>
      </trkpt>
      <trkpt lat="45.55763" lon="4.76716">
        <ele>368</ele>
        <time>2018-08-15T06:32:01.246Z</time>
      </trkpt>
      <trkpt lat="45.55759" lon="4.76714">
        <ele>369</ele>
        <time>2018-08-15T06:32:02.271Z</time>
      </trkpt>
      <trkpt lat="45.55759" lon="4.76714">
        <ele>369</ele>
        <time>2018-08-15T06:32:03.237Z</time>
      </trkpt>
      <trkpt lat="45.55751" lon="4.76708">
        <ele>369</ele>
        <time>2018-08-15T06:32:04.241Z</time>
      </trkpt>
      <trkpt lat="45.55751" lon="4.76708">
        <ele>369</ele>
        <time>2018-08-15T06:32:05.247Z</time>
      </trkpt>
      <trkpt lat="45.55743" lon="4.76701">
        <ele>369</ele>
        <time>2018-08-15T06:32:06.238Z</time>
      </trkpt>
      <trkpt lat="45.55743" lon="4.76701">
        <ele>369</ele>
        <time>2018-08-15T06:32:07.244Z</time>
      </trkpt>
      <trkpt lat="45.55736" lon="4.76693">
        <ele>369</ele>
        <time>2018-08-15T06:32:08.251Z</time>
      </trkpt>
      <trkpt lat="45.55736" lon="4.76693">
        <ele>369</ele>
        <time>2018-08-15T06:32:09.257Z</time>
      </trkpt>
      <trkpt lat="45.55729" lon="4.76685">
        <ele>369</ele>
        <time>2018-08-15T06:32:10.250Z</time>
      </trkpt>
      <trkpt lat="45.55729" lon="4.76685">
        <ele>369</ele>
        <time>2018-08-15T06:32:11.256Z</time>
      </trkpt>
      <trkpt lat="45.55723" lon="4.76676">
        <ele>369</ele>
        <time>2018-08-15T06:32:12.242Z</time>
      </trkpt>
      <trkpt lat="45.55723" lon="4.76676">
        <ele>369</ele>
        <time>2018-08-15T06:32:13.248Z</time>
      </trkpt>
      <trkpt lat="45.55717" lon="4.76666">
        <ele>369</ele>
        <time>2018-08-15T06:32:14.238Z</time>
      </trkpt>
      <trkpt lat="45.55717" lon="4.76666">
        <ele>369</ele>
        <time>2018-08-15T06:32:15.245Z</time>
      </trkpt>
      <trkpt lat="45.55711" lon="4.76656">
        <ele>368</ele>
        <time>2018-08-15T06:32:16.250Z</time>
      </trkpt>
      <trkpt lat="45.55711" lon="4.76656">
        <ele>368</ele>
        <time>2018-08-15T06:32:17.255Z</time>
      </trkpt>
      <trkpt lat="45.55706" lon="4.76646">
        <ele>368</ele>
        <time>2018-08-15T06:32:18.244Z</time>
      </trkpt>
      <trkpt lat="45.55706" lon="4.76646">
        <ele>368</ele>
        <time>2018-08-15T06:32:19.250Z</time>
      </trkpt>
      <trkpt lat="45.55701" lon="4.76636">
        <ele>368</ele>
        <time>2018-08-15T06:32:20.262Z</time>
      </trkpt>
      <trkpt lat="45.55701" lon="4.76636">
        <ele>368</ele>
        <time>2018-08-15T06:32:21.268Z</time>
      </trkpt>
      <trkpt lat="45.55696" lon="4.76627">
        <ele>368</ele>
        <time>2018-08-15T06:32:22.262Z</time>
      </trkpt>
      <trkpt lat="45.55696" lon="4.76627">
        <ele>368</ele>
        <time>2018-08-15T06:32:23.268Z</time>
      </trkpt>
      <trkpt lat="45.55691" lon="4.76618">
        <ele>368</ele>
        <time>2018-08-15T06:32:24.251Z</time>
      </trkpt>
      <trkpt lat="45.55691" lon="4.76618">
        <ele>368</ele>
        <time>2018-08-15T06:32:25.258Z</time>
      </trkpt>
      <trkpt lat="45.55686" lon="4.76609">
        <ele>368</ele>
        <time>2018-08-15T06:32:26.245Z</time>
      </trkpt>
      <trkpt lat="45.55686" lon="4.76609">
        <ele>368</ele>
        <time>2018-08-15T06:32:27.252Z</time>
      </trkpt>
      <trkpt lat="45.55682" lon="4.76601">
        <ele>369</ele>
        <time>2018-08-15T06:32:28.255Z</time>
      </trkpt>
      <trkpt lat="45.55682" lon="4.76601">
        <ele>369</ele>
        <time>2018-08-15T06:32:29.262Z</time>
      </trkpt>
      <trkpt lat="45.55678" lon="4.76592">
        <ele>369</ele>
        <time>2018-08-15T06:32:30.241Z</time>
      </trkpt>
      <trkpt lat="45.55675" lon="4.76588">
        <ele>370</ele>
        <time>2018-08-15T06:32:31.241Z</time>
      </trkpt>
      <trkpt lat="45.55673" lon="4.76584">
        <ele>370</ele>
        <time>2018-08-15T06:32:32.272Z</time>
      </trkpt>
      <trkpt lat="45.55673" lon="4.76584">
        <ele>370</ele>
        <time>2018-08-15T06:32:33.238Z</time>
      </trkpt>
      <trkpt lat="45.55669" lon="4.76575">
        <ele>369</ele>
        <time>2018-08-15T06:32:34.234Z</time>
      </trkpt>
      <trkpt lat="45.55669" lon="4.76575">
        <ele>369</ele>
        <time>2018-08-15T06:32:35.240Z</time>
      </trkpt>
      <trkpt lat="45.55666" lon="4.76567">
        <ele>370</ele>
        <time>2018-08-15T06:32:36.271Z</time>
      </trkpt>
      <trkpt lat="45.55666" lon="4.76567">
        <ele>370</ele>
        <time>2018-08-15T06:32:37.239Z</time>
      </trkpt>
      <trkpt lat="45.55662" lon="4.76559">
        <ele>370</ele>
        <time>2018-08-15T06:32:38.243Z</time>
      </trkpt>
      <trkpt lat="45.55662" lon="4.76559">
        <ele>370</ele>
        <time>2018-08-15T06:32:39.251Z</time>
      </trkpt>
      <trkpt lat="45.55659" lon="4.7655">
        <ele>371</ele>
        <time>2018-08-15T06:32:40.241Z</time>
      </trkpt>
      <trkpt lat="45.55659" lon="4.7655">
        <ele>371</ele>
        <time>2018-08-15T06:32:41.249Z</time>
      </trkpt>
      <trkpt lat="45.55656" lon="4.76542">
        <ele>371</ele>
        <time>2018-08-15T06:32:42.241Z</time>
      </trkpt>
      <trkpt lat="45.55655" lon="4.76537">
        <ele>371</ele>
        <time>2018-08-15T06:32:43.267Z</time>
      </trkpt>
      <trkpt lat="45.55654" lon="4.76533">
        <ele>372</ele>
        <time>2018-08-15T06:32:44.261Z</time>
      </trkpt>
      <trkpt lat="45.55654" lon="4.76533">
        <ele>372</ele>
        <time>2018-08-15T06:32:45.266Z</time>
      </trkpt>
      <trkpt lat="45.55651" lon="4.76525">
        <ele>372</ele>
        <time>2018-08-15T06:32:46.238Z</time>
      </trkpt>
      <trkpt lat="45.55651" lon="4.76525">
        <ele>372</ele>
        <time>2018-08-15T06:32:47.251Z</time>
      </trkpt>
      <trkpt lat="45.55649" lon="4.76516">
        <ele>372</ele>
        <time>2018-08-15T06:32:48.237Z</time>
      </trkpt>
      <trkpt lat="45.55647" lon="4.76512">
        <ele>372</ele>
        <time>2018-08-15T06:32:49.232Z</time>
      </trkpt>
      <trkpt lat="45.55646" lon="4.76508">
        <ele>373</ele>
        <time>2018-08-15T06:32:50.251Z</time>
      </trkpt>
      <trkpt lat="45.55646" lon="4.76508">
        <ele>373</ele>
        <time>2018-08-15T06:32:51.257Z</time>
      </trkpt>
      <trkpt lat="45.55644" lon="4.765">
        <ele>373</ele>
        <time>2018-08-15T06:32:52.252Z</time>
      </trkpt>
      <trkpt lat="45.55644" lon="4.765">
        <ele>373</ele>
        <time>2018-08-15T06:32:53.259Z</time>
      </trkpt>
      <trkpt lat="45.55641" lon="4.76492">
        <ele>373</ele>
        <time>2018-08-15T06:32:54.244Z</time>
      </trkpt>
      <trkpt lat="45.55641" lon="4.76492">
        <ele>373</ele>
        <time>2018-08-15T06:32:55.250Z</time>
      </trkpt>
      <trkpt lat="45.55639" lon="4.76484">
        <ele>373</ele>
        <time>2018-08-15T06:32:56.237Z</time>
      </trkpt>
      <trkpt lat="45.55639" lon="4.76484">
        <ele>373</ele>
        <time>2018-08-15T06:32:57.248Z</time>
      </trkpt>
      <trkpt lat="45.55637" lon="4.76476">
        <ele>374</ele>
        <time>2018-08-15T06:32:58.236Z</time>
      </trkpt>
      <trkpt lat="45.55637" lon="4.76476">
        <ele>374</ele>
        <time>2018-08-15T06:32:59.247Z</time>
      </trkpt>
      <trkpt lat="45.55635" lon="4.76468">
        <ele>374</ele>
        <time>2018-08-15T06:33:00.271Z</time>
      </trkpt>
      <trkpt lat="45.55635" lon="4.76468">
        <ele>374</ele>
        <time>2018-08-15T06:33:01.237Z</time>
      </trkpt>
      <trkpt lat="45.55632" lon="4.76461">
        <ele>374</ele>
        <time>2018-08-15T06:33:02.266Z</time>
      </trkpt>
      <trkpt lat="45.55632" lon="4.76461">
        <ele>374</ele>
        <time>2018-08-15T06:33:03.248Z</time>
      </trkpt>
      <trkpt lat="45.55631" lon="4.76452">
        <ele>375</ele>
        <time>2018-08-15T06:33:04.241Z</time>
      </trkpt>
      <trkpt lat="45.55631" lon="4.76452">
        <ele>375</ele>
        <time>2018-08-15T06:33:05.248Z</time>
      </trkpt>
      <trkpt lat="45.55628" lon="4.76444">
        <ele>375</ele>
        <time>2018-08-15T06:33:06.244Z</time>
      </trkpt>
      <trkpt lat="45.55628" lon="4.76444">
        <ele>375</ele>
        <time>2018-08-15T06:33:07.249Z</time>
      </trkpt>
      <trkpt lat="45.55626" lon="4.76436">
        <ele>375</ele>
        <time>2018-08-15T06:33:08.238Z</time>
      </trkpt>
      <trkpt lat="45.55626" lon="4.76436">
        <ele>375</ele>
        <time>2018-08-15T06:33:09.244Z</time>
      </trkpt>
      <trkpt lat="45.55623" lon="4.76428">
        <ele>376</ele>
        <time>2018-08-15T06:33:10.270Z</time>
      </trkpt>
      <trkpt lat="45.55622" lon="4.76425">
        <ele>376</ele>
        <time>2018-08-15T06:33:11.256Z</time>
      </trkpt>
      <trkpt lat="45.55622" lon="4.76425">
        <ele>376</ele>
        <time>2018-08-15T06:33:12.262Z</time>
      </trkpt>
      <trkpt lat="45.55619" lon="4.76417">
        <ele>376</ele>
        <time>2018-08-15T06:33:13.248Z</time>
      </trkpt>
      <trkpt lat="45.55617" lon="4.76414">
        <ele>376</ele>
        <time>2018-08-15T06:33:14.233Z</time>
      </trkpt>
      <trkpt lat="45.55617" lon="4.76414">
        <ele>376</ele>
        <time>2018-08-15T06:33:15.239Z</time>
      </trkpt>
      <trkpt lat="45.55615" lon="4.76406">
        <ele>376</ele>
        <time>2018-08-15T06:33:16.237Z</time>
      </trkpt>
      <trkpt lat="45.55615" lon="4.76406">
        <ele>376</ele>
        <time>2018-08-15T06:33:17.245Z</time>
      </trkpt>
      <trkpt lat="45.55611" lon="4.76399">
        <ele>377</ele>
        <time>2018-08-15T06:33:18.234Z</time>
      </trkpt>
      <trkpt lat="45.55611" lon="4.76399">
        <ele>377</ele>
        <time>2018-08-15T06:33:19.240Z</time>
      </trkpt>
      <trkpt lat="45.55608" lon="4.76391">
        <ele>377</ele>
        <time>2018-08-15T06:33:20.243Z</time>
      </trkpt>
      <trkpt lat="45.55608" lon="4.76391">
        <ele>377</ele>
        <time>2018-08-15T06:33:21.249Z</time>
      </trkpt>
      <trkpt lat="45.55605" lon="4.76384">
        <ele>377</ele>
        <time>2018-08-15T06:33:22.244Z</time>
      </trkpt>
      <trkpt lat="45.55605" lon="4.76384">
        <ele>377</ele>
        <time>2018-08-15T06:33:23.249Z</time>
      </trkpt>
      <trkpt lat="45.55602" lon="4.76377">
        <ele>378</ele>
        <time>2018-08-15T06:33:24.240Z</time>
      </trkpt>
      <trkpt lat="45.556" lon="4.76374">
        <ele>378</ele>
        <time>2018-08-15T06:33:25.268Z</time>
      </trkpt>
      <trkpt lat="45.55598" lon="4.7637">
        <ele>378</ele>
        <time>2018-08-15T06:33:26.254Z</time>
      </trkpt>
      <trkpt lat="45.55598" lon="4.7637">
        <ele>378</ele>
        <time>2018-08-15T06:33:27.259Z</time>
      </trkpt>
      <trkpt lat="45.55595" lon="4.76363">
        <ele>378</ele>
        <time>2018-08-15T06:33:28.243Z</time>
      </trkpt>
      <trkpt lat="45.55595" lon="4.76363">
        <ele>378</ele>
        <time>2018-08-15T06:33:29.239Z</time>
      </trkpt>
      <trkpt lat="45.55592" lon="4.76355">
        <ele>378</ele>
        <time>2018-08-15T06:33:30.238Z</time>
      </trkpt>
      <trkpt lat="45.55592" lon="4.76355">
        <ele>378</ele>
        <time>2018-08-15T06:33:31.250Z</time>
      </trkpt>
      <trkpt lat="45.55588" lon="4.76347">
        <ele>378</ele>
        <time>2018-08-15T06:33:32.269Z</time>
      </trkpt>
      <trkpt lat="45.55588" lon="4.76347">
        <ele>378</ele>
        <time>2018-08-15T06:33:33.234Z</time>
      </trkpt>
      <trkpt lat="45.55584" lon="4.76339">
        <ele>378</ele>
        <time>2018-08-15T06:33:34.243Z</time>
      </trkpt>
      <trkpt lat="45.55582" lon="4.76335">
        <ele>378</ele>
        <time>2018-08-15T06:33:35.253Z</time>
      </trkpt>
      <trkpt lat="45.5558" lon="4.76331">
        <ele>378</ele>
        <time>2018-08-15T06:33:36.256Z</time>
      </trkpt>
      <trkpt lat="45.5558" lon="4.76331">
        <ele>378</ele>
        <time>2018-08-15T06:33:37.262Z</time>
      </trkpt>
      <trkpt lat="45.55576" lon="4.76324">
        <ele>378</ele>
        <time>2018-08-15T06:33:38.247Z</time>
      </trkpt>
      <trkpt lat="45.55576" lon="4.76324">
        <ele>378</ele>
        <time>2018-08-15T06:33:39.254Z</time>
      </trkpt>
      <trkpt lat="45.55572" lon="4.76316">
        <ele>378</ele>
        <time>2018-08-15T06:33:40.232Z</time>
      </trkpt>
      <trkpt lat="45.55572" lon="4.76316">
        <ele>378</ele>
        <time>2018-08-15T06:33:41.237Z</time>
      </trkpt>
      <trkpt lat="45.55569" lon="4.76308">
        <ele>378</ele>
        <time>2018-08-15T06:33:42.249Z</time>
      </trkpt>
      <trkpt lat="45.55569" lon="4.76308">
        <ele>378</ele>
        <time>2018-08-15T06:33:43.254Z</time>
      </trkpt>
      <trkpt lat="45.55565" lon="4.763">
        <ele>378</ele>
        <time>2018-08-15T06:33:44.236Z</time>
      </trkpt>
      <trkpt lat="45.55565" lon="4.763">
        <ele>378</ele>
        <time>2018-08-15T06:33:45.244Z</time>
      </trkpt>
      <trkpt lat="45.55561" lon="4.76292">
        <ele>378</ele>
        <time>2018-08-15T06:33:46.237Z</time>
      </trkpt>
      <trkpt lat="45.55561" lon="4.76292">
        <ele>378</ele>
        <time>2018-08-15T06:33:47.250Z</time>
      </trkpt>
      <trkpt lat="45.55557" lon="4.76283">
        <ele>378</ele>
        <time>2018-08-15T06:33:48.233Z</time>
      </trkpt>
      <trkpt lat="45.55557" lon="4.76283">
        <ele>378</ele>
        <time>2018-08-15T06:33:49.238Z</time>
      </trkpt>
      <trkpt lat="45.55552" lon="4.76274">
        <ele>378</ele>
        <time>2018-08-15T06:33:50.248Z</time>
      </trkpt>
      <trkpt lat="45.55552" lon="4.76274">
        <ele>378</ele>
        <time>2018-08-15T06:33:51.253Z</time>
      </trkpt>
      <trkpt lat="45.55548" lon="4.76264">
        <ele>378</ele>
        <time>2018-08-15T06:33:52.269Z</time>
      </trkpt>
      <trkpt lat="45.55548" lon="4.76264">
        <ele>378</ele>
        <time>2018-08-15T06:33:53.235Z</time>
      </trkpt>
      <trkpt lat="45.55543" lon="4.76254">
        <ele>378</ele>
        <time>2018-08-15T06:33:54.232Z</time>
      </trkpt>
      <trkpt lat="45.55543" lon="4.76254">
        <ele>378</ele>
        <time>2018-08-15T06:33:55.238Z</time>
      </trkpt>
      <trkpt lat="45.55539" lon="4.76244">
        <ele>378</ele>
        <time>2018-08-15T06:33:56.234Z</time>
      </trkpt>
      <trkpt lat="45.55539" lon="4.76244">
        <ele>378</ele>
        <time>2018-08-15T06:33:57.239Z</time>
      </trkpt>
      <trkpt lat="45.55533" lon="4.76234">
        <ele>378</ele>
        <time>2018-08-15T06:33:58.261Z</time>
      </trkpt>
      <trkpt lat="45.55533" lon="4.76234">
        <ele>378</ele>
        <time>2018-08-15T06:33:59.268Z</time>
      </trkpt>
      <trkpt lat="45.55528" lon="4.76222">
        <ele>378</ele>
        <time>2018-08-15T06:34:00.268Z</time>
      </trkpt>
      <trkpt lat="45.55528" lon="4.76222">
        <ele>378</ele>
        <time>2018-08-15T06:34:01.234Z</time>
      </trkpt>
      <trkpt lat="45.55522" lon="4.7621">
        <ele>378</ele>
        <time>2018-08-15T06:34:02.270Z</time>
      </trkpt>
      <trkpt lat="45.55522" lon="4.7621">
        <ele>378</ele>
        <time>2018-08-15T06:34:03.235Z</time>
      </trkpt>
      <trkpt lat="45.55515" lon="4.76197">
        <ele>378</ele>
        <time>2018-08-15T06:34:04.269Z</time>
      </trkpt>
      <trkpt lat="45.55515" lon="4.76197">
        <ele>378</ele>
        <time>2018-08-15T06:34:05.235Z</time>
      </trkpt>
      <trkpt lat="45.55508" lon="4.76184">
        <ele>378</ele>
        <time>2018-08-15T06:34:06.262Z</time>
      </trkpt>
      <trkpt lat="45.55508" lon="4.76184">
        <ele>378</ele>
        <time>2018-08-15T06:34:07.268Z</time>
      </trkpt>
      <trkpt lat="45.55501" lon="4.7617">
        <ele>378</ele>
        <time>2018-08-15T06:34:08.249Z</time>
      </trkpt>
      <trkpt lat="45.55501" lon="4.7617">
        <ele>378</ele>
        <time>2018-08-15T06:34:09.255Z</time>
      </trkpt>
      <trkpt lat="45.55494" lon="4.76156">
        <ele>377</ele>
        <time>2018-08-15T06:34:10.249Z</time>
      </trkpt>
      <trkpt lat="45.55494" lon="4.76156">
        <ele>377</ele>
        <time>2018-08-15T06:34:11.256Z</time>
      </trkpt>
      <trkpt lat="45.55487" lon="4.76142">
        <ele>377</ele>
        <time>2018-08-15T06:34:12.240Z</time>
      </trkpt>
      <trkpt lat="45.55487" lon="4.76142">
        <ele>377</ele>
        <time>2018-08-15T06:34:13.250Z</time>
      </trkpt>
      <trkpt lat="45.55479" lon="4.76128">
        <ele>377</ele>
        <time>2018-08-15T06:34:14.243Z</time>
      </trkpt>
      <trkpt lat="45.55479" lon="4.76128">
        <ele>377</ele>
        <time>2018-08-15T06:34:15.251Z</time>
      </trkpt>
      <trkpt lat="45.55471" lon="4.76115">
        <ele>377</ele>
        <time>2018-08-15T06:34:16.260Z</time>
      </trkpt>
      <trkpt lat="45.55471" lon="4.76115">
        <ele>377</ele>
        <time>2018-08-15T06:34:17.267Z</time>
      </trkpt>
      <trkpt lat="45.55463" lon="4.76103">
        <ele>376</ele>
        <time>2018-08-15T06:34:18.259Z</time>
      </trkpt>
      <trkpt lat="45.55463" lon="4.76103">
        <ele>376</ele>
        <time>2018-08-15T06:34:19.265Z</time>
      </trkpt>
      <trkpt lat="45.55454" lon="4.7609">
        <ele>376</ele>
        <time>2018-08-15T06:34:20.250Z</time>
      </trkpt>
      <trkpt lat="45.55454" lon="4.7609">
        <ele>376</ele>
        <time>2018-08-15T06:34:21.256Z</time>
      </trkpt>
      <trkpt lat="45.55444" lon="4.76077">
        <ele>375</ele>
        <time>2018-08-15T06:34:22.248Z</time>
      </trkpt>
      <trkpt lat="45.55444" lon="4.76077">
        <ele>375</ele>
        <time>2018-08-15T06:34:23.254Z</time>
      </trkpt>
      <trkpt lat="45.55434" lon="4.76064">
        <ele>374</ele>
        <time>2018-08-15T06:34:24.249Z</time>
      </trkpt>
      <trkpt lat="45.5543" lon="4.76058">
        <ele>374</ele>
        <time>2018-08-15T06:34:25.254Z</time>
      </trkpt>
      <trkpt lat="45.5543" lon="4.76058">
        <ele>374</ele>
        <time>2018-08-15T06:34:26.261Z</time>
      </trkpt>
      <trkpt lat="45.55422" lon="4.76046">
        <ele>374</ele>
        <time>2018-08-15T06:34:27.240Z</time>
      </trkpt>
      <trkpt lat="45.55419" lon="4.76039">
        <ele>374</ele>
        <time>2018-08-15T06:34:28.265Z</time>
      </trkpt>
      <trkpt lat="45.55419" lon="4.76039">
        <ele>374</ele>
        <time>2018-08-15T06:34:29.232Z</time>
      </trkpt>
      <trkpt lat="45.55412" lon="4.76029">
        <ele>374</ele>
        <time>2018-08-15T06:34:30.267Z</time>
      </trkpt>
      <trkpt lat="45.55412" lon="4.76029">
        <ele>374</ele>
        <time>2018-08-15T06:34:31.233Z</time>
      </trkpt>
      <trkpt lat="45.55404" lon="4.76019">
        <ele>374</ele>
        <time>2018-08-15T06:34:32.261Z</time>
      </trkpt>
      <trkpt lat="45.55404" lon="4.76019">
        <ele>374</ele>
        <time>2018-08-15T06:34:33.267Z</time>
      </trkpt>
      <trkpt lat="45.55399" lon="4.76009">
        <ele>374</ele>
        <time>2018-08-15T06:34:34.249Z</time>
      </trkpt>
      <trkpt lat="45.55399" lon="4.76009">
        <ele>374</ele>
        <time>2018-08-15T06:34:35.256Z</time>
      </trkpt>
      <trkpt lat="45.55395" lon="4.76001">
        <ele>374</ele>
        <time>2018-08-15T06:34:36.260Z</time>
      </trkpt>
      <trkpt lat="45.55392" lon="4.75996">
        <ele>374</ele>
        <time>2018-08-15T06:34:37.240Z</time>
      </trkpt>
      <trkpt lat="45.55392" lon="4.75996">
        <ele>374</ele>
        <time>2018-08-15T06:34:38.249Z</time>
      </trkpt>
      <trkpt lat="45.55387" lon="4.7599">
        <ele>374</ele>
        <time>2018-08-15T06:34:39.268Z</time>
      </trkpt>
      <trkpt lat="45.55387" lon="4.7599">
        <ele>374</ele>
        <time>2018-08-15T06:34:40.233Z</time>
      </trkpt>
      <trkpt lat="45.55383" lon="4.75984">
        <ele>374</ele>
        <time>2018-08-15T06:34:41.263Z</time>
      </trkpt>
      <trkpt lat="45.5538" lon="4.75982">
        <ele>374</ele>
        <time>2018-08-15T06:34:42.253Z</time>
      </trkpt>
      <trkpt lat="45.5538" lon="4.75982">
        <ele>374</ele>
        <time>2018-08-15T06:34:43.259Z</time>
      </trkpt>
      <trkpt lat="45.55376" lon="4.75979">
        <ele>375</ele>
        <time>2018-08-15T06:34:44.252Z</time>
      </trkpt>
      <trkpt lat="45.55376" lon="4.75979">
        <ele>375</ele>
        <time>2018-08-15T06:34:45.258Z</time>
      </trkpt>
      <trkpt lat="45.55372" lon="4.75975">
        <ele>376</ele>
        <time>2018-08-15T06:34:46.242Z</time>
      </trkpt>
      <trkpt lat="45.55372" lon="4.75975">
        <ele>376</ele>
        <time>2018-08-15T06:34:47.249Z</time>
      </trkpt>
      <trkpt lat="45.55367" lon="4.75972">
        <ele>376</ele>
        <time>2018-08-15T06:34:48.238Z</time>
      </trkpt>
      <trkpt lat="45.55367" lon="4.75972">
        <ele>376</ele>
        <time>2018-08-15T06:34:49.249Z</time>
      </trkpt>
      <trkpt lat="45.55362" lon="4.75971">
        <ele>378</ele>
        <time>2018-08-15T06:34:50.249Z</time>
      </trkpt>
      <trkpt lat="45.55362" lon="4.75971">
        <ele>378</ele>
        <time>2018-08-15T06:34:51.254Z</time>
      </trkpt>
      <trkpt lat="45.55357" lon="4.7597">
        <ele>379</ele>
        <time>2018-08-15T06:34:52.237Z</time>
      </trkpt>
      <trkpt lat="45.55357" lon="4.7597">
        <ele>379</ele>
        <time>2018-08-15T06:34:53.243Z</time>
      </trkpt>
      <trkpt lat="45.55351" lon="4.75971">
        <ele>379</ele>
        <time>2018-08-15T06:34:54.233Z</time>
      </trkpt>
      <trkpt lat="45.55351" lon="4.75971">
        <ele>379</ele>
        <time>2018-08-15T06:34:55.238Z</time>
      </trkpt>
      <trkpt lat="45.55344" lon="4.75973">
        <ele>380</ele>
        <time>2018-08-15T06:34:56.257Z</time>
      </trkpt>
      <trkpt lat="45.55344" lon="4.75973">
        <ele>380</ele>
        <time>2018-08-15T06:34:57.237Z</time>
      </trkpt>
      <trkpt lat="45.55338" lon="4.75975">
        <ele>381</ele>
        <time>2018-08-15T06:34:58.272Z</time>
      </trkpt>
      <trkpt lat="45.55338" lon="4.75975">
        <ele>381</ele>
        <time>2018-08-15T06:34:59.238Z</time>
      </trkpt>
      <trkpt lat="45.55331" lon="4.75978">
        <ele>381</ele>
        <time>2018-08-15T06:35:00.272Z</time>
      </trkpt>
      <trkpt lat="45.55331" lon="4.75978">
        <ele>381</ele>
        <time>2018-08-15T06:35:01.253Z</time>
      </trkpt>
      <trkpt lat="45.55324" lon="4.7598">
        <ele>382</ele>
        <time>2018-08-15T06:35:02.260Z</time>
      </trkpt>
      <trkpt lat="45.55324" lon="4.7598">
        <ele>382</ele>
        <time>2018-08-15T06:35:03.265Z</time>
      </trkpt>
      <trkpt lat="45.55317" lon="4.75982">
        <ele>382</ele>
        <time>2018-08-15T06:35:04.237Z</time>
      </trkpt>
      <trkpt lat="45.55317" lon="4.75982">
        <ele>382</ele>
        <time>2018-08-15T06:35:05.246Z</time>
      </trkpt>
      <trkpt lat="45.55311" lon="4.75984">
        <ele>382</ele>
        <time>2018-08-15T06:35:06.234Z</time>
      </trkpt>
      <trkpt lat="45.55311" lon="4.75984">
        <ele>382</ele>
        <time>2018-08-15T06:35:07.241Z</time>
      </trkpt>
      <trkpt lat="45.55306" lon="4.75986">
        <ele>383</ele>
        <time>2018-08-15T06:35:08.232Z</time>
      </trkpt>
      <trkpt lat="45.55306" lon="4.75986">
        <ele>383</ele>
        <time>2018-08-15T06:35:09.237Z</time>
      </trkpt>
      <trkpt lat="45.553" lon="4.75986">
        <ele>383</ele>
        <time>2018-08-15T06:35:10.233Z</time>
      </trkpt>
      <trkpt lat="45.55297" lon="4.75986">
        <ele>383</ele>
        <time>2018-08-15T06:35:11.244Z</time>
      </trkpt>
      <trkpt lat="45.55297" lon="4.75986">
        <ele>383</ele>
        <time>2018-08-15T06:35:12.249Z</time>
      </trkpt>
      <trkpt lat="45.55291" lon="4.75986">
        <ele>383</ele>
        <time>2018-08-15T06:35:13.262Z</time>
      </trkpt>
      <trkpt lat="45.55291" lon="4.75986">
        <ele>383</ele>
        <time>2018-08-15T06:35:14.246Z</time>
      </trkpt>
      <trkpt lat="45.55285" lon="4.75986">
        <ele>384</ele>
        <time>2018-08-15T06:35:15.245Z</time>
      </trkpt>
      <trkpt lat="45.55285" lon="4.75986">
        <ele>384</ele>
        <time>2018-08-15T06:35:16.250Z</time>
      </trkpt>
      <trkpt lat="45.55279" lon="4.75986">
        <ele>384</ele>
        <time>2018-08-15T06:35:17.250Z</time>
      </trkpt>
      <trkpt lat="45.55279" lon="4.75986">
        <ele>384</ele>
        <time>2018-08-15T06:35:18.255Z</time>
      </trkpt>
      <trkpt lat="45.55274" lon="4.75985">
        <ele>384</ele>
        <time>2018-08-15T06:35:19.243Z</time>
      </trkpt>
      <trkpt lat="45.55271" lon="4.75984">
        <ele>384</ele>
        <time>2018-08-15T06:35:20.235Z</time>
      </trkpt>
      <trkpt lat="45.55271" lon="4.75984">
        <ele>384</ele>
        <time>2018-08-15T06:35:21.241Z</time>
      </trkpt>
      <trkpt lat="45.55265" lon="4.75982">
        <ele>384</ele>
        <time>2018-08-15T06:35:22.234Z</time>
      </trkpt>
      <trkpt lat="45.55265" lon="4.75982">
        <ele>384</ele>
        <time>2018-08-15T06:35:23.240Z</time>
      </trkpt>
      <trkpt lat="45.55259" lon="4.7598">
        <ele>384</ele>
        <time>2018-08-15T06:35:24.232Z</time>
      </trkpt>
      <trkpt lat="45.55259" lon="4.7598">
        <ele>384</ele>
        <time>2018-08-15T06:35:25.237Z</time>
      </trkpt>
      <trkpt lat="45.55253" lon="4.75978">
        <ele>384</ele>
        <time>2018-08-15T06:35:26.248Z</time>
      </trkpt>
      <trkpt lat="45.55253" lon="4.75978">
        <ele>384</ele>
        <time>2018-08-15T06:35:27.253Z</time>
      </trkpt>
      <trkpt lat="45.55248" lon="4.75975">
        <ele>384</ele>
        <time>2018-08-15T06:35:28.235Z</time>
      </trkpt>
      <trkpt lat="45.55248" lon="4.75975">
        <ele>384</ele>
        <time>2018-08-15T06:35:29.240Z</time>
      </trkpt>
      <trkpt lat="45.55243" lon="4.75972">
        <ele>384</ele>
        <time>2018-08-15T06:35:30.259Z</time>
      </trkpt>
      <trkpt lat="45.55243" lon="4.75972">
        <ele>384</ele>
        <time>2018-08-15T06:35:31.265Z</time>
      </trkpt>
      <trkpt lat="45.55237" lon="4.75968">
        <ele>385</ele>
        <time>2018-08-15T06:35:32.242Z</time>
      </trkpt>
      <trkpt lat="45.55237" lon="4.75968">
        <ele>385</ele>
        <time>2018-08-15T06:35:33.247Z</time>
      </trkpt>
      <trkpt lat="45.55233" lon="4.75963">
        <ele>385</ele>
        <time>2018-08-15T06:35:34.252Z</time>
      </trkpt>
      <trkpt lat="45.5523" lon="4.75961">
        <ele>385</ele>
        <time>2018-08-15T06:35:35.247Z</time>
      </trkpt>
      <trkpt lat="45.55228" lon="4.75959">
        <ele>385</ele>
        <time>2018-08-15T06:35:36.254Z</time>
      </trkpt>
      <trkpt lat="45.55228" lon="4.75959">
        <ele>385</ele>
        <time>2018-08-15T06:35:37.260Z</time>
      </trkpt>
      <trkpt lat="45.55223" lon="4.75954">
        <ele>386</ele>
        <time>2018-08-15T06:35:38.262Z</time>
      </trkpt>
      <trkpt lat="45.55223" lon="4.75954">
        <ele>386</ele>
        <time>2018-08-15T06:35:39.269Z</time>
      </trkpt>
      <trkpt lat="45.5522" lon="4.75949">
        <ele>386</ele>
        <time>2018-08-15T06:35:40.263Z</time>
      </trkpt>
      <trkpt lat="45.5522" lon="4.75949">
        <ele>386</ele>
        <time>2018-08-15T06:35:41.268Z</time>
      </trkpt>
      <trkpt lat="45.55216" lon="4.75943">
        <ele>386</ele>
        <time>2018-08-15T06:35:42.265Z</time>
      </trkpt>
      <trkpt lat="45.55216" lon="4.75943">
        <ele>386</ele>
        <time>2018-08-15T06:35:43.271Z</time>
      </trkpt>
      <trkpt lat="45.55212" lon="4.75938">
        <ele>387</ele>
        <time>2018-08-15T06:35:44.253Z</time>
      </trkpt>
      <trkpt lat="45.55212" lon="4.75938">
        <ele>387</ele>
        <time>2018-08-15T06:35:45.258Z</time>
      </trkpt>
      <trkpt lat="45.55208" lon="4.75932">
        <ele>387</ele>
        <time>2018-08-15T06:35:46.250Z</time>
      </trkpt>
      <trkpt lat="45.55208" lon="4.75932">
        <ele>387</ele>
        <time>2018-08-15T06:35:47.256Z</time>
      </trkpt>
      <trkpt lat="45.55205" lon="4.75926">
        <ele>387</ele>
        <time>2018-08-15T06:35:48.239Z</time>
      </trkpt>
      <trkpt lat="45.55205" lon="4.75926">
        <ele>387</ele>
        <time>2018-08-15T06:35:49.247Z</time>
      </trkpt>
      <trkpt lat="45.55202" lon="4.7592">
        <ele>387</ele>
        <time>2018-08-15T06:35:50.264Z</time>
      </trkpt>
      <trkpt lat="45.55202" lon="4.7592">
        <ele>387</ele>
        <time>2018-08-15T06:35:51.269Z</time>
      </trkpt>
      <trkpt lat="45.55199" lon="4.75915">
        <ele>387</ele>
        <time>2018-08-15T06:35:52.253Z</time>
      </trkpt>
      <trkpt lat="45.55199" lon="4.75915">
        <ele>387</ele>
        <time>2018-08-15T06:35:53.258Z</time>
      </trkpt>
      <trkpt lat="45.55195" lon="4.7591">
        <ele>388</ele>
        <time>2018-08-15T06:35:54.261Z</time>
      </trkpt>
      <trkpt lat="45.55195" lon="4.7591">
        <ele>388</ele>
        <time>2018-08-15T06:35:55.247Z</time>
      </trkpt>
      <trkpt lat="45.55192" lon="4.75905">
        <ele>388</ele>
        <time>2018-08-15T06:35:56.271Z</time>
      </trkpt>
      <trkpt lat="45.55192" lon="4.75905">
        <ele>388</ele>
        <time>2018-08-15T06:35:57.237Z</time>
      </trkpt>
      <trkpt lat="45.55188" lon="4.759">
        <ele>388</ele>
        <time>2018-08-15T06:35:58.268Z</time>
      </trkpt>
      <trkpt lat="45.55188" lon="4.759">
        <ele>388</ele>
        <time>2018-08-15T06:35:59.234Z</time>
      </trkpt>
      <trkpt lat="45.55185" lon="4.75895">
        <ele>389</ele>
        <time>2018-08-15T06:36:00.261Z</time>
      </trkpt>
      <trkpt lat="45.55185" lon="4.75895">
        <ele>389</ele>
        <time>2018-08-15T06:36:01.267Z</time>
      </trkpt>
      <trkpt lat="45.55182" lon="4.75889">
        <ele>389</ele>
        <time>2018-08-15T06:36:02.251Z</time>
      </trkpt>
      <trkpt lat="45.55182" lon="4.75889">
        <ele>389</ele>
        <time>2018-08-15T06:36:03.256Z</time>
      </trkpt>
      <trkpt lat="45.55178" lon="4.75884">
        <ele>389</ele>
        <time>2018-08-15T06:36:04.253Z</time>
      </trkpt>
      <trkpt lat="45.55178" lon="4.75884">
        <ele>389</ele>
        <time>2018-08-15T06:36:05.259Z</time>
      </trkpt>
      <trkpt lat="45.55174" lon="4.7588">
        <ele>390</ele>
        <time>2018-08-15T06:36:06.241Z</time>
      </trkpt>
      <trkpt lat="45.55174" lon="4.7588">
        <ele>390</ele>
        <time>2018-08-15T06:36:07.247Z</time>
      </trkpt>
      <trkpt lat="45.55171" lon="4.75876">
        <ele>389</ele>
        <time>2018-08-15T06:36:08.264Z</time>
      </trkpt>
      <trkpt lat="45.55171" lon="4.75876">
        <ele>389</ele>
        <time>2018-08-15T06:36:09.270Z</time>
      </trkpt>
      <trkpt lat="45.55167" lon="4.75871">
        <ele>390</ele>
        <time>2018-08-15T06:36:10.262Z</time>
      </trkpt>
      <trkpt lat="45.55167" lon="4.75871">
        <ele>390</ele>
        <time>2018-08-15T06:36:11.268Z</time>
      </trkpt>
      <trkpt lat="45.55163" lon="4.75867">
        <ele>390</ele>
        <time>2018-08-15T06:36:12.270Z</time>
      </trkpt>
      <trkpt lat="45.55162" lon="4.75864">
        <ele>390</ele>
        <time>2018-08-15T06:36:13.266Z</time>
      </trkpt>
      <trkpt lat="45.55162" lon="4.75864">
        <ele>390</ele>
        <time>2018-08-15T06:36:14.232Z</time>
      </trkpt>
      <trkpt lat="45.55158" lon="4.7586">
        <ele>390</ele>
        <time>2018-08-15T06:36:15.268Z</time>
      </trkpt>
      <trkpt lat="45.55158" lon="4.7586">
        <ele>390</ele>
        <time>2018-08-15T06:36:16.233Z</time>
      </trkpt>
      <trkpt lat="45.55153" lon="4.75856">
        <ele>391</ele>
        <time>2018-08-15T06:36:17.258Z</time>
      </trkpt>
      <trkpt lat="45.55153" lon="4.75856">
        <ele>391</ele>
        <time>2018-08-15T06:36:18.264Z</time>
      </trkpt>
      <trkpt lat="45.55149" lon="4.75853">
        <ele>391</ele>
        <time>2018-08-15T06:36:19.245Z</time>
      </trkpt>
      <trkpt lat="45.55147" lon="4.75851">
        <ele>391</ele>
        <time>2018-08-15T06:36:20.269Z</time>
      </trkpt>
      <trkpt lat="45.55147" lon="4.75851">
        <ele>391</ele>
        <time>2018-08-15T06:36:21.235Z</time>
      </trkpt>
      <trkpt lat="45.55143" lon="4.75847">
        <ele>392</ele>
        <time>2018-08-15T06:36:22.267Z</time>
      </trkpt>
      <trkpt lat="45.5514" lon="4.75846">
        <ele>392</ele>
        <time>2018-08-15T06:36:23.252Z</time>
      </trkpt>
      <trkpt lat="45.55139" lon="4.75844">
        <ele>392</ele>
        <time>2018-08-15T06:36:24.237Z</time>
      </trkpt>
      <trkpt lat="45.55139" lon="4.75844">
        <ele>392</ele>
        <time>2018-08-15T06:36:25.244Z</time>
      </trkpt>
      <trkpt lat="45.55134" lon="4.75841">
        <ele>393</ele>
        <time>2018-08-15T06:36:26.245Z</time>
      </trkpt>
      <trkpt lat="45.55134" lon="4.75841">
        <ele>393</ele>
        <time>2018-08-15T06:36:27.251Z</time>
      </trkpt>
      <trkpt lat="45.55131" lon="4.75837">
        <ele>393</ele>
        <time>2018-08-15T06:36:28.235Z</time>
      </trkpt>
      <trkpt lat="45.55131" lon="4.75837">
        <ele>393</ele>
        <time>2018-08-15T06:36:29.240Z</time>
      </trkpt>
      <trkpt lat="45.55126" lon="4.75833">
        <ele>394</ele>
        <time>2018-08-15T06:36:30.261Z</time>
      </trkpt>
      <trkpt lat="45.55126" lon="4.75833">
        <ele>394</ele>
        <time>2018-08-15T06:36:31.267Z</time>
      </trkpt>
      <trkpt lat="45.55121" lon="4.75829">
        <ele>394</ele>
        <time>2018-08-15T06:36:32.258Z</time>
      </trkpt>
      <trkpt lat="45.55121" lon="4.75829">
        <ele>394</ele>
        <time>2018-08-15T06:36:33.264Z</time>
      </trkpt>
      <trkpt lat="45.55117" lon="4.75825">
        <ele>395</ele>
        <time>2018-08-15T06:36:34.244Z</time>
      </trkpt>
      <trkpt lat="45.55117" lon="4.75825">
        <ele>395</ele>
        <time>2018-08-15T06:36:35.249Z</time>
      </trkpt>
      <trkpt lat="45.55112" lon="4.75822">
        <ele>396</ele>
        <time>2018-08-15T06:36:36.251Z</time>
      </trkpt>
      <trkpt lat="45.55112" lon="4.75822">
        <ele>396</ele>
        <time>2018-08-15T06:36:37.258Z</time>
      </trkpt>
      <trkpt lat="45.5511" lon="4.75819">
        <ele>397</ele>
        <time>2018-08-15T06:36:38.236Z</time>
      </trkpt>
      <trkpt lat="45.5511" lon="4.75819">
        <ele>397</ele>
        <time>2018-08-15T06:36:39.256Z</time>
      </trkpt>
      <trkpt lat="45.55107" lon="4.75816">
        <ele>398</ele>
        <time>2018-08-15T06:36:40.253Z</time>
      </trkpt>
      <trkpt lat="45.55107" lon="4.75816">
        <ele>398</ele>
        <time>2018-08-15T06:36:41.258Z</time>
      </trkpt>
      <trkpt lat="45.55103" lon="4.75812">
        <ele>399</ele>
        <time>2018-08-15T06:36:42.256Z</time>
      </trkpt>
      <trkpt lat="45.55103" lon="4.75812">
        <ele>399</ele>
        <time>2018-08-15T06:36:43.261Z</time>
      </trkpt>
      <trkpt lat="45.55102" lon="4.75807">
        <ele>400</ele>
        <time>2018-08-15T06:36:44.246Z</time>
      </trkpt>
      <trkpt lat="45.55102" lon="4.75807">
        <ele>400</ele>
        <time>2018-08-15T06:36:45.265Z</time>
      </trkpt>
      <trkpt lat="45.55099" lon="4.75802">
        <ele>400</ele>
        <time>2018-08-15T06:36:46.244Z</time>
      </trkpt>
      <trkpt lat="45.55098" lon="4.758">
        <ele>400</ele>
        <time>2018-08-15T06:36:47.264Z</time>
      </trkpt>
      <trkpt lat="45.55098" lon="4.758">
        <ele>400</ele>
        <time>2018-08-15T06:36:48.269Z</time>
      </trkpt>
      <trkpt lat="45.55094" lon="4.75795">
        <ele>401</ele>
        <time>2018-08-15T06:36:49.235Z</time>
      </trkpt>
      <trkpt lat="45.55092" lon="4.75792">
        <ele>401</ele>
        <time>2018-08-15T06:36:50.262Z</time>
      </trkpt>
      <trkpt lat="45.55092" lon="4.75792">
        <ele>401</ele>
        <time>2018-08-15T06:36:51.269Z</time>
      </trkpt>
      <trkpt lat="45.55088" lon="4.75786">
        <ele>401</ele>
        <time>2018-08-15T06:36:52.263Z</time>
      </trkpt>
      <trkpt lat="45.55088" lon="4.75786">
        <ele>401</ele>
        <time>2018-08-15T06:36:53.268Z</time>
      </trkpt>
      <trkpt lat="45.55085" lon="4.75781">
        <ele>401</ele>
        <time>2018-08-15T06:36:54.263Z</time>
      </trkpt>
      <trkpt lat="45.55085" lon="4.75781">
        <ele>401</ele>
        <time>2018-08-15T06:36:55.235Z</time>
      </trkpt>
      <trkpt lat="45.55082" lon="4.75775">
        <ele>402</ele>
        <time>2018-08-15T06:36:56.261Z</time>
      </trkpt>
      <trkpt lat="45.55082" lon="4.75775">
        <ele>402</ele>
        <time>2018-08-15T06:36:57.266Z</time>
      </trkpt>
      <trkpt lat="45.55079" lon="4.75769">
        <ele>402</ele>
        <time>2018-08-15T06:36:58.240Z</time>
      </trkpt>
      <trkpt lat="45.55079" lon="4.75769">
        <ele>402</ele>
        <time>2018-08-15T06:36:59.246Z</time>
      </trkpt>
      <trkpt lat="45.55076" lon="4.75763">
        <ele>403</ele>
        <time>2018-08-15T06:37:00.246Z</time>
      </trkpt>
      <trkpt lat="45.55076" lon="4.75763">
        <ele>403</ele>
        <time>2018-08-15T06:37:01.252Z</time>
      </trkpt>
      <trkpt lat="45.55073" lon="4.75757">
        <ele>403</ele>
        <time>2018-08-15T06:37:02.254Z</time>
      </trkpt>
      <trkpt lat="45.55073" lon="4.75757">
        <ele>403</ele>
        <time>2018-08-15T06:37:03.259Z</time>
      </trkpt>
      <trkpt lat="45.5507" lon="4.75751">
        <ele>403</ele>
        <time>2018-08-15T06:37:04.254Z</time>
      </trkpt>
      <trkpt lat="45.5507" lon="4.75751">
        <ele>403</ele>
        <time>2018-08-15T06:37:05.260Z</time>
      </trkpt>
      <trkpt lat="45.55068" lon="4.75745">
        <ele>403</ele>
        <time>2018-08-15T06:37:06.254Z</time>
      </trkpt>
      <trkpt lat="45.55068" lon="4.75745">
        <ele>403</ele>
        <time>2018-08-15T06:37:07.260Z</time>
      </trkpt>
      <trkpt lat="45.55066" lon="4.75739">
        <ele>403</ele>
        <time>2018-08-15T06:37:08.243Z</time>
      </trkpt>
      <trkpt lat="45.55066" lon="4.75739">
        <ele>403</ele>
        <time>2018-08-15T06:37:09.249Z</time>
      </trkpt>
      <trkpt lat="45.55065" lon="4.75732">
        <ele>403</ele>
        <time>2018-08-15T06:37:10.271Z</time>
      </trkpt>
      <trkpt lat="45.55065" lon="4.75732">
        <ele>403</ele>
        <time>2018-08-15T06:37:11.236Z</time>
      </trkpt>
      <trkpt lat="45.55063" lon="4.75726">
        <ele>403</ele>
        <time>2018-08-15T06:37:12.258Z</time>
      </trkpt>
      <trkpt lat="45.55063" lon="4.75726">
        <ele>403</ele>
        <time>2018-08-15T06:37:13.263Z</time>
      </trkpt>
      <trkpt lat="45.55062" lon="4.7572">
        <ele>403</ele>
        <time>2018-08-15T06:37:14.262Z</time>
      </trkpt>
      <trkpt lat="45.55062" lon="4.7572">
        <ele>403</ele>
        <time>2018-08-15T06:37:15.268Z</time>
      </trkpt>
      <trkpt lat="45.55061" lon="4.75713">
        <ele>403</ele>
        <time>2018-08-15T06:37:16.254Z</time>
      </trkpt>
      <trkpt lat="45.55061" lon="4.75713">
        <ele>403</ele>
        <time>2018-08-15T06:37:17.259Z</time>
      </trkpt>
      <trkpt lat="45.5506" lon="4.75707">
        <ele>403</ele>
        <time>2018-08-15T06:37:18.251Z</time>
      </trkpt>
      <trkpt lat="45.55059" lon="4.75703">
        <ele>403</ele>
        <time>2018-08-15T06:37:19.242Z</time>
      </trkpt>
      <trkpt lat="45.55059" lon="4.757">
        <ele>403</ele>
        <time>2018-08-15T06:37:20.270Z</time>
      </trkpt>
      <trkpt lat="45.55059" lon="4.757">
        <ele>403</ele>
        <time>2018-08-15T06:37:21.236Z</time>
      </trkpt>
      <trkpt lat="45.55059" lon="4.75693">
        <ele>403</ele>
        <time>2018-08-15T06:37:22.271Z</time>
      </trkpt>
      <trkpt lat="45.55059" lon="4.75693">
        <ele>403</ele>
        <time>2018-08-15T06:37:23.237Z</time>
      </trkpt>
      <trkpt lat="45.55059" lon="4.75686">
        <ele>403</ele>
        <time>2018-08-15T06:37:24.270Z</time>
      </trkpt>
      <trkpt lat="45.55059" lon="4.75686">
        <ele>403</ele>
        <time>2018-08-15T06:37:25.237Z</time>
      </trkpt>
      <trkpt lat="45.55059" lon="4.75679">
        <ele>403</ele>
        <time>2018-08-15T06:37:26.233Z</time>
      </trkpt>
      <trkpt lat="45.55058" lon="4.75675">
        <ele>403</ele>
        <time>2018-08-15T06:37:27.243Z</time>
      </trkpt>
      <trkpt lat="45.55058" lon="4.75675">
        <ele>403</ele>
        <time>2018-08-15T06:37:28.249Z</time>
      </trkpt>
      <trkpt lat="45.55058" lon="4.75669">
        <ele>403</ele>
        <time>2018-08-15T06:37:29.269Z</time>
      </trkpt>
      <trkpt lat="45.55058" lon="4.75669">
        <ele>403</ele>
        <time>2018-08-15T06:37:30.233Z</time>
      </trkpt>
      <trkpt lat="45.55057" lon="4.75662">
        <ele>404</ele>
        <time>2018-08-15T06:37:31.253Z</time>
      </trkpt>
      <trkpt lat="45.55057" lon="4.75659">
        <ele>404</ele>
        <time>2018-08-15T06:37:32.242Z</time>
      </trkpt>
      <trkpt lat="45.55057" lon="4.75659">
        <ele>404</ele>
        <time>2018-08-15T06:37:33.248Z</time>
      </trkpt>
      <trkpt lat="45.55056" lon="4.75652">
        <ele>404</ele>
        <time>2018-08-15T06:37:34.240Z</time>
      </trkpt>
      <trkpt lat="45.55056" lon="4.75652">
        <ele>404</ele>
        <time>2018-08-15T06:37:35.247Z</time>
      </trkpt>
      <trkpt lat="45.55055" lon="4.75646">
        <ele>404</ele>
        <time>2018-08-15T06:37:36.242Z</time>
      </trkpt>
      <trkpt lat="45.55055" lon="4.75642">
        <ele>404</ele>
        <time>2018-08-15T06:37:37.261Z</time>
      </trkpt>
      <trkpt lat="45.55054" lon="4.75639">
        <ele>405</ele>
        <time>2018-08-15T06:37:38.263Z</time>
      </trkpt>
      <trkpt lat="45.55054" lon="4.75639">
        <ele>405</ele>
        <time>2018-08-15T06:37:39.233Z</time>
      </trkpt>
      <trkpt lat="45.55053" lon="4.75632">
        <ele>404</ele>
        <time>2018-08-15T06:37:40.269Z</time>
      </trkpt>
      <trkpt lat="45.55053" lon="4.75632">
        <ele>404</ele>
        <time>2018-08-15T06:37:41.247Z</time>
      </trkpt>
      <trkpt lat="45.55052" lon="4.75625">
        <ele>405</ele>
        <time>2018-08-15T06:37:42.270Z</time>
      </trkpt>
      <trkpt lat="45.55052" lon="4.75625">
        <ele>405</ele>
        <time>2018-08-15T06:37:43.235Z</time>
      </trkpt>
      <trkpt lat="45.55051" lon="4.75619">
        <ele>406</ele>
        <time>2018-08-15T06:37:44.254Z</time>
      </trkpt>
      <trkpt lat="45.55051" lon="4.75619">
        <ele>406</ele>
        <time>2018-08-15T06:37:45.260Z</time>
      </trkpt>
      <trkpt lat="45.5505" lon="4.75613">
        <ele>407</ele>
        <time>2018-08-15T06:37:46.263Z</time>
      </trkpt>
      <trkpt lat="45.5505" lon="4.75613">
        <ele>407</ele>
        <time>2018-08-15T06:37:47.268Z</time>
      </trkpt>
      <trkpt lat="45.55048" lon="4.75607">
        <ele>407</ele>
        <time>2018-08-15T06:37:48.253Z</time>
      </trkpt>
      <trkpt lat="45.55047" lon="4.75604">
        <ele>408</ele>
        <time>2018-08-15T06:37:49.259Z</time>
      </trkpt>
      <trkpt lat="45.55047" lon="4.75601">
        <ele>408</ele>
        <time>2018-08-15T06:37:50.251Z</time>
      </trkpt>
      <trkpt lat="45.55047" lon="4.75601">
        <ele>408</ele>
        <time>2018-08-15T06:37:51.256Z</time>
      </trkpt>
      <trkpt lat="45.55045" lon="4.75595">
        <ele>408</ele>
        <time>2018-08-15T06:37:52.242Z</time>
      </trkpt>
      <trkpt lat="45.55044" lon="4.75591">
        <ele>408</ele>
        <time>2018-08-15T06:37:53.238Z</time>
      </trkpt>
      <trkpt lat="45.55044" lon="4.75591">
        <ele>408</ele>
        <time>2018-08-15T06:37:54.243Z</time>
      </trkpt>
      <trkpt lat="45.55042" lon="4.75585">
        <ele>408</ele>
        <time>2018-08-15T06:37:55.271Z</time>
      </trkpt>
      <trkpt lat="45.55041" lon="4.75582">
        <ele>408</ele>
        <time>2018-08-15T06:37:56.253Z</time>
      </trkpt>
      <trkpt lat="45.55041" lon="4.75582">
        <ele>408</ele>
        <time>2018-08-15T06:37:57.259Z</time>
      </trkpt>
      <trkpt lat="45.55039" lon="4.75575">
        <ele>408</ele>
        <time>2018-08-15T06:37:58.242Z</time>
      </trkpt>
      <trkpt lat="45.55039" lon="4.75575">
        <ele>408</ele>
        <time>2018-08-15T06:37:59.247Z</time>
      </trkpt>
      <trkpt lat="45.55038" lon="4.75569">
        <ele>408</ele>
        <time>2018-08-15T06:38:00.242Z</time>
      </trkpt>
      <trkpt lat="45.55038" lon="4.75569">
        <ele>408</ele>
        <time>2018-08-15T06:38:01.247Z</time>
      </trkpt>
      <trkpt lat="45.55036" lon="4.75562">
        <ele>409</ele>
        <time>2018-08-15T06:38:02.233Z</time>
      </trkpt>
      <trkpt lat="45.55036" lon="4.75562">
        <ele>409</ele>
        <time>2018-08-15T06:38:03.241Z</time>
      </trkpt>
      <trkpt lat="45.55035" lon="4.75555">
        <ele>409</ele>
        <time>2018-08-15T06:38:04.233Z</time>
      </trkpt>
      <trkpt lat="45.55035" lon="4.75555">
        <ele>409</ele>
        <time>2018-08-15T06:38:05.238Z</time>
      </trkpt>
      <trkpt lat="45.55035" lon="4.75548">
        <ele>409</ele>
        <time>2018-08-15T06:38:06.254Z</time>
      </trkpt>
      <trkpt lat="45.55035" lon="4.75548">
        <ele>409</ele>
        <time>2018-08-15T06:38:07.259Z</time>
      </trkpt>
      <trkpt lat="45.55035" lon="4.75541">
        <ele>409</ele>
        <time>2018-08-15T06:38:08.242Z</time>
      </trkpt>
      <trkpt lat="45.55035" lon="4.75541">
        <ele>409</ele>
        <time>2018-08-15T06:38:09.248Z</time>
      </trkpt>
      <trkpt lat="45.55035" lon="4.75533">
        <ele>409</ele>
        <time>2018-08-15T06:38:10.240Z</time>
      </trkpt>
      <trkpt lat="45.55035" lon="4.75533">
        <ele>409</ele>
        <time>2018-08-15T06:38:11.245Z</time>
      </trkpt>
      <trkpt lat="45.55035" lon="4.75526">
        <ele>409</ele>
        <time>2018-08-15T06:38:12.243Z</time>
      </trkpt>
      <trkpt lat="45.55035" lon="4.75526">
        <ele>409</ele>
        <time>2018-08-15T06:38:13.249Z</time>
      </trkpt>
      <trkpt lat="45.55036" lon="4.75519">
        <ele>409</ele>
        <time>2018-08-15T06:38:14.271Z</time>
      </trkpt>
      <trkpt lat="45.55036" lon="4.75519">
        <ele>409</ele>
        <time>2018-08-15T06:38:15.237Z</time>
      </trkpt>
      <trkpt lat="45.55037" lon="4.75512">
        <ele>409</ele>
        <time>2018-08-15T06:38:16.232Z</time>
      </trkpt>
      <trkpt lat="45.55037" lon="4.75512">
        <ele>409</ele>
        <time>2018-08-15T06:38:17.238Z</time>
      </trkpt>
      <trkpt lat="45.55038" lon="4.75505">
        <ele>410</ele>
        <time>2018-08-15T06:38:18.242Z</time>
      </trkpt>
      <trkpt lat="45.55039" lon="4.75502">
        <ele>410</ele>
        <time>2018-08-15T06:38:19.264Z</time>
      </trkpt>
      <trkpt lat="45.55039" lon="4.75502">
        <ele>410</ele>
        <time>2018-08-15T06:38:20.269Z</time>
      </trkpt>
      <trkpt lat="45.5504" lon="4.75495">
        <ele>410</ele>
        <time>2018-08-15T06:38:21.253Z</time>
      </trkpt>
      <trkpt lat="45.5504" lon="4.75495">
        <ele>410</ele>
        <time>2018-08-15T06:38:22.258Z</time>
      </trkpt>
      <trkpt lat="45.55041" lon="4.75488">
        <ele>410</ele>
        <time>2018-08-15T06:38:23.271Z</time>
      </trkpt>
      <trkpt lat="45.55041" lon="4.75485">
        <ele>410</ele>
        <time>2018-08-15T06:38:24.256Z</time>
      </trkpt>
      <trkpt lat="45.55041" lon="4.75485">
        <ele>410</ele>
        <time>2018-08-15T06:38:25.262Z</time>
      </trkpt>
      <trkpt lat="45.55042" lon="4.75479">
        <ele>411</ele>
        <time>2018-08-15T06:38:26.258Z</time>
      </trkpt>
      <trkpt lat="45.55042" lon="4.75479">
        <ele>411</ele>
        <time>2018-08-15T06:38:27.263Z</time>
      </trkpt>
      <trkpt lat="45.55043" lon="4.75472">
        <ele>411</ele>
        <time>2018-08-15T06:38:28.243Z</time>
      </trkpt>
      <trkpt lat="45.55043" lon="4.75472">
        <ele>411</ele>
        <time>2018-08-15T06:38:29.264Z</time>
      </trkpt>
      <trkpt lat="45.55043" lon="4.75465">
        <ele>411</ele>
        <time>2018-08-15T06:38:30.249Z</time>
      </trkpt>
      <trkpt lat="45.55043" lon="4.75465">
        <ele>411</ele>
        <time>2018-08-15T06:38:31.255Z</time>
      </trkpt>
      <trkpt lat="45.55044" lon="4.75458">
        <ele>411</ele>
        <time>2018-08-15T06:38:32.243Z</time>
      </trkpt>
      <trkpt lat="45.55044" lon="4.75458">
        <ele>411</ele>
        <time>2018-08-15T06:38:33.248Z</time>
      </trkpt>
      <trkpt lat="45.55045" lon="4.75451">
        <ele>411</ele>
        <time>2018-08-15T06:38:34.272Z</time>
      </trkpt>
      <trkpt lat="45.55045" lon="4.75451">
        <ele>411</ele>
        <time>2018-08-15T06:38:35.238Z</time>
      </trkpt>
      <trkpt lat="45.55045" lon="4.75445">
        <ele>412</ele>
        <time>2018-08-15T06:38:36.259Z</time>
      </trkpt>
      <trkpt lat="45.55045" lon="4.75445">
        <ele>412</ele>
        <time>2018-08-15T06:38:37.265Z</time>
      </trkpt>
      <trkpt lat="45.55044" lon="4.75438">
        <ele>412</ele>
        <time>2018-08-15T06:38:38.269Z</time>
      </trkpt>
      <trkpt lat="45.55044" lon="4.75438">
        <ele>412</ele>
        <time>2018-08-15T06:38:39.234Z</time>
      </trkpt>
      <trkpt lat="45.55044" lon="4.75432">
        <ele>412</ele>
        <time>2018-08-15T06:38:40.243Z</time>
      </trkpt>
      <trkpt lat="45.55044" lon="4.75432">
        <ele>412</ele>
        <time>2018-08-15T06:38:41.248Z</time>
      </trkpt>
      <trkpt lat="45.55043" lon="4.75425">
        <ele>413</ele>
        <time>2018-08-15T06:38:42.239Z</time>
      </trkpt>
      <trkpt lat="45.55043" lon="4.75425">
        <ele>413</ele>
        <time>2018-08-15T06:38:43.246Z</time>
      </trkpt>
      <trkpt lat="45.55041" lon="4.75419">
        <ele>413</ele>
        <time>2018-08-15T06:38:44.238Z</time>
      </trkpt>
      <trkpt lat="45.55041" lon="4.75419">
        <ele>413</ele>
        <time>2018-08-15T06:38:45.244Z</time>
      </trkpt>
      <trkpt lat="45.55039" lon="4.75413">
        <ele>413</ele>
        <time>2018-08-15T06:38:46.263Z</time>
      </trkpt>
      <trkpt lat="45.55039" lon="4.75413">
        <ele>413</ele>
        <time>2018-08-15T06:38:47.268Z</time>
      </trkpt>
      <trkpt lat="45.55038" lon="4.75406">
        <ele>413</ele>
        <time>2018-08-15T06:38:48.264Z</time>
      </trkpt>
      <trkpt lat="45.55038" lon="4.75406">
        <ele>413</ele>
        <time>2018-08-15T06:38:49.269Z</time>
      </trkpt>
      <trkpt lat="45.55035" lon="4.754">
        <ele>414</ele>
        <time>2018-08-15T06:38:50.271Z</time>
      </trkpt>
      <trkpt lat="45.55035" lon="4.754">
        <ele>414</ele>
        <time>2018-08-15T06:38:51.246Z</time>
      </trkpt>
      <trkpt lat="45.55033" lon="4.75394">
        <ele>414</ele>
        <time>2018-08-15T06:38:52.246Z</time>
      </trkpt>
      <trkpt lat="45.55033" lon="4.75394">
        <ele>414</ele>
        <time>2018-08-15T06:38:53.251Z</time>
      </trkpt>
      <trkpt lat="45.5503" lon="4.75389">
        <ele>415</ele>
        <time>2018-08-15T06:38:54.245Z</time>
      </trkpt>
      <trkpt lat="45.5503" lon="4.75389">
        <ele>415</ele>
        <time>2018-08-15T06:38:55.251Z</time>
      </trkpt>
      <trkpt lat="45.55027" lon="4.75383">
        <ele>415</ele>
        <time>2018-08-15T06:38:56.256Z</time>
      </trkpt>
      <trkpt lat="45.55026" lon="4.75381">
        <ele>415</ele>
        <time>2018-08-15T06:38:57.238Z</time>
      </trkpt>
      <trkpt lat="45.55026" lon="4.75381">
        <ele>415</ele>
        <time>2018-08-15T06:38:58.247Z</time>
      </trkpt>
      <trkpt lat="45.55023" lon="4.75376">
        <ele>416</ele>
        <time>2018-08-15T06:38:59.234Z</time>
      </trkpt>
      <trkpt lat="45.55023" lon="4.75376">
        <ele>416</ele>
        <time>2018-08-15T06:39:00.247Z</time>
      </trkpt>
      <trkpt lat="45.55019" lon="4.75371">
        <ele>416</ele>
        <time>2018-08-15T06:39:01.259Z</time>
      </trkpt>
      <trkpt lat="45.55017" lon="4.75369">
        <ele>417</ele>
        <time>2018-08-15T06:39:02.236Z</time>
      </trkpt>
      <trkpt lat="45.55017" lon="4.75369">
        <ele>417</ele>
        <time>2018-08-15T06:39:03.242Z</time>
      </trkpt>
      <trkpt lat="45.55013" lon="4.75364">
        <ele>417</ele>
        <time>2018-08-15T06:39:04.238Z</time>
      </trkpt>
      <trkpt lat="45.55013" lon="4.75364">
        <ele>417</ele>
        <time>2018-08-15T06:39:05.246Z</time>
      </trkpt>
      <trkpt lat="45.55009" lon="4.7536">
        <ele>417</ele>
        <time>2018-08-15T06:39:06.270Z</time>
      </trkpt>
      <trkpt lat="45.55009" lon="4.7536">
        <ele>417</ele>
        <time>2018-08-15T06:39:07.235Z</time>
      </trkpt>
      <trkpt lat="45.55006" lon="4.75356">
        <ele>417</ele>
        <time>2018-08-15T06:39:08.260Z</time>
      </trkpt>
      <trkpt lat="45.55006" lon="4.75356">
        <ele>417</ele>
        <time>2018-08-15T06:39:09.265Z</time>
      </trkpt>
      <trkpt lat="45.55002" lon="4.75352">
        <ele>418</ele>
        <time>2018-08-15T06:39:10.252Z</time>
      </trkpt>
      <trkpt lat="45.55" lon="4.75351">
        <ele>418</ele>
        <time>2018-08-15T06:39:11.242Z</time>
      </trkpt>
      <trkpt lat="45.55" lon="4.75351">
        <ele>418</ele>
        <time>2018-08-15T06:39:12.249Z</time>
      </trkpt>
      <trkpt lat="45.54997" lon="4.75347">
        <ele>418</ele>
        <time>2018-08-15T06:39:13.239Z</time>
      </trkpt>
      <trkpt lat="45.54997" lon="4.75347">
        <ele>418</ele>
        <time>2018-08-15T06:39:14.259Z</time>
      </trkpt>
      <trkpt lat="45.54993" lon="4.75344">
        <ele>418</ele>
        <time>2018-08-15T06:39:15.241Z</time>
      </trkpt>
      <trkpt lat="45.54993" lon="4.75344">
        <ele>418</ele>
        <time>2018-08-15T06:39:16.247Z</time>
      </trkpt>
      <trkpt lat="45.54988" lon="4.75341">
        <ele>419</ele>
        <time>2018-08-15T06:39:17.271Z</time>
      </trkpt>
      <trkpt lat="45.54988" lon="4.75341">
        <ele>419</ele>
        <time>2018-08-15T06:39:18.237Z</time>
      </trkpt>
      <trkpt lat="45.54983" lon="4.75338">
        <ele>419</ele>
        <time>2018-08-15T06:39:19.268Z</time>
      </trkpt>
      <trkpt lat="45.5498" lon="4.75336">
        <ele>419</ele>
        <time>2018-08-15T06:39:20.252Z</time>
      </trkpt>
      <trkpt lat="45.5498" lon="4.75336">
        <ele>419</ele>
        <time>2018-08-15T06:39:21.257Z</time>
      </trkpt>
      <trkpt lat="45.54975" lon="4.75333">
        <ele>419</ele>
        <time>2018-08-15T06:39:22.262Z</time>
      </trkpt>
      <trkpt lat="45.54973" lon="4.75332">
        <ele>419</ele>
        <time>2018-08-15T06:39:23.245Z</time>
      </trkpt>
      <trkpt lat="45.54973" lon="4.75332">
        <ele>419</ele>
        <time>2018-08-15T06:39:24.251Z</time>
      </trkpt>
      <trkpt lat="45.54968" lon="4.7533">
        <ele>420</ele>
        <time>2018-08-15T06:39:25.246Z</time>
      </trkpt>
      <trkpt lat="45.54968" lon="4.7533">
        <ele>420</ele>
        <time>2018-08-15T06:39:26.251Z</time>
      </trkpt>
      <trkpt lat="45.54962" lon="4.75328">
        <ele>419</ele>
        <time>2018-08-15T06:39:27.253Z</time>
      </trkpt>
      <trkpt lat="45.5496" lon="4.75327">
        <ele>419</ele>
        <time>2018-08-15T06:39:28.239Z</time>
      </trkpt>
      <trkpt lat="45.5496" lon="4.75327">
        <ele>419</ele>
        <time>2018-08-15T06:39:29.244Z</time>
      </trkpt>
      <trkpt lat="45.54954" lon="4.75325">
        <ele>419</ele>
        <time>2018-08-15T06:39:30.263Z</time>
      </trkpt>
      <trkpt lat="45.54954" lon="4.75325">
        <ele>419</ele>
        <time>2018-08-15T06:39:31.269Z</time>
      </trkpt>
      <trkpt lat="45.54949" lon="4.75324">
        <ele>419</ele>
        <time>2018-08-15T06:39:32.256Z</time>
      </trkpt>
      <trkpt lat="45.54949" lon="4.75324">
        <ele>419</ele>
        <time>2018-08-15T06:39:33.261Z</time>
      </trkpt>
      <trkpt lat="45.54944" lon="4.75323">
        <ele>419</ele>
        <time>2018-08-15T06:39:34.256Z</time>
      </trkpt>
      <trkpt lat="45.54944" lon="4.75323">
        <ele>419</ele>
        <time>2018-08-15T06:39:35.261Z</time>
      </trkpt>
      <trkpt lat="45.54938" lon="4.75321">
        <ele>419</ele>
        <time>2018-08-15T06:39:36.233Z</time>
      </trkpt>
      <trkpt lat="45.54935" lon="4.75321">
        <ele>419</ele>
        <time>2018-08-15T06:39:37.263Z</time>
      </trkpt>
      <trkpt lat="45.54935" lon="4.75321">
        <ele>419</ele>
        <time>2018-08-15T06:39:38.268Z</time>
      </trkpt>
      <trkpt lat="45.54928" lon="4.75321">
        <ele>419</ele>
        <time>2018-08-15T06:39:39.252Z</time>
      </trkpt>
      <trkpt lat="45.54925" lon="4.7532">
        <ele>419</ele>
        <time>2018-08-15T06:39:40.234Z</time>
      </trkpt>
      <trkpt lat="45.54925" lon="4.7532">
        <ele>419</ele>
        <time>2018-08-15T06:39:41.240Z</time>
      </trkpt>
      <trkpt lat="45.54918" lon="4.7532">
        <ele>419</ele>
        <time>2018-08-15T06:39:42.269Z</time>
      </trkpt>
      <trkpt lat="45.54918" lon="4.7532">
        <ele>419</ele>
        <time>2018-08-15T06:39:43.234Z</time>
      </trkpt>
      <trkpt lat="45.54911" lon="4.7532">
        <ele>419</ele>
        <time>2018-08-15T06:39:44.255Z</time>
      </trkpt>
      <trkpt lat="45.54911" lon="4.7532">
        <ele>419</ele>
        <time>2018-08-15T06:39:45.260Z</time>
      </trkpt>
      <trkpt lat="45.54904" lon="4.75321">
        <ele>420</ele>
        <time>2018-08-15T06:39:46.239Z</time>
      </trkpt>
      <trkpt lat="45.54904" lon="4.75321">
        <ele>420</ele>
        <time>2018-08-15T06:39:47.246Z</time>
      </trkpt>
      <trkpt lat="45.54898" lon="4.75321">
        <ele>420</ele>
        <time>2018-08-15T06:39:48.241Z</time>
      </trkpt>
      <trkpt lat="45.54898" lon="4.75321">
        <ele>420</ele>
        <time>2018-08-15T06:39:49.249Z</time>
      </trkpt>
      <trkpt lat="45.54891" lon="4.7532">
        <ele>420</ele>
        <time>2018-08-15T06:39:50.240Z</time>
      </trkpt>
      <trkpt lat="45.54891" lon="4.7532">
        <ele>420</ele>
        <time>2018-08-15T06:39:51.246Z</time>
      </trkpt>
      <trkpt lat="45.54885" lon="4.7532">
        <ele>420</ele>
        <time>2018-08-15T06:39:52.263Z</time>
      </trkpt>
      <trkpt lat="45.54882" lon="4.7532">
        <ele>420</ele>
        <time>2018-08-15T06:39:53.249Z</time>
      </trkpt>
      <trkpt lat="45.54882" lon="4.7532">
        <ele>420</ele>
        <time>2018-08-15T06:39:54.254Z</time>
      </trkpt>
      <trkpt lat="45.54875" lon="4.75319">
        <ele>420</ele>
        <time>2018-08-15T06:39:55.270Z</time>
      </trkpt>
      <trkpt lat="45.54873" lon="4.75319">
        <ele>419</ele>
        <time>2018-08-15T06:39:56.266Z</time>
      </trkpt>
      <trkpt lat="45.54873" lon="4.75319">
        <ele>419</ele>
        <time>2018-08-15T06:39:57.271Z</time>
      </trkpt>
      <trkpt lat="45.54866" lon="4.75318">
        <ele>419</ele>
        <time>2018-08-15T06:39:58.262Z</time>
      </trkpt>
      <trkpt lat="45.54863" lon="4.75317">
        <ele>419</ele>
        <time>2018-08-15T06:39:59.249Z</time>
      </trkpt>
      <trkpt lat="45.54863" lon="4.75317">
        <ele>419</ele>
        <time>2018-08-15T06:40:00.255Z</time>
      </trkpt>
      <trkpt lat="45.54857" lon="4.75316">
        <ele>419</ele>
        <time>2018-08-15T06:40:01.250Z</time>
      </trkpt>
      <trkpt lat="45.54854" lon="4.75316">
        <ele>419</ele>
        <time>2018-08-15T06:40:02.269Z</time>
      </trkpt>
      <trkpt lat="45.54854" lon="4.75316">
        <ele>419</ele>
        <time>2018-08-15T06:40:03.235Z</time>
      </trkpt>
      <trkpt lat="45.54848" lon="4.75315">
        <ele>419</ele>
        <time>2018-08-15T06:40:04.234Z</time>
      </trkpt>
      <trkpt lat="45.54848" lon="4.75315">
        <ele>419</ele>
        <time>2018-08-15T06:40:05.239Z</time>
      </trkpt>
      <trkpt lat="45.54841" lon="4.75313">
        <ele>419</ele>
        <time>2018-08-15T06:40:06.236Z</time>
      </trkpt>
      <trkpt lat="45.54841" lon="4.75313">
        <ele>419</ele>
        <time>2018-08-15T06:40:07.245Z</time>
      </trkpt>
      <trkpt lat="45.54835" lon="4.75312">
        <ele>419</ele>
        <time>2018-08-15T06:40:08.270Z</time>
      </trkpt>
      <trkpt lat="45.54835" lon="4.75312">
        <ele>419</ele>
        <time>2018-08-15T06:40:09.236Z</time>
      </trkpt>
      <trkpt lat="45.54828" lon="4.75311">
        <ele>419</ele>
        <time>2018-08-15T06:40:10.267Z</time>
      </trkpt>
      <trkpt lat="45.54828" lon="4.75311">
        <ele>419</ele>
        <time>2018-08-15T06:40:11.232Z</time>
      </trkpt>
      <trkpt lat="45.54821" lon="4.75309">
        <ele>420</ele>
        <time>2018-08-15T06:40:12.263Z</time>
      </trkpt>
      <trkpt lat="45.54821" lon="4.75309">
        <ele>420</ele>
        <time>2018-08-15T06:40:13.268Z</time>
      </trkpt>
      <trkpt lat="45.54814" lon="4.75308">
        <ele>420</ele>
        <time>2018-08-15T06:40:14.258Z</time>
      </trkpt>
      <trkpt lat="45.54814" lon="4.75308">
        <ele>420</ele>
        <time>2018-08-15T06:40:15.264Z</time>
      </trkpt>
      <trkpt lat="45.54806" lon="4.75306">
        <ele>420</ele>
        <time>2018-08-15T06:40:16.236Z</time>
      </trkpt>
      <trkpt lat="45.54806" lon="4.75306">
        <ele>420</ele>
        <time>2018-08-15T06:40:17.245Z</time>
      </trkpt>
      <trkpt lat="45.54799" lon="4.75304">
        <ele>420</ele>
        <time>2018-08-15T06:40:18.234Z</time>
      </trkpt>
      <trkpt lat="45.54799" lon="4.75304">
        <ele>420</ele>
        <time>2018-08-15T06:40:19.239Z</time>
      </trkpt>
      <trkpt lat="45.54791" lon="4.753">
        <ele>420</ele>
        <time>2018-08-15T06:40:20.239Z</time>
      </trkpt>
      <trkpt lat="45.54791" lon="4.753">
        <ele>420</ele>
        <time>2018-08-15T06:40:21.246Z</time>
      </trkpt>
      <trkpt lat="45.54784" lon="4.75296">
        <ele>420</ele>
        <time>2018-08-15T06:40:22.270Z</time>
      </trkpt>
      <trkpt lat="45.54784" lon="4.75296">
        <ele>420</ele>
        <time>2018-08-15T06:40:23.235Z</time>
      </trkpt>
      <trkpt lat="45.54776" lon="4.75292">
        <ele>420</ele>
        <time>2018-08-15T06:40:24.232Z</time>
      </trkpt>
      <trkpt lat="45.54776" lon="4.75292">
        <ele>420</ele>
        <time>2018-08-15T06:40:25.237Z</time>
      </trkpt>
      <trkpt lat="45.5477" lon="4.75287">
        <ele>420</ele>
        <time>2018-08-15T06:40:26.232Z</time>
      </trkpt>
      <trkpt lat="45.5477" lon="4.75287">
        <ele>420</ele>
        <time>2018-08-15T06:40:27.238Z</time>
      </trkpt>
      <trkpt lat="45.54764" lon="4.75282">
        <ele>420</ele>
        <time>2018-08-15T06:40:28.267Z</time>
      </trkpt>
      <trkpt lat="45.54764" lon="4.75282">
        <ele>420</ele>
        <time>2018-08-15T06:40:29.232Z</time>
      </trkpt>
      <trkpt lat="45.54757" lon="4.75275">
        <ele>420</ele>
        <time>2018-08-15T06:40:30.241Z</time>
      </trkpt>
      <trkpt lat="45.54754" lon="4.75272">
        <ele>420</ele>
        <time>2018-08-15T06:40:31.261Z</time>
      </trkpt>
      <trkpt lat="45.5475" lon="4.75269">
        <ele>420</ele>
        <time>2018-08-15T06:40:32.260Z</time>
      </trkpt>
      <trkpt lat="45.5475" lon="4.75269">
        <ele>420</ele>
        <time>2018-08-15T06:40:33.265Z</time>
      </trkpt>
      <trkpt lat="45.54744" lon="4.75264">
        <ele>421</ele>
        <time>2018-08-15T06:40:34.248Z</time>
      </trkpt>
      <trkpt lat="45.54744" lon="4.75264">
        <ele>421</ele>
        <time>2018-08-15T06:40:35.255Z</time>
      </trkpt>
      <trkpt lat="45.54737" lon="4.75258">
        <ele>421</ele>
        <time>2018-08-15T06:40:36.250Z</time>
      </trkpt>
      <trkpt lat="45.54737" lon="4.75258">
        <ele>421</ele>
        <time>2018-08-15T06:40:37.237Z</time>
      </trkpt>
      <trkpt lat="45.54729" lon="4.75251">
        <ele>421</ele>
        <time>2018-08-15T06:40:38.265Z</time>
      </trkpt>
      <trkpt lat="45.54729" lon="4.75251">
        <ele>421</ele>
        <time>2018-08-15T06:40:39.271Z</time>
      </trkpt>
      <trkpt lat="45.54726" lon="4.75245">
        <ele>421</ele>
        <time>2018-08-15T06:40:40.256Z</time>
      </trkpt>
      <trkpt lat="45.54726" lon="4.75245">
        <ele>421</ele>
        <time>2018-08-15T06:40:41.262Z</time>
      </trkpt>
      <trkpt lat="45.54719" lon="4.75238">
        <ele>422</ele>
        <time>2018-08-15T06:40:42.258Z</time>
      </trkpt>
      <trkpt lat="45.54716" lon="4.75234">
        <ele>422</ele>
        <time>2018-08-15T06:40:43.241Z</time>
      </trkpt>
      <trkpt lat="45.54713" lon="4.7523">
        <ele>422</ele>
        <time>2018-08-15T06:40:44.268Z</time>
      </trkpt>
      <trkpt lat="45.54713" lon="4.7523">
        <ele>422</ele>
        <time>2018-08-15T06:40:45.233Z</time>
      </trkpt>
      <trkpt lat="45.54708" lon="4.75222">
        <ele>422</ele>
        <time>2018-08-15T06:40:46.271Z</time>
      </trkpt>
      <trkpt lat="45.54706" lon="4.75217">
        <ele>422</ele>
        <time>2018-08-15T06:40:47.233Z</time>
      </trkpt>
      <trkpt lat="45.54706" lon="4.75217">
        <ele>422</ele>
        <time>2018-08-15T06:40:48.239Z</time>
      </trkpt>
      <trkpt lat="45.54702" lon="4.75207">
        <ele>423</ele>
        <time>2018-08-15T06:40:49.264Z</time>
      </trkpt>
      <trkpt lat="45.54702" lon="4.75207">
        <ele>423</ele>
        <time>2018-08-15T06:40:50.269Z</time>
      </trkpt>
      <trkpt lat="45.54699" lon="4.75196">
        <ele>423</ele>
        <time>2018-08-15T06:40:51.258Z</time>
      </trkpt>
      <trkpt lat="45.54699" lon="4.75196">
        <ele>423</ele>
        <time>2018-08-15T06:40:52.263Z</time>
      </trkpt>
      <trkpt lat="45.54696" lon="4.75184">
        <ele>423</ele>
        <time>2018-08-15T06:40:53.245Z</time>
      </trkpt>
      <trkpt lat="45.54696" lon="4.75184">
        <ele>423</ele>
        <time>2018-08-15T06:40:54.250Z</time>
      </trkpt>
      <trkpt lat="45.54694" lon="4.75172">
        <ele>424</ele>
        <time>2018-08-15T06:40:55.243Z</time>
      </trkpt>
      <trkpt lat="45.54693" lon="4.75166">
        <ele>424</ele>
        <time>2018-08-15T06:40:56.262Z</time>
      </trkpt>
      <trkpt lat="45.54693" lon="4.75166">
        <ele>424</ele>
        <time>2018-08-15T06:40:57.267Z</time>
      </trkpt>
      <trkpt lat="45.54691" lon="4.75154">
        <ele>425</ele>
        <time>2018-08-15T06:40:58.254Z</time>
      </trkpt>
      <trkpt lat="45.54691" lon="4.75154">
        <ele>425</ele>
        <time>2018-08-15T06:40:59.259Z</time>
      </trkpt>
      <trkpt lat="45.54688" lon="4.75143">
        <ele>425</ele>
        <time>2018-08-15T06:41:00.236Z</time>
      </trkpt>
      <trkpt lat="45.54688" lon="4.75143">
        <ele>425</ele>
        <time>2018-08-15T06:41:01.242Z</time>
      </trkpt>
      <trkpt lat="45.54684" lon="4.75133">
        <ele>426</ele>
        <time>2018-08-15T06:41:02.269Z</time>
      </trkpt>
      <trkpt lat="45.54684" lon="4.75133">
        <ele>426</ele>
        <time>2018-08-15T06:41:03.235Z</time>
      </trkpt>
      <trkpt lat="45.54679" lon="4.75122">
        <ele>426</ele>
        <time>2018-08-15T06:41:04.267Z</time>
      </trkpt>
      <trkpt lat="45.54679" lon="4.75122">
        <ele>426</ele>
        <time>2018-08-15T06:41:05.233Z</time>
      </trkpt>
      <trkpt lat="45.54673" lon="4.75112">
        <ele>426</ele>
        <time>2018-08-15T06:41:06.255Z</time>
      </trkpt>
      <trkpt lat="45.54673" lon="4.75112">
        <ele>426</ele>
        <time>2018-08-15T06:41:07.260Z</time>
      </trkpt>
      <trkpt lat="45.54665" lon="4.75103">
        <ele>427</ele>
        <time>2018-08-15T06:41:08.251Z</time>
      </trkpt>
      <trkpt lat="45.54665" lon="4.75103">
        <ele>427</ele>
        <time>2018-08-15T06:41:09.256Z</time>
      </trkpt>
      <trkpt lat="45.54658" lon="4.75095">
        <ele>427</ele>
        <time>2018-08-15T06:41:10.244Z</time>
      </trkpt>
      <trkpt lat="45.54658" lon="4.75095">
        <ele>427</ele>
        <time>2018-08-15T06:41:11.249Z</time>
      </trkpt>
      <trkpt lat="45.5465" lon="4.75088">
        <ele>427</ele>
        <time>2018-08-15T06:41:12.240Z</time>
      </trkpt>
      <trkpt lat="45.54646" lon="4.75085">
        <ele>427</ele>
        <time>2018-08-15T06:41:13.268Z</time>
      </trkpt>
      <trkpt lat="45.54642" lon="4.75083">
        <ele>427</ele>
        <time>2018-08-15T06:41:14.256Z</time>
      </trkpt>
      <trkpt lat="45.54642" lon="4.75083">
        <ele>427</ele>
        <time>2018-08-15T06:41:15.261Z</time>
      </trkpt>
      <trkpt lat="45.54634" lon="4.75079">
        <ele>427</ele>
        <time>2018-08-15T06:41:16.256Z</time>
      </trkpt>
      <trkpt lat="45.54634" lon="4.75079">
        <ele>427</ele>
        <time>2018-08-15T06:41:17.260Z</time>
      </trkpt>
      <trkpt lat="45.54626" lon="4.75076">
        <ele>428</ele>
        <time>2018-08-15T06:41:18.248Z</time>
      </trkpt>
      <trkpt lat="45.54626" lon="4.75076">
        <ele>428</ele>
        <time>2018-08-15T06:41:19.253Z</time>
      </trkpt>
      <trkpt lat="45.54618" lon="4.75072">
        <ele>428</ele>
        <time>2018-08-15T06:41:20.249Z</time>
      </trkpt>
      <trkpt lat="45.54618" lon="4.75072">
        <ele>428</ele>
        <time>2018-08-15T06:41:21.254Z</time>
      </trkpt>
      <trkpt lat="45.54611" lon="4.75069">
        <ele>428</ele>
        <time>2018-08-15T06:41:22.252Z</time>
      </trkpt>
      <trkpt lat="45.54611" lon="4.75069">
        <ele>428</ele>
        <time>2018-08-15T06:41:23.257Z</time>
      </trkpt>
      <trkpt lat="45.54603" lon="4.75064">
        <ele>428</ele>
        <time>2018-08-15T06:41:24.251Z</time>
      </trkpt>
      <trkpt lat="45.54599" lon="4.75061">
        <ele>429</ele>
        <time>2018-08-15T06:41:25.243Z</time>
      </trkpt>
      <trkpt lat="45.54599" lon="4.75061">
        <ele>429</ele>
        <time>2018-08-15T06:41:26.249Z</time>
      </trkpt>
      <trkpt lat="45.54591" lon="4.75054">
        <ele>429</ele>
        <time>2018-08-15T06:41:27.242Z</time>
      </trkpt>
      <trkpt lat="45.54588" lon="4.75052">
        <ele>429</ele>
        <time>2018-08-15T06:41:28.235Z</time>
      </trkpt>
      <trkpt lat="45.54588" lon="4.75052">
        <ele>429</ele>
        <time>2018-08-15T06:41:29.240Z</time>
      </trkpt>
      <trkpt lat="45.54582" lon="4.75045">
        <ele>430</ele>
        <time>2018-08-15T06:41:30.265Z</time>
      </trkpt>
      <trkpt lat="45.54582" lon="4.75045">
        <ele>430</ele>
        <time>2018-08-15T06:41:31.270Z</time>
      </trkpt>
      <trkpt lat="45.54576" lon="4.75037">
        <ele>430</ele>
        <time>2018-08-15T06:41:32.253Z</time>
      </trkpt>
      <trkpt lat="45.54576" lon="4.75037">
        <ele>430</ele>
        <time>2018-08-15T06:41:33.258Z</time>
      </trkpt>
      <trkpt lat="45.54571" lon="4.75029">
        <ele>431</ele>
        <time>2018-08-15T06:41:34.253Z</time>
      </trkpt>
      <trkpt lat="45.54568" lon="4.75024">
        <ele>431</ele>
        <time>2018-08-15T06:41:35.235Z</time>
      </trkpt>
      <trkpt lat="45.54566" lon="4.7502">
        <ele>431</ele>
        <time>2018-08-15T06:41:36.263Z</time>
      </trkpt>
      <trkpt lat="45.54566" lon="4.7502">
        <ele>431</ele>
        <time>2018-08-15T06:41:37.270Z</time>
      </trkpt>
      <trkpt lat="45.5456" lon="4.7501">
        <ele>431</ele>
        <time>2018-08-15T06:41:38.252Z</time>
      </trkpt>
      <trkpt lat="45.5456" lon="4.7501">
        <ele>431</ele>
        <time>2018-08-15T06:41:39.259Z</time>
      </trkpt>
      <trkpt lat="45.54555" lon="4.74999">
        <ele>430</ele>
        <time>2018-08-15T06:41:40.237Z</time>
      </trkpt>
      <trkpt lat="45.54555" lon="4.74999">
        <ele>430</ele>
        <time>2018-08-15T06:41:41.245Z</time>
      </trkpt>
      <trkpt lat="45.54552" lon="4.74988">
        <ele>430</ele>
        <time>2018-08-15T06:41:42.268Z</time>
      </trkpt>
      <trkpt lat="45.54552" lon="4.74988">
        <ele>430</ele>
        <time>2018-08-15T06:41:43.233Z</time>
      </trkpt>
      <trkpt lat="45.5455" lon="4.74977">
        <ele>430</ele>
        <time>2018-08-15T06:41:44.232Z</time>
      </trkpt>
      <trkpt lat="45.5455" lon="4.74977">
        <ele>430</ele>
        <time>2018-08-15T06:41:45.237Z</time>
      </trkpt>
      <trkpt lat="45.54547" lon="4.74966">
        <ele>430</ele>
        <time>2018-08-15T06:41:46.271Z</time>
      </trkpt>
      <trkpt lat="45.54547" lon="4.74966">
        <ele>430</ele>
        <time>2018-08-15T06:41:47.236Z</time>
      </trkpt>
      <trkpt lat="45.54544" lon="4.74956">
        <ele>430</ele>
        <time>2018-08-15T06:41:48.264Z</time>
      </trkpt>
      <trkpt lat="45.54542" lon="4.74951">
        <ele>430</ele>
        <time>2018-08-15T06:41:49.244Z</time>
      </trkpt>
      <trkpt lat="45.54541" lon="4.74946">
        <ele>430</ele>
        <time>2018-08-15T06:41:50.272Z</time>
      </trkpt>
      <trkpt lat="45.54541" lon="4.74946">
        <ele>430</ele>
        <time>2018-08-15T06:41:51.238Z</time>
      </trkpt>
      <trkpt lat="45.54536" lon="4.74936">
        <ele>430</ele>
        <time>2018-08-15T06:41:52.263Z</time>
      </trkpt>
      <trkpt lat="45.54536" lon="4.74936">
        <ele>430</ele>
        <time>2018-08-15T06:41:53.268Z</time>
      </trkpt>
      <trkpt lat="45.54533" lon="4.74926">
        <ele>430</ele>
        <time>2018-08-15T06:41:54.257Z</time>
      </trkpt>
      <trkpt lat="45.54533" lon="4.74926">
        <ele>430</ele>
        <time>2018-08-15T06:41:55.263Z</time>
      </trkpt>
      <trkpt lat="45.54529" lon="4.74916">
        <ele>431</ele>
        <time>2018-08-15T06:41:56.247Z</time>
      </trkpt>
      <trkpt lat="45.54529" lon="4.74916">
        <ele>431</ele>
        <time>2018-08-15T06:41:57.253Z</time>
      </trkpt>
      <trkpt lat="45.54527" lon="4.74904">
        <ele>431</ele>
        <time>2018-08-15T06:41:58.253Z</time>
      </trkpt>
      <trkpt lat="45.54527" lon="4.74904">
        <ele>431</ele>
        <time>2018-08-15T06:41:59.270Z</time>
      </trkpt>
      <trkpt lat="45.54525" lon="4.74893">
        <ele>431</ele>
        <time>2018-08-15T06:42:00.256Z</time>
      </trkpt>
      <trkpt lat="45.54525" lon="4.74887">
        <ele>432</ele>
        <time>2018-08-15T06:42:01.238Z</time>
      </trkpt>
      <trkpt lat="45.54525" lon="4.74881">
        <ele>432</ele>
        <time>2018-08-15T06:42:02.260Z</time>
      </trkpt>
      <trkpt lat="45.54525" lon="4.74881">
        <ele>432</ele>
        <time>2018-08-15T06:42:03.265Z</time>
      </trkpt>
      <trkpt lat="45.54524" lon="4.74869">
        <ele>432</ele>
        <time>2018-08-15T06:42:04.251Z</time>
      </trkpt>
      <trkpt lat="45.54524" lon="4.74869">
        <ele>432</ele>
        <time>2018-08-15T06:42:05.256Z</time>
      </trkpt>
      <trkpt lat="45.54524" lon="4.74857">
        <ele>432</ele>
        <time>2018-08-15T06:42:06.236Z</time>
      </trkpt>
      <trkpt lat="45.54523" lon="4.74851">
        <ele>432</ele>
        <time>2018-08-15T06:42:07.232Z</time>
      </trkpt>
      <trkpt lat="45.54524" lon="4.74845">
        <ele>432</ele>
        <time>2018-08-15T06:42:08.265Z</time>
      </trkpt>
      <trkpt lat="45.54524" lon="4.74845">
        <ele>432</ele>
        <time>2018-08-15T06:42:09.271Z</time>
      </trkpt>
      <trkpt lat="45.54524" lon="4.74833">
        <ele>432</ele>
        <time>2018-08-15T06:42:10.262Z</time>
      </trkpt>
      <trkpt lat="45.54524" lon="4.74828">
        <ele>432</ele>
        <time>2018-08-15T06:42:11.251Z</time>
      </trkpt>
      <trkpt lat="45.54524" lon="4.74828">
        <ele>432</ele>
        <time>2018-08-15T06:42:12.256Z</time>
      </trkpt>
      <trkpt lat="45.54527" lon="4.74817">
        <ele>432</ele>
        <time>2018-08-15T06:42:13.250Z</time>
      </trkpt>
      <trkpt lat="45.54529" lon="4.74812">
        <ele>432</ele>
        <time>2018-08-15T06:42:14.253Z</time>
      </trkpt>
      <trkpt lat="45.54529" lon="4.74812">
        <ele>432</ele>
        <time>2018-08-15T06:42:15.258Z</time>
      </trkpt>
      <trkpt lat="45.54533" lon="4.74802">
        <ele>432</ele>
        <time>2018-08-15T06:42:16.239Z</time>
      </trkpt>
      <trkpt lat="45.54533" lon="4.74802">
        <ele>432</ele>
        <time>2018-08-15T06:42:17.245Z</time>
      </trkpt>
      <trkpt lat="45.54536" lon="4.74791">
        <ele>432</ele>
        <time>2018-08-15T06:42:18.239Z</time>
      </trkpt>
      <trkpt lat="45.54538" lon="4.74786">
        <ele>432</ele>
        <time>2018-08-15T06:42:19.262Z</time>
      </trkpt>
      <trkpt lat="45.54539" lon="4.7478">
        <ele>433</ele>
        <time>2018-08-15T06:42:20.263Z</time>
      </trkpt>
      <trkpt lat="45.54539" lon="4.7478">
        <ele>433</ele>
        <time>2018-08-15T06:42:21.269Z</time>
      </trkpt>
      <trkpt lat="45.54542" lon="4.74769">
        <ele>433</ele>
        <time>2018-08-15T06:42:22.263Z</time>
      </trkpt>
      <trkpt lat="45.54542" lon="4.74769">
        <ele>433</ele>
        <time>2018-08-15T06:42:23.268Z</time>
      </trkpt>
      <trkpt lat="45.54544" lon="4.74756">
        <ele>433</ele>
        <time>2018-08-15T06:42:24.254Z</time>
      </trkpt>
      <trkpt lat="45.54544" lon="4.74756">
        <ele>433</ele>
        <time>2018-08-15T06:42:25.259Z</time>
      </trkpt>
      <trkpt lat="45.54545" lon="4.74744">
        <ele>433</ele>
        <time>2018-08-15T06:42:26.248Z</time>
      </trkpt>
      <trkpt lat="45.54545" lon="4.74744">
        <ele>433</ele>
        <time>2018-08-15T06:42:27.265Z</time>
      </trkpt>
      <trkpt lat="45.54545" lon="4.74732">
        <ele>434</ele>
        <time>2018-08-15T06:42:28.253Z</time>
      </trkpt>
      <trkpt lat="45.54545" lon="4.74732">
        <ele>434</ele>
        <time>2018-08-15T06:42:29.259Z</time>
      </trkpt>
      <trkpt lat="45.54545" lon="4.7472">
        <ele>434</ele>
        <time>2018-08-15T06:42:30.252Z</time>
      </trkpt>
      <trkpt lat="45.54544" lon="4.74714">
        <ele>434</ele>
        <time>2018-08-15T06:42:31.248Z</time>
      </trkpt>
      <trkpt lat="45.54542" lon="4.74707">
        <ele>434</ele>
        <time>2018-08-15T06:42:32.265Z</time>
      </trkpt>
      <trkpt lat="45.54542" lon="4.74707">
        <ele>434</ele>
        <time>2018-08-15T06:42:33.272Z</time>
      </trkpt>
      <trkpt lat="45.54539" lon="4.74696">
        <ele>434</ele>
        <time>2018-08-15T06:42:34.261Z</time>
      </trkpt>
      <trkpt lat="45.54539" lon="4.74696">
        <ele>434</ele>
        <time>2018-08-15T06:42:35.266Z</time>
      </trkpt>
      <trkpt lat="45.54534" lon="4.74684">
        <ele>434</ele>
        <time>2018-08-15T06:42:36.233Z</time>
      </trkpt>
      <trkpt lat="45.54531" lon="4.74679">
        <ele>434</ele>
        <time>2018-08-15T06:42:37.266Z</time>
      </trkpt>
      <trkpt lat="45.54531" lon="4.74679">
        <ele>434</ele>
        <time>2018-08-15T06:42:38.272Z</time>
      </trkpt>
      <trkpt lat="45.54524" lon="4.7467">
        <ele>433</ele>
        <time>2018-08-15T06:42:39.251Z</time>
      </trkpt>
      <trkpt lat="45.5452" lon="4.74665">
        <ele>433</ele>
        <time>2018-08-15T06:42:40.267Z</time>
      </trkpt>
      <trkpt lat="45.5452" lon="4.74665">
        <ele>433</ele>
        <time>2018-08-15T06:42:41.232Z</time>
      </trkpt>
      <trkpt lat="45.54515" lon="4.74659">
        <ele>433</ele>
        <time>2018-08-15T06:42:42.265Z</time>
      </trkpt>
      <trkpt lat="45.54515" lon="4.74659">
        <ele>433</ele>
        <time>2018-08-15T06:42:43.271Z</time>
      </trkpt>
      <trkpt lat="45.54507" lon="4.74655">
        <ele>433</ele>
        <time>2018-08-15T06:42:44.259Z</time>
      </trkpt>
      <trkpt lat="45.54507" lon="4.74655">
        <ele>433</ele>
        <time>2018-08-15T06:42:45.264Z</time>
      </trkpt>
      <trkpt lat="45.54498" lon="4.74652">
        <ele>433</ele>
        <time>2018-08-15T06:42:46.260Z</time>
      </trkpt>
      <trkpt lat="45.54498" lon="4.74652">
        <ele>433</ele>
        <time>2018-08-15T06:42:47.265Z</time>
      </trkpt>
      <trkpt lat="45.54489" lon="4.74649">
        <ele>433</ele>
        <time>2018-08-15T06:42:48.262Z</time>
      </trkpt>
      <trkpt lat="45.54484" lon="4.74649">
        <ele>433</ele>
        <time>2018-08-15T06:42:49.237Z</time>
      </trkpt>
      <trkpt lat="45.54479" lon="4.7465">
        <ele>433</ele>
        <time>2018-08-15T06:42:50.233Z</time>
      </trkpt>
      <trkpt lat="45.54479" lon="4.7465">
        <ele>433</ele>
        <time>2018-08-15T06:42:51.243Z</time>
      </trkpt>
      <trkpt lat="45.5447" lon="4.74653">
        <ele>434</ele>
        <time>2018-08-15T06:42:52.234Z</time>
      </trkpt>
      <trkpt lat="45.5447" lon="4.74653">
        <ele>434</ele>
        <time>2018-08-15T06:42:53.245Z</time>
      </trkpt>
      <trkpt lat="45.5446" lon="4.74657">
        <ele>434</ele>
        <time>2018-08-15T06:42:54.242Z</time>
      </trkpt>
      <trkpt lat="45.5446" lon="4.74657">
        <ele>434</ele>
        <time>2018-08-15T06:42:55.248Z</time>
      </trkpt>
      <trkpt lat="45.54452" lon="4.7466">
        <ele>434</ele>
        <time>2018-08-15T06:42:56.255Z</time>
      </trkpt>
      <trkpt lat="45.54452" lon="4.7466">
        <ele>434</ele>
        <time>2018-08-15T06:42:57.263Z</time>
      </trkpt>
      <trkpt lat="45.54443" lon="4.7466">
        <ele>435</ele>
        <time>2018-08-15T06:42:58.261Z</time>
      </trkpt>
      <trkpt lat="45.54443" lon="4.7466">
        <ele>435</ele>
        <time>2018-08-15T06:42:59.241Z</time>
      </trkpt>
      <trkpt lat="45.54434" lon="4.74659">
        <ele>435</ele>
        <time>2018-08-15T06:43:00.240Z</time>
      </trkpt>
      <trkpt lat="45.54434" lon="4.74659">
        <ele>435</ele>
        <time>2018-08-15T06:43:01.246Z</time>
      </trkpt>
      <trkpt lat="45.54424" lon="4.74657">
        <ele>435</ele>
        <time>2018-08-15T06:43:02.234Z</time>
      </trkpt>
      <trkpt lat="45.54424" lon="4.74657">
        <ele>435</ele>
        <time>2018-08-15T06:43:03.245Z</time>
      </trkpt>
      <trkpt lat="45.54415" lon="4.74653">
        <ele>434</ele>
        <time>2018-08-15T06:43:04.238Z</time>
      </trkpt>
      <trkpt lat="45.54415" lon="4.74653">
        <ele>434</ele>
        <time>2018-08-15T06:43:05.245Z</time>
      </trkpt>
      <trkpt lat="45.54406" lon="4.74649">
        <ele>434</ele>
        <time>2018-08-15T06:43:06.243Z</time>
      </trkpt>
      <trkpt lat="45.54406" lon="4.74649">
        <ele>434</ele>
        <time>2018-08-15T06:43:07.249Z</time>
      </trkpt>
      <trkpt lat="45.54397" lon="4.74644">
        <ele>434</ele>
        <time>2018-08-15T06:43:08.255Z</time>
      </trkpt>
      <trkpt lat="45.54397" lon="4.74644">
        <ele>434</ele>
        <time>2018-08-15T06:43:09.261Z</time>
      </trkpt>
      <trkpt lat="45.54388" lon="4.7464">
        <ele>434</ele>
        <time>2018-08-15T06:43:10.271Z</time>
      </trkpt>
      <trkpt lat="45.54384" lon="4.74637">
        <ele>434</ele>
        <time>2018-08-15T06:43:11.254Z</time>
      </trkpt>
      <trkpt lat="45.54384" lon="4.74637">
        <ele>434</ele>
        <time>2018-08-15T06:43:12.259Z</time>
      </trkpt>
      <trkpt lat="45.54374" lon="4.74631">
        <ele>434</ele>
        <time>2018-08-15T06:43:13.244Z</time>
      </trkpt>
      <trkpt lat="45.5437" lon="4.74629">
        <ele>434</ele>
        <time>2018-08-15T06:43:14.267Z</time>
      </trkpt>
      <trkpt lat="45.5437" lon="4.74629">
        <ele>434</ele>
        <time>2018-08-15T06:43:15.232Z</time>
      </trkpt>
      <trkpt lat="45.54361" lon="4.74622">
        <ele>434</ele>
        <time>2018-08-15T06:43:16.259Z</time>
      </trkpt>
      <trkpt lat="45.54361" lon="4.74622">
        <ele>434</ele>
        <time>2018-08-15T06:43:17.265Z</time>
      </trkpt>
      <trkpt lat="45.54354" lon="4.74614">
        <ele>434</ele>
        <time>2018-08-15T06:43:18.243Z</time>
      </trkpt>
      <trkpt lat="45.54351" lon="4.74609">
        <ele>434</ele>
        <time>2018-08-15T06:43:19.241Z</time>
      </trkpt>
      <trkpt lat="45.54347" lon="4.74605">
        <ele>433</ele>
        <time>2018-08-15T06:43:20.271Z</time>
      </trkpt>
      <trkpt lat="45.54347" lon="4.74605">
        <ele>433</ele>
        <time>2018-08-15T06:43:21.236Z</time>
      </trkpt>
      <trkpt lat="45.54342" lon="4.74594">
        <ele>433</ele>
        <time>2018-08-15T06:43:22.271Z</time>
      </trkpt>
      <trkpt lat="45.54342" lon="4.74594">
        <ele>433</ele>
        <time>2018-08-15T06:43:23.237Z</time>
      </trkpt>
      <trkpt lat="45.54337" lon="4.74584">
        <ele>433</ele>
        <time>2018-08-15T06:43:24.267Z</time>
      </trkpt>
      <trkpt lat="45.54337" lon="4.74584">
        <ele>433</ele>
        <time>2018-08-15T06:43:25.233Z</time>
      </trkpt>
      <trkpt lat="45.54333" lon="4.74573">
        <ele>434</ele>
        <time>2018-08-15T06:43:26.263Z</time>
      </trkpt>
      <trkpt lat="45.54333" lon="4.74573">
        <ele>434</ele>
        <time>2018-08-15T06:43:27.272Z</time>
      </trkpt>
      <trkpt lat="45.54329" lon="4.74562">
        <ele>434</ele>
        <time>2018-08-15T06:43:28.253Z</time>
      </trkpt>
      <trkpt lat="45.54329" lon="4.74562">
        <ele>434</ele>
        <time>2018-08-15T06:43:29.258Z</time>
      </trkpt>
      <trkpt lat="45.54324" lon="4.74553">
        <ele>435</ele>
        <time>2018-08-15T06:43:30.240Z</time>
      </trkpt>
      <trkpt lat="45.54324" lon="4.74553">
        <ele>435</ele>
        <time>2018-08-15T06:43:31.246Z</time>
      </trkpt>
      <trkpt lat="45.54318" lon="4.74543">
        <ele>435</ele>
        <time>2018-08-15T06:43:32.267Z</time>
      </trkpt>
      <trkpt lat="45.54318" lon="4.74543">
        <ele>435</ele>
        <time>2018-08-15T06:43:33.232Z</time>
      </trkpt>
      <trkpt lat="45.54312" lon="4.74535">
        <ele>435</ele>
        <time>2018-08-15T06:43:34.256Z</time>
      </trkpt>
      <trkpt lat="45.54312" lon="4.74535">
        <ele>435</ele>
        <time>2018-08-15T06:43:35.267Z</time>
      </trkpt>
      <trkpt lat="45.54305" lon="4.74527">
        <ele>435</ele>
        <time>2018-08-15T06:43:36.258Z</time>
      </trkpt>
      <trkpt lat="45.54301" lon="4.74523">
        <ele>435</ele>
        <time>2018-08-15T06:43:37.238Z</time>
      </trkpt>
      <trkpt lat="45.54298" lon="4.74519">
        <ele>436</ele>
        <time>2018-08-15T06:43:38.270Z</time>
      </trkpt>
      <trkpt lat="45.54298" lon="4.74519">
        <ele>436</ele>
        <time>2018-08-15T06:43:39.235Z</time>
      </trkpt>
      <trkpt lat="45.54291" lon="4.74511">
        <ele>435</ele>
        <time>2018-08-15T06:43:40.245Z</time>
      </trkpt>
      <trkpt lat="45.54291" lon="4.74511">
        <ele>435</ele>
        <time>2018-08-15T06:43:41.250Z</time>
      </trkpt>
      <trkpt lat="45.54283" lon="4.74504">
        <ele>435</ele>
        <time>2018-08-15T06:43:42.243Z</time>
      </trkpt>
      <trkpt lat="45.54283" lon="4.74504">
        <ele>435</ele>
        <time>2018-08-15T06:43:43.248Z</time>
      </trkpt>
      <trkpt lat="45.54275" lon="4.74496">
        <ele>435</ele>
        <time>2018-08-15T06:43:44.242Z</time>
      </trkpt>
      <trkpt lat="45.54275" lon="4.74496">
        <ele>435</ele>
        <time>2018-08-15T06:43:45.248Z</time>
      </trkpt>
      <trkpt lat="45.54267" lon="4.74488">
        <ele>434</ele>
        <time>2018-08-15T06:43:46.241Z</time>
      </trkpt>
      <trkpt lat="45.54267" lon="4.74488">
        <ele>434</ele>
        <time>2018-08-15T06:43:47.247Z</time>
      </trkpt>
      <trkpt lat="45.54259" lon="4.74481">
        <ele>434</ele>
        <time>2018-08-15T06:43:48.243Z</time>
      </trkpt>
      <trkpt lat="45.54259" lon="4.74481">
        <ele>434</ele>
        <time>2018-08-15T06:43:49.248Z</time>
      </trkpt>
      <trkpt lat="45.54251" lon="4.74473">
        <ele>434</ele>
        <time>2018-08-15T06:43:50.234Z</time>
      </trkpt>
      <trkpt lat="45.54251" lon="4.74473">
        <ele>434</ele>
        <time>2018-08-15T06:43:51.242Z</time>
      </trkpt>
      <trkpt lat="45.54243" lon="4.74466">
        <ele>434</ele>
        <time>2018-08-15T06:43:52.245Z</time>
      </trkpt>
      <trkpt lat="45.54243" lon="4.74466">
        <ele>434</ele>
        <time>2018-08-15T06:43:53.251Z</time>
      </trkpt>
      <trkpt lat="45.54235" lon="4.74458">
        <ele>433</ele>
        <time>2018-08-15T06:43:54.240Z</time>
      </trkpt>
      <trkpt lat="45.54235" lon="4.74458">
        <ele>433</ele>
        <time>2018-08-15T06:43:55.246Z</time>
      </trkpt>
      <trkpt lat="45.54226" lon="4.74451">
        <ele>433</ele>
        <time>2018-08-15T06:43:56.267Z</time>
      </trkpt>
      <trkpt lat="45.54226" lon="4.74451">
        <ele>433</ele>
        <time>2018-08-15T06:43:57.232Z</time>
      </trkpt>
      <trkpt lat="45.54217" lon="4.74445">
        <ele>433</ele>
        <time>2018-08-15T06:43:58.271Z</time>
      </trkpt>
      <trkpt lat="45.54217" lon="4.74445">
        <ele>433</ele>
        <time>2018-08-15T06:43:59.236Z</time>
      </trkpt>
      <trkpt lat="45.54208" lon="4.74437">
        <ele>433</ele>
        <time>2018-08-15T06:44:00.248Z</time>
      </trkpt>
      <trkpt lat="45.54208" lon="4.74437">
        <ele>433</ele>
        <time>2018-08-15T06:44:01.253Z</time>
      </trkpt>
      <trkpt lat="45.54198" lon="4.74431">
        <ele>433</ele>
        <time>2018-08-15T06:44:02.239Z</time>
      </trkpt>
      <trkpt lat="45.54198" lon="4.74431">
        <ele>433</ele>
        <time>2018-08-15T06:44:03.245Z</time>
      </trkpt>
      <trkpt lat="45.54187" lon="4.74423">
        <ele>432</ele>
        <time>2018-08-15T06:44:04.236Z</time>
      </trkpt>
      <trkpt lat="45.54187" lon="4.74423">
        <ele>432</ele>
        <time>2018-08-15T06:44:05.245Z</time>
      </trkpt>
      <trkpt lat="45.54175" lon="4.74414">
        <ele>431</ele>
        <time>2018-08-15T06:44:06.268Z</time>
      </trkpt>
      <trkpt lat="45.54175" lon="4.74414">
        <ele>431</ele>
        <time>2018-08-15T06:44:07.233Z</time>
      </trkpt>
      <trkpt lat="45.54163" lon="4.74406">
        <ele>431</ele>
        <time>2018-08-15T06:44:08.260Z</time>
      </trkpt>
      <trkpt lat="45.54163" lon="4.74406">
        <ele>431</ele>
        <time>2018-08-15T06:44:09.265Z</time>
      </trkpt>
      <trkpt lat="45.5415" lon="4.74397">
        <ele>431</ele>
        <time>2018-08-15T06:44:10.263Z</time>
      </trkpt>
      <trkpt lat="45.54143" lon="4.74393">
        <ele>431</ele>
        <time>2018-08-15T06:44:11.253Z</time>
      </trkpt>
      <trkpt lat="45.54143" lon="4.74393">
        <ele>431</ele>
        <time>2018-08-15T06:44:12.258Z</time>
      </trkpt>
      <trkpt lat="45.5413" lon="4.74386">
        <ele>430</ele>
        <time>2018-08-15T06:44:13.239Z</time>
      </trkpt>
      <trkpt lat="45.5413" lon="4.74386">
        <ele>430</ele>
        <time>2018-08-15T06:44:14.248Z</time>
      </trkpt>
      <trkpt lat="45.54115" lon="4.74379">
        <ele>430</ele>
        <time>2018-08-15T06:44:15.254Z</time>
      </trkpt>
      <trkpt lat="45.54115" lon="4.74379">
        <ele>430</ele>
        <time>2018-08-15T06:44:16.259Z</time>
      </trkpt>
      <trkpt lat="45.54101" lon="4.74373">
        <ele>429</ele>
        <time>2018-08-15T06:44:17.239Z</time>
      </trkpt>
      <trkpt lat="45.54101" lon="4.74373">
        <ele>429</ele>
        <time>2018-08-15T06:44:18.245Z</time>
      </trkpt>
      <trkpt lat="45.54086" lon="4.74369">
        <ele>428</ele>
        <time>2018-08-15T06:44:19.267Z</time>
      </trkpt>
      <trkpt lat="45.54079" lon="4.74367">
        <ele>428</ele>
        <time>2018-08-15T06:44:20.247Z</time>
      </trkpt>
      <trkpt lat="45.54079" lon="4.74367">
        <ele>428</ele>
        <time>2018-08-15T06:44:21.253Z</time>
      </trkpt>
      <trkpt lat="45.54063" lon="4.74363">
        <ele>427</ele>
        <time>2018-08-15T06:44:22.245Z</time>
      </trkpt>
      <trkpt lat="45.54063" lon="4.74363">
        <ele>427</ele>
        <time>2018-08-15T06:44:23.250Z</time>
      </trkpt>
      <trkpt lat="45.54048" lon="4.74359">
        <ele>426</ele>
        <time>2018-08-15T06:44:24.235Z</time>
      </trkpt>
      <trkpt lat="45.54048" lon="4.74359">
        <ele>426</ele>
        <time>2018-08-15T06:44:25.254Z</time>
      </trkpt>
      <trkpt lat="45.54033" lon="4.74356">
        <ele>426</ele>
        <time>2018-08-15T06:44:26.254Z</time>
      </trkpt>
      <trkpt lat="45.54033" lon="4.74356">
        <ele>426</ele>
        <time>2018-08-15T06:44:27.260Z</time>
      </trkpt>
      <trkpt lat="45.54019" lon="4.74353">
        <ele>425</ele>
        <time>2018-08-15T06:44:28.257Z</time>
      </trkpt>
      <trkpt lat="45.54019" lon="4.74353">
        <ele>425</ele>
        <time>2018-08-15T06:44:29.234Z</time>
      </trkpt>
      <trkpt lat="45.54004" lon="4.74349">
        <ele>425</ele>
        <time>2018-08-15T06:44:30.257Z</time>
      </trkpt>
      <trkpt lat="45.53996" lon="4.74347">
        <ele>425</ele>
        <time>2018-08-15T06:44:31.270Z</time>
      </trkpt>
      <trkpt lat="45.53989" lon="4.74345">
        <ele>424</ele>
        <time>2018-08-15T06:44:32.269Z</time>
      </trkpt>
      <trkpt lat="45.53989" lon="4.74345">
        <ele>424</ele>
        <time>2018-08-15T06:44:33.234Z</time>
      </trkpt>
      <trkpt lat="45.53974" lon="4.74342">
        <ele>424</ele>
        <time>2018-08-15T06:44:34.263Z</time>
      </trkpt>
      <trkpt lat="45.53974" lon="4.74342">
        <ele>424</ele>
        <time>2018-08-15T06:44:35.269Z</time>
      </trkpt>
      <trkpt lat="45.5396" lon="4.74338">
        <ele>423</ele>
        <time>2018-08-15T06:44:36.271Z</time>
      </trkpt>
      <trkpt lat="45.5396" lon="4.74338">
        <ele>423</ele>
        <time>2018-08-15T06:44:37.255Z</time>
      </trkpt>
      <trkpt lat="45.53946" lon="4.74336">
        <ele>423</ele>
        <time>2018-08-15T06:44:38.259Z</time>
      </trkpt>
      <trkpt lat="45.53946" lon="4.74336">
        <ele>423</ele>
        <time>2018-08-15T06:44:39.268Z</time>
      </trkpt>
      <trkpt lat="45.53932" lon="4.74333">
        <ele>423</ele>
        <time>2018-08-15T06:44:40.254Z</time>
      </trkpt>
      <trkpt lat="45.53932" lon="4.74333">
        <ele>423</ele>
        <time>2018-08-15T06:44:41.260Z</time>
      </trkpt>
      <trkpt lat="45.53918" lon="4.74331">
        <ele>424</ele>
        <time>2018-08-15T06:44:42.254Z</time>
      </trkpt>
      <trkpt lat="45.53918" lon="4.74331">
        <ele>424</ele>
        <time>2018-08-15T06:44:43.259Z</time>
      </trkpt>
      <trkpt lat="45.53905" lon="4.7433">
        <ele>424</ele>
        <time>2018-08-15T06:44:44.242Z</time>
      </trkpt>
      <trkpt lat="45.53905" lon="4.7433">
        <ele>424</ele>
        <time>2018-08-15T06:44:45.249Z</time>
      </trkpt>
      <trkpt lat="45.53892" lon="4.7433">
        <ele>424</ele>
        <time>2018-08-15T06:44:46.234Z</time>
      </trkpt>
      <trkpt lat="45.53885" lon="4.7433">
        <ele>424</ele>
        <time>2018-08-15T06:44:47.233Z</time>
      </trkpt>
      <trkpt lat="45.53879" lon="4.7433">
        <ele>425</ele>
        <time>2018-08-15T06:44:48.268Z</time>
      </trkpt>
      <trkpt lat="45.53879" lon="4.7433">
        <ele>425</ele>
        <time>2018-08-15T06:44:49.234Z</time>
      </trkpt>
      <trkpt lat="45.53867" lon="4.74331">
        <ele>425</ele>
        <time>2018-08-15T06:44:50.268Z</time>
      </trkpt>
      <trkpt lat="45.53867" lon="4.74331">
        <ele>425</ele>
        <time>2018-08-15T06:44:51.234Z</time>
      </trkpt>
      <trkpt lat="45.53855" lon="4.74332">
        <ele>425</ele>
        <time>2018-08-15T06:44:52.233Z</time>
      </trkpt>
      <trkpt lat="45.53855" lon="4.74332">
        <ele>425</ele>
        <time>2018-08-15T06:44:53.244Z</time>
      </trkpt>
      <trkpt lat="45.53843" lon="4.74334">
        <ele>425</ele>
        <time>2018-08-15T06:44:54.267Z</time>
      </trkpt>
      <trkpt lat="45.53843" lon="4.74334">
        <ele>425</ele>
        <time>2018-08-15T06:44:55.233Z</time>
      </trkpt>
      <trkpt lat="45.53832" lon="4.74337">
        <ele>426</ele>
        <time>2018-08-15T06:44:56.255Z</time>
      </trkpt>
      <trkpt lat="45.53832" lon="4.74337">
        <ele>426</ele>
        <time>2018-08-15T06:44:57.260Z</time>
      </trkpt>
      <trkpt lat="45.53821" lon="4.74339">
        <ele>426</ele>
        <time>2018-08-15T06:44:58.254Z</time>
      </trkpt>
      <trkpt lat="45.53821" lon="4.74339">
        <ele>426</ele>
        <time>2018-08-15T06:44:59.259Z</time>
      </trkpt>
      <trkpt lat="45.53809" lon="4.74342">
        <ele>426</ele>
        <time>2018-08-15T06:45:00.251Z</time>
      </trkpt>
      <trkpt lat="45.53803" lon="4.74342">
        <ele>426</ele>
        <time>2018-08-15T06:45:01.235Z</time>
      </trkpt>
      <trkpt lat="45.53798" lon="4.74344">
        <ele>426</ele>
        <time>2018-08-15T06:45:02.243Z</time>
      </trkpt>
      <trkpt lat="45.53798" lon="4.74344">
        <ele>426</ele>
        <time>2018-08-15T06:45:03.235Z</time>
      </trkpt>
      <trkpt lat="45.53787" lon="4.74348">
        <ele>426</ele>
        <time>2018-08-15T06:45:04.266Z</time>
      </trkpt>
      <trkpt lat="45.53787" lon="4.74348">
        <ele>426</ele>
        <time>2018-08-15T06:45:05.232Z</time>
      </trkpt>
      <trkpt lat="45.53776" lon="4.74353">
        <ele>426</ele>
        <time>2018-08-15T06:45:06.269Z</time>
      </trkpt>
      <trkpt lat="45.53776" lon="4.74353">
        <ele>426</ele>
        <time>2018-08-15T06:45:07.234Z</time>
      </trkpt>
      <trkpt lat="45.53765" lon="4.74357">
        <ele>427</ele>
        <time>2018-08-15T06:45:08.271Z</time>
      </trkpt>
      <trkpt lat="45.53765" lon="4.74357">
        <ele>427</ele>
        <time>2018-08-15T06:45:09.236Z</time>
      </trkpt>
      <trkpt lat="45.53755" lon="4.74361">
        <ele>427</ele>
        <time>2018-08-15T06:45:10.237Z</time>
      </trkpt>
      <trkpt lat="45.5375" lon="4.74363">
        <ele>427</ele>
        <time>2018-08-15T06:45:11.258Z</time>
      </trkpt>
      <trkpt lat="45.5375" lon="4.74363">
        <ele>427</ele>
        <time>2018-08-15T06:45:12.264Z</time>
      </trkpt>
      <trkpt lat="45.5374" lon="4.74368">
        <ele>427</ele>
        <time>2018-08-15T06:45:13.265Z</time>
      </trkpt>
      <trkpt lat="45.53735" lon="4.74371">
        <ele>428</ele>
        <time>2018-08-15T06:45:14.247Z</time>
      </trkpt>
      <trkpt lat="45.53735" lon="4.74371">
        <ele>428</ele>
        <time>2018-08-15T06:45:15.252Z</time>
      </trkpt>
      <trkpt lat="45.53727" lon="4.74375">
        <ele>428</ele>
        <time>2018-08-15T06:45:16.263Z</time>
      </trkpt>
      <trkpt lat="45.53727" lon="4.74375">
        <ele>428</ele>
        <time>2018-08-15T06:45:17.269Z</time>
      </trkpt>
      <trkpt lat="45.53719" lon="4.74379">
        <ele>429</ele>
        <time>2018-08-15T06:45:18.256Z</time>
      </trkpt>
      <trkpt lat="45.53719" lon="4.74379">
        <ele>429</ele>
        <time>2018-08-15T06:45:19.262Z</time>
      </trkpt>
      <trkpt lat="45.53712" lon="4.74383">
        <ele>429</ele>
        <time>2018-08-15T06:45:20.250Z</time>
      </trkpt>
      <trkpt lat="45.53712" lon="4.74383">
        <ele>429</ele>
        <time>2018-08-15T06:45:21.256Z</time>
      </trkpt>
      <trkpt lat="45.53703" lon="4.74386">
        <ele>429</ele>
        <time>2018-08-15T06:45:22.261Z</time>
      </trkpt>
      <trkpt lat="45.53703" lon="4.74386">
        <ele>429</ele>
        <time>2018-08-15T06:45:23.266Z</time>
      </trkpt>
      <trkpt lat="45.53696" lon="4.7439">
        <ele>430</ele>
        <time>2018-08-15T06:45:24.253Z</time>
      </trkpt>
      <trkpt lat="45.53696" lon="4.7439">
        <ele>430</ele>
        <time>2018-08-15T06:45:25.260Z</time>
      </trkpt>
      <trkpt lat="45.53688" lon="4.74393">
        <ele>430</ele>
        <time>2018-08-15T06:45:26.252Z</time>
      </trkpt>
      <trkpt lat="45.53688" lon="4.74393">
        <ele>430</ele>
        <time>2018-08-15T06:45:27.258Z</time>
      </trkpt>
      <trkpt lat="45.53681" lon="4.74396">
        <ele>431</ele>
        <time>2018-08-15T06:45:28.260Z</time>
      </trkpt>
      <trkpt lat="45.53677" lon="4.74397">
        <ele>431</ele>
        <time>2018-08-15T06:45:29.262Z</time>
      </trkpt>
      <trkpt lat="45.53673" lon="4.74399">
        <ele>431</ele>
        <time>2018-08-15T06:45:30.252Z</time>
      </trkpt>
      <trkpt lat="45.53673" lon="4.74399">
        <ele>431</ele>
        <time>2018-08-15T06:45:31.257Z</time>
      </trkpt>
      <trkpt lat="45.53667" lon="4.74402">
        <ele>431</ele>
        <time>2018-08-15T06:45:32.259Z</time>
      </trkpt>
      <trkpt lat="45.53667" lon="4.74402">
        <ele>431</ele>
        <time>2018-08-15T06:45:33.264Z</time>
      </trkpt>
      <trkpt lat="45.5366" lon="4.74405">
        <ele>432</ele>
        <time>2018-08-15T06:45:34.264Z</time>
      </trkpt>
      <trkpt lat="45.5366" lon="4.74405">
        <ele>432</ele>
        <time>2018-08-15T06:45:35.270Z</time>
      </trkpt>
      <trkpt lat="45.53654" lon="4.74408">
        <ele>433</ele>
        <time>2018-08-15T06:45:36.247Z</time>
      </trkpt>
      <trkpt lat="45.53654" lon="4.74408">
        <ele>433</ele>
        <time>2018-08-15T06:45:37.253Z</time>
      </trkpt>
      <trkpt lat="45.53648" lon="4.74412">
        <ele>433</ele>
        <time>2018-08-15T06:45:38.236Z</time>
      </trkpt>
      <trkpt lat="45.53648" lon="4.74412">
        <ele>433</ele>
        <time>2018-08-15T06:45:39.246Z</time>
      </trkpt>
      <trkpt lat="45.53641" lon="4.74415">
        <ele>434</ele>
        <time>2018-08-15T06:45:40.269Z</time>
      </trkpt>
      <trkpt lat="45.53638" lon="4.74417">
        <ele>434</ele>
        <time>2018-08-15T06:45:41.253Z</time>
      </trkpt>
      <trkpt lat="45.53638" lon="4.74417">
        <ele>434</ele>
        <time>2018-08-15T06:45:42.268Z</time>
      </trkpt>
      <trkpt lat="45.53632" lon="4.7442">
        <ele>435</ele>
        <time>2018-08-15T06:45:43.267Z</time>
      </trkpt>
      <trkpt lat="45.53628" lon="4.74422">
        <ele>435</ele>
        <time>2018-08-15T06:45:44.259Z</time>
      </trkpt>
      <trkpt lat="45.53628" lon="4.74422">
        <ele>435</ele>
        <time>2018-08-15T06:45:45.264Z</time>
      </trkpt>
      <trkpt lat="45.53622" lon="4.74426">
        <ele>435</ele>
        <time>2018-08-15T06:45:46.261Z</time>
      </trkpt>
      <trkpt lat="45.53622" lon="4.74426">
        <ele>435</ele>
        <time>2018-08-15T06:45:47.266Z</time>
      </trkpt>
      <trkpt lat="45.53616" lon="4.74429">
        <ele>436</ele>
        <time>2018-08-15T06:45:48.246Z</time>
      </trkpt>
      <trkpt lat="45.53616" lon="4.74429">
        <ele>436</ele>
        <time>2018-08-15T06:45:49.251Z</time>
      </trkpt>
      <trkpt lat="45.53609" lon="4.74433">
        <ele>436</ele>
        <time>2018-08-15T06:45:50.243Z</time>
      </trkpt>
      <trkpt lat="45.53609" lon="4.74433">
        <ele>436</ele>
        <time>2018-08-15T06:45:51.248Z</time>
      </trkpt>
      <trkpt lat="45.53603" lon="4.74437">
        <ele>436</ele>
        <time>2018-08-15T06:45:52.245Z</time>
      </trkpt>
      <trkpt lat="45.53603" lon="4.74437">
        <ele>436</ele>
        <time>2018-08-15T06:45:53.249Z</time>
      </trkpt>
      <trkpt lat="45.53596" lon="4.74441">
        <ele>436</ele>
        <time>2018-08-15T06:45:54.246Z</time>
      </trkpt>
      <trkpt lat="45.53596" lon="4.74441">
        <ele>436</ele>
        <time>2018-08-15T06:45:55.252Z</time>
      </trkpt>
      <trkpt lat="45.5359" lon="4.74446">
        <ele>436</ele>
        <time>2018-08-15T06:45:56.255Z</time>
      </trkpt>
      <trkpt lat="45.5359" lon="4.74446">
        <ele>436</ele>
        <time>2018-08-15T06:45:57.260Z</time>
      </trkpt>
      <trkpt lat="45.53584" lon="4.74449">
        <ele>437</ele>
        <time>2018-08-15T06:45:58.253Z</time>
      </trkpt>
      <trkpt lat="45.53584" lon="4.74449">
        <ele>437</ele>
        <time>2018-08-15T06:45:59.271Z</time>
      </trkpt>
      <trkpt lat="45.53577" lon="4.74453">
        <ele>437</ele>
        <time>2018-08-15T06:46:00.256Z</time>
      </trkpt>
      <trkpt lat="45.53577" lon="4.74453">
        <ele>437</ele>
        <time>2018-08-15T06:46:01.261Z</time>
      </trkpt>
      <trkpt lat="45.53571" lon="4.74457">
        <ele>437</ele>
        <time>2018-08-15T06:46:02.245Z</time>
      </trkpt>
      <trkpt lat="45.53571" lon="4.74457">
        <ele>437</ele>
        <time>2018-08-15T06:46:03.250Z</time>
      </trkpt>
      <trkpt lat="45.53566" lon="4.74461">
        <ele>438</ele>
        <time>2018-08-15T06:46:04.233Z</time>
      </trkpt>
      <trkpt lat="45.53566" lon="4.74461">
        <ele>438</ele>
        <time>2018-08-15T06:46:05.240Z</time>
      </trkpt>
      <trkpt lat="45.53561" lon="4.74464">
        <ele>438</ele>
        <time>2018-08-15T06:46:06.268Z</time>
      </trkpt>
      <trkpt lat="45.53561" lon="4.74464">
        <ele>438</ele>
        <time>2018-08-15T06:46:07.234Z</time>
      </trkpt>
      <trkpt lat="45.53556" lon="4.74468">
        <ele>439</ele>
        <time>2018-08-15T06:46:08.271Z</time>
      </trkpt>
      <trkpt lat="45.53556" lon="4.74468">
        <ele>439</ele>
        <time>2018-08-15T06:46:09.236Z</time>
      </trkpt>
      <trkpt lat="45.53552" lon="4.74471">
        <ele>440</ele>
        <time>2018-08-15T06:46:10.253Z</time>
      </trkpt>
      <trkpt lat="45.53552" lon="4.74471">
        <ele>440</ele>
        <time>2018-08-15T06:46:11.258Z</time>
      </trkpt>
      <trkpt lat="45.53548" lon="4.74473">
        <ele>441</ele>
        <time>2018-08-15T06:46:12.259Z</time>
      </trkpt>
      <trkpt lat="45.53548" lon="4.74473">
        <ele>441</ele>
        <time>2018-08-15T06:46:13.264Z</time>
      </trkpt>
      <trkpt lat="45.53543" lon="4.74476">
        <ele>441</ele>
        <time>2018-08-15T06:46:14.253Z</time>
      </trkpt>
      <trkpt lat="45.53543" lon="4.74476">
        <ele>441</ele>
        <time>2018-08-15T06:46:15.258Z</time>
      </trkpt>
      <trkpt lat="45.53539" lon="4.74479">
        <ele>442</ele>
        <time>2018-08-15T06:46:16.256Z</time>
      </trkpt>
      <trkpt lat="45.53539" lon="4.74479">
        <ele>442</ele>
        <time>2018-08-15T06:46:17.261Z</time>
      </trkpt>
      <trkpt lat="45.53535" lon="4.74482">
        <ele>443</ele>
        <time>2018-08-15T06:46:18.259Z</time>
      </trkpt>
      <trkpt lat="45.53535" lon="4.74482">
        <ele>443</ele>
        <time>2018-08-15T06:46:19.265Z</time>
      </trkpt>
      <trkpt lat="45.5353" lon="4.74484">
        <ele>444</ele>
        <time>2018-08-15T06:46:20.247Z</time>
      </trkpt>
      <trkpt lat="45.5353" lon="4.74484">
        <ele>444</ele>
        <time>2018-08-15T06:46:21.254Z</time>
      </trkpt>
      <trkpt lat="45.53525" lon="4.74486">
        <ele>445</ele>
        <time>2018-08-15T06:46:22.245Z</time>
      </trkpt>
      <trkpt lat="45.53522" lon="4.74486">
        <ele>445</ele>
        <time>2018-08-15T06:46:23.253Z</time>
      </trkpt>
      <trkpt lat="45.53522" lon="4.74486">
        <ele>445</ele>
        <time>2018-08-15T06:46:24.247Z</time>
      </trkpt>
      <trkpt lat="45.53517" lon="4.74486">
        <ele>446</ele>
        <time>2018-08-15T06:46:25.256Z</time>
      </trkpt>
      <trkpt lat="45.53512" lon="4.74484">
        <ele>446</ele>
        <time>2018-08-15T06:46:26.248Z</time>
      </trkpt>
      <trkpt lat="45.53512" lon="4.74484">
        <ele>446</ele>
        <time>2018-08-15T06:46:27.254Z</time>
      </trkpt>
      <trkpt lat="45.53506" lon="4.74481">
        <ele>447</ele>
        <time>2018-08-15T06:46:28.252Z</time>
      </trkpt>
      <trkpt lat="45.53506" lon="4.74481">
        <ele>447</ele>
        <time>2018-08-15T06:46:29.257Z</time>
      </trkpt>
      <trkpt lat="45.535" lon="4.74474">
        <ele>447</ele>
        <time>2018-08-15T06:46:30.242Z</time>
      </trkpt>
      <trkpt lat="45.535" lon="4.74474">
        <ele>447</ele>
        <time>2018-08-15T06:46:31.248Z</time>
      </trkpt>
      <trkpt lat="45.53495" lon="4.74469">
        <ele>447</ele>
        <time>2018-08-15T06:46:32.243Z</time>
      </trkpt>
      <trkpt lat="45.53495" lon="4.74469">
        <ele>447</ele>
        <time>2018-08-15T06:46:33.249Z</time>
      </trkpt>
      <trkpt lat="45.53492" lon="4.74463">
        <ele>448</ele>
        <time>2018-08-15T06:46:34.233Z</time>
      </trkpt>
      <trkpt lat="45.53492" lon="4.74463">
        <ele>448</ele>
        <time>2018-08-15T06:46:35.240Z</time>
      </trkpt>
      <trkpt lat="45.5349" lon="4.74456">
        <ele>447</ele>
        <time>2018-08-15T06:46:36.241Z</time>
      </trkpt>
      <trkpt lat="45.5349" lon="4.74456">
        <ele>447</ele>
        <time>2018-08-15T06:46:37.257Z</time>
      </trkpt>
      <trkpt lat="45.53489" lon="4.74448">
        <ele>448</ele>
        <time>2018-08-15T06:46:38.251Z</time>
      </trkpt>
      <trkpt lat="45.53489" lon="4.74448">
        <ele>448</ele>
        <time>2018-08-15T06:46:39.257Z</time>
      </trkpt>
      <trkpt lat="45.53489" lon="4.7444">
        <ele>448</ele>
        <time>2018-08-15T06:46:40.237Z</time>
      </trkpt>
      <trkpt lat="45.53489" lon="4.7444">
        <ele>448</ele>
        <time>2018-08-15T06:46:41.242Z</time>
      </trkpt>
      <trkpt lat="45.53489" lon="4.74432">
        <ele>448</ele>
        <time>2018-08-15T06:46:42.233Z</time>
      </trkpt>
      <trkpt lat="45.53489" lon="4.74432">
        <ele>448</ele>
        <time>2018-08-15T06:46:43.240Z</time>
      </trkpt>
      <trkpt lat="45.5349" lon="4.74424">
        <ele>448</ele>
        <time>2018-08-15T06:46:44.242Z</time>
      </trkpt>
      <trkpt lat="45.5349" lon="4.74424">
        <ele>448</ele>
        <time>2018-08-15T06:46:45.247Z</time>
      </trkpt>
      <trkpt lat="45.53493" lon="4.74418">
        <ele>448</ele>
        <time>2018-08-15T06:46:46.238Z</time>
      </trkpt>
      <trkpt lat="45.53493" lon="4.74418">
        <ele>448</ele>
        <time>2018-08-15T06:46:47.244Z</time>
      </trkpt>
      <trkpt lat="45.53496" lon="4.74411">
        <ele>448</ele>
        <time>2018-08-15T06:46:48.249Z</time>
      </trkpt>
      <trkpt lat="45.53496" lon="4.74411">
        <ele>448</ele>
        <time>2018-08-15T06:46:49.255Z</time>
      </trkpt>
      <trkpt lat="45.53499" lon="4.74404">
        <ele>448</ele>
        <time>2018-08-15T06:46:50.266Z</time>
      </trkpt>
      <trkpt lat="45.53499" lon="4.74404">
        <ele>448</ele>
        <time>2018-08-15T06:46:51.233Z</time>
      </trkpt>
      <trkpt lat="45.53502" lon="4.74397">
        <ele>449</ele>
        <time>2018-08-15T06:46:52.272Z</time>
      </trkpt>
      <trkpt lat="45.53502" lon="4.74393">
        <ele>449</ele>
        <time>2018-08-15T06:46:53.253Z</time>
      </trkpt>
      <trkpt lat="45.53502" lon="4.74393">
        <ele>449</ele>
        <time>2018-08-15T06:46:54.258Z</time>
      </trkpt>
      <trkpt lat="45.53504" lon="4.74386">
        <ele>449</ele>
        <time>2018-08-15T06:46:55.271Z</time>
      </trkpt>
      <trkpt lat="45.53504" lon="4.74386">
        <ele>449</ele>
        <time>2018-08-15T06:46:56.236Z</time>
      </trkpt>
      <trkpt lat="45.53505" lon="4.74379">
        <ele>449</ele>
        <time>2018-08-15T06:46:57.260Z</time>
      </trkpt>
      <trkpt lat="45.53507" lon="4.74374">
        <ele>449</ele>
        <time>2018-08-15T06:46:58.257Z</time>
      </trkpt>
      <trkpt lat="45.53507" lon="4.74374">
        <ele>449</ele>
        <time>2018-08-15T06:46:59.262Z</time>
      </trkpt>
      <trkpt lat="45.53508" lon="4.74365">
        <ele>450</ele>
        <time>2018-08-15T06:47:00.247Z</time>
      </trkpt>
      <trkpt lat="45.53508" lon="4.74361">
        <ele>450</ele>
        <time>2018-08-15T06:47:01.234Z</time>
      </trkpt>
      <trkpt lat="45.53509" lon="4.74357">
        <ele>450</ele>
        <time>2018-08-15T06:47:02.261Z</time>
      </trkpt>
      <trkpt lat="45.53509" lon="4.74357">
        <ele>450</ele>
        <time>2018-08-15T06:47:03.266Z</time>
      </trkpt>
      <trkpt lat="45.53509" lon="4.7435">
        <ele>451</ele>
        <time>2018-08-15T06:47:04.248Z</time>
      </trkpt>
      <trkpt lat="45.53508" lon="4.74346">
        <ele>451</ele>
        <time>2018-08-15T06:47:05.239Z</time>
      </trkpt>
      <trkpt lat="45.53508" lon="4.74346">
        <ele>451</ele>
        <time>2018-08-15T06:47:06.252Z</time>
      </trkpt>
      <trkpt lat="45.53506" lon="4.74339">
        <ele>451</ele>
        <time>2018-08-15T06:47:07.265Z</time>
      </trkpt>
      <trkpt lat="45.53504" lon="4.74336">
        <ele>451</ele>
        <time>2018-08-15T06:47:08.243Z</time>
      </trkpt>
      <trkpt lat="45.53504" lon="4.74336">
        <ele>451</ele>
        <time>2018-08-15T06:47:09.249Z</time>
      </trkpt>
      <trkpt lat="45.53502" lon="4.7433">
        <ele>452</ele>
        <time>2018-08-15T06:47:10.253Z</time>
      </trkpt>
      <trkpt lat="45.53502" lon="4.7433">
        <ele>452</ele>
        <time>2018-08-15T06:47:11.259Z</time>
      </trkpt>
      <trkpt lat="45.53497" lon="4.74322">
        <ele>451</ele>
        <time>2018-08-15T06:47:12.263Z</time>
      </trkpt>
      <trkpt lat="45.53497" lon="4.74322">
        <ele>451</ele>
        <time>2018-08-15T06:47:13.269Z</time>
      </trkpt>
      <trkpt lat="45.53493" lon="4.74315">
        <ele>451</ele>
        <time>2018-08-15T06:47:14.249Z</time>
      </trkpt>
      <trkpt lat="45.53493" lon="4.74315">
        <ele>451</ele>
        <time>2018-08-15T06:47:15.254Z</time>
      </trkpt>
      <trkpt lat="45.53489" lon="4.74307">
        <ele>451</ele>
        <time>2018-08-15T06:47:16.243Z</time>
      </trkpt>
      <trkpt lat="45.53489" lon="4.74307">
        <ele>451</ele>
        <time>2018-08-15T06:47:17.249Z</time>
      </trkpt>
      <trkpt lat="45.53484" lon="4.743">
        <ele>450</ele>
        <time>2018-08-15T06:47:18.270Z</time>
      </trkpt>
      <trkpt lat="45.53484" lon="4.743">
        <ele>450</ele>
        <time>2018-08-15T06:47:19.235Z</time>
      </trkpt>
      <trkpt lat="45.5348" lon="4.74292">
        <ele>450</ele>
        <time>2018-08-15T06:47:20.233Z</time>
      </trkpt>
      <trkpt lat="45.53478" lon="4.74289">
        <ele>450</ele>
        <time>2018-08-15T06:47:21.266Z</time>
      </trkpt>
      <trkpt lat="45.53478" lon="4.74289">
        <ele>450</ele>
        <time>2018-08-15T06:47:22.232Z</time>
      </trkpt>
      <trkpt lat="45.53473" lon="4.74282">
        <ele>450</ele>
        <time>2018-08-15T06:47:23.237Z</time>
      </trkpt>
      <trkpt lat="45.53473" lon="4.74282">
        <ele>450</ele>
        <time>2018-08-15T06:47:24.242Z</time>
      </trkpt>
      <trkpt lat="45.53469" lon="4.74275">
        <ele>450</ele>
        <time>2018-08-15T06:47:25.266Z</time>
      </trkpt>
      <trkpt lat="45.53469" lon="4.74275">
        <ele>450</ele>
        <time>2018-08-15T06:47:26.271Z</time>
      </trkpt>
      <trkpt lat="45.53464" lon="4.74269">
        <ele>450</ele>
        <time>2018-08-15T06:47:27.233Z</time>
      </trkpt>
      <trkpt lat="45.53462" lon="4.74266">
        <ele>450</ele>
        <time>2018-08-15T06:47:28.236Z</time>
      </trkpt>
      <trkpt lat="45.53462" lon="4.74266">
        <ele>450</ele>
        <time>2018-08-15T06:47:29.242Z</time>
      </trkpt>
      <trkpt lat="45.53457" lon="4.74261">
        <ele>450</ele>
        <time>2018-08-15T06:47:30.246Z</time>
      </trkpt>
      <trkpt lat="45.53454" lon="4.74258">
        <ele>450</ele>
        <time>2018-08-15T06:47:31.240Z</time>
      </trkpt>
      <trkpt lat="45.53452" lon="4.74256">
        <ele>450</ele>
        <time>2018-08-15T06:47:32.233Z</time>
      </trkpt>
      <trkpt lat="45.53452" lon="4.74256">
        <ele>450</ele>
        <time>2018-08-15T06:47:33.244Z</time>
      </trkpt>
      <trkpt lat="45.53447" lon="4.74251">
        <ele>450</ele>
        <time>2018-08-15T06:47:34.249Z</time>
      </trkpt>
      <trkpt lat="45.53447" lon="4.74251">
        <ele>450</ele>
        <time>2018-08-15T06:47:35.254Z</time>
      </trkpt>
      <trkpt lat="45.53442" lon="4.74247">
        <ele>450</ele>
        <time>2018-08-15T06:47:36.255Z</time>
      </trkpt>
      <trkpt lat="45.53439" lon="4.74245">
        <ele>450</ele>
        <time>2018-08-15T06:47:37.236Z</time>
      </trkpt>
      <trkpt lat="45.53436" lon="4.74243">
        <ele>450</ele>
        <time>2018-08-15T06:47:38.261Z</time>
      </trkpt>
      <trkpt lat="45.53436" lon="4.74243">
        <ele>450</ele>
        <time>2018-08-15T06:47:39.267Z</time>
      </trkpt>
      <trkpt lat="45.53431" lon="4.7424">
        <ele>449</ele>
        <time>2018-08-15T06:47:40.259Z</time>
      </trkpt>
      <trkpt lat="45.53431" lon="4.7424">
        <ele>449</ele>
        <time>2018-08-15T06:47:41.264Z</time>
      </trkpt>
      <trkpt lat="45.53426" lon="4.74237">
        <ele>449</ele>
        <time>2018-08-15T06:47:42.248Z</time>
      </trkpt>
      <trkpt lat="45.53426" lon="4.74237">
        <ele>449</ele>
        <time>2018-08-15T06:47:43.253Z</time>
      </trkpt>
      <trkpt lat="45.5342" lon="4.74234">
        <ele>449</ele>
        <time>2018-08-15T06:47:44.254Z</time>
      </trkpt>
      <trkpt lat="45.5342" lon="4.74234">
        <ele>449</ele>
        <time>2018-08-15T06:47:45.259Z</time>
      </trkpt>
      <trkpt lat="45.53415" lon="4.74232">
        <ele>449</ele>
        <time>2018-08-15T06:47:46.257Z</time>
      </trkpt>
      <trkpt lat="45.53415" lon="4.74232">
        <ele>449</ele>
        <time>2018-08-15T06:47:47.264Z</time>
      </trkpt>
      <trkpt lat="45.53409" lon="4.74228">
        <ele>449</ele>
        <time>2018-08-15T06:47:48.253Z</time>
      </trkpt>
      <trkpt lat="45.53409" lon="4.74228">
        <ele>449</ele>
        <time>2018-08-15T06:47:49.259Z</time>
      </trkpt>
      <trkpt lat="45.53404" lon="4.74226">
        <ele>449</ele>
        <time>2018-08-15T06:47:50.246Z</time>
      </trkpt>
      <trkpt lat="45.53404" lon="4.74226">
        <ele>449</ele>
        <time>2018-08-15T06:47:51.252Z</time>
      </trkpt>
      <trkpt lat="45.53399" lon="4.74223">
        <ele>449</ele>
        <time>2018-08-15T06:47:52.245Z</time>
      </trkpt>
      <trkpt lat="45.53399" lon="4.74223">
        <ele>449</ele>
        <time>2018-08-15T06:47:53.251Z</time>
      </trkpt>
      <trkpt lat="45.53393" lon="4.74221">
        <ele>449</ele>
        <time>2018-08-15T06:47:54.235Z</time>
      </trkpt>
      <trkpt lat="45.53393" lon="4.74221">
        <ele>449</ele>
        <time>2018-08-15T06:47:55.244Z</time>
      </trkpt>
      <trkpt lat="45.53387" lon="4.74219">
        <ele>449</ele>
        <time>2018-08-15T06:47:56.233Z</time>
      </trkpt>
      <trkpt lat="45.53387" lon="4.74219">
        <ele>449</ele>
        <time>2018-08-15T06:47:57.244Z</time>
      </trkpt>
      <trkpt lat="45.53382" lon="4.74217">
        <ele>449</ele>
        <time>2018-08-15T06:47:58.233Z</time>
      </trkpt>
      <trkpt lat="45.53379" lon="4.74216">
        <ele>449</ele>
        <time>2018-08-15T06:47:59.232Z</time>
      </trkpt>
      <trkpt lat="45.53379" lon="4.74216">
        <ele>449</ele>
        <time>2018-08-15T06:48:00.237Z</time>
      </trkpt>
      <trkpt lat="45.53373" lon="4.74215">
        <ele>449</ele>
        <time>2018-08-15T06:48:01.237Z</time>
      </trkpt>
      <trkpt lat="45.5337" lon="4.74215">
        <ele>449</ele>
        <time>2018-08-15T06:48:02.253Z</time>
      </trkpt>
      <trkpt lat="45.5337" lon="4.74215">
        <ele>449</ele>
        <time>2018-08-15T06:48:03.265Z</time>
      </trkpt>
      <trkpt lat="45.53364" lon="4.74214">
        <ele>450</ele>
        <time>2018-08-15T06:48:04.264Z</time>
      </trkpt>
      <trkpt lat="45.53361" lon="4.74214">
        <ele>450</ele>
        <time>2018-08-15T06:48:05.246Z</time>
      </trkpt>
      <trkpt lat="45.53361" lon="4.74214">
        <ele>450</ele>
        <time>2018-08-15T06:48:06.251Z</time>
      </trkpt>
      <trkpt lat="45.53354" lon="4.74215">
        <ele>450</ele>
        <time>2018-08-15T06:48:07.253Z</time>
      </trkpt>
      <trkpt lat="45.53351" lon="4.74216">
        <ele>450</ele>
        <time>2018-08-15T06:48:08.242Z</time>
      </trkpt>
      <trkpt lat="45.53351" lon="4.74216">
        <ele>450</ele>
        <time>2018-08-15T06:48:09.248Z</time>
      </trkpt>
      <trkpt lat="45.53345" lon="4.74218">
        <ele>450</ele>
        <time>2018-08-15T06:48:10.243Z</time>
      </trkpt>
      <trkpt lat="45.53345" lon="4.74218">
        <ele>450</ele>
        <time>2018-08-15T06:48:11.248Z</time>
      </trkpt>
      <trkpt lat="45.53339" lon="4.74222">
        <ele>451</ele>
        <time>2018-08-15T06:48:12.247Z</time>
      </trkpt>
      <trkpt lat="45.53339" lon="4.74222">
        <ele>451</ele>
        <time>2018-08-15T06:48:13.252Z</time>
      </trkpt>
      <trkpt lat="45.53333" lon="4.74225">
        <ele>451</ele>
        <time>2018-08-15T06:48:14.236Z</time>
      </trkpt>
      <trkpt lat="45.53333" lon="4.74225">
        <ele>451</ele>
        <time>2018-08-15T06:48:15.243Z</time>
      </trkpt>
      <trkpt lat="45.53327" lon="4.74229">
        <ele>451</ele>
        <time>2018-08-15T06:48:16.269Z</time>
      </trkpt>
      <trkpt lat="45.53327" lon="4.74229">
        <ele>451</ele>
        <time>2018-08-15T06:48:17.235Z</time>
      </trkpt>
      <trkpt lat="45.53322" lon="4.74234">
        <ele>452</ele>
        <time>2018-08-15T06:48:18.270Z</time>
      </trkpt>
      <trkpt lat="45.53322" lon="4.74234">
        <ele>452</ele>
        <time>2018-08-15T06:48:19.236Z</time>
      </trkpt>
      <trkpt lat="45.53317" lon="4.74239">
        <ele>452</ele>
        <time>2018-08-15T06:48:20.248Z</time>
      </trkpt>
      <trkpt lat="45.53317" lon="4.74239">
        <ele>452</ele>
        <time>2018-08-15T06:48:21.254Z</time>
      </trkpt>
      <trkpt lat="45.53312" lon="4.74244">
        <ele>452</ele>
        <time>2018-08-15T06:48:22.236Z</time>
      </trkpt>
      <trkpt lat="45.53312" lon="4.74244">
        <ele>452</ele>
        <time>2018-08-15T06:48:23.242Z</time>
      </trkpt>
      <trkpt lat="45.53307" lon="4.74249">
        <ele>453</ele>
        <time>2018-08-15T06:48:24.263Z</time>
      </trkpt>
      <trkpt lat="45.53307" lon="4.74249">
        <ele>453</ele>
        <time>2018-08-15T06:48:25.269Z</time>
      </trkpt>
      <trkpt lat="45.53302" lon="4.74255">
        <ele>453</ele>
        <time>2018-08-15T06:48:26.261Z</time>
      </trkpt>
      <trkpt lat="45.53302" lon="4.74255">
        <ele>453</ele>
        <time>2018-08-15T06:48:27.266Z</time>
      </trkpt>
      <trkpt lat="45.53297" lon="4.7426">
        <ele>454</ele>
        <time>2018-08-15T06:48:28.249Z</time>
      </trkpt>
      <trkpt lat="45.53297" lon="4.7426">
        <ele>454</ele>
        <time>2018-08-15T06:48:29.254Z</time>
      </trkpt>
      <trkpt lat="45.53292" lon="4.74265">
        <ele>454</ele>
        <time>2018-08-15T06:48:30.251Z</time>
      </trkpt>
      <trkpt lat="45.53289" lon="4.74267">
        <ele>454</ele>
        <time>2018-08-15T06:48:31.253Z</time>
      </trkpt>
      <trkpt lat="45.53287" lon="4.7427">
        <ele>454</ele>
        <time>2018-08-15T06:48:32.246Z</time>
      </trkpt>
      <trkpt lat="45.53287" lon="4.7427">
        <ele>454</ele>
        <time>2018-08-15T06:48:33.252Z</time>
      </trkpt>
      <trkpt lat="45.53282" lon="4.74275">
        <ele>455</ele>
        <time>2018-08-15T06:48:34.257Z</time>
      </trkpt>
      <trkpt lat="45.53282" lon="4.74275">
        <ele>455</ele>
        <time>2018-08-15T06:48:35.262Z</time>
      </trkpt>
      <trkpt lat="45.53277" lon="4.7428">
        <ele>455</ele>
        <time>2018-08-15T06:48:36.237Z</time>
      </trkpt>
      <trkpt lat="45.53275" lon="4.74283">
        <ele>455</ele>
        <time>2018-08-15T06:48:37.254Z</time>
      </trkpt>
      <trkpt lat="45.53273" lon="4.74285">
        <ele>455</ele>
        <time>2018-08-15T06:48:38.239Z</time>
      </trkpt>
      <trkpt lat="45.53273" lon="4.74285">
        <ele>455</ele>
        <time>2018-08-15T06:48:39.246Z</time>
      </trkpt>
      <trkpt lat="45.53268" lon="4.7429">
        <ele>455</ele>
        <time>2018-08-15T06:48:40.233Z</time>
      </trkpt>
      <trkpt lat="45.53268" lon="4.7429">
        <ele>455</ele>
        <time>2018-08-15T06:48:41.256Z</time>
      </trkpt>
      <trkpt lat="45.53264" lon="4.74295">
        <ele>456</ele>
        <time>2018-08-15T06:48:42.265Z</time>
      </trkpt>
      <trkpt lat="45.53264" lon="4.74295">
        <ele>456</ele>
        <time>2018-08-15T06:48:43.271Z</time>
      </trkpt>
      <trkpt lat="45.53259" lon="4.743">
        <ele>456</ele>
        <time>2018-08-15T06:48:44.264Z</time>
      </trkpt>
      <trkpt lat="45.53259" lon="4.743">
        <ele>456</ele>
        <time>2018-08-15T06:48:45.270Z</time>
      </trkpt>
      <trkpt lat="45.53255" lon="4.74305">
        <ele>457</ele>
        <time>2018-08-15T06:48:46.263Z</time>
      </trkpt>
      <trkpt lat="45.53255" lon="4.74305">
        <ele>457</ele>
        <time>2018-08-15T06:48:47.269Z</time>
      </trkpt>
      <trkpt lat="45.5325" lon="4.74311">
        <ele>457</ele>
        <time>2018-08-15T06:48:48.265Z</time>
      </trkpt>
      <trkpt lat="45.5325" lon="4.74311">
        <ele>457</ele>
        <time>2018-08-15T06:48:49.270Z</time>
      </trkpt>
      <trkpt lat="45.53245" lon="4.74316">
        <ele>457</ele>
        <time>2018-08-15T06:48:50.256Z</time>
      </trkpt>
      <trkpt lat="45.53245" lon="4.74316">
        <ele>457</ele>
        <time>2018-08-15T06:48:51.262Z</time>
      </trkpt>
      <trkpt lat="45.53241" lon="4.74321">
        <ele>458</ele>
        <time>2018-08-15T06:48:52.249Z</time>
      </trkpt>
      <trkpt lat="45.53241" lon="4.74321">
        <ele>458</ele>
        <time>2018-08-15T06:48:53.254Z</time>
      </trkpt>
      <trkpt lat="45.53235" lon="4.74326">
        <ele>458</ele>
        <time>2018-08-15T06:48:54.243Z</time>
      </trkpt>
      <trkpt lat="45.53235" lon="4.74326">
        <ele>458</ele>
        <time>2018-08-15T06:48:55.249Z</time>
      </trkpt>
      <trkpt lat="45.53229" lon="4.74331">
        <ele>458</ele>
        <time>2018-08-15T06:48:56.248Z</time>
      </trkpt>
      <trkpt lat="45.53229" lon="4.74331">
        <ele>458</ele>
        <time>2018-08-15T06:48:57.253Z</time>
      </trkpt>
      <trkpt lat="45.53224" lon="4.74336">
        <ele>459</ele>
        <time>2018-08-15T06:48:58.251Z</time>
      </trkpt>
      <trkpt lat="45.53224" lon="4.74336">
        <ele>459</ele>
        <time>2018-08-15T06:48:59.257Z</time>
      </trkpt>
      <trkpt lat="45.53219" lon="4.74339">
        <ele>459</ele>
        <time>2018-08-15T06:49:00.237Z</time>
      </trkpt>
      <trkpt lat="45.53219" lon="4.74339">
        <ele>459</ele>
        <time>2018-08-15T06:49:01.244Z</time>
      </trkpt>
      <trkpt lat="45.53213" lon="4.74343">
        <ele>459</ele>
        <time>2018-08-15T06:49:02.269Z</time>
      </trkpt>
      <trkpt lat="45.53213" lon="4.74343">
        <ele>459</ele>
        <time>2018-08-15T06:49:03.234Z</time>
      </trkpt>
      <trkpt lat="45.53207" lon="4.74345">
        <ele>460</ele>
        <time>2018-08-15T06:49:04.233Z</time>
      </trkpt>
      <trkpt lat="45.53207" lon="4.74345">
        <ele>460</ele>
        <time>2018-08-15T06:49:05.239Z</time>
      </trkpt>
      <trkpt lat="45.53201" lon="4.74347">
        <ele>460</ele>
        <time>2018-08-15T06:49:06.269Z</time>
      </trkpt>
      <trkpt lat="45.53201" lon="4.74347">
        <ele>460</ele>
        <time>2018-08-15T06:49:07.234Z</time>
      </trkpt>
      <trkpt lat="45.53196" lon="4.74348">
        <ele>461</ele>
        <time>2018-08-15T06:49:08.233Z</time>
      </trkpt>
      <trkpt lat="45.53196" lon="4.74348">
        <ele>461</ele>
        <time>2018-08-15T06:49:09.245Z</time>
      </trkpt>
      <trkpt lat="45.53189" lon="4.74349">
        <ele>462</ele>
        <time>2018-08-15T06:49:10.270Z</time>
      </trkpt>
      <trkpt lat="45.53189" lon="4.74349">
        <ele>462</ele>
        <time>2018-08-15T06:49:11.235Z</time>
      </trkpt>
      <trkpt lat="45.53183" lon="4.7435">
        <ele>462</ele>
        <time>2018-08-15T06:49:12.260Z</time>
      </trkpt>
      <trkpt lat="45.53183" lon="4.7435">
        <ele>462</ele>
        <time>2018-08-15T06:49:13.265Z</time>
      </trkpt>
      <trkpt lat="45.53176" lon="4.7435">
        <ele>462</ele>
        <time>2018-08-15T06:49:14.266Z</time>
      </trkpt>
      <trkpt lat="45.53176" lon="4.7435">
        <ele>462</ele>
        <time>2018-08-15T06:49:15.271Z</time>
      </trkpt>
      <trkpt lat="45.5317" lon="4.74349">
        <ele>463</ele>
        <time>2018-08-15T06:49:16.260Z</time>
      </trkpt>
      <trkpt lat="45.5317" lon="4.74349">
        <ele>463</ele>
        <time>2018-08-15T06:49:17.267Z</time>
      </trkpt>
      <trkpt lat="45.53163" lon="4.74346">
        <ele>463</ele>
        <time>2018-08-15T06:49:18.256Z</time>
      </trkpt>
      <trkpt lat="45.53163" lon="4.74346">
        <ele>463</ele>
        <time>2018-08-15T06:49:19.261Z</time>
      </trkpt>
      <trkpt lat="45.53156" lon="4.74343">
        <ele>463</ele>
        <time>2018-08-15T06:49:20.262Z</time>
      </trkpt>
      <trkpt lat="45.53156" lon="4.74343">
        <ele>463</ele>
        <time>2018-08-15T06:49:21.268Z</time>
      </trkpt>
      <trkpt lat="45.53149" lon="4.74339">
        <ele>464</ele>
        <time>2018-08-15T06:49:22.255Z</time>
      </trkpt>
      <trkpt lat="45.53146" lon="4.74336">
        <ele>464</ele>
        <time>2018-08-15T06:49:23.243Z</time>
      </trkpt>
      <trkpt lat="45.53144" lon="4.74333">
        <ele>464</ele>
        <time>2018-08-15T06:49:24.243Z</time>
      </trkpt>
      <trkpt lat="45.53144" lon="4.74333">
        <ele>464</ele>
        <time>2018-08-15T06:49:25.249Z</time>
      </trkpt>
      <trkpt lat="45.53139" lon="4.74327">
        <ele>465</ele>
        <time>2018-08-15T06:49:26.233Z</time>
      </trkpt>
      <trkpt lat="45.53139" lon="4.74327">
        <ele>465</ele>
        <time>2018-08-15T06:49:27.243Z</time>
      </trkpt>
      <trkpt lat="45.53134" lon="4.74322">
        <ele>465</ele>
        <time>2018-08-15T06:49:28.271Z</time>
      </trkpt>
      <trkpt lat="45.53134" lon="4.74322">
        <ele>465</ele>
        <time>2018-08-15T06:49:29.238Z</time>
      </trkpt>
      <trkpt lat="45.53128" lon="4.74317">
        <ele>466</ele>
        <time>2018-08-15T06:49:30.235Z</time>
      </trkpt>
      <trkpt lat="45.53126" lon="4.74314">
        <ele>466</ele>
        <time>2018-08-15T06:49:31.270Z</time>
      </trkpt>
      <trkpt lat="45.53124" lon="4.74312">
        <ele>467</ele>
        <time>2018-08-15T06:49:32.234Z</time>
      </trkpt>
      <trkpt lat="45.53124" lon="4.74312">
        <ele>467</ele>
        <time>2018-08-15T06:49:33.239Z</time>
      </trkpt>
      <trkpt lat="45.53119" lon="4.74307">
        <ele>468</ele>
        <time>2018-08-15T06:49:34.258Z</time>
      </trkpt>
      <trkpt lat="45.53116" lon="4.74305">
        <ele>468</ele>
        <time>2018-08-15T06:49:35.250Z</time>
      </trkpt>
      <trkpt lat="45.53113" lon="4.74303">
        <ele>468</ele>
        <time>2018-08-15T06:49:36.258Z</time>
      </trkpt>
      <trkpt lat="45.53113" lon="4.74303">
        <ele>468</ele>
        <time>2018-08-15T06:49:37.247Z</time>
      </trkpt>
      <trkpt lat="45.53106" lon="4.74297">
        <ele>469</ele>
        <time>2018-08-15T06:49:38.251Z</time>
      </trkpt>
      <trkpt lat="45.53106" lon="4.74297">
        <ele>469</ele>
        <time>2018-08-15T06:49:39.256Z</time>
      </trkpt>
      <trkpt lat="45.53098" lon="4.7429">
        <ele>470</ele>
        <time>2018-08-15T06:49:40.262Z</time>
      </trkpt>
      <trkpt lat="45.53095" lon="4.74286">
        <ele>471</ele>
        <time>2018-08-15T06:49:41.249Z</time>
      </trkpt>
      <trkpt lat="45.53095" lon="4.74286">
        <ele>471</ele>
        <time>2018-08-15T06:49:42.255Z</time>
      </trkpt>
      <trkpt lat="45.53086" lon="4.74275">
        <ele>471</ele>
        <time>2018-08-15T06:49:43.238Z</time>
      </trkpt>
      <trkpt lat="45.53082" lon="4.74269">
        <ele>472</ele>
        <time>2018-08-15T06:49:44.233Z</time>
      </trkpt>
      <trkpt lat="45.53082" lon="4.74269">
        <ele>472</ele>
        <time>2018-08-15T06:49:45.245Z</time>
      </trkpt>
      <trkpt lat="45.53075" lon="4.74257">
        <ele>472</ele>
        <time>2018-08-15T06:49:46.240Z</time>
      </trkpt>
      <trkpt lat="45.53075" lon="4.74257">
        <ele>472</ele>
        <time>2018-08-15T06:49:47.247Z</time>
      </trkpt>
      <trkpt lat="45.53068" lon="4.74247">
        <ele>472</ele>
        <time>2018-08-15T06:49:48.244Z</time>
      </trkpt>
      <trkpt lat="45.53068" lon="4.74247">
        <ele>472</ele>
        <time>2018-08-15T06:49:49.250Z</time>
      </trkpt>
      <trkpt lat="45.53062" lon="4.74238">
        <ele>472</ele>
        <time>2018-08-15T06:49:50.239Z</time>
      </trkpt>
      <trkpt lat="45.53062" lon="4.74238">
        <ele>472</ele>
        <time>2018-08-15T06:49:51.245Z</time>
      </trkpt>
      <trkpt lat="45.53055" lon="4.7423">
        <ele>471</ele>
        <time>2018-08-15T06:49:52.266Z</time>
      </trkpt>
      <trkpt lat="45.53055" lon="4.7423">
        <ele>471</ele>
        <time>2018-08-15T06:49:53.232Z</time>
      </trkpt>
      <trkpt lat="45.53048" lon="4.74221">
        <ele>471</ele>
        <time>2018-08-15T06:49:54.266Z</time>
      </trkpt>
      <trkpt lat="45.53048" lon="4.74221">
        <ele>471</ele>
        <time>2018-08-15T06:49:55.232Z</time>
      </trkpt>
      <trkpt lat="45.53039" lon="4.74215">
        <ele>471</ele>
        <time>2018-08-15T06:49:56.257Z</time>
      </trkpt>
      <trkpt lat="45.53039" lon="4.74215">
        <ele>471</ele>
        <time>2018-08-15T06:49:57.263Z</time>
      </trkpt>
      <trkpt lat="45.53032" lon="4.74211">
        <ele>470</ele>
        <time>2018-08-15T06:49:58.259Z</time>
      </trkpt>
      <trkpt lat="45.53032" lon="4.74211">
        <ele>470</ele>
        <time>2018-08-15T06:49:59.264Z</time>
      </trkpt>
      <trkpt lat="45.53025" lon="4.74206">
        <ele>470</ele>
        <time>2018-08-15T06:50:00.254Z</time>
      </trkpt>
      <trkpt lat="45.53025" lon="4.74206">
        <ele>470</ele>
        <time>2018-08-15T06:50:01.255Z</time>
      </trkpt>
      <trkpt lat="45.53018" lon="4.74202">
        <ele>470</ele>
        <time>2018-08-15T06:50:02.255Z</time>
      </trkpt>
      <trkpt lat="45.53018" lon="4.74202">
        <ele>470</ele>
        <time>2018-08-15T06:50:03.261Z</time>
      </trkpt>
      <trkpt lat="45.53011" lon="4.74199">
        <ele>470</ele>
        <time>2018-08-15T06:50:04.243Z</time>
      </trkpt>
      <trkpt lat="45.53011" lon="4.74199">
        <ele>470</ele>
        <time>2018-08-15T06:50:05.255Z</time>
      </trkpt>
      <trkpt lat="45.53005" lon="4.74197">
        <ele>470</ele>
        <time>2018-08-15T06:50:06.257Z</time>
      </trkpt>
      <trkpt lat="45.53005" lon="4.74197">
        <ele>470</ele>
        <time>2018-08-15T06:50:07.262Z</time>
      </trkpt>
      <trkpt lat="45.52998" lon="4.74194">
        <ele>470</ele>
        <time>2018-08-15T06:50:08.254Z</time>
      </trkpt>
      <trkpt lat="45.52998" lon="4.74194">
        <ele>470</ele>
        <time>2018-08-15T06:50:09.259Z</time>
      </trkpt>
      <trkpt lat="45.52992" lon="4.74193">
        <ele>470</ele>
        <time>2018-08-15T06:50:10.247Z</time>
      </trkpt>
      <trkpt lat="45.52992" lon="4.74193">
        <ele>470</ele>
        <time>2018-08-15T06:50:11.253Z</time>
      </trkpt>
      <trkpt lat="45.52986" lon="4.74191">
        <ele>469</ele>
        <time>2018-08-15T06:50:12.266Z</time>
      </trkpt>
      <trkpt lat="45.52986" lon="4.74191">
        <ele>469</ele>
        <time>2018-08-15T06:50:13.247Z</time>
      </trkpt>
      <trkpt lat="45.52979" lon="4.74189">
        <ele>469</ele>
        <time>2018-08-15T06:50:14.249Z</time>
      </trkpt>
      <trkpt lat="45.52979" lon="4.74189">
        <ele>469</ele>
        <time>2018-08-15T06:50:15.254Z</time>
      </trkpt>
      <trkpt lat="45.52973" lon="4.74187">
        <ele>469</ele>
        <time>2018-08-15T06:50:16.241Z</time>
      </trkpt>
      <trkpt lat="45.52973" lon="4.74187">
        <ele>469</ele>
        <time>2018-08-15T06:50:17.246Z</time>
      </trkpt>
      <trkpt lat="45.52968" lon="4.74185">
        <ele>469</ele>
        <time>2018-08-15T06:50:18.269Z</time>
      </trkpt>
      <trkpt lat="45.52965" lon="4.74183">
        <ele>469</ele>
        <time>2018-08-15T06:50:19.256Z</time>
      </trkpt>
      <trkpt lat="45.52965" lon="4.74183">
        <ele>469</ele>
        <time>2018-08-15T06:50:20.262Z</time>
      </trkpt>
      <trkpt lat="45.52959" lon="4.7418">
        <ele>469</ele>
        <time>2018-08-15T06:50:21.250Z</time>
      </trkpt>
      <trkpt lat="45.52959" lon="4.7418">
        <ele>469</ele>
        <time>2018-08-15T06:50:22.255Z</time>
      </trkpt>
      <trkpt lat="45.52953" lon="4.74176">
        <ele>469</ele>
        <time>2018-08-15T06:50:23.248Z</time>
      </trkpt>
      <trkpt lat="45.52953" lon="4.74176">
        <ele>469</ele>
        <time>2018-08-15T06:50:24.254Z</time>
      </trkpt>
      <trkpt lat="45.52947" lon="4.74172">
        <ele>469</ele>
        <time>2018-08-15T06:50:25.251Z</time>
      </trkpt>
      <trkpt lat="45.52944" lon="4.74169">
        <ele>469</ele>
        <time>2018-08-15T06:50:26.243Z</time>
      </trkpt>
      <trkpt lat="45.52944" lon="4.74169">
        <ele>469</ele>
        <time>2018-08-15T06:50:27.249Z</time>
      </trkpt>
      <trkpt lat="45.52939" lon="4.74164">
        <ele>469</ele>
        <time>2018-08-15T06:50:28.251Z</time>
      </trkpt>
      <trkpt lat="45.52939" lon="4.74164">
        <ele>469</ele>
        <time>2018-08-15T06:50:29.256Z</time>
      </trkpt>
      <trkpt lat="45.52935" lon="4.74158">
        <ele>469</ele>
        <time>2018-08-15T06:50:30.261Z</time>
      </trkpt>
      <trkpt lat="45.52935" lon="4.74158">
        <ele>469</ele>
        <time>2018-08-15T06:50:31.267Z</time>
      </trkpt>
      <trkpt lat="45.52931" lon="4.74151">
        <ele>469</ele>
        <time>2018-08-15T06:50:32.265Z</time>
      </trkpt>
      <trkpt lat="45.52931" lon="4.74151">
        <ele>469</ele>
        <time>2018-08-15T06:50:33.270Z</time>
      </trkpt>
      <trkpt lat="45.52927" lon="4.74144">
        <ele>470</ele>
        <time>2018-08-15T06:50:34.260Z</time>
      </trkpt>
      <trkpt lat="45.52927" lon="4.74144">
        <ele>470</ele>
        <time>2018-08-15T06:50:35.266Z</time>
      </trkpt>
      <trkpt lat="45.52923" lon="4.74137">
        <ele>470</ele>
        <time>2018-08-15T06:50:36.263Z</time>
      </trkpt>
      <trkpt lat="45.52923" lon="4.74137">
        <ele>470</ele>
        <time>2018-08-15T06:50:37.259Z</time>
      </trkpt>
      <trkpt lat="45.52919" lon="4.74131">
        <ele>470</ele>
        <time>2018-08-15T06:50:38.253Z</time>
      </trkpt>
      <trkpt lat="45.52919" lon="4.74131">
        <ele>470</ele>
        <time>2018-08-15T06:50:39.259Z</time>
      </trkpt>
      <trkpt lat="45.52914" lon="4.74124">
        <ele>470</ele>
        <time>2018-08-15T06:50:40.245Z</time>
      </trkpt>
      <trkpt lat="45.52914" lon="4.74124">
        <ele>470</ele>
        <time>2018-08-15T06:50:41.250Z</time>
      </trkpt>
      <trkpt lat="45.5291" lon="4.74118">
        <ele>470</ele>
        <time>2018-08-15T06:50:42.245Z</time>
      </trkpt>
      <trkpt lat="45.5291" lon="4.74118">
        <ele>470</ele>
        <time>2018-08-15T06:50:43.250Z</time>
      </trkpt>
      <trkpt lat="45.52906" lon="4.74111">
        <ele>470</ele>
        <time>2018-08-15T06:50:44.238Z</time>
      </trkpt>
      <trkpt lat="45.52906" lon="4.74111">
        <ele>470</ele>
        <time>2018-08-15T06:50:45.245Z</time>
      </trkpt>
      <trkpt lat="45.52901" lon="4.74105">
        <ele>470</ele>
        <time>2018-08-15T06:50:46.269Z</time>
      </trkpt>
      <trkpt lat="45.52901" lon="4.74105">
        <ele>470</ele>
        <time>2018-08-15T06:50:47.235Z</time>
      </trkpt>
      <trkpt lat="45.52896" lon="4.74099">
        <ele>470</ele>
        <time>2018-08-15T06:50:48.269Z</time>
      </trkpt>
      <trkpt lat="45.52896" lon="4.74099">
        <ele>470</ele>
        <time>2018-08-15T06:50:49.235Z</time>
      </trkpt>
      <trkpt lat="45.52891" lon="4.74094">
        <ele>471</ele>
        <time>2018-08-15T06:50:50.267Z</time>
      </trkpt>
      <trkpt lat="45.52891" lon="4.74094">
        <ele>471</ele>
        <time>2018-08-15T06:50:51.232Z</time>
      </trkpt>
      <trkpt lat="45.52886" lon="4.74088">
        <ele>471</ele>
        <time>2018-08-15T06:50:52.268Z</time>
      </trkpt>
      <trkpt lat="45.52886" lon="4.74088">
        <ele>471</ele>
        <time>2018-08-15T06:50:53.233Z</time>
      </trkpt>
      <trkpt lat="45.52883" lon="4.74084">
        <ele>471</ele>
        <time>2018-08-15T06:50:54.264Z</time>
      </trkpt>
      <trkpt lat="45.52883" lon="4.74084">
        <ele>471</ele>
        <time>2018-08-15T06:50:55.269Z</time>
      </trkpt>
      <trkpt lat="45.52877" lon="4.7408">
        <ele>471</ele>
        <time>2018-08-15T06:50:56.255Z</time>
      </trkpt>
      <trkpt lat="45.52877" lon="4.7408">
        <ele>471</ele>
        <time>2018-08-15T06:50:57.260Z</time>
      </trkpt>
      <trkpt lat="45.52873" lon="4.74077">
        <ele>471</ele>
        <time>2018-08-15T06:50:58.242Z</time>
      </trkpt>
      <trkpt lat="45.5287" lon="4.74076">
        <ele>472</ele>
        <time>2018-08-15T06:50:59.233Z</time>
      </trkpt>
      <trkpt lat="45.5287" lon="4.74076">
        <ele>472</ele>
        <time>2018-08-15T06:51:00.243Z</time>
      </trkpt>
      <trkpt lat="45.52864" lon="4.74075">
        <ele>473</ele>
        <time>2018-08-15T06:51:01.267Z</time>
      </trkpt>
      <trkpt lat="45.52862" lon="4.74074">
        <ele>473</ele>
        <time>2018-08-15T06:51:02.251Z</time>
      </trkpt>
      <trkpt lat="45.52862" lon="4.74074">
        <ele>473</ele>
        <time>2018-08-15T06:51:03.256Z</time>
      </trkpt>
      <trkpt lat="45.52857" lon="4.74074">
        <ele>474</ele>
        <time>2018-08-15T06:51:04.245Z</time>
      </trkpt>
      <trkpt lat="45.52857" lon="4.74074">
        <ele>474</ele>
        <time>2018-08-15T06:51:05.250Z</time>
      </trkpt>
      <trkpt lat="45.52853" lon="4.74076">
        <ele>475</ele>
        <time>2018-08-15T06:51:06.236Z</time>
      </trkpt>
      <trkpt lat="45.52853" lon="4.74076">
        <ele>475</ele>
        <time>2018-08-15T06:51:07.242Z</time>
      </trkpt>
      <trkpt lat="45.52849" lon="4.74076">
        <ele>477</ele>
        <time>2018-08-15T06:51:08.264Z</time>
      </trkpt>
      <trkpt lat="45.52849" lon="4.74076">
        <ele>477</ele>
        <time>2018-08-15T06:51:09.269Z</time>
      </trkpt>
      <trkpt lat="45.52846" lon="4.74078">
        <ele>478</ele>
        <time>2018-08-15T06:51:10.255Z</time>
      </trkpt>
      <trkpt lat="45.52844" lon="4.74079">
        <ele>478</ele>
        <time>2018-08-15T06:51:11.242Z</time>
      </trkpt>
      <trkpt lat="45.52844" lon="4.74079">
        <ele>478</ele>
        <time>2018-08-15T06:51:12.247Z</time>
      </trkpt>
      <trkpt lat="45.5284" lon="4.74082">
        <ele>480</ele>
        <time>2018-08-15T06:51:13.253Z</time>
      </trkpt>
      <trkpt lat="45.52838" lon="4.74084">
        <ele>481</ele>
        <time>2018-08-15T06:51:14.241Z</time>
      </trkpt>
      <trkpt lat="45.52838" lon="4.74084">
        <ele>481</ele>
        <time>2018-08-15T06:51:15.246Z</time>
      </trkpt>
      <trkpt lat="45.52833" lon="4.74086">
        <ele>482</ele>
        <time>2018-08-15T06:51:16.234Z</time>
      </trkpt>
      <trkpt lat="45.52833" lon="4.74086">
        <ele>482</ele>
        <time>2018-08-15T06:51:17.239Z</time>
      </trkpt>
      <trkpt lat="45.52827" lon="4.74091">
        <ele>483</ele>
        <time>2018-08-15T06:51:18.238Z</time>
      </trkpt>
      <trkpt lat="45.52827" lon="4.74091">
        <ele>483</ele>
        <time>2018-08-15T06:51:19.243Z</time>
      </trkpt>
      <trkpt lat="45.52822" lon="4.74095">
        <ele>484</ele>
        <time>2018-08-15T06:51:20.265Z</time>
      </trkpt>
      <trkpt lat="45.52822" lon="4.74095">
        <ele>484</ele>
        <time>2018-08-15T06:51:21.271Z</time>
      </trkpt>
      <trkpt lat="45.52817" lon="4.74099">
        <ele>486</ele>
        <time>2018-08-15T06:51:22.263Z</time>
      </trkpt>
      <trkpt lat="45.52814" lon="4.74101">
        <ele>486</ele>
        <time>2018-08-15T06:51:23.251Z</time>
      </trkpt>
      <trkpt lat="45.52814" lon="4.74101">
        <ele>486</ele>
        <time>2018-08-15T06:51:24.256Z</time>
      </trkpt>
      <trkpt lat="45.52803" lon="4.74106">
        <ele>487</ele>
        <time>2018-08-15T06:51:25.256Z</time>
      </trkpt>
      <trkpt lat="45.52801" lon="4.74108">
        <ele>488</ele>
        <time>2018-08-15T06:51:26.262Z</time>
      </trkpt>
      <trkpt lat="45.52801" lon="4.74108">
        <ele>488</ele>
        <time>2018-08-15T06:51:27.269Z</time>
      </trkpt>
      <trkpt lat="45.52796" lon="4.74112">
        <ele>489</ele>
        <time>2018-08-15T06:51:28.258Z</time>
      </trkpt>
      <trkpt lat="45.52796" lon="4.74112">
        <ele>489</ele>
        <time>2018-08-15T06:51:29.263Z</time>
      </trkpt>
      <trkpt lat="45.52792" lon="4.74116">
        <ele>490</ele>
        <time>2018-08-15T06:51:30.250Z</time>
      </trkpt>
      <trkpt lat="45.5279" lon="4.74118">
        <ele>491</ele>
        <time>2018-08-15T06:51:31.240Z</time>
      </trkpt>
      <trkpt lat="45.52788" lon="4.7412">
        <ele>491</ele>
        <time>2018-08-15T06:51:32.250Z</time>
      </trkpt>
      <trkpt lat="45.52788" lon="4.7412">
        <ele>491</ele>
        <time>2018-08-15T06:51:33.256Z</time>
      </trkpt>
      <trkpt lat="45.52785" lon="4.74125">
        <ele>492</ele>
        <time>2018-08-15T06:51:34.250Z</time>
      </trkpt>
      <trkpt lat="45.52785" lon="4.74125">
        <ele>492</ele>
        <time>2018-08-15T06:51:35.256Z</time>
      </trkpt>
      <trkpt lat="45.5278" lon="4.74129">
        <ele>493</ele>
        <time>2018-08-15T06:51:36.258Z</time>
      </trkpt>
      <trkpt lat="45.52778" lon="4.74131">
        <ele>494</ele>
        <time>2018-08-15T06:51:37.245Z</time>
      </trkpt>
      <trkpt lat="45.52777" lon="4.74133">
        <ele>494</ele>
        <time>2018-08-15T06:51:38.250Z</time>
      </trkpt>
      <trkpt lat="45.52777" lon="4.74133">
        <ele>494</ele>
        <time>2018-08-15T06:51:39.256Z</time>
      </trkpt>
      <trkpt lat="45.52773" lon="4.74138">
        <ele>495</ele>
        <time>2018-08-15T06:51:40.246Z</time>
      </trkpt>
      <trkpt lat="45.52773" lon="4.74138">
        <ele>495</ele>
        <time>2018-08-15T06:51:41.252Z</time>
      </trkpt>
      <trkpt lat="45.52769" lon="4.74142">
        <ele>496</ele>
        <time>2018-08-15T06:51:42.244Z</time>
      </trkpt>
      <trkpt lat="45.52766" lon="4.74144">
        <ele>496</ele>
        <time>2018-08-15T06:51:43.270Z</time>
      </trkpt>
      <trkpt lat="45.52763" lon="4.74147">
        <ele>497</ele>
        <time>2018-08-15T06:51:44.266Z</time>
      </trkpt>
      <trkpt lat="45.52763" lon="4.74147">
        <ele>497</ele>
        <time>2018-08-15T06:51:45.271Z</time>
      </trkpt>
      <trkpt lat="45.52758" lon="4.74151">
        <ele>497</ele>
        <time>2018-08-15T06:51:46.271Z</time>
      </trkpt>
      <trkpt lat="45.52758" lon="4.74151">
        <ele>497</ele>
        <time>2018-08-15T06:51:47.236Z</time>
      </trkpt>
      <trkpt lat="45.52753" lon="4.74155">
        <ele>498</ele>
        <time>2018-08-15T06:51:48.269Z</time>
      </trkpt>
      <trkpt lat="45.52751" lon="4.74157">
        <ele>499</ele>
        <time>2018-08-15T06:51:49.255Z</time>
      </trkpt>
      <trkpt lat="45.52751" lon="4.74157">
        <ele>499</ele>
        <time>2018-08-15T06:51:50.260Z</time>
      </trkpt>
      <trkpt lat="45.52746" lon="4.74161">
        <ele>499</ele>
        <time>2018-08-15T06:51:51.250Z</time>
      </trkpt>
      <trkpt lat="45.52744" lon="4.74164">
        <ele>500</ele>
        <time>2018-08-15T06:51:52.246Z</time>
      </trkpt>
      <trkpt lat="45.52744" lon="4.74164">
        <ele>500</ele>
        <time>2018-08-15T06:51:53.251Z</time>
      </trkpt>
      <trkpt lat="45.5274" lon="4.74167">
        <ele>500</ele>
        <time>2018-08-15T06:51:54.245Z</time>
      </trkpt>
      <trkpt lat="45.5274" lon="4.74167">
        <ele>500</ele>
        <time>2018-08-15T06:51:55.250Z</time>
      </trkpt>
      <trkpt lat="45.52733" lon="4.74172">
        <ele>501</ele>
        <time>2018-08-15T06:51:56.250Z</time>
      </trkpt>
      <trkpt lat="45.52733" lon="4.74172">
        <ele>501</ele>
        <time>2018-08-15T06:51:57.255Z</time>
      </trkpt>
      <trkpt lat="45.52728" lon="4.74174">
        <ele>502</ele>
        <time>2018-08-15T06:51:58.246Z</time>
      </trkpt>
      <trkpt lat="45.52728" lon="4.74174">
        <ele>502</ele>
        <time>2018-08-15T06:51:59.251Z</time>
      </trkpt>
      <trkpt lat="45.52724" lon="4.74178">
        <ele>503</ele>
        <time>2018-08-15T06:52:00.240Z</time>
      </trkpt>
      <trkpt lat="45.52722" lon="4.74179">
        <ele>503</ele>
        <time>2018-08-15T06:52:01.235Z</time>
      </trkpt>
      <trkpt lat="45.52718" lon="4.74181">
        <ele>503</ele>
        <time>2018-08-15T06:52:02.267Z</time>
      </trkpt>
      <trkpt lat="45.52718" lon="4.74181">
        <ele>503</ele>
        <time>2018-08-15T06:52:03.232Z</time>
      </trkpt>
      <trkpt lat="45.52714" lon="4.74184">
        <ele>504</ele>
        <time>2018-08-15T06:52:04.260Z</time>
      </trkpt>
      <trkpt lat="45.52714" lon="4.74184">
        <ele>504</ele>
        <time>2018-08-15T06:52:05.265Z</time>
      </trkpt>
      <trkpt lat="45.5271" lon="4.74187">
        <ele>505</ele>
        <time>2018-08-15T06:52:06.249Z</time>
      </trkpt>
      <trkpt lat="45.5271" lon="4.74187">
        <ele>505</ele>
        <time>2018-08-15T06:52:07.255Z</time>
      </trkpt>
      <trkpt lat="45.52706" lon="4.7419">
        <ele>506</ele>
        <time>2018-08-15T06:52:08.255Z</time>
      </trkpt>
      <trkpt lat="45.52706" lon="4.7419">
        <ele>506</ele>
        <time>2018-08-15T06:52:09.260Z</time>
      </trkpt>
      <trkpt lat="45.52701" lon="4.74193">
        <ele>506</ele>
        <time>2018-08-15T06:52:10.252Z</time>
      </trkpt>
      <trkpt lat="45.52701" lon="4.74193">
        <ele>506</ele>
        <time>2018-08-15T06:52:11.258Z</time>
      </trkpt>
      <trkpt lat="45.52697" lon="4.74196">
        <ele>507</ele>
        <time>2018-08-15T06:52:12.252Z</time>
      </trkpt>
      <trkpt lat="45.52696" lon="4.74197">
        <ele>508</ele>
        <time>2018-08-15T06:52:13.243Z</time>
      </trkpt>
      <trkpt lat="45.52696" lon="4.74197">
        <ele>508</ele>
        <time>2018-08-15T06:52:14.248Z</time>
      </trkpt>
      <trkpt lat="45.52692" lon="4.742">
        <ele>508</ele>
        <time>2018-08-15T06:52:15.234Z</time>
      </trkpt>
      <trkpt lat="45.52692" lon="4.742">
        <ele>508</ele>
        <time>2018-08-15T06:52:16.243Z</time>
      </trkpt>
      <trkpt lat="45.52688" lon="4.74202">
        <ele>509</ele>
        <time>2018-08-15T06:52:17.233Z</time>
      </trkpt>
      <trkpt lat="45.52688" lon="4.74202">
        <ele>509</ele>
        <time>2018-08-15T06:52:18.242Z</time>
      </trkpt>
      <trkpt lat="45.52684" lon="4.74204">
        <ele>510</ele>
        <time>2018-08-15T06:52:19.232Z</time>
      </trkpt>
      <trkpt lat="45.52683" lon="4.74205">
        <ele>510</ele>
        <time>2018-08-15T06:52:20.262Z</time>
      </trkpt>
      <trkpt lat="45.52683" lon="4.74205">
        <ele>510</ele>
        <time>2018-08-15T06:52:21.269Z</time>
      </trkpt>
      <trkpt lat="45.52678" lon="4.74207">
        <ele>511</ele>
        <time>2018-08-15T06:52:22.253Z</time>
      </trkpt>
      <trkpt lat="45.52678" lon="4.74207">
        <ele>511</ele>
        <time>2018-08-15T06:52:23.258Z</time>
      </trkpt>
      <trkpt lat="45.52672" lon="4.74209">
        <ele>512</ele>
        <time>2018-08-15T06:52:24.246Z</time>
      </trkpt>
      <trkpt lat="45.52672" lon="4.74209">
        <ele>512</ele>
        <time>2018-08-15T06:52:25.251Z</time>
      </trkpt>
      <trkpt lat="45.52664" lon="4.7421">
        <ele>513</ele>
        <time>2018-08-15T06:52:26.257Z</time>
      </trkpt>
      <trkpt lat="45.52664" lon="4.7421">
        <ele>513</ele>
        <time>2018-08-15T06:52:27.262Z</time>
      </trkpt>
      <trkpt lat="45.52655" lon="4.7421">
        <ele>513</ele>
        <time>2018-08-15T06:52:28.259Z</time>
      </trkpt>
      <trkpt lat="45.52655" lon="4.7421">
        <ele>513</ele>
        <time>2018-08-15T06:52:29.264Z</time>
      </trkpt>
      <trkpt lat="45.52646" lon="4.7421">
        <ele>514</ele>
        <time>2018-08-15T06:52:30.249Z</time>
      </trkpt>
      <trkpt lat="45.52644" lon="4.7421">
        <ele>514</ele>
        <time>2018-08-15T06:52:31.253Z</time>
      </trkpt>
      <trkpt lat="45.52641" lon="4.74211">
        <ele>515</ele>
        <time>2018-08-15T06:52:32.271Z</time>
      </trkpt>
      <trkpt lat="45.52641" lon="4.74211">
        <ele>515</ele>
        <time>2018-08-15T06:52:33.244Z</time>
      </trkpt>
      <trkpt lat="45.52635" lon="4.74211">
        <ele>515</ele>
        <time>2018-08-15T06:52:34.243Z</time>
      </trkpt>
      <trkpt lat="45.52635" lon="4.74211">
        <ele>515</ele>
        <time>2018-08-15T06:52:35.249Z</time>
      </trkpt>
      <trkpt lat="45.5263" lon="4.74211">
        <ele>516</ele>
        <time>2018-08-15T06:52:36.236Z</time>
      </trkpt>
      <trkpt lat="45.5263" lon="4.74211">
        <ele>516</ele>
        <time>2018-08-15T06:52:37.268Z</time>
      </trkpt>
      <trkpt lat="45.52624" lon="4.74211">
        <ele>516</ele>
        <time>2018-08-15T06:52:38.270Z</time>
      </trkpt>
      <trkpt lat="45.52624" lon="4.74211">
        <ele>516</ele>
        <time>2018-08-15T06:52:39.239Z</time>
      </trkpt>
      <trkpt lat="45.52617" lon="4.7421">
        <ele>517</ele>
        <time>2018-08-15T06:52:40.271Z</time>
      </trkpt>
      <trkpt lat="45.52614" lon="4.74209">
        <ele>517</ele>
        <time>2018-08-15T06:52:41.256Z</time>
      </trkpt>
      <trkpt lat="45.52614" lon="4.74209">
        <ele>517</ele>
        <time>2018-08-15T06:52:42.262Z</time>
      </trkpt>
      <trkpt lat="45.52608" lon="4.7421">
        <ele>518</ele>
        <time>2018-08-15T06:52:43.239Z</time>
      </trkpt>
      <trkpt lat="45.52604" lon="4.74209">
        <ele>519</ele>
        <time>2018-08-15T06:52:44.233Z</time>
      </trkpt>
      <trkpt lat="45.52604" lon="4.74209">
        <ele>519</ele>
        <time>2018-08-15T06:52:45.243Z</time>
      </trkpt>
      <trkpt lat="45.52597" lon="4.74208">
        <ele>519</ele>
        <time>2018-08-15T06:52:46.234Z</time>
      </trkpt>
      <trkpt lat="45.52597" lon="4.74208">
        <ele>519</ele>
        <time>2018-08-15T06:52:47.241Z</time>
      </trkpt>
      <trkpt lat="45.52588" lon="4.74206">
        <ele>519</ele>
        <time>2018-08-15T06:52:48.240Z</time>
      </trkpt>
      <trkpt lat="45.52588" lon="4.74206">
        <ele>519</ele>
        <time>2018-08-15T06:52:49.245Z</time>
      </trkpt>
      <trkpt lat="45.52577" lon="4.74204">
        <ele>520</ele>
        <time>2018-08-15T06:52:50.254Z</time>
      </trkpt>
      <trkpt lat="45.52577" lon="4.74204">
        <ele>520</ele>
        <time>2018-08-15T06:52:51.259Z</time>
      </trkpt>
      <trkpt lat="45.52569" lon="4.74203">
        <ele>520</ele>
        <time>2018-08-15T06:52:52.255Z</time>
      </trkpt>
      <trkpt lat="45.52569" lon="4.74203">
        <ele>520</ele>
        <time>2018-08-15T06:52:53.261Z</time>
      </trkpt>
      <trkpt lat="45.52562" lon="4.74203">
        <ele>520</ele>
        <time>2018-08-15T06:52:54.265Z</time>
      </trkpt>
      <trkpt lat="45.52562" lon="4.74203">
        <ele>520</ele>
        <time>2018-08-15T06:52:55.271Z</time>
      </trkpt>
      <trkpt lat="45.52554" lon="4.74202">
        <ele>520</ele>
        <time>2018-08-15T06:52:56.269Z</time>
      </trkpt>
      <trkpt lat="45.52554" lon="4.74202">
        <ele>520</ele>
        <time>2018-08-15T06:52:57.235Z</time>
      </trkpt>
      <trkpt lat="45.52546" lon="4.74201">
        <ele>520</ele>
        <time>2018-08-15T06:52:58.262Z</time>
      </trkpt>
      <trkpt lat="45.52546" lon="4.74201">
        <ele>520</ele>
        <time>2018-08-15T06:52:59.270Z</time>
      </trkpt>
      <trkpt lat="45.52538" lon="4.742">
        <ele>520</ele>
        <time>2018-08-15T06:53:00.269Z</time>
      </trkpt>
      <trkpt lat="45.52538" lon="4.742">
        <ele>520</ele>
        <time>2018-08-15T06:53:01.234Z</time>
      </trkpt>
      <trkpt lat="45.52531" lon="4.742">
        <ele>519</ele>
        <time>2018-08-15T06:53:02.256Z</time>
      </trkpt>
      <trkpt lat="45.52531" lon="4.742">
        <ele>519</ele>
        <time>2018-08-15T06:53:03.262Z</time>
      </trkpt>
      <trkpt lat="45.52524" lon="4.74199">
        <ele>519</ele>
        <time>2018-08-15T06:53:04.250Z</time>
      </trkpt>
      <trkpt lat="45.52524" lon="4.74199">
        <ele>519</ele>
        <time>2018-08-15T06:53:05.255Z</time>
      </trkpt>
      <trkpt lat="45.52517" lon="4.74199">
        <ele>518</ele>
        <time>2018-08-15T06:53:06.246Z</time>
      </trkpt>
      <trkpt lat="45.52514" lon="4.74198">
        <ele>518</ele>
        <time>2018-08-15T06:53:07.235Z</time>
      </trkpt>
      <trkpt lat="45.52512" lon="4.74198">
        <ele>518</ele>
        <time>2018-08-15T06:53:08.238Z</time>
      </trkpt>
      <trkpt lat="45.52512" lon="4.74198">
        <ele>518</ele>
        <time>2018-08-15T06:53:09.245Z</time>
      </trkpt>
      <trkpt lat="45.52508" lon="4.74198">
        <ele>517</ele>
        <time>2018-08-15T06:53:10.234Z</time>
      </trkpt>
      <trkpt lat="45.52508" lon="4.74198">
        <ele>517</ele>
        <time>2018-08-15T06:53:11.239Z</time>
      </trkpt>
      <trkpt lat="45.52504" lon="4.74198">
        <ele>517</ele>
        <time>2018-08-15T06:53:12.260Z</time>
      </trkpt>
      <trkpt lat="45.52504" lon="4.74198">
        <ele>517</ele>
        <time>2018-08-15T06:53:13.265Z</time>
      </trkpt>
      <trkpt lat="45.52497" lon="4.74197">
        <ele>517</ele>
        <time>2018-08-15T06:53:14.237Z</time>
      </trkpt>
      <trkpt lat="45.52497" lon="4.74197">
        <ele>517</ele>
        <time>2018-08-15T06:53:15.255Z</time>
      </trkpt>
      <trkpt lat="45.52491" lon="4.74196">
        <ele>516</ele>
        <time>2018-08-15T06:53:16.239Z</time>
      </trkpt>
      <trkpt lat="45.52491" lon="4.74196">
        <ele>516</ele>
        <time>2018-08-15T06:53:17.246Z</time>
      </trkpt>
      <trkpt lat="45.52483" lon="4.74196">
        <ele>516</ele>
        <time>2018-08-15T06:53:18.253Z</time>
      </trkpt>
      <trkpt lat="45.5248" lon="4.74196">
        <ele>516</ele>
        <time>2018-08-15T06:53:19.239Z</time>
      </trkpt>
      <trkpt lat="45.52477" lon="4.74195">
        <ele>516</ele>
        <time>2018-08-15T06:53:20.270Z</time>
      </trkpt>
      <trkpt lat="45.52477" lon="4.74195">
        <ele>516</ele>
        <time>2018-08-15T06:53:21.235Z</time>
      </trkpt>
      <trkpt lat="45.52472" lon="4.74195">
        <ele>515</ele>
        <time>2018-08-15T06:53:22.268Z</time>
      </trkpt>
      <trkpt lat="45.52472" lon="4.74195">
        <ele>515</ele>
        <time>2018-08-15T06:53:23.235Z</time>
      </trkpt>
      <trkpt lat="45.52468" lon="4.74196">
        <ele>514</ele>
        <time>2018-08-15T06:53:24.239Z</time>
      </trkpt>
      <trkpt lat="45.52468" lon="4.74196">
        <ele>514</ele>
        <time>2018-08-15T06:53:25.246Z</time>
      </trkpt>
      <trkpt lat="45.52465" lon="4.74198">
        <ele>512</ele>
        <time>2018-08-15T06:53:26.271Z</time>
      </trkpt>
      <trkpt lat="45.52465" lon="4.74198">
        <ele>512</ele>
        <time>2018-08-15T06:53:27.244Z</time>
      </trkpt>
      <trkpt lat="45.5246" lon="4.742">
        <ele>511</ele>
        <time>2018-08-15T06:53:28.269Z</time>
      </trkpt>
      <trkpt lat="45.5246" lon="4.742">
        <ele>511</ele>
        <time>2018-08-15T06:53:29.236Z</time>
      </trkpt>
      <trkpt lat="45.52455" lon="4.74203">
        <ele>510</ele>
        <time>2018-08-15T06:53:30.258Z</time>
      </trkpt>
      <trkpt lat="45.52455" lon="4.74203">
        <ele>510</ele>
        <time>2018-08-15T06:53:31.263Z</time>
      </trkpt>
      <trkpt lat="45.52449" lon="4.74204">
        <ele>510</ele>
        <time>2018-08-15T06:53:32.250Z</time>
      </trkpt>
      <trkpt lat="45.52449" lon="4.74204">
        <ele>510</ele>
        <time>2018-08-15T06:53:33.255Z</time>
      </trkpt>
      <trkpt lat="45.52442" lon="4.74206">
        <ele>510</ele>
        <time>2018-08-15T06:53:34.250Z</time>
      </trkpt>
      <trkpt lat="45.52442" lon="4.74206">
        <ele>510</ele>
        <time>2018-08-15T06:53:35.256Z</time>
      </trkpt>
      <trkpt lat="45.52436" lon="4.74209">
        <ele>510</ele>
        <time>2018-08-15T06:53:36.264Z</time>
      </trkpt>
      <trkpt lat="45.52436" lon="4.74209">
        <ele>510</ele>
        <time>2018-08-15T06:53:37.271Z</time>
      </trkpt>
      <trkpt lat="45.52429" lon="4.74213">
        <ele>510</ele>
        <time>2018-08-15T06:53:38.253Z</time>
      </trkpt>
      <trkpt lat="45.52429" lon="4.74213">
        <ele>510</ele>
        <time>2018-08-15T06:53:39.258Z</time>
      </trkpt>
      <trkpt lat="45.52423" lon="4.74216">
        <ele>509</ele>
        <time>2018-08-15T06:53:40.250Z</time>
      </trkpt>
      <trkpt lat="45.52423" lon="4.74216">
        <ele>509</ele>
        <time>2018-08-15T06:53:41.257Z</time>
      </trkpt>
      <trkpt lat="45.52418" lon="4.74221">
        <ele>509</ele>
        <time>2018-08-15T06:53:42.256Z</time>
      </trkpt>
      <trkpt lat="45.52418" lon="4.74221">
        <ele>509</ele>
        <time>2018-08-15T06:53:43.261Z</time>
      </trkpt>
      <trkpt lat="45.52412" lon="4.74224">
        <ele>509</ele>
        <time>2018-08-15T06:53:44.257Z</time>
      </trkpt>
      <trkpt lat="45.52412" lon="4.74224">
        <ele>509</ele>
        <time>2018-08-15T06:53:45.263Z</time>
      </trkpt>
      <trkpt lat="45.52406" lon="4.74228">
        <ele>509</ele>
        <time>2018-08-15T06:53:46.270Z</time>
      </trkpt>
      <trkpt lat="45.52406" lon="4.74228">
        <ele>509</ele>
        <time>2018-08-15T06:53:47.238Z</time>
      </trkpt>
      <trkpt lat="45.524" lon="4.74232">
        <ele>508</ele>
        <time>2018-08-15T06:53:48.266Z</time>
      </trkpt>
      <trkpt lat="45.524" lon="4.74232">
        <ele>508</ele>
        <time>2018-08-15T06:53:49.272Z</time>
      </trkpt>
      <trkpt lat="45.52396" lon="4.74237">
        <ele>507</ele>
        <time>2018-08-15T06:53:50.268Z</time>
      </trkpt>
      <trkpt lat="45.52396" lon="4.74237">
        <ele>507</ele>
        <time>2018-08-15T06:53:51.234Z</time>
      </trkpt>
      <trkpt lat="45.52391" lon="4.74242">
        <ele>507</ele>
        <time>2018-08-15T06:53:52.235Z</time>
      </trkpt>
      <trkpt lat="45.52391" lon="4.74242">
        <ele>507</ele>
        <time>2018-08-15T06:53:53.241Z</time>
      </trkpt>
      <trkpt lat="45.52386" lon="4.74247">
        <ele>506</ele>
        <time>2018-08-15T06:53:54.264Z</time>
      </trkpt>
      <trkpt lat="45.52386" lon="4.74247">
        <ele>506</ele>
        <time>2018-08-15T06:53:55.270Z</time>
      </trkpt>
      <trkpt lat="45.52381" lon="4.74252">
        <ele>506</ele>
        <time>2018-08-15T06:53:56.261Z</time>
      </trkpt>
      <trkpt lat="45.52381" lon="4.74252">
        <ele>506</ele>
        <time>2018-08-15T06:53:57.267Z</time>
      </trkpt>
      <trkpt lat="45.52376" lon="4.74256">
        <ele>506</ele>
        <time>2018-08-15T06:53:58.253Z</time>
      </trkpt>
      <trkpt lat="45.52376" lon="4.74256">
        <ele>506</ele>
        <time>2018-08-15T06:53:59.260Z</time>
      </trkpt>
      <trkpt lat="45.52372" lon="4.74261">
        <ele>505</ele>
        <time>2018-08-15T06:54:00.243Z</time>
      </trkpt>
      <trkpt lat="45.52372" lon="4.74261">
        <ele>505</ele>
        <time>2018-08-15T06:54:01.248Z</time>
      </trkpt>
      <trkpt lat="45.52366" lon="4.74265">
        <ele>505</ele>
        <time>2018-08-15T06:54:02.270Z</time>
      </trkpt>
      <trkpt lat="45.52366" lon="4.74265">
        <ele>505</ele>
        <time>2018-08-15T06:54:03.235Z</time>
      </trkpt>
      <trkpt lat="45.5236" lon="4.7427">
        <ele>506</ele>
        <time>2018-08-15T06:54:04.270Z</time>
      </trkpt>
      <trkpt lat="45.5236" lon="4.7427">
        <ele>506</ele>
        <time>2018-08-15T06:54:05.244Z</time>
      </trkpt>
      <trkpt lat="45.52355" lon="4.74275">
        <ele>506</ele>
        <time>2018-08-15T06:54:06.249Z</time>
      </trkpt>
      <trkpt lat="45.52355" lon="4.74275">
        <ele>506</ele>
        <time>2018-08-15T06:54:07.255Z</time>
      </trkpt>
      <trkpt lat="45.52351" lon="4.7428">
        <ele>506</ele>
        <time>2018-08-15T06:54:08.247Z</time>
      </trkpt>
      <trkpt lat="45.52351" lon="4.7428">
        <ele>506</ele>
        <time>2018-08-15T06:54:09.252Z</time>
      </trkpt>
      <trkpt lat="45.52346" lon="4.74285">
        <ele>506</ele>
        <time>2018-08-15T06:54:10.247Z</time>
      </trkpt>
      <trkpt lat="45.52346" lon="4.74285">
        <ele>506</ele>
        <time>2018-08-15T06:54:11.252Z</time>
      </trkpt>
      <trkpt lat="45.52341" lon="4.7429">
        <ele>507</ele>
        <time>2018-08-15T06:54:12.237Z</time>
      </trkpt>
      <trkpt lat="45.52341" lon="4.7429">
        <ele>507</ele>
        <time>2018-08-15T06:54:13.244Z</time>
      </trkpt>
      <trkpt lat="45.52336" lon="4.74296">
        <ele>507</ele>
        <time>2018-08-15T06:54:14.268Z</time>
      </trkpt>
      <trkpt lat="45.52336" lon="4.74296">
        <ele>507</ele>
        <time>2018-08-15T06:54:15.233Z</time>
      </trkpt>
      <trkpt lat="45.52332" lon="4.74302">
        <ele>507</ele>
        <time>2018-08-15T06:54:16.266Z</time>
      </trkpt>
      <trkpt lat="45.52332" lon="4.74302">
        <ele>507</ele>
        <time>2018-08-15T06:54:17.232Z</time>
      </trkpt>
      <trkpt lat="45.52327" lon="4.74307">
        <ele>507</ele>
        <time>2018-08-15T06:54:18.265Z</time>
      </trkpt>
      <trkpt lat="45.52327" lon="4.74307">
        <ele>507</ele>
        <time>2018-08-15T06:54:19.270Z</time>
      </trkpt>
      <trkpt lat="45.52323" lon="4.74312">
        <ele>507</ele>
        <time>2018-08-15T06:54:20.257Z</time>
      </trkpt>
      <trkpt lat="45.52323" lon="4.74312">
        <ele>507</ele>
        <time>2018-08-15T06:54:21.262Z</time>
      </trkpt>
      <trkpt lat="45.52318" lon="4.74318">
        <ele>507</ele>
        <time>2018-08-15T06:54:22.233Z</time>
      </trkpt>
      <trkpt lat="45.52318" lon="4.74318">
        <ele>507</ele>
        <time>2018-08-15T06:54:23.238Z</time>
      </trkpt>
      <trkpt lat="45.52314" lon="4.74322">
        <ele>507</ele>
        <time>2018-08-15T06:54:24.256Z</time>
      </trkpt>
      <trkpt lat="45.52314" lon="4.74322">
        <ele>507</ele>
        <time>2018-08-15T06:54:25.261Z</time>
      </trkpt>
      <trkpt lat="45.52309" lon="4.74327">
        <ele>507</ele>
        <time>2018-08-15T06:54:26.238Z</time>
      </trkpt>
      <trkpt lat="45.52309" lon="4.74327">
        <ele>507</ele>
        <time>2018-08-15T06:54:27.244Z</time>
      </trkpt>
      <trkpt lat="45.52304" lon="4.74332">
        <ele>507</ele>
        <time>2018-08-15T06:54:28.268Z</time>
      </trkpt>
      <trkpt lat="45.52304" lon="4.74332">
        <ele>507</ele>
        <time>2018-08-15T06:54:29.233Z</time>
      </trkpt>
      <trkpt lat="45.52301" lon="4.74335">
        <ele>507</ele>
        <time>2018-08-15T06:54:30.263Z</time>
      </trkpt>
      <trkpt lat="45.52298" lon="4.74337">
        <ele>507</ele>
        <time>2018-08-15T06:54:31.248Z</time>
      </trkpt>
      <trkpt lat="45.52298" lon="4.74337">
        <ele>507</ele>
        <time>2018-08-15T06:54:32.253Z</time>
      </trkpt>
      <trkpt lat="45.52294" lon="4.74341">
        <ele>507</ele>
        <time>2018-08-15T06:54:33.249Z</time>
      </trkpt>
      <trkpt lat="45.52294" lon="4.74341">
        <ele>507</ele>
        <time>2018-08-15T06:54:34.265Z</time>
      </trkpt>
      <trkpt lat="45.52289" lon="4.74344">
        <ele>507</ele>
        <time>2018-08-15T06:54:35.245Z</time>
      </trkpt>
      <trkpt lat="45.52289" lon="4.74344">
        <ele>507</ele>
        <time>2018-08-15T06:54:36.261Z</time>
      </trkpt>
      <trkpt lat="45.52284" lon="4.74346">
        <ele>507</ele>
        <time>2018-08-15T06:54:37.264Z</time>
      </trkpt>
      <trkpt lat="45.52281" lon="4.74348">
        <ele>507</ele>
        <time>2018-08-15T06:54:38.248Z</time>
      </trkpt>
      <trkpt lat="45.52281" lon="4.74348">
        <ele>507</ele>
        <time>2018-08-15T06:54:39.255Z</time>
      </trkpt>
      <trkpt lat="45.52275" lon="4.7435">
        <ele>507</ele>
        <time>2018-08-15T06:54:40.253Z</time>
      </trkpt>
      <trkpt lat="45.52275" lon="4.7435">
        <ele>507</ele>
        <time>2018-08-15T06:54:41.257Z</time>
      </trkpt>
      <trkpt lat="45.52269" lon="4.74351">
        <ele>507</ele>
        <time>2018-08-15T06:54:42.243Z</time>
      </trkpt>
      <trkpt lat="45.52269" lon="4.74351">
        <ele>507</ele>
        <time>2018-08-15T06:54:43.248Z</time>
      </trkpt>
      <trkpt lat="45.52262" lon="4.7435">
        <ele>506</ele>
        <time>2018-08-15T06:54:44.248Z</time>
      </trkpt>
      <trkpt lat="45.52262" lon="4.7435">
        <ele>506</ele>
        <time>2018-08-15T06:54:45.253Z</time>
      </trkpt>
      <trkpt lat="45.52257" lon="4.7435">
        <ele>506</ele>
        <time>2018-08-15T06:54:46.251Z</time>
      </trkpt>
      <trkpt lat="45.52257" lon="4.7435">
        <ele>506</ele>
        <time>2018-08-15T06:54:47.269Z</time>
      </trkpt>
      <trkpt lat="45.52251" lon="4.74349">
        <ele>506</ele>
        <time>2018-08-15T06:54:48.257Z</time>
      </trkpt>
      <trkpt lat="45.52251" lon="4.74349">
        <ele>506</ele>
        <time>2018-08-15T06:54:49.262Z</time>
      </trkpt>
      <trkpt lat="45.52246" lon="4.74349">
        <ele>506</ele>
        <time>2018-08-15T06:54:50.255Z</time>
      </trkpt>
      <trkpt lat="45.52246" lon="4.74349">
        <ele>506</ele>
        <time>2018-08-15T06:54:51.260Z</time>
      </trkpt>
      <trkpt lat="45.52242" lon="4.74346">
        <ele>506</ele>
        <time>2018-08-15T06:54:52.233Z</time>
      </trkpt>
      <trkpt lat="45.52242" lon="4.74346">
        <ele>506</ele>
        <time>2018-08-15T06:54:53.242Z</time>
      </trkpt>
      <trkpt lat="45.52238" lon="4.74341">
        <ele>506</ele>
        <time>2018-08-15T06:54:54.259Z</time>
      </trkpt>
      <trkpt lat="45.52236" lon="4.74337">
        <ele>506</ele>
        <time>2018-08-15T06:54:55.250Z</time>
      </trkpt>
      <trkpt lat="45.52235" lon="4.74333">
        <ele>505</ele>
        <time>2018-08-15T06:54:56.243Z</time>
      </trkpt>
      <trkpt lat="45.52235" lon="4.74333">
        <ele>505</ele>
        <time>2018-08-15T06:54:57.248Z</time>
      </trkpt>
      <trkpt lat="45.52232" lon="4.74322">
        <ele>505</ele>
        <time>2018-08-15T06:54:58.252Z</time>
      </trkpt>
      <trkpt lat="45.52232" lon="4.74322">
        <ele>505</ele>
        <time>2018-08-15T06:54:59.257Z</time>
      </trkpt>
      <trkpt lat="45.5223" lon="4.74311">
        <ele>505</ele>
        <time>2018-08-15T06:55:00.240Z</time>
      </trkpt>
      <trkpt lat="45.52228" lon="4.74303">
        <ele>504</ele>
        <time>2018-08-15T06:55:01.270Z</time>
      </trkpt>
      <trkpt lat="45.52227" lon="4.74296">
        <ele>504</ele>
        <time>2018-08-15T06:55:02.265Z</time>
      </trkpt>
      <trkpt lat="45.52227" lon="4.74296">
        <ele>504</ele>
        <time>2018-08-15T06:55:03.270Z</time>
      </trkpt>
      <trkpt lat="45.52225" lon="4.7428">
        <ele>503</ele>
        <time>2018-08-15T06:55:04.258Z</time>
      </trkpt>
      <trkpt lat="45.52225" lon="4.7428">
        <ele>503</ele>
        <time>2018-08-15T06:55:05.263Z</time>
      </trkpt>
      <trkpt lat="45.52222" lon="4.74264">
        <ele>502</ele>
        <time>2018-08-15T06:55:06.243Z</time>
      </trkpt>
      <trkpt lat="45.52222" lon="4.74264">
        <ele>502</ele>
        <time>2018-08-15T06:55:07.249Z</time>
      </trkpt>
      <trkpt lat="45.52219" lon="4.74245">
        <ele>502</ele>
        <time>2018-08-15T06:55:08.243Z</time>
      </trkpt>
      <trkpt lat="45.52219" lon="4.74245">
        <ele>502</ele>
        <time>2018-08-15T06:55:09.248Z</time>
      </trkpt>
      <trkpt lat="45.52216" lon="4.74226">
        <ele>501</ele>
        <time>2018-08-15T06:55:10.273Z</time>
      </trkpt>
      <trkpt lat="45.52216" lon="4.74226">
        <ele>501</ele>
        <time>2018-08-15T06:55:11.244Z</time>
      </trkpt>
      <trkpt lat="45.52213" lon="4.74205">
        <ele>500</ele>
        <time>2018-08-15T06:55:12.252Z</time>
      </trkpt>
      <trkpt lat="45.52213" lon="4.74205">
        <ele>500</ele>
        <time>2018-08-15T06:55:13.257Z</time>
      </trkpt>
      <trkpt lat="45.5221" lon="4.74184">
        <ele>500</ele>
        <time>2018-08-15T06:55:14.237Z</time>
      </trkpt>
      <trkpt lat="45.52209" lon="4.74173">
        <ele>499</ele>
        <time>2018-08-15T06:55:15.247Z</time>
      </trkpt>
      <trkpt lat="45.52209" lon="4.74173">
        <ele>499</ele>
        <time>2018-08-15T06:55:16.252Z</time>
      </trkpt>
      <trkpt lat="45.52205" lon="4.74152">
        <ele>499</ele>
        <time>2018-08-15T06:55:17.246Z</time>
      </trkpt>
      <trkpt lat="45.52204" lon="4.74141">
        <ele>499</ele>
        <time>2018-08-15T06:55:18.232Z</time>
      </trkpt>
      <trkpt lat="45.52204" lon="4.74141">
        <ele>499</ele>
        <time>2018-08-15T06:55:19.241Z</time>
      </trkpt>
      <trkpt lat="45.522" lon="4.74118">
        <ele>498</ele>
        <time>2018-08-15T06:55:20.267Z</time>
      </trkpt>
      <trkpt lat="45.522" lon="4.74118">
        <ele>498</ele>
        <time>2018-08-15T06:55:21.232Z</time>
      </trkpt>
      <trkpt lat="45.52197" lon="4.74094">
        <ele>498</ele>
        <time>2018-08-15T06:55:22.260Z</time>
      </trkpt>
      <trkpt lat="45.52197" lon="4.74094">
        <ele>498</ele>
        <time>2018-08-15T06:55:23.265Z</time>
      </trkpt>
      <trkpt lat="45.52193" lon="4.74071">
        <ele>497</ele>
        <time>2018-08-15T06:55:24.251Z</time>
      </trkpt>
      <trkpt lat="45.52193" lon="4.74071">
        <ele>497</ele>
        <time>2018-08-15T06:55:25.257Z</time>
      </trkpt>
      <trkpt lat="45.52189" lon="4.74047">
        <ele>496</ele>
        <time>2018-08-15T06:55:26.242Z</time>
      </trkpt>
      <trkpt lat="45.52189" lon="4.74047">
        <ele>496</ele>
        <time>2018-08-15T06:55:27.247Z</time>
      </trkpt>
      <trkpt lat="45.52184" lon="4.74023">
        <ele>495</ele>
        <time>2018-08-15T06:55:28.268Z</time>
      </trkpt>
      <trkpt lat="45.52184" lon="4.74023">
        <ele>495</ele>
        <time>2018-08-15T06:55:29.248Z</time>
      </trkpt>
      <trkpt lat="45.52177" lon="4.73998">
        <ele>495</ele>
        <time>2018-08-15T06:55:30.263Z</time>
      </trkpt>
      <trkpt lat="45.52177" lon="4.73998">
        <ele>495</ele>
        <time>2018-08-15T06:55:31.268Z</time>
      </trkpt>
      <trkpt lat="45.52168" lon="4.73975">
        <ele>494</ele>
        <time>2018-08-15T06:55:32.264Z</time>
      </trkpt>
      <trkpt lat="45.52168" lon="4.73975">
        <ele>494</ele>
        <time>2018-08-15T06:55:33.269Z</time>
      </trkpt>
      <trkpt lat="45.52156" lon="4.73953">
        <ele>493</ele>
        <time>2018-08-15T06:55:34.270Z</time>
      </trkpt>
      <trkpt lat="45.52156" lon="4.73953">
        <ele>493</ele>
        <time>2018-08-15T06:55:35.264Z</time>
      </trkpt>
      <trkpt lat="45.52141" lon="4.73933">
        <ele>492</ele>
        <time>2018-08-15T06:55:36.267Z</time>
      </trkpt>
      <trkpt lat="45.52141" lon="4.73933">
        <ele>492</ele>
        <time>2018-08-15T06:55:37.243Z</time>
      </trkpt>
      <trkpt lat="45.52126" lon="4.73917">
        <ele>491</ele>
        <time>2018-08-15T06:55:38.237Z</time>
      </trkpt>
      <trkpt lat="45.52126" lon="4.73917">
        <ele>491</ele>
        <time>2018-08-15T06:55:39.242Z</time>
      </trkpt>
      <trkpt lat="45.52107" lon="4.73903">
        <ele>491</ele>
        <time>2018-08-15T06:55:40.234Z</time>
      </trkpt>
      <trkpt lat="45.52107" lon="4.73903">
        <ele>491</ele>
        <time>2018-08-15T06:55:41.241Z</time>
      </trkpt>
      <trkpt lat="45.52089" lon="4.73894">
        <ele>490</ele>
        <time>2018-08-15T06:55:42.270Z</time>
      </trkpt>
      <trkpt lat="45.52089" lon="4.73894">
        <ele>490</ele>
        <time>2018-08-15T06:55:43.240Z</time>
      </trkpt>
      <trkpt lat="45.52067" lon="4.73889">
        <ele>489</ele>
        <time>2018-08-15T06:55:44.236Z</time>
      </trkpt>
      <trkpt lat="45.52067" lon="4.73889">
        <ele>489</ele>
        <time>2018-08-15T06:55:45.243Z</time>
      </trkpt>
      <trkpt lat="45.52047" lon="4.73885">
        <ele>488</ele>
        <time>2018-08-15T06:55:46.262Z</time>
      </trkpt>
      <trkpt lat="45.52047" lon="4.73885">
        <ele>488</ele>
        <time>2018-08-15T06:55:47.267Z</time>
      </trkpt>
      <trkpt lat="45.52028" lon="4.7388">
        <ele>488</ele>
        <time>2018-08-15T06:55:48.249Z</time>
      </trkpt>
      <trkpt lat="45.52028" lon="4.7388">
        <ele>488</ele>
        <time>2018-08-15T06:55:49.255Z</time>
      </trkpt>
      <trkpt lat="45.52008" lon="4.73875">
        <ele>487</ele>
        <time>2018-08-15T06:55:50.247Z</time>
      </trkpt>
      <trkpt lat="45.52008" lon="4.73875">
        <ele>487</ele>
        <time>2018-08-15T06:55:51.252Z</time>
      </trkpt>
      <trkpt lat="45.51989" lon="4.73869">
        <ele>487</ele>
        <time>2018-08-15T06:55:52.249Z</time>
      </trkpt>
      <trkpt lat="45.51989" lon="4.73869">
        <ele>487</ele>
        <time>2018-08-15T06:55:53.254Z</time>
      </trkpt>
      <trkpt lat="45.51967" lon="4.73866">
        <ele>487</ele>
        <time>2018-08-15T06:55:54.238Z</time>
      </trkpt>
      <trkpt lat="45.51967" lon="4.73866">
        <ele>487</ele>
        <time>2018-08-15T06:55:55.244Z</time>
      </trkpt>
      <trkpt lat="45.51951" lon="4.73858">
        <ele>486</ele>
        <time>2018-08-15T06:55:56.234Z</time>
      </trkpt>
      <trkpt lat="45.51951" lon="4.73858">
        <ele>486</ele>
        <time>2018-08-15T06:55:57.241Z</time>
      </trkpt>
      <trkpt lat="45.51934" lon="4.7384">
        <ele>486</ele>
        <time>2018-08-15T06:55:58.265Z</time>
      </trkpt>
      <trkpt lat="45.51929" lon="4.7383">
        <ele>486</ele>
        <time>2018-08-15T06:55:59.234Z</time>
      </trkpt>
      <trkpt lat="45.51929" lon="4.7383">
        <ele>486</ele>
        <time>2018-08-15T06:56:00.263Z</time>
      </trkpt>
      <trkpt lat="45.51921" lon="4.73806">
        <ele>486</ele>
        <time>2018-08-15T06:56:01.249Z</time>
      </trkpt>
      <trkpt lat="45.51921" lon="4.73806">
        <ele>486</ele>
        <time>2018-08-15T06:56:02.254Z</time>
      </trkpt>
      <trkpt lat="45.51923" lon="4.73781">
        <ele>486</ele>
        <time>2018-08-15T06:56:03.251Z</time>
      </trkpt>
      <trkpt lat="45.51924" lon="4.73769">
        <ele>485</ele>
        <time>2018-08-15T06:56:04.240Z</time>
      </trkpt>
      <trkpt lat="45.51924" lon="4.73769">
        <ele>485</ele>
        <time>2018-08-15T06:56:05.245Z</time>
      </trkpt>
      <trkpt lat="45.51929" lon="4.73745">
        <ele>485</ele>
        <time>2018-08-15T06:56:06.242Z</time>
      </trkpt>
      <trkpt lat="45.51929" lon="4.73745">
        <ele>485</ele>
        <time>2018-08-15T06:56:07.247Z</time>
      </trkpt>
      <trkpt lat="45.51933" lon="4.73721">
        <ele>484</ele>
        <time>2018-08-15T06:56:08.262Z</time>
      </trkpt>
      <trkpt lat="45.51933" lon="4.73721">
        <ele>484</ele>
        <time>2018-08-15T06:56:09.232Z</time>
      </trkpt>
      <trkpt lat="45.51925" lon="4.73695">
        <ele>481</ele>
        <time>2018-08-15T06:56:10.255Z</time>
      </trkpt>
      <trkpt lat="45.51925" lon="4.73695">
        <ele>481</ele>
        <time>2018-08-15T06:56:11.260Z</time>
      </trkpt>
      <trkpt lat="45.51922" lon="4.73668">
        <ele>479</ele>
        <time>2018-08-15T06:56:12.267Z</time>
      </trkpt>
      <trkpt lat="45.51922" lon="4.73668">
        <ele>479</ele>
        <time>2018-08-15T06:56:13.233Z</time>
      </trkpt>
      <trkpt lat="45.5192" lon="4.7364">
        <ele>477</ele>
        <time>2018-08-15T06:56:14.264Z</time>
      </trkpt>
      <trkpt lat="45.5192" lon="4.7364">
        <ele>477</ele>
        <time>2018-08-15T06:56:15.270Z</time>
      </trkpt>
      <trkpt lat="45.51921" lon="4.73615">
        <ele>475</ele>
        <time>2018-08-15T06:56:16.259Z</time>
      </trkpt>
      <trkpt lat="45.51921" lon="4.73615">
        <ele>475</ele>
        <time>2018-08-15T06:56:17.264Z</time>
      </trkpt>
      <trkpt lat="45.51926" lon="4.7359">
        <ele>473</ele>
        <time>2018-08-15T06:56:18.252Z</time>
      </trkpt>
      <trkpt lat="45.51926" lon="4.7359">
        <ele>473</ele>
        <time>2018-08-15T06:56:19.258Z</time>
      </trkpt>
      <trkpt lat="45.51927" lon="4.73563">
        <ele>471</ele>
        <time>2018-08-15T06:56:20.253Z</time>
      </trkpt>
      <trkpt lat="45.51927" lon="4.73563">
        <ele>471</ele>
        <time>2018-08-15T06:56:21.258Z</time>
      </trkpt>
      <trkpt lat="45.51922" lon="4.73536">
        <ele>470</ele>
        <time>2018-08-15T06:56:22.254Z</time>
      </trkpt>
      <trkpt lat="45.51922" lon="4.73536">
        <ele>470</ele>
        <time>2018-08-15T06:56:23.259Z</time>
      </trkpt>
      <trkpt lat="45.51912" lon="4.73512">
        <ele>468</ele>
        <time>2018-08-15T06:56:24.254Z</time>
      </trkpt>
      <trkpt lat="45.51912" lon="4.73512">
        <ele>468</ele>
        <time>2018-08-15T06:56:25.259Z</time>
      </trkpt>
      <trkpt lat="45.51899" lon="4.7349">
        <ele>467</ele>
        <time>2018-08-15T06:56:26.252Z</time>
      </trkpt>
      <trkpt lat="45.51899" lon="4.7349">
        <ele>467</ele>
        <time>2018-08-15T06:56:27.257Z</time>
      </trkpt>
      <trkpt lat="45.51884" lon="4.73472">
        <ele>465</ele>
        <time>2018-08-15T06:56:28.270Z</time>
      </trkpt>
      <trkpt lat="45.51884" lon="4.73472">
        <ele>465</ele>
        <time>2018-08-15T06:56:29.249Z</time>
      </trkpt>
      <trkpt lat="45.51867" lon="4.73456">
        <ele>464</ele>
        <time>2018-08-15T06:56:30.270Z</time>
      </trkpt>
      <trkpt lat="45.51867" lon="4.73456">
        <ele>464</ele>
        <time>2018-08-15T06:56:31.241Z</time>
      </trkpt>
      <trkpt lat="45.51849" lon="4.73439">
        <ele>462</ele>
        <time>2018-08-15T06:56:32.243Z</time>
      </trkpt>
      <trkpt lat="45.51849" lon="4.73439">
        <ele>462</ele>
        <time>2018-08-15T06:56:33.269Z</time>
      </trkpt>
      <trkpt lat="45.5183" lon="4.73423">
        <ele>461</ele>
        <time>2018-08-15T06:56:34.245Z</time>
      </trkpt>
      <trkpt lat="45.5183" lon="4.73423">
        <ele>461</ele>
        <time>2018-08-15T06:56:35.255Z</time>
      </trkpt>
      <trkpt lat="45.51812" lon="4.73406">
        <ele>460</ele>
        <time>2018-08-15T06:56:36.261Z</time>
      </trkpt>
      <trkpt lat="45.51812" lon="4.73406">
        <ele>460</ele>
        <time>2018-08-15T06:56:37.239Z</time>
      </trkpt>
      <trkpt lat="45.51793" lon="4.73389">
        <ele>458</ele>
        <time>2018-08-15T06:56:38.243Z</time>
      </trkpt>
      <trkpt lat="45.51793" lon="4.73389">
        <ele>458</ele>
        <time>2018-08-15T06:56:39.248Z</time>
      </trkpt>
      <trkpt lat="45.51775" lon="4.73372">
        <ele>457</ele>
        <time>2018-08-15T06:56:40.233Z</time>
      </trkpt>
      <trkpt lat="45.51775" lon="4.73372">
        <ele>457</ele>
        <time>2018-08-15T06:56:41.241Z</time>
      </trkpt>
      <trkpt lat="45.51756" lon="4.73354">
        <ele>456</ele>
        <time>2018-08-15T06:56:42.270Z</time>
      </trkpt>
      <trkpt lat="45.51756" lon="4.73354">
        <ele>456</ele>
        <time>2018-08-15T06:56:43.234Z</time>
      </trkpt>
      <trkpt lat="45.51737" lon="4.73336">
        <ele>455</ele>
        <time>2018-08-15T06:56:44.236Z</time>
      </trkpt>
      <trkpt lat="45.51737" lon="4.73336">
        <ele>455</ele>
        <time>2018-08-15T06:56:45.244Z</time>
      </trkpt>
      <trkpt lat="45.51719" lon="4.73319">
        <ele>454</ele>
        <time>2018-08-15T06:56:46.249Z</time>
      </trkpt>
      <trkpt lat="45.51719" lon="4.73319">
        <ele>454</ele>
        <time>2018-08-15T06:56:47.254Z</time>
      </trkpt>
      <trkpt lat="45.51701" lon="4.73301">
        <ele>453</ele>
        <time>2018-08-15T06:56:48.241Z</time>
      </trkpt>
      <trkpt lat="45.51701" lon="4.73301">
        <ele>453</ele>
        <time>2018-08-15T06:56:49.247Z</time>
      </trkpt>
      <trkpt lat="45.51682" lon="4.73283">
        <ele>451</ele>
        <time>2018-08-15T06:56:50.253Z</time>
      </trkpt>
      <trkpt lat="45.51682" lon="4.73283">
        <ele>451</ele>
        <time>2018-08-15T06:56:51.258Z</time>
      </trkpt>
      <trkpt lat="45.51664" lon="4.73267">
        <ele>450</ele>
        <time>2018-08-15T06:56:52.242Z</time>
      </trkpt>
      <trkpt lat="45.51664" lon="4.73267">
        <ele>450</ele>
        <time>2018-08-15T06:56:53.247Z</time>
      </trkpt>
      <trkpt lat="45.51648" lon="4.73252">
        <ele>448</ele>
        <time>2018-08-15T06:56:54.242Z</time>
      </trkpt>
      <trkpt lat="45.51648" lon="4.73252">
        <ele>448</ele>
        <time>2018-08-15T06:56:55.248Z</time>
      </trkpt>
      <trkpt lat="45.51634" lon="4.73233">
        <ele>447</ele>
        <time>2018-08-15T06:56:56.235Z</time>
      </trkpt>
      <trkpt lat="45.51634" lon="4.73233">
        <ele>447</ele>
        <time>2018-08-15T06:56:57.241Z</time>
      </trkpt>
      <trkpt lat="45.51626" lon="4.73208">
        <ele>447</ele>
        <time>2018-08-15T06:56:58.259Z</time>
      </trkpt>
      <trkpt lat="45.51626" lon="4.73208">
        <ele>447</ele>
        <time>2018-08-15T06:56:59.264Z</time>
      </trkpt>
      <trkpt lat="45.51622" lon="4.73179">
        <ele>446</ele>
        <time>2018-08-15T06:57:00.233Z</time>
      </trkpt>
      <trkpt lat="45.51622" lon="4.73179">
        <ele>446</ele>
        <time>2018-08-15T06:57:01.244Z</time>
      </trkpt>
      <trkpt lat="45.51622" lon="4.73149">
        <ele>445</ele>
        <time>2018-08-15T06:57:02.233Z</time>
      </trkpt>
      <trkpt lat="45.51622" lon="4.73149">
        <ele>445</ele>
        <time>2018-08-15T06:57:03.240Z</time>
      </trkpt>
      <trkpt lat="45.51623" lon="4.73119">
        <ele>444</ele>
        <time>2018-08-15T06:57:04.267Z</time>
      </trkpt>
      <trkpt lat="45.51623" lon="4.73119">
        <ele>444</ele>
        <time>2018-08-15T06:57:05.233Z</time>
      </trkpt>
      <trkpt lat="45.51625" lon="4.7309">
        <ele>443</ele>
        <time>2018-08-15T06:57:06.268Z</time>
      </trkpt>
      <trkpt lat="45.51625" lon="4.7309">
        <ele>443</ele>
        <time>2018-08-15T06:57:07.233Z</time>
      </trkpt>
      <trkpt lat="45.51626" lon="4.73061">
        <ele>442</ele>
        <time>2018-08-15T06:57:08.236Z</time>
      </trkpt>
      <trkpt lat="45.51626" lon="4.73061">
        <ele>442</ele>
        <time>2018-08-15T06:57:09.242Z</time>
      </trkpt>
      <trkpt lat="45.51627" lon="4.73032">
        <ele>441</ele>
        <time>2018-08-15T06:57:10.232Z</time>
      </trkpt>
      <trkpt lat="45.51627" lon="4.73032">
        <ele>441</ele>
        <time>2018-08-15T06:57:11.237Z</time>
      </trkpt>
      <trkpt lat="45.51628" lon="4.73004">
        <ele>440</ele>
        <time>2018-08-15T06:57:12.268Z</time>
      </trkpt>
      <trkpt lat="45.51628" lon="4.73004">
        <ele>440</ele>
        <time>2018-08-15T06:57:13.234Z</time>
      </trkpt>
      <trkpt lat="45.51629" lon="4.72976">
        <ele>439</ele>
        <time>2018-08-15T06:57:14.267Z</time>
      </trkpt>
      <trkpt lat="45.51629" lon="4.72976">
        <ele>439</ele>
        <time>2018-08-15T06:57:15.232Z</time>
      </trkpt>
      <trkpt lat="45.51629" lon="4.72947">
        <ele>438</ele>
        <time>2018-08-15T06:57:16.261Z</time>
      </trkpt>
      <trkpt lat="45.51629" lon="4.72947">
        <ele>438</ele>
        <time>2018-08-15T06:57:17.266Z</time>
      </trkpt>
      <trkpt lat="45.5163" lon="4.72918">
        <ele>437</ele>
        <time>2018-08-15T06:57:18.253Z</time>
      </trkpt>
      <trkpt lat="45.5163" lon="4.72918">
        <ele>437</ele>
        <time>2018-08-15T06:57:19.264Z</time>
      </trkpt>
      <trkpt lat="45.51631" lon="4.7289">
        <ele>437</ele>
        <time>2018-08-15T06:57:20.252Z</time>
      </trkpt>
      <trkpt lat="45.51631" lon="4.7289">
        <ele>437</ele>
        <time>2018-08-15T06:57:21.257Z</time>
      </trkpt>
      <trkpt lat="45.51632" lon="4.72863">
        <ele>436</ele>
        <time>2018-08-15T06:57:22.259Z</time>
      </trkpt>
      <trkpt lat="45.51632" lon="4.72863">
        <ele>436</ele>
        <time>2018-08-15T06:57:23.241Z</time>
      </trkpt>
      <trkpt lat="45.51632" lon="4.72835">
        <ele>435</ele>
        <time>2018-08-15T06:57:24.233Z</time>
      </trkpt>
      <trkpt lat="45.51632" lon="4.72835">
        <ele>435</ele>
        <time>2018-08-15T06:57:25.241Z</time>
      </trkpt>
      <trkpt lat="45.51633" lon="4.72809">
        <ele>434</ele>
        <time>2018-08-15T06:57:26.264Z</time>
      </trkpt>
      <trkpt lat="45.51633" lon="4.72809">
        <ele>434</ele>
        <time>2018-08-15T06:57:27.269Z</time>
      </trkpt>
      <trkpt lat="45.51635" lon="4.72783">
        <ele>434</ele>
        <time>2018-08-15T06:57:28.259Z</time>
      </trkpt>
      <trkpt lat="45.51635" lon="4.72783">
        <ele>434</ele>
        <time>2018-08-15T06:57:29.264Z</time>
      </trkpt>
      <trkpt lat="45.51636" lon="4.72757">
        <ele>433</ele>
        <time>2018-08-15T06:57:30.248Z</time>
      </trkpt>
      <trkpt lat="45.51636" lon="4.72757">
        <ele>433</ele>
        <time>2018-08-15T06:57:31.254Z</time>
      </trkpt>
      <trkpt lat="45.51637" lon="4.72732">
        <ele>432</ele>
        <time>2018-08-15T06:57:32.253Z</time>
      </trkpt>
      <trkpt lat="45.51637" lon="4.72732">
        <ele>432</ele>
        <time>2018-08-15T06:57:33.258Z</time>
      </trkpt>
      <trkpt lat="45.51637" lon="4.72707">
        <ele>431</ele>
        <time>2018-08-15T06:57:34.246Z</time>
      </trkpt>
      <trkpt lat="45.51638" lon="4.72695">
        <ele>431</ele>
        <time>2018-08-15T06:57:35.232Z</time>
      </trkpt>
      <trkpt lat="45.51638" lon="4.72695">
        <ele>431</ele>
        <time>2018-08-15T06:57:36.244Z</time>
      </trkpt>
      <trkpt lat="45.51639" lon="4.72671">
        <ele>431</ele>
        <time>2018-08-15T06:57:37.247Z</time>
      </trkpt>
      <trkpt lat="45.51639" lon="4.72659">
        <ele>430</ele>
        <time>2018-08-15T06:57:38.270Z</time>
      </trkpt>
      <trkpt lat="45.51639" lon="4.72659">
        <ele>430</ele>
        <time>2018-08-15T06:57:39.237Z</time>
      </trkpt>
      <trkpt lat="45.51638" lon="4.72636">
        <ele>430</ele>
        <time>2018-08-15T06:57:40.265Z</time>
      </trkpt>
      <trkpt lat="45.51638" lon="4.72636">
        <ele>430</ele>
        <time>2018-08-15T06:57:41.270Z</time>
      </trkpt>
      <trkpt lat="45.51634" lon="4.72613">
        <ele>430</ele>
        <time>2018-08-15T06:57:42.267Z</time>
      </trkpt>
      <trkpt lat="45.51634" lon="4.72613">
        <ele>430</ele>
        <time>2018-08-15T06:57:43.233Z</time>
      </trkpt>
      <trkpt lat="45.51627" lon="4.72594">
        <ele>429</ele>
        <time>2018-08-15T06:57:44.264Z</time>
      </trkpt>
      <trkpt lat="45.51627" lon="4.72594">
        <ele>429</ele>
        <time>2018-08-15T06:57:45.270Z</time>
      </trkpt>
      <trkpt lat="45.51617" lon="4.72577">
        <ele>428</ele>
        <time>2018-08-15T06:57:46.271Z</time>
      </trkpt>
      <trkpt lat="45.51617" lon="4.72577">
        <ele>428</ele>
        <time>2018-08-15T06:57:47.241Z</time>
      </trkpt>
      <trkpt lat="45.51604" lon="4.72564">
        <ele>427</ele>
        <time>2018-08-15T06:57:48.233Z</time>
      </trkpt>
      <trkpt lat="45.51604" lon="4.72564">
        <ele>427</ele>
        <time>2018-08-15T06:57:49.238Z</time>
      </trkpt>
      <trkpt lat="45.51589" lon="4.72555">
        <ele>426</ele>
        <time>2018-08-15T06:57:50.260Z</time>
      </trkpt>
      <trkpt lat="45.51589" lon="4.72555">
        <ele>426</ele>
        <time>2018-08-15T06:57:51.266Z</time>
      </trkpt>
      <trkpt lat="45.51572" lon="4.72548">
        <ele>425</ele>
        <time>2018-08-15T06:57:52.251Z</time>
      </trkpt>
      <trkpt lat="45.51572" lon="4.72548">
        <ele>425</ele>
        <time>2018-08-15T06:57:53.257Z</time>
      </trkpt>
      <trkpt lat="45.51555" lon="4.72542">
        <ele>424</ele>
        <time>2018-08-15T06:57:54.257Z</time>
      </trkpt>
      <trkpt lat="45.51555" lon="4.72542">
        <ele>424</ele>
        <time>2018-08-15T06:57:55.262Z</time>
      </trkpt>
      <trkpt lat="45.51539" lon="4.72531">
        <ele>423</ele>
        <time>2018-08-15T06:57:56.259Z</time>
      </trkpt>
      <trkpt lat="45.51539" lon="4.72531">
        <ele>423</ele>
        <time>2018-08-15T06:57:57.264Z</time>
      </trkpt>
      <trkpt lat="45.51527" lon="4.72513">
        <ele>422</ele>
        <time>2018-08-15T06:57:58.259Z</time>
      </trkpt>
      <trkpt lat="45.51527" lon="4.72513">
        <ele>422</ele>
        <time>2018-08-15T06:57:59.264Z</time>
      </trkpt>
      <trkpt lat="45.51524" lon="4.7249">
        <ele>422</ele>
        <time>2018-08-15T06:58:00.269Z</time>
      </trkpt>
      <trkpt lat="45.51524" lon="4.7249">
        <ele>422</ele>
        <time>2018-08-15T06:58:01.234Z</time>
      </trkpt>
      <trkpt lat="45.51526" lon="4.72466">
        <ele>421</ele>
        <time>2018-08-15T06:58:02.261Z</time>
      </trkpt>
      <trkpt lat="45.51526" lon="4.72466">
        <ele>421</ele>
        <time>2018-08-15T06:58:03.266Z</time>
      </trkpt>
      <trkpt lat="45.51533" lon="4.72442">
        <ele>420</ele>
        <time>2018-08-15T06:58:04.246Z</time>
      </trkpt>
      <trkpt lat="45.51533" lon="4.72442">
        <ele>420</ele>
        <time>2018-08-15T06:58:05.251Z</time>
      </trkpt>
      <trkpt lat="45.51541" lon="4.72419">
        <ele>419</ele>
        <time>2018-08-15T06:58:06.248Z</time>
      </trkpt>
      <trkpt lat="45.51541" lon="4.72419">
        <ele>419</ele>
        <time>2018-08-15T06:58:07.253Z</time>
      </trkpt>
      <trkpt lat="45.51551" lon="4.72398">
        <ele>417</ele>
        <time>2018-08-15T06:58:08.241Z</time>
      </trkpt>
      <trkpt lat="45.51551" lon="4.72398">
        <ele>417</ele>
        <time>2018-08-15T06:58:09.248Z</time>
      </trkpt>
      <trkpt lat="45.5156" lon="4.72378">
        <ele>416</ele>
        <time>2018-08-15T06:58:10.240Z</time>
      </trkpt>
      <trkpt lat="45.5156" lon="4.72378">
        <ele>416</ele>
        <time>2018-08-15T06:58:11.245Z</time>
      </trkpt>
      <trkpt lat="45.51569" lon="4.72359">
        <ele>414</ele>
        <time>2018-08-15T06:58:12.273Z</time>
      </trkpt>
      <trkpt lat="45.51569" lon="4.72359">
        <ele>414</ele>
        <time>2018-08-15T06:58:13.248Z</time>
      </trkpt>
      <trkpt lat="45.51577" lon="4.72342">
        <ele>413</ele>
        <time>2018-08-15T06:58:14.257Z</time>
      </trkpt>
      <trkpt lat="45.51577" lon="4.72342">
        <ele>413</ele>
        <time>2018-08-15T06:58:15.266Z</time>
      </trkpt>
      <trkpt lat="45.51586" lon="4.72325">
        <ele>413</ele>
        <time>2018-08-15T06:58:16.250Z</time>
      </trkpt>
      <trkpt lat="45.51586" lon="4.72325">
        <ele>413</ele>
        <time>2018-08-15T06:58:17.256Z</time>
      </trkpt>
      <trkpt lat="45.51596" lon="4.72309">
        <ele>412</ele>
        <time>2018-08-15T06:58:18.236Z</time>
      </trkpt>
      <trkpt lat="45.51596" lon="4.72309">
        <ele>412</ele>
        <time>2018-08-15T06:58:19.242Z</time>
      </trkpt>
      <trkpt lat="45.51602" lon="4.72291">
        <ele>412</ele>
        <time>2018-08-15T06:58:20.265Z</time>
      </trkpt>
      <trkpt lat="45.51602" lon="4.72291">
        <ele>412</ele>
        <time>2018-08-15T06:58:21.270Z</time>
      </trkpt>
      <trkpt lat="45.51605" lon="4.72271">
        <ele>412</ele>
        <time>2018-08-15T06:58:22.265Z</time>
      </trkpt>
      <trkpt lat="45.51605" lon="4.72271">
        <ele>412</ele>
        <time>2018-08-15T06:58:23.271Z</time>
      </trkpt>
      <trkpt lat="45.51601" lon="4.7225">
        <ele>411</ele>
        <time>2018-08-15T06:58:24.271Z</time>
      </trkpt>
      <trkpt lat="45.51601" lon="4.7225">
        <ele>411</ele>
        <time>2018-08-15T06:58:25.237Z</time>
      </trkpt>
      <trkpt lat="45.51594" lon="4.72234">
        <ele>411</ele>
        <time>2018-08-15T06:58:26.271Z</time>
      </trkpt>
      <trkpt lat="45.51594" lon="4.72234">
        <ele>411</ele>
        <time>2018-08-15T06:58:27.247Z</time>
      </trkpt>
      <trkpt lat="45.51586" lon="4.72221">
        <ele>410</ele>
        <time>2018-08-15T06:58:28.238Z</time>
      </trkpt>
      <trkpt lat="45.51586" lon="4.72221">
        <ele>410</ele>
        <time>2018-08-15T06:58:29.244Z</time>
      </trkpt>
      <trkpt lat="45.51578" lon="4.72209">
        <ele>410</ele>
        <time>2018-08-15T06:58:30.263Z</time>
      </trkpt>
      <trkpt lat="45.51574" lon="4.72204">
        <ele>410</ele>
        <time>2018-08-15T06:58:31.251Z</time>
      </trkpt>
      <trkpt lat="45.51574" lon="4.72204">
        <ele>410</ele>
        <time>2018-08-15T06:58:32.256Z</time>
      </trkpt>
      <trkpt lat="45.51568" lon="4.72195">
        <ele>409</ele>
        <time>2018-08-15T06:58:33.248Z</time>
      </trkpt>
      <trkpt lat="45.51568" lon="4.72195">
        <ele>409</ele>
        <time>2018-08-15T06:58:34.253Z</time>
      </trkpt>
      <trkpt lat="45.51565" lon="4.72186">
        <ele>409</ele>
        <time>2018-08-15T06:58:35.252Z</time>
      </trkpt>
      <trkpt lat="45.51565" lon="4.72186">
        <ele>409</ele>
        <time>2018-08-15T06:58:36.266Z</time>
      </trkpt>
      <trkpt lat="45.5156" lon="4.72178">
        <ele>409</ele>
        <time>2018-08-15T06:58:37.235Z</time>
      </trkpt>
      <trkpt lat="45.5156" lon="4.72178">
        <ele>409</ele>
        <time>2018-08-15T06:58:38.241Z</time>
      </trkpt>
      <trkpt lat="45.51556" lon="4.72171">
        <ele>409</ele>
        <time>2018-08-15T06:58:39.234Z</time>
      </trkpt>
      <trkpt lat="45.51556" lon="4.72171">
        <ele>409</ele>
        <time>2018-08-15T06:58:40.243Z</time>
      </trkpt>
      <trkpt lat="45.5155" lon="4.72168">
        <ele>410</ele>
        <time>2018-08-15T06:58:41.236Z</time>
      </trkpt>
      <trkpt lat="45.5155" lon="4.72168">
        <ele>410</ele>
        <time>2018-08-15T06:58:42.243Z</time>
      </trkpt>
      <trkpt lat="45.51549" lon="4.72165">
        <ele>411</ele>
        <time>2018-08-15T06:58:43.267Z</time>
      </trkpt>
      <trkpt lat="45.51547" lon="4.72163">
        <ele>411</ele>
        <time>2018-08-15T06:58:44.253Z</time>
      </trkpt>
      <trkpt lat="45.51547" lon="4.72163">
        <ele>411</ele>
        <time>2018-08-15T06:58:45.258Z</time>
      </trkpt>
      <trkpt lat="45.51544" lon="4.72158">
        <ele>412</ele>
        <time>2018-08-15T06:58:46.249Z</time>
      </trkpt>
      <trkpt lat="45.51544" lon="4.72158">
        <ele>412</ele>
        <time>2018-08-15T06:58:47.254Z</time>
      </trkpt>
      <trkpt lat="45.51536" lon="4.72155">
        <ele>412</ele>
        <time>2018-08-15T06:58:48.243Z</time>
      </trkpt>
      <trkpt lat="45.51536" lon="4.72155">
        <ele>412</ele>
        <time>2018-08-15T06:58:49.248Z</time>
      </trkpt>
      <trkpt lat="45.5153" lon="4.7215">
        <ele>412</ele>
        <time>2018-08-15T06:58:50.271Z</time>
      </trkpt>
      <trkpt lat="45.5153" lon="4.7215">
        <ele>412</ele>
        <time>2018-08-15T06:58:51.236Z</time>
      </trkpt>
      <trkpt lat="45.51524" lon="4.72147">
        <ele>412</ele>
        <time>2018-08-15T06:58:52.246Z</time>
      </trkpt>
      <trkpt lat="45.51524" lon="4.72147">
        <ele>412</ele>
        <time>2018-08-15T06:58:53.251Z</time>
      </trkpt>
      <trkpt lat="45.51518" lon="4.72143">
        <ele>413</ele>
        <time>2018-08-15T06:58:54.235Z</time>
      </trkpt>
      <trkpt lat="45.51518" lon="4.72143">
        <ele>413</ele>
        <time>2018-08-15T06:58:55.247Z</time>
      </trkpt>
      <trkpt lat="45.51512" lon="4.7214">
        <ele>412</ele>
        <time>2018-08-15T06:58:56.258Z</time>
      </trkpt>
      <trkpt lat="45.51509" lon="4.72138">
        <ele>412</ele>
        <time>2018-08-15T06:58:57.235Z</time>
      </trkpt>
      <trkpt lat="45.51509" lon="4.72138">
        <ele>412</ele>
        <time>2018-08-15T06:58:58.241Z</time>
      </trkpt>
      <trkpt lat="45.51504" lon="4.72134">
        <ele>412</ele>
        <time>2018-08-15T06:58:59.235Z</time>
      </trkpt>
      <trkpt lat="45.51504" lon="4.72134">
        <ele>412</ele>
        <time>2018-08-15T06:59:00.267Z</time>
      </trkpt>
      <trkpt lat="45.51498" lon="4.72132">
        <ele>413</ele>
        <time>2018-08-15T06:59:01.254Z</time>
      </trkpt>
      <trkpt lat="45.51496" lon="4.72131">
        <ele>413</ele>
        <time>2018-08-15T06:59:02.243Z</time>
      </trkpt>
      <trkpt lat="45.51496" lon="4.72131">
        <ele>413</ele>
        <time>2018-08-15T06:59:03.248Z</time>
      </trkpt>
      <trkpt lat="45.5149" lon="4.72129">
        <ele>413</ele>
        <time>2018-08-15T06:59:04.239Z</time>
      </trkpt>
      <trkpt lat="45.5149" lon="4.72129">
        <ele>413</ele>
        <time>2018-08-15T06:59:05.244Z</time>
      </trkpt>
      <trkpt lat="45.51483" lon="4.72127">
        <ele>413</ele>
        <time>2018-08-15T06:59:06.256Z</time>
      </trkpt>
      <trkpt lat="45.5148" lon="4.72126">
        <ele>413</ele>
        <time>2018-08-15T06:59:07.260Z</time>
      </trkpt>
      <trkpt lat="45.51477" lon="4.72125">
        <ele>413</ele>
        <time>2018-08-15T06:59:08.249Z</time>
      </trkpt>
      <trkpt lat="45.51477" lon="4.72125">
        <ele>413</ele>
        <time>2018-08-15T06:59:09.254Z</time>
      </trkpt>
      <trkpt lat="45.5147" lon="4.72124">
        <ele>414</ele>
        <time>2018-08-15T06:59:10.250Z</time>
      </trkpt>
      <trkpt lat="45.51466" lon="4.72123">
        <ele>414</ele>
        <time>2018-08-15T06:59:11.233Z</time>
      </trkpt>
      <trkpt lat="45.51466" lon="4.72123">
        <ele>414</ele>
        <time>2018-08-15T06:59:12.240Z</time>
      </trkpt>
      <trkpt lat="45.51461" lon="4.72121">
        <ele>415</ele>
        <time>2018-08-15T06:59:13.264Z</time>
      </trkpt>
      <trkpt lat="45.51458" lon="4.72119">
        <ele>415</ele>
        <time>2018-08-15T06:59:14.260Z</time>
      </trkpt>
      <trkpt lat="45.51458" lon="4.72119">
        <ele>415</ele>
        <time>2018-08-15T06:59:15.266Z</time>
      </trkpt>
      <trkpt lat="45.51452" lon="4.72118">
        <ele>415</ele>
        <time>2018-08-15T06:59:16.250Z</time>
      </trkpt>
      <trkpt lat="45.51449" lon="4.72117">
        <ele>415</ele>
        <time>2018-08-15T06:59:17.243Z</time>
      </trkpt>
      <trkpt lat="45.51449" lon="4.72117">
        <ele>415</ele>
        <time>2018-08-15T06:59:18.241Z</time>
      </trkpt>
      <trkpt lat="45.51442" lon="4.72118">
        <ele>416</ele>
        <time>2018-08-15T06:59:19.253Z</time>
      </trkpt>
      <trkpt lat="45.51439" lon="4.72117">
        <ele>416</ele>
        <time>2018-08-15T06:59:20.254Z</time>
      </trkpt>
      <trkpt lat="45.51435" lon="4.72117">
        <ele>417</ele>
        <time>2018-08-15T06:59:21.253Z</time>
      </trkpt>
      <trkpt lat="45.51435" lon="4.72117">
        <ele>417</ele>
        <time>2018-08-15T06:59:22.259Z</time>
      </trkpt>
      <trkpt lat="45.51429" lon="4.72116">
        <ele>417</ele>
        <time>2018-08-15T06:59:23.250Z</time>
      </trkpt>
      <trkpt lat="45.51429" lon="4.72116">
        <ele>417</ele>
        <time>2018-08-15T06:59:24.256Z</time>
      </trkpt>
      <trkpt lat="45.51423" lon="4.72116">
        <ele>418</ele>
        <time>2018-08-15T06:59:25.243Z</time>
      </trkpt>
      <trkpt lat="45.5142" lon="4.72116">
        <ele>418</ele>
        <time>2018-08-15T06:59:26.266Z</time>
      </trkpt>
      <trkpt lat="45.5142" lon="4.72116">
        <ele>418</ele>
        <time>2018-08-15T06:59:27.271Z</time>
      </trkpt>
      <trkpt lat="45.51414" lon="4.72117">
        <ele>419</ele>
        <time>2018-08-15T06:59:28.263Z</time>
      </trkpt>
      <trkpt lat="45.51414" lon="4.72117">
        <ele>419</ele>
        <time>2018-08-15T06:59:29.268Z</time>
      </trkpt>
      <trkpt lat="45.51407" lon="4.72117">
        <ele>420</ele>
        <time>2018-08-15T06:59:30.268Z</time>
      </trkpt>
      <trkpt lat="45.51407" lon="4.72117">
        <ele>420</ele>
        <time>2018-08-15T06:59:31.233Z</time>
      </trkpt>
      <trkpt lat="45.51399" lon="4.72118">
        <ele>420</ele>
        <time>2018-08-15T06:59:32.235Z</time>
      </trkpt>
      <trkpt lat="45.51399" lon="4.72118">
        <ele>420</ele>
        <time>2018-08-15T06:59:33.242Z</time>
      </trkpt>
      <trkpt lat="45.51393" lon="4.72119">
        <ele>420</ele>
        <time>2018-08-15T06:59:34.266Z</time>
      </trkpt>
      <trkpt lat="45.5139" lon="4.72119">
        <ele>420</ele>
        <time>2018-08-15T06:59:35.258Z</time>
      </trkpt>
      <trkpt lat="45.5139" lon="4.72119">
        <ele>420</ele>
        <time>2018-08-15T06:59:36.251Z</time>
      </trkpt>
      <trkpt lat="45.51383" lon="4.7212">
        <ele>420</ele>
        <time>2018-08-15T06:59:37.244Z</time>
      </trkpt>
      <trkpt lat="45.51383" lon="4.7212">
        <ele>420</ele>
        <time>2018-08-15T06:59:38.249Z</time>
      </trkpt>
      <trkpt lat="45.51376" lon="4.72123">
        <ele>420</ele>
        <time>2018-08-15T06:59:39.243Z</time>
      </trkpt>
      <trkpt lat="45.51376" lon="4.72123">
        <ele>420</ele>
        <time>2018-08-15T06:59:40.248Z</time>
      </trkpt>
      <trkpt lat="45.51369" lon="4.72125">
        <ele>420</ele>
        <time>2018-08-15T06:59:41.243Z</time>
      </trkpt>
      <trkpt lat="45.51369" lon="4.72125">
        <ele>420</ele>
        <time>2018-08-15T06:59:42.248Z</time>
      </trkpt>
      <trkpt lat="45.51362" lon="4.72127">
        <ele>420</ele>
        <time>2018-08-15T06:59:43.232Z</time>
      </trkpt>
      <trkpt lat="45.51359" lon="4.72128">
        <ele>420</ele>
        <time>2018-08-15T06:59:44.270Z</time>
      </trkpt>
      <trkpt lat="45.51359" lon="4.72128">
        <ele>420</ele>
        <time>2018-08-15T06:59:45.237Z</time>
      </trkpt>
      <trkpt lat="45.51353" lon="4.7213">
        <ele>420</ele>
        <time>2018-08-15T06:59:46.237Z</time>
      </trkpt>
      <trkpt lat="45.51353" lon="4.7213">
        <ele>420</ele>
        <time>2018-08-15T06:59:47.242Z</time>
      </trkpt>
      <trkpt lat="45.51347" lon="4.72132">
        <ele>421</ele>
        <time>2018-08-15T06:59:48.241Z</time>
      </trkpt>
      <trkpt lat="45.51344" lon="4.72133">
        <ele>421</ele>
        <time>2018-08-15T06:59:49.242Z</time>
      </trkpt>
      <trkpt lat="45.51341" lon="4.72134">
        <ele>421</ele>
        <time>2018-08-15T06:59:50.262Z</time>
      </trkpt>
      <trkpt lat="45.51341" lon="4.72134">
        <ele>421</ele>
        <time>2018-08-15T06:59:51.267Z</time>
      </trkpt>
      <trkpt lat="45.51335" lon="4.72135">
        <ele>421</ele>
        <time>2018-08-15T06:59:52.263Z</time>
      </trkpt>
      <trkpt lat="45.51335" lon="4.72135">
        <ele>421</ele>
        <time>2018-08-15T06:59:53.268Z</time>
      </trkpt>
      <trkpt lat="45.5133" lon="4.72136">
        <ele>421</ele>
        <time>2018-08-15T06:59:54.253Z</time>
      </trkpt>
      <trkpt lat="45.5133" lon="4.72136">
        <ele>421</ele>
        <time>2018-08-15T06:59:55.258Z</time>
      </trkpt>
      <trkpt lat="45.51324" lon="4.72137">
        <ele>421</ele>
        <time>2018-08-15T06:59:56.241Z</time>
      </trkpt>
      <trkpt lat="45.51324" lon="4.72137">
        <ele>421</ele>
        <time>2018-08-15T06:59:57.247Z</time>
      </trkpt>
      <trkpt lat="45.51318" lon="4.72138">
        <ele>421</ele>
        <time>2018-08-15T06:59:58.251Z</time>
      </trkpt>
      <trkpt lat="45.51318" lon="4.72138">
        <ele>421</ele>
        <time>2018-08-15T06:59:59.256Z</time>
      </trkpt>
      <trkpt lat="45.51312" lon="4.72138">
        <ele>422</ele>
        <time>2018-08-15T07:00:00.257Z</time>
      </trkpt>
      <trkpt lat="45.51309" lon="4.72138">
        <ele>422</ele>
        <time>2018-08-15T07:00:01.254Z</time>
      </trkpt>
      <trkpt lat="45.51309" lon="4.72138">
        <ele>422</ele>
        <time>2018-08-15T07:00:02.234Z</time>
      </trkpt>
      <trkpt lat="45.51303" lon="4.72139">
        <ele>421</ele>
        <time>2018-08-15T07:00:03.256Z</time>
      </trkpt>
      <trkpt lat="45.51303" lon="4.72139">
        <ele>421</ele>
        <time>2018-08-15T07:00:04.262Z</time>
      </trkpt>
      <trkpt lat="45.51297" lon="4.7214">
        <ele>422</ele>
        <time>2018-08-15T07:00:05.248Z</time>
      </trkpt>
      <trkpt lat="45.51297" lon="4.7214">
        <ele>422</ele>
        <time>2018-08-15T07:00:06.253Z</time>
      </trkpt>
      <trkpt lat="45.51291" lon="4.7214">
        <ele>422</ele>
        <time>2018-08-15T07:00:07.237Z</time>
      </trkpt>
      <trkpt lat="45.51291" lon="4.7214">
        <ele>422</ele>
        <time>2018-08-15T07:00:08.245Z</time>
      </trkpt>
      <trkpt lat="45.51286" lon="4.72141">
        <ele>422</ele>
        <time>2018-08-15T07:00:09.270Z</time>
      </trkpt>
      <trkpt lat="45.51286" lon="4.72141">
        <ele>422</ele>
        <time>2018-08-15T07:00:10.236Z</time>
      </trkpt>
      <trkpt lat="45.5128" lon="4.72141">
        <ele>422</ele>
        <time>2018-08-15T07:00:11.238Z</time>
      </trkpt>
      <trkpt lat="45.5128" lon="4.72141">
        <ele>422</ele>
        <time>2018-08-15T07:00:12.243Z</time>
      </trkpt>
      <trkpt lat="45.51274" lon="4.72142">
        <ele>422</ele>
        <time>2018-08-15T07:00:13.253Z</time>
      </trkpt>
      <trkpt lat="45.51274" lon="4.72142">
        <ele>422</ele>
        <time>2018-08-15T07:00:14.261Z</time>
      </trkpt>
      <trkpt lat="45.51268" lon="4.72142">
        <ele>422</ele>
        <time>2018-08-15T07:00:15.264Z</time>
      </trkpt>
      <trkpt lat="45.51266" lon="4.72142">
        <ele>422</ele>
        <time>2018-08-15T07:00:16.259Z</time>
      </trkpt>
      <trkpt lat="45.51266" lon="4.72142">
        <ele>422</ele>
        <time>2018-08-15T07:00:17.264Z</time>
      </trkpt>
      <trkpt lat="45.5126" lon="4.72143">
        <ele>422</ele>
        <time>2018-08-15T07:00:18.260Z</time>
      </trkpt>
      <trkpt lat="45.5126" lon="4.72143">
        <ele>422</ele>
        <time>2018-08-15T07:00:19.265Z</time>
      </trkpt>
      <trkpt lat="45.51254" lon="4.72144">
        <ele>423</ele>
        <time>2018-08-15T07:00:20.264Z</time>
      </trkpt>
      <trkpt lat="45.51254" lon="4.72144">
        <ele>423</ele>
        <time>2018-08-15T07:00:21.269Z</time>
      </trkpt>
      <trkpt lat="45.51249" lon="4.72145">
        <ele>423</ele>
        <time>2018-08-15T07:00:22.259Z</time>
      </trkpt>
      <trkpt lat="45.51249" lon="4.72145">
        <ele>423</ele>
        <time>2018-08-15T07:00:23.264Z</time>
      </trkpt>
      <trkpt lat="45.51243" lon="4.72147">
        <ele>423</ele>
        <time>2018-08-15T07:00:24.259Z</time>
      </trkpt>
      <trkpt lat="45.51243" lon="4.72147">
        <ele>423</ele>
        <time>2018-08-15T07:00:25.265Z</time>
      </trkpt>
      <trkpt lat="45.51237" lon="4.7215">
        <ele>423</ele>
        <time>2018-08-15T07:00:26.254Z</time>
      </trkpt>
      <trkpt lat="45.51237" lon="4.7215">
        <ele>423</ele>
        <time>2018-08-15T07:00:27.259Z</time>
      </trkpt>
      <trkpt lat="45.51232" lon="4.72151">
        <ele>423</ele>
        <time>2018-08-15T07:00:28.235Z</time>
      </trkpt>
      <trkpt lat="45.51232" lon="4.72151">
        <ele>423</ele>
        <time>2018-08-15T07:00:29.242Z</time>
      </trkpt>
      <trkpt lat="45.51226" lon="4.72153">
        <ele>423</ele>
        <time>2018-08-15T07:00:30.232Z</time>
      </trkpt>
      <trkpt lat="45.51226" lon="4.72153">
        <ele>423</ele>
        <time>2018-08-15T07:00:31.240Z</time>
      </trkpt>
      <trkpt lat="45.51221" lon="4.72156">
        <ele>423</ele>
        <time>2018-08-15T07:00:32.258Z</time>
      </trkpt>
      <trkpt lat="45.51221" lon="4.72156">
        <ele>423</ele>
        <time>2018-08-15T07:00:33.263Z</time>
      </trkpt>
      <trkpt lat="45.51216" lon="4.72159">
        <ele>424</ele>
        <time>2018-08-15T07:00:34.256Z</time>
      </trkpt>
      <trkpt lat="45.51216" lon="4.72159">
        <ele>424</ele>
        <time>2018-08-15T07:00:35.261Z</time>
      </trkpt>
      <trkpt lat="45.51211" lon="4.72162">
        <ele>424</ele>
        <time>2018-08-15T07:00:36.252Z</time>
      </trkpt>
      <trkpt lat="45.51208" lon="4.72164">
        <ele>424</ele>
        <time>2018-08-15T07:00:37.238Z</time>
      </trkpt>
      <trkpt lat="45.51208" lon="4.72164">
        <ele>424</ele>
        <time>2018-08-15T07:00:38.244Z</time>
      </trkpt>
      <trkpt lat="45.51203" lon="4.72167">
        <ele>425</ele>
        <time>2018-08-15T07:00:39.243Z</time>
      </trkpt>
      <trkpt lat="45.51203" lon="4.72167">
        <ele>425</ele>
        <time>2018-08-15T07:00:40.250Z</time>
      </trkpt>
      <trkpt lat="45.51197" lon="4.72171">
        <ele>425</ele>
        <time>2018-08-15T07:00:41.234Z</time>
      </trkpt>
      <trkpt lat="45.51197" lon="4.72171">
        <ele>425</ele>
        <time>2018-08-15T07:00:42.239Z</time>
      </trkpt>
      <trkpt lat="45.51192" lon="4.72174">
        <ele>425</ele>
        <time>2018-08-15T07:00:43.263Z</time>
      </trkpt>
      <trkpt lat="45.51189" lon="4.72175">
        <ele>425</ele>
        <time>2018-08-15T07:00:44.255Z</time>
      </trkpt>
      <trkpt lat="45.51189" lon="4.72175">
        <ele>425</ele>
        <time>2018-08-15T07:00:45.260Z</time>
      </trkpt>
      <trkpt lat="45.51183" lon="4.72179">
        <ele>426</ele>
        <time>2018-08-15T07:00:46.250Z</time>
      </trkpt>
      <trkpt lat="45.5118" lon="4.72181">
        <ele>426</ele>
        <time>2018-08-15T07:00:47.237Z</time>
      </trkpt>
      <trkpt lat="45.5118" lon="4.72181">
        <ele>426</ele>
        <time>2018-08-15T07:00:48.242Z</time>
      </trkpt>
      <trkpt lat="45.51175" lon="4.72184">
        <ele>427</ele>
        <time>2018-08-15T07:00:49.252Z</time>
      </trkpt>
      <trkpt lat="45.51172" lon="4.72186">
        <ele>427</ele>
        <time>2018-08-15T07:00:50.236Z</time>
      </trkpt>
      <trkpt lat="45.51172" lon="4.72186">
        <ele>427</ele>
        <time>2018-08-15T07:00:51.242Z</time>
      </trkpt>
      <trkpt lat="45.51167" lon="4.7219">
        <ele>427</ele>
        <time>2018-08-15T07:00:52.232Z</time>
      </trkpt>
      <trkpt lat="45.51167" lon="4.7219">
        <ele>427</ele>
        <time>2018-08-15T07:00:53.238Z</time>
      </trkpt>
      <trkpt lat="45.51161" lon="4.72194">
        <ele>427</ele>
        <time>2018-08-15T07:00:54.265Z</time>
      </trkpt>
      <trkpt lat="45.51161" lon="4.72194">
        <ele>427</ele>
        <time>2018-08-15T07:00:55.271Z</time>
      </trkpt>
      <trkpt lat="45.51155" lon="4.72197">
        <ele>428</ele>
        <time>2018-08-15T07:00:56.253Z</time>
      </trkpt>
      <trkpt lat="45.51155" lon="4.72197">
        <ele>428</ele>
        <time>2018-08-15T07:00:57.258Z</time>
      </trkpt>
      <trkpt lat="45.5115" lon="4.722">
        <ele>428</ele>
        <time>2018-08-15T07:00:58.253Z</time>
      </trkpt>
      <trkpt lat="45.5115" lon="4.722">
        <ele>428</ele>
        <time>2018-08-15T07:00:59.237Z</time>
      </trkpt>
      <trkpt lat="45.51144" lon="4.72204">
        <ele>428</ele>
        <time>2018-08-15T07:01:00.268Z</time>
      </trkpt>
      <trkpt lat="45.51144" lon="4.72204">
        <ele>428</ele>
        <time>2018-08-15T07:01:01.233Z</time>
      </trkpt>
      <trkpt lat="45.51139" lon="4.72208">
        <ele>428</ele>
        <time>2018-08-15T07:01:02.268Z</time>
      </trkpt>
      <trkpt lat="45.51139" lon="4.72208">
        <ele>428</ele>
        <time>2018-08-15T07:01:03.234Z</time>
      </trkpt>
      <trkpt lat="45.51133" lon="4.72211">
        <ele>428</ele>
        <time>2018-08-15T07:01:04.233Z</time>
      </trkpt>
      <trkpt lat="45.51133" lon="4.72211">
        <ele>428</ele>
        <time>2018-08-15T07:01:05.240Z</time>
      </trkpt>
      <trkpt lat="45.51128" lon="4.72214">
        <ele>429</ele>
        <time>2018-08-15T07:01:06.269Z</time>
      </trkpt>
      <trkpt lat="45.51128" lon="4.72214">
        <ele>429</ele>
        <time>2018-08-15T07:01:07.240Z</time>
      </trkpt>
      <trkpt lat="45.51122" lon="4.72218">
        <ele>429</ele>
        <time>2018-08-15T07:01:08.240Z</time>
      </trkpt>
      <trkpt lat="45.51122" lon="4.72218">
        <ele>429</ele>
        <time>2018-08-15T07:01:09.245Z</time>
      </trkpt>
      <trkpt lat="45.51117" lon="4.7222">
        <ele>429</ele>
        <time>2018-08-15T07:01:10.232Z</time>
      </trkpt>
      <trkpt lat="45.51117" lon="4.7222">
        <ele>429</ele>
        <time>2018-08-15T07:01:11.238Z</time>
      </trkpt>
      <trkpt lat="45.51111" lon="4.72223">
        <ele>429</ele>
        <time>2018-08-15T07:01:12.256Z</time>
      </trkpt>
      <trkpt lat="45.51111" lon="4.72223">
        <ele>429</ele>
        <time>2018-08-15T07:01:13.261Z</time>
      </trkpt>
      <trkpt lat="45.51105" lon="4.72226">
        <ele>429</ele>
        <time>2018-08-15T07:01:14.250Z</time>
      </trkpt>
      <trkpt lat="45.51105" lon="4.72226">
        <ele>429</ele>
        <time>2018-08-15T07:01:15.257Z</time>
      </trkpt>
      <trkpt lat="45.511" lon="4.72228">
        <ele>430</ele>
        <time>2018-08-15T07:01:16.243Z</time>
      </trkpt>
      <trkpt lat="45.511" lon="4.72228">
        <ele>430</ele>
        <time>2018-08-15T07:01:17.248Z</time>
      </trkpt>
      <trkpt lat="45.51094" lon="4.7223">
        <ele>430</ele>
        <time>2018-08-15T07:01:18.241Z</time>
      </trkpt>
      <trkpt lat="45.51094" lon="4.7223">
        <ele>430</ele>
        <time>2018-08-15T07:01:19.247Z</time>
      </trkpt>
      <trkpt lat="45.51088" lon="4.72232">
        <ele>430</ele>
        <time>2018-08-15T07:01:20.263Z</time>
      </trkpt>
      <trkpt lat="45.51088" lon="4.72232">
        <ele>430</ele>
        <time>2018-08-15T07:01:21.268Z</time>
      </trkpt>
      <trkpt lat="45.51082" lon="4.72234">
        <ele>430</ele>
        <time>2018-08-15T07:01:22.266Z</time>
      </trkpt>
      <trkpt lat="45.51082" lon="4.72234">
        <ele>430</ele>
        <time>2018-08-15T07:01:23.271Z</time>
      </trkpt>
      <trkpt lat="45.51076" lon="4.72235">
        <ele>430</ele>
        <time>2018-08-15T07:01:24.265Z</time>
      </trkpt>
      <trkpt lat="45.51076" lon="4.72235">
        <ele>430</ele>
        <time>2018-08-15T07:01:25.270Z</time>
      </trkpt>
      <trkpt lat="45.5107" lon="4.72236">
        <ele>430</ele>
        <time>2018-08-15T07:01:26.262Z</time>
      </trkpt>
      <trkpt lat="45.5107" lon="4.72236">
        <ele>430</ele>
        <time>2018-08-15T07:01:27.268Z</time>
      </trkpt>
      <trkpt lat="45.51064" lon="4.72237">
        <ele>430</ele>
        <time>2018-08-15T07:01:28.261Z</time>
      </trkpt>
      <trkpt lat="45.51064" lon="4.72237">
        <ele>430</ele>
        <time>2018-08-15T07:01:29.268Z</time>
      </trkpt>
      <trkpt lat="45.51058" lon="4.72236">
        <ele>430</ele>
        <time>2018-08-15T07:01:30.265Z</time>
      </trkpt>
      <trkpt lat="45.51058" lon="4.72236">
        <ele>430</ele>
        <time>2018-08-15T07:01:31.271Z</time>
      </trkpt>
      <trkpt lat="45.51053" lon="4.72235">
        <ele>430</ele>
        <time>2018-08-15T07:01:32.267Z</time>
      </trkpt>
      <trkpt lat="45.51053" lon="4.72235">
        <ele>430</ele>
        <time>2018-08-15T07:01:33.236Z</time>
      </trkpt>
      <trkpt lat="45.51047" lon="4.72233">
        <ele>430</ele>
        <time>2018-08-15T07:01:34.264Z</time>
      </trkpt>
      <trkpt lat="45.51047" lon="4.72233">
        <ele>430</ele>
        <time>2018-08-15T07:01:35.269Z</time>
      </trkpt>
      <trkpt lat="45.51042" lon="4.7223">
        <ele>430</ele>
        <time>2018-08-15T07:01:36.253Z</time>
      </trkpt>
      <trkpt lat="45.51039" lon="4.72228">
        <ele>430</ele>
        <time>2018-08-15T07:01:37.243Z</time>
      </trkpt>
      <trkpt lat="45.51037" lon="4.72226">
        <ele>430</ele>
        <time>2018-08-15T07:01:38.268Z</time>
      </trkpt>
      <trkpt lat="45.51037" lon="4.72226">
        <ele>430</ele>
        <time>2018-08-15T07:01:39.233Z</time>
      </trkpt>
      <trkpt lat="45.51032" lon="4.72221">
        <ele>431</ele>
        <time>2018-08-15T07:01:40.270Z</time>
      </trkpt>
      <trkpt lat="45.51032" lon="4.72221">
        <ele>431</ele>
        <time>2018-08-15T07:01:41.241Z</time>
      </trkpt>
      <trkpt lat="45.51029" lon="4.72214">
        <ele>431</ele>
        <time>2018-08-15T07:01:42.250Z</time>
      </trkpt>
      <trkpt lat="45.51029" lon="4.72214">
        <ele>431</ele>
        <time>2018-08-15T07:01:43.265Z</time>
      </trkpt>
      <trkpt lat="45.51027" lon="4.72207">
        <ele>431</ele>
        <time>2018-08-15T07:01:44.259Z</time>
      </trkpt>
      <trkpt lat="45.51027" lon="4.72207">
        <ele>431</ele>
        <time>2018-08-15T07:01:45.264Z</time>
      </trkpt>
      <trkpt lat="45.51025" lon="4.72199">
        <ele>431</ele>
        <time>2018-08-15T07:01:46.260Z</time>
      </trkpt>
      <trkpt lat="45.51024" lon="4.72195">
        <ele>432</ele>
        <time>2018-08-15T07:01:47.257Z</time>
      </trkpt>
      <trkpt lat="45.51024" lon="4.72195">
        <ele>432</ele>
        <time>2018-08-15T07:01:48.262Z</time>
      </trkpt>
      <trkpt lat="45.51023" lon="4.72187">
        <ele>432</ele>
        <time>2018-08-15T07:01:49.249Z</time>
      </trkpt>
      <trkpt lat="45.51023" lon="4.72187">
        <ele>432</ele>
        <time>2018-08-15T07:01:50.254Z</time>
      </trkpt>
      <trkpt lat="45.51022" lon="4.72179">
        <ele>433</ele>
        <time>2018-08-15T07:01:51.253Z</time>
      </trkpt>
      <trkpt lat="45.51022" lon="4.72179">
        <ele>433</ele>
        <time>2018-08-15T07:01:52.257Z</time>
      </trkpt>
      <trkpt lat="45.51021" lon="4.72171">
        <ele>433</ele>
        <time>2018-08-15T07:01:53.250Z</time>
      </trkpt>
      <trkpt lat="45.51021" lon="4.72171">
        <ele>433</ele>
        <time>2018-08-15T07:01:54.255Z</time>
      </trkpt>
      <trkpt lat="45.5102" lon="4.72162">
        <ele>433</ele>
        <time>2018-08-15T07:01:55.260Z</time>
      </trkpt>
      <trkpt lat="45.5102" lon="4.72158">
        <ele>433</ele>
        <time>2018-08-15T07:01:56.262Z</time>
      </trkpt>
      <trkpt lat="45.5102" lon="4.72158">
        <ele>433</ele>
        <time>2018-08-15T07:01:57.267Z</time>
      </trkpt>
      <trkpt lat="45.51018" lon="4.72149">
        <ele>433</ele>
        <time>2018-08-15T07:01:58.257Z</time>
      </trkpt>
      <trkpt lat="45.51017" lon="4.72145">
        <ele>433</ele>
        <time>2018-08-15T07:01:59.258Z</time>
      </trkpt>
      <trkpt lat="45.51017" lon="4.72145">
        <ele>433</ele>
        <time>2018-08-15T07:02:00.263Z</time>
      </trkpt>
      <trkpt lat="45.51014" lon="4.72136">
        <ele>433</ele>
        <time>2018-08-15T07:02:01.257Z</time>
      </trkpt>
      <trkpt lat="45.51014" lon="4.72136">
        <ele>433</ele>
        <time>2018-08-15T07:02:02.263Z</time>
      </trkpt>
      <trkpt lat="45.51011" lon="4.72128">
        <ele>434</ele>
        <time>2018-08-15T07:02:03.245Z</time>
      </trkpt>
      <trkpt lat="45.51011" lon="4.72128">
        <ele>434</ele>
        <time>2018-08-15T07:02:04.250Z</time>
      </trkpt>
      <trkpt lat="45.51007" lon="4.72122">
        <ele>434</ele>
        <time>2018-08-15T07:02:05.232Z</time>
      </trkpt>
      <trkpt lat="45.51005" lon="4.72119">
        <ele>434</ele>
        <time>2018-08-15T07:02:06.268Z</time>
      </trkpt>
      <trkpt lat="45.51005" lon="4.72119">
        <ele>434</ele>
        <time>2018-08-15T07:02:07.241Z</time>
      </trkpt>
      <trkpt lat="45.51001" lon="4.72112">
        <ele>434</ele>
        <time>2018-08-15T07:02:08.236Z</time>
      </trkpt>
      <trkpt lat="45.51001" lon="4.72112">
        <ele>434</ele>
        <time>2018-08-15T07:02:09.242Z</time>
      </trkpt>
      <trkpt lat="45.50995" lon="4.72108">
        <ele>434</ele>
        <time>2018-08-15T07:02:10.269Z</time>
      </trkpt>
      <trkpt lat="45.50992" lon="4.72106">
        <ele>434</ele>
        <time>2018-08-15T07:02:11.267Z</time>
      </trkpt>
      <trkpt lat="45.50992" lon="4.72106">
        <ele>434</ele>
        <time>2018-08-15T07:02:12.232Z</time>
      </trkpt>
      <trkpt lat="45.50986" lon="4.72105">
        <ele>434</ele>
        <time>2018-08-15T07:02:13.239Z</time>
      </trkpt>
      <trkpt lat="45.50982" lon="4.72105">
        <ele>434</ele>
        <time>2018-08-15T07:02:14.266Z</time>
      </trkpt>
      <trkpt lat="45.50982" lon="4.72105">
        <ele>434</ele>
        <time>2018-08-15T07:02:15.271Z</time>
      </trkpt>
      <trkpt lat="45.50977" lon="4.72104">
        <ele>434</ele>
        <time>2018-08-15T07:02:16.266Z</time>
      </trkpt>
      <trkpt lat="45.50977" lon="4.72104">
        <ele>434</ele>
        <time>2018-08-15T07:02:17.271Z</time>
      </trkpt>
      <trkpt lat="45.50971" lon="4.72106">
        <ele>434</ele>
        <time>2018-08-15T07:02:18.232Z</time>
      </trkpt>
      <trkpt lat="45.50971" lon="4.72106">
        <ele>434</ele>
        <time>2018-08-15T07:02:19.239Z</time>
      </trkpt>
      <trkpt lat="45.50965" lon="4.72108">
        <ele>434</ele>
        <time>2018-08-15T07:02:20.262Z</time>
      </trkpt>
      <trkpt lat="45.50965" lon="4.72108">
        <ele>434</ele>
        <time>2018-08-15T07:02:21.267Z</time>
      </trkpt>
      <trkpt lat="45.5096" lon="4.72112">
        <ele>435</ele>
        <time>2018-08-15T07:02:22.259Z</time>
      </trkpt>
      <trkpt lat="45.5096" lon="4.72112">
        <ele>435</ele>
        <time>2018-08-15T07:02:23.264Z</time>
      </trkpt>
      <trkpt lat="45.50954" lon="4.72115">
        <ele>435</ele>
        <time>2018-08-15T07:02:24.263Z</time>
      </trkpt>
      <trkpt lat="45.50952" lon="4.72116">
        <ele>435</ele>
        <time>2018-08-15T07:02:25.246Z</time>
      </trkpt>
      <trkpt lat="45.50949" lon="4.72118">
        <ele>436</ele>
        <time>2018-08-15T07:02:26.258Z</time>
      </trkpt>
      <trkpt lat="45.50949" lon="4.72118">
        <ele>436</ele>
        <time>2018-08-15T07:02:27.248Z</time>
      </trkpt>
      <trkpt lat="45.50944" lon="4.72122">
        <ele>436</ele>
        <time>2018-08-15T07:02:28.243Z</time>
      </trkpt>
      <trkpt lat="45.50944" lon="4.72122">
        <ele>436</ele>
        <time>2018-08-15T07:02:29.249Z</time>
      </trkpt>
      <trkpt lat="45.50939" lon="4.72126">
        <ele>437</ele>
        <time>2018-08-15T07:02:30.271Z</time>
      </trkpt>
      <trkpt lat="45.50937" lon="4.72128">
        <ele>437</ele>
        <time>2018-08-15T07:02:31.264Z</time>
      </trkpt>
      <trkpt lat="45.50935" lon="4.72131">
        <ele>437</ele>
        <time>2018-08-15T07:02:32.260Z</time>
      </trkpt>
      <trkpt lat="45.50935" lon="4.72131">
        <ele>437</ele>
        <time>2018-08-15T07:02:33.265Z</time>
      </trkpt>
      <trkpt lat="45.50932" lon="4.72137">
        <ele>438</ele>
        <time>2018-08-15T07:02:34.252Z</time>
      </trkpt>
      <trkpt lat="45.50929" lon="4.72139">
        <ele>438</ele>
        <time>2018-08-15T07:02:35.238Z</time>
      </trkpt>
      <trkpt lat="45.50929" lon="4.72139">
        <ele>438</ele>
        <time>2018-08-15T07:02:36.251Z</time>
      </trkpt>
      <trkpt lat="45.50926" lon="4.72144">
        <ele>439</ele>
        <time>2018-08-15T07:02:37.236Z</time>
      </trkpt>
      <trkpt lat="45.50925" lon="4.72146">
        <ele>439</ele>
        <time>2018-08-15T07:02:38.271Z</time>
      </trkpt>
      <trkpt lat="45.50925" lon="4.72146">
        <ele>439</ele>
        <time>2018-08-15T07:02:39.243Z</time>
      </trkpt>
      <trkpt lat="45.50917" lon="4.7215">
        <ele>440</ele>
        <time>2018-08-15T07:02:40.263Z</time>
      </trkpt>
      <trkpt lat="45.50917" lon="4.7215">
        <ele>440</ele>
        <time>2018-08-15T07:02:41.268Z</time>
      </trkpt>
      <trkpt lat="45.50911" lon="4.72155">
        <ele>441</ele>
        <time>2018-08-15T07:02:42.268Z</time>
      </trkpt>
      <trkpt lat="45.50911" lon="4.72155">
        <ele>441</ele>
        <time>2018-08-15T07:02:43.241Z</time>
      </trkpt>
      <trkpt lat="45.50906" lon="4.72162">
        <ele>442</ele>
        <time>2018-08-15T07:02:44.240Z</time>
      </trkpt>
      <trkpt lat="45.50906" lon="4.72162">
        <ele>442</ele>
        <time>2018-08-15T07:02:45.245Z</time>
      </trkpt>
      <trkpt lat="45.509" lon="4.72169">
        <ele>443</ele>
        <time>2018-08-15T07:02:46.234Z</time>
      </trkpt>
      <trkpt lat="45.509" lon="4.72169">
        <ele>443</ele>
        <time>2018-08-15T07:02:47.241Z</time>
      </trkpt>
      <trkpt lat="45.50896" lon="4.72174">
        <ele>443</ele>
        <time>2018-08-15T07:02:48.269Z</time>
      </trkpt>
      <trkpt lat="45.50896" lon="4.72174">
        <ele>443</ele>
        <time>2018-08-15T07:02:49.237Z</time>
      </trkpt>
      <trkpt lat="45.50889" lon="4.72179">
        <ele>443</ele>
        <time>2018-08-15T07:02:50.270Z</time>
      </trkpt>
      <trkpt lat="45.50889" lon="4.72179">
        <ele>443</ele>
        <time>2018-08-15T07:02:51.239Z</time>
      </trkpt>
      <trkpt lat="45.50882" lon="4.72185">
        <ele>443</ele>
        <time>2018-08-15T07:02:52.232Z</time>
      </trkpt>
      <trkpt lat="45.50882" lon="4.72185">
        <ele>443</ele>
        <time>2018-08-15T07:02:53.239Z</time>
      </trkpt>
      <trkpt lat="45.50876" lon="4.72191">
        <ele>443</ele>
        <time>2018-08-15T07:02:54.241Z</time>
      </trkpt>
      <trkpt lat="45.50873" lon="4.72194">
        <ele>443</ele>
        <time>2018-08-15T07:02:55.232Z</time>
      </trkpt>
      <trkpt lat="45.5087" lon="4.72197">
        <ele>443</ele>
        <time>2018-08-15T07:02:56.267Z</time>
      </trkpt>
      <trkpt lat="45.5087" lon="4.72197">
        <ele>443</ele>
        <time>2018-08-15T07:02:57.233Z</time>
      </trkpt>
      <trkpt lat="45.50864" lon="4.72202">
        <ele>443</ele>
        <time>2018-08-15T07:02:58.269Z</time>
      </trkpt>
      <trkpt lat="45.50861" lon="4.72205">
        <ele>443</ele>
        <time>2018-08-15T07:02:59.261Z</time>
      </trkpt>
      <trkpt lat="45.50861" lon="4.72205">
        <ele>443</ele>
        <time>2018-08-15T07:03:00.266Z</time>
      </trkpt>
      <trkpt lat="45.50855" lon="4.7221">
        <ele>443</ele>
        <time>2018-08-15T07:03:01.269Z</time>
      </trkpt>
      <trkpt lat="45.50853" lon="4.72213">
        <ele>443</ele>
        <time>2018-08-15T07:03:02.262Z</time>
      </trkpt>
      <trkpt lat="45.50853" lon="4.72213">
        <ele>443</ele>
        <time>2018-08-15T07:03:03.268Z</time>
      </trkpt>
      <trkpt lat="45.50847" lon="4.72217">
        <ele>443</ele>
        <time>2018-08-15T07:03:04.264Z</time>
      </trkpt>
      <trkpt lat="45.50847" lon="4.72217">
        <ele>443</ele>
        <time>2018-08-15T07:03:05.270Z</time>
      </trkpt>
      <trkpt lat="45.50841" lon="4.72221">
        <ele>443</ele>
        <time>2018-08-15T07:03:06.263Z</time>
      </trkpt>
      <trkpt lat="45.50841" lon="4.72221">
        <ele>443</ele>
        <time>2018-08-15T07:03:07.269Z</time>
      </trkpt>
      <trkpt lat="45.50835" lon="4.72225">
        <ele>443</ele>
        <time>2018-08-15T07:03:08.263Z</time>
      </trkpt>
      <trkpt lat="45.50835" lon="4.72225">
        <ele>443</ele>
        <time>2018-08-15T07:03:09.268Z</time>
      </trkpt>
      <trkpt lat="45.50828" lon="4.72228">
        <ele>444</ele>
        <time>2018-08-15T07:03:10.255Z</time>
      </trkpt>
      <trkpt lat="45.50828" lon="4.72228">
        <ele>444</ele>
        <time>2018-08-15T07:03:11.261Z</time>
      </trkpt>
      <trkpt lat="45.50822" lon="4.72231">
        <ele>444</ele>
        <time>2018-08-15T07:03:12.257Z</time>
      </trkpt>
      <trkpt lat="45.50822" lon="4.72231">
        <ele>444</ele>
        <time>2018-08-15T07:03:13.262Z</time>
      </trkpt>
      <trkpt lat="45.50816" lon="4.72233">
        <ele>444</ele>
        <time>2018-08-15T07:03:14.256Z</time>
      </trkpt>
      <trkpt lat="45.50816" lon="4.72233">
        <ele>444</ele>
        <time>2018-08-15T07:03:15.262Z</time>
      </trkpt>
      <trkpt lat="45.50809" lon="4.72235">
        <ele>444</ele>
        <time>2018-08-15T07:03:16.253Z</time>
      </trkpt>
      <trkpt lat="45.50806" lon="4.72236">
        <ele>444</ele>
        <time>2018-08-15T07:03:17.242Z</time>
      </trkpt>
      <trkpt lat="45.50806" lon="4.72236">
        <ele>444</ele>
        <time>2018-08-15T07:03:18.248Z</time>
      </trkpt>
      <trkpt lat="45.50799" lon="4.72238">
        <ele>444</ele>
        <time>2018-08-15T07:03:19.242Z</time>
      </trkpt>
      <trkpt lat="45.50795" lon="4.72239">
        <ele>444</ele>
        <time>2018-08-15T07:03:20.241Z</time>
      </trkpt>
      <trkpt lat="45.50795" lon="4.72239">
        <ele>444</ele>
        <time>2018-08-15T07:03:21.246Z</time>
      </trkpt>
      <trkpt lat="45.50788" lon="4.72241">
        <ele>444</ele>
        <time>2018-08-15T07:03:22.237Z</time>
      </trkpt>
      <trkpt lat="45.50788" lon="4.72241">
        <ele>444</ele>
        <time>2018-08-15T07:03:23.242Z</time>
      </trkpt>
      <trkpt lat="45.50781" lon="4.72242">
        <ele>444</ele>
        <time>2018-08-15T07:03:24.243Z</time>
      </trkpt>
      <trkpt lat="45.50781" lon="4.72242">
        <ele>444</ele>
        <time>2018-08-15T07:03:25.249Z</time>
      </trkpt>
      <trkpt lat="45.50774" lon="4.72243">
        <ele>444</ele>
        <time>2018-08-15T07:03:26.235Z</time>
      </trkpt>
      <trkpt lat="45.50774" lon="4.72243">
        <ele>444</ele>
        <time>2018-08-15T07:03:27.241Z</time>
      </trkpt>
      <trkpt lat="45.50766" lon="4.72243">
        <ele>443</ele>
        <time>2018-08-15T07:03:28.238Z</time>
      </trkpt>
      <trkpt lat="45.50766" lon="4.72243">
        <ele>443</ele>
        <time>2018-08-15T07:03:29.243Z</time>
      </trkpt>
      <trkpt lat="45.50758" lon="4.72241">
        <ele>443</ele>
        <time>2018-08-15T07:03:30.271Z</time>
      </trkpt>
      <trkpt lat="45.50758" lon="4.72241">
        <ele>443</ele>
        <time>2018-08-15T07:03:31.240Z</time>
      </trkpt>
      <trkpt lat="45.5075" lon="4.72237">
        <ele>443</ele>
        <time>2018-08-15T07:03:32.260Z</time>
      </trkpt>
      <trkpt lat="45.5075" lon="4.72237">
        <ele>443</ele>
        <time>2018-08-15T07:03:33.266Z</time>
      </trkpt>
      <trkpt lat="45.50742" lon="4.72231">
        <ele>443</ele>
        <time>2018-08-15T07:03:34.246Z</time>
      </trkpt>
      <trkpt lat="45.50742" lon="4.72231">
        <ele>443</ele>
        <time>2018-08-15T07:03:35.251Z</time>
      </trkpt>
      <trkpt lat="45.50735" lon="4.72225">
        <ele>443</ele>
        <time>2018-08-15T07:03:36.250Z</time>
      </trkpt>
      <trkpt lat="45.50735" lon="4.72225">
        <ele>443</ele>
        <time>2018-08-15T07:03:37.269Z</time>
      </trkpt>
      <trkpt lat="45.50728" lon="4.72217">
        <ele>443</ele>
        <time>2018-08-15T07:03:38.233Z</time>
      </trkpt>
      <trkpt lat="45.50728" lon="4.72217">
        <ele>443</ele>
        <time>2018-08-15T07:03:39.239Z</time>
      </trkpt>
      <trkpt lat="45.50721" lon="4.72207">
        <ele>442</ele>
        <time>2018-08-15T07:03:40.265Z</time>
      </trkpt>
      <trkpt lat="45.50721" lon="4.72207">
        <ele>442</ele>
        <time>2018-08-15T07:03:41.271Z</time>
      </trkpt>
      <trkpt lat="45.50714" lon="4.72196">
        <ele>442</ele>
        <time>2018-08-15T07:03:42.254Z</time>
      </trkpt>
      <trkpt lat="45.50714" lon="4.72196">
        <ele>442</ele>
        <time>2018-08-15T07:03:43.251Z</time>
      </trkpt>
      <trkpt lat="45.50709" lon="4.72182">
        <ele>441</ele>
        <time>2018-08-15T07:03:44.250Z</time>
      </trkpt>
      <trkpt lat="45.50709" lon="4.72182">
        <ele>441</ele>
        <time>2018-08-15T07:03:45.256Z</time>
      </trkpt>
      <trkpt lat="45.50704" lon="4.72167">
        <ele>441</ele>
        <time>2018-08-15T07:03:46.243Z</time>
      </trkpt>
      <trkpt lat="45.50704" lon="4.72167">
        <ele>441</ele>
        <time>2018-08-15T07:03:47.248Z</time>
      </trkpt>
      <trkpt lat="45.507" lon="4.7215">
        <ele>440</ele>
        <time>2018-08-15T07:03:48.243Z</time>
      </trkpt>
      <trkpt lat="45.507" lon="4.7215">
        <ele>440</ele>
        <time>2018-08-15T07:03:49.248Z</time>
      </trkpt>
      <trkpt lat="45.50698" lon="4.72133">
        <ele>440</ele>
        <time>2018-08-15T07:03:50.235Z</time>
      </trkpt>
      <trkpt lat="45.50698" lon="4.72133">
        <ele>440</ele>
        <time>2018-08-15T07:03:51.242Z</time>
      </trkpt>
      <trkpt lat="45.50698" lon="4.72116">
        <ele>439</ele>
        <time>2018-08-15T07:03:52.266Z</time>
      </trkpt>
      <trkpt lat="45.50698" lon="4.72116">
        <ele>439</ele>
        <time>2018-08-15T07:03:53.234Z</time>
      </trkpt>
      <trkpt lat="45.50697" lon="4.72097">
        <ele>438</ele>
        <time>2018-08-15T07:03:54.269Z</time>
      </trkpt>
      <trkpt lat="45.50697" lon="4.72097">
        <ele>438</ele>
        <time>2018-08-15T07:03:55.235Z</time>
      </trkpt>
      <trkpt lat="45.50697" lon="4.72078">
        <ele>438</ele>
        <time>2018-08-15T07:03:56.268Z</time>
      </trkpt>
      <trkpt lat="45.50697" lon="4.72078">
        <ele>438</ele>
        <time>2018-08-15T07:03:57.238Z</time>
      </trkpt>
      <trkpt lat="45.50696" lon="4.72059">
        <ele>437</ele>
        <time>2018-08-15T07:03:58.241Z</time>
      </trkpt>
      <trkpt lat="45.50696" lon="4.72048">
        <ele>437</ele>
        <time>2018-08-15T07:03:59.251Z</time>
      </trkpt>
      <trkpt lat="45.50696" lon="4.72048">
        <ele>437</ele>
        <time>2018-08-15T07:04:00.257Z</time>
      </trkpt>
      <trkpt lat="45.50697" lon="4.72026">
        <ele>436</ele>
        <time>2018-08-15T07:04:01.255Z</time>
      </trkpt>
      <trkpt lat="45.50696" lon="4.72016">
        <ele>436</ele>
        <time>2018-08-15T07:04:02.242Z</time>
      </trkpt>
      <trkpt lat="45.50696" lon="4.72016">
        <ele>436</ele>
        <time>2018-08-15T07:04:03.247Z</time>
      </trkpt>
      <trkpt lat="45.50692" lon="4.71997">
        <ele>436</ele>
        <time>2018-08-15T07:04:04.254Z</time>
      </trkpt>
      <trkpt lat="45.50692" lon="4.71997">
        <ele>436</ele>
        <time>2018-08-15T07:04:05.259Z</time>
      </trkpt>
      <trkpt lat="45.50683" lon="4.71984">
        <ele>436</ele>
        <time>2018-08-15T07:04:06.253Z</time>
      </trkpt>
      <trkpt lat="45.50683" lon="4.71984">
        <ele>436</ele>
        <time>2018-08-15T07:04:07.259Z</time>
      </trkpt>
      <trkpt lat="45.50674" lon="4.71982">
        <ele>436</ele>
        <time>2018-08-15T07:04:08.253Z</time>
      </trkpt>
      <trkpt lat="45.50674" lon="4.71982">
        <ele>436</ele>
        <time>2018-08-15T07:04:09.260Z</time>
      </trkpt>
      <trkpt lat="45.50665" lon="4.71985">
        <ele>436</ele>
        <time>2018-08-15T07:04:10.248Z</time>
      </trkpt>
      <trkpt lat="45.50665" lon="4.71985">
        <ele>436</ele>
        <time>2018-08-15T07:04:11.254Z</time>
      </trkpt>
      <trkpt lat="45.50657" lon="4.71989">
        <ele>437</ele>
        <time>2018-08-15T07:04:12.239Z</time>
      </trkpt>
      <trkpt lat="45.50654" lon="4.71992">
        <ele>437</ele>
        <time>2018-08-15T07:04:13.265Z</time>
      </trkpt>
      <trkpt lat="45.5065" lon="4.71994">
        <ele>437</ele>
        <time>2018-08-15T07:04:14.261Z</time>
      </trkpt>
      <trkpt lat="45.5065" lon="4.71994">
        <ele>437</ele>
        <time>2018-08-15T07:04:15.267Z</time>
      </trkpt>
      <trkpt lat="45.50644" lon="4.71999">
        <ele>437</ele>
        <time>2018-08-15T07:04:16.267Z</time>
      </trkpt>
      <trkpt lat="45.50644" lon="4.71999">
        <ele>437</ele>
        <time>2018-08-15T07:04:17.235Z</time>
      </trkpt>
      <trkpt lat="45.50638" lon="4.72003">
        <ele>437</ele>
        <time>2018-08-15T07:04:18.261Z</time>
      </trkpt>
      <trkpt lat="45.50635" lon="4.72005">
        <ele>438</ele>
        <time>2018-08-15T07:04:19.233Z</time>
      </trkpt>
      <trkpt lat="45.50633" lon="4.72007">
        <ele>438</ele>
        <time>2018-08-15T07:04:20.258Z</time>
      </trkpt>
      <trkpt lat="45.50633" lon="4.72007">
        <ele>438</ele>
        <time>2018-08-15T07:04:21.263Z</time>
      </trkpt>
      <trkpt lat="45.50627" lon="4.7201">
        <ele>438</ele>
        <time>2018-08-15T07:04:22.246Z</time>
      </trkpt>
      <trkpt lat="45.50627" lon="4.7201">
        <ele>438</ele>
        <time>2018-08-15T07:04:23.251Z</time>
      </trkpt>
      <trkpt lat="45.50621" lon="4.72013">
        <ele>438</ele>
        <time>2018-08-15T07:04:24.233Z</time>
      </trkpt>
      <trkpt lat="45.50621" lon="4.72013">
        <ele>438</ele>
        <time>2018-08-15T07:04:25.240Z</time>
      </trkpt>
      <trkpt lat="45.50616" lon="4.72016">
        <ele>439</ele>
        <time>2018-08-15T07:04:26.259Z</time>
      </trkpt>
      <trkpt lat="45.50616" lon="4.72016">
        <ele>439</ele>
        <time>2018-08-15T07:04:27.264Z</time>
      </trkpt>
      <trkpt lat="45.5061" lon="4.72019">
        <ele>439</ele>
        <time>2018-08-15T07:04:28.260Z</time>
      </trkpt>
      <trkpt lat="45.5061" lon="4.72019">
        <ele>439</ele>
        <time>2018-08-15T07:04:29.266Z</time>
      </trkpt>
      <trkpt lat="45.50604" lon="4.72021">
        <ele>439</ele>
        <time>2018-08-15T07:04:30.259Z</time>
      </trkpt>
      <trkpt lat="45.50601" lon="4.72022">
        <ele>440</ele>
        <time>2018-08-15T07:04:31.261Z</time>
      </trkpt>
      <trkpt lat="45.50597" lon="4.72023">
        <ele>440</ele>
        <time>2018-08-15T07:04:32.242Z</time>
      </trkpt>
      <trkpt lat="45.50597" lon="4.72023">
        <ele>440</ele>
        <time>2018-08-15T07:04:33.248Z</time>
      </trkpt>
      <trkpt lat="45.50589" lon="4.72024">
        <ele>440</ele>
        <time>2018-08-15T07:04:34.232Z</time>
      </trkpt>
      <trkpt lat="45.50589" lon="4.72024">
        <ele>440</ele>
        <time>2018-08-15T07:04:35.241Z</time>
      </trkpt>
      <trkpt lat="45.50582" lon="4.72024">
        <ele>439</ele>
        <time>2018-08-15T07:04:36.237Z</time>
      </trkpt>
      <trkpt lat="45.50582" lon="4.72024">
        <ele>439</ele>
        <time>2018-08-15T07:04:37.266Z</time>
      </trkpt>
      <trkpt lat="45.50575" lon="4.72024">
        <ele>440</ele>
        <time>2018-08-15T07:04:38.246Z</time>
      </trkpt>
      <trkpt lat="45.50575" lon="4.72024">
        <ele>440</ele>
        <time>2018-08-15T07:04:39.252Z</time>
      </trkpt>
      <trkpt lat="45.50569" lon="4.72023">
        <ele>440</ele>
        <time>2018-08-15T07:04:40.243Z</time>
      </trkpt>
      <trkpt lat="45.50569" lon="4.72023">
        <ele>440</ele>
        <time>2018-08-15T07:04:41.248Z</time>
      </trkpt>
      <trkpt lat="45.50562" lon="4.72022">
        <ele>440</ele>
        <time>2018-08-15T07:04:42.235Z</time>
      </trkpt>
      <trkpt lat="45.50562" lon="4.72022">
        <ele>440</ele>
        <time>2018-08-15T07:04:43.240Z</time>
      </trkpt>
      <trkpt lat="45.50555" lon="4.7202">
        <ele>440</ele>
        <time>2018-08-15T07:04:44.266Z</time>
      </trkpt>
      <trkpt lat="45.50555" lon="4.7202">
        <ele>440</ele>
        <time>2018-08-15T07:04:45.271Z</time>
      </trkpt>
      <trkpt lat="45.50548" lon="4.72017">
        <ele>440</ele>
        <time>2018-08-15T07:04:46.263Z</time>
      </trkpt>
      <trkpt lat="45.50548" lon="4.72017">
        <ele>440</ele>
        <time>2018-08-15T07:04:47.268Z</time>
      </trkpt>
      <trkpt lat="45.50542" lon="4.72012">
        <ele>440</ele>
        <time>2018-08-15T07:04:48.264Z</time>
      </trkpt>
      <trkpt lat="45.50542" lon="4.72012">
        <ele>440</ele>
        <time>2018-08-15T07:04:49.269Z</time>
      </trkpt>
      <trkpt lat="45.50536" lon="4.72006">
        <ele>440</ele>
        <time>2018-08-15T07:04:50.268Z</time>
      </trkpt>
      <trkpt lat="45.50536" lon="4.72006">
        <ele>440</ele>
        <time>2018-08-15T07:04:51.238Z</time>
      </trkpt>
      <trkpt lat="45.50531" lon="4.71999">
        <ele>441</ele>
        <time>2018-08-15T07:04:52.268Z</time>
      </trkpt>
      <trkpt lat="45.50531" lon="4.71999">
        <ele>441</ele>
        <time>2018-08-15T07:04:53.239Z</time>
      </trkpt>
      <trkpt lat="45.50527" lon="4.71991">
        <ele>441</ele>
        <time>2018-08-15T07:04:54.269Z</time>
      </trkpt>
      <trkpt lat="45.50526" lon="4.71987">
        <ele>441</ele>
        <time>2018-08-15T07:04:55.253Z</time>
      </trkpt>
      <trkpt lat="45.50525" lon="4.71983">
        <ele>441</ele>
        <time>2018-08-15T07:04:56.242Z</time>
      </trkpt>
      <trkpt lat="45.50525" lon="4.71983">
        <ele>441</ele>
        <time>2018-08-15T07:04:57.247Z</time>
      </trkpt>
      <trkpt lat="45.50522" lon="4.71974">
        <ele>441</ele>
        <time>2018-08-15T07:04:58.237Z</time>
      </trkpt>
      <trkpt lat="45.50522" lon="4.71974">
        <ele>441</ele>
        <time>2018-08-15T07:04:59.245Z</time>
      </trkpt>
      <trkpt lat="45.50518" lon="4.71965">
        <ele>441</ele>
        <time>2018-08-15T07:05:00.233Z</time>
      </trkpt>
      <trkpt lat="45.50517" lon="4.71961">
        <ele>441</ele>
        <time>2018-08-15T07:05:01.239Z</time>
      </trkpt>
      <trkpt lat="45.50517" lon="4.71961">
        <ele>441</ele>
        <time>2018-08-15T07:05:02.244Z</time>
      </trkpt>
      <trkpt lat="45.50513" lon="4.71953">
        <ele>441</ele>
        <time>2018-08-15T07:05:03.252Z</time>
      </trkpt>
      <trkpt lat="45.50513" lon="4.71953">
        <ele>441</ele>
        <time>2018-08-15T07:05:04.258Z</time>
      </trkpt>
      <trkpt lat="45.50508" lon="4.71945">
        <ele>441</ele>
        <time>2018-08-15T07:05:05.248Z</time>
      </trkpt>
      <trkpt lat="45.50508" lon="4.71945">
        <ele>441</ele>
        <time>2018-08-15T07:05:06.253Z</time>
      </trkpt>
      <trkpt lat="45.50503" lon="4.71939">
        <ele>441</ele>
        <time>2018-08-15T07:05:07.237Z</time>
      </trkpt>
      <trkpt lat="45.505" lon="4.71936">
        <ele>441</ele>
        <time>2018-08-15T07:05:08.271Z</time>
      </trkpt>
      <trkpt lat="45.505" lon="4.71936">
        <ele>441</ele>
        <time>2018-08-15T07:05:09.237Z</time>
      </trkpt>
      <trkpt lat="45.50494" lon="4.71932">
        <ele>441</ele>
        <time>2018-08-15T07:05:10.269Z</time>
      </trkpt>
      <trkpt lat="45.50494" lon="4.71932">
        <ele>441</ele>
        <time>2018-08-15T07:05:11.239Z</time>
      </trkpt>
      <trkpt lat="45.50488" lon="4.71929">
        <ele>441</ele>
        <time>2018-08-15T07:05:12.233Z</time>
      </trkpt>
      <trkpt lat="45.50488" lon="4.71929">
        <ele>441</ele>
        <time>2018-08-15T07:05:13.240Z</time>
      </trkpt>
      <trkpt lat="45.5048" lon="4.71927">
        <ele>441</ele>
        <time>2018-08-15T07:05:14.262Z</time>
      </trkpt>
      <trkpt lat="45.5048" lon="4.71927">
        <ele>441</ele>
        <time>2018-08-15T07:05:15.268Z</time>
      </trkpt>
      <trkpt lat="45.50473" lon="4.71928">
        <ele>441</ele>
        <time>2018-08-15T07:05:16.261Z</time>
      </trkpt>
      <trkpt lat="45.50473" lon="4.71928">
        <ele>441</ele>
        <time>2018-08-15T07:05:17.267Z</time>
      </trkpt>
      <trkpt lat="45.50467" lon="4.7193">
        <ele>441</ele>
        <time>2018-08-15T07:05:18.270Z</time>
      </trkpt>
      <trkpt lat="45.50467" lon="4.7193">
        <ele>441</ele>
        <time>2018-08-15T07:05:19.236Z</time>
      </trkpt>
      <trkpt lat="45.50461" lon="4.71933">
        <ele>441</ele>
        <time>2018-08-15T07:05:20.267Z</time>
      </trkpt>
      <trkpt lat="45.50461" lon="4.71933">
        <ele>441</ele>
        <time>2018-08-15T07:05:21.235Z</time>
      </trkpt>
      <trkpt lat="45.50457" lon="4.71938">
        <ele>442</ele>
        <time>2018-08-15T07:05:22.258Z</time>
      </trkpt>
      <trkpt lat="45.50457" lon="4.71938">
        <ele>442</ele>
        <time>2018-08-15T07:05:23.263Z</time>
      </trkpt>
      <trkpt lat="45.50452" lon="4.71943">
        <ele>442</ele>
        <time>2018-08-15T07:05:24.254Z</time>
      </trkpt>
      <trkpt lat="45.50452" lon="4.71943">
        <ele>442</ele>
        <time>2018-08-15T07:05:25.259Z</time>
      </trkpt>
      <trkpt lat="45.50446" lon="4.71948">
        <ele>442</ele>
        <time>2018-08-15T07:05:26.244Z</time>
      </trkpt>
      <trkpt lat="45.50443" lon="4.71951">
        <ele>442</ele>
        <time>2018-08-15T07:05:27.244Z</time>
      </trkpt>
      <trkpt lat="45.50443" lon="4.71951">
        <ele>442</ele>
        <time>2018-08-15T07:05:28.249Z</time>
      </trkpt>
      <trkpt lat="45.50437" lon="4.71957">
        <ele>443</ele>
        <time>2018-08-15T07:05:29.244Z</time>
      </trkpt>
      <trkpt lat="45.50437" lon="4.71957">
        <ele>443</ele>
        <time>2018-08-15T07:05:30.250Z</time>
      </trkpt>
      <trkpt lat="45.50432" lon="4.71962">
        <ele>444</ele>
        <time>2018-08-15T07:05:31.237Z</time>
      </trkpt>
      <trkpt lat="45.50429" lon="4.71964">
        <ele>444</ele>
        <time>2018-08-15T07:05:32.260Z</time>
      </trkpt>
      <trkpt lat="45.50429" lon="4.71964">
        <ele>444</ele>
        <time>2018-08-15T07:05:33.266Z</time>
      </trkpt>
      <trkpt lat="45.50424" lon="4.71968">
        <ele>445</ele>
        <time>2018-08-15T07:05:34.256Z</time>
      </trkpt>
      <trkpt lat="45.50421" lon="4.7197">
        <ele>445</ele>
        <time>2018-08-15T07:05:35.244Z</time>
      </trkpt>
      <trkpt lat="45.50421" lon="4.7197">
        <ele>445</ele>
        <time>2018-08-15T07:05:36.262Z</time>
      </trkpt>
      <trkpt lat="45.50415" lon="4.71974">
        <ele>445</ele>
        <time>2018-08-15T07:05:37.248Z</time>
      </trkpt>
      <trkpt lat="45.50412" lon="4.71976">
        <ele>446</ele>
        <time>2018-08-15T07:05:38.251Z</time>
      </trkpt>
      <trkpt lat="45.50412" lon="4.71976">
        <ele>446</ele>
        <time>2018-08-15T07:05:39.257Z</time>
      </trkpt>
      <trkpt lat="45.50405" lon="4.7198">
        <ele>447</ele>
        <time>2018-08-15T07:05:40.246Z</time>
      </trkpt>
      <trkpt lat="45.50405" lon="4.7198">
        <ele>447</ele>
        <time>2018-08-15T07:05:41.251Z</time>
      </trkpt>
      <trkpt lat="45.50398" lon="4.71983">
        <ele>448</ele>
        <time>2018-08-15T07:05:42.239Z</time>
      </trkpt>
      <trkpt lat="45.50395" lon="4.71983">
        <ele>448</ele>
        <time>2018-08-15T07:05:43.235Z</time>
      </trkpt>
      <trkpt lat="45.50391" lon="4.71983">
        <ele>448</ele>
        <time>2018-08-15T07:05:44.259Z</time>
      </trkpt>
      <trkpt lat="45.50391" lon="4.71983">
        <ele>448</ele>
        <time>2018-08-15T07:05:45.265Z</time>
      </trkpt>
      <trkpt lat="45.50383" lon="4.71984">
        <ele>449</ele>
        <time>2018-08-15T07:05:46.255Z</time>
      </trkpt>
      <trkpt lat="45.50383" lon="4.71984">
        <ele>449</ele>
        <time>2018-08-15T07:05:47.262Z</time>
      </trkpt>
      <trkpt lat="45.50375" lon="4.71982">
        <ele>448</ele>
        <time>2018-08-15T07:05:48.250Z</time>
      </trkpt>
      <trkpt lat="45.50375" lon="4.71982">
        <ele>448</ele>
        <time>2018-08-15T07:05:49.256Z</time>
      </trkpt>
      <trkpt lat="45.50369" lon="4.71979">
        <ele>449</ele>
        <time>2018-08-15T07:05:50.265Z</time>
      </trkpt>
      <trkpt lat="45.50369" lon="4.71979">
        <ele>449</ele>
        <time>2018-08-15T07:05:51.270Z</time>
      </trkpt>
      <trkpt lat="45.50363" lon="4.71974">
        <ele>449</ele>
        <time>2018-08-15T07:05:52.239Z</time>
      </trkpt>
      <trkpt lat="45.50363" lon="4.71974">
        <ele>449</ele>
        <time>2018-08-15T07:05:53.244Z</time>
      </trkpt>
      <trkpt lat="45.50358" lon="4.71968">
        <ele>449</ele>
        <time>2018-08-15T07:05:54.238Z</time>
      </trkpt>
      <trkpt lat="45.50358" lon="4.71968">
        <ele>449</ele>
        <time>2018-08-15T07:05:55.243Z</time>
      </trkpt>
      <trkpt lat="45.50354" lon="4.7196">
        <ele>449</ele>
        <time>2018-08-15T07:05:56.241Z</time>
      </trkpt>
      <trkpt lat="45.50354" lon="4.7196">
        <ele>449</ele>
        <time>2018-08-15T07:05:57.246Z</time>
      </trkpt>
      <trkpt lat="45.5035" lon="4.7195">
        <ele>449</ele>
        <time>2018-08-15T07:05:58.254Z</time>
      </trkpt>
      <trkpt lat="45.5035" lon="4.7195">
        <ele>449</ele>
        <time>2018-08-15T07:05:59.259Z</time>
      </trkpt>
      <trkpt lat="45.50347" lon="4.71939">
        <ele>449</ele>
        <time>2018-08-15T07:06:00.267Z</time>
      </trkpt>
      <trkpt lat="45.50347" lon="4.71939">
        <ele>449</ele>
        <time>2018-08-15T07:06:01.232Z</time>
      </trkpt>
      <trkpt lat="45.50345" lon="4.71928">
        <ele>449</ele>
        <time>2018-08-15T07:06:02.260Z</time>
      </trkpt>
      <trkpt lat="45.50345" lon="4.71928">
        <ele>449</ele>
        <time>2018-08-15T07:06:03.265Z</time>
      </trkpt>
      <trkpt lat="45.50343" lon="4.71915">
        <ele>449</ele>
        <time>2018-08-15T07:06:04.248Z</time>
      </trkpt>
      <trkpt lat="45.50343" lon="4.71915">
        <ele>449</ele>
        <time>2018-08-15T07:06:05.253Z</time>
      </trkpt>
      <trkpt lat="45.5034" lon="4.719">
        <ele>448</ele>
        <time>2018-08-15T07:06:06.249Z</time>
      </trkpt>
      <trkpt lat="45.50339" lon="4.71892">
        <ele>448</ele>
        <time>2018-08-15T07:06:07.234Z</time>
      </trkpt>
      <trkpt lat="45.50339" lon="4.71892">
        <ele>448</ele>
        <time>2018-08-15T07:06:08.241Z</time>
      </trkpt>
      <trkpt lat="45.50337" lon="4.71876">
        <ele>447</ele>
        <time>2018-08-15T07:06:09.271Z</time>
      </trkpt>
      <trkpt lat="45.50337" lon="4.71876">
        <ele>447</ele>
        <time>2018-08-15T07:06:10.238Z</time>
      </trkpt>
      <trkpt lat="45.50337" lon="4.71858">
        <ele>446</ele>
        <time>2018-08-15T07:06:11.263Z</time>
      </trkpt>
      <trkpt lat="45.50337" lon="4.71858">
        <ele>446</ele>
        <time>2018-08-15T07:06:12.269Z</time>
      </trkpt>
      <trkpt lat="45.50337" lon="4.71838">
        <ele>446</ele>
        <time>2018-08-15T07:06:13.253Z</time>
      </trkpt>
      <trkpt lat="45.50336" lon="4.71829">
        <ele>446</ele>
        <time>2018-08-15T07:06:14.252Z</time>
      </trkpt>
      <trkpt lat="45.50336" lon="4.71829">
        <ele>446</ele>
        <time>2018-08-15T07:06:15.258Z</time>
      </trkpt>
      <trkpt lat="45.50329" lon="4.71813">
        <ele>445</ele>
        <time>2018-08-15T07:06:16.254Z</time>
      </trkpt>
      <trkpt lat="45.50329" lon="4.71813">
        <ele>445</ele>
        <time>2018-08-15T07:06:17.247Z</time>
      </trkpt>
      <trkpt lat="45.50317" lon="4.71809">
        <ele>444</ele>
        <time>2018-08-15T07:06:18.238Z</time>
      </trkpt>
      <trkpt lat="45.50317" lon="4.71809">
        <ele>444</ele>
        <time>2018-08-15T07:06:19.244Z</time>
      </trkpt>
      <trkpt lat="45.50305" lon="4.71813">
        <ele>444</ele>
        <time>2018-08-15T07:06:20.235Z</time>
      </trkpt>
      <trkpt lat="45.50305" lon="4.71813">
        <ele>444</ele>
        <time>2018-08-15T07:06:21.240Z</time>
      </trkpt>
      <trkpt lat="45.50297" lon="4.71821">
        <ele>443</ele>
        <time>2018-08-15T07:06:22.266Z</time>
      </trkpt>
      <trkpt lat="45.50297" lon="4.71821">
        <ele>443</ele>
        <time>2018-08-15T07:06:23.232Z</time>
      </trkpt>
      <trkpt lat="45.50289" lon="4.71829">
        <ele>443</ele>
        <time>2018-08-15T07:06:24.270Z</time>
      </trkpt>
      <trkpt lat="45.50289" lon="4.71829">
        <ele>443</ele>
        <time>2018-08-15T07:06:25.243Z</time>
      </trkpt>
      <trkpt lat="45.5028" lon="4.71836">
        <ele>442</ele>
        <time>2018-08-15T07:06:26.263Z</time>
      </trkpt>
      <trkpt lat="45.5028" lon="4.71836">
        <ele>442</ele>
        <time>2018-08-15T07:06:27.269Z</time>
      </trkpt>
      <trkpt lat="45.50272" lon="4.71843">
        <ele>442</ele>
        <time>2018-08-15T07:06:28.253Z</time>
      </trkpt>
      <trkpt lat="45.50272" lon="4.71843">
        <ele>442</ele>
        <time>2018-08-15T07:06:29.259Z</time>
      </trkpt>
      <trkpt lat="45.50263" lon="4.71849">
        <ele>442</ele>
        <time>2018-08-15T07:06:30.263Z</time>
      </trkpt>
      <trkpt lat="45.50259" lon="4.71852">
        <ele>442</ele>
        <time>2018-08-15T07:06:31.246Z</time>
      </trkpt>
      <trkpt lat="45.50254" lon="4.71855">
        <ele>442</ele>
        <time>2018-08-15T07:06:32.250Z</time>
      </trkpt>
      <trkpt lat="45.50254" lon="4.71855">
        <ele>442</ele>
        <time>2018-08-15T07:06:33.270Z</time>
      </trkpt>
      <trkpt lat="45.50245" lon="4.71858">
        <ele>442</ele>
        <time>2018-08-15T07:06:34.261Z</time>
      </trkpt>
      <trkpt lat="45.50241" lon="4.7186">
        <ele>442</ele>
        <time>2018-08-15T07:06:35.248Z</time>
      </trkpt>
      <trkpt lat="45.50241" lon="4.7186">
        <ele>442</ele>
        <time>2018-08-15T07:06:36.262Z</time>
      </trkpt>
      <trkpt lat="45.50232" lon="4.71861">
        <ele>442</ele>
        <time>2018-08-15T07:06:37.258Z</time>
      </trkpt>
      <trkpt lat="45.50228" lon="4.71859">
        <ele>442</ele>
        <time>2018-08-15T07:06:38.243Z</time>
      </trkpt>
      <trkpt lat="45.50228" lon="4.71859">
        <ele>442</ele>
        <time>2018-08-15T07:06:39.248Z</time>
      </trkpt>
      <trkpt lat="45.50219" lon="4.71856">
        <ele>442</ele>
        <time>2018-08-15T07:06:40.244Z</time>
      </trkpt>
      <trkpt lat="45.50219" lon="4.71856">
        <ele>442</ele>
        <time>2018-08-15T07:06:41.249Z</time>
      </trkpt>
      <trkpt lat="45.50211" lon="4.71852">
        <ele>443</ele>
        <time>2018-08-15T07:06:42.244Z</time>
      </trkpt>
      <trkpt lat="45.50211" lon="4.71852">
        <ele>443</ele>
        <time>2018-08-15T07:06:43.249Z</time>
      </trkpt>
      <trkpt lat="45.50203" lon="4.71846">
        <ele>443</ele>
        <time>2018-08-15T07:06:44.236Z</time>
      </trkpt>
      <trkpt lat="45.50203" lon="4.71846">
        <ele>443</ele>
        <time>2018-08-15T07:06:45.241Z</time>
      </trkpt>
      <trkpt lat="45.50196" lon="4.71839">
        <ele>443</ele>
        <time>2018-08-15T07:06:46.233Z</time>
      </trkpt>
      <trkpt lat="45.50196" lon="4.71839">
        <ele>443</ele>
        <time>2018-08-15T07:06:47.240Z</time>
      </trkpt>
      <trkpt lat="45.50189" lon="4.71831">
        <ele>443</ele>
        <time>2018-08-15T07:06:48.256Z</time>
      </trkpt>
      <trkpt lat="45.50189" lon="4.71831">
        <ele>443</ele>
        <time>2018-08-15T07:06:49.262Z</time>
      </trkpt>
      <trkpt lat="45.50183" lon="4.71821">
        <ele>443</ele>
        <time>2018-08-15T07:06:50.255Z</time>
      </trkpt>
      <trkpt lat="45.50183" lon="4.71821">
        <ele>443</ele>
        <time>2018-08-15T07:06:51.238Z</time>
      </trkpt>
      <trkpt lat="45.50175" lon="4.71812">
        <ele>443</ele>
        <time>2018-08-15T07:06:52.234Z</time>
      </trkpt>
      <trkpt lat="45.50175" lon="4.71812">
        <ele>443</ele>
        <time>2018-08-15T07:06:53.239Z</time>
      </trkpt>
      <trkpt lat="45.50167" lon="4.71803">
        <ele>443</ele>
        <time>2018-08-15T07:06:54.258Z</time>
      </trkpt>
      <trkpt lat="45.50167" lon="4.71803">
        <ele>443</ele>
        <time>2018-08-15T07:06:55.264Z</time>
      </trkpt>
      <trkpt lat="45.50159" lon="4.71794">
        <ele>443</ele>
        <time>2018-08-15T07:06:56.249Z</time>
      </trkpt>
      <trkpt lat="45.50159" lon="4.71794">
        <ele>443</ele>
        <time>2018-08-15T07:06:57.254Z</time>
      </trkpt>
      <trkpt lat="45.5015" lon="4.7179">
        <ele>443</ele>
        <time>2018-08-15T07:06:58.239Z</time>
      </trkpt>
      <trkpt lat="45.5015" lon="4.7179">
        <ele>443</ele>
        <time>2018-08-15T07:06:59.244Z</time>
      </trkpt>
      <trkpt lat="45.50141" lon="4.71794">
        <ele>445</ele>
        <time>2018-08-15T07:07:00.270Z</time>
      </trkpt>
      <trkpt lat="45.50141" lon="4.71794">
        <ele>445</ele>
        <time>2018-08-15T07:07:01.235Z</time>
      </trkpt>
      <trkpt lat="45.50135" lon="4.71803">
        <ele>446</ele>
        <time>2018-08-15T07:07:02.241Z</time>
      </trkpt>
      <trkpt lat="45.50135" lon="4.71803">
        <ele>446</ele>
        <time>2018-08-15T07:07:03.247Z</time>
      </trkpt>
      <trkpt lat="45.50132" lon="4.71813">
        <ele>446</ele>
        <time>2018-08-15T07:07:04.263Z</time>
      </trkpt>
      <trkpt lat="45.50132" lon="4.71813">
        <ele>446</ele>
        <time>2018-08-15T07:07:05.268Z</time>
      </trkpt>
      <trkpt lat="45.50129" lon="4.71824">
        <ele>447</ele>
        <time>2018-08-15T07:07:06.263Z</time>
      </trkpt>
      <trkpt lat="45.50129" lon="4.71824">
        <ele>447</ele>
        <time>2018-08-15T07:07:07.268Z</time>
      </trkpt>
      <trkpt lat="45.50128" lon="4.71835">
        <ele>449</ele>
        <time>2018-08-15T07:07:08.261Z</time>
      </trkpt>
      <trkpt lat="45.50128" lon="4.71835">
        <ele>449</ele>
        <time>2018-08-15T07:07:09.266Z</time>
      </trkpt>
      <trkpt lat="45.50128" lon="4.71844">
        <ele>449</ele>
        <time>2018-08-15T07:07:10.263Z</time>
      </trkpt>
      <trkpt lat="45.50129" lon="4.71848">
        <ele>450</ele>
        <time>2018-08-15T07:07:11.256Z</time>
      </trkpt>
      <trkpt lat="45.50129" lon="4.71848">
        <ele>450</ele>
        <time>2018-08-15T07:07:12.261Z</time>
      </trkpt>
      <trkpt lat="45.50126" lon="4.71857">
        <ele>451</ele>
        <time>2018-08-15T07:07:13.255Z</time>
      </trkpt>
      <trkpt lat="45.50126" lon="4.71862">
        <ele>452</ele>
        <time>2018-08-15T07:07:14.238Z</time>
      </trkpt>
      <trkpt lat="45.50126" lon="4.71862">
        <ele>452</ele>
        <time>2018-08-15T07:07:15.245Z</time>
      </trkpt>
      <trkpt lat="45.50124" lon="4.7187">
        <ele>453</ele>
        <time>2018-08-15T07:07:16.247Z</time>
      </trkpt>
      <trkpt lat="45.50124" lon="4.7187">
        <ele>453</ele>
        <time>2018-08-15T07:07:17.252Z</time>
      </trkpt>
      <trkpt lat="45.50121" lon="4.71879">
        <ele>455</ele>
        <time>2018-08-15T07:07:18.270Z</time>
      </trkpt>
      <trkpt lat="45.50121" lon="4.71879">
        <ele>455</ele>
        <time>2018-08-15T07:07:19.238Z</time>
      </trkpt>
      <trkpt lat="45.50118" lon="4.71888">
        <ele>456</ele>
        <time>2018-08-15T07:07:20.261Z</time>
      </trkpt>
      <trkpt lat="45.50118" lon="4.71888">
        <ele>456</ele>
        <time>2018-08-15T07:07:21.266Z</time>
      </trkpt>
      <trkpt lat="45.50115" lon="4.71895">
        <ele>457</ele>
        <time>2018-08-15T07:07:22.254Z</time>
      </trkpt>
      <trkpt lat="45.50115" lon="4.71895">
        <ele>457</ele>
        <time>2018-08-15T07:07:23.259Z</time>
      </trkpt>
      <trkpt lat="45.50114" lon="4.71902">
        <ele>459</ele>
        <time>2018-08-15T07:07:24.255Z</time>
      </trkpt>
      <trkpt lat="45.50114" lon="4.71902">
        <ele>459</ele>
        <time>2018-08-15T07:07:25.263Z</time>
      </trkpt>
      <trkpt lat="45.5011" lon="4.71906">
        <ele>460</ele>
        <time>2018-08-15T07:07:26.269Z</time>
      </trkpt>
      <trkpt lat="45.5011" lon="4.71906">
        <ele>460</ele>
        <time>2018-08-15T07:07:27.236Z</time>
      </trkpt>
      <trkpt lat="45.50104" lon="4.71909">
        <ele>460</ele>
        <time>2018-08-15T07:07:28.266Z</time>
      </trkpt>
      <trkpt lat="45.50104" lon="4.71909">
        <ele>460</ele>
        <time>2018-08-15T07:07:29.271Z</time>
      </trkpt>
      <trkpt lat="45.50098" lon="4.7191">
        <ele>460</ele>
        <time>2018-08-15T07:07:30.261Z</time>
      </trkpt>
      <trkpt lat="45.50098" lon="4.7191">
        <ele>460</ele>
        <time>2018-08-15T07:07:31.266Z</time>
      </trkpt>
      <trkpt lat="45.50093" lon="4.71911">
        <ele>460</ele>
        <time>2018-08-15T07:07:32.249Z</time>
      </trkpt>
      <trkpt lat="45.50093" lon="4.71911">
        <ele>460</ele>
        <time>2018-08-15T07:07:33.254Z</time>
      </trkpt>
      <trkpt lat="45.50086" lon="4.71911">
        <ele>459</ele>
        <time>2018-08-15T07:07:34.233Z</time>
      </trkpt>
      <trkpt lat="45.50086" lon="4.71911">
        <ele>459</ele>
        <time>2018-08-15T07:07:35.239Z</time>
      </trkpt>
      <trkpt lat="45.50079" lon="4.71912">
        <ele>459</ele>
        <time>2018-08-15T07:07:36.232Z</time>
      </trkpt>
      <trkpt lat="45.50079" lon="4.71912">
        <ele>459</ele>
        <time>2018-08-15T07:07:37.253Z</time>
      </trkpt>
      <trkpt lat="45.50072" lon="4.71915">
        <ele>459</ele>
        <time>2018-08-15T07:07:38.248Z</time>
      </trkpt>
      <trkpt lat="45.50072" lon="4.71915">
        <ele>459</ele>
        <time>2018-08-15T07:07:39.253Z</time>
      </trkpt>
      <trkpt lat="45.50066" lon="4.71919">
        <ele>459</ele>
        <time>2018-08-15T07:07:40.245Z</time>
      </trkpt>
      <trkpt lat="45.50066" lon="4.71919">
        <ele>459</ele>
        <time>2018-08-15T07:07:41.250Z</time>
      </trkpt>
      <trkpt lat="45.5006" lon="4.71926">
        <ele>459</ele>
        <time>2018-08-15T07:07:42.270Z</time>
      </trkpt>
      <trkpt lat="45.50057" lon="4.71929">
        <ele>459</ele>
        <time>2018-08-15T07:07:43.263Z</time>
      </trkpt>
      <trkpt lat="45.50057" lon="4.71929">
        <ele>459</ele>
        <time>2018-08-15T07:07:44.268Z</time>
      </trkpt>
      <trkpt lat="45.50051" lon="4.71936">
        <ele>459</ele>
        <time>2018-08-15T07:07:45.268Z</time>
      </trkpt>
      <trkpt lat="45.50051" lon="4.71936">
        <ele>459</ele>
        <time>2018-08-15T07:07:46.237Z</time>
      </trkpt>
      <trkpt lat="45.50048" lon="4.71942">
        <ele>459</ele>
        <time>2018-08-15T07:07:47.269Z</time>
      </trkpt>
      <trkpt lat="45.50048" lon="4.71942">
        <ele>459</ele>
        <time>2018-08-15T07:07:48.237Z</time>
      </trkpt>
      <trkpt lat="45.50046" lon="4.7195">
        <ele>460</ele>
        <time>2018-08-15T07:07:49.270Z</time>
      </trkpt>
      <trkpt lat="45.50046" lon="4.71954">
        <ele>460</ele>
        <time>2018-08-15T07:07:50.245Z</time>
      </trkpt>
      <trkpt lat="45.50046" lon="4.71954">
        <ele>460</ele>
        <time>2018-08-15T07:07:51.250Z</time>
      </trkpt>
      <trkpt lat="45.50047" lon="4.71963">
        <ele>461</ele>
        <time>2018-08-15T07:07:52.244Z</time>
      </trkpt>
      <trkpt lat="45.50047" lon="4.71963">
        <ele>461</ele>
        <time>2018-08-15T07:07:53.249Z</time>
      </trkpt>
      <trkpt lat="45.50047" lon="4.71972">
        <ele>461</ele>
        <time>2018-08-15T07:07:54.257Z</time>
      </trkpt>
      <trkpt lat="45.50047" lon="4.71972">
        <ele>461</ele>
        <time>2018-08-15T07:07:55.263Z</time>
      </trkpt>
      <trkpt lat="45.50047" lon="4.7198">
        <ele>462</ele>
        <time>2018-08-15T07:07:56.247Z</time>
      </trkpt>
      <trkpt lat="45.50047" lon="4.7198">
        <ele>462</ele>
        <time>2018-08-15T07:07:57.252Z</time>
      </trkpt>
      <trkpt lat="45.50046" lon="4.71989">
        <ele>463</ele>
        <time>2018-08-15T07:07:58.244Z</time>
      </trkpt>
      <trkpt lat="45.50046" lon="4.71989">
        <ele>463</ele>
        <time>2018-08-15T07:07:59.249Z</time>
      </trkpt>
      <trkpt lat="45.50047" lon="4.71999">
        <ele>464</ele>
        <time>2018-08-15T07:08:00.243Z</time>
      </trkpt>
      <trkpt lat="45.50047" lon="4.71999">
        <ele>464</ele>
        <time>2018-08-15T07:08:01.248Z</time>
      </trkpt>
      <trkpt lat="45.50049" lon="4.72009">
        <ele>465</ele>
        <time>2018-08-15T07:08:02.271Z</time>
      </trkpt>
      <trkpt lat="45.50049" lon="4.72009">
        <ele>465</ele>
        <time>2018-08-15T07:08:03.238Z</time>
      </trkpt>
      <trkpt lat="45.5005" lon="4.72018">
        <ele>466</ele>
        <time>2018-08-15T07:08:04.239Z</time>
      </trkpt>
      <trkpt lat="45.5005" lon="4.72018">
        <ele>466</ele>
        <time>2018-08-15T07:08:05.249Z</time>
      </trkpt>
      <trkpt lat="45.5005" lon="4.72028">
        <ele>467</ele>
        <time>2018-08-15T07:08:06.237Z</time>
      </trkpt>
      <trkpt lat="45.5005" lon="4.72028">
        <ele>467</ele>
        <time>2018-08-15T07:08:07.242Z</time>
      </trkpt>
      <trkpt lat="45.50049" lon="4.72038">
        <ele>467</ele>
        <time>2018-08-15T07:08:08.233Z</time>
      </trkpt>
      <trkpt lat="45.50049" lon="4.72038">
        <ele>467</ele>
        <time>2018-08-15T07:08:09.239Z</time>
      </trkpt>
      <trkpt lat="45.50046" lon="4.72047">
        <ele>468</ele>
        <time>2018-08-15T07:08:10.290Z</time>
      </trkpt>
      <trkpt lat="45.50046" lon="4.72047">
        <ele>468</ele>
        <time>2018-08-15T07:08:11.259Z</time>
      </trkpt>
      <trkpt lat="45.50043" lon="4.72055">
        <ele>468</ele>
        <time>2018-08-15T07:08:12.253Z</time>
      </trkpt>
      <trkpt lat="45.50043" lon="4.72055">
        <ele>468</ele>
        <time>2018-08-15T07:08:13.258Z</time>
      </trkpt>
      <trkpt lat="45.50038" lon="4.72062">
        <ele>468</ele>
        <time>2018-08-15T07:08:14.250Z</time>
      </trkpt>
      <trkpt lat="45.50036" lon="4.72066">
        <ele>468</ele>
        <time>2018-08-15T07:08:15.244Z</time>
      </trkpt>
      <trkpt lat="45.50034" lon="4.7207">
        <ele>468</ele>
        <time>2018-08-15T07:08:16.270Z</time>
      </trkpt>
      <trkpt lat="45.50034" lon="4.7207">
        <ele>468</ele>
        <time>2018-08-15T07:08:17.238Z</time>
      </trkpt>
      <trkpt lat="45.50029" lon="4.72077">
        <ele>469</ele>
        <time>2018-08-15T07:08:18.232Z</time>
      </trkpt>
      <trkpt lat="45.50029" lon="4.72077">
        <ele>469</ele>
        <time>2018-08-15T07:08:19.238Z</time>
      </trkpt>
      <trkpt lat="45.50025" lon="4.72084">
        <ele>470</ele>
        <time>2018-08-15T07:08:20.263Z</time>
      </trkpt>
      <trkpt lat="45.50025" lon="4.72084">
        <ele>470</ele>
        <time>2018-08-15T07:08:21.268Z</time>
      </trkpt>
      <trkpt lat="45.50021" lon="4.72092">
        <ele>470</ele>
        <time>2018-08-15T07:08:22.266Z</time>
      </trkpt>
      <trkpt lat="45.50021" lon="4.72092">
        <ele>470</ele>
        <time>2018-08-15T07:08:23.240Z</time>
      </trkpt>
      <trkpt lat="45.50017" lon="4.72099">
        <ele>470</ele>
        <time>2018-08-15T07:08:24.236Z</time>
      </trkpt>
      <trkpt lat="45.50017" lon="4.72099">
        <ele>470</ele>
        <time>2018-08-15T07:08:25.241Z</time>
      </trkpt>
      <trkpt lat="45.50012" lon="4.72105">
        <ele>471</ele>
        <time>2018-08-15T07:08:26.240Z</time>
      </trkpt>
      <trkpt lat="45.50012" lon="4.72105">
        <ele>471</ele>
        <time>2018-08-15T07:08:27.246Z</time>
      </trkpt>
      <trkpt lat="45.50008" lon="4.72112">
        <ele>471</ele>
        <time>2018-08-15T07:08:28.262Z</time>
      </trkpt>
      <trkpt lat="45.50008" lon="4.72112">
        <ele>471</ele>
        <time>2018-08-15T07:08:29.268Z</time>
      </trkpt>
      <trkpt lat="45.50003" lon="4.72119">
        <ele>471</ele>
        <time>2018-08-15T07:08:30.271Z</time>
      </trkpt>
      <trkpt lat="45.50001" lon="4.72123">
        <ele>470</ele>
        <time>2018-08-15T07:08:31.262Z</time>
      </trkpt>
      <trkpt lat="45.49999" lon="4.72127">
        <ele>469</ele>
        <time>2018-08-15T07:08:32.242Z</time>
      </trkpt>
      <trkpt lat="45.49999" lon="4.72127">
        <ele>469</ele>
        <time>2018-08-15T07:08:33.247Z</time>
      </trkpt>
      <trkpt lat="45.49993" lon="4.72134">
        <ele>468</ele>
        <time>2018-08-15T07:08:34.243Z</time>
      </trkpt>
      <trkpt lat="45.49993" lon="4.72134">
        <ele>468</ele>
        <time>2018-08-15T07:08:35.258Z</time>
      </trkpt>
      <trkpt lat="45.49988" lon="4.72142">
        <ele>468</ele>
        <time>2018-08-15T07:08:36.268Z</time>
      </trkpt>
      <trkpt lat="45.49988" lon="4.72142">
        <ele>468</ele>
        <time>2018-08-15T07:08:37.268Z</time>
      </trkpt>
      <trkpt lat="45.49982" lon="4.72149">
        <ele>467</ele>
        <time>2018-08-15T07:08:38.238Z</time>
      </trkpt>
      <trkpt lat="45.49982" lon="4.72149">
        <ele>467</ele>
        <time>2018-08-15T07:08:39.243Z</time>
      </trkpt>
      <trkpt lat="45.49975" lon="4.72156">
        <ele>466</ele>
        <time>2018-08-15T07:08:40.236Z</time>
      </trkpt>
      <trkpt lat="45.49975" lon="4.72156">
        <ele>466</ele>
        <time>2018-08-15T07:08:41.242Z</time>
      </trkpt>
      <trkpt lat="45.49969" lon="4.72163">
        <ele>466</ele>
        <time>2018-08-15T07:08:42.234Z</time>
      </trkpt>
      <trkpt lat="45.49969" lon="4.72163">
        <ele>466</ele>
        <time>2018-08-15T07:08:43.241Z</time>
      </trkpt>
      <trkpt lat="45.49963" lon="4.72169">
        <ele>466</ele>
        <time>2018-08-15T07:08:44.233Z</time>
      </trkpt>
      <trkpt lat="45.49963" lon="4.72169">
        <ele>466</ele>
        <time>2018-08-15T07:08:45.239Z</time>
      </trkpt>
      <trkpt lat="45.49956" lon="4.72175">
        <ele>465</ele>
        <time>2018-08-15T07:08:46.239Z</time>
      </trkpt>
      <trkpt lat="45.49956" lon="4.72175">
        <ele>465</ele>
        <time>2018-08-15T07:08:47.244Z</time>
      </trkpt>
      <trkpt lat="45.49949" lon="4.72182">
        <ele>465</ele>
        <time>2018-08-15T07:08:48.233Z</time>
      </trkpt>
      <trkpt lat="45.49949" lon="4.72182">
        <ele>465</ele>
        <time>2018-08-15T07:08:49.251Z</time>
      </trkpt>
      <trkpt lat="45.49941" lon="4.72188">
        <ele>465</ele>
        <time>2018-08-15T07:08:50.244Z</time>
      </trkpt>
      <trkpt lat="45.49941" lon="4.72188">
        <ele>465</ele>
        <time>2018-08-15T07:08:51.249Z</time>
      </trkpt>
      <trkpt lat="45.49934" lon="4.72194">
        <ele>465</ele>
        <time>2018-08-15T07:08:52.243Z</time>
      </trkpt>
      <trkpt lat="45.49934" lon="4.72194">
        <ele>465</ele>
        <time>2018-08-15T07:08:53.248Z</time>
      </trkpt>
      <trkpt lat="45.49927" lon="4.72199">
        <ele>464</ele>
        <time>2018-08-15T07:08:54.243Z</time>
      </trkpt>
      <trkpt lat="45.49927" lon="4.72199">
        <ele>464</ele>
        <time>2018-08-15T07:08:55.248Z</time>
      </trkpt>
      <trkpt lat="45.4992" lon="4.72203">
        <ele>464</ele>
        <time>2018-08-15T07:08:56.235Z</time>
      </trkpt>
      <trkpt lat="45.4992" lon="4.72203">
        <ele>464</ele>
        <time>2018-08-15T07:08:57.240Z</time>
      </trkpt>
      <trkpt lat="45.49912" lon="4.72206">
        <ele>464</ele>
        <time>2018-08-15T07:08:58.233Z</time>
      </trkpt>
      <trkpt lat="45.49912" lon="4.72206">
        <ele>464</ele>
        <time>2018-08-15T07:08:59.248Z</time>
      </trkpt>
      <trkpt lat="45.49904" lon="4.72208">
        <ele>465</ele>
        <time>2018-08-15T07:09:00.265Z</time>
      </trkpt>
      <trkpt lat="45.49904" lon="4.72208">
        <ele>465</ele>
        <time>2018-08-15T07:09:01.236Z</time>
      </trkpt>
      <trkpt lat="45.49897" lon="4.72208">
        <ele>465</ele>
        <time>2018-08-15T07:09:02.260Z</time>
      </trkpt>
      <trkpt lat="45.49897" lon="4.72208">
        <ele>465</ele>
        <time>2018-08-15T07:09:03.265Z</time>
      </trkpt>
      <trkpt lat="45.49889" lon="4.72208">
        <ele>465</ele>
        <time>2018-08-15T07:09:04.252Z</time>
      </trkpt>
      <trkpt lat="45.49889" lon="4.72208">
        <ele>465</ele>
        <time>2018-08-15T07:09:05.258Z</time>
      </trkpt>
      <trkpt lat="45.49883" lon="4.72207">
        <ele>465</ele>
        <time>2018-08-15T07:09:06.253Z</time>
      </trkpt>
      <trkpt lat="45.49883" lon="4.72207">
        <ele>465</ele>
        <time>2018-08-15T07:09:07.258Z</time>
      </trkpt>
      <trkpt lat="45.49876" lon="4.72207">
        <ele>465</ele>
        <time>2018-08-15T07:09:08.247Z</time>
      </trkpt>
      <trkpt lat="45.49876" lon="4.72207">
        <ele>465</ele>
        <time>2018-08-15T07:09:09.253Z</time>
      </trkpt>
      <trkpt lat="45.49869" lon="4.72206">
        <ele>465</ele>
        <time>2018-08-15T07:09:10.236Z</time>
      </trkpt>
      <trkpt lat="45.49869" lon="4.72206">
        <ele>465</ele>
        <time>2018-08-15T07:09:11.254Z</time>
      </trkpt>
      <trkpt lat="45.49863" lon="4.72205">
        <ele>465</ele>
        <time>2018-08-15T07:09:12.242Z</time>
      </trkpt>
      <trkpt lat="45.49863" lon="4.72205">
        <ele>465</ele>
        <time>2018-08-15T07:09:13.247Z</time>
      </trkpt>
      <trkpt lat="45.49856" lon="4.72204">
        <ele>466</ele>
        <time>2018-08-15T07:09:14.238Z</time>
      </trkpt>
      <trkpt lat="45.49856" lon="4.72204">
        <ele>466</ele>
        <time>2018-08-15T07:09:15.243Z</time>
      </trkpt>
      <trkpt lat="45.4985" lon="4.72203">
        <ele>466</ele>
        <time>2018-08-15T07:09:16.238Z</time>
      </trkpt>
      <trkpt lat="45.4985" lon="4.72203">
        <ele>466</ele>
        <time>2018-08-15T07:09:17.243Z</time>
      </trkpt>
      <trkpt lat="45.49843" lon="4.72201">
        <ele>466</ele>
        <time>2018-08-15T07:09:18.234Z</time>
      </trkpt>
      <trkpt lat="45.49843" lon="4.72201">
        <ele>466</ele>
        <time>2018-08-15T07:09:19.240Z</time>
      </trkpt>
      <trkpt lat="45.49836" lon="4.722">
        <ele>466</ele>
        <time>2018-08-15T07:09:20.232Z</time>
      </trkpt>
      <trkpt lat="45.49836" lon="4.722">
        <ele>466</ele>
        <time>2018-08-15T07:09:21.238Z</time>
      </trkpt>
      <trkpt lat="45.4983" lon="4.72199">
        <ele>465</ele>
        <time>2018-08-15T07:09:22.269Z</time>
      </trkpt>
      <trkpt lat="45.4983" lon="4.72199">
        <ele>465</ele>
        <time>2018-08-15T07:09:23.238Z</time>
      </trkpt>
      <trkpt lat="45.49823" lon="4.72198">
        <ele>465</ele>
        <time>2018-08-15T07:09:24.267Z</time>
      </trkpt>
      <trkpt lat="45.49823" lon="4.72198">
        <ele>465</ele>
        <time>2018-08-15T07:09:25.233Z</time>
      </trkpt>
      <trkpt lat="45.49817" lon="4.72198">
        <ele>465</ele>
        <time>2018-08-15T07:09:26.263Z</time>
      </trkpt>
      <trkpt lat="45.49817" lon="4.72198">
        <ele>465</ele>
        <time>2018-08-15T07:09:27.269Z</time>
      </trkpt>
      <trkpt lat="45.49811" lon="4.72198">
        <ele>466</ele>
        <time>2018-08-15T07:09:28.268Z</time>
      </trkpt>
      <trkpt lat="45.49811" lon="4.72198">
        <ele>466</ele>
        <time>2018-08-15T07:09:29.235Z</time>
      </trkpt>
      <trkpt lat="45.49804" lon="4.72198">
        <ele>466</ele>
        <time>2018-08-15T07:09:30.245Z</time>
      </trkpt>
      <trkpt lat="45.49804" lon="4.72198">
        <ele>466</ele>
        <time>2018-08-15T07:09:31.251Z</time>
      </trkpt>
      <trkpt lat="45.49798" lon="4.72198">
        <ele>466</ele>
        <time>2018-08-15T07:09:32.252Z</time>
      </trkpt>
      <trkpt lat="45.49798" lon="4.72198">
        <ele>466</ele>
        <time>2018-08-15T07:09:33.258Z</time>
      </trkpt>
      <trkpt lat="45.49791" lon="4.72198">
        <ele>467</ele>
        <time>2018-08-15T07:09:34.257Z</time>
      </trkpt>
      <trkpt lat="45.49791" lon="4.72198">
        <ele>467</ele>
        <time>2018-08-15T07:09:35.263Z</time>
      </trkpt>
      <trkpt lat="45.49785" lon="4.72198">
        <ele>467</ele>
        <time>2018-08-15T07:09:36.270Z</time>
      </trkpt>
      <trkpt lat="45.49785" lon="4.72198">
        <ele>467</ele>
        <time>2018-08-15T07:09:37.268Z</time>
      </trkpt>
      <trkpt lat="45.49779" lon="4.72198">
        <ele>467</ele>
        <time>2018-08-15T07:09:38.265Z</time>
      </trkpt>
      <trkpt lat="45.49779" lon="4.72198">
        <ele>467</ele>
        <time>2018-08-15T07:09:39.271Z</time>
      </trkpt>
      <trkpt lat="45.49773" lon="4.72197">
        <ele>467</ele>
        <time>2018-08-15T07:09:40.256Z</time>
      </trkpt>
      <trkpt lat="45.49773" lon="4.72197">
        <ele>467</ele>
        <time>2018-08-15T07:09:41.262Z</time>
      </trkpt>
      <trkpt lat="45.49767" lon="4.72196">
        <ele>467</ele>
        <time>2018-08-15T07:09:42.249Z</time>
      </trkpt>
      <trkpt lat="45.49764" lon="4.72195">
        <ele>468</ele>
        <time>2018-08-15T07:09:43.265Z</time>
      </trkpt>
      <trkpt lat="45.49761" lon="4.72195">
        <ele>468</ele>
        <time>2018-08-15T07:09:44.262Z</time>
      </trkpt>
      <trkpt lat="45.49761" lon="4.72195">
        <ele>468</ele>
        <time>2018-08-15T07:09:45.268Z</time>
      </trkpt>
      <trkpt lat="45.49755" lon="4.72195">
        <ele>468</ele>
        <time>2018-08-15T07:09:46.255Z</time>
      </trkpt>
      <trkpt lat="45.49755" lon="4.72195">
        <ele>468</ele>
        <time>2018-08-15T07:09:47.261Z</time>
      </trkpt>
      <trkpt lat="45.49749" lon="4.72194">
        <ele>468</ele>
        <time>2018-08-15T07:09:48.240Z</time>
      </trkpt>
      <trkpt lat="45.49749" lon="4.72194">
        <ele>468</ele>
        <time>2018-08-15T07:09:49.246Z</time>
      </trkpt>
      <trkpt lat="45.49743" lon="4.72192">
        <ele>468</ele>
        <time>2018-08-15T07:09:50.271Z</time>
      </trkpt>
      <trkpt lat="45.49743" lon="4.72192">
        <ele>468</ele>
        <time>2018-08-15T07:09:51.240Z</time>
      </trkpt>
      <trkpt lat="45.49737" lon="4.72191">
        <ele>468</ele>
        <time>2018-08-15T07:09:52.233Z</time>
      </trkpt>
      <trkpt lat="45.49737" lon="4.72191">
        <ele>468</ele>
        <time>2018-08-15T07:09:53.238Z</time>
      </trkpt>
      <trkpt lat="45.49731" lon="4.7219">
        <ele>469</ele>
        <time>2018-08-15T07:09:54.236Z</time>
      </trkpt>
      <trkpt lat="45.49731" lon="4.7219">
        <ele>469</ele>
        <time>2018-08-15T07:09:55.241Z</time>
      </trkpt>
      <trkpt lat="45.49724" lon="4.72189">
        <ele>469</ele>
        <time>2018-08-15T07:09:56.270Z</time>
      </trkpt>
      <trkpt lat="45.49724" lon="4.72189">
        <ele>469</ele>
        <time>2018-08-15T07:09:57.236Z</time>
      </trkpt>
      <trkpt lat="45.49718" lon="4.72188">
        <ele>469</ele>
        <time>2018-08-15T07:09:58.269Z</time>
      </trkpt>
      <trkpt lat="45.49718" lon="4.72188">
        <ele>469</ele>
        <time>2018-08-15T07:09:59.237Z</time>
      </trkpt>
      <trkpt lat="45.49712" lon="4.72187">
        <ele>470</ele>
        <time>2018-08-15T07:10:00.263Z</time>
      </trkpt>
      <trkpt lat="45.49712" lon="4.72187">
        <ele>470</ele>
        <time>2018-08-15T07:10:01.236Z</time>
      </trkpt>
      <trkpt lat="45.49706" lon="4.72186">
        <ele>470</ele>
        <time>2018-08-15T07:10:02.264Z</time>
      </trkpt>
      <trkpt lat="45.49706" lon="4.72186">
        <ele>470</ele>
        <time>2018-08-15T07:10:03.269Z</time>
      </trkpt>
      <trkpt lat="45.497" lon="4.72185">
        <ele>470</ele>
        <time>2018-08-15T07:10:04.263Z</time>
      </trkpt>
      <trkpt lat="45.497" lon="4.72185">
        <ele>470</ele>
        <time>2018-08-15T07:10:05.269Z</time>
      </trkpt>
      <trkpt lat="45.49694" lon="4.72184">
        <ele>470</ele>
        <time>2018-08-15T07:10:06.260Z</time>
      </trkpt>
      <trkpt lat="45.49694" lon="4.72184">
        <ele>470</ele>
        <time>2018-08-15T07:10:07.267Z</time>
      </trkpt>
      <trkpt lat="45.49688" lon="4.72182">
        <ele>470</ele>
        <time>2018-08-15T07:10:08.254Z</time>
      </trkpt>
      <trkpt lat="45.49688" lon="4.72182">
        <ele>470</ele>
        <time>2018-08-15T07:10:09.259Z</time>
      </trkpt>
      <trkpt lat="45.49682" lon="4.72181">
        <ele>471</ele>
        <time>2018-08-15T07:10:10.249Z</time>
      </trkpt>
      <trkpt lat="45.49682" lon="4.72181">
        <ele>471</ele>
        <time>2018-08-15T07:10:11.254Z</time>
      </trkpt>
      <trkpt lat="45.49676" lon="4.72179">
        <ele>471</ele>
        <time>2018-08-15T07:10:12.238Z</time>
      </trkpt>
      <trkpt lat="45.49676" lon="4.72179">
        <ele>471</ele>
        <time>2018-08-15T07:10:13.243Z</time>
      </trkpt>
      <trkpt lat="45.4967" lon="4.72177">
        <ele>471</ele>
        <time>2018-08-15T07:10:14.240Z</time>
      </trkpt>
      <trkpt lat="45.4967" lon="4.72177">
        <ele>471</ele>
        <time>2018-08-15T07:10:15.245Z</time>
      </trkpt>
      <trkpt lat="45.49664" lon="4.72174">
        <ele>471</ele>
        <time>2018-08-15T07:10:16.266Z</time>
      </trkpt>
      <trkpt lat="45.49664" lon="4.72174">
        <ele>471</ele>
        <time>2018-08-15T07:10:17.235Z</time>
      </trkpt>
      <trkpt lat="45.49659" lon="4.7217">
        <ele>471</ele>
        <time>2018-08-15T07:10:18.233Z</time>
      </trkpt>
      <trkpt lat="45.49659" lon="4.7217">
        <ele>471</ele>
        <time>2018-08-15T07:10:19.240Z</time>
      </trkpt>
      <trkpt lat="45.49655" lon="4.72166">
        <ele>471</ele>
        <time>2018-08-15T07:10:20.265Z</time>
      </trkpt>
      <trkpt lat="45.49655" lon="4.72166">
        <ele>471</ele>
        <time>2018-08-15T07:10:21.233Z</time>
      </trkpt>
      <trkpt lat="45.4965" lon="4.72161">
        <ele>471</ele>
        <time>2018-08-15T07:10:22.232Z</time>
      </trkpt>
      <trkpt lat="45.49648" lon="4.72158">
        <ele>471</ele>
        <time>2018-08-15T07:10:23.236Z</time>
      </trkpt>
      <trkpt lat="45.49648" lon="4.72158">
        <ele>471</ele>
        <time>2018-08-15T07:10:24.241Z</time>
      </trkpt>
      <trkpt lat="45.49644" lon="4.72151">
        <ele>471</ele>
        <time>2018-08-15T07:10:25.265Z</time>
      </trkpt>
      <trkpt lat="45.49642" lon="4.72146">
        <ele>471</ele>
        <time>2018-08-15T07:10:26.243Z</time>
      </trkpt>
      <trkpt lat="45.49642" lon="4.72146">
        <ele>471</ele>
        <time>2018-08-15T07:10:27.249Z</time>
      </trkpt>
      <trkpt lat="45.49639" lon="4.72137">
        <ele>471</ele>
        <time>2018-08-15T07:10:28.232Z</time>
      </trkpt>
      <trkpt lat="45.49639" lon="4.72137">
        <ele>471</ele>
        <time>2018-08-15T07:10:29.237Z</time>
      </trkpt>
      <trkpt lat="45.49636" lon="4.72127">
        <ele>471</ele>
        <time>2018-08-15T07:10:30.254Z</time>
      </trkpt>
      <trkpt lat="45.49636" lon="4.72127">
        <ele>471</ele>
        <time>2018-08-15T07:10:31.260Z</time>
      </trkpt>
      <trkpt lat="45.49633" lon="4.72118">
        <ele>471</ele>
        <time>2018-08-15T07:10:32.235Z</time>
      </trkpt>
      <trkpt lat="45.49633" lon="4.72118">
        <ele>471</ele>
        <time>2018-08-15T07:10:33.240Z</time>
      </trkpt>
      <trkpt lat="45.49631" lon="4.72108">
        <ele>472</ele>
        <time>2018-08-15T07:10:34.261Z</time>
      </trkpt>
      <trkpt lat="45.49631" lon="4.72108">
        <ele>472</ele>
        <time>2018-08-15T07:10:35.267Z</time>
      </trkpt>
      <trkpt lat="45.49629" lon="4.72098">
        <ele>472</ele>
        <time>2018-08-15T07:10:36.236Z</time>
      </trkpt>
      <trkpt lat="45.49629" lon="4.72098">
        <ele>472</ele>
        <time>2018-08-15T07:10:37.265Z</time>
      </trkpt>
      <trkpt lat="45.49628" lon="4.72088">
        <ele>472</ele>
        <time>2018-08-15T07:10:38.243Z</time>
      </trkpt>
      <trkpt lat="45.49628" lon="4.72088">
        <ele>472</ele>
        <time>2018-08-15T07:10:39.248Z</time>
      </trkpt>
      <trkpt lat="45.49626" lon="4.72078">
        <ele>472</ele>
        <time>2018-08-15T07:10:40.238Z</time>
      </trkpt>
      <trkpt lat="45.49626" lon="4.72078">
        <ele>472</ele>
        <time>2018-08-15T07:10:41.245Z</time>
      </trkpt>
      <trkpt lat="45.49625" lon="4.72068">
        <ele>472</ele>
        <time>2018-08-15T07:10:42.232Z</time>
      </trkpt>
      <trkpt lat="45.49625" lon="4.72068">
        <ele>472</ele>
        <time>2018-08-15T07:10:43.237Z</time>
      </trkpt>
      <trkpt lat="45.49624" lon="4.72057">
        <ele>472</ele>
        <time>2018-08-15T07:10:44.262Z</time>
      </trkpt>
      <trkpt lat="45.49624" lon="4.72057">
        <ele>472</ele>
        <time>2018-08-15T07:10:45.267Z</time>
      </trkpt>
      <trkpt lat="45.49623" lon="4.72047">
        <ele>472</ele>
        <time>2018-08-15T07:10:46.264Z</time>
      </trkpt>
      <trkpt lat="45.49623" lon="4.72047">
        <ele>472</ele>
        <time>2018-08-15T07:10:47.269Z</time>
      </trkpt>
      <trkpt lat="45.49621" lon="4.72035">
        <ele>472</ele>
        <time>2018-08-15T07:10:48.233Z</time>
      </trkpt>
      <trkpt lat="45.49621" lon="4.72035">
        <ele>472</ele>
        <time>2018-08-15T07:10:49.239Z</time>
      </trkpt>
      <trkpt lat="45.4962" lon="4.72023">
        <ele>472</ele>
        <time>2018-08-15T07:10:50.264Z</time>
      </trkpt>
      <trkpt lat="45.4962" lon="4.72023">
        <ele>472</ele>
        <time>2018-08-15T07:10:51.269Z</time>
      </trkpt>
      <trkpt lat="45.49618" lon="4.72011">
        <ele>472</ele>
        <time>2018-08-15T07:10:52.233Z</time>
      </trkpt>
      <trkpt lat="45.49617" lon="4.72005">
        <ele>472</ele>
        <time>2018-08-15T07:10:53.258Z</time>
      </trkpt>
      <trkpt lat="45.49617" lon="4.72005">
        <ele>472</ele>
        <time>2018-08-15T07:10:54.264Z</time>
      </trkpt>
      <trkpt lat="45.49615" lon="4.71992">
        <ele>472</ele>
        <time>2018-08-15T07:10:55.249Z</time>
      </trkpt>
      <trkpt lat="45.49614" lon="4.71984">
        <ele>472</ele>
        <time>2018-08-15T07:10:56.269Z</time>
      </trkpt>
      <trkpt lat="45.49614" lon="4.71984">
        <ele>472</ele>
        <time>2018-08-15T07:10:57.234Z</time>
      </trkpt>
      <trkpt lat="45.4961" lon="4.71972">
        <ele>471</ele>
        <time>2018-08-15T07:10:58.236Z</time>
      </trkpt>
      <trkpt lat="45.4961" lon="4.71972">
        <ele>471</ele>
        <time>2018-08-15T07:10:59.242Z</time>
      </trkpt>
      <trkpt lat="45.49606" lon="4.7196">
        <ele>471</ele>
        <time>2018-08-15T07:11:00.238Z</time>
      </trkpt>
      <trkpt lat="45.49606" lon="4.7196">
        <ele>471</ele>
        <time>2018-08-15T07:11:01.254Z</time>
      </trkpt>
      <trkpt lat="45.496" lon="4.71949">
        <ele>471</ele>
        <time>2018-08-15T07:11:02.257Z</time>
      </trkpt>
      <trkpt lat="45.496" lon="4.71949">
        <ele>471</ele>
        <time>2018-08-15T07:11:03.264Z</time>
      </trkpt>
      <trkpt lat="45.49594" lon="4.71938">
        <ele>471</ele>
        <time>2018-08-15T07:11:04.263Z</time>
      </trkpt>
      <trkpt lat="45.49594" lon="4.71938">
        <ele>471</ele>
        <time>2018-08-15T07:11:05.270Z</time>
      </trkpt>
      <trkpt lat="45.49588" lon="4.71925">
        <ele>471</ele>
        <time>2018-08-15T07:11:06.240Z</time>
      </trkpt>
      <trkpt lat="45.49588" lon="4.71925">
        <ele>471</ele>
        <time>2018-08-15T07:11:07.245Z</time>
      </trkpt>
      <trkpt lat="45.49584" lon="4.71912">
        <ele>470</ele>
        <time>2018-08-15T07:11:08.269Z</time>
      </trkpt>
      <trkpt lat="45.49584" lon="4.71912">
        <ele>470</ele>
        <time>2018-08-15T07:11:09.234Z</time>
      </trkpt>
      <trkpt lat="45.4958" lon="4.71897">
        <ele>470</ele>
        <time>2018-08-15T07:11:10.232Z</time>
      </trkpt>
      <trkpt lat="45.4958" lon="4.71897">
        <ele>470</ele>
        <time>2018-08-15T07:11:11.238Z</time>
      </trkpt>
      <trkpt lat="45.49577" lon="4.71883">
        <ele>470</ele>
        <time>2018-08-15T07:11:12.264Z</time>
      </trkpt>
      <trkpt lat="45.49577" lon="4.71883">
        <ele>470</ele>
        <time>2018-08-15T07:11:13.270Z</time>
      </trkpt>
      <trkpt lat="45.49573" lon="4.7187">
        <ele>470</ele>
        <time>2018-08-15T07:11:14.239Z</time>
      </trkpt>
      <trkpt lat="45.49573" lon="4.7187">
        <ele>470</ele>
        <time>2018-08-15T07:11:15.244Z</time>
      </trkpt>
      <trkpt lat="45.49569" lon="4.71858">
        <ele>469</ele>
        <time>2018-08-15T07:11:16.247Z</time>
      </trkpt>
      <trkpt lat="45.49569" lon="4.71858">
        <ele>469</ele>
        <time>2018-08-15T07:11:17.253Z</time>
      </trkpt>
      <trkpt lat="45.49563" lon="4.71846">
        <ele>469</ele>
        <time>2018-08-15T07:11:18.239Z</time>
      </trkpt>
      <trkpt lat="45.49563" lon="4.71846">
        <ele>469</ele>
        <time>2018-08-15T07:11:19.244Z</time>
      </trkpt>
      <trkpt lat="45.49556" lon="4.71835">
        <ele>469</ele>
        <time>2018-08-15T07:11:20.271Z</time>
      </trkpt>
      <trkpt lat="45.49556" lon="4.71835">
        <ele>469</ele>
        <time>2018-08-15T07:11:21.237Z</time>
      </trkpt>
      <trkpt lat="45.49549" lon="4.71826">
        <ele>469</ele>
        <time>2018-08-15T07:11:22.252Z</time>
      </trkpt>
      <trkpt lat="45.49549" lon="4.71826">
        <ele>469</ele>
        <time>2018-08-15T07:11:23.236Z</time>
      </trkpt>
      <trkpt lat="45.49542" lon="4.71817">
        <ele>468</ele>
        <time>2018-08-15T07:11:24.271Z</time>
      </trkpt>
      <trkpt lat="45.49542" lon="4.71817">
        <ele>468</ele>
        <time>2018-08-15T07:11:25.237Z</time>
      </trkpt>
      <trkpt lat="45.49535" lon="4.71808">
        <ele>468</ele>
        <time>2018-08-15T07:11:26.266Z</time>
      </trkpt>
      <trkpt lat="45.49531" lon="4.71803">
        <ele>468</ele>
        <time>2018-08-15T07:11:27.267Z</time>
      </trkpt>
      <trkpt lat="45.49531" lon="4.71803">
        <ele>468</ele>
        <time>2018-08-15T07:11:28.233Z</time>
      </trkpt>
      <trkpt lat="45.49523" lon="4.71794">
        <ele>468</ele>
        <time>2018-08-15T07:11:29.268Z</time>
      </trkpt>
      <trkpt lat="45.49523" lon="4.71794">
        <ele>468</ele>
        <time>2018-08-15T07:11:30.233Z</time>
      </trkpt>
      <trkpt lat="45.49516" lon="4.71784">
        <ele>468</ele>
        <time>2018-08-15T07:11:31.252Z</time>
      </trkpt>
      <trkpt lat="45.49516" lon="4.71784">
        <ele>468</ele>
        <time>2018-08-15T07:11:32.266Z</time>
      </trkpt>
      <trkpt lat="45.49509" lon="4.71773">
        <ele>468</ele>
        <time>2018-08-15T07:11:33.235Z</time>
      </trkpt>
      <trkpt lat="45.49509" lon="4.71773">
        <ele>468</ele>
        <time>2018-08-15T07:11:34.240Z</time>
      </trkpt>
      <trkpt lat="45.49503" lon="4.71762">
        <ele>468</ele>
        <time>2018-08-15T07:11:35.236Z</time>
      </trkpt>
      <trkpt lat="45.49503" lon="4.71762">
        <ele>468</ele>
        <time>2018-08-15T07:11:36.250Z</time>
      </trkpt>
      <trkpt lat="45.49497" lon="4.71751">
        <ele>467</ele>
        <time>2018-08-15T07:11:37.243Z</time>
      </trkpt>
      <trkpt lat="45.49494" lon="4.71746">
        <ele>467</ele>
        <time>2018-08-15T07:11:38.269Z</time>
      </trkpt>
      <trkpt lat="45.49494" lon="4.71746">
        <ele>467</ele>
        <time>2018-08-15T07:11:39.237Z</time>
      </trkpt>
      <trkpt lat="45.49487" lon="4.71734">
        <ele>467</ele>
        <time>2018-08-15T07:11:40.256Z</time>
      </trkpt>
      <trkpt lat="45.49487" lon="4.71734">
        <ele>467</ele>
        <time>2018-08-15T07:11:41.261Z</time>
      </trkpt>
      <trkpt lat="45.49481" lon="4.71722">
        <ele>467</ele>
        <time>2018-08-15T07:11:42.244Z</time>
      </trkpt>
      <trkpt lat="45.49481" lon="4.71722">
        <ele>467</ele>
        <time>2018-08-15T07:11:43.249Z</time>
      </trkpt>
      <trkpt lat="45.49476" lon="4.7171">
        <ele>467</ele>
        <time>2018-08-15T07:11:44.271Z</time>
      </trkpt>
      <trkpt lat="45.49476" lon="4.7171">
        <ele>467</ele>
        <time>2018-08-15T07:11:45.238Z</time>
      </trkpt>
      <trkpt lat="45.49469" lon="4.71698">
        <ele>467</ele>
        <time>2018-08-15T07:11:46.266Z</time>
      </trkpt>
      <trkpt lat="45.49469" lon="4.71698">
        <ele>467</ele>
        <time>2018-08-15T07:11:47.239Z</time>
      </trkpt>
      <trkpt lat="45.49463" lon="4.71687">
        <ele>467</ele>
        <time>2018-08-15T07:11:48.241Z</time>
      </trkpt>
      <trkpt lat="45.49463" lon="4.71687">
        <ele>467</ele>
        <time>2018-08-15T07:11:49.247Z</time>
      </trkpt>
      <trkpt lat="45.49455" lon="4.71678">
        <ele>467</ele>
        <time>2018-08-15T07:11:50.238Z</time>
      </trkpt>
      <trkpt lat="45.49455" lon="4.71678">
        <ele>467</ele>
        <time>2018-08-15T07:11:51.243Z</time>
      </trkpt>
      <trkpt lat="45.49447" lon="4.71671">
        <ele>466</ele>
        <time>2018-08-15T07:11:52.250Z</time>
      </trkpt>
      <trkpt lat="45.49447" lon="4.71671">
        <ele>466</ele>
        <time>2018-08-15T07:11:53.255Z</time>
      </trkpt>
      <trkpt lat="45.49439" lon="4.71666">
        <ele>466</ele>
        <time>2018-08-15T07:11:54.259Z</time>
      </trkpt>
      <trkpt lat="45.49439" lon="4.71666">
        <ele>466</ele>
        <time>2018-08-15T07:11:55.265Z</time>
      </trkpt>
      <trkpt lat="45.4943" lon="4.71665">
        <ele>466</ele>
        <time>2018-08-15T07:11:56.268Z</time>
      </trkpt>
      <trkpt lat="45.4943" lon="4.71665">
        <ele>466</ele>
        <time>2018-08-15T07:11:57.237Z</time>
      </trkpt>
      <trkpt lat="45.49421" lon="4.71667">
        <ele>467</ele>
        <time>2018-08-15T07:11:58.238Z</time>
      </trkpt>
      <trkpt lat="45.49417" lon="4.7167">
        <ele>467</ele>
        <time>2018-08-15T07:11:59.260Z</time>
      </trkpt>
      <trkpt lat="45.49417" lon="4.7167">
        <ele>467</ele>
        <time>2018-08-15T07:12:00.265Z</time>
      </trkpt>
      <trkpt lat="45.4941" lon="4.71676">
        <ele>468</ele>
        <time>2018-08-15T07:12:01.267Z</time>
      </trkpt>
      <trkpt lat="45.49407" lon="4.7168">
        <ele>468</ele>
        <time>2018-08-15T07:12:02.260Z</time>
      </trkpt>
      <trkpt lat="45.49407" lon="4.7168">
        <ele>468</ele>
        <time>2018-08-15T07:12:03.265Z</time>
      </trkpt>
      <trkpt lat="45.49402" lon="4.71687">
        <ele>468</ele>
        <time>2018-08-15T07:12:04.246Z</time>
      </trkpt>
      <trkpt lat="45.49402" lon="4.71687">
        <ele>468</ele>
        <time>2018-08-15T07:12:05.251Z</time>
      </trkpt>
      <trkpt lat="45.49397" lon="4.71695">
        <ele>469</ele>
        <time>2018-08-15T07:12:06.234Z</time>
      </trkpt>
      <trkpt lat="45.49397" lon="4.71695">
        <ele>469</ele>
        <time>2018-08-15T07:12:07.240Z</time>
      </trkpt>
      <trkpt lat="45.49393" lon="4.71703">
        <ele>469</ele>
        <time>2018-08-15T07:12:08.268Z</time>
      </trkpt>
      <trkpt lat="45.49393" lon="4.71703">
        <ele>469</ele>
        <time>2018-08-15T07:12:09.234Z</time>
      </trkpt>
      <trkpt lat="45.49388" lon="4.7171">
        <ele>470</ele>
        <time>2018-08-15T07:12:10.232Z</time>
      </trkpt>
      <trkpt lat="45.49385" lon="4.71714">
        <ele>471</ele>
        <time>2018-08-15T07:12:11.257Z</time>
      </trkpt>
      <trkpt lat="45.49381" lon="4.71718">
        <ele>471</ele>
        <time>2018-08-15T07:12:12.253Z</time>
      </trkpt>
      <trkpt lat="45.49381" lon="4.71718">
        <ele>471</ele>
        <time>2018-08-15T07:12:13.240Z</time>
      </trkpt>
      <trkpt lat="45.49375" lon="4.71722">
        <ele>472</ele>
        <time>2018-08-15T07:12:14.267Z</time>
      </trkpt>
      <trkpt lat="45.49375" lon="4.71722">
        <ele>472</ele>
        <time>2018-08-15T07:12:15.239Z</time>
      </trkpt>
      <trkpt lat="45.49369" lon="4.71726">
        <ele>473</ele>
        <time>2018-08-15T07:12:16.232Z</time>
      </trkpt>
      <trkpt lat="45.49369" lon="4.71726">
        <ele>473</ele>
        <time>2018-08-15T07:12:17.239Z</time>
      </trkpt>
      <trkpt lat="45.49361" lon="4.71728">
        <ele>474</ele>
        <time>2018-08-15T07:12:18.264Z</time>
      </trkpt>
      <trkpt lat="45.49361" lon="4.71728">
        <ele>474</ele>
        <time>2018-08-15T07:12:19.270Z</time>
      </trkpt>
      <trkpt lat="45.49355" lon="4.7173">
        <ele>475</ele>
        <time>2018-08-15T07:12:20.233Z</time>
      </trkpt>
      <trkpt lat="45.49355" lon="4.7173">
        <ele>475</ele>
        <time>2018-08-15T07:12:21.239Z</time>
      </trkpt>
      <trkpt lat="45.49347" lon="4.71731">
        <ele>475</ele>
        <time>2018-08-15T07:12:22.263Z</time>
      </trkpt>
      <trkpt lat="45.49347" lon="4.71731">
        <ele>475</ele>
        <time>2018-08-15T07:12:23.269Z</time>
      </trkpt>
      <trkpt lat="45.4934" lon="4.71732">
        <ele>476</ele>
        <time>2018-08-15T07:12:24.265Z</time>
      </trkpt>
      <trkpt lat="45.4934" lon="4.71732">
        <ele>476</ele>
        <time>2018-08-15T07:12:25.232Z</time>
      </trkpt>
      <trkpt lat="45.49333" lon="4.71735">
        <ele>476</ele>
        <time>2018-08-15T07:12:26.259Z</time>
      </trkpt>
      <trkpt lat="45.49333" lon="4.71735">
        <ele>476</ele>
        <time>2018-08-15T07:12:27.264Z</time>
      </trkpt>
      <trkpt lat="45.49326" lon="4.7174">
        <ele>477</ele>
        <time>2018-08-15T07:12:28.248Z</time>
      </trkpt>
      <trkpt lat="45.49326" lon="4.7174">
        <ele>477</ele>
        <time>2018-08-15T07:12:29.253Z</time>
      </trkpt>
      <trkpt lat="45.4932" lon="4.71745">
        <ele>478</ele>
        <time>2018-08-15T07:12:30.244Z</time>
      </trkpt>
      <trkpt lat="45.49317" lon="4.71748">
        <ele>478</ele>
        <time>2018-08-15T07:12:31.249Z</time>
      </trkpt>
      <trkpt lat="45.49314" lon="4.71752">
        <ele>478</ele>
        <time>2018-08-15T07:12:32.237Z</time>
      </trkpt>
      <trkpt lat="45.49314" lon="4.71752">
        <ele>478</ele>
        <time>2018-08-15T07:12:33.242Z</time>
      </trkpt>
      <trkpt lat="45.49308" lon="4.7176">
        <ele>479</ele>
        <time>2018-08-15T07:12:34.269Z</time>
      </trkpt>
      <trkpt lat="45.49308" lon="4.7176">
        <ele>479</ele>
        <time>2018-08-15T07:12:35.237Z</time>
      </trkpt>
      <trkpt lat="45.49302" lon="4.71769">
        <ele>479</ele>
        <time>2018-08-15T07:12:36.239Z</time>
      </trkpt>
      <trkpt lat="45.49302" lon="4.71769">
        <ele>479</ele>
        <time>2018-08-15T07:12:37.251Z</time>
      </trkpt>
      <trkpt lat="45.49297" lon="4.71778">
        <ele>478</ele>
        <time>2018-08-15T07:12:38.239Z</time>
      </trkpt>
      <trkpt lat="45.49297" lon="4.71778">
        <ele>478</ele>
        <time>2018-08-15T07:12:39.245Z</time>
      </trkpt>
      <trkpt lat="45.49291" lon="4.71789">
        <ele>478</ele>
        <time>2018-08-15T07:12:40.271Z</time>
      </trkpt>
      <trkpt lat="45.49291" lon="4.71789">
        <ele>478</ele>
        <time>2018-08-15T07:12:41.236Z</time>
      </trkpt>
      <trkpt lat="45.49285" lon="4.71802">
        <ele>478</ele>
        <time>2018-08-15T07:12:42.233Z</time>
      </trkpt>
      <trkpt lat="45.49285" lon="4.71802">
        <ele>478</ele>
        <time>2018-08-15T07:12:43.238Z</time>
      </trkpt>
      <trkpt lat="45.49279" lon="4.71815">
        <ele>478</ele>
        <time>2018-08-15T07:12:44.258Z</time>
      </trkpt>
      <trkpt lat="45.49279" lon="4.71815">
        <ele>478</ele>
        <time>2018-08-15T07:12:45.263Z</time>
      </trkpt>
      <trkpt lat="45.49272" lon="4.71829">
        <ele>478</ele>
        <time>2018-08-15T07:12:46.244Z</time>
      </trkpt>
      <trkpt lat="45.49272" lon="4.71829">
        <ele>478</ele>
        <time>2018-08-15T07:12:47.249Z</time>
      </trkpt>
      <trkpt lat="45.49264" lon="4.71844">
        <ele>477</ele>
        <time>2018-08-15T07:12:48.233Z</time>
      </trkpt>
      <trkpt lat="45.49264" lon="4.71844">
        <ele>477</ele>
        <time>2018-08-15T07:12:49.240Z</time>
      </trkpt>
      <trkpt lat="45.49256" lon="4.7186">
        <ele>477</ele>
        <time>2018-08-15T07:12:50.263Z</time>
      </trkpt>
      <trkpt lat="45.49256" lon="4.7186">
        <ele>477</ele>
        <time>2018-08-15T07:12:51.269Z</time>
      </trkpt>
      <trkpt lat="45.49248" lon="4.71878">
        <ele>476</ele>
        <time>2018-08-15T07:12:52.237Z</time>
      </trkpt>
      <trkpt lat="45.49248" lon="4.71878">
        <ele>476</ele>
        <time>2018-08-15T07:12:53.242Z</time>
      </trkpt>
      <trkpt lat="45.49237" lon="4.71897">
        <ele>475</ele>
        <time>2018-08-15T07:12:54.237Z</time>
      </trkpt>
      <trkpt lat="45.49237" lon="4.71897">
        <ele>475</ele>
        <time>2018-08-15T07:12:55.245Z</time>
      </trkpt>
      <trkpt lat="45.49226" lon="4.71915">
        <ele>474</ele>
        <time>2018-08-15T07:12:56.255Z</time>
      </trkpt>
      <trkpt lat="45.49226" lon="4.71915">
        <ele>474</ele>
        <time>2018-08-15T07:12:57.266Z</time>
      </trkpt>
      <trkpt lat="45.49212" lon="4.71933">
        <ele>473</ele>
        <time>2018-08-15T07:12:58.251Z</time>
      </trkpt>
      <trkpt lat="45.49212" lon="4.71933">
        <ele>473</ele>
        <time>2018-08-15T07:12:59.256Z</time>
      </trkpt>
      <trkpt lat="45.49196" lon="4.71947">
        <ele>471</ele>
        <time>2018-08-15T07:13:00.245Z</time>
      </trkpt>
      <trkpt lat="45.49196" lon="4.71947">
        <ele>471</ele>
        <time>2018-08-15T07:13:01.250Z</time>
      </trkpt>
      <trkpt lat="45.49179" lon="4.71958">
        <ele>470</ele>
        <time>2018-08-15T07:13:02.233Z</time>
      </trkpt>
      <trkpt lat="45.49179" lon="4.71958">
        <ele>470</ele>
        <time>2018-08-15T07:13:03.243Z</time>
      </trkpt>
      <trkpt lat="45.49161" lon="4.71964">
        <ele>469</ele>
        <time>2018-08-15T07:13:04.237Z</time>
      </trkpt>
      <trkpt lat="45.49161" lon="4.71964">
        <ele>469</ele>
        <time>2018-08-15T07:13:05.243Z</time>
      </trkpt>
      <trkpt lat="45.49142" lon="4.71968">
        <ele>469</ele>
        <time>2018-08-15T07:13:06.236Z</time>
      </trkpt>
      <trkpt lat="45.49142" lon="4.71968">
        <ele>469</ele>
        <time>2018-08-15T07:13:07.255Z</time>
      </trkpt>
      <trkpt lat="45.49123" lon="4.71973">
        <ele>468</ele>
        <time>2018-08-15T07:13:08.244Z</time>
      </trkpt>
      <trkpt lat="45.49123" lon="4.71973">
        <ele>468</ele>
        <time>2018-08-15T07:13:09.249Z</time>
      </trkpt>
      <trkpt lat="45.49104" lon="4.71977">
        <ele>467</ele>
        <time>2018-08-15T07:13:10.233Z</time>
      </trkpt>
      <trkpt lat="45.49104" lon="4.71977">
        <ele>467</ele>
        <time>2018-08-15T07:13:11.238Z</time>
      </trkpt>
      <trkpt lat="45.49085" lon="4.71981">
        <ele>467</ele>
        <time>2018-08-15T07:13:12.263Z</time>
      </trkpt>
      <trkpt lat="45.49085" lon="4.71981">
        <ele>467</ele>
        <time>2018-08-15T07:13:13.268Z</time>
      </trkpt>
      <trkpt lat="45.49067" lon="4.71986">
        <ele>466</ele>
        <time>2018-08-15T07:13:14.243Z</time>
      </trkpt>
      <trkpt lat="45.49067" lon="4.71986">
        <ele>466</ele>
        <time>2018-08-15T07:13:15.248Z</time>
      </trkpt>
      <trkpt lat="45.4905" lon="4.7199">
        <ele>466</ele>
        <time>2018-08-15T07:13:16.236Z</time>
      </trkpt>
      <trkpt lat="45.4905" lon="4.7199">
        <ele>466</ele>
        <time>2018-08-15T07:13:17.241Z</time>
      </trkpt>
      <trkpt lat="45.49033" lon="4.71995">
        <ele>466</ele>
        <time>2018-08-15T07:13:18.268Z</time>
      </trkpt>
      <trkpt lat="45.49033" lon="4.71995">
        <ele>466</ele>
        <time>2018-08-15T07:13:19.233Z</time>
      </trkpt>
      <trkpt lat="45.49015" lon="4.72">
        <ele>465</ele>
        <time>2018-08-15T07:13:20.239Z</time>
      </trkpt>
      <trkpt lat="45.49015" lon="4.72">
        <ele>465</ele>
        <time>2018-08-15T07:13:21.244Z</time>
      </trkpt>
      <trkpt lat="45.48998" lon="4.72004">
        <ele>465</ele>
        <time>2018-08-15T07:13:22.243Z</time>
      </trkpt>
      <trkpt lat="45.48998" lon="4.72004">
        <ele>465</ele>
        <time>2018-08-15T07:13:23.248Z</time>
      </trkpt>
      <trkpt lat="45.48979" lon="4.72008">
        <ele>464</ele>
        <time>2018-08-15T07:13:24.233Z</time>
      </trkpt>
      <trkpt lat="45.48979" lon="4.72008">
        <ele>464</ele>
        <time>2018-08-15T07:13:25.238Z</time>
      </trkpt>
      <trkpt lat="45.4896" lon="4.72013">
        <ele>464</ele>
        <time>2018-08-15T07:13:26.271Z</time>
      </trkpt>
      <trkpt lat="45.4896" lon="4.72013">
        <ele>464</ele>
        <time>2018-08-15T07:13:27.239Z</time>
      </trkpt>
      <trkpt lat="45.48941" lon="4.7202">
        <ele>464</ele>
        <time>2018-08-15T07:13:28.239Z</time>
      </trkpt>
      <trkpt lat="45.48941" lon="4.7202">
        <ele>464</ele>
        <time>2018-08-15T07:13:29.244Z</time>
      </trkpt>
      <trkpt lat="45.48923" lon="4.72027">
        <ele>464</ele>
        <time>2018-08-15T07:13:30.246Z</time>
      </trkpt>
      <trkpt lat="45.48923" lon="4.72027">
        <ele>464</ele>
        <time>2018-08-15T07:13:31.251Z</time>
      </trkpt>
      <trkpt lat="45.48908" lon="4.72037">
        <ele>464</ele>
        <time>2018-08-15T07:13:32.240Z</time>
      </trkpt>
      <trkpt lat="45.48908" lon="4.72037">
        <ele>464</ele>
        <time>2018-08-15T07:13:33.245Z</time>
      </trkpt>
      <trkpt lat="45.48896" lon="4.72053">
        <ele>464</ele>
        <time>2018-08-15T07:13:34.248Z</time>
      </trkpt>
      <trkpt lat="45.48891" lon="4.72063">
        <ele>464</ele>
        <time>2018-08-15T07:13:35.269Z</time>
      </trkpt>
      <trkpt lat="45.48891" lon="4.72063">
        <ele>464</ele>
        <time>2018-08-15T07:13:36.245Z</time>
      </trkpt>
      <trkpt lat="45.48883" lon="4.72086">
        <ele>463</ele>
        <time>2018-08-15T07:13:37.271Z</time>
      </trkpt>
      <trkpt lat="45.4888" lon="4.72097">
        <ele>463</ele>
        <time>2018-08-15T07:13:38.242Z</time>
      </trkpt>
      <trkpt lat="45.4888" lon="4.72097">
        <ele>463</ele>
        <time>2018-08-15T07:13:39.248Z</time>
      </trkpt>
      <trkpt lat="45.4887" lon="4.7212">
        <ele>462</ele>
        <time>2018-08-15T07:13:40.238Z</time>
      </trkpt>
      <trkpt lat="45.4887" lon="4.7212">
        <ele>462</ele>
        <time>2018-08-15T07:13:41.243Z</time>
      </trkpt>
      <trkpt lat="45.48857" lon="4.72141">
        <ele>462</ele>
        <time>2018-08-15T07:13:42.232Z</time>
      </trkpt>
      <trkpt lat="45.48857" lon="4.72141">
        <ele>462</ele>
        <time>2018-08-15T07:13:43.239Z</time>
      </trkpt>
      <trkpt lat="45.48841" lon="4.72161">
        <ele>461</ele>
        <time>2018-08-15T07:13:44.264Z</time>
      </trkpt>
      <trkpt lat="45.48841" lon="4.72161">
        <ele>461</ele>
        <time>2018-08-15T07:13:45.232Z</time>
      </trkpt>
      <trkpt lat="45.48825" lon="4.72181">
        <ele>460</ele>
        <time>2018-08-15T07:13:46.234Z</time>
      </trkpt>
      <trkpt lat="45.48825" lon="4.72181">
        <ele>460</ele>
        <time>2018-08-15T07:13:47.239Z</time>
      </trkpt>
      <trkpt lat="45.48808" lon="4.72199">
        <ele>458</ele>
        <time>2018-08-15T07:13:48.260Z</time>
      </trkpt>
      <trkpt lat="45.48808" lon="4.72199">
        <ele>458</ele>
        <time>2018-08-15T07:13:49.265Z</time>
      </trkpt>
      <trkpt lat="45.48793" lon="4.72217">
        <ele>457</ele>
        <time>2018-08-15T07:13:50.256Z</time>
      </trkpt>
      <trkpt lat="45.48793" lon="4.72217">
        <ele>457</ele>
        <time>2018-08-15T07:13:51.261Z</time>
      </trkpt>
      <trkpt lat="45.48776" lon="4.72233">
        <ele>455</ele>
        <time>2018-08-15T07:13:52.260Z</time>
      </trkpt>
      <trkpt lat="45.48776" lon="4.72233">
        <ele>455</ele>
        <time>2018-08-15T07:13:53.266Z</time>
      </trkpt>
      <trkpt lat="45.48757" lon="4.72245">
        <ele>454</ele>
        <time>2018-08-15T07:13:54.263Z</time>
      </trkpt>
      <trkpt lat="45.48757" lon="4.72245">
        <ele>454</ele>
        <time>2018-08-15T07:13:55.269Z</time>
      </trkpt>
      <trkpt lat="45.48736" lon="4.72252">
        <ele>452</ele>
        <time>2018-08-15T07:13:56.235Z</time>
      </trkpt>
      <trkpt lat="45.48736" lon="4.72252">
        <ele>452</ele>
        <time>2018-08-15T07:13:57.240Z</time>
      </trkpt>
      <trkpt lat="45.48713" lon="4.7226">
        <ele>451</ele>
        <time>2018-08-15T07:13:58.266Z</time>
      </trkpt>
      <trkpt lat="45.48702" lon="4.72265">
        <ele>450</ele>
        <time>2018-08-15T07:13:59.266Z</time>
      </trkpt>
      <trkpt lat="45.48702" lon="4.72265">
        <ele>450</ele>
        <time>2018-08-15T07:14:00.235Z</time>
      </trkpt>
      <trkpt lat="45.4868" lon="4.72277">
        <ele>449</ele>
        <time>2018-08-15T07:14:01.233Z</time>
      </trkpt>
      <trkpt lat="45.48668" lon="4.72283">
        <ele>448</ele>
        <time>2018-08-15T07:14:02.264Z</time>
      </trkpt>
      <trkpt lat="45.48668" lon="4.72283">
        <ele>448</ele>
        <time>2018-08-15T07:14:03.235Z</time>
      </trkpt>
      <trkpt lat="45.48645" lon="4.72295">
        <ele>446</ele>
        <time>2018-08-15T07:14:04.268Z</time>
      </trkpt>
      <trkpt lat="45.48645" lon="4.72295">
        <ele>446</ele>
        <time>2018-08-15T07:14:05.236Z</time>
      </trkpt>
      <trkpt lat="45.48624" lon="4.72305">
        <ele>444</ele>
        <time>2018-08-15T07:14:06.263Z</time>
      </trkpt>
      <trkpt lat="45.48613" lon="4.72311">
        <ele>444</ele>
        <time>2018-08-15T07:14:07.243Z</time>
      </trkpt>
      <trkpt lat="45.48603" lon="4.72317">
        <ele>443</ele>
        <time>2018-08-15T07:14:08.235Z</time>
      </trkpt>
      <trkpt lat="45.48603" lon="4.72317">
        <ele>443</ele>
        <time>2018-08-15T07:14:09.241Z</time>
      </trkpt>
      <trkpt lat="45.48582" lon="4.72333">
        <ele>441</ele>
        <time>2018-08-15T07:14:10.234Z</time>
      </trkpt>
      <trkpt lat="45.48572" lon="4.72342">
        <ele>440</ele>
        <time>2018-08-15T07:14:11.240Z</time>
      </trkpt>
      <trkpt lat="45.48572" lon="4.72342">
        <ele>440</ele>
        <time>2018-08-15T07:14:12.245Z</time>
      </trkpt>
      <trkpt lat="45.4855" lon="4.72363">
        <ele>439</ele>
        <time>2018-08-15T07:14:13.233Z</time>
      </trkpt>
      <trkpt lat="45.4854" lon="4.72374">
        <ele>438</ele>
        <time>2018-08-15T07:14:14.267Z</time>
      </trkpt>
      <trkpt lat="45.4854" lon="4.72374">
        <ele>438</ele>
        <time>2018-08-15T07:14:15.232Z</time>
      </trkpt>
      <trkpt lat="45.48517" lon="4.72396">
        <ele>436</ele>
        <time>2018-08-15T07:14:16.259Z</time>
      </trkpt>
      <trkpt lat="45.48517" lon="4.72396">
        <ele>436</ele>
        <time>2018-08-15T07:14:17.264Z</time>
      </trkpt>
      <trkpt lat="45.48494" lon="4.72419">
        <ele>434</ele>
        <time>2018-08-15T07:14:18.249Z</time>
      </trkpt>
      <trkpt lat="45.48494" lon="4.72419">
        <ele>434</ele>
        <time>2018-08-15T07:14:19.254Z</time>
      </trkpt>
      <trkpt lat="45.48473" lon="4.7244">
        <ele>432</ele>
        <time>2018-08-15T07:14:20.243Z</time>
      </trkpt>
      <trkpt lat="45.48473" lon="4.7244">
        <ele>432</ele>
        <time>2018-08-15T07:14:21.238Z</time>
      </trkpt>
      <trkpt lat="45.48453" lon="4.72457">
        <ele>431</ele>
        <time>2018-08-15T07:14:22.233Z</time>
      </trkpt>
      <trkpt lat="45.48453" lon="4.72457">
        <ele>431</ele>
        <time>2018-08-15T07:14:23.243Z</time>
      </trkpt>
      <trkpt lat="45.48435" lon="4.72472">
        <ele>430</ele>
        <time>2018-08-15T07:14:24.260Z</time>
      </trkpt>
      <trkpt lat="45.48435" lon="4.72472">
        <ele>430</ele>
        <time>2018-08-15T07:14:25.266Z</time>
      </trkpt>
      <trkpt lat="45.48414" lon="4.72484">
        <ele>429</ele>
        <time>2018-08-15T07:14:26.236Z</time>
      </trkpt>
      <trkpt lat="45.48414" lon="4.72484">
        <ele>429</ele>
        <time>2018-08-15T07:14:27.245Z</time>
      </trkpt>
      <trkpt lat="45.48394" lon="4.7249">
        <ele>428</ele>
        <time>2018-08-15T07:14:28.236Z</time>
      </trkpt>
      <trkpt lat="45.48394" lon="4.7249">
        <ele>428</ele>
        <time>2018-08-15T07:14:29.266Z</time>
      </trkpt>
      <trkpt lat="45.48373" lon="4.7249">
        <ele>428</ele>
        <time>2018-08-15T07:14:30.248Z</time>
      </trkpt>
      <trkpt lat="45.48373" lon="4.7249">
        <ele>428</ele>
        <time>2018-08-15T07:14:31.255Z</time>
      </trkpt>
      <trkpt lat="45.4835" lon="4.72483">
        <ele>427</ele>
        <time>2018-08-15T07:14:32.268Z</time>
      </trkpt>
      <trkpt lat="45.4835" lon="4.72483">
        <ele>427</ele>
        <time>2018-08-15T07:14:33.238Z</time>
      </trkpt>
      <trkpt lat="45.48329" lon="4.72473">
        <ele>426</ele>
        <time>2018-08-15T07:14:34.256Z</time>
      </trkpt>
      <trkpt lat="45.48329" lon="4.72473">
        <ele>426</ele>
        <time>2018-08-15T07:14:35.262Z</time>
      </trkpt>
      <trkpt lat="45.48307" lon="4.72461">
        <ele>424</ele>
        <time>2018-08-15T07:14:36.269Z</time>
      </trkpt>
      <trkpt lat="45.48307" lon="4.72461">
        <ele>424</ele>
        <time>2018-08-15T07:14:37.261Z</time>
      </trkpt>
      <trkpt lat="45.48286" lon="4.72451">
        <ele>423</ele>
        <time>2018-08-15T07:14:38.257Z</time>
      </trkpt>
      <trkpt lat="45.48276" lon="4.72445">
        <ele>423</ele>
        <time>2018-08-15T07:14:39.248Z</time>
      </trkpt>
      <trkpt lat="45.48276" lon="4.72445">
        <ele>423</ele>
        <time>2018-08-15T07:14:40.253Z</time>
      </trkpt>
      <trkpt lat="45.48254" lon="4.72439">
        <ele>422</ele>
        <time>2018-08-15T07:14:41.240Z</time>
      </trkpt>
      <trkpt lat="45.48254" lon="4.72439">
        <ele>422</ele>
        <time>2018-08-15T07:14:42.245Z</time>
      </trkpt>
      <trkpt lat="45.48232" lon="4.72441">
        <ele>421</ele>
        <time>2018-08-15T07:14:43.254Z</time>
      </trkpt>
      <trkpt lat="45.48223" lon="4.72445">
        <ele>421</ele>
        <time>2018-08-15T07:14:44.267Z</time>
      </trkpt>
      <trkpt lat="45.48223" lon="4.72445">
        <ele>421</ele>
        <time>2018-08-15T07:14:45.236Z</time>
      </trkpt>
      <trkpt lat="45.48205" lon="4.72449">
        <ele>420</ele>
        <time>2018-08-15T07:14:46.257Z</time>
      </trkpt>
      <trkpt lat="45.48205" lon="4.72449">
        <ele>420</ele>
        <time>2018-08-15T07:14:47.262Z</time>
      </trkpt>
      <trkpt lat="45.48188" lon="4.72452">
        <ele>420</ele>
        <time>2018-08-15T07:14:48.242Z</time>
      </trkpt>
      <trkpt lat="45.48188" lon="4.72452">
        <ele>420</ele>
        <time>2018-08-15T07:14:49.248Z</time>
      </trkpt>
      <trkpt lat="45.48173" lon="4.72455">
        <ele>421</ele>
        <time>2018-08-15T07:14:50.268Z</time>
      </trkpt>
      <trkpt lat="45.48173" lon="4.72455">
        <ele>421</ele>
        <time>2018-08-15T07:14:51.235Z</time>
      </trkpt>
      <trkpt lat="45.48159" lon="4.7246">
        <ele>421</ele>
        <time>2018-08-15T07:14:52.269Z</time>
      </trkpt>
      <trkpt lat="45.48159" lon="4.7246">
        <ele>421</ele>
        <time>2018-08-15T07:14:53.235Z</time>
      </trkpt>
      <trkpt lat="45.48147" lon="4.72468">
        <ele>422</ele>
        <time>2018-08-15T07:14:54.268Z</time>
      </trkpt>
      <trkpt lat="45.48141" lon="4.72472">
        <ele>422</ele>
        <time>2018-08-15T07:14:55.255Z</time>
      </trkpt>
      <trkpt lat="45.48141" lon="4.72472">
        <ele>422</ele>
        <time>2018-08-15T07:14:56.260Z</time>
      </trkpt>
      <trkpt lat="45.48131" lon="4.72481">
        <ele>422</ele>
        <time>2018-08-15T07:14:57.265Z</time>
      </trkpt>
      <trkpt lat="45.48127" lon="4.72486">
        <ele>422</ele>
        <time>2018-08-15T07:14:58.258Z</time>
      </trkpt>
      <trkpt lat="45.48127" lon="4.72486">
        <ele>422</ele>
        <time>2018-08-15T07:14:59.264Z</time>
      </trkpt>
      <trkpt lat="45.48119" lon="4.72495">
        <ele>423</ele>
        <time>2018-08-15T07:15:00.255Z</time>
      </trkpt>
      <trkpt lat="45.48119" lon="4.72495">
        <ele>423</ele>
        <time>2018-08-15T07:15:01.261Z</time>
      </trkpt>
      <trkpt lat="45.48112" lon="4.72504">
        <ele>424</ele>
        <time>2018-08-15T07:15:02.247Z</time>
      </trkpt>
      <trkpt lat="45.48112" lon="4.72504">
        <ele>424</ele>
        <time>2018-08-15T07:15:03.252Z</time>
      </trkpt>
      <trkpt lat="45.48105" lon="4.72513">
        <ele>424</ele>
        <time>2018-08-15T07:15:04.264Z</time>
      </trkpt>
      <trkpt lat="45.48105" lon="4.72513">
        <ele>424</ele>
        <time>2018-08-15T07:15:05.272Z</time>
      </trkpt>
      <trkpt lat="45.48097" lon="4.72521">
        <ele>425</ele>
        <time>2018-08-15T07:15:06.267Z</time>
      </trkpt>
      <trkpt lat="45.48097" lon="4.72521">
        <ele>425</ele>
        <time>2018-08-15T07:15:07.235Z</time>
      </trkpt>
      <trkpt lat="45.4809" lon="4.7253">
        <ele>426</ele>
        <time>2018-08-15T07:15:08.232Z</time>
      </trkpt>
      <trkpt lat="45.4809" lon="4.7253">
        <ele>426</ele>
        <time>2018-08-15T07:15:09.237Z</time>
      </trkpt>
      <trkpt lat="45.48082" lon="4.72538">
        <ele>426</ele>
        <time>2018-08-15T07:15:10.237Z</time>
      </trkpt>
      <trkpt lat="45.48078" lon="4.72541">
        <ele>427</ele>
        <time>2018-08-15T07:15:11.268Z</time>
      </trkpt>
      <trkpt lat="45.48074" lon="4.72544">
        <ele>427</ele>
        <time>2018-08-15T07:15:12.250Z</time>
      </trkpt>
      <trkpt lat="45.48074" lon="4.72544">
        <ele>427</ele>
        <time>2018-08-15T07:15:13.256Z</time>
      </trkpt>
      <trkpt lat="45.48066" lon="4.7255">
        <ele>428</ele>
        <time>2018-08-15T07:15:14.253Z</time>
      </trkpt>
      <trkpt lat="45.48066" lon="4.7255">
        <ele>428</ele>
        <time>2018-08-15T07:15:15.259Z</time>
      </trkpt>
      <trkpt lat="45.48058" lon="4.72552">
        <ele>428</ele>
        <time>2018-08-15T07:15:16.244Z</time>
      </trkpt>
      <trkpt lat="45.48054" lon="4.72554">
        <ele>428</ele>
        <time>2018-08-15T07:15:17.268Z</time>
      </trkpt>
      <trkpt lat="45.48054" lon="4.72554">
        <ele>428</ele>
        <time>2018-08-15T07:15:18.237Z</time>
      </trkpt>
      <trkpt lat="45.48046" lon="4.72556">
        <ele>428</ele>
        <time>2018-08-15T07:15:19.243Z</time>
      </trkpt>
      <trkpt lat="45.48042" lon="4.72557">
        <ele>428</ele>
        <time>2018-08-15T07:15:20.248Z</time>
      </trkpt>
      <trkpt lat="45.48042" lon="4.72557">
        <ele>428</ele>
        <time>2018-08-15T07:15:21.255Z</time>
      </trkpt>
      <trkpt lat="45.48034" lon="4.72559">
        <ele>429</ele>
        <time>2018-08-15T07:15:22.237Z</time>
      </trkpt>
      <trkpt lat="45.48034" lon="4.72559">
        <ele>429</ele>
        <time>2018-08-15T07:15:23.243Z</time>
      </trkpt>
      <trkpt lat="45.48027" lon="4.72561">
        <ele>429</ele>
        <time>2018-08-15T07:15:24.240Z</time>
      </trkpt>
      <trkpt lat="45.48027" lon="4.72561">
        <ele>429</ele>
        <time>2018-08-15T07:15:25.245Z</time>
      </trkpt>
      <trkpt lat="45.48019" lon="4.72563">
        <ele>429</ele>
        <time>2018-08-15T07:15:26.251Z</time>
      </trkpt>
      <trkpt lat="45.48019" lon="4.72563">
        <ele>429</ele>
        <time>2018-08-15T07:15:27.257Z</time>
      </trkpt>
      <trkpt lat="45.48012" lon="4.72564">
        <ele>430</ele>
        <time>2018-08-15T07:15:28.242Z</time>
      </trkpt>
      <trkpt lat="45.48012" lon="4.72564">
        <ele>430</ele>
        <time>2018-08-15T07:15:29.247Z</time>
      </trkpt>
      <trkpt lat="45.48004" lon="4.72566">
        <ele>430</ele>
        <time>2018-08-15T07:15:30.239Z</time>
      </trkpt>
      <trkpt lat="45.48004" lon="4.72566">
        <ele>430</ele>
        <time>2018-08-15T07:15:31.244Z</time>
      </trkpt>
      <trkpt lat="45.47997" lon="4.72568">
        <ele>430</ele>
        <time>2018-08-15T07:15:32.241Z</time>
      </trkpt>
      <trkpt lat="45.47997" lon="4.72568">
        <ele>430</ele>
        <time>2018-08-15T07:15:33.255Z</time>
      </trkpt>
      <trkpt lat="45.47989" lon="4.72569">
        <ele>430</ele>
        <time>2018-08-15T07:15:34.251Z</time>
      </trkpt>
      <trkpt lat="45.47989" lon="4.72569">
        <ele>430</ele>
        <time>2018-08-15T07:15:35.257Z</time>
      </trkpt>
      <trkpt lat="45.47981" lon="4.7257">
        <ele>431</ele>
        <time>2018-08-15T07:15:36.233Z</time>
      </trkpt>
      <trkpt lat="45.47981" lon="4.7257">
        <ele>431</ele>
        <time>2018-08-15T07:15:37.234Z</time>
      </trkpt>
      <trkpt lat="45.47972" lon="4.72571">
        <ele>431</ele>
        <time>2018-08-15T07:15:38.267Z</time>
      </trkpt>
      <trkpt lat="45.47972" lon="4.72571">
        <ele>431</ele>
        <time>2018-08-15T07:15:39.235Z</time>
      </trkpt>
      <trkpt lat="45.47963" lon="4.72572">
        <ele>431</ele>
        <time>2018-08-15T07:15:40.263Z</time>
      </trkpt>
      <trkpt lat="45.47963" lon="4.72572">
        <ele>431</ele>
        <time>2018-08-15T07:15:41.269Z</time>
      </trkpt>
      <trkpt lat="45.47954" lon="4.72573">
        <ele>431</ele>
        <time>2018-08-15T07:15:42.261Z</time>
      </trkpt>
      <trkpt lat="45.47954" lon="4.72573">
        <ele>431</ele>
        <time>2018-08-15T07:15:43.266Z</time>
      </trkpt>
      <trkpt lat="45.47944" lon="4.72574">
        <ele>432</ele>
        <time>2018-08-15T07:15:44.237Z</time>
      </trkpt>
      <trkpt lat="45.47944" lon="4.72574">
        <ele>432</ele>
        <time>2018-08-15T07:15:45.250Z</time>
      </trkpt>
      <trkpt lat="45.47935" lon="4.72575">
        <ele>432</ele>
        <time>2018-08-15T07:15:46.247Z</time>
      </trkpt>
      <trkpt lat="45.47935" lon="4.72575">
        <ele>432</ele>
        <time>2018-08-15T07:15:47.252Z</time>
      </trkpt>
      <trkpt lat="45.47925" lon="4.72576">
        <ele>432</ele>
        <time>2018-08-15T07:15:48.269Z</time>
      </trkpt>
      <trkpt lat="45.47925" lon="4.72576">
        <ele>432</ele>
        <time>2018-08-15T07:15:49.236Z</time>
      </trkpt>
      <trkpt lat="45.47916" lon="4.72576">
        <ele>432</ele>
        <time>2018-08-15T07:15:50.270Z</time>
      </trkpt>
      <trkpt lat="45.47916" lon="4.72576">
        <ele>432</ele>
        <time>2018-08-15T07:15:51.237Z</time>
      </trkpt>
      <trkpt lat="45.47906" lon="4.72576">
        <ele>431</ele>
        <time>2018-08-15T07:15:52.264Z</time>
      </trkpt>
      <trkpt lat="45.47906" lon="4.72576">
        <ele>431</ele>
        <time>2018-08-15T07:15:53.269Z</time>
      </trkpt>
      <trkpt lat="45.47895" lon="4.72576">
        <ele>431</ele>
        <time>2018-08-15T07:15:54.256Z</time>
      </trkpt>
      <trkpt lat="45.47895" lon="4.72576">
        <ele>431</ele>
        <time>2018-08-15T07:15:55.260Z</time>
      </trkpt>
      <trkpt lat="45.47885" lon="4.72576">
        <ele>431</ele>
        <time>2018-08-15T07:15:56.251Z</time>
      </trkpt>
      <trkpt lat="45.47885" lon="4.72576">
        <ele>431</ele>
        <time>2018-08-15T07:15:57.257Z</time>
      </trkpt>
      <trkpt lat="45.47873" lon="4.72577">
        <ele>431</ele>
        <time>2018-08-15T07:15:58.237Z</time>
      </trkpt>
      <trkpt lat="45.47873" lon="4.72577">
        <ele>431</ele>
        <time>2018-08-15T07:15:59.241Z</time>
      </trkpt>
      <trkpt lat="45.47861" lon="4.72577">
        <ele>431</ele>
        <time>2018-08-15T07:16:00.260Z</time>
      </trkpt>
      <trkpt lat="45.47861" lon="4.72577">
        <ele>431</ele>
        <time>2018-08-15T07:16:01.265Z</time>
      </trkpt>
      <trkpt lat="45.47849" lon="4.72577">
        <ele>430</ele>
        <time>2018-08-15T07:16:02.237Z</time>
      </trkpt>
      <trkpt lat="45.47849" lon="4.72577">
        <ele>430</ele>
        <time>2018-08-15T07:16:03.242Z</time>
      </trkpt>
      <trkpt lat="45.47837" lon="4.72577">
        <ele>430</ele>
        <time>2018-08-15T07:16:04.236Z</time>
      </trkpt>
      <trkpt lat="45.47837" lon="4.72577">
        <ele>430</ele>
        <time>2018-08-15T07:16:05.256Z</time>
      </trkpt>
      <trkpt lat="45.47823" lon="4.72577">
        <ele>429</ele>
        <time>2018-08-15T07:16:06.262Z</time>
      </trkpt>
      <trkpt lat="45.47823" lon="4.72577">
        <ele>429</ele>
        <time>2018-08-15T07:16:07.268Z</time>
      </trkpt>
      <trkpt lat="45.47808" lon="4.72577">
        <ele>428</ele>
        <time>2018-08-15T07:16:08.264Z</time>
      </trkpt>
      <trkpt lat="45.47808" lon="4.72577">
        <ele>428</ele>
        <time>2018-08-15T07:16:09.269Z</time>
      </trkpt>
      <trkpt lat="45.47793" lon="4.72578">
        <ele>428</ele>
        <time>2018-08-15T07:16:10.260Z</time>
      </trkpt>
      <trkpt lat="45.47793" lon="4.72578">
        <ele>428</ele>
        <time>2018-08-15T07:16:11.237Z</time>
      </trkpt>
      <trkpt lat="45.47776" lon="4.72578">
        <ele>427</ele>
        <time>2018-08-15T07:16:12.263Z</time>
      </trkpt>
      <trkpt lat="45.47776" lon="4.72578">
        <ele>427</ele>
        <time>2018-08-15T07:16:13.268Z</time>
      </trkpt>
      <trkpt lat="45.47759" lon="4.72576">
        <ele>426</ele>
        <time>2018-08-15T07:16:14.260Z</time>
      </trkpt>
      <trkpt lat="45.4775" lon="4.72575">
        <ele>425</ele>
        <time>2018-08-15T07:16:15.233Z</time>
      </trkpt>
      <trkpt lat="45.47741" lon="4.72573">
        <ele>425</ele>
        <time>2018-08-15T07:16:16.254Z</time>
      </trkpt>
      <trkpt lat="45.47741" lon="4.72573">
        <ele>425</ele>
        <time>2018-08-15T07:16:17.260Z</time>
      </trkpt>
      <trkpt lat="45.47722" lon="4.7257">
        <ele>424</ele>
        <time>2018-08-15T07:16:18.252Z</time>
      </trkpt>
      <trkpt lat="45.47722" lon="4.7257">
        <ele>424</ele>
        <time>2018-08-15T07:16:19.259Z</time>
      </trkpt>
      <trkpt lat="45.47703" lon="4.72565">
        <ele>423</ele>
        <time>2018-08-15T07:16:20.250Z</time>
      </trkpt>
      <trkpt lat="45.47703" lon="4.72565">
        <ele>423</ele>
        <time>2018-08-15T07:16:21.255Z</time>
      </trkpt>
      <trkpt lat="45.47683" lon="4.7256">
        <ele>422</ele>
        <time>2018-08-15T07:16:22.241Z</time>
      </trkpt>
      <trkpt lat="45.47683" lon="4.7256">
        <ele>422</ele>
        <time>2018-08-15T07:16:23.247Z</time>
      </trkpt>
      <trkpt lat="45.47664" lon="4.72552">
        <ele>422</ele>
        <time>2018-08-15T07:16:24.243Z</time>
      </trkpt>
      <trkpt lat="45.47664" lon="4.72552">
        <ele>422</ele>
        <time>2018-08-15T07:16:25.248Z</time>
      </trkpt>
      <trkpt lat="45.47645" lon="4.72544">
        <ele>421</ele>
        <time>2018-08-15T07:16:26.256Z</time>
      </trkpt>
      <trkpt lat="45.47645" lon="4.72544">
        <ele>421</ele>
        <time>2018-08-15T07:16:27.261Z</time>
      </trkpt>
      <trkpt lat="45.47626" lon="4.72535">
        <ele>421</ele>
        <time>2018-08-15T07:16:28.268Z</time>
      </trkpt>
      <trkpt lat="45.47626" lon="4.72535">
        <ele>421</ele>
        <time>2018-08-15T07:16:29.243Z</time>
      </trkpt>
      <trkpt lat="45.47609" lon="4.72526">
        <ele>421</ele>
        <time>2018-08-15T07:16:30.239Z</time>
      </trkpt>
      <trkpt lat="45.47609" lon="4.72526">
        <ele>421</ele>
        <time>2018-08-15T07:16:31.244Z</time>
      </trkpt>
      <trkpt lat="45.47594" lon="4.72518">
        <ele>422</ele>
        <time>2018-08-15T07:16:32.239Z</time>
      </trkpt>
      <trkpt lat="45.47594" lon="4.72518">
        <ele>422</ele>
        <time>2018-08-15T07:16:33.252Z</time>
      </trkpt>
      <trkpt lat="45.4758" lon="4.72508">
        <ele>422</ele>
        <time>2018-08-15T07:16:34.251Z</time>
      </trkpt>
      <trkpt lat="45.4758" lon="4.72508">
        <ele>422</ele>
        <time>2018-08-15T07:16:35.257Z</time>
      </trkpt>
      <trkpt lat="45.47567" lon="4.725">
        <ele>422</ele>
        <time>2018-08-15T07:16:36.240Z</time>
      </trkpt>
      <trkpt lat="45.47561" lon="4.72496">
        <ele>422</ele>
        <time>2018-08-15T07:16:37.254Z</time>
      </trkpt>
      <trkpt lat="45.47561" lon="4.72496">
        <ele>422</ele>
        <time>2018-08-15T07:16:38.261Z</time>
      </trkpt>
      <trkpt lat="45.47549" lon="4.72489">
        <ele>422</ele>
        <time>2018-08-15T07:16:39.252Z</time>
      </trkpt>
      <trkpt lat="45.47549" lon="4.72489">
        <ele>422</ele>
        <time>2018-08-15T07:16:40.258Z</time>
      </trkpt>
      <trkpt lat="45.47538" lon="4.72482">
        <ele>422</ele>
        <time>2018-08-15T07:16:41.238Z</time>
      </trkpt>
      <trkpt lat="45.47538" lon="4.72482">
        <ele>422</ele>
        <time>2018-08-15T07:16:42.244Z</time>
      </trkpt>
      <trkpt lat="45.47527" lon="4.72475">
        <ele>422</ele>
        <time>2018-08-15T07:16:43.233Z</time>
      </trkpt>
      <trkpt lat="45.47521" lon="4.72472">
        <ele>422</ele>
        <time>2018-08-15T07:16:44.254Z</time>
      </trkpt>
      <trkpt lat="45.47521" lon="4.72472">
        <ele>422</ele>
        <time>2018-08-15T07:16:45.260Z</time>
      </trkpt>
      <trkpt lat="45.4751" lon="4.72466">
        <ele>422</ele>
        <time>2018-08-15T07:16:46.243Z</time>
      </trkpt>
      <trkpt lat="45.47505" lon="4.72463">
        <ele>422</ele>
        <time>2018-08-15T07:16:47.248Z</time>
      </trkpt>
      <trkpt lat="45.47505" lon="4.72463">
        <ele>422</ele>
        <time>2018-08-15T07:16:48.255Z</time>
      </trkpt>
      <trkpt lat="45.47494" lon="4.72456">
        <ele>421</ele>
        <time>2018-08-15T07:16:49.252Z</time>
      </trkpt>
      <trkpt lat="45.47489" lon="4.72452">
        <ele>421</ele>
        <time>2018-08-15T07:16:50.235Z</time>
      </trkpt>
      <trkpt lat="45.47489" lon="4.72452">
        <ele>421</ele>
        <time>2018-08-15T07:16:51.240Z</time>
      </trkpt>
      <trkpt lat="45.47479" lon="4.72444">
        <ele>421</ele>
        <time>2018-08-15T07:16:52.237Z</time>
      </trkpt>
      <trkpt lat="45.47479" lon="4.72444">
        <ele>421</ele>
        <time>2018-08-15T07:16:53.242Z</time>
      </trkpt>
      <trkpt lat="45.47469" lon="4.72434">
        <ele>421</ele>
        <time>2018-08-15T07:16:54.236Z</time>
      </trkpt>
      <trkpt lat="45.47469" lon="4.72434">
        <ele>421</ele>
        <time>2018-08-15T07:16:55.241Z</time>
      </trkpt>
      <trkpt lat="45.47458" lon="4.72424">
        <ele>421</ele>
        <time>2018-08-15T07:16:56.263Z</time>
      </trkpt>
      <trkpt lat="45.47458" lon="4.72424">
        <ele>421</ele>
        <time>2018-08-15T07:16:57.240Z</time>
      </trkpt>
      <trkpt lat="45.47447" lon="4.72412">
        <ele>421</ele>
        <time>2018-08-15T07:16:58.263Z</time>
      </trkpt>
      <trkpt lat="45.47447" lon="4.72412">
        <ele>421</ele>
        <time>2018-08-15T07:16:59.235Z</time>
      </trkpt>
      <trkpt lat="45.47435" lon="4.724">
        <ele>421</ele>
        <time>2018-08-15T07:17:00.257Z</time>
      </trkpt>
      <trkpt lat="45.47435" lon="4.724">
        <ele>421</ele>
        <time>2018-08-15T07:17:01.262Z</time>
      </trkpt>
      <trkpt lat="45.47422" lon="4.72387">
        <ele>421</ele>
        <time>2018-08-15T07:17:02.253Z</time>
      </trkpt>
      <trkpt lat="45.47422" lon="4.72387">
        <ele>421</ele>
        <time>2018-08-15T07:17:03.258Z</time>
      </trkpt>
      <trkpt lat="45.47409" lon="4.72372">
        <ele>420</ele>
        <time>2018-08-15T07:17:04.254Z</time>
      </trkpt>
      <trkpt lat="45.47409" lon="4.72372">
        <ele>420</ele>
        <time>2018-08-15T07:17:05.271Z</time>
      </trkpt>
      <trkpt lat="45.47397" lon="4.72354">
        <ele>420</ele>
        <time>2018-08-15T07:17:06.263Z</time>
      </trkpt>
      <trkpt lat="45.47397" lon="4.72354">
        <ele>420</ele>
        <time>2018-08-15T07:17:07.268Z</time>
      </trkpt>
      <trkpt lat="45.47385" lon="4.72335">
        <ele>419</ele>
        <time>2018-08-15T07:17:08.242Z</time>
      </trkpt>
      <trkpt lat="45.47385" lon="4.72335">
        <ele>419</ele>
        <time>2018-08-15T07:17:09.262Z</time>
      </trkpt>
      <trkpt lat="45.47373" lon="4.72316">
        <ele>418</ele>
        <time>2018-08-15T07:17:10.267Z</time>
      </trkpt>
      <trkpt lat="45.47373" lon="4.72316">
        <ele>418</ele>
        <time>2018-08-15T07:17:11.239Z</time>
      </trkpt>
      <trkpt lat="45.47361" lon="4.72298">
        <ele>418</ele>
        <time>2018-08-15T07:17:12.234Z</time>
      </trkpt>
      <trkpt lat="45.47361" lon="4.72298">
        <ele>418</ele>
        <time>2018-08-15T07:17:13.245Z</time>
      </trkpt>
      <trkpt lat="45.47349" lon="4.72281">
        <ele>417</ele>
        <time>2018-08-15T07:17:14.235Z</time>
      </trkpt>
      <trkpt lat="45.47349" lon="4.72281">
        <ele>417</ele>
        <time>2018-08-15T07:17:15.244Z</time>
      </trkpt>
      <trkpt lat="45.47336" lon="4.72265">
        <ele>416</ele>
        <time>2018-08-15T07:17:16.234Z</time>
      </trkpt>
      <trkpt lat="45.47336" lon="4.72265">
        <ele>416</ele>
        <time>2018-08-15T07:17:17.241Z</time>
      </trkpt>
      <trkpt lat="45.47322" lon="4.7225">
        <ele>415</ele>
        <time>2018-08-15T07:17:18.236Z</time>
      </trkpt>
      <trkpt lat="45.47322" lon="4.7225">
        <ele>415</ele>
        <time>2018-08-15T07:17:19.244Z</time>
      </trkpt>
      <trkpt lat="45.47306" lon="4.72238">
        <ele>414</ele>
        <time>2018-08-15T07:17:20.233Z</time>
      </trkpt>
      <trkpt lat="45.47306" lon="4.72238">
        <ele>414</ele>
        <time>2018-08-15T07:17:21.242Z</time>
      </trkpt>
      <trkpt lat="45.47291" lon="4.72225">
        <ele>413</ele>
        <time>2018-08-15T07:17:22.250Z</time>
      </trkpt>
      <trkpt lat="45.47282" lon="4.72218">
        <ele>413</ele>
        <time>2018-08-15T07:17:23.242Z</time>
      </trkpt>
      <trkpt lat="45.47282" lon="4.72218">
        <ele>413</ele>
        <time>2018-08-15T07:17:24.248Z</time>
      </trkpt>
      <trkpt lat="45.47266" lon="4.72206">
        <ele>412</ele>
        <time>2018-08-15T07:17:25.259Z</time>
      </trkpt>
      <trkpt lat="45.47258" lon="4.72199">
        <ele>411</ele>
        <time>2018-08-15T07:17:26.258Z</time>
      </trkpt>
      <trkpt lat="45.47258" lon="4.72199">
        <ele>411</ele>
        <time>2018-08-15T07:17:27.237Z</time>
      </trkpt>
      <trkpt lat="45.47242" lon="4.72186">
        <ele>410</ele>
        <time>2018-08-15T07:17:28.246Z</time>
      </trkpt>
      <trkpt lat="45.47242" lon="4.72186">
        <ele>410</ele>
        <time>2018-08-15T07:17:29.253Z</time>
      </trkpt>
      <trkpt lat="45.47227" lon="4.72172">
        <ele>409</ele>
        <time>2018-08-15T07:17:30.257Z</time>
      </trkpt>
      <trkpt lat="45.4722" lon="4.72164">
        <ele>408</ele>
        <time>2018-08-15T07:17:31.248Z</time>
      </trkpt>
      <trkpt lat="45.47214" lon="4.72157">
        <ele>408</ele>
        <time>2018-08-15T07:17:32.245Z</time>
      </trkpt>
      <trkpt lat="45.47214" lon="4.72157">
        <ele>408</ele>
        <time>2018-08-15T07:17:33.253Z</time>
      </trkpt>
      <trkpt lat="45.47201" lon="4.72141">
        <ele>407</ele>
        <time>2018-08-15T07:17:34.270Z</time>
      </trkpt>
      <trkpt lat="45.47201" lon="4.72141">
        <ele>407</ele>
        <time>2018-08-15T07:17:35.268Z</time>
      </trkpt>
      <trkpt lat="45.47189" lon="4.72123">
        <ele>406</ele>
        <time>2018-08-15T07:17:36.244Z</time>
      </trkpt>
      <trkpt lat="45.47184" lon="4.72113">
        <ele>405</ele>
        <time>2018-08-15T07:17:37.241Z</time>
      </trkpt>
      <trkpt lat="45.47179" lon="4.72102">
        <ele>405</ele>
        <time>2018-08-15T07:17:38.238Z</time>
      </trkpt>
      <trkpt lat="45.47179" lon="4.72102">
        <ele>405</ele>
        <time>2018-08-15T07:17:39.244Z</time>
      </trkpt>
      <trkpt lat="45.47169" lon="4.72079">
        <ele>404</ele>
        <time>2018-08-15T07:17:40.245Z</time>
      </trkpt>
      <trkpt lat="45.47165" lon="4.72068">
        <ele>404</ele>
        <time>2018-08-15T07:17:41.242Z</time>
      </trkpt>
      <trkpt lat="45.47165" lon="4.72068">
        <ele>404</ele>
        <time>2018-08-15T07:17:42.253Z</time>
      </trkpt>
      <trkpt lat="45.47156" lon="4.72045">
        <ele>403</ele>
        <time>2018-08-15T07:17:43.248Z</time>
      </trkpt>
      <trkpt lat="45.47151" lon="4.72034">
        <ele>402</ele>
        <time>2018-08-15T07:17:44.237Z</time>
      </trkpt>
      <trkpt lat="45.47151" lon="4.72034">
        <ele>402</ele>
        <time>2018-08-15T07:17:45.246Z</time>
      </trkpt>
      <trkpt lat="45.47142" lon="4.72012">
        <ele>402</ele>
        <time>2018-08-15T07:17:46.239Z</time>
      </trkpt>
      <trkpt lat="45.47142" lon="4.72012">
        <ele>402</ele>
        <time>2018-08-15T07:17:47.246Z</time>
      </trkpt>
      <trkpt lat="45.47134" lon="4.71989">
        <ele>401</ele>
        <time>2018-08-15T07:17:48.239Z</time>
      </trkpt>
      <trkpt lat="45.47129" lon="4.71978">
        <ele>401</ele>
        <time>2018-08-15T07:17:49.269Z</time>
      </trkpt>
      <trkpt lat="45.47129" lon="4.71978">
        <ele>401</ele>
        <time>2018-08-15T07:17:50.236Z</time>
      </trkpt>
      <trkpt lat="45.47121" lon="4.71957">
        <ele>400</ele>
        <time>2018-08-15T07:17:51.248Z</time>
      </trkpt>
      <trkpt lat="45.47121" lon="4.71957">
        <ele>400</ele>
        <time>2018-08-15T07:17:52.255Z</time>
      </trkpt>
      <trkpt lat="45.47113" lon="4.71936">
        <ele>400</ele>
        <time>2018-08-15T07:17:53.246Z</time>
      </trkpt>
      <trkpt lat="45.47113" lon="4.71936">
        <ele>400</ele>
        <time>2018-08-15T07:17:54.252Z</time>
      </trkpt>
      <trkpt lat="45.47105" lon="4.71917">
        <ele>400</ele>
        <time>2018-08-15T07:17:55.244Z</time>
      </trkpt>
      <trkpt lat="45.47102" lon="4.71907">
        <ele>399</ele>
        <time>2018-08-15T07:17:56.241Z</time>
      </trkpt>
      <trkpt lat="45.47102" lon="4.71907">
        <ele>399</ele>
        <time>2018-08-15T07:17:57.247Z</time>
      </trkpt>
      <trkpt lat="45.47095" lon="4.71889">
        <ele>399</ele>
        <time>2018-08-15T07:17:58.269Z</time>
      </trkpt>
      <trkpt lat="45.47095" lon="4.71889">
        <ele>399</ele>
        <time>2018-08-15T07:17:59.236Z</time>
      </trkpt>
      <trkpt lat="45.47088" lon="4.71872">
        <ele>399</ele>
        <time>2018-08-15T07:18:00.233Z</time>
      </trkpt>
      <trkpt lat="45.47088" lon="4.71872">
        <ele>399</ele>
        <time>2018-08-15T07:18:01.239Z</time>
      </trkpt>
      <trkpt lat="45.47081" lon="4.71855">
        <ele>399</ele>
        <time>2018-08-15T07:18:02.240Z</time>
      </trkpt>
      <trkpt lat="45.47081" lon="4.71855">
        <ele>399</ele>
        <time>2018-08-15T07:18:03.246Z</time>
      </trkpt>
      <trkpt lat="45.47074" lon="4.71837">
        <ele>399</ele>
        <time>2018-08-15T07:18:04.253Z</time>
      </trkpt>
      <trkpt lat="45.47074" lon="4.71837">
        <ele>399</ele>
        <time>2018-08-15T07:18:05.260Z</time>
      </trkpt>
      <trkpt lat="45.47067" lon="4.7182">
        <ele>398</ele>
        <time>2018-08-15T07:18:06.267Z</time>
      </trkpt>
      <trkpt lat="45.47063" lon="4.71811">
        <ele>398</ele>
        <time>2018-08-15T07:18:07.244Z</time>
      </trkpt>
      <trkpt lat="45.47059" lon="4.71803">
        <ele>398</ele>
        <time>2018-08-15T07:18:08.239Z</time>
      </trkpt>
      <trkpt lat="45.47059" lon="4.71803">
        <ele>398</ele>
        <time>2018-08-15T07:18:09.245Z</time>
      </trkpt>
      <trkpt lat="45.47048" lon="4.71787">
        <ele>397</ele>
        <time>2018-08-15T07:18:10.242Z</time>
      </trkpt>
      <trkpt lat="45.47048" lon="4.71787">
        <ele>397</ele>
        <time>2018-08-15T07:18:11.248Z</time>
      </trkpt>
      <trkpt lat="45.47035" lon="4.71776">
        <ele>396</ele>
        <time>2018-08-15T07:18:12.236Z</time>
      </trkpt>
      <trkpt lat="45.47035" lon="4.71776">
        <ele>396</ele>
        <time>2018-08-15T07:18:13.242Z</time>
      </trkpt>
      <trkpt lat="45.4702" lon="4.71769">
        <ele>395</ele>
        <time>2018-08-15T07:18:14.268Z</time>
      </trkpt>
      <trkpt lat="45.4702" lon="4.71769">
        <ele>395</ele>
        <time>2018-08-15T07:18:15.241Z</time>
      </trkpt>
      <trkpt lat="45.47003" lon="4.71769">
        <ele>395</ele>
        <time>2018-08-15T07:18:16.239Z</time>
      </trkpt>
      <trkpt lat="45.47003" lon="4.71769">
        <ele>395</ele>
        <time>2018-08-15T07:18:17.246Z</time>
      </trkpt>
      <trkpt lat="45.46986" lon="4.71774">
        <ele>394</ele>
        <time>2018-08-15T07:18:18.253Z</time>
      </trkpt>
      <trkpt lat="45.46986" lon="4.71774">
        <ele>394</ele>
        <time>2018-08-15T07:18:19.258Z</time>
      </trkpt>
      <trkpt lat="45.46971" lon="4.71788">
        <ele>395</ele>
        <time>2018-08-15T07:18:20.252Z</time>
      </trkpt>
      <trkpt lat="45.46971" lon="4.71788">
        <ele>395</ele>
        <time>2018-08-15T07:18:21.259Z</time>
      </trkpt>
      <trkpt lat="45.46962" lon="4.71809">
        <ele>394</ele>
        <time>2018-08-15T07:18:22.269Z</time>
      </trkpt>
      <trkpt lat="45.4696" lon="4.7182">
        <ele>395</ele>
        <time>2018-08-15T07:18:23.250Z</time>
      </trkpt>
      <trkpt lat="45.4696" lon="4.7182">
        <ele>395</ele>
        <time>2018-08-15T07:18:24.260Z</time>
      </trkpt>
      <trkpt lat="45.46957" lon="4.71842">
        <ele>395</ele>
        <time>2018-08-15T07:18:25.266Z</time>
      </trkpt>
      <trkpt lat="45.46955" lon="4.71853">
        <ele>394</ele>
        <time>2018-08-15T07:18:26.259Z</time>
      </trkpt>
      <trkpt lat="45.46955" lon="4.71853">
        <ele>394</ele>
        <time>2018-08-15T07:18:27.266Z</time>
      </trkpt>
      <trkpt lat="45.46953" lon="4.71873">
        <ele>394</ele>
        <time>2018-08-15T07:18:28.254Z</time>
      </trkpt>
      <trkpt lat="45.46953" lon="4.71873">
        <ele>394</ele>
        <time>2018-08-15T07:18:29.261Z</time>
      </trkpt>
      <trkpt lat="45.4695" lon="4.71893">
        <ele>394</ele>
        <time>2018-08-15T07:18:30.265Z</time>
      </trkpt>
      <trkpt lat="45.4695" lon="4.71893">
        <ele>394</ele>
        <time>2018-08-15T07:18:31.234Z</time>
      </trkpt>
      <trkpt lat="45.46946" lon="4.71914">
        <ele>394</ele>
        <time>2018-08-15T07:18:32.250Z</time>
      </trkpt>
      <trkpt lat="45.46946" lon="4.71914">
        <ele>394</ele>
        <time>2018-08-15T07:18:33.256Z</time>
      </trkpt>
      <trkpt lat="45.46943" lon="4.71933">
        <ele>394</ele>
        <time>2018-08-15T07:18:34.252Z</time>
      </trkpt>
      <trkpt lat="45.46943" lon="4.71933">
        <ele>394</ele>
        <time>2018-08-15T07:18:35.258Z</time>
      </trkpt>
      <trkpt lat="45.46941" lon="4.71953">
        <ele>394</ele>
        <time>2018-08-15T07:18:36.232Z</time>
      </trkpt>
      <trkpt lat="45.46941" lon="4.71953">
        <ele>394</ele>
        <time>2018-08-15T07:18:37.240Z</time>
      </trkpt>
      <trkpt lat="45.46939" lon="4.71971">
        <ele>394</ele>
        <time>2018-08-15T07:18:38.248Z</time>
      </trkpt>
      <trkpt lat="45.46939" lon="4.71971">
        <ele>394</ele>
        <time>2018-08-15T07:18:39.255Z</time>
      </trkpt>
      <trkpt lat="45.46936" lon="4.71988">
        <ele>394</ele>
        <time>2018-08-15T07:18:40.249Z</time>
      </trkpt>
      <trkpt lat="45.46936" lon="4.71988">
        <ele>394</ele>
        <time>2018-08-15T07:18:41.255Z</time>
      </trkpt>
      <trkpt lat="45.46933" lon="4.72005">
        <ele>394</ele>
        <time>2018-08-15T07:18:42.241Z</time>
      </trkpt>
      <trkpt lat="45.46933" lon="4.72005">
        <ele>394</ele>
        <time>2018-08-15T07:18:43.247Z</time>
      </trkpt>
      <trkpt lat="45.46929" lon="4.72022">
        <ele>394</ele>
        <time>2018-08-15T07:18:44.235Z</time>
      </trkpt>
      <trkpt lat="45.46929" lon="4.72022">
        <ele>394</ele>
        <time>2018-08-15T07:18:45.241Z</time>
      </trkpt>
      <trkpt lat="45.46926" lon="4.72037">
        <ele>395</ele>
        <time>2018-08-15T07:18:46.244Z</time>
      </trkpt>
      <trkpt lat="45.46922" lon="4.72044">
        <ele>395</ele>
        <time>2018-08-15T07:18:47.241Z</time>
      </trkpt>
      <trkpt lat="45.46922" lon="4.72044">
        <ele>395</ele>
        <time>2018-08-15T07:18:48.247Z</time>
      </trkpt>
      <trkpt lat="45.46913" lon="4.72056">
        <ele>396</ele>
        <time>2018-08-15T07:18:49.236Z</time>
      </trkpt>
      <trkpt lat="45.46908" lon="4.72061">
        <ele>396</ele>
        <time>2018-08-15T07:18:50.269Z</time>
      </trkpt>
      <trkpt lat="45.46908" lon="4.72061">
        <ele>396</ele>
        <time>2018-08-15T07:18:51.237Z</time>
      </trkpt>
      <trkpt lat="45.46897" lon="4.72071">
        <ele>396</ele>
        <time>2018-08-15T07:18:52.256Z</time>
      </trkpt>
      <trkpt lat="45.46897" lon="4.72071">
        <ele>396</ele>
        <time>2018-08-15T07:18:53.263Z</time>
      </trkpt>
      <trkpt lat="45.46886" lon="4.72081">
        <ele>397</ele>
        <time>2018-08-15T07:18:54.267Z</time>
      </trkpt>
      <trkpt lat="45.46882" lon="4.72086">
        <ele>397</ele>
        <time>2018-08-15T07:18:55.258Z</time>
      </trkpt>
      <trkpt lat="45.46876" lon="4.7209">
        <ele>397</ele>
        <time>2018-08-15T07:18:56.249Z</time>
      </trkpt>
      <trkpt lat="45.46876" lon="4.7209">
        <ele>397</ele>
        <time>2018-08-15T07:18:57.255Z</time>
      </trkpt>
      <trkpt lat="45.46865" lon="4.72097">
        <ele>396</ele>
        <time>2018-08-15T07:18:58.263Z</time>
      </trkpt>
      <trkpt lat="45.46865" lon="4.72097">
        <ele>396</ele>
        <time>2018-08-15T07:18:59.255Z</time>
      </trkpt>
      <trkpt lat="45.46853" lon="4.72101">
        <ele>396</ele>
        <time>2018-08-15T07:19:00.236Z</time>
      </trkpt>
      <trkpt lat="45.46847" lon="4.72103">
        <ele>396</ele>
        <time>2018-08-15T07:19:01.247Z</time>
      </trkpt>
      <trkpt lat="45.46841" lon="4.72103">
        <ele>396</ele>
        <time>2018-08-15T07:19:02.257Z</time>
      </trkpt>
      <trkpt lat="45.46841" lon="4.72103">
        <ele>396</ele>
        <time>2018-08-15T07:19:03.263Z</time>
      </trkpt>
      <trkpt lat="45.46829" lon="4.72105">
        <ele>396</ele>
        <time>2018-08-15T07:19:04.253Z</time>
      </trkpt>
      <trkpt lat="45.46823" lon="4.72105">
        <ele>396</ele>
        <time>2018-08-15T07:19:05.261Z</time>
      </trkpt>
      <trkpt lat="45.46817" lon="4.72106">
        <ele>396</ele>
        <time>2018-08-15T07:19:06.242Z</time>
      </trkpt>
      <trkpt lat="45.46817" lon="4.72106">
        <ele>396</ele>
        <time>2018-08-15T07:19:07.249Z</time>
      </trkpt>
      <trkpt lat="45.46805" lon="4.72105">
        <ele>397</ele>
        <time>2018-08-15T07:19:08.244Z</time>
      </trkpt>
      <trkpt lat="45.46805" lon="4.72105">
        <ele>397</ele>
        <time>2018-08-15T07:19:09.251Z</time>
      </trkpt>
      <trkpt lat="45.46793" lon="4.72106">
        <ele>397</ele>
        <time>2018-08-15T07:19:10.239Z</time>
      </trkpt>
      <trkpt lat="45.46793" lon="4.72106">
        <ele>397</ele>
        <time>2018-08-15T07:19:11.245Z</time>
      </trkpt>
      <trkpt lat="45.46781" lon="4.72106">
        <ele>397</ele>
        <time>2018-08-15T07:19:12.237Z</time>
      </trkpt>
      <trkpt lat="45.46781" lon="4.72106">
        <ele>397</ele>
        <time>2018-08-15T07:19:13.242Z</time>
      </trkpt>
      <trkpt lat="45.46769" lon="4.72106">
        <ele>397</ele>
        <time>2018-08-15T07:19:14.233Z</time>
      </trkpt>
      <trkpt lat="45.46769" lon="4.72106">
        <ele>397</ele>
        <time>2018-08-15T07:19:15.238Z</time>
      </trkpt>
      <trkpt lat="45.46757" lon="4.72105">
        <ele>397</ele>
        <time>2018-08-15T07:19:16.266Z</time>
      </trkpt>
      <trkpt lat="45.46757" lon="4.72105">
        <ele>397</ele>
        <time>2018-08-15T07:19:17.234Z</time>
      </trkpt>
      <trkpt lat="45.46745" lon="4.72104">
        <ele>397</ele>
        <time>2018-08-15T07:19:18.270Z</time>
      </trkpt>
      <trkpt lat="45.46745" lon="4.72104">
        <ele>397</ele>
        <time>2018-08-15T07:19:19.236Z</time>
      </trkpt>
      <trkpt lat="45.46733" lon="4.72103">
        <ele>397</ele>
        <time>2018-08-15T07:19:20.236Z</time>
      </trkpt>
      <trkpt lat="45.46733" lon="4.72103">
        <ele>397</ele>
        <time>2018-08-15T07:19:21.247Z</time>
      </trkpt>
      <trkpt lat="45.46721" lon="4.72101">
        <ele>397</ele>
        <time>2018-08-15T07:19:22.236Z</time>
      </trkpt>
      <trkpt lat="45.46721" lon="4.72101">
        <ele>397</ele>
        <time>2018-08-15T07:19:23.241Z</time>
      </trkpt>
      <trkpt lat="45.4671" lon="4.72098">
        <ele>398</ele>
        <time>2018-08-15T07:19:24.265Z</time>
      </trkpt>
      <trkpt lat="45.4671" lon="4.72098">
        <ele>398</ele>
        <time>2018-08-15T07:19:25.234Z</time>
      </trkpt>
      <trkpt lat="45.46699" lon="4.72093">
        <ele>398</ele>
        <time>2018-08-15T07:19:26.267Z</time>
      </trkpt>
      <trkpt lat="45.46693" lon="4.7209">
        <ele>398</ele>
        <time>2018-08-15T07:19:27.263Z</time>
      </trkpt>
      <trkpt lat="45.46693" lon="4.7209">
        <ele>398</ele>
        <time>2018-08-15T07:19:28.237Z</time>
      </trkpt>
      <trkpt lat="45.46683" lon="4.72082">
        <ele>398</ele>
        <time>2018-08-15T07:19:29.243Z</time>
      </trkpt>
      <trkpt lat="45.46683" lon="4.72082">
        <ele>398</ele>
        <time>2018-08-15T07:19:30.249Z</time>
      </trkpt>
      <trkpt lat="45.46673" lon="4.72074">
        <ele>398</ele>
        <time>2018-08-15T07:19:31.236Z</time>
      </trkpt>
      <trkpt lat="45.46668" lon="4.7207">
        <ele>398</ele>
        <time>2018-08-15T07:19:32.260Z</time>
      </trkpt>
      <trkpt lat="45.46668" lon="4.7207">
        <ele>398</ele>
        <time>2018-08-15T07:19:33.265Z</time>
      </trkpt>
      <trkpt lat="45.46658" lon="4.72061">
        <ele>398</ele>
        <time>2018-08-15T07:19:34.259Z</time>
      </trkpt>
      <trkpt lat="45.46658" lon="4.72061">
        <ele>398</ele>
        <time>2018-08-15T07:19:35.264Z</time>
      </trkpt>
      <trkpt lat="45.46648" lon="4.72052">
        <ele>398</ele>
        <time>2018-08-15T07:19:36.235Z</time>
      </trkpt>
      <trkpt lat="45.46648" lon="4.72052">
        <ele>398</ele>
        <time>2018-08-15T07:19:37.267Z</time>
      </trkpt>
      <trkpt lat="45.46638" lon="4.72042">
        <ele>397</ele>
        <time>2018-08-15T07:19:38.257Z</time>
      </trkpt>
      <trkpt lat="45.46638" lon="4.72042">
        <ele>397</ele>
        <time>2018-08-15T07:19:39.264Z</time>
      </trkpt>
      <trkpt lat="45.46629" lon="4.72032">
        <ele>397</ele>
        <time>2018-08-15T07:19:40.262Z</time>
      </trkpt>
      <trkpt lat="45.46629" lon="4.72032">
        <ele>397</ele>
        <time>2018-08-15T07:19:41.270Z</time>
      </trkpt>
      <trkpt lat="45.4662" lon="4.72022">
        <ele>396</ele>
        <time>2018-08-15T07:19:42.261Z</time>
      </trkpt>
      <trkpt lat="45.4662" lon="4.72022">
        <ele>396</ele>
        <time>2018-08-15T07:19:43.268Z</time>
      </trkpt>
      <trkpt lat="45.46611" lon="4.72013">
        <ele>396</ele>
        <time>2018-08-15T07:19:44.261Z</time>
      </trkpt>
      <trkpt lat="45.46611" lon="4.72013">
        <ele>396</ele>
        <time>2018-08-15T07:19:45.266Z</time>
      </trkpt>
      <trkpt lat="45.46601" lon="4.72003">
        <ele>396</ele>
        <time>2018-08-15T07:19:46.266Z</time>
      </trkpt>
      <trkpt lat="45.46601" lon="4.72003">
        <ele>396</ele>
        <time>2018-08-15T07:19:47.271Z</time>
      </trkpt>
      <trkpt lat="45.46591" lon="4.71994">
        <ele>396</ele>
        <time>2018-08-15T07:19:48.262Z</time>
      </trkpt>
      <trkpt lat="45.46587" lon="4.7199">
        <ele>396</ele>
        <time>2018-08-15T07:19:49.266Z</time>
      </trkpt>
      <trkpt lat="45.46582" lon="4.71985">
        <ele>396</ele>
        <time>2018-08-15T07:19:50.262Z</time>
      </trkpt>
      <trkpt lat="45.46582" lon="4.71985">
        <ele>396</ele>
        <time>2018-08-15T07:19:51.270Z</time>
      </trkpt>
      <trkpt lat="45.46573" lon="4.71977">
        <ele>396</ele>
        <time>2018-08-15T07:19:52.263Z</time>
      </trkpt>
      <trkpt lat="45.46573" lon="4.71977">
        <ele>396</ele>
        <time>2018-08-15T07:19:53.236Z</time>
      </trkpt>
      <trkpt lat="45.46563" lon="4.7197">
        <ele>397</ele>
        <time>2018-08-15T07:19:54.262Z</time>
      </trkpt>
      <trkpt lat="45.46563" lon="4.7197">
        <ele>397</ele>
        <time>2018-08-15T07:19:55.268Z</time>
      </trkpt>
      <trkpt lat="45.46553" lon="4.71962">
        <ele>397</ele>
        <time>2018-08-15T07:19:56.267Z</time>
      </trkpt>
      <trkpt lat="45.46553" lon="4.71962">
        <ele>397</ele>
        <time>2018-08-15T07:19:57.248Z</time>
      </trkpt>
      <trkpt lat="45.46543" lon="4.71954">
        <ele>397</ele>
        <time>2018-08-15T07:19:58.241Z</time>
      </trkpt>
      <trkpt lat="45.46538" lon="4.7195">
        <ele>397</ele>
        <time>2018-08-15T07:19:59.271Z</time>
      </trkpt>
      <trkpt lat="45.46538" lon="4.7195">
        <ele>397</ele>
        <time>2018-08-15T07:20:00.236Z</time>
      </trkpt>
      <trkpt lat="45.46528" lon="4.71944">
        <ele>397</ele>
        <time>2018-08-15T07:20:01.263Z</time>
      </trkpt>
      <trkpt lat="45.46528" lon="4.71944">
        <ele>397</ele>
        <time>2018-08-15T07:20:02.234Z</time>
      </trkpt>
      <trkpt lat="45.46518" lon="4.71937">
        <ele>398</ele>
        <time>2018-08-15T07:20:03.260Z</time>
      </trkpt>
      <trkpt lat="45.46518" lon="4.71937">
        <ele>398</ele>
        <time>2018-08-15T07:20:04.266Z</time>
      </trkpt>
      <trkpt lat="45.46509" lon="4.7193">
        <ele>398</ele>
        <time>2018-08-15T07:20:05.262Z</time>
      </trkpt>
      <trkpt lat="45.46509" lon="4.7193">
        <ele>398</ele>
        <time>2018-08-15T07:20:06.236Z</time>
      </trkpt>
      <trkpt lat="45.465" lon="4.71924">
        <ele>398</ele>
        <time>2018-08-15T07:20:07.270Z</time>
      </trkpt>
      <trkpt lat="45.46495" lon="4.71921">
        <ele>399</ele>
        <time>2018-08-15T07:20:08.258Z</time>
      </trkpt>
      <trkpt lat="45.46495" lon="4.71921">
        <ele>399</ele>
        <time>2018-08-15T07:20:09.264Z</time>
      </trkpt>
      <trkpt lat="45.46485" lon="4.71913">
        <ele>398</ele>
        <time>2018-08-15T07:20:10.253Z</time>
      </trkpt>
      <trkpt lat="45.46485" lon="4.71913">
        <ele>398</ele>
        <time>2018-08-15T07:20:11.259Z</time>
      </trkpt>
      <trkpt lat="45.46475" lon="4.71906">
        <ele>398</ele>
        <time>2018-08-15T07:20:12.254Z</time>
      </trkpt>
      <trkpt lat="45.46475" lon="4.71906">
        <ele>398</ele>
        <time>2018-08-15T07:20:13.259Z</time>
      </trkpt>
      <trkpt lat="45.46465" lon="4.71899">
        <ele>398</ele>
        <time>2018-08-15T07:20:14.259Z</time>
      </trkpt>
      <trkpt lat="45.46465" lon="4.71899">
        <ele>398</ele>
        <time>2018-08-15T07:20:15.265Z</time>
      </trkpt>
      <trkpt lat="45.46455" lon="4.71892">
        <ele>398</ele>
        <time>2018-08-15T07:20:16.252Z</time>
      </trkpt>
      <trkpt lat="45.46455" lon="4.71892">
        <ele>398</ele>
        <time>2018-08-15T07:20:17.258Z</time>
      </trkpt>
      <trkpt lat="45.46445" lon="4.71886">
        <ele>398</ele>
        <time>2018-08-15T07:20:18.238Z</time>
      </trkpt>
      <trkpt lat="45.46445" lon="4.71886">
        <ele>398</ele>
        <time>2018-08-15T07:20:19.244Z</time>
      </trkpt>
      <trkpt lat="45.46435" lon="4.71881">
        <ele>399</ele>
        <time>2018-08-15T07:20:20.265Z</time>
      </trkpt>
      <trkpt lat="45.46435" lon="4.71881">
        <ele>399</ele>
        <time>2018-08-15T07:20:21.234Z</time>
      </trkpt>
      <trkpt lat="45.46424" lon="4.71879">
        <ele>399</ele>
        <time>2018-08-15T07:20:22.266Z</time>
      </trkpt>
      <trkpt lat="45.46424" lon="4.71879">
        <ele>399</ele>
        <time>2018-08-15T07:20:23.234Z</time>
      </trkpt>
      <trkpt lat="45.46412" lon="4.71878">
        <ele>399</ele>
        <time>2018-08-15T07:20:24.268Z</time>
      </trkpt>
      <trkpt lat="45.46412" lon="4.71878">
        <ele>399</ele>
        <time>2018-08-15T07:20:25.234Z</time>
      </trkpt>
      <trkpt lat="45.46401" lon="4.71877">
        <ele>399</ele>
        <time>2018-08-15T07:20:26.266Z</time>
      </trkpt>
      <trkpt lat="45.46401" lon="4.71877">
        <ele>399</ele>
        <time>2018-08-15T07:20:27.234Z</time>
      </trkpt>
      <trkpt lat="45.46389" lon="4.71877">
        <ele>399</ele>
        <time>2018-08-15T07:20:28.242Z</time>
      </trkpt>
      <trkpt lat="45.46389" lon="4.71877">
        <ele>399</ele>
        <time>2018-08-15T07:20:29.264Z</time>
      </trkpt>
      <trkpt lat="45.46378" lon="4.71877">
        <ele>399</ele>
        <time>2018-08-15T07:20:30.259Z</time>
      </trkpt>
      <trkpt lat="45.46372" lon="4.71877">
        <ele>400</ele>
        <time>2018-08-15T07:20:31.257Z</time>
      </trkpt>
      <trkpt lat="45.46366" lon="4.71876">
        <ele>400</ele>
        <time>2018-08-15T07:20:32.239Z</time>
      </trkpt>
      <trkpt lat="45.46366" lon="4.71876">
        <ele>400</ele>
        <time>2018-08-15T07:20:33.245Z</time>
      </trkpt>
      <trkpt lat="45.46355" lon="4.71876">
        <ele>400</ele>
        <time>2018-08-15T07:20:34.270Z</time>
      </trkpt>
      <trkpt lat="45.46355" lon="4.71876">
        <ele>400</ele>
        <time>2018-08-15T07:20:35.237Z</time>
      </trkpt>
      <trkpt lat="45.46344" lon="4.71877">
        <ele>401</ele>
        <time>2018-08-15T07:20:36.233Z</time>
      </trkpt>
      <trkpt lat="45.46344" lon="4.71877">
        <ele>401</ele>
        <time>2018-08-15T07:20:37.269Z</time>
      </trkpt>
      <trkpt lat="45.46335" lon="4.71875">
        <ele>402</ele>
        <time>2018-08-15T07:20:38.258Z</time>
      </trkpt>
      <trkpt lat="45.46335" lon="4.71875">
        <ele>402</ele>
        <time>2018-08-15T07:20:39.264Z</time>
      </trkpt>
      <trkpt lat="45.46327" lon="4.71871">
        <ele>402</ele>
        <time>2018-08-15T07:20:40.249Z</time>
      </trkpt>
      <trkpt lat="45.46327" lon="4.71871">
        <ele>402</ele>
        <time>2018-08-15T07:20:41.254Z</time>
      </trkpt>
      <trkpt lat="45.46319" lon="4.71864">
        <ele>403</ele>
        <time>2018-08-15T07:20:42.234Z</time>
      </trkpt>
      <trkpt lat="45.46315" lon="4.7186">
        <ele>403</ele>
        <time>2018-08-15T07:20:43.268Z</time>
      </trkpt>
      <trkpt lat="45.46311" lon="4.71856">
        <ele>403</ele>
        <time>2018-08-15T07:20:44.258Z</time>
      </trkpt>
      <trkpt lat="45.46311" lon="4.71856">
        <ele>403</ele>
        <time>2018-08-15T07:20:45.263Z</time>
      </trkpt>
      <trkpt lat="45.46304" lon="4.71847">
        <ele>403</ele>
        <time>2018-08-15T07:20:46.261Z</time>
      </trkpt>
      <trkpt lat="45.46304" lon="4.71847">
        <ele>403</ele>
        <time>2018-08-15T07:20:47.267Z</time>
      </trkpt>
      <trkpt lat="45.46297" lon="4.71838">
        <ele>403</ele>
        <time>2018-08-15T07:20:48.254Z</time>
      </trkpt>
      <trkpt lat="45.46297" lon="4.71838">
        <ele>403</ele>
        <time>2018-08-15T07:20:49.260Z</time>
      </trkpt>
      <trkpt lat="45.46291" lon="4.71828">
        <ele>403</ele>
        <time>2018-08-15T07:20:50.253Z</time>
      </trkpt>
      <trkpt lat="45.46291" lon="4.71828">
        <ele>403</ele>
        <time>2018-08-15T07:20:51.259Z</time>
      </trkpt>
      <trkpt lat="45.46284" lon="4.71816">
        <ele>404</ele>
        <time>2018-08-15T07:20:52.253Z</time>
      </trkpt>
      <trkpt lat="45.46284" lon="4.71816">
        <ele>404</ele>
        <time>2018-08-15T07:20:53.259Z</time>
      </trkpt>
      <trkpt lat="45.46278" lon="4.71804">
        <ele>404</ele>
        <time>2018-08-15T07:20:54.262Z</time>
      </trkpt>
      <trkpt lat="45.46275" lon="4.71798">
        <ele>404</ele>
        <time>2018-08-15T07:20:55.263Z</time>
      </trkpt>
      <trkpt lat="45.46272" lon="4.71792">
        <ele>404</ele>
        <time>2018-08-15T07:20:56.244Z</time>
      </trkpt>
      <trkpt lat="45.46272" lon="4.71792">
        <ele>404</ele>
        <time>2018-08-15T07:20:57.249Z</time>
      </trkpt>
      <trkpt lat="45.46264" lon="4.7178">
        <ele>404</ele>
        <time>2018-08-15T07:20:58.271Z</time>
      </trkpt>
      <trkpt lat="45.46264" lon="4.7178">
        <ele>404</ele>
        <time>2018-08-15T07:20:59.237Z</time>
      </trkpt>
      <trkpt lat="45.46256" lon="4.71767">
        <ele>404</ele>
        <time>2018-08-15T07:21:00.261Z</time>
      </trkpt>
      <trkpt lat="45.46252" lon="4.71761">
        <ele>404</ele>
        <time>2018-08-15T07:21:01.253Z</time>
      </trkpt>
      <trkpt lat="45.46248" lon="4.71753">
        <ele>404</ele>
        <time>2018-08-15T07:21:02.234Z</time>
      </trkpt>
      <trkpt lat="45.46248" lon="4.71753">
        <ele>404</ele>
        <time>2018-08-15T07:21:03.240Z</time>
      </trkpt>
      <trkpt lat="45.46243" lon="4.71737">
        <ele>404</ele>
        <time>2018-08-15T07:21:04.269Z</time>
      </trkpt>
      <trkpt lat="45.46243" lon="4.71737">
        <ele>404</ele>
        <time>2018-08-15T07:21:05.236Z</time>
      </trkpt>
      <trkpt lat="45.46237" lon="4.7172">
        <ele>403</ele>
        <time>2018-08-15T07:21:06.258Z</time>
      </trkpt>
      <trkpt lat="45.46237" lon="4.7172">
        <ele>403</ele>
        <time>2018-08-15T07:21:07.265Z</time>
      </trkpt>
      <trkpt lat="45.46232" lon="4.71702">
        <ele>403</ele>
        <time>2018-08-15T07:21:08.269Z</time>
      </trkpt>
      <trkpt lat="45.46232" lon="4.71702">
        <ele>403</ele>
        <time>2018-08-15T07:21:09.235Z</time>
      </trkpt>
      <trkpt lat="45.46227" lon="4.71684">
        <ele>403</ele>
        <time>2018-08-15T07:21:10.266Z</time>
      </trkpt>
      <trkpt lat="45.46227" lon="4.71684">
        <ele>403</ele>
        <time>2018-08-15T07:21:11.235Z</time>
      </trkpt>
      <trkpt lat="45.46223" lon="4.71666">
        <ele>402</ele>
        <time>2018-08-15T07:21:12.265Z</time>
      </trkpt>
      <trkpt lat="45.46223" lon="4.71666">
        <ele>402</ele>
        <time>2018-08-15T07:21:13.264Z</time>
      </trkpt>
      <trkpt lat="45.46219" lon="4.71649">
        <ele>402</ele>
        <time>2018-08-15T07:21:14.270Z</time>
      </trkpt>
      <trkpt lat="45.46219" lon="4.71649">
        <ele>402</ele>
        <time>2018-08-15T07:21:15.238Z</time>
      </trkpt>
      <trkpt lat="45.46215" lon="4.71631">
        <ele>401</ele>
        <time>2018-08-15T07:21:16.240Z</time>
      </trkpt>
      <trkpt lat="45.46215" lon="4.71631">
        <ele>401</ele>
        <time>2018-08-15T07:21:17.259Z</time>
      </trkpt>
      <trkpt lat="45.46211" lon="4.71613">
        <ele>401</ele>
        <time>2018-08-15T07:21:18.263Z</time>
      </trkpt>
      <trkpt lat="45.46209" lon="4.71604">
        <ele>401</ele>
        <time>2018-08-15T07:21:19.259Z</time>
      </trkpt>
      <trkpt lat="45.46207" lon="4.71595">
        <ele>400</ele>
        <time>2018-08-15T07:21:20.259Z</time>
      </trkpt>
      <trkpt lat="45.46207" lon="4.71595">
        <ele>400</ele>
        <time>2018-08-15T07:21:21.265Z</time>
      </trkpt>
      <trkpt lat="45.46202" lon="4.71576">
        <ele>400</ele>
        <time>2018-08-15T07:21:22.252Z</time>
      </trkpt>
      <trkpt lat="45.46202" lon="4.71576">
        <ele>400</ele>
        <time>2018-08-15T07:21:23.258Z</time>
      </trkpt>
      <trkpt lat="45.46198" lon="4.71557">
        <ele>400</ele>
        <time>2018-08-15T07:21:24.247Z</time>
      </trkpt>
      <trkpt lat="45.46198" lon="4.71557">
        <ele>400</ele>
        <time>2018-08-15T07:21:25.253Z</time>
      </trkpt>
      <trkpt lat="45.46193" lon="4.71538">
        <ele>399</ele>
        <time>2018-08-15T07:21:26.246Z</time>
      </trkpt>
      <trkpt lat="45.46193" lon="4.71538">
        <ele>399</ele>
        <time>2018-08-15T07:21:27.252Z</time>
      </trkpt>
      <trkpt lat="45.46187" lon="4.71519">
        <ele>398</ele>
        <time>2018-08-15T07:21:28.240Z</time>
      </trkpt>
      <trkpt lat="45.46187" lon="4.71519">
        <ele>398</ele>
        <time>2018-08-15T07:21:29.246Z</time>
      </trkpt>
      <trkpt lat="45.46179" lon="4.71502">
        <ele>398</ele>
        <time>2018-08-15T07:21:30.244Z</time>
      </trkpt>
      <trkpt lat="45.46175" lon="4.71494">
        <ele>397</ele>
        <time>2018-08-15T07:21:31.235Z</time>
      </trkpt>
      <trkpt lat="45.46171" lon="4.71486">
        <ele>397</ele>
        <time>2018-08-15T07:21:32.266Z</time>
      </trkpt>
      <trkpt lat="45.46171" lon="4.71486">
        <ele>397</ele>
        <time>2018-08-15T07:21:33.233Z</time>
      </trkpt>
      <trkpt lat="45.46162" lon="4.71471">
        <ele>397</ele>
        <time>2018-08-15T07:21:34.267Z</time>
      </trkpt>
      <trkpt lat="45.46158" lon="4.71464">
        <ele>396</ele>
        <time>2018-08-15T07:21:35.256Z</time>
      </trkpt>
      <trkpt lat="45.46158" lon="4.71464">
        <ele>396</ele>
        <time>2018-08-15T07:21:36.234Z</time>
      </trkpt>
      <trkpt lat="45.46147" lon="4.7145">
        <ele>396</ele>
        <time>2018-08-15T07:21:37.251Z</time>
      </trkpt>
      <trkpt lat="45.46142" lon="4.71443">
        <ele>395</ele>
        <time>2018-08-15T07:21:38.237Z</time>
      </trkpt>
      <trkpt lat="45.46142" lon="4.71443">
        <ele>395</ele>
        <time>2018-08-15T07:21:39.243Z</time>
      </trkpt>
      <trkpt lat="45.46132" lon="4.71429">
        <ele>395</ele>
        <time>2018-08-15T07:21:40.248Z</time>
      </trkpt>
      <trkpt lat="45.46132" lon="4.71429">
        <ele>395</ele>
        <time>2018-08-15T07:21:41.253Z</time>
      </trkpt>
      <trkpt lat="45.46123" lon="4.71415">
        <ele>395</ele>
        <time>2018-08-15T07:21:42.243Z</time>
      </trkpt>
      <trkpt lat="45.46123" lon="4.71415">
        <ele>395</ele>
        <time>2018-08-15T07:21:43.248Z</time>
      </trkpt>
      <trkpt lat="45.46113" lon="4.714">
        <ele>395</ele>
        <time>2018-08-15T07:21:44.243Z</time>
      </trkpt>
      <trkpt lat="45.46113" lon="4.714">
        <ele>395</ele>
        <time>2018-08-15T07:21:45.248Z</time>
      </trkpt>
      <trkpt lat="45.46105" lon="4.71384">
        <ele>394</ele>
        <time>2018-08-15T07:21:46.244Z</time>
      </trkpt>
      <trkpt lat="45.46105" lon="4.71384">
        <ele>394</ele>
        <time>2018-08-15T07:21:47.249Z</time>
      </trkpt>
      <trkpt lat="45.46096" lon="4.71368">
        <ele>394</ele>
        <time>2018-08-15T07:21:48.250Z</time>
      </trkpt>
      <trkpt lat="45.46096" lon="4.71368">
        <ele>394</ele>
        <time>2018-08-15T07:21:49.233Z</time>
      </trkpt>
      <trkpt lat="45.46087" lon="4.71352">
        <ele>394</ele>
        <time>2018-08-15T07:21:50.253Z</time>
      </trkpt>
      <trkpt lat="45.46087" lon="4.71352">
        <ele>394</ele>
        <time>2018-08-15T07:21:51.260Z</time>
      </trkpt>
      <trkpt lat="45.46079" lon="4.71337">
        <ele>393</ele>
        <time>2018-08-15T07:21:52.245Z</time>
      </trkpt>
      <trkpt lat="45.46075" lon="4.71329">
        <ele>393</ele>
        <time>2018-08-15T07:21:53.270Z</time>
      </trkpt>
      <trkpt lat="45.46075" lon="4.71329">
        <ele>393</ele>
        <time>2018-08-15T07:21:54.236Z</time>
      </trkpt>
      <trkpt lat="45.46066" lon="4.71313">
        <ele>393</ele>
        <time>2018-08-15T07:21:55.260Z</time>
      </trkpt>
      <trkpt lat="45.46062" lon="4.71305">
        <ele>392</ele>
        <time>2018-08-15T07:21:56.253Z</time>
      </trkpt>
      <trkpt lat="45.46062" lon="4.71305">
        <ele>392</ele>
        <time>2018-08-15T07:21:57.258Z</time>
      </trkpt>
      <trkpt lat="45.46053" lon="4.71289">
        <ele>392</ele>
        <time>2018-08-15T07:21:58.254Z</time>
      </trkpt>
      <trkpt lat="45.46049" lon="4.71281">
        <ele>392</ele>
        <time>2018-08-15T07:21:59.254Z</time>
      </trkpt>
      <trkpt lat="45.46049" lon="4.71281">
        <ele>392</ele>
        <time>2018-08-15T07:22:00.260Z</time>
      </trkpt>
      <trkpt lat="45.4604" lon="4.71264">
        <ele>392</ele>
        <time>2018-08-15T07:22:01.263Z</time>
      </trkpt>
      <trkpt lat="45.46037" lon="4.71256">
        <ele>392</ele>
        <time>2018-08-15T07:22:02.256Z</time>
      </trkpt>
      <trkpt lat="45.46037" lon="4.71256">
        <ele>392</ele>
        <time>2018-08-15T07:22:03.264Z</time>
      </trkpt>
      <trkpt lat="45.46029" lon="4.71237">
        <ele>391</ele>
        <time>2018-08-15T07:22:04.240Z</time>
      </trkpt>
      <trkpt lat="45.46029" lon="4.71237">
        <ele>391</ele>
        <time>2018-08-15T07:22:05.242Z</time>
      </trkpt>
      <trkpt lat="45.46023" lon="4.71217">
        <ele>391</ele>
        <time>2018-08-15T07:22:06.233Z</time>
      </trkpt>
      <trkpt lat="45.4602" lon="4.71207">
        <ele>391</ele>
        <time>2018-08-15T07:22:07.254Z</time>
      </trkpt>
      <trkpt lat="45.4602" lon="4.71207">
        <ele>391</ele>
        <time>2018-08-15T07:22:08.261Z</time>
      </trkpt>
      <trkpt lat="45.46015" lon="4.71189">
        <ele>391</ele>
        <time>2018-08-15T07:22:09.260Z</time>
      </trkpt>
      <trkpt lat="45.46015" lon="4.71189">
        <ele>391</ele>
        <time>2018-08-15T07:22:10.266Z</time>
      </trkpt>
      <trkpt lat="45.4601" lon="4.71171">
        <ele>390</ele>
        <time>2018-08-15T07:22:11.257Z</time>
      </trkpt>
      <trkpt lat="45.4601" lon="4.71171">
        <ele>390</ele>
        <time>2018-08-15T07:22:12.263Z</time>
      </trkpt>
      <trkpt lat="45.46006" lon="4.71153">
        <ele>390</ele>
        <time>2018-08-15T07:22:13.255Z</time>
      </trkpt>
      <trkpt lat="45.46004" lon="4.71144">
        <ele>390</ele>
        <time>2018-08-15T07:22:14.259Z</time>
      </trkpt>
      <trkpt lat="45.46004" lon="4.71144">
        <ele>390</ele>
        <time>2018-08-15T07:22:15.265Z</time>
      </trkpt>
      <trkpt lat="45.46001" lon="4.71125">
        <ele>390</ele>
        <time>2018-08-15T07:22:16.259Z</time>
      </trkpt>
      <trkpt lat="45.46001" lon="4.71125">
        <ele>390</ele>
        <time>2018-08-15T07:22:17.240Z</time>
      </trkpt>
      <trkpt lat="45.45999" lon="4.71105">
        <ele>390</ele>
        <time>2018-08-15T07:22:18.264Z</time>
      </trkpt>
      <trkpt lat="45.45999" lon="4.71105">
        <ele>390</ele>
        <time>2018-08-15T07:22:19.233Z</time>
      </trkpt>
      <trkpt lat="45.45996" lon="4.71085">
        <ele>389</ele>
        <time>2018-08-15T07:22:20.256Z</time>
      </trkpt>
      <trkpt lat="45.45996" lon="4.71085">
        <ele>389</ele>
        <time>2018-08-15T07:22:21.262Z</time>
      </trkpt>
      <trkpt lat="45.4599" lon="4.71066">
        <ele>389</ele>
        <time>2018-08-15T07:22:22.266Z</time>
      </trkpt>
      <trkpt lat="45.4599" lon="4.71066">
        <ele>389</ele>
        <time>2018-08-15T07:22:23.232Z</time>
      </trkpt>
      <trkpt lat="45.45982" lon="4.7105">
        <ele>388</ele>
        <time>2018-08-15T07:22:24.272Z</time>
      </trkpt>
      <trkpt lat="45.45982" lon="4.7105">
        <ele>388</ele>
        <time>2018-08-15T07:22:25.238Z</time>
      </trkpt>
      <trkpt lat="45.45974" lon="4.71033">
        <ele>388</ele>
        <time>2018-08-15T07:22:26.233Z</time>
      </trkpt>
      <trkpt lat="45.45974" lon="4.71033">
        <ele>388</ele>
        <time>2018-08-15T07:22:27.240Z</time>
      </trkpt>
      <trkpt lat="45.45966" lon="4.71017">
        <ele>387</ele>
        <time>2018-08-15T07:22:28.238Z</time>
      </trkpt>
      <trkpt lat="45.45966" lon="4.71017">
        <ele>387</ele>
        <time>2018-08-15T07:22:29.243Z</time>
      </trkpt>
      <trkpt lat="45.45957" lon="4.71001">
        <ele>387</ele>
        <time>2018-08-15T07:22:30.243Z</time>
      </trkpt>
      <trkpt lat="45.45953" lon="4.70993">
        <ele>387</ele>
        <time>2018-08-15T07:22:31.235Z</time>
      </trkpt>
      <trkpt lat="45.45949" lon="4.70984">
        <ele>386</ele>
        <time>2018-08-15T07:22:32.260Z</time>
      </trkpt>
      <trkpt lat="45.45949" lon="4.70984">
        <ele>386</ele>
        <time>2018-08-15T07:22:33.266Z</time>
      </trkpt>
      <trkpt lat="45.4594" lon="4.70967">
        <ele>386</ele>
        <time>2018-08-15T07:22:34.260Z</time>
      </trkpt>
      <trkpt lat="45.4594" lon="4.70967">
        <ele>386</ele>
        <time>2018-08-15T07:22:35.265Z</time>
      </trkpt>
      <trkpt lat="45.45931" lon="4.70951">
        <ele>386</ele>
        <time>2018-08-15T07:22:36.262Z</time>
      </trkpt>
      <trkpt lat="45.45926" lon="4.70943">
        <ele>385</ele>
        <time>2018-08-15T07:22:37.256Z</time>
      </trkpt>
      <trkpt lat="45.45926" lon="4.70943">
        <ele>385</ele>
        <time>2018-08-15T07:22:38.263Z</time>
      </trkpt>
      <trkpt lat="45.45916" lon="4.70928">
        <ele>385</ele>
        <time>2018-08-15T07:22:39.256Z</time>
      </trkpt>
      <trkpt lat="45.45916" lon="4.70928">
        <ele>385</ele>
        <time>2018-08-15T07:22:40.261Z</time>
      </trkpt>
      <trkpt lat="45.45905" lon="4.70915">
        <ele>385</ele>
        <time>2018-08-15T07:22:41.253Z</time>
      </trkpt>
      <trkpt lat="45.45905" lon="4.70915">
        <ele>385</ele>
        <time>2018-08-15T07:22:42.259Z</time>
      </trkpt>
      <trkpt lat="45.45893" lon="4.70906">
        <ele>385</ele>
        <time>2018-08-15T07:22:43.263Z</time>
      </trkpt>
      <trkpt lat="45.45886" lon="4.70902">
        <ele>385</ele>
        <time>2018-08-15T07:22:44.259Z</time>
      </trkpt>
      <trkpt lat="45.45886" lon="4.70902">
        <ele>385</ele>
        <time>2018-08-15T07:22:45.264Z</time>
      </trkpt>
      <trkpt lat="45.45873" lon="4.70896">
        <ele>385</ele>
        <time>2018-08-15T07:22:46.261Z</time>
      </trkpt>
      <trkpt lat="45.45873" lon="4.70896">
        <ele>385</ele>
        <time>2018-08-15T07:22:47.269Z</time>
      </trkpt>
      <trkpt lat="45.4586" lon="4.70892">
        <ele>385</ele>
        <time>2018-08-15T07:22:48.261Z</time>
      </trkpt>
      <trkpt lat="45.4586" lon="4.70892">
        <ele>385</ele>
        <time>2018-08-15T07:22:49.269Z</time>
      </trkpt>
      <trkpt lat="45.45848" lon="4.70888">
        <ele>386</ele>
        <time>2018-08-15T07:22:50.261Z</time>
      </trkpt>
      <trkpt lat="45.45848" lon="4.70888">
        <ele>386</ele>
        <time>2018-08-15T07:22:51.267Z</time>
      </trkpt>
      <trkpt lat="45.45837" lon="4.70884">
        <ele>386</ele>
        <time>2018-08-15T07:22:52.270Z</time>
      </trkpt>
      <trkpt lat="45.45837" lon="4.70884">
        <ele>386</ele>
        <time>2018-08-15T07:22:53.237Z</time>
      </trkpt>
      <trkpt lat="45.45826" lon="4.70879">
        <ele>387</ele>
        <time>2018-08-15T07:22:54.235Z</time>
      </trkpt>
      <trkpt lat="45.45826" lon="4.70879">
        <ele>387</ele>
        <time>2018-08-15T07:22:55.241Z</time>
      </trkpt>
      <trkpt lat="45.45816" lon="4.70874">
        <ele>387</ele>
        <time>2018-08-15T07:22:56.232Z</time>
      </trkpt>
      <trkpt lat="45.45816" lon="4.70874">
        <ele>387</ele>
        <time>2018-08-15T07:22:57.238Z</time>
      </trkpt>
      <trkpt lat="45.45807" lon="4.70869">
        <ele>387</ele>
        <time>2018-08-15T07:22:58.234Z</time>
      </trkpt>
      <trkpt lat="45.45803" lon="4.70865">
        <ele>387</ele>
        <time>2018-08-15T07:22:59.233Z</time>
      </trkpt>
      <trkpt lat="45.45803" lon="4.70865">
        <ele>387</ele>
        <time>2018-08-15T07:23:00.241Z</time>
      </trkpt>
      <trkpt lat="45.45794" lon="4.70855">
        <ele>387</ele>
        <time>2018-08-15T07:23:01.271Z</time>
      </trkpt>
      <trkpt lat="45.45791" lon="4.70849">
        <ele>387</ele>
        <time>2018-08-15T07:23:02.267Z</time>
      </trkpt>
      <trkpt lat="45.45791" lon="4.70849">
        <ele>387</ele>
        <time>2018-08-15T07:23:03.234Z</time>
      </trkpt>
      <trkpt lat="45.45784" lon="4.70836">
        <ele>387</ele>
        <time>2018-08-15T07:23:04.268Z</time>
      </trkpt>
      <trkpt lat="45.45784" lon="4.70836">
        <ele>387</ele>
        <time>2018-08-15T07:23:05.234Z</time>
      </trkpt>
      <trkpt lat="45.45779" lon="4.70822">
        <ele>387</ele>
        <time>2018-08-15T07:23:06.257Z</time>
      </trkpt>
      <trkpt lat="45.45779" lon="4.70822">
        <ele>387</ele>
        <time>2018-08-15T07:23:07.262Z</time>
      </trkpt>
      <trkpt lat="45.45775" lon="4.70806">
        <ele>387</ele>
        <time>2018-08-15T07:23:08.252Z</time>
      </trkpt>
      <trkpt lat="45.45775" lon="4.70806">
        <ele>387</ele>
        <time>2018-08-15T07:23:09.258Z</time>
      </trkpt>
      <trkpt lat="45.45772" lon="4.7079">
        <ele>387</ele>
        <time>2018-08-15T07:23:10.242Z</time>
      </trkpt>
      <trkpt lat="45.45772" lon="4.7079">
        <ele>387</ele>
        <time>2018-08-15T07:23:11.247Z</time>
      </trkpt>
      <trkpt lat="45.45768" lon="4.70774">
        <ele>387</ele>
        <time>2018-08-15T07:23:12.232Z</time>
      </trkpt>
      <trkpt lat="45.45768" lon="4.70774">
        <ele>387</ele>
        <time>2018-08-15T07:23:13.237Z</time>
      </trkpt>
      <trkpt lat="45.45764" lon="4.70758">
        <ele>387</ele>
        <time>2018-08-15T07:23:14.243Z</time>
      </trkpt>
      <trkpt lat="45.45764" lon="4.70758">
        <ele>387</ele>
        <time>2018-08-15T07:23:15.248Z</time>
      </trkpt>
      <trkpt lat="45.4576" lon="4.70742">
        <ele>387</ele>
        <time>2018-08-15T07:23:16.250Z</time>
      </trkpt>
      <trkpt lat="45.4576" lon="4.70742">
        <ele>387</ele>
        <time>2018-08-15T07:23:17.256Z</time>
      </trkpt>
      <trkpt lat="45.45755" lon="4.70726">
        <ele>386</ele>
        <time>2018-08-15T07:23:18.259Z</time>
      </trkpt>
      <trkpt lat="45.45755" lon="4.70726">
        <ele>386</ele>
        <time>2018-08-15T07:23:19.266Z</time>
      </trkpt>
      <trkpt lat="45.45747" lon="4.70711">
        <ele>385</ele>
        <time>2018-08-15T07:23:20.257Z</time>
      </trkpt>
      <trkpt lat="45.45747" lon="4.70711">
        <ele>385</ele>
        <time>2018-08-15T07:23:21.263Z</time>
      </trkpt>
      <trkpt lat="45.45741" lon="4.70695">
        <ele>385</ele>
        <time>2018-08-15T07:23:22.264Z</time>
      </trkpt>
      <trkpt lat="45.45741" lon="4.70695">
        <ele>385</ele>
        <time>2018-08-15T07:23:23.242Z</time>
      </trkpt>
      <trkpt lat="45.45741" lon="4.70679">
        <ele>385</ele>
        <time>2018-08-15T07:23:24.249Z</time>
      </trkpt>
      <trkpt lat="45.45741" lon="4.70679">
        <ele>385</ele>
        <time>2018-08-15T07:23:25.254Z</time>
      </trkpt>
      <trkpt lat="45.45745" lon="4.70664">
        <ele>385</ele>
        <time>2018-08-15T07:23:26.254Z</time>
      </trkpt>
      <trkpt lat="45.45745" lon="4.70664">
        <ele>385</ele>
        <time>2018-08-15T07:23:27.259Z</time>
      </trkpt>
      <trkpt lat="45.45745" lon="4.7065">
        <ele>385</ele>
        <time>2018-08-15T07:23:28.247Z</time>
      </trkpt>
      <trkpt lat="45.45745" lon="4.7065">
        <ele>385</ele>
        <time>2018-08-15T07:23:29.252Z</time>
      </trkpt>
      <trkpt lat="45.45745" lon="4.70638">
        <ele>385</ele>
        <time>2018-08-15T07:23:30.243Z</time>
      </trkpt>
      <trkpt lat="45.45745" lon="4.70638">
        <ele>385</ele>
        <time>2018-08-15T07:23:31.248Z</time>
      </trkpt>
      <trkpt lat="45.45745" lon="4.70626">
        <ele>385</ele>
        <time>2018-08-15T07:23:32.243Z</time>
      </trkpt>
      <trkpt lat="45.45745" lon="4.70626">
        <ele>385</ele>
        <time>2018-08-15T07:23:33.248Z</time>
      </trkpt>
      <trkpt lat="45.45744" lon="4.70615">
        <ele>386</ele>
        <time>2018-08-15T07:23:34.237Z</time>
      </trkpt>
      <trkpt lat="45.45744" lon="4.70615">
        <ele>386</ele>
        <time>2018-08-15T07:23:35.242Z</time>
      </trkpt>
      <trkpt lat="45.45744" lon="4.70605">
        <ele>386</ele>
        <time>2018-08-15T07:23:36.251Z</time>
      </trkpt>
      <trkpt lat="45.45744" lon="4.706">
        <ele>386</ele>
        <time>2018-08-15T07:23:37.235Z</time>
      </trkpt>
      <trkpt lat="45.45744" lon="4.70595">
        <ele>386</ele>
        <time>2018-08-15T07:23:38.261Z</time>
      </trkpt>
      <trkpt lat="45.45744" lon="4.70595">
        <ele>386</ele>
        <time>2018-08-15T07:23:39.267Z</time>
      </trkpt>
      <trkpt lat="45.45743" lon="4.70585">
        <ele>387</ele>
        <time>2018-08-15T07:23:40.260Z</time>
      </trkpt>
      <trkpt lat="45.45743" lon="4.70585">
        <ele>387</ele>
        <time>2018-08-15T07:23:41.268Z</time>
      </trkpt>
      <trkpt lat="45.45743" lon="4.70575">
        <ele>387</ele>
        <time>2018-08-15T07:23:42.263Z</time>
      </trkpt>
      <trkpt lat="45.45743" lon="4.7057">
        <ele>387</ele>
        <time>2018-08-15T07:23:43.260Z</time>
      </trkpt>
      <trkpt lat="45.45743" lon="4.70566">
        <ele>388</ele>
        <time>2018-08-15T07:23:44.239Z</time>
      </trkpt>
      <trkpt lat="45.45743" lon="4.70566">
        <ele>388</ele>
        <time>2018-08-15T07:23:45.259Z</time>
      </trkpt>
      <trkpt lat="45.45743" lon="4.70557">
        <ele>388</ele>
        <time>2018-08-15T07:23:46.251Z</time>
      </trkpt>
      <trkpt lat="45.45743" lon="4.70557">
        <ele>388</ele>
        <time>2018-08-15T07:23:47.256Z</time>
      </trkpt>
      <trkpt lat="45.45743" lon="4.70547">
        <ele>388</ele>
        <time>2018-08-15T07:23:48.248Z</time>
      </trkpt>
      <trkpt lat="45.45743" lon="4.70547">
        <ele>388</ele>
        <time>2018-08-15T07:23:49.258Z</time>
      </trkpt>
      <trkpt lat="45.45742" lon="4.70538">
        <ele>388</ele>
        <time>2018-08-15T07:23:50.237Z</time>
      </trkpt>
      <trkpt lat="45.45742" lon="4.70538">
        <ele>388</ele>
        <time>2018-08-15T07:23:51.241Z</time>
      </trkpt>
      <trkpt lat="45.4574" lon="4.70529">
        <ele>389</ele>
        <time>2018-08-15T07:23:52.246Z</time>
      </trkpt>
      <trkpt lat="45.4574" lon="4.70529">
        <ele>389</ele>
        <time>2018-08-15T07:23:53.251Z</time>
      </trkpt>
      <trkpt lat="45.4574" lon="4.7052">
        <ele>389</ele>
        <time>2018-08-15T07:23:54.243Z</time>
      </trkpt>
      <trkpt lat="45.45739" lon="4.70516">
        <ele>389</ele>
        <time>2018-08-15T07:23:55.238Z</time>
      </trkpt>
      <trkpt lat="45.45738" lon="4.70512">
        <ele>389</ele>
        <time>2018-08-15T07:23:56.265Z</time>
      </trkpt>
      <trkpt lat="45.45738" lon="4.70512">
        <ele>389</ele>
        <time>2018-08-15T07:23:57.271Z</time>
      </trkpt>
      <trkpt lat="45.45737" lon="4.70503">
        <ele>389</ele>
        <time>2018-08-15T07:23:58.253Z</time>
      </trkpt>
      <trkpt lat="45.45737" lon="4.70503">
        <ele>389</ele>
        <time>2018-08-15T07:23:59.259Z</time>
      </trkpt>
      <trkpt lat="45.45736" lon="4.70495">
        <ele>390</ele>
        <time>2018-08-15T07:24:00.259Z</time>
      </trkpt>
      <trkpt lat="45.45736" lon="4.70495">
        <ele>390</ele>
        <time>2018-08-15T07:24:01.264Z</time>
      </trkpt>
      <trkpt lat="45.45735" lon="4.70486">
        <ele>390</ele>
        <time>2018-08-15T07:24:02.235Z</time>
      </trkpt>
      <trkpt lat="45.45735" lon="4.70486">
        <ele>390</ele>
        <time>2018-08-15T07:24:03.240Z</time>
      </trkpt>
      <trkpt lat="45.45733" lon="4.70478">
        <ele>390</ele>
        <time>2018-08-15T07:24:04.266Z</time>
      </trkpt>
      <trkpt lat="45.45733" lon="4.70478">
        <ele>390</ele>
        <time>2018-08-15T07:24:05.232Z</time>
      </trkpt>
      <trkpt lat="45.45732" lon="4.7047">
        <ele>391</ele>
        <time>2018-08-15T07:24:06.262Z</time>
      </trkpt>
      <trkpt lat="45.45732" lon="4.7047">
        <ele>391</ele>
        <time>2018-08-15T07:24:07.268Z</time>
      </trkpt>
      <trkpt lat="45.45732" lon="4.70462">
        <ele>391</ele>
        <time>2018-08-15T07:24:08.253Z</time>
      </trkpt>
      <trkpt lat="45.45732" lon="4.70462">
        <ele>391</ele>
        <time>2018-08-15T07:24:09.258Z</time>
      </trkpt>
      <trkpt lat="45.45731" lon="4.70455">
        <ele>391</ele>
        <time>2018-08-15T07:24:10.257Z</time>
      </trkpt>
      <trkpt lat="45.45731" lon="4.70455">
        <ele>391</ele>
        <time>2018-08-15T07:24:11.263Z</time>
      </trkpt>
      <trkpt lat="45.45731" lon="4.70448">
        <ele>392</ele>
        <time>2018-08-15T07:24:12.265Z</time>
      </trkpt>
      <trkpt lat="45.45731" lon="4.70448">
        <ele>392</ele>
        <time>2018-08-15T07:24:13.232Z</time>
      </trkpt>
      <trkpt lat="45.45731" lon="4.7044">
        <ele>392</ele>
        <time>2018-08-15T07:24:14.270Z</time>
      </trkpt>
      <trkpt lat="45.45731" lon="4.7044">
        <ele>392</ele>
        <time>2018-08-15T07:24:15.244Z</time>
      </trkpt>
      <trkpt lat="45.45731" lon="4.70433">
        <ele>393</ele>
        <time>2018-08-15T07:24:16.239Z</time>
      </trkpt>
      <trkpt lat="45.45731" lon="4.70433">
        <ele>393</ele>
        <time>2018-08-15T07:24:17.244Z</time>
      </trkpt>
      <trkpt lat="45.45731" lon="4.70427">
        <ele>394</ele>
        <time>2018-08-15T07:24:18.241Z</time>
      </trkpt>
      <trkpt lat="45.45731" lon="4.70427">
        <ele>394</ele>
        <time>2018-08-15T07:24:19.248Z</time>
      </trkpt>
      <trkpt lat="45.45732" lon="4.7042">
        <ele>394</ele>
        <time>2018-08-15T07:24:20.236Z</time>
      </trkpt>
      <trkpt lat="45.45732" lon="4.7042">
        <ele>394</ele>
        <time>2018-08-15T07:24:21.242Z</time>
      </trkpt>
      <trkpt lat="45.45732" lon="4.70413">
        <ele>394</ele>
        <time>2018-08-15T07:24:22.263Z</time>
      </trkpt>
      <trkpt lat="45.45732" lon="4.70413">
        <ele>394</ele>
        <time>2018-08-15T07:24:23.232Z</time>
      </trkpt>
      <trkpt lat="45.45733" lon="4.70407">
        <ele>395</ele>
        <time>2018-08-15T07:24:24.260Z</time>
      </trkpt>
      <trkpt lat="45.45733" lon="4.70407">
        <ele>395</ele>
        <time>2018-08-15T07:24:25.271Z</time>
      </trkpt>
      <trkpt lat="45.45734" lon="4.704">
        <ele>395</ele>
        <time>2018-08-15T07:24:26.259Z</time>
      </trkpt>
      <trkpt lat="45.45734" lon="4.704">
        <ele>395</ele>
        <time>2018-08-15T07:24:27.266Z</time>
      </trkpt>
      <trkpt lat="45.45734" lon="4.70394">
        <ele>395</ele>
        <time>2018-08-15T07:24:28.249Z</time>
      </trkpt>
      <trkpt lat="45.45734" lon="4.70394">
        <ele>395</ele>
        <time>2018-08-15T07:24:29.254Z</time>
      </trkpt>
      <trkpt lat="45.45735" lon="4.70388">
        <ele>396</ele>
        <time>2018-08-15T07:24:30.237Z</time>
      </trkpt>
      <trkpt lat="45.45735" lon="4.70388">
        <ele>396</ele>
        <time>2018-08-15T07:24:31.242Z</time>
      </trkpt>
      <trkpt lat="45.45736" lon="4.70381">
        <ele>396</ele>
        <time>2018-08-15T07:24:32.246Z</time>
      </trkpt>
      <trkpt lat="45.45736" lon="4.70381">
        <ele>396</ele>
        <time>2018-08-15T07:24:33.251Z</time>
      </trkpt>
      <trkpt lat="45.45737" lon="4.70374">
        <ele>397</ele>
        <time>2018-08-15T07:24:34.249Z</time>
      </trkpt>
      <trkpt lat="45.45737" lon="4.70374">
        <ele>397</ele>
        <time>2018-08-15T07:24:35.254Z</time>
      </trkpt>
      <trkpt lat="45.45737" lon="4.70368">
        <ele>397</ele>
        <time>2018-08-15T07:24:36.271Z</time>
      </trkpt>
      <trkpt lat="45.45738" lon="4.70365">
        <ele>397</ele>
        <time>2018-08-15T07:24:37.271Z</time>
      </trkpt>
      <trkpt lat="45.45738" lon="4.70361">
        <ele>397</ele>
        <time>2018-08-15T07:24:38.232Z</time>
      </trkpt>
      <trkpt lat="45.45738" lon="4.70361">
        <ele>397</ele>
        <time>2018-08-15T07:24:39.238Z</time>
      </trkpt>
      <trkpt lat="45.45739" lon="4.70355">
        <ele>398</ele>
        <time>2018-08-15T07:24:40.269Z</time>
      </trkpt>
      <trkpt lat="45.45739" lon="4.70355">
        <ele>398</ele>
        <time>2018-08-15T07:24:41.235Z</time>
      </trkpt>
      <trkpt lat="45.45739" lon="4.70349">
        <ele>398</ele>
        <time>2018-08-15T07:24:42.259Z</time>
      </trkpt>
      <trkpt lat="45.45739" lon="4.70349">
        <ele>398</ele>
        <time>2018-08-15T07:24:43.265Z</time>
      </trkpt>
      <trkpt lat="45.45741" lon="4.70343">
        <ele>398</ele>
        <time>2018-08-15T07:24:44.265Z</time>
      </trkpt>
      <trkpt lat="45.45741" lon="4.70343">
        <ele>398</ele>
        <time>2018-08-15T07:24:45.234Z</time>
      </trkpt>
      <trkpt lat="45.45742" lon="4.70338">
        <ele>399</ele>
        <time>2018-08-15T07:24:46.232Z</time>
      </trkpt>
      <trkpt lat="45.45742" lon="4.70336">
        <ele>399</ele>
        <time>2018-08-15T07:24:47.268Z</time>
      </trkpt>
      <trkpt lat="45.45742" lon="4.70333">
        <ele>399</ele>
        <time>2018-08-15T07:24:48.258Z</time>
      </trkpt>
      <trkpt lat="45.45742" lon="4.70333">
        <ele>399</ele>
        <time>2018-08-15T07:24:49.271Z</time>
      </trkpt>
      <trkpt lat="45.45743" lon="4.70327">
        <ele>399</ele>
        <time>2018-08-15T07:24:50.253Z</time>
      </trkpt>
      <trkpt lat="45.45743" lon="4.70327">
        <ele>399</ele>
        <time>2018-08-15T07:24:51.261Z</time>
      </trkpt>
      <trkpt lat="45.45744" lon="4.70322">
        <ele>400</ele>
        <time>2018-08-15T07:24:52.253Z</time>
      </trkpt>
      <trkpt lat="45.45744" lon="4.70322">
        <ele>400</ele>
        <time>2018-08-15T07:24:53.259Z</time>
      </trkpt>
      <trkpt lat="45.45744" lon="4.70317">
        <ele>400</ele>
        <time>2018-08-15T07:24:54.242Z</time>
      </trkpt>
      <trkpt lat="45.45744" lon="4.70317">
        <ele>400</ele>
        <time>2018-08-15T07:24:55.248Z</time>
      </trkpt>
      <trkpt lat="45.45745" lon="4.70312">
        <ele>401</ele>
        <time>2018-08-15T07:24:56.239Z</time>
      </trkpt>
      <trkpt lat="45.45745" lon="4.70312">
        <ele>401</ele>
        <time>2018-08-15T07:24:57.244Z</time>
      </trkpt>
      <trkpt lat="45.45746" lon="4.70307">
        <ele>401</ele>
        <time>2018-08-15T07:24:58.250Z</time>
      </trkpt>
      <trkpt lat="45.45747" lon="4.70305">
        <ele>401</ele>
        <time>2018-08-15T07:24:59.243Z</time>
      </trkpt>
      <trkpt lat="45.45747" lon="4.70305">
        <ele>401</ele>
        <time>2018-08-15T07:25:00.249Z</time>
      </trkpt>
      <trkpt lat="45.45748" lon="4.703">
        <ele>402</ele>
        <time>2018-08-15T07:25:01.253Z</time>
      </trkpt>
      <trkpt lat="45.45749" lon="4.70297">
        <ele>402</ele>
        <time>2018-08-15T07:25:02.263Z</time>
      </trkpt>
      <trkpt lat="45.45749" lon="4.70297">
        <ele>402</ele>
        <time>2018-08-15T07:25:03.238Z</time>
      </trkpt>
      <trkpt lat="45.4575" lon="4.70292">
        <ele>403</ele>
        <time>2018-08-15T07:25:04.270Z</time>
      </trkpt>
      <trkpt lat="45.4575" lon="4.70292">
        <ele>403</ele>
        <time>2018-08-15T07:25:05.236Z</time>
      </trkpt>
      <trkpt lat="45.45751" lon="4.70287">
        <ele>403</ele>
        <time>2018-08-15T07:25:06.265Z</time>
      </trkpt>
      <trkpt lat="45.45751" lon="4.70287">
        <ele>403</ele>
        <time>2018-08-15T07:25:07.271Z</time>
      </trkpt>
      <trkpt lat="45.45753" lon="4.70282">
        <ele>403</ele>
        <time>2018-08-15T07:25:08.245Z</time>
      </trkpt>
      <trkpt lat="45.45753" lon="4.70282">
        <ele>403</ele>
        <time>2018-08-15T07:25:09.251Z</time>
      </trkpt>
      <trkpt lat="45.45754" lon="4.70276">
        <ele>404</ele>
        <time>2018-08-15T07:25:10.257Z</time>
      </trkpt>
      <trkpt lat="45.45754" lon="4.70276">
        <ele>404</ele>
        <time>2018-08-15T07:25:11.263Z</time>
      </trkpt>
      <trkpt lat="45.45755" lon="4.7027">
        <ele>404</ele>
        <time>2018-08-15T07:25:12.256Z</time>
      </trkpt>
      <trkpt lat="45.45755" lon="4.7027">
        <ele>404</ele>
        <time>2018-08-15T07:25:13.262Z</time>
      </trkpt>
      <trkpt lat="45.45755" lon="4.70264">
        <ele>404</ele>
        <time>2018-08-15T07:25:14.252Z</time>
      </trkpt>
      <trkpt lat="45.45755" lon="4.70264">
        <ele>404</ele>
        <time>2018-08-15T07:25:15.258Z</time>
      </trkpt>
      <trkpt lat="45.45755" lon="4.70258">
        <ele>404</ele>
        <time>2018-08-15T07:25:16.239Z</time>
      </trkpt>
      <trkpt lat="45.45755" lon="4.70258">
        <ele>404</ele>
        <time>2018-08-15T07:25:17.244Z</time>
      </trkpt>
      <trkpt lat="45.45756" lon="4.70252">
        <ele>405</ele>
        <time>2018-08-15T07:25:18.237Z</time>
      </trkpt>
      <trkpt lat="45.45756" lon="4.70249">
        <ele>405</ele>
        <time>2018-08-15T07:25:19.234Z</time>
      </trkpt>
      <trkpt lat="45.45757" lon="4.70246">
        <ele>405</ele>
        <time>2018-08-15T07:25:20.248Z</time>
      </trkpt>
      <trkpt lat="45.45757" lon="4.70246">
        <ele>405</ele>
        <time>2018-08-15T07:25:21.254Z</time>
      </trkpt>
      <trkpt lat="45.45757" lon="4.70241">
        <ele>405</ele>
        <time>2018-08-15T07:25:22.239Z</time>
      </trkpt>
      <trkpt lat="45.45757" lon="4.70241">
        <ele>405</ele>
        <time>2018-08-15T07:25:23.244Z</time>
      </trkpt>
      <trkpt lat="45.45757" lon="4.70235">
        <ele>406</ele>
        <time>2018-08-15T07:25:24.262Z</time>
      </trkpt>
      <trkpt lat="45.45757" lon="4.70235">
        <ele>406</ele>
        <time>2018-08-15T07:25:25.268Z</time>
      </trkpt>
      <trkpt lat="45.45757" lon="4.70229">
        <ele>406</ele>
        <time>2018-08-15T07:25:26.253Z</time>
      </trkpt>
      <trkpt lat="45.45757" lon="4.70229">
        <ele>406</ele>
        <time>2018-08-15T07:25:27.259Z</time>
      </trkpt>
      <trkpt lat="45.45757" lon="4.70224">
        <ele>406</ele>
        <time>2018-08-15T07:25:28.244Z</time>
      </trkpt>
      <trkpt lat="45.45757" lon="4.70224">
        <ele>406</ele>
        <time>2018-08-15T07:25:29.250Z</time>
      </trkpt>
      <trkpt lat="45.45758" lon="4.70218">
        <ele>406</ele>
        <time>2018-08-15T07:25:30.250Z</time>
      </trkpt>
      <trkpt lat="45.45758" lon="4.70218">
        <ele>406</ele>
        <time>2018-08-15T07:25:31.255Z</time>
      </trkpt>
      <trkpt lat="45.45758" lon="4.70212">
        <ele>407</ele>
        <time>2018-08-15T07:25:32.248Z</time>
      </trkpt>
      <trkpt lat="45.45758" lon="4.70212">
        <ele>407</ele>
        <time>2018-08-15T07:25:33.253Z</time>
      </trkpt>
      <trkpt lat="45.45758" lon="4.70206">
        <ele>407</ele>
        <time>2018-08-15T07:25:34.244Z</time>
      </trkpt>
      <trkpt lat="45.45758" lon="4.70206">
        <ele>407</ele>
        <time>2018-08-15T07:25:35.250Z</time>
      </trkpt>
      <trkpt lat="45.45759" lon="4.702">
        <ele>407</ele>
        <time>2018-08-15T07:25:36.253Z</time>
      </trkpt>
      <trkpt lat="45.45759" lon="4.70196">
        <ele>407</ele>
        <time>2018-08-15T07:25:37.234Z</time>
      </trkpt>
      <trkpt lat="45.45759" lon="4.70194">
        <ele>407</ele>
        <time>2018-08-15T07:25:38.234Z</time>
      </trkpt>
      <trkpt lat="45.45759" lon="4.70194">
        <ele>407</ele>
        <time>2018-08-15T07:25:39.249Z</time>
      </trkpt>
      <trkpt lat="45.45759" lon="4.70188">
        <ele>408</ele>
        <time>2018-08-15T07:25:40.234Z</time>
      </trkpt>
      <trkpt lat="45.45759" lon="4.70188">
        <ele>408</ele>
        <time>2018-08-15T07:25:41.240Z</time>
      </trkpt>
      <trkpt lat="45.45759" lon="4.70182">
        <ele>408</ele>
        <time>2018-08-15T07:25:42.236Z</time>
      </trkpt>
      <trkpt lat="45.45759" lon="4.70179">
        <ele>408</ele>
        <time>2018-08-15T07:25:43.233Z</time>
      </trkpt>
      <trkpt lat="45.45759" lon="4.70179">
        <ele>408</ele>
        <time>2018-08-15T07:25:44.244Z</time>
      </trkpt>
      <trkpt lat="45.45759" lon="4.70174">
        <ele>409</ele>
        <time>2018-08-15T07:25:45.238Z</time>
      </trkpt>
      <trkpt lat="45.45759" lon="4.70174">
        <ele>409</ele>
        <time>2018-08-15T07:25:46.244Z</time>
      </trkpt>
      <trkpt lat="45.45759" lon="4.70168">
        <ele>409</ele>
        <time>2018-08-15T07:25:47.233Z</time>
      </trkpt>
      <trkpt lat="45.45759" lon="4.70168">
        <ele>409</ele>
        <time>2018-08-15T07:25:48.239Z</time>
      </trkpt>
      <trkpt lat="45.4576" lon="4.70163">
        <ele>410</ele>
        <time>2018-08-15T07:25:49.260Z</time>
      </trkpt>
      <trkpt lat="45.4576" lon="4.70163">
        <ele>410</ele>
        <time>2018-08-15T07:25:50.266Z</time>
      </trkpt>
      <trkpt lat="45.45761" lon="4.70157">
        <ele>410</ele>
        <time>2018-08-15T07:25:51.252Z</time>
      </trkpt>
      <trkpt lat="45.45761" lon="4.70157">
        <ele>410</ele>
        <time>2018-08-15T07:25:52.258Z</time>
      </trkpt>
      <trkpt lat="45.45761" lon="4.70151">
        <ele>410</ele>
        <time>2018-08-15T07:25:53.240Z</time>
      </trkpt>
      <trkpt lat="45.45761" lon="4.70151">
        <ele>410</ele>
        <time>2018-08-15T07:25:54.247Z</time>
      </trkpt>
      <trkpt lat="45.45762" lon="4.70145">
        <ele>410</ele>
        <time>2018-08-15T07:25:55.273Z</time>
      </trkpt>
      <trkpt lat="45.45763" lon="4.70142">
        <ele>410</ele>
        <time>2018-08-15T07:25:56.269Z</time>
      </trkpt>
      <trkpt lat="45.45763" lon="4.70142">
        <ele>410</ele>
        <time>2018-08-15T07:25:57.235Z</time>
      </trkpt>
      <trkpt lat="45.45764" lon="4.70137">
        <ele>410</ele>
        <time>2018-08-15T07:25:58.260Z</time>
      </trkpt>
      <trkpt lat="45.45764" lon="4.70137">
        <ele>410</ele>
        <time>2018-08-15T07:25:59.265Z</time>
      </trkpt>
      <trkpt lat="45.45765" lon="4.70132">
        <ele>411</ele>
        <time>2018-08-15T07:26:00.261Z</time>
      </trkpt>
      <trkpt lat="45.45765" lon="4.70132">
        <ele>411</ele>
        <time>2018-08-15T07:26:01.232Z</time>
      </trkpt>
      <trkpt lat="45.45766" lon="4.70127">
        <ele>411</ele>
        <time>2018-08-15T07:26:02.260Z</time>
      </trkpt>
      <trkpt lat="45.45766" lon="4.70127">
        <ele>411</ele>
        <time>2018-08-15T07:26:03.271Z</time>
      </trkpt>
      <trkpt lat="45.45767" lon="4.70122">
        <ele>411</ele>
        <time>2018-08-15T07:26:04.267Z</time>
      </trkpt>
      <trkpt lat="45.45767" lon="4.70122">
        <ele>411</ele>
        <time>2018-08-15T07:26:05.233Z</time>
      </trkpt>
      <trkpt lat="45.45768" lon="4.70117">
        <ele>412</ele>
        <time>2018-08-15T07:26:06.238Z</time>
      </trkpt>
      <trkpt lat="45.45768" lon="4.70117">
        <ele>412</ele>
        <time>2018-08-15T07:26:07.244Z</time>
      </trkpt>
      <trkpt lat="45.45769" lon="4.70111">
        <ele>412</ele>
        <time>2018-08-15T07:26:08.246Z</time>
      </trkpt>
      <trkpt lat="45.45769" lon="4.70111">
        <ele>412</ele>
        <time>2018-08-15T07:26:09.251Z</time>
      </trkpt>
      <trkpt lat="45.4577" lon="4.70106">
        <ele>412</ele>
        <time>2018-08-15T07:26:10.264Z</time>
      </trkpt>
      <trkpt lat="45.4577" lon="4.70106">
        <ele>412</ele>
        <time>2018-08-15T07:26:11.269Z</time>
      </trkpt>
      <trkpt lat="45.45772" lon="4.70101">
        <ele>413</ele>
        <time>2018-08-15T07:26:12.252Z</time>
      </trkpt>
      <trkpt lat="45.45772" lon="4.70101">
        <ele>413</ele>
        <time>2018-08-15T07:26:13.258Z</time>
      </trkpt>
      <trkpt lat="45.45773" lon="4.70095">
        <ele>413</ele>
        <time>2018-08-15T07:26:14.251Z</time>
      </trkpt>
      <trkpt lat="45.45773" lon="4.70095">
        <ele>413</ele>
        <time>2018-08-15T07:26:15.257Z</time>
      </trkpt>
      <trkpt lat="45.45775" lon="4.7009">
        <ele>413</ele>
        <time>2018-08-15T07:26:16.255Z</time>
      </trkpt>
      <trkpt lat="45.45775" lon="4.7009">
        <ele>413</ele>
        <time>2018-08-15T07:26:17.260Z</time>
      </trkpt>
      <trkpt lat="45.45776" lon="4.70085">
        <ele>414</ele>
        <time>2018-08-15T07:26:18.241Z</time>
      </trkpt>
      <trkpt lat="45.45776" lon="4.70085">
        <ele>414</ele>
        <time>2018-08-15T07:26:19.247Z</time>
      </trkpt>
      <trkpt lat="45.45777" lon="4.70079">
        <ele>414</ele>
        <time>2018-08-15T07:26:20.261Z</time>
      </trkpt>
      <trkpt lat="45.45777" lon="4.70079">
        <ele>414</ele>
        <time>2018-08-15T07:26:21.271Z</time>
      </trkpt>
      <trkpt lat="45.45778" lon="4.70073">
        <ele>414</ele>
        <time>2018-08-15T07:26:22.257Z</time>
      </trkpt>
      <trkpt lat="45.45779" lon="4.70071">
        <ele>414</ele>
        <time>2018-08-15T07:26:23.254Z</time>
      </trkpt>
      <trkpt lat="45.45779" lon="4.70071">
        <ele>414</ele>
        <time>2018-08-15T07:26:24.260Z</time>
      </trkpt>
      <trkpt lat="45.4578" lon="4.70065">
        <ele>415</ele>
        <time>2018-08-15T07:26:25.259Z</time>
      </trkpt>
      <trkpt lat="45.45781" lon="4.70062">
        <ele>415</ele>
        <time>2018-08-15T07:26:26.253Z</time>
      </trkpt>
      <trkpt lat="45.45781" lon="4.70062">
        <ele>415</ele>
        <time>2018-08-15T07:26:27.259Z</time>
      </trkpt>
      <trkpt lat="45.45782" lon="4.70057">
        <ele>415</ele>
        <time>2018-08-15T07:26:28.255Z</time>
      </trkpt>
      <trkpt lat="45.45782" lon="4.70057">
        <ele>415</ele>
        <time>2018-08-15T07:26:29.261Z</time>
      </trkpt>
      <trkpt lat="45.45783" lon="4.70052">
        <ele>415</ele>
        <time>2018-08-15T07:26:30.252Z</time>
      </trkpt>
      <trkpt lat="45.45783" lon="4.70052">
        <ele>415</ele>
        <time>2018-08-15T07:26:31.257Z</time>
      </trkpt>
      <trkpt lat="45.45784" lon="4.70046">
        <ele>415</ele>
        <time>2018-08-15T07:26:32.254Z</time>
      </trkpt>
      <trkpt lat="45.45784" lon="4.70046">
        <ele>415</ele>
        <time>2018-08-15T07:26:33.260Z</time>
      </trkpt>
      <trkpt lat="45.45785" lon="4.70041">
        <ele>416</ele>
        <time>2018-08-15T07:26:34.263Z</time>
      </trkpt>
      <trkpt lat="45.45785" lon="4.70041">
        <ele>416</ele>
        <time>2018-08-15T07:26:35.271Z</time>
      </trkpt>
      <trkpt lat="45.45785" lon="4.70036">
        <ele>416</ele>
        <time>2018-08-15T07:26:36.269Z</time>
      </trkpt>
      <trkpt lat="45.45785" lon="4.70033">
        <ele>416</ele>
        <time>2018-08-15T07:26:37.263Z</time>
      </trkpt>
      <trkpt lat="45.45785" lon="4.7003">
        <ele>416</ele>
        <time>2018-08-15T07:26:38.253Z</time>
      </trkpt>
      <trkpt lat="45.45785" lon="4.7003">
        <ele>416</ele>
        <time>2018-08-15T07:26:39.258Z</time>
      </trkpt>
      <trkpt lat="45.45786" lon="4.70025">
        <ele>417</ele>
        <time>2018-08-15T07:26:40.241Z</time>
      </trkpt>
      <trkpt lat="45.45786" lon="4.70025">
        <ele>417</ele>
        <time>2018-08-15T07:26:41.247Z</time>
      </trkpt>
      <trkpt lat="45.45787" lon="4.70019">
        <ele>417</ele>
        <time>2018-08-15T07:26:42.271Z</time>
      </trkpt>
      <trkpt lat="45.45787" lon="4.70019">
        <ele>417</ele>
        <time>2018-08-15T07:26:43.237Z</time>
      </trkpt>
      <trkpt lat="45.45787" lon="4.70014">
        <ele>417</ele>
        <time>2018-08-15T07:26:44.243Z</time>
      </trkpt>
      <trkpt lat="45.45787" lon="4.70014">
        <ele>417</ele>
        <time>2018-08-15T07:26:45.249Z</time>
      </trkpt>
      <trkpt lat="45.45787" lon="4.70009">
        <ele>418</ele>
        <time>2018-08-15T07:26:46.234Z</time>
      </trkpt>
      <trkpt lat="45.45787" lon="4.70009">
        <ele>418</ele>
        <time>2018-08-15T07:26:47.240Z</time>
      </trkpt>
      <trkpt lat="45.45787" lon="4.70003">
        <ele>418</ele>
        <time>2018-08-15T07:26:48.269Z</time>
      </trkpt>
      <trkpt lat="45.45787" lon="4.70003">
        <ele>418</ele>
        <time>2018-08-15T07:26:49.235Z</time>
      </trkpt>
      <trkpt lat="45.45787" lon="4.69998">
        <ele>418</ele>
        <time>2018-08-15T07:26:50.267Z</time>
      </trkpt>
      <trkpt lat="45.45787" lon="4.69998">
        <ele>418</ele>
        <time>2018-08-15T07:26:51.234Z</time>
      </trkpt>
      <trkpt lat="45.45787" lon="4.69993">
        <ele>419</ele>
        <time>2018-08-15T07:26:52.269Z</time>
      </trkpt>
      <trkpt lat="45.45787" lon="4.6999">
        <ele>419</ele>
        <time>2018-08-15T07:26:53.241Z</time>
      </trkpt>
      <trkpt lat="45.45787" lon="4.6999">
        <ele>419</ele>
        <time>2018-08-15T07:26:54.246Z</time>
      </trkpt>
      <trkpt lat="45.45787" lon="4.69985">
        <ele>419</ele>
        <time>2018-08-15T07:26:55.243Z</time>
      </trkpt>
      <trkpt lat="45.45787" lon="4.69982">
        <ele>419</ele>
        <time>2018-08-15T07:26:56.271Z</time>
      </trkpt>
      <trkpt lat="45.45787" lon="4.69982">
        <ele>419</ele>
        <time>2018-08-15T07:26:57.236Z</time>
      </trkpt>
      <trkpt lat="45.45787" lon="4.69977">
        <ele>419</ele>
        <time>2018-08-15T07:26:58.262Z</time>
      </trkpt>
      <trkpt lat="45.45787" lon="4.69977">
        <ele>419</ele>
        <time>2018-08-15T07:26:59.267Z</time>
      </trkpt>
      <trkpt lat="45.45786" lon="4.69971">
        <ele>420</ele>
        <time>2018-08-15T07:27:00.240Z</time>
      </trkpt>
      <trkpt lat="45.45786" lon="4.69971">
        <ele>420</ele>
        <time>2018-08-15T07:27:01.250Z</time>
      </trkpt>
      <trkpt lat="45.45785" lon="4.69966">
        <ele>420</ele>
        <time>2018-08-15T07:27:02.246Z</time>
      </trkpt>
      <trkpt lat="45.45785" lon="4.69966">
        <ele>420</ele>
        <time>2018-08-15T07:27:03.251Z</time>
      </trkpt>
      <trkpt lat="45.45785" lon="4.69961">
        <ele>420</ele>
        <time>2018-08-15T07:27:04.268Z</time>
      </trkpt>
      <trkpt lat="45.45785" lon="4.69961">
        <ele>420</ele>
        <time>2018-08-15T07:27:05.234Z</time>
      </trkpt>
      <trkpt lat="45.45784" lon="4.69956">
        <ele>421</ele>
        <time>2018-08-15T07:27:06.266Z</time>
      </trkpt>
      <trkpt lat="45.45784" lon="4.69956">
        <ele>421</ele>
        <time>2018-08-15T07:27:07.271Z</time>
      </trkpt>
      <trkpt lat="45.45784" lon="4.6995">
        <ele>421</ele>
        <time>2018-08-15T07:27:08.267Z</time>
      </trkpt>
      <trkpt lat="45.45784" lon="4.6995">
        <ele>421</ele>
        <time>2018-08-15T07:27:09.233Z</time>
      </trkpt>
      <trkpt lat="45.45784" lon="4.69944">
        <ele>421</ele>
        <time>2018-08-15T07:27:10.269Z</time>
      </trkpt>
      <trkpt lat="45.45784" lon="4.69944">
        <ele>421</ele>
        <time>2018-08-15T07:27:11.234Z</time>
      </trkpt>
      <trkpt lat="45.45783" lon="4.69939">
        <ele>422</ele>
        <time>2018-08-15T07:27:12.256Z</time>
      </trkpt>
      <trkpt lat="45.45783" lon="4.69939">
        <ele>422</ele>
        <time>2018-08-15T07:27:13.263Z</time>
      </trkpt>
      <trkpt lat="45.45783" lon="4.69933">
        <ele>422</ele>
        <time>2018-08-15T07:27:14.263Z</time>
      </trkpt>
      <trkpt lat="45.45783" lon="4.69933">
        <ele>422</ele>
        <time>2018-08-15T07:27:15.270Z</time>
      </trkpt>
      <trkpt lat="45.45783" lon="4.69927">
        <ele>422</ele>
        <time>2018-08-15T07:27:16.269Z</time>
      </trkpt>
      <trkpt lat="45.45783" lon="4.69927">
        <ele>422</ele>
        <time>2018-08-15T07:27:17.235Z</time>
      </trkpt>
      <trkpt lat="45.45783" lon="4.69922">
        <ele>422</ele>
        <time>2018-08-15T07:27:18.237Z</time>
      </trkpt>
      <trkpt lat="45.45783" lon="4.69922">
        <ele>422</ele>
        <time>2018-08-15T07:27:19.243Z</time>
      </trkpt>
      <trkpt lat="45.45783" lon="4.69915">
        <ele>422</ele>
        <time>2018-08-15T07:27:20.233Z</time>
      </trkpt>
      <trkpt lat="45.45783" lon="4.69915">
        <ele>422</ele>
        <time>2018-08-15T07:27:21.238Z</time>
      </trkpt>
      <trkpt lat="45.45784" lon="4.69909">
        <ele>423</ele>
        <time>2018-08-15T07:27:22.265Z</time>
      </trkpt>
      <trkpt lat="45.45784" lon="4.69909">
        <ele>423</ele>
        <time>2018-08-15T07:27:23.270Z</time>
      </trkpt>
      <trkpt lat="45.45784" lon="4.69904">
        <ele>423</ele>
        <time>2018-08-15T07:27:24.256Z</time>
      </trkpt>
      <trkpt lat="45.45784" lon="4.69904">
        <ele>423</ele>
        <time>2018-08-15T07:27:25.261Z</time>
      </trkpt>
      <trkpt lat="45.45785" lon="4.69898">
        <ele>423</ele>
        <time>2018-08-15T07:27:26.246Z</time>
      </trkpt>
      <trkpt lat="45.45785" lon="4.69895">
        <ele>423</ele>
        <time>2018-08-15T07:27:27.248Z</time>
      </trkpt>
      <trkpt lat="45.45785" lon="4.69895">
        <ele>423</ele>
        <time>2018-08-15T07:27:28.268Z</time>
      </trkpt>
      <trkpt lat="45.45786" lon="4.69889">
        <ele>423</ele>
        <time>2018-08-15T07:27:29.266Z</time>
      </trkpt>
      <trkpt lat="45.45786" lon="4.69889">
        <ele>423</ele>
        <time>2018-08-15T07:27:30.233Z</time>
      </trkpt>
      <trkpt lat="45.45787" lon="4.69884">
        <ele>423</ele>
        <time>2018-08-15T07:27:31.232Z</time>
      </trkpt>
      <trkpt lat="45.45788" lon="4.69881">
        <ele>423</ele>
        <time>2018-08-15T07:27:32.263Z</time>
      </trkpt>
      <trkpt lat="45.45788" lon="4.69881">
        <ele>423</ele>
        <time>2018-08-15T07:27:33.270Z</time>
      </trkpt>
      <trkpt lat="45.4579" lon="4.69876">
        <ele>423</ele>
        <time>2018-08-15T07:27:34.267Z</time>
      </trkpt>
      <trkpt lat="45.4579" lon="4.69876">
        <ele>423</ele>
        <time>2018-08-15T07:27:35.233Z</time>
      </trkpt>
      <trkpt lat="45.45791" lon="4.6987">
        <ele>424</ele>
        <time>2018-08-15T07:27:36.260Z</time>
      </trkpt>
      <trkpt lat="45.45791" lon="4.69867">
        <ele>424</ele>
        <time>2018-08-15T07:27:37.253Z</time>
      </trkpt>
      <trkpt lat="45.45792" lon="4.69865">
        <ele>424</ele>
        <time>2018-08-15T07:27:38.241Z</time>
      </trkpt>
      <trkpt lat="45.45792" lon="4.69865">
        <ele>424</ele>
        <time>2018-08-15T07:27:39.248Z</time>
      </trkpt>
      <trkpt lat="45.45793" lon="4.69859">
        <ele>424</ele>
        <time>2018-08-15T07:27:40.242Z</time>
      </trkpt>
      <trkpt lat="45.45793" lon="4.69859">
        <ele>424</ele>
        <time>2018-08-15T07:27:41.249Z</time>
      </trkpt>
      <trkpt lat="45.45795" lon="4.69854">
        <ele>424</ele>
        <time>2018-08-15T07:27:42.243Z</time>
      </trkpt>
      <trkpt lat="45.45795" lon="4.69854">
        <ele>424</ele>
        <time>2018-08-15T07:27:43.248Z</time>
      </trkpt>
      <trkpt lat="45.45796" lon="4.69848">
        <ele>424</ele>
        <time>2018-08-15T07:27:44.234Z</time>
      </trkpt>
      <trkpt lat="45.45796" lon="4.69848">
        <ele>424</ele>
        <time>2018-08-15T07:27:45.240Z</time>
      </trkpt>
      <trkpt lat="45.45797" lon="4.69843">
        <ele>425</ele>
        <time>2018-08-15T07:27:46.238Z</time>
      </trkpt>
      <trkpt lat="45.45797" lon="4.6984">
        <ele>425</ele>
        <time>2018-08-15T07:27:47.267Z</time>
      </trkpt>
      <trkpt lat="45.45797" lon="4.6984">
        <ele>425</ele>
        <time>2018-08-15T07:27:48.232Z</time>
      </trkpt>
      <trkpt lat="45.45799" lon="4.69834">
        <ele>425</ele>
        <time>2018-08-15T07:27:49.253Z</time>
      </trkpt>
      <trkpt lat="45.458" lon="4.69831">
        <ele>425</ele>
        <time>2018-08-15T07:27:50.232Z</time>
      </trkpt>
      <trkpt lat="45.458" lon="4.69831">
        <ele>425</ele>
        <time>2018-08-15T07:27:51.238Z</time>
      </trkpt>
      <trkpt lat="45.45802" lon="4.69825">
        <ele>425</ele>
        <time>2018-08-15T07:27:52.234Z</time>
      </trkpt>
      <trkpt lat="45.45802" lon="4.69825">
        <ele>425</ele>
        <time>2018-08-15T07:27:53.239Z</time>
      </trkpt>
      <trkpt lat="45.45804" lon="4.69819">
        <ele>425</ele>
        <time>2018-08-15T07:27:54.242Z</time>
      </trkpt>
      <trkpt lat="45.45804" lon="4.69819">
        <ele>425</ele>
        <time>2018-08-15T07:27:55.248Z</time>
      </trkpt>
      <trkpt lat="45.45805" lon="4.69814">
        <ele>425</ele>
        <time>2018-08-15T07:27:56.261Z</time>
      </trkpt>
      <trkpt lat="45.45805" lon="4.69814">
        <ele>425</ele>
        <time>2018-08-15T07:27:57.271Z</time>
      </trkpt>
      <trkpt lat="45.45806" lon="4.69809">
        <ele>426</ele>
        <time>2018-08-15T07:27:58.264Z</time>
      </trkpt>
      <trkpt lat="45.45807" lon="4.69806">
        <ele>426</ele>
        <time>2018-08-15T07:27:59.245Z</time>
      </trkpt>
      <trkpt lat="45.45807" lon="4.69806">
        <ele>426</ele>
        <time>2018-08-15T07:28:00.250Z</time>
      </trkpt>
      <trkpt lat="45.45808" lon="4.698">
        <ele>426</ele>
        <time>2018-08-15T07:28:01.248Z</time>
      </trkpt>
      <trkpt lat="45.45809" lon="4.69797">
        <ele>426</ele>
        <time>2018-08-15T07:28:02.244Z</time>
      </trkpt>
      <trkpt lat="45.45809" lon="4.69797">
        <ele>426</ele>
        <time>2018-08-15T07:28:03.249Z</time>
      </trkpt>
      <trkpt lat="45.45811" lon="4.69792">
        <ele>426</ele>
        <time>2018-08-15T07:28:04.245Z</time>
      </trkpt>
      <trkpt lat="45.45811" lon="4.69792">
        <ele>426</ele>
        <time>2018-08-15T07:28:05.250Z</time>
      </trkpt>
      <trkpt lat="45.45812" lon="4.69786">
        <ele>427</ele>
        <time>2018-08-15T07:28:06.247Z</time>
      </trkpt>
      <trkpt lat="45.45812" lon="4.69786">
        <ele>427</ele>
        <time>2018-08-15T07:28:07.238Z</time>
      </trkpt>
      <trkpt lat="45.45814" lon="4.69781">
        <ele>427</ele>
        <time>2018-08-15T07:28:08.232Z</time>
      </trkpt>
      <trkpt lat="45.45814" lon="4.69781">
        <ele>427</ele>
        <time>2018-08-15T07:28:09.251Z</time>
      </trkpt>
      <trkpt lat="45.45816" lon="4.69775">
        <ele>427</ele>
        <time>2018-08-15T07:28:10.257Z</time>
      </trkpt>
      <trkpt lat="45.45816" lon="4.69775">
        <ele>427</ele>
        <time>2018-08-15T07:28:11.263Z</time>
      </trkpt>
      <trkpt lat="45.45817" lon="4.6977">
        <ele>427</ele>
        <time>2018-08-15T07:28:12.256Z</time>
      </trkpt>
      <trkpt lat="45.45818" lon="4.69767">
        <ele>427</ele>
        <time>2018-08-15T07:28:13.261Z</time>
      </trkpt>
      <trkpt lat="45.45818" lon="4.69767">
        <ele>427</ele>
        <time>2018-08-15T07:28:14.269Z</time>
      </trkpt>
      <trkpt lat="45.45819" lon="4.69761">
        <ele>428</ele>
        <time>2018-08-15T07:28:15.258Z</time>
      </trkpt>
      <trkpt lat="45.45819" lon="4.69761">
        <ele>428</ele>
        <time>2018-08-15T07:28:16.263Z</time>
      </trkpt>
      <trkpt lat="45.45821" lon="4.69756">
        <ele>428</ele>
        <time>2018-08-15T07:28:17.263Z</time>
      </trkpt>
      <trkpt lat="45.45821" lon="4.69756">
        <ele>428</ele>
        <time>2018-08-15T07:28:18.270Z</time>
      </trkpt>
      <trkpt lat="45.45822" lon="4.6975">
        <ele>428</ele>
        <time>2018-08-15T07:28:19.260Z</time>
      </trkpt>
      <trkpt lat="45.45823" lon="4.69747">
        <ele>428</ele>
        <time>2018-08-15T07:28:20.271Z</time>
      </trkpt>
      <trkpt lat="45.45823" lon="4.69747">
        <ele>428</ele>
        <time>2018-08-15T07:28:21.237Z</time>
      </trkpt>
      <trkpt lat="45.45824" lon="4.69742">
        <ele>429</ele>
        <time>2018-08-15T07:28:22.256Z</time>
      </trkpt>
      <trkpt lat="45.45824" lon="4.69742">
        <ele>429</ele>
        <time>2018-08-15T07:28:23.262Z</time>
      </trkpt>
      <trkpt lat="45.45825" lon="4.69736">
        <ele>429</ele>
        <time>2018-08-15T07:28:24.247Z</time>
      </trkpt>
      <trkpt lat="45.45825" lon="4.69736">
        <ele>429</ele>
        <time>2018-08-15T07:28:25.253Z</time>
      </trkpt>
      <trkpt lat="45.45827" lon="4.69731">
        <ele>429</ele>
        <time>2018-08-15T07:28:26.239Z</time>
      </trkpt>
      <trkpt lat="45.45827" lon="4.69731">
        <ele>429</ele>
        <time>2018-08-15T07:28:27.245Z</time>
      </trkpt>
      <trkpt lat="45.45829" lon="4.69726">
        <ele>430</ele>
        <time>2018-08-15T07:28:28.237Z</time>
      </trkpt>
      <trkpt lat="45.45829" lon="4.69726">
        <ele>430</ele>
        <time>2018-08-15T07:28:29.243Z</time>
      </trkpt>
      <trkpt lat="45.45831" lon="4.6972">
        <ele>430</ele>
        <time>2018-08-15T07:28:30.232Z</time>
      </trkpt>
      <trkpt lat="45.45831" lon="4.69717">
        <ele>430</ele>
        <time>2018-08-15T07:28:31.263Z</time>
      </trkpt>
      <trkpt lat="45.45832" lon="4.69715">
        <ele>430</ele>
        <time>2018-08-15T07:28:32.254Z</time>
      </trkpt>
      <trkpt lat="45.45832" lon="4.69715">
        <ele>430</ele>
        <time>2018-08-15T07:28:33.261Z</time>
      </trkpt>
      <trkpt lat="45.45834" lon="4.69709">
        <ele>430</ele>
        <time>2018-08-15T07:28:34.232Z</time>
      </trkpt>
      <trkpt lat="45.45834" lon="4.69709">
        <ele>430</ele>
        <time>2018-08-15T07:28:35.237Z</time>
      </trkpt>
      <trkpt lat="45.45835" lon="4.69703">
        <ele>430</ele>
        <time>2018-08-15T07:28:36.236Z</time>
      </trkpt>
      <trkpt lat="45.45836" lon="4.697">
        <ele>430</ele>
        <time>2018-08-15T07:28:37.252Z</time>
      </trkpt>
      <trkpt lat="45.45836" lon="4.69697">
        <ele>430</ele>
        <time>2018-08-15T07:28:38.239Z</time>
      </trkpt>
      <trkpt lat="45.45836" lon="4.69697">
        <ele>430</ele>
        <time>2018-08-15T07:28:39.245Z</time>
      </trkpt>
      <trkpt lat="45.45838" lon="4.69691">
        <ele>430</ele>
        <time>2018-08-15T07:28:40.250Z</time>
      </trkpt>
      <trkpt lat="45.45838" lon="4.69691">
        <ele>430</ele>
        <time>2018-08-15T07:28:41.255Z</time>
      </trkpt>
      <trkpt lat="45.45839" lon="4.69686">
        <ele>431</ele>
        <time>2018-08-15T07:28:42.238Z</time>
      </trkpt>
      <trkpt lat="45.45839" lon="4.69686">
        <ele>431</ele>
        <time>2018-08-15T07:28:43.244Z</time>
      </trkpt>
      <trkpt lat="45.45841" lon="4.6968">
        <ele>431</ele>
        <time>2018-08-15T07:28:44.235Z</time>
      </trkpt>
      <trkpt lat="45.45841" lon="4.6968">
        <ele>431</ele>
        <time>2018-08-15T07:28:45.240Z</time>
      </trkpt>
      <trkpt lat="45.45842" lon="4.69675">
        <ele>431</ele>
        <time>2018-08-15T07:28:46.266Z</time>
      </trkpt>
      <trkpt lat="45.45842" lon="4.69675">
        <ele>431</ele>
        <time>2018-08-15T07:28:47.232Z</time>
      </trkpt>
      <trkpt lat="45.45843" lon="4.69669">
        <ele>431</ele>
        <time>2018-08-15T07:28:48.257Z</time>
      </trkpt>
      <trkpt lat="45.45844" lon="4.69666">
        <ele>431</ele>
        <time>2018-08-15T07:28:49.255Z</time>
      </trkpt>
      <trkpt lat="45.45845" lon="4.69663">
        <ele>432</ele>
        <time>2018-08-15T07:28:50.243Z</time>
      </trkpt>
      <trkpt lat="45.45845" lon="4.69663">
        <ele>432</ele>
        <time>2018-08-15T07:28:51.248Z</time>
      </trkpt>
      <trkpt lat="45.45847" lon="4.69658">
        <ele>432</ele>
        <time>2018-08-15T07:28:52.233Z</time>
      </trkpt>
      <trkpt lat="45.45847" lon="4.69656">
        <ele>432</ele>
        <time>2018-08-15T07:28:53.266Z</time>
      </trkpt>
      <trkpt lat="45.45847" lon="4.69656">
        <ele>432</ele>
        <time>2018-08-15T07:28:54.236Z</time>
      </trkpt>
      <trkpt lat="45.45849" lon="4.6965">
        <ele>433</ele>
        <time>2018-08-15T07:28:55.263Z</time>
      </trkpt>
      <trkpt lat="45.45849" lon="4.69648">
        <ele>433</ele>
        <time>2018-08-15T07:28:56.246Z</time>
      </trkpt>
      <trkpt lat="45.45849" lon="4.69648">
        <ele>433</ele>
        <time>2018-08-15T07:28:57.253Z</time>
      </trkpt>
      <trkpt lat="45.45851" lon="4.69642">
        <ele>433</ele>
        <time>2018-08-15T07:28:58.233Z</time>
      </trkpt>
      <trkpt lat="45.45851" lon="4.69642">
        <ele>433</ele>
        <time>2018-08-15T07:28:59.239Z</time>
      </trkpt>
      <trkpt lat="45.45851" lon="4.69636">
        <ele>433</ele>
        <time>2018-08-15T07:29:00.233Z</time>
      </trkpt>
      <trkpt lat="45.45852" lon="4.69633">
        <ele>433</ele>
        <time>2018-08-15T07:29:01.269Z</time>
      </trkpt>
      <trkpt lat="45.45852" lon="4.69633">
        <ele>433</ele>
        <time>2018-08-15T07:29:02.234Z</time>
      </trkpt>
      <trkpt lat="45.45854" lon="4.69627">
        <ele>434</ele>
        <time>2018-08-15T07:29:03.254Z</time>
      </trkpt>
      <trkpt lat="45.45854" lon="4.69624">
        <ele>434</ele>
        <time>2018-08-15T07:29:04.257Z</time>
      </trkpt>
      <trkpt lat="45.45855" lon="4.69622">
        <ele>434</ele>
        <time>2018-08-15T07:29:05.266Z</time>
      </trkpt>
      <trkpt lat="45.45855" lon="4.69622">
        <ele>434</ele>
        <time>2018-08-15T07:29:06.233Z</time>
      </trkpt>
      <trkpt lat="45.45857" lon="4.69616">
        <ele>434</ele>
        <time>2018-08-15T07:29:07.267Z</time>
      </trkpt>
      <trkpt lat="45.45857" lon="4.69613">
        <ele>434</ele>
        <time>2018-08-15T07:29:08.257Z</time>
      </trkpt>
      <trkpt lat="45.45857" lon="4.69613">
        <ele>434</ele>
        <time>2018-08-15T07:29:09.262Z</time>
      </trkpt>
      <trkpt lat="45.45859" lon="4.69607">
        <ele>434</ele>
        <time>2018-08-15T07:29:10.263Z</time>
      </trkpt>
      <trkpt lat="45.45859" lon="4.69607">
        <ele>434</ele>
        <time>2018-08-15T07:29:11.270Z</time>
      </trkpt>
      <trkpt lat="45.4586" lon="4.69601">
        <ele>435</ele>
        <time>2018-08-15T07:29:12.234Z</time>
      </trkpt>
      <trkpt lat="45.4586" lon="4.69601">
        <ele>435</ele>
        <time>2018-08-15T07:29:13.239Z</time>
      </trkpt>
      <trkpt lat="45.4586" lon="4.69596">
        <ele>435</ele>
        <time>2018-08-15T07:29:14.261Z</time>
      </trkpt>
      <trkpt lat="45.4586" lon="4.69596">
        <ele>435</ele>
        <time>2018-08-15T07:29:15.252Z</time>
      </trkpt>
      <trkpt lat="45.4586" lon="4.6959">
        <ele>435</ele>
        <time>2018-08-15T07:29:16.232Z</time>
      </trkpt>
      <trkpt lat="45.4586" lon="4.6959">
        <ele>435</ele>
        <time>2018-08-15T07:29:17.240Z</time>
      </trkpt>
      <trkpt lat="45.4586" lon="4.69584">
        <ele>436</ele>
        <time>2018-08-15T07:29:18.244Z</time>
      </trkpt>
      <trkpt lat="45.4586" lon="4.69584">
        <ele>436</ele>
        <time>2018-08-15T07:29:19.249Z</time>
      </trkpt>
      <trkpt lat="45.4586" lon="4.69578">
        <ele>436</ele>
        <time>2018-08-15T07:29:20.242Z</time>
      </trkpt>
      <trkpt lat="45.4586" lon="4.69575">
        <ele>436</ele>
        <time>2018-08-15T07:29:21.239Z</time>
      </trkpt>
      <trkpt lat="45.4586" lon="4.69575">
        <ele>436</ele>
        <time>2018-08-15T07:29:22.245Z</time>
      </trkpt>
      <trkpt lat="45.4586" lon="4.69569">
        <ele>436</ele>
        <time>2018-08-15T07:29:23.244Z</time>
      </trkpt>
      <trkpt lat="45.4586" lon="4.69569">
        <ele>436</ele>
        <time>2018-08-15T07:29:24.250Z</time>
      </trkpt>
      <trkpt lat="45.4586" lon="4.69563">
        <ele>437</ele>
        <time>2018-08-15T07:29:25.244Z</time>
      </trkpt>
      <trkpt lat="45.45859" lon="4.69561">
        <ele>437</ele>
        <time>2018-08-15T07:29:26.234Z</time>
      </trkpt>
      <trkpt lat="45.45859" lon="4.69561">
        <ele>437</ele>
        <time>2018-08-15T07:29:27.239Z</time>
      </trkpt>
      <trkpt lat="45.45859" lon="4.69555">
        <ele>437</ele>
        <time>2018-08-15T07:29:28.236Z</time>
      </trkpt>
      <trkpt lat="45.45859" lon="4.69555">
        <ele>437</ele>
        <time>2018-08-15T07:29:29.242Z</time>
      </trkpt>
      <trkpt lat="45.45859" lon="4.69549">
        <ele>438</ele>
        <time>2018-08-15T07:29:30.240Z</time>
      </trkpt>
      <trkpt lat="45.45858" lon="4.69546">
        <ele>438</ele>
        <time>2018-08-15T07:29:31.252Z</time>
      </trkpt>
      <trkpt lat="45.45858" lon="4.69546">
        <ele>438</ele>
        <time>2018-08-15T07:29:32.257Z</time>
      </trkpt>
      <trkpt lat="45.45857" lon="4.6954">
        <ele>438</ele>
        <time>2018-08-15T07:29:33.247Z</time>
      </trkpt>
      <trkpt lat="45.45857" lon="4.6954">
        <ele>438</ele>
        <time>2018-08-15T07:29:34.253Z</time>
      </trkpt>
      <trkpt lat="45.45855" lon="4.69535">
        <ele>438</ele>
        <time>2018-08-15T07:29:35.257Z</time>
      </trkpt>
      <trkpt lat="45.45855" lon="4.69535">
        <ele>438</ele>
        <time>2018-08-15T07:29:36.271Z</time>
      </trkpt>
      <trkpt lat="45.45854" lon="4.69529">
        <ele>438</ele>
        <time>2018-08-15T07:29:37.268Z</time>
      </trkpt>
      <trkpt lat="45.45853" lon="4.69526">
        <ele>438</ele>
        <time>2018-08-15T07:29:38.251Z</time>
      </trkpt>
      <trkpt lat="45.45853" lon="4.69526">
        <ele>438</ele>
        <time>2018-08-15T07:29:39.257Z</time>
      </trkpt>
      <trkpt lat="45.45851" lon="4.6952">
        <ele>438</ele>
        <time>2018-08-15T07:29:40.261Z</time>
      </trkpt>
      <trkpt lat="45.45851" lon="4.6952">
        <ele>438</ele>
        <time>2018-08-15T07:29:41.270Z</time>
      </trkpt>
      <trkpt lat="45.45849" lon="4.69515">
        <ele>439</ele>
        <time>2018-08-15T07:29:42.260Z</time>
      </trkpt>
      <trkpt lat="45.45848" lon="4.69512">
        <ele>439</ele>
        <time>2018-08-15T07:29:43.243Z</time>
      </trkpt>
      <trkpt lat="45.45848" lon="4.69512">
        <ele>439</ele>
        <time>2018-08-15T07:29:44.250Z</time>
      </trkpt>
      <trkpt lat="45.45846" lon="4.69507">
        <ele>439</ele>
        <time>2018-08-15T07:29:45.241Z</time>
      </trkpt>
      <trkpt lat="45.45846" lon="4.69507">
        <ele>439</ele>
        <time>2018-08-15T07:29:46.246Z</time>
      </trkpt>
      <trkpt lat="45.45843" lon="4.69502">
        <ele>439</ele>
        <time>2018-08-15T07:29:47.234Z</time>
      </trkpt>
      <trkpt lat="45.45843" lon="4.69502">
        <ele>439</ele>
        <time>2018-08-15T07:29:48.239Z</time>
      </trkpt>
      <trkpt lat="45.4584" lon="4.69497">
        <ele>439</ele>
        <time>2018-08-15T07:29:49.237Z</time>
      </trkpt>
      <trkpt lat="45.45839" lon="4.69495">
        <ele>439</ele>
        <time>2018-08-15T07:29:50.234Z</time>
      </trkpt>
      <trkpt lat="45.45839" lon="4.69495">
        <ele>439</ele>
        <time>2018-08-15T07:29:51.239Z</time>
      </trkpt>
      <trkpt lat="45.45836" lon="4.6949">
        <ele>439</ele>
        <time>2018-08-15T07:29:52.253Z</time>
      </trkpt>
      <trkpt lat="45.45836" lon="4.6949">
        <ele>439</ele>
        <time>2018-08-15T07:29:53.234Z</time>
      </trkpt>
      <trkpt lat="45.45832" lon="4.69487">
        <ele>440</ele>
        <time>2018-08-15T07:29:54.266Z</time>
      </trkpt>
      <trkpt lat="45.45832" lon="4.69487">
        <ele>440</ele>
        <time>2018-08-15T07:29:55.234Z</time>
      </trkpt>
      <trkpt lat="45.45829" lon="4.69482">
        <ele>440</ele>
        <time>2018-08-15T07:29:56.270Z</time>
      </trkpt>
      <trkpt lat="45.45829" lon="4.69482">
        <ele>440</ele>
        <time>2018-08-15T07:29:57.236Z</time>
      </trkpt>
      <trkpt lat="45.45826" lon="4.69479">
        <ele>440</ele>
        <time>2018-08-15T07:29:58.260Z</time>
      </trkpt>
      <trkpt lat="45.45824" lon="4.69477">
        <ele>441</ele>
        <time>2018-08-15T07:29:59.246Z</time>
      </trkpt>
      <trkpt lat="45.45823" lon="4.69475">
        <ele>441</ele>
        <time>2018-08-15T07:30:00.238Z</time>
      </trkpt>
      <trkpt lat="45.45823" lon="4.69475">
        <ele>441</ele>
        <time>2018-08-15T07:30:01.244Z</time>
      </trkpt>
      <trkpt lat="45.45819" lon="4.69471">
        <ele>441</ele>
        <time>2018-08-15T07:30:02.251Z</time>
      </trkpt>
      <trkpt lat="45.45817" lon="4.69469">
        <ele>441</ele>
        <time>2018-08-15T07:30:03.244Z</time>
      </trkpt>
      <trkpt lat="45.45817" lon="4.69469">
        <ele>441</ele>
        <time>2018-08-15T07:30:04.249Z</time>
      </trkpt>
      <trkpt lat="45.45814" lon="4.69465">
        <ele>441</ele>
        <time>2018-08-15T07:30:05.251Z</time>
      </trkpt>
      <trkpt lat="45.45814" lon="4.69465">
        <ele>441</ele>
        <time>2018-08-15T07:30:06.257Z</time>
      </trkpt>
      <trkpt lat="45.45809" lon="4.69463">
        <ele>442</ele>
        <time>2018-08-15T07:30:07.261Z</time>
      </trkpt>
      <trkpt lat="45.45809" lon="4.69463">
        <ele>442</ele>
        <time>2018-08-15T07:30:08.268Z</time>
      </trkpt>
      <trkpt lat="45.45805" lon="4.69461">
        <ele>443</ele>
        <time>2018-08-15T07:30:09.251Z</time>
      </trkpt>
      <trkpt lat="45.45805" lon="4.69461">
        <ele>443</ele>
        <time>2018-08-15T07:30:10.257Z</time>
      </trkpt>
      <trkpt lat="45.45802" lon="4.69458">
        <ele>443</ele>
        <time>2018-08-15T07:30:11.233Z</time>
      </trkpt>
      <trkpt lat="45.45802" lon="4.69458">
        <ele>443</ele>
        <time>2018-08-15T07:30:12.242Z</time>
      </trkpt>
      <trkpt lat="45.45798" lon="4.69455">
        <ele>444</ele>
        <time>2018-08-15T07:30:13.270Z</time>
      </trkpt>
      <trkpt lat="45.45797" lon="4.69453">
        <ele>444</ele>
        <time>2018-08-15T07:30:14.233Z</time>
      </trkpt>
      <trkpt lat="45.45797" lon="4.69453">
        <ele>444</ele>
        <time>2018-08-15T07:30:15.239Z</time>
      </trkpt>
      <trkpt lat="45.45793" lon="4.69451">
        <ele>445</ele>
        <time>2018-08-15T07:30:16.238Z</time>
      </trkpt>
      <trkpt lat="45.45793" lon="4.69451">
        <ele>445</ele>
        <time>2018-08-15T07:30:17.243Z</time>
      </trkpt>
      <trkpt lat="45.4579" lon="4.69448">
        <ele>446</ele>
        <time>2018-08-15T07:30:18.235Z</time>
      </trkpt>
      <trkpt lat="45.4579" lon="4.69448">
        <ele>446</ele>
        <time>2018-08-15T07:30:19.240Z</time>
      </trkpt>
      <trkpt lat="45.45786" lon="4.69445">
        <ele>446</ele>
        <time>2018-08-15T07:30:20.233Z</time>
      </trkpt>
      <trkpt lat="45.45786" lon="4.69445">
        <ele>446</ele>
        <time>2018-08-15T07:30:21.238Z</time>
      </trkpt>
      <trkpt lat="45.45783" lon="4.69442">
        <ele>446</ele>
        <time>2018-08-15T07:30:22.262Z</time>
      </trkpt>
      <trkpt lat="45.45783" lon="4.69442">
        <ele>446</ele>
        <time>2018-08-15T07:30:23.232Z</time>
      </trkpt>
      <trkpt lat="45.45779" lon="4.69439">
        <ele>447</ele>
        <time>2018-08-15T07:30:24.259Z</time>
      </trkpt>
      <trkpt lat="45.45779" lon="4.69439">
        <ele>447</ele>
        <time>2018-08-15T07:30:25.270Z</time>
      </trkpt>
      <trkpt lat="45.45775" lon="4.69436">
        <ele>447</ele>
        <time>2018-08-15T07:30:26.257Z</time>
      </trkpt>
      <trkpt lat="45.45775" lon="4.69436">
        <ele>447</ele>
        <time>2018-08-15T07:30:27.262Z</time>
      </trkpt>
      <trkpt lat="45.45771" lon="4.69433">
        <ele>448</ele>
        <time>2018-08-15T07:30:28.259Z</time>
      </trkpt>
      <trkpt lat="45.45769" lon="4.69432">
        <ele>448</ele>
        <time>2018-08-15T07:30:29.264Z</time>
      </trkpt>
      <trkpt lat="45.45769" lon="4.69432">
        <ele>448</ele>
        <time>2018-08-15T07:30:30.270Z</time>
      </trkpt>
      <trkpt lat="45.45765" lon="4.69429">
        <ele>448</ele>
        <time>2018-08-15T07:30:31.260Z</time>
      </trkpt>
      <trkpt lat="45.45765" lon="4.69429">
        <ele>448</ele>
        <time>2018-08-15T07:30:32.271Z</time>
      </trkpt>
      <trkpt lat="45.45761" lon="4.69425">
        <ele>449</ele>
        <time>2018-08-15T07:30:33.263Z</time>
      </trkpt>
      <trkpt lat="45.45759" lon="4.69424">
        <ele>449</ele>
        <time>2018-08-15T07:30:34.264Z</time>
      </trkpt>
      <trkpt lat="45.45759" lon="4.69424">
        <ele>449</ele>
        <time>2018-08-15T07:30:35.271Z</time>
      </trkpt>
      <trkpt lat="45.45755" lon="4.6942">
        <ele>449</ele>
        <time>2018-08-15T07:30:36.244Z</time>
      </trkpt>
      <trkpt lat="45.45755" lon="4.6942">
        <ele>449</ele>
        <time>2018-08-15T07:30:37.248Z</time>
      </trkpt>
      <trkpt lat="45.45751" lon="4.69417">
        <ele>450</ele>
        <time>2018-08-15T07:30:38.238Z</time>
      </trkpt>
      <trkpt lat="45.45749" lon="4.69416">
        <ele>450</ele>
        <time>2018-08-15T07:30:39.237Z</time>
      </trkpt>
      <trkpt lat="45.45749" lon="4.69416">
        <ele>450</ele>
        <time>2018-08-15T07:30:40.242Z</time>
      </trkpt>
      <trkpt lat="45.45745" lon="4.69413">
        <ele>450</ele>
        <time>2018-08-15T07:30:41.233Z</time>
      </trkpt>
      <trkpt lat="45.45745" lon="4.69413">
        <ele>450</ele>
        <time>2018-08-15T07:30:42.240Z</time>
      </trkpt>
      <trkpt lat="45.45741" lon="4.69411">
        <ele>451</ele>
        <time>2018-08-15T07:30:43.271Z</time>
      </trkpt>
      <trkpt lat="45.45739" lon="4.6941">
        <ele>451</ele>
        <time>2018-08-15T07:30:44.268Z</time>
      </trkpt>
      <trkpt lat="45.45739" lon="4.6941">
        <ele>451</ele>
        <time>2018-08-15T07:30:45.233Z</time>
      </trkpt>
      <trkpt lat="45.45736" lon="4.69406">
        <ele>451</ele>
        <time>2018-08-15T07:30:46.252Z</time>
      </trkpt>
      <trkpt lat="45.45734" lon="4.69405">
        <ele>451</ele>
        <time>2018-08-15T07:30:47.240Z</time>
      </trkpt>
      <trkpt lat="45.45734" lon="4.69405">
        <ele>451</ele>
        <time>2018-08-15T07:30:48.247Z</time>
      </trkpt>
      <trkpt lat="45.4573" lon="4.69402">
        <ele>451</ele>
        <time>2018-08-15T07:30:49.268Z</time>
      </trkpt>
      <trkpt lat="45.45728" lon="4.69401">
        <ele>451</ele>
        <time>2018-08-15T07:30:50.271Z</time>
      </trkpt>
      <trkpt lat="45.45728" lon="4.69401">
        <ele>451</ele>
        <time>2018-08-15T07:30:51.236Z</time>
      </trkpt>
      <trkpt lat="45.45725" lon="4.69397">
        <ele>451</ele>
        <time>2018-08-15T07:30:52.268Z</time>
      </trkpt>
      <trkpt lat="45.45725" lon="4.69397">
        <ele>451</ele>
        <time>2018-08-15T07:30:53.234Z</time>
      </trkpt>
      <trkpt lat="45.45721" lon="4.69394">
        <ele>451</ele>
        <time>2018-08-15T07:30:54.247Z</time>
      </trkpt>
      <trkpt lat="45.45721" lon="4.69394">
        <ele>451</ele>
        <time>2018-08-15T07:30:55.252Z</time>
      </trkpt>
      <trkpt lat="45.45718" lon="4.6939">
        <ele>451</ele>
        <time>2018-08-15T07:30:56.251Z</time>
      </trkpt>
      <trkpt lat="45.45718" lon="4.6939">
        <ele>451</ele>
        <time>2018-08-15T07:30:57.256Z</time>
      </trkpt>
      <trkpt lat="45.45714" lon="4.69387">
        <ele>451</ele>
        <time>2018-08-15T07:30:58.243Z</time>
      </trkpt>
      <trkpt lat="45.45714" lon="4.69387">
        <ele>451</ele>
        <time>2018-08-15T07:30:59.249Z</time>
      </trkpt>
      <trkpt lat="45.4571" lon="4.69383">
        <ele>451</ele>
        <time>2018-08-15T07:31:00.263Z</time>
      </trkpt>
      <trkpt lat="45.4571" lon="4.69383">
        <ele>451</ele>
        <time>2018-08-15T07:31:01.245Z</time>
      </trkpt>
      <trkpt lat="45.45707" lon="4.69379">
        <ele>451</ele>
        <time>2018-08-15T07:31:02.258Z</time>
      </trkpt>
      <trkpt lat="45.45707" lon="4.69379">
        <ele>451</ele>
        <time>2018-08-15T07:31:03.263Z</time>
      </trkpt>
      <trkpt lat="45.45703" lon="4.69376">
        <ele>451</ele>
        <time>2018-08-15T07:31:04.253Z</time>
      </trkpt>
      <trkpt lat="45.45703" lon="4.69376">
        <ele>451</ele>
        <time>2018-08-15T07:31:05.259Z</time>
      </trkpt>
      <trkpt lat="45.45699" lon="4.69371">
        <ele>451</ele>
        <time>2018-08-15T07:31:06.246Z</time>
      </trkpt>
      <trkpt lat="45.45699" lon="4.69371">
        <ele>451</ele>
        <time>2018-08-15T07:31:07.252Z</time>
      </trkpt>
      <trkpt lat="45.45695" lon="4.69367">
        <ele>451</ele>
        <time>2018-08-15T07:31:08.243Z</time>
      </trkpt>
      <trkpt lat="45.45695" lon="4.69367">
        <ele>451</ele>
        <time>2018-08-15T07:31:09.249Z</time>
      </trkpt>
      <trkpt lat="45.45692" lon="4.69362">
        <ele>451</ele>
        <time>2018-08-15T07:31:10.242Z</time>
      </trkpt>
      <trkpt lat="45.4569" lon="4.6936">
        <ele>452</ele>
        <time>2018-08-15T07:31:11.233Z</time>
      </trkpt>
      <trkpt lat="45.4569" lon="4.6936">
        <ele>452</ele>
        <time>2018-08-15T07:31:12.239Z</time>
      </trkpt>
      <trkpt lat="45.45686" lon="4.69357">
        <ele>452</ele>
        <time>2018-08-15T07:31:13.237Z</time>
      </trkpt>
      <trkpt lat="45.45684" lon="4.69355">
        <ele>452</ele>
        <time>2018-08-15T07:31:14.233Z</time>
      </trkpt>
      <trkpt lat="45.45683" lon="4.69354">
        <ele>452</ele>
        <time>2018-08-15T07:31:15.233Z</time>
      </trkpt>
      <trkpt lat="45.45683" lon="4.69354">
        <ele>452</ele>
        <time>2018-08-15T07:31:16.238Z</time>
      </trkpt>
      <trkpt lat="45.45679" lon="4.69353">
        <ele>453</ele>
        <time>2018-08-15T07:31:17.232Z</time>
      </trkpt>
      <trkpt lat="45.45677" lon="4.69351">
        <ele>453</ele>
        <time>2018-08-15T07:31:18.266Z</time>
      </trkpt>
      <trkpt lat="45.45677" lon="4.69351">
        <ele>453</ele>
        <time>2018-08-15T07:31:19.232Z</time>
      </trkpt>
      <trkpt lat="45.45675" lon="4.69346">
        <ele>454</ele>
        <time>2018-08-15T07:31:20.261Z</time>
      </trkpt>
      <trkpt lat="45.45675" lon="4.69346">
        <ele>454</ele>
        <time>2018-08-15T07:31:21.270Z</time>
      </trkpt>
      <trkpt lat="45.45671" lon="4.69342">
        <ele>454</ele>
        <time>2018-08-15T07:31:22.265Z</time>
      </trkpt>
      <trkpt lat="45.45671" lon="4.69342">
        <ele>454</ele>
        <time>2018-08-15T07:31:23.271Z</time>
      </trkpt>
      <trkpt lat="45.45667" lon="4.6934">
        <ele>455</ele>
        <time>2018-08-15T07:31:24.232Z</time>
      </trkpt>
      <trkpt lat="45.45667" lon="4.6934">
        <ele>455</ele>
        <time>2018-08-15T07:31:25.255Z</time>
      </trkpt>
      <trkpt lat="45.45663" lon="4.69336">
        <ele>455</ele>
        <time>2018-08-15T07:31:26.245Z</time>
      </trkpt>
      <trkpt lat="45.45663" lon="4.69336">
        <ele>455</ele>
        <time>2018-08-15T07:31:27.250Z</time>
      </trkpt>
      <trkpt lat="45.45658" lon="4.69334">
        <ele>455</ele>
        <time>2018-08-15T07:31:28.238Z</time>
      </trkpt>
      <trkpt lat="45.45658" lon="4.69334">
        <ele>455</ele>
        <time>2018-08-15T07:31:29.244Z</time>
      </trkpt>
      <trkpt lat="45.45653" lon="4.69333">
        <ele>456</ele>
        <time>2018-08-15T07:31:30.232Z</time>
      </trkpt>
      <trkpt lat="45.45653" lon="4.69333">
        <ele>456</ele>
        <time>2018-08-15T07:31:31.243Z</time>
      </trkpt>
      <trkpt lat="45.45647" lon="4.69331">
        <ele>456</ele>
        <time>2018-08-15T07:31:32.251Z</time>
      </trkpt>
      <trkpt lat="45.45647" lon="4.69331">
        <ele>456</ele>
        <time>2018-08-15T07:31:33.261Z</time>
      </trkpt>
      <trkpt lat="45.45641" lon="4.6933">
        <ele>456</ele>
        <time>2018-08-15T07:31:34.249Z</time>
      </trkpt>
      <trkpt lat="45.45641" lon="4.6933">
        <ele>456</ele>
        <time>2018-08-15T07:31:35.255Z</time>
      </trkpt>
      <trkpt lat="45.45634" lon="4.69327">
        <ele>457</ele>
        <time>2018-08-15T07:31:36.263Z</time>
      </trkpt>
      <trkpt lat="45.45631" lon="4.69326">
        <ele>457</ele>
        <time>2018-08-15T07:31:37.271Z</time>
      </trkpt>
      <trkpt lat="45.45627" lon="4.69324">
        <ele>457</ele>
        <time>2018-08-15T07:31:38.268Z</time>
      </trkpt>
      <trkpt lat="45.45627" lon="4.69324">
        <ele>457</ele>
        <time>2018-08-15T07:31:39.234Z</time>
      </trkpt>
      <trkpt lat="45.45621" lon="4.6932">
        <ele>457</ele>
        <time>2018-08-15T07:31:40.262Z</time>
      </trkpt>
      <trkpt lat="45.45621" lon="4.6932">
        <ele>457</ele>
        <time>2018-08-15T07:31:41.271Z</time>
      </trkpt>
      <trkpt lat="45.45616" lon="4.69316">
        <ele>457</ele>
        <time>2018-08-15T07:31:42.256Z</time>
      </trkpt>
      <trkpt lat="45.45616" lon="4.69316">
        <ele>457</ele>
        <time>2018-08-15T07:31:43.262Z</time>
      </trkpt>
      <trkpt lat="45.45611" lon="4.69312">
        <ele>457</ele>
        <time>2018-08-15T07:31:44.263Z</time>
      </trkpt>
      <trkpt lat="45.45611" lon="4.69312">
        <ele>457</ele>
        <time>2018-08-15T07:31:45.269Z</time>
      </trkpt>
      <trkpt lat="45.45607" lon="4.69306">
        <ele>457</ele>
        <time>2018-08-15T07:31:46.263Z</time>
      </trkpt>
      <trkpt lat="45.45607" lon="4.69306">
        <ele>457</ele>
        <time>2018-08-15T07:31:47.271Z</time>
      </trkpt>
      <trkpt lat="45.45603" lon="4.69302">
        <ele>458</ele>
        <time>2018-08-15T07:31:48.259Z</time>
      </trkpt>
      <trkpt lat="45.45603" lon="4.69302">
        <ele>458</ele>
        <time>2018-08-15T07:31:49.232Z</time>
      </trkpt>
      <trkpt lat="45.45599" lon="4.69297">
        <ele>458</ele>
        <time>2018-08-15T07:31:50.265Z</time>
      </trkpt>
      <trkpt lat="45.45599" lon="4.69297">
        <ele>458</ele>
        <time>2018-08-15T07:31:51.245Z</time>
      </trkpt>
      <trkpt lat="45.45596" lon="4.69291">
        <ele>458</ele>
        <time>2018-08-15T07:31:52.234Z</time>
      </trkpt>
      <trkpt lat="45.45596" lon="4.69291">
        <ele>458</ele>
        <time>2018-08-15T07:31:53.241Z</time>
      </trkpt>
      <trkpt lat="45.45593" lon="4.69287">
        <ele>459</ele>
        <time>2018-08-15T07:31:54.268Z</time>
      </trkpt>
      <trkpt lat="45.45593" lon="4.69287">
        <ele>459</ele>
        <time>2018-08-15T07:31:55.234Z</time>
      </trkpt>
      <trkpt lat="45.45591" lon="4.69282">
        <ele>459</ele>
        <time>2018-08-15T07:31:56.266Z</time>
      </trkpt>
      <trkpt lat="45.45591" lon="4.69282">
        <ele>459</ele>
        <time>2018-08-15T07:31:57.232Z</time>
      </trkpt>
      <trkpt lat="45.45588" lon="4.69277">
        <ele>459</ele>
        <time>2018-08-15T07:31:58.268Z</time>
      </trkpt>
      <trkpt lat="45.45588" lon="4.69277">
        <ele>459</ele>
        <time>2018-08-15T07:31:59.234Z</time>
      </trkpt>
      <trkpt lat="45.45586" lon="4.69273">
        <ele>460</ele>
        <time>2018-08-15T07:32:00.239Z</time>
      </trkpt>
      <trkpt lat="45.45586" lon="4.69273">
        <ele>460</ele>
        <time>2018-08-15T07:32:01.244Z</time>
      </trkpt>
      <trkpt lat="45.45584" lon="4.69268">
        <ele>461</ele>
        <time>2018-08-15T07:32:02.252Z</time>
      </trkpt>
      <trkpt lat="45.45584" lon="4.69268">
        <ele>461</ele>
        <time>2018-08-15T07:32:03.257Z</time>
      </trkpt>
      <trkpt lat="45.45582" lon="4.69263">
        <ele>461</ele>
        <time>2018-08-15T07:32:04.242Z</time>
      </trkpt>
      <trkpt lat="45.45582" lon="4.69263">
        <ele>461</ele>
        <time>2018-08-15T07:32:05.248Z</time>
      </trkpt>
      <trkpt lat="45.4558" lon="4.69257">
        <ele>462</ele>
        <time>2018-08-15T07:32:06.254Z</time>
      </trkpt>
      <trkpt lat="45.4558" lon="4.69257">
        <ele>462</ele>
        <time>2018-08-15T07:32:07.260Z</time>
      </trkpt>
      <trkpt lat="45.45578" lon="4.69251">
        <ele>462</ele>
        <time>2018-08-15T07:32:08.249Z</time>
      </trkpt>
      <trkpt lat="45.45578" lon="4.69251">
        <ele>462</ele>
        <time>2018-08-15T07:32:09.255Z</time>
      </trkpt>
      <trkpt lat="45.45578" lon="4.69245">
        <ele>463</ele>
        <time>2018-08-15T07:32:10.247Z</time>
      </trkpt>
      <trkpt lat="45.45578" lon="4.69245">
        <ele>463</ele>
        <time>2018-08-15T07:32:11.252Z</time>
      </trkpt>
      <trkpt lat="45.45577" lon="4.69239">
        <ele>463</ele>
        <time>2018-08-15T07:32:12.235Z</time>
      </trkpt>
      <trkpt lat="45.45577" lon="4.69239">
        <ele>463</ele>
        <time>2018-08-15T07:32:13.244Z</time>
      </trkpt>
      <trkpt lat="45.45575" lon="4.69234">
        <ele>464</ele>
        <time>2018-08-15T07:32:14.247Z</time>
      </trkpt>
      <trkpt lat="45.45575" lon="4.69234">
        <ele>464</ele>
        <time>2018-08-15T07:32:15.252Z</time>
      </trkpt>
      <trkpt lat="45.45573" lon="4.69229">
        <ele>464</ele>
        <time>2018-08-15T07:32:16.248Z</time>
      </trkpt>
      <trkpt lat="45.45573" lon="4.69229">
        <ele>464</ele>
        <time>2018-08-15T07:32:17.253Z</time>
      </trkpt>
      <trkpt lat="45.45572" lon="4.69224">
        <ele>465</ele>
        <time>2018-08-15T07:32:18.261Z</time>
      </trkpt>
      <trkpt lat="45.45572" lon="4.69224">
        <ele>465</ele>
        <time>2018-08-15T07:32:19.269Z</time>
      </trkpt>
      <trkpt lat="45.4557" lon="4.69218">
        <ele>465</ele>
        <time>2018-08-15T07:32:20.263Z</time>
      </trkpt>
      <trkpt lat="45.4557" lon="4.69218">
        <ele>465</ele>
        <time>2018-08-15T07:32:21.269Z</time>
      </trkpt>
      <trkpt lat="45.45569" lon="4.69213">
        <ele>465</ele>
        <time>2018-08-15T07:32:22.256Z</time>
      </trkpt>
      <trkpt lat="45.45569" lon="4.69213">
        <ele>465</ele>
        <time>2018-08-15T07:32:23.261Z</time>
      </trkpt>
      <trkpt lat="45.45567" lon="4.69208">
        <ele>466</ele>
        <time>2018-08-15T07:32:24.262Z</time>
      </trkpt>
      <trkpt lat="45.45567" lon="4.69208">
        <ele>466</ele>
        <time>2018-08-15T07:32:25.268Z</time>
      </trkpt>
      <trkpt lat="45.45566" lon="4.69202">
        <ele>466</ele>
        <time>2018-08-15T07:32:26.232Z</time>
      </trkpt>
      <trkpt lat="45.45566" lon="4.69202">
        <ele>466</ele>
        <time>2018-08-15T07:32:27.237Z</time>
      </trkpt>
      <trkpt lat="45.45564" lon="4.69196">
        <ele>466</ele>
        <time>2018-08-15T07:32:28.253Z</time>
      </trkpt>
      <trkpt lat="45.45564" lon="4.69196">
        <ele>466</ele>
        <time>2018-08-15T07:32:29.260Z</time>
      </trkpt>
      <trkpt lat="45.45563" lon="4.6919">
        <ele>466</ele>
        <time>2018-08-15T07:32:30.251Z</time>
      </trkpt>
      <trkpt lat="45.45563" lon="4.6919">
        <ele>466</ele>
        <time>2018-08-15T07:32:31.256Z</time>
      </trkpt>
      <trkpt lat="45.45561" lon="4.69184">
        <ele>467</ele>
        <time>2018-08-15T07:32:32.237Z</time>
      </trkpt>
      <trkpt lat="45.45561" lon="4.69184">
        <ele>467</ele>
        <time>2018-08-15T07:32:33.243Z</time>
      </trkpt>
      <trkpt lat="45.45559" lon="4.69178">
        <ele>467</ele>
        <time>2018-08-15T07:32:34.238Z</time>
      </trkpt>
      <trkpt lat="45.45559" lon="4.69178">
        <ele>467</ele>
        <time>2018-08-15T07:32:35.243Z</time>
      </trkpt>
      <trkpt lat="45.45557" lon="4.69173">
        <ele>467</ele>
        <time>2018-08-15T07:32:36.249Z</time>
      </trkpt>
      <trkpt lat="45.45556" lon="4.6917">
        <ele>467</ele>
        <time>2018-08-15T07:32:37.237Z</time>
      </trkpt>
      <trkpt lat="45.45555" lon="4.69167">
        <ele>468</ele>
        <time>2018-08-15T07:32:38.236Z</time>
      </trkpt>
      <trkpt lat="45.45555" lon="4.69167">
        <ele>468</ele>
        <time>2018-08-15T07:32:39.242Z</time>
      </trkpt>
      <trkpt lat="45.45554" lon="4.69161">
        <ele>468</ele>
        <time>2018-08-15T07:32:40.264Z</time>
      </trkpt>
      <trkpt lat="45.45554" lon="4.69161">
        <ele>468</ele>
        <time>2018-08-15T07:32:41.232Z</time>
      </trkpt>
      <trkpt lat="45.45552" lon="4.69155">
        <ele>468</ele>
        <time>2018-08-15T07:32:42.265Z</time>
      </trkpt>
      <trkpt lat="45.45552" lon="4.69155">
        <ele>468</ele>
        <time>2018-08-15T07:32:43.271Z</time>
      </trkpt>
      <trkpt lat="45.45551" lon="4.6915">
        <ele>469</ele>
        <time>2018-08-15T07:32:44.266Z</time>
      </trkpt>
      <trkpt lat="45.45551" lon="4.6915">
        <ele>469</ele>
        <time>2018-08-15T07:32:45.233Z</time>
      </trkpt>
      <trkpt lat="45.45549" lon="4.69144">
        <ele>469</ele>
        <time>2018-08-15T07:32:46.235Z</time>
      </trkpt>
      <trkpt lat="45.45549" lon="4.69141">
        <ele>469</ele>
        <time>2018-08-15T07:32:47.271Z</time>
      </trkpt>
      <trkpt lat="45.45549" lon="4.69141">
        <ele>469</ele>
        <time>2018-08-15T07:32:48.237Z</time>
      </trkpt>
      <trkpt lat="45.45547" lon="4.69135">
        <ele>469</ele>
        <time>2018-08-15T07:32:49.252Z</time>
      </trkpt>
      <trkpt lat="45.45547" lon="4.69132">
        <ele>470</ele>
        <time>2018-08-15T07:32:50.247Z</time>
      </trkpt>
      <trkpt lat="45.45547" lon="4.69132">
        <ele>470</ele>
        <time>2018-08-15T07:32:51.234Z</time>
      </trkpt>
      <trkpt lat="45.45546" lon="4.69126">
        <ele>470</ele>
        <time>2018-08-15T07:32:52.268Z</time>
      </trkpt>
      <trkpt lat="45.45546" lon="4.69126">
        <ele>470</ele>
        <time>2018-08-15T07:32:53.235Z</time>
      </trkpt>
      <trkpt lat="45.45544" lon="4.6912">
        <ele>470</ele>
        <time>2018-08-15T07:32:54.269Z</time>
      </trkpt>
      <trkpt lat="45.45544" lon="4.6912">
        <ele>470</ele>
        <time>2018-08-15T07:32:55.235Z</time>
      </trkpt>
      <trkpt lat="45.45543" lon="4.69114">
        <ele>470</ele>
        <time>2018-08-15T07:32:56.238Z</time>
      </trkpt>
      <trkpt lat="45.45543" lon="4.69114">
        <ele>470</ele>
        <time>2018-08-15T07:32:57.244Z</time>
      </trkpt>
      <trkpt lat="45.45542" lon="4.69109">
        <ele>471</ele>
        <time>2018-08-15T07:32:58.251Z</time>
      </trkpt>
      <trkpt lat="45.45542" lon="4.69109">
        <ele>471</ele>
        <time>2018-08-15T07:32:59.257Z</time>
      </trkpt>
      <trkpt lat="45.4554" lon="4.69103">
        <ele>471</ele>
        <time>2018-08-15T07:33:00.242Z</time>
      </trkpt>
      <trkpt lat="45.4554" lon="4.69103">
        <ele>471</ele>
        <time>2018-08-15T07:33:01.247Z</time>
      </trkpt>
      <trkpt lat="45.45539" lon="4.69098">
        <ele>471</ele>
        <time>2018-08-15T07:33:02.232Z</time>
      </trkpt>
      <trkpt lat="45.45539" lon="4.69098">
        <ele>471</ele>
        <time>2018-08-15T07:33:03.238Z</time>
      </trkpt>
      <trkpt lat="45.45538" lon="4.69093">
        <ele>472</ele>
        <time>2018-08-15T07:33:04.232Z</time>
      </trkpt>
      <trkpt lat="45.45538" lon="4.69093">
        <ele>472</ele>
        <time>2018-08-15T07:33:05.239Z</time>
      </trkpt>
      <trkpt lat="45.45537" lon="4.69087">
        <ele>472</ele>
        <time>2018-08-15T07:33:06.243Z</time>
      </trkpt>
      <trkpt lat="45.45537" lon="4.69087">
        <ele>472</ele>
        <time>2018-08-15T07:33:07.250Z</time>
      </trkpt>
      <trkpt lat="45.45537" lon="4.6908">
        <ele>472</ele>
        <time>2018-08-15T07:33:08.239Z</time>
      </trkpt>
      <trkpt lat="45.45537" lon="4.6908">
        <ele>472</ele>
        <time>2018-08-15T07:33:09.246Z</time>
      </trkpt>
      <trkpt lat="45.45536" lon="4.69075">
        <ele>473</ele>
        <time>2018-08-15T07:33:10.244Z</time>
      </trkpt>
      <trkpt lat="45.45536" lon="4.69075">
        <ele>473</ele>
        <time>2018-08-15T07:33:11.250Z</time>
      </trkpt>
      <trkpt lat="45.45535" lon="4.69069">
        <ele>473</ele>
        <time>2018-08-15T07:33:12.253Z</time>
      </trkpt>
      <trkpt lat="45.45535" lon="4.69069">
        <ele>473</ele>
        <time>2018-08-15T07:33:13.258Z</time>
      </trkpt>
      <trkpt lat="45.45534" lon="4.69063">
        <ele>473</ele>
        <time>2018-08-15T07:33:14.244Z</time>
      </trkpt>
      <trkpt lat="45.45534" lon="4.69063">
        <ele>473</ele>
        <time>2018-08-15T07:33:15.249Z</time>
      </trkpt>
      <trkpt lat="45.45533" lon="4.69058">
        <ele>473</ele>
        <time>2018-08-15T07:33:16.260Z</time>
      </trkpt>
      <trkpt lat="45.45533" lon="4.69058">
        <ele>473</ele>
        <time>2018-08-15T07:33:17.236Z</time>
      </trkpt>
      <trkpt lat="45.45532" lon="4.69052">
        <ele>474</ele>
        <time>2018-08-15T07:33:18.269Z</time>
      </trkpt>
      <trkpt lat="45.45532" lon="4.69049">
        <ele>474</ele>
        <time>2018-08-15T07:33:19.271Z</time>
      </trkpt>
      <trkpt lat="45.45531" lon="4.69046">
        <ele>474</ele>
        <time>2018-08-15T07:33:20.251Z</time>
      </trkpt>
      <trkpt lat="45.45531" lon="4.69046">
        <ele>474</ele>
        <time>2018-08-15T07:33:21.258Z</time>
      </trkpt>
      <trkpt lat="45.45529" lon="4.69041">
        <ele>474</ele>
        <time>2018-08-15T07:33:22.248Z</time>
      </trkpt>
      <trkpt lat="45.45529" lon="4.69038">
        <ele>475</ele>
        <time>2018-08-15T07:33:23.253Z</time>
      </trkpt>
      <trkpt lat="45.45529" lon="4.69038">
        <ele>475</ele>
        <time>2018-08-15T07:33:24.258Z</time>
      </trkpt>
      <trkpt lat="45.45527" lon="4.69033">
        <ele>475</ele>
        <time>2018-08-15T07:33:25.246Z</time>
      </trkpt>
      <trkpt lat="45.45527" lon="4.69033">
        <ele>475</ele>
        <time>2018-08-15T07:33:26.251Z</time>
      </trkpt>
      <trkpt lat="45.45525" lon="4.69028">
        <ele>475</ele>
        <time>2018-08-15T07:33:27.243Z</time>
      </trkpt>
      <trkpt lat="45.45525" lon="4.69028">
        <ele>475</ele>
        <time>2018-08-15T07:33:28.248Z</time>
      </trkpt>
      <trkpt lat="45.45523" lon="4.69022">
        <ele>475</ele>
        <time>2018-08-15T07:33:29.243Z</time>
      </trkpt>
      <trkpt lat="45.45523" lon="4.69022">
        <ele>475</ele>
        <time>2018-08-15T07:33:30.249Z</time>
      </trkpt>
      <trkpt lat="45.45522" lon="4.69017">
        <ele>475</ele>
        <time>2018-08-15T07:33:31.235Z</time>
      </trkpt>
      <trkpt lat="45.45521" lon="4.69015">
        <ele>475</ele>
        <time>2018-08-15T07:33:32.235Z</time>
      </trkpt>
      <trkpt lat="45.45521" lon="4.69015">
        <ele>475</ele>
        <time>2018-08-15T07:33:33.241Z</time>
      </trkpt>
      <trkpt lat="45.45519" lon="4.6901">
        <ele>476</ele>
        <time>2018-08-15T07:33:34.242Z</time>
      </trkpt>
      <trkpt lat="45.45519" lon="4.6901">
        <ele>476</ele>
        <time>2018-08-15T07:33:35.248Z</time>
      </trkpt>
      <trkpt lat="45.45517" lon="4.69005">
        <ele>476</ele>
        <time>2018-08-15T07:33:36.243Z</time>
      </trkpt>
      <trkpt lat="45.45517" lon="4.69005">
        <ele>476</ele>
        <time>2018-08-15T07:33:37.268Z</time>
      </trkpt>
      <trkpt lat="45.45515" lon="4.69">
        <ele>476</ele>
        <time>2018-08-15T07:33:38.253Z</time>
      </trkpt>
      <trkpt lat="45.45515" lon="4.69">
        <ele>476</ele>
        <time>2018-08-15T07:33:39.258Z</time>
      </trkpt>
      <trkpt lat="45.45513" lon="4.68995">
        <ele>476</ele>
        <time>2018-08-15T07:33:40.258Z</time>
      </trkpt>
      <trkpt lat="45.45513" lon="4.68995">
        <ele>476</ele>
        <time>2018-08-15T07:33:41.271Z</time>
      </trkpt>
      <trkpt lat="45.45512" lon="4.68989">
        <ele>477</ele>
        <time>2018-08-15T07:33:42.263Z</time>
      </trkpt>
      <trkpt lat="45.45512" lon="4.68989">
        <ele>477</ele>
        <time>2018-08-15T07:33:43.269Z</time>
      </trkpt>
      <trkpt lat="45.45509" lon="4.68984">
        <ele>477</ele>
        <time>2018-08-15T07:33:44.237Z</time>
      </trkpt>
      <trkpt lat="45.45509" lon="4.68984">
        <ele>477</ele>
        <time>2018-08-15T07:33:45.242Z</time>
      </trkpt>
      <trkpt lat="45.45507" lon="4.68979">
        <ele>477</ele>
        <time>2018-08-15T07:33:46.243Z</time>
      </trkpt>
      <trkpt lat="45.45507" lon="4.68979">
        <ele>477</ele>
        <time>2018-08-15T07:33:47.248Z</time>
      </trkpt>
      <trkpt lat="45.45505" lon="4.68973">
        <ele>477</ele>
        <time>2018-08-15T07:33:48.249Z</time>
      </trkpt>
      <trkpt lat="45.45505" lon="4.68973">
        <ele>477</ele>
        <time>2018-08-15T07:33:49.254Z</time>
      </trkpt>
      <trkpt lat="45.45503" lon="4.68968">
        <ele>478</ele>
        <time>2018-08-15T07:33:50.249Z</time>
      </trkpt>
      <trkpt lat="45.45502" lon="4.68966">
        <ele>478</ele>
        <time>2018-08-15T07:33:51.271Z</time>
      </trkpt>
      <trkpt lat="45.45502" lon="4.68966">
        <ele>478</ele>
        <time>2018-08-15T07:33:52.237Z</time>
      </trkpt>
      <trkpt lat="45.455" lon="4.6896">
        <ele>478</ele>
        <time>2018-08-15T07:33:53.252Z</time>
      </trkpt>
      <trkpt lat="45.455" lon="4.6896">
        <ele>478</ele>
        <time>2018-08-15T07:33:54.258Z</time>
      </trkpt>
      <trkpt lat="45.45498" lon="4.68955">
        <ele>478</ele>
        <time>2018-08-15T07:33:55.256Z</time>
      </trkpt>
      <trkpt lat="45.45497" lon="4.68952">
        <ele>478</ele>
        <time>2018-08-15T07:33:56.246Z</time>
      </trkpt>
      <trkpt lat="45.45497" lon="4.68952">
        <ele>478</ele>
        <time>2018-08-15T07:33:57.252Z</time>
      </trkpt>
      <trkpt lat="45.45494" lon="4.68947">
        <ele>478</ele>
        <time>2018-08-15T07:33:58.240Z</time>
      </trkpt>
      <trkpt lat="45.45494" lon="4.68947">
        <ele>478</ele>
        <time>2018-08-15T07:33:59.246Z</time>
      </trkpt>
      <trkpt lat="45.45493" lon="4.68942">
        <ele>479</ele>
        <time>2018-08-15T07:34:00.244Z</time>
      </trkpt>
      <trkpt lat="45.45493" lon="4.68942">
        <ele>479</ele>
        <time>2018-08-15T07:34:01.250Z</time>
      </trkpt>
      <trkpt lat="45.45491" lon="4.68937">
        <ele>479</ele>
        <time>2018-08-15T07:34:02.257Z</time>
      </trkpt>
      <trkpt lat="45.45491" lon="4.68937">
        <ele>479</ele>
        <time>2018-08-15T07:34:03.262Z</time>
      </trkpt>
      <trkpt lat="45.45489" lon="4.68932">
        <ele>479</ele>
        <time>2018-08-15T07:34:04.232Z</time>
      </trkpt>
      <trkpt lat="45.45489" lon="4.68932">
        <ele>479</ele>
        <time>2018-08-15T07:34:05.238Z</time>
      </trkpt>
      <trkpt lat="45.45486" lon="4.68927">
        <ele>479</ele>
        <time>2018-08-15T07:34:06.265Z</time>
      </trkpt>
      <trkpt lat="45.45485" lon="4.68925">
        <ele>479</ele>
        <time>2018-08-15T07:34:07.252Z</time>
      </trkpt>
      <trkpt lat="45.45484" lon="4.68922">
        <ele>479</ele>
        <time>2018-08-15T07:34:08.237Z</time>
      </trkpt>
      <trkpt lat="45.45484" lon="4.68922">
        <ele>479</ele>
        <time>2018-08-15T07:34:09.242Z</time>
      </trkpt>
      <trkpt lat="45.45481" lon="4.68918">
        <ele>480</ele>
        <time>2018-08-15T07:34:10.240Z</time>
      </trkpt>
      <trkpt lat="45.45481" lon="4.68918">
        <ele>480</ele>
        <time>2018-08-15T07:34:11.245Z</time>
      </trkpt>
      <trkpt lat="45.45479" lon="4.68912">
        <ele>480</ele>
        <time>2018-08-15T07:34:12.240Z</time>
      </trkpt>
      <trkpt lat="45.45479" lon="4.68912">
        <ele>480</ele>
        <time>2018-08-15T07:34:13.245Z</time>
      </trkpt>
      <trkpt lat="45.45478" lon="4.68907">
        <ele>480</ele>
        <time>2018-08-15T07:34:14.269Z</time>
      </trkpt>
      <trkpt lat="45.45478" lon="4.68907">
        <ele>480</ele>
        <time>2018-08-15T07:34:15.235Z</time>
      </trkpt>
      <trkpt lat="45.45475" lon="4.68902">
        <ele>480</ele>
        <time>2018-08-15T07:34:16.269Z</time>
      </trkpt>
      <trkpt lat="45.45475" lon="4.68902">
        <ele>480</ele>
        <time>2018-08-15T07:34:17.236Z</time>
      </trkpt>
      <trkpt lat="45.45473" lon="4.68897">
        <ele>481</ele>
        <time>2018-08-15T07:34:18.234Z</time>
      </trkpt>
      <trkpt lat="45.45473" lon="4.68897">
        <ele>481</ele>
        <time>2018-08-15T07:34:19.240Z</time>
      </trkpt>
      <trkpt lat="45.4547" lon="4.68891">
        <ele>481</ele>
        <time>2018-08-15T07:34:20.236Z</time>
      </trkpt>
      <trkpt lat="45.4547" lon="4.68891">
        <ele>481</ele>
        <time>2018-08-15T07:34:21.241Z</time>
      </trkpt>
      <trkpt lat="45.45467" lon="4.68887">
        <ele>481</ele>
        <time>2018-08-15T07:34:22.262Z</time>
      </trkpt>
      <trkpt lat="45.45466" lon="4.68885">
        <ele>481</ele>
        <time>2018-08-15T07:34:23.269Z</time>
      </trkpt>
      <trkpt lat="45.45466" lon="4.68885">
        <ele>481</ele>
        <time>2018-08-15T07:34:24.236Z</time>
      </trkpt>
      <trkpt lat="45.45464" lon="4.6888">
        <ele>482</ele>
        <time>2018-08-15T07:34:25.262Z</time>
      </trkpt>
      <trkpt lat="45.45463" lon="4.68877">
        <ele>482</ele>
        <time>2018-08-15T07:34:26.257Z</time>
      </trkpt>
      <trkpt lat="45.45463" lon="4.68877">
        <ele>482</ele>
        <time>2018-08-15T07:34:27.264Z</time>
      </trkpt>
      <trkpt lat="45.4546" lon="4.68872">
        <ele>482</ele>
        <time>2018-08-15T07:34:28.259Z</time>
      </trkpt>
      <trkpt lat="45.4546" lon="4.68872">
        <ele>482</ele>
        <time>2018-08-15T07:34:29.232Z</time>
      </trkpt>
      <trkpt lat="45.45458" lon="4.68868">
        <ele>482</ele>
        <time>2018-08-15T07:34:30.262Z</time>
      </trkpt>
      <trkpt lat="45.45458" lon="4.68868">
        <ele>482</ele>
        <time>2018-08-15T07:34:31.268Z</time>
      </trkpt>
      <trkpt lat="45.45455" lon="4.68863">
        <ele>483</ele>
        <time>2018-08-15T07:34:32.262Z</time>
      </trkpt>
      <trkpt lat="45.45455" lon="4.68863">
        <ele>483</ele>
        <time>2018-08-15T07:34:33.268Z</time>
      </trkpt>
      <trkpt lat="45.45453" lon="4.68858">
        <ele>483</ele>
        <time>2018-08-15T07:34:34.270Z</time>
      </trkpt>
      <trkpt lat="45.45453" lon="4.68858">
        <ele>483</ele>
        <time>2018-08-15T07:34:35.235Z</time>
      </trkpt>
      <trkpt lat="45.4545" lon="4.68853">
        <ele>483</ele>
        <time>2018-08-15T07:34:36.245Z</time>
      </trkpt>
      <trkpt lat="45.45449" lon="4.6885">
        <ele>483</ele>
        <time>2018-08-15T07:34:37.261Z</time>
      </trkpt>
      <trkpt lat="45.45448" lon="4.68848">
        <ele>483</ele>
        <time>2018-08-15T07:34:38.250Z</time>
      </trkpt>
      <trkpt lat="45.45448" lon="4.68848">
        <ele>483</ele>
        <time>2018-08-15T07:34:39.256Z</time>
      </trkpt>
      <trkpt lat="45.45446" lon="4.68843">
        <ele>484</ele>
        <time>2018-08-15T07:34:40.243Z</time>
      </trkpt>
      <trkpt lat="45.45446" lon="4.68843">
        <ele>484</ele>
        <time>2018-08-15T07:34:41.249Z</time>
      </trkpt>
      <trkpt lat="45.45443" lon="4.68839">
        <ele>484</ele>
        <time>2018-08-15T07:34:42.237Z</time>
      </trkpt>
      <trkpt lat="45.45443" lon="4.68839">
        <ele>484</ele>
        <time>2018-08-15T07:34:43.243Z</time>
      </trkpt>
      <trkpt lat="45.45441" lon="4.68834">
        <ele>484</ele>
        <time>2018-08-15T07:34:44.269Z</time>
      </trkpt>
      <trkpt lat="45.45441" lon="4.68834">
        <ele>484</ele>
        <time>2018-08-15T07:34:45.234Z</time>
      </trkpt>
      <trkpt lat="45.45438" lon="4.68829">
        <ele>485</ele>
        <time>2018-08-15T07:34:46.238Z</time>
      </trkpt>
      <trkpt lat="45.45438" lon="4.68829">
        <ele>485</ele>
        <time>2018-08-15T07:34:47.243Z</time>
      </trkpt>
      <trkpt lat="45.45436" lon="4.68824">
        <ele>485</ele>
        <time>2018-08-15T07:34:48.244Z</time>
      </trkpt>
      <trkpt lat="45.45436" lon="4.68824">
        <ele>485</ele>
        <time>2018-08-15T07:34:49.250Z</time>
      </trkpt>
      <trkpt lat="45.45433" lon="4.68819">
        <ele>485</ele>
        <time>2018-08-15T07:34:50.243Z</time>
      </trkpt>
      <trkpt lat="45.45433" lon="4.68819">
        <ele>485</ele>
        <time>2018-08-15T07:34:51.248Z</time>
      </trkpt>
      <trkpt lat="45.45431" lon="4.68815">
        <ele>486</ele>
        <time>2018-08-15T07:34:52.234Z</time>
      </trkpt>
      <trkpt lat="45.45431" lon="4.68815">
        <ele>486</ele>
        <time>2018-08-15T07:34:53.251Z</time>
      </trkpt>
      <trkpt lat="45.45428" lon="4.68811">
        <ele>486</ele>
        <time>2018-08-15T07:34:54.238Z</time>
      </trkpt>
      <trkpt lat="45.45428" lon="4.68811">
        <ele>486</ele>
        <time>2018-08-15T07:34:55.244Z</time>
      </trkpt>
      <trkpt lat="45.45425" lon="4.68807">
        <ele>486</ele>
        <time>2018-08-15T07:34:56.267Z</time>
      </trkpt>
      <trkpt lat="45.45425" lon="4.68807">
        <ele>486</ele>
        <time>2018-08-15T07:34:57.233Z</time>
      </trkpt>
      <trkpt lat="45.45422" lon="4.68803">
        <ele>487</ele>
        <time>2018-08-15T07:34:58.266Z</time>
      </trkpt>
      <trkpt lat="45.45422" lon="4.68803">
        <ele>487</ele>
        <time>2018-08-15T07:34:59.232Z</time>
      </trkpt>
      <trkpt lat="45.45419" lon="4.68798">
        <ele>487</ele>
        <time>2018-08-15T07:35:00.233Z</time>
      </trkpt>
      <trkpt lat="45.45418" lon="4.68796">
        <ele>487</ele>
        <time>2018-08-15T07:35:01.232Z</time>
      </trkpt>
      <trkpt lat="45.45416" lon="4.68794">
        <ele>487</ele>
        <time>2018-08-15T07:35:02.254Z</time>
      </trkpt>
      <trkpt lat="45.45416" lon="4.68794">
        <ele>487</ele>
        <time>2018-08-15T07:35:03.259Z</time>
      </trkpt>
      <trkpt lat="45.45413" lon="4.6879">
        <ele>488</ele>
        <time>2018-08-15T07:35:04.268Z</time>
      </trkpt>
      <trkpt lat="45.45413" lon="4.6879">
        <ele>488</ele>
        <time>2018-08-15T07:35:05.234Z</time>
      </trkpt>
      <trkpt lat="45.45409" lon="4.68787">
        <ele>488</ele>
        <time>2018-08-15T07:35:06.263Z</time>
      </trkpt>
      <trkpt lat="45.45409" lon="4.68787">
        <ele>488</ele>
        <time>2018-08-15T07:35:07.270Z</time>
      </trkpt>
      <trkpt lat="45.45407" lon="4.68783">
        <ele>488</ele>
        <time>2018-08-15T07:35:08.253Z</time>
      </trkpt>
      <trkpt lat="45.45407" lon="4.68783">
        <ele>488</ele>
        <time>2018-08-15T07:35:09.259Z</time>
      </trkpt>
      <trkpt lat="45.45403" lon="4.6878">
        <ele>489</ele>
        <time>2018-08-15T07:35:10.242Z</time>
      </trkpt>
      <trkpt lat="45.45403" lon="4.6878">
        <ele>489</ele>
        <time>2018-08-15T07:35:11.247Z</time>
      </trkpt>
      <trkpt lat="45.454" lon="4.68776">
        <ele>489</ele>
        <time>2018-08-15T07:35:12.258Z</time>
      </trkpt>
      <trkpt lat="45.454" lon="4.68776">
        <ele>489</ele>
        <time>2018-08-15T07:35:13.264Z</time>
      </trkpt>
      <trkpt lat="45.45397" lon="4.68773">
        <ele>489</ele>
        <time>2018-08-15T07:35:14.263Z</time>
      </trkpt>
      <trkpt lat="45.45397" lon="4.68773">
        <ele>489</ele>
        <time>2018-08-15T07:35:15.268Z</time>
      </trkpt>
      <trkpt lat="45.45394" lon="4.68769">
        <ele>489</ele>
        <time>2018-08-15T07:35:16.253Z</time>
      </trkpt>
      <trkpt lat="45.45394" lon="4.68769">
        <ele>489</ele>
        <time>2018-08-15T07:35:17.258Z</time>
      </trkpt>
      <trkpt lat="45.4539" lon="4.68766">
        <ele>489</ele>
        <time>2018-08-15T07:35:18.263Z</time>
      </trkpt>
      <trkpt lat="45.4539" lon="4.68766">
        <ele>489</ele>
        <time>2018-08-15T07:35:19.270Z</time>
      </trkpt>
      <trkpt lat="45.45387" lon="4.68763">
        <ele>489</ele>
        <time>2018-08-15T07:35:20.235Z</time>
      </trkpt>
      <trkpt lat="45.45387" lon="4.68763">
        <ele>489</ele>
        <time>2018-08-15T07:35:21.240Z</time>
      </trkpt>
      <trkpt lat="45.45383" lon="4.6876">
        <ele>490</ele>
        <time>2018-08-15T07:35:22.241Z</time>
      </trkpt>
      <trkpt lat="45.45383" lon="4.6876">
        <ele>490</ele>
        <time>2018-08-15T07:35:23.246Z</time>
      </trkpt>
      <trkpt lat="45.4538" lon="4.68756">
        <ele>490</ele>
        <time>2018-08-15T07:35:24.245Z</time>
      </trkpt>
      <trkpt lat="45.4538" lon="4.68756">
        <ele>490</ele>
        <time>2018-08-15T07:35:25.250Z</time>
      </trkpt>
      <trkpt lat="45.45377" lon="4.68752">
        <ele>490</ele>
        <time>2018-08-15T07:35:26.233Z</time>
      </trkpt>
      <trkpt lat="45.45375" lon="4.6875">
        <ele>491</ele>
        <time>2018-08-15T07:35:27.261Z</time>
      </trkpt>
      <trkpt lat="45.45375" lon="4.6875">
        <ele>491</ele>
        <time>2018-08-15T07:35:28.267Z</time>
      </trkpt>
      <trkpt lat="45.45372" lon="4.68746">
        <ele>491</ele>
        <time>2018-08-15T07:35:29.256Z</time>
      </trkpt>
      <trkpt lat="45.45372" lon="4.68746">
        <ele>491</ele>
        <time>2018-08-15T07:35:30.261Z</time>
      </trkpt>
      <trkpt lat="45.4537" lon="4.68741">
        <ele>491</ele>
        <time>2018-08-15T07:35:31.271Z</time>
      </trkpt>
      <trkpt lat="45.45369" lon="4.68739">
        <ele>491</ele>
        <time>2018-08-15T07:35:32.257Z</time>
      </trkpt>
      <trkpt lat="45.45369" lon="4.68739">
        <ele>491</ele>
        <time>2018-08-15T07:35:33.264Z</time>
      </trkpt>
      <trkpt lat="45.45368" lon="4.68734">
        <ele>492</ele>
        <time>2018-08-15T07:35:34.266Z</time>
      </trkpt>
      <trkpt lat="45.45368" lon="4.68734">
        <ele>492</ele>
        <time>2018-08-15T07:35:35.248Z</time>
      </trkpt>
      <trkpt lat="45.45367" lon="4.68728">
        <ele>492</ele>
        <time>2018-08-15T07:35:36.252Z</time>
      </trkpt>
      <trkpt lat="45.45367" lon="4.68726">
        <ele>493</ele>
        <time>2018-08-15T07:35:37.270Z</time>
      </trkpt>
      <trkpt lat="45.45367" lon="4.68724">
        <ele>493</ele>
        <time>2018-08-15T07:35:38.260Z</time>
      </trkpt>
      <trkpt lat="45.45367" lon="4.68724">
        <ele>493</ele>
        <time>2018-08-15T07:35:39.265Z</time>
      </trkpt>
      <trkpt lat="45.45369" lon="4.68721">
        <ele>494</ele>
        <time>2018-08-15T07:35:40.249Z</time>
      </trkpt>
      <trkpt lat="45.45369" lon="4.68721">
        <ele>494</ele>
        <time>2018-08-15T07:35:41.254Z</time>
      </trkpt>
      <trkpt lat="45.45373" lon="4.68718">
        <ele>494</ele>
        <time>2018-08-15T07:35:42.263Z</time>
      </trkpt>
      <trkpt lat="45.45373" lon="4.68718">
        <ele>494</ele>
        <time>2018-08-15T07:35:43.268Z</time>
      </trkpt>
      <trkpt lat="45.45376" lon="4.68716">
        <ele>495</ele>
        <time>2018-08-15T07:35:44.258Z</time>
      </trkpt>
      <trkpt lat="45.45376" lon="4.68716">
        <ele>495</ele>
        <time>2018-08-15T07:35:45.268Z</time>
      </trkpt>
      <trkpt lat="45.4538" lon="4.68715">
        <ele>496</ele>
        <time>2018-08-15T07:35:46.259Z</time>
      </trkpt>
      <trkpt lat="45.4538" lon="4.68715">
        <ele>496</ele>
        <time>2018-08-15T07:35:47.268Z</time>
      </trkpt>
      <trkpt lat="45.45384" lon="4.68714">
        <ele>497</ele>
        <time>2018-08-15T07:35:48.254Z</time>
      </trkpt>
      <trkpt lat="45.45384" lon="4.68714">
        <ele>497</ele>
        <time>2018-08-15T07:35:49.260Z</time>
      </trkpt>
      <trkpt lat="45.45387" lon="4.68713">
        <ele>497</ele>
        <time>2018-08-15T07:35:50.262Z</time>
      </trkpt>
      <trkpt lat="45.45387" lon="4.68713">
        <ele>497</ele>
        <time>2018-08-15T07:35:51.270Z</time>
      </trkpt>
      <trkpt lat="45.45391" lon="4.68712">
        <ele>498</ele>
        <time>2018-08-15T07:35:52.264Z</time>
      </trkpt>
      <trkpt lat="45.45391" lon="4.68712">
        <ele>498</ele>
        <time>2018-08-15T07:35:53.270Z</time>
      </trkpt>
      <trkpt lat="45.45395" lon="4.6871">
        <ele>499</ele>
        <time>2018-08-15T07:35:54.274Z</time>
      </trkpt>
      <trkpt lat="45.45395" lon="4.6871">
        <ele>499</ele>
        <time>2018-08-15T07:35:55.241Z</time>
      </trkpt>
      <trkpt lat="45.45399" lon="4.68709">
        <ele>499</ele>
        <time>2018-08-15T07:35:56.272Z</time>
      </trkpt>
      <trkpt lat="45.45399" lon="4.68709">
        <ele>499</ele>
        <time>2018-08-15T07:35:57.238Z</time>
      </trkpt>
      <trkpt lat="45.45404" lon="4.68708">
        <ele>500</ele>
        <time>2018-08-15T07:35:58.260Z</time>
      </trkpt>
      <trkpt lat="45.45406" lon="4.68708">
        <ele>500</ele>
        <time>2018-08-15T07:35:59.253Z</time>
      </trkpt>
      <trkpt lat="45.45406" lon="4.68708">
        <ele>500</ele>
        <time>2018-08-15T07:36:00.258Z</time>
      </trkpt>
      <trkpt lat="45.4541" lon="4.68706">
        <ele>501</ele>
        <time>2018-08-15T07:36:01.246Z</time>
      </trkpt>
      <trkpt lat="45.45412" lon="4.68706">
        <ele>501</ele>
        <time>2018-08-15T07:36:02.242Z</time>
      </trkpt>
      <trkpt lat="45.45412" lon="4.68706">
        <ele>501</ele>
        <time>2018-08-15T07:36:03.248Z</time>
      </trkpt>
      <trkpt lat="45.45416" lon="4.68705">
        <ele>502</ele>
        <time>2018-08-15T07:36:04.269Z</time>
      </trkpt>
      <trkpt lat="45.45416" lon="4.68705">
        <ele>502</ele>
        <time>2018-08-15T07:36:05.235Z</time>
      </trkpt>
      <trkpt lat="45.4542" lon="4.68704">
        <ele>503</ele>
        <time>2018-08-15T07:36:06.234Z</time>
      </trkpt>
      <trkpt lat="45.4542" lon="4.68704">
        <ele>503</ele>
        <time>2018-08-15T07:36:07.239Z</time>
      </trkpt>
      <trkpt lat="45.45424" lon="4.68704">
        <ele>503</ele>
        <time>2018-08-15T07:36:08.270Z</time>
      </trkpt>
      <trkpt lat="45.45424" lon="4.68704">
        <ele>503</ele>
        <time>2018-08-15T07:36:09.235Z</time>
      </trkpt>
      <trkpt lat="45.45428" lon="4.68705">
        <ele>503</ele>
        <time>2018-08-15T07:36:10.261Z</time>
      </trkpt>
      <trkpt lat="45.45428" lon="4.68705">
        <ele>503</ele>
        <time>2018-08-15T07:36:11.268Z</time>
      </trkpt>
      <trkpt lat="45.45432" lon="4.68707">
        <ele>503</ele>
        <time>2018-08-15T07:36:12.258Z</time>
      </trkpt>
      <trkpt lat="45.45432" lon="4.68707">
        <ele>503</ele>
        <time>2018-08-15T07:36:13.270Z</time>
      </trkpt>
      <trkpt lat="45.45436" lon="4.68708">
        <ele>504</ele>
        <time>2018-08-15T07:36:14.251Z</time>
      </trkpt>
      <trkpt lat="45.45436" lon="4.68708">
        <ele>504</ele>
        <time>2018-08-15T07:36:15.258Z</time>
      </trkpt>
      <trkpt lat="45.4544" lon="4.68711">
        <ele>504</ele>
        <time>2018-08-15T07:36:16.246Z</time>
      </trkpt>
      <trkpt lat="45.4544" lon="4.68711">
        <ele>504</ele>
        <time>2018-08-15T07:36:17.252Z</time>
      </trkpt>
      <trkpt lat="45.45444" lon="4.68714">
        <ele>505</ele>
        <time>2018-08-15T07:36:18.237Z</time>
      </trkpt>
      <trkpt lat="45.45446" lon="4.68715">
        <ele>505</ele>
        <time>2018-08-15T07:36:19.263Z</time>
      </trkpt>
      <trkpt lat="45.45448" lon="4.68716">
        <ele>505</ele>
        <time>2018-08-15T07:36:20.260Z</time>
      </trkpt>
      <trkpt lat="45.45448" lon="4.68716">
        <ele>505</ele>
        <time>2018-08-15T07:36:21.235Z</time>
      </trkpt>
      <trkpt lat="45.45452" lon="4.68718">
        <ele>506</ele>
        <time>2018-08-15T07:36:22.260Z</time>
      </trkpt>
      <trkpt lat="45.45452" lon="4.68718">
        <ele>506</ele>
        <time>2018-08-15T07:36:23.268Z</time>
      </trkpt>
      <trkpt lat="45.45456" lon="4.6872">
        <ele>506</ele>
        <time>2018-08-15T07:36:24.268Z</time>
      </trkpt>
      <trkpt lat="45.45456" lon="4.6872">
        <ele>506</ele>
        <time>2018-08-15T07:36:25.233Z</time>
      </trkpt>
      <trkpt lat="45.4546" lon="4.68723">
        <ele>507</ele>
        <time>2018-08-15T07:36:26.261Z</time>
      </trkpt>
      <trkpt lat="45.4546" lon="4.68723">
        <ele>507</ele>
        <time>2018-08-15T07:36:27.267Z</time>
      </trkpt>
      <trkpt lat="45.45464" lon="4.68726">
        <ele>507</ele>
        <time>2018-08-15T07:36:28.251Z</time>
      </trkpt>
      <trkpt lat="45.45464" lon="4.68726">
        <ele>507</ele>
        <time>2018-08-15T07:36:29.257Z</time>
      </trkpt>
      <trkpt lat="45.45468" lon="4.68728">
        <ele>508</ele>
        <time>2018-08-15T07:36:30.252Z</time>
      </trkpt>
      <trkpt lat="45.4547" lon="4.68729">
        <ele>508</ele>
        <time>2018-08-15T07:36:31.252Z</time>
      </trkpt>
      <trkpt lat="45.45472" lon="4.6873">
        <ele>508</ele>
        <time>2018-08-15T07:36:32.259Z</time>
      </trkpt>
      <trkpt lat="45.45472" lon="4.6873">
        <ele>508</ele>
        <time>2018-08-15T07:36:33.268Z</time>
      </trkpt>
      <trkpt lat="45.45476" lon="4.68732">
        <ele>508</ele>
        <time>2018-08-15T07:36:34.259Z</time>
      </trkpt>
      <trkpt lat="45.45476" lon="4.68732">
        <ele>508</ele>
        <time>2018-08-15T07:36:35.268Z</time>
      </trkpt>
      <trkpt lat="45.45479" lon="4.68734">
        <ele>509</ele>
        <time>2018-08-15T07:36:36.248Z</time>
      </trkpt>
      <trkpt lat="45.45481" lon="4.68735">
        <ele>509</ele>
        <time>2018-08-15T07:36:37.259Z</time>
      </trkpt>
      <trkpt lat="45.45483" lon="4.68736">
        <ele>509</ele>
        <time>2018-08-15T07:36:38.257Z</time>
      </trkpt>
      <trkpt lat="45.45483" lon="4.68736">
        <ele>509</ele>
        <time>2018-08-15T07:36:39.267Z</time>
      </trkpt>
      <trkpt lat="45.45488" lon="4.68737">
        <ele>509</ele>
        <time>2018-08-15T07:36:40.248Z</time>
      </trkpt>
      <trkpt lat="45.45488" lon="4.68737">
        <ele>509</ele>
        <time>2018-08-15T07:36:41.255Z</time>
      </trkpt>
      <trkpt lat="45.45492" lon="4.68739">
        <ele>510</ele>
        <time>2018-08-15T07:36:42.250Z</time>
      </trkpt>
      <trkpt lat="45.45492" lon="4.68739">
        <ele>510</ele>
        <time>2018-08-15T07:36:43.255Z</time>
      </trkpt>
      <trkpt lat="45.45496" lon="4.68741">
        <ele>510</ele>
        <time>2018-08-15T07:36:44.238Z</time>
      </trkpt>
      <trkpt lat="45.45496" lon="4.68741">
        <ele>510</ele>
        <time>2018-08-15T07:36:45.243Z</time>
      </trkpt>
      <trkpt lat="45.455" lon="4.68743">
        <ele>510</ele>
        <time>2018-08-15T07:36:46.244Z</time>
      </trkpt>
      <trkpt lat="45.455" lon="4.68743">
        <ele>510</ele>
        <time>2018-08-15T07:36:47.249Z</time>
      </trkpt>
      <trkpt lat="45.45504" lon="4.68745">
        <ele>510</ele>
        <time>2018-08-15T07:36:48.246Z</time>
      </trkpt>
      <trkpt lat="45.45504" lon="4.68745">
        <ele>510</ele>
        <time>2018-08-15T07:36:49.251Z</time>
      </trkpt>
      <trkpt lat="45.45508" lon="4.68748">
        <ele>510</ele>
        <time>2018-08-15T07:36:50.253Z</time>
      </trkpt>
      <trkpt lat="45.45508" lon="4.68748">
        <ele>510</ele>
        <time>2018-08-15T07:36:51.255Z</time>
      </trkpt>
      <trkpt lat="45.45512" lon="4.68751">
        <ele>510</ele>
        <time>2018-08-15T07:36:52.242Z</time>
      </trkpt>
      <trkpt lat="45.45512" lon="4.68751">
        <ele>510</ele>
        <time>2018-08-15T07:36:53.247Z</time>
      </trkpt>
      <trkpt lat="45.45515" lon="4.68754">
        <ele>510</ele>
        <time>2018-08-15T07:36:54.235Z</time>
      </trkpt>
      <trkpt lat="45.45515" lon="4.68754">
        <ele>510</ele>
        <time>2018-08-15T07:36:55.241Z</time>
      </trkpt>
      <trkpt lat="45.45519" lon="4.68756">
        <ele>511</ele>
        <time>2018-08-15T07:36:56.232Z</time>
      </trkpt>
      <trkpt lat="45.45519" lon="4.68756">
        <ele>511</ele>
        <time>2018-08-15T07:36:57.238Z</time>
      </trkpt>
      <trkpt lat="45.45523" lon="4.68759">
        <ele>511</ele>
        <time>2018-08-15T07:36:58.270Z</time>
      </trkpt>
      <trkpt lat="45.45523" lon="4.68759">
        <ele>511</ele>
        <time>2018-08-15T07:36:59.235Z</time>
      </trkpt>
      <trkpt lat="45.45526" lon="4.68763">
        <ele>512</ele>
        <time>2018-08-15T07:37:00.237Z</time>
      </trkpt>
      <trkpt lat="45.45528" lon="4.68765">
        <ele>512</ele>
        <time>2018-08-15T07:37:01.237Z</time>
      </trkpt>
      <trkpt lat="45.45528" lon="4.68765">
        <ele>512</ele>
        <time>2018-08-15T07:37:02.242Z</time>
      </trkpt>
      <trkpt lat="45.45531" lon="4.6877">
        <ele>513</ele>
        <time>2018-08-15T07:37:03.235Z</time>
      </trkpt>
      <trkpt lat="45.45532" lon="4.68772">
        <ele>513</ele>
        <time>2018-08-15T07:37:04.255Z</time>
      </trkpt>
      <trkpt lat="45.45532" lon="4.68772">
        <ele>513</ele>
        <time>2018-08-15T07:37:05.261Z</time>
      </trkpt>
      <trkpt lat="45.45536" lon="4.68776">
        <ele>514</ele>
        <time>2018-08-15T07:37:06.264Z</time>
      </trkpt>
      <trkpt lat="45.45536" lon="4.68776">
        <ele>514</ele>
        <time>2018-08-15T07:37:07.270Z</time>
      </trkpt>
      <trkpt lat="45.45539" lon="4.68779">
        <ele>514</ele>
        <time>2018-08-15T07:37:08.266Z</time>
      </trkpt>
      <trkpt lat="45.45539" lon="4.68779">
        <ele>514</ele>
        <time>2018-08-15T07:37:09.232Z</time>
      </trkpt>
      <trkpt lat="45.45542" lon="4.68784">
        <ele>515</ele>
        <time>2018-08-15T07:37:10.262Z</time>
      </trkpt>
      <trkpt lat="45.45542" lon="4.68784">
        <ele>515</ele>
        <time>2018-08-15T07:37:11.259Z</time>
      </trkpt>
      <trkpt lat="45.45545" lon="4.68788">
        <ele>515</ele>
        <time>2018-08-15T07:37:12.263Z</time>
      </trkpt>
      <trkpt lat="45.45545" lon="4.68788">
        <ele>515</ele>
        <time>2018-08-15T07:37:13.269Z</time>
      </trkpt>
      <trkpt lat="45.45548" lon="4.68792">
        <ele>516</ele>
        <time>2018-08-15T07:37:14.232Z</time>
      </trkpt>
      <trkpt lat="45.45548" lon="4.68792">
        <ele>516</ele>
        <time>2018-08-15T07:37:15.237Z</time>
      </trkpt>
      <trkpt lat="45.45551" lon="4.68796">
        <ele>516</ele>
        <time>2018-08-15T07:37:16.263Z</time>
      </trkpt>
      <trkpt lat="45.45551" lon="4.68796">
        <ele>516</ele>
        <time>2018-08-15T07:37:17.269Z</time>
      </trkpt>
      <trkpt lat="45.45554" lon="4.688">
        <ele>516</ele>
        <time>2018-08-15T07:37:18.262Z</time>
      </trkpt>
      <trkpt lat="45.45554" lon="4.688">
        <ele>516</ele>
        <time>2018-08-15T07:37:19.268Z</time>
      </trkpt>
      <trkpt lat="45.45557" lon="4.68804">
        <ele>517</ele>
        <time>2018-08-15T07:37:20.233Z</time>
      </trkpt>
      <trkpt lat="45.45557" lon="4.68804">
        <ele>517</ele>
        <time>2018-08-15T07:37:21.239Z</time>
      </trkpt>
      <trkpt lat="45.4556" lon="4.68809">
        <ele>517</ele>
        <time>2018-08-15T07:37:22.269Z</time>
      </trkpt>
      <trkpt lat="45.4556" lon="4.68809">
        <ele>517</ele>
        <time>2018-08-15T07:37:23.236Z</time>
      </trkpt>
      <trkpt lat="45.45563" lon="4.68814">
        <ele>518</ele>
        <time>2018-08-15T07:37:24.234Z</time>
      </trkpt>
      <trkpt lat="45.45563" lon="4.68814">
        <ele>518</ele>
        <time>2018-08-15T07:37:25.239Z</time>
      </trkpt>
      <trkpt lat="45.45565" lon="4.68818">
        <ele>518</ele>
        <time>2018-08-15T07:37:26.261Z</time>
      </trkpt>
      <trkpt lat="45.45565" lon="4.68818">
        <ele>518</ele>
        <time>2018-08-15T07:37:27.267Z</time>
      </trkpt>
      <trkpt lat="45.45568" lon="4.68822">
        <ele>518</ele>
        <time>2018-08-15T07:37:28.259Z</time>
      </trkpt>
      <trkpt lat="45.45568" lon="4.68822">
        <ele>518</ele>
        <time>2018-08-15T07:37:29.267Z</time>
      </trkpt>
      <trkpt lat="45.45572" lon="4.68826">
        <ele>518</ele>
        <time>2018-08-15T07:37:30.268Z</time>
      </trkpt>
      <trkpt lat="45.45572" lon="4.68826">
        <ele>518</ele>
        <time>2018-08-15T07:37:31.233Z</time>
      </trkpt>
      <trkpt lat="45.45574" lon="4.6883">
        <ele>518</ele>
        <time>2018-08-15T07:37:32.268Z</time>
      </trkpt>
      <trkpt lat="45.45574" lon="4.6883">
        <ele>518</ele>
        <time>2018-08-15T07:37:33.234Z</time>
      </trkpt>
      <trkpt lat="45.45577" lon="4.68834">
        <ele>518</ele>
        <time>2018-08-15T07:37:34.259Z</time>
      </trkpt>
      <trkpt lat="45.45579" lon="4.68836">
        <ele>518</ele>
        <time>2018-08-15T07:37:35.234Z</time>
      </trkpt>
      <trkpt lat="45.45579" lon="4.68836">
        <ele>518</ele>
        <time>2018-08-15T07:37:36.255Z</time>
      </trkpt>
      <trkpt lat="45.45582" lon="4.6884">
        <ele>519</ele>
        <time>2018-08-15T07:37:37.270Z</time>
      </trkpt>
      <trkpt lat="45.45583" lon="4.68842">
        <ele>519</ele>
        <time>2018-08-15T07:37:38.263Z</time>
      </trkpt>
      <trkpt lat="45.45583" lon="4.68842">
        <ele>519</ele>
        <time>2018-08-15T07:37:39.233Z</time>
      </trkpt>
      <trkpt lat="45.45587" lon="4.68846">
        <ele>519</ele>
        <time>2018-08-15T07:37:40.266Z</time>
      </trkpt>
      <trkpt lat="45.45587" lon="4.68846">
        <ele>519</ele>
        <time>2018-08-15T07:37:41.271Z</time>
      </trkpt>
      <trkpt lat="45.4559" lon="4.68849">
        <ele>519</ele>
        <time>2018-08-15T07:37:42.267Z</time>
      </trkpt>
      <trkpt lat="45.4559" lon="4.68849">
        <ele>519</ele>
        <time>2018-08-15T07:37:43.233Z</time>
      </trkpt>
      <trkpt lat="45.45594" lon="4.68851">
        <ele>519</ele>
        <time>2018-08-15T07:37:44.264Z</time>
      </trkpt>
      <trkpt lat="45.45594" lon="4.68851">
        <ele>519</ele>
        <time>2018-08-15T07:37:45.270Z</time>
      </trkpt>
      <trkpt lat="45.45597" lon="4.68854">
        <ele>519</ele>
        <time>2018-08-15T07:37:46.256Z</time>
      </trkpt>
      <trkpt lat="45.45597" lon="4.68854">
        <ele>519</ele>
        <time>2018-08-15T07:37:47.263Z</time>
      </trkpt>
      <trkpt lat="45.45601" lon="4.68857">
        <ele>519</ele>
        <time>2018-08-15T07:37:48.257Z</time>
      </trkpt>
      <trkpt lat="45.45601" lon="4.68857">
        <ele>519</ele>
        <time>2018-08-15T07:37:49.269Z</time>
      </trkpt>
      <trkpt lat="45.45605" lon="4.68858">
        <ele>519</ele>
        <time>2018-08-15T07:37:50.256Z</time>
      </trkpt>
      <trkpt lat="45.45605" lon="4.68858">
        <ele>519</ele>
        <time>2018-08-15T07:37:51.261Z</time>
      </trkpt>
      <trkpt lat="45.45609" lon="4.6886">
        <ele>519</ele>
        <time>2018-08-15T07:37:52.253Z</time>
      </trkpt>
      <trkpt lat="45.45609" lon="4.6886">
        <ele>519</ele>
        <time>2018-08-15T07:37:53.258Z</time>
      </trkpt>
      <trkpt lat="45.45613" lon="4.68861">
        <ele>519</ele>
        <time>2018-08-15T07:37:54.261Z</time>
      </trkpt>
      <trkpt lat="45.45613" lon="4.68861">
        <ele>519</ele>
        <time>2018-08-15T07:37:55.266Z</time>
      </trkpt>
      <trkpt lat="45.45617" lon="4.68863">
        <ele>519</ele>
        <time>2018-08-15T07:37:56.258Z</time>
      </trkpt>
      <trkpt lat="45.45617" lon="4.68863">
        <ele>519</ele>
        <time>2018-08-15T07:37:57.267Z</time>
      </trkpt>
      <trkpt lat="45.45622" lon="4.68864">
        <ele>520</ele>
        <time>2018-08-15T07:37:58.254Z</time>
      </trkpt>
      <trkpt lat="45.45622" lon="4.68864">
        <ele>520</ele>
        <time>2018-08-15T07:37:59.259Z</time>
      </trkpt>
      <trkpt lat="45.45626" lon="4.68866">
        <ele>520</ele>
        <time>2018-08-15T07:38:00.244Z</time>
      </trkpt>
      <trkpt lat="45.45626" lon="4.68866">
        <ele>520</ele>
        <time>2018-08-15T07:38:01.250Z</time>
      </trkpt>
      <trkpt lat="45.4563" lon="4.68868">
        <ele>520</ele>
        <time>2018-08-15T07:38:02.239Z</time>
      </trkpt>
      <trkpt lat="45.4563" lon="4.68868">
        <ele>520</ele>
        <time>2018-08-15T07:38:03.244Z</time>
      </trkpt>
      <trkpt lat="45.45635" lon="4.68869">
        <ele>520</ele>
        <time>2018-08-15T07:38:04.245Z</time>
      </trkpt>
      <trkpt lat="45.45635" lon="4.68869">
        <ele>520</ele>
        <time>2018-08-15T07:38:05.251Z</time>
      </trkpt>
      <trkpt lat="45.45639" lon="4.68871">
        <ele>521</ele>
        <time>2018-08-15T07:38:06.248Z</time>
      </trkpt>
      <trkpt lat="45.45641" lon="4.68872">
        <ele>521</ele>
        <time>2018-08-15T07:38:07.246Z</time>
      </trkpt>
      <trkpt lat="45.45643" lon="4.68873">
        <ele>521</ele>
        <time>2018-08-15T07:38:08.239Z</time>
      </trkpt>
      <trkpt lat="45.45643" lon="4.68873">
        <ele>521</ele>
        <time>2018-08-15T07:38:09.244Z</time>
      </trkpt>
      <trkpt lat="45.45647" lon="4.68875">
        <ele>521</ele>
        <time>2018-08-15T07:38:10.236Z</time>
      </trkpt>
      <trkpt lat="45.45647" lon="4.68875">
        <ele>521</ele>
        <time>2018-08-15T07:38:11.246Z</time>
      </trkpt>
      <trkpt lat="45.45651" lon="4.68876">
        <ele>521</ele>
        <time>2018-08-15T07:38:12.240Z</time>
      </trkpt>
      <trkpt lat="45.45651" lon="4.68876">
        <ele>521</ele>
        <time>2018-08-15T07:38:13.245Z</time>
      </trkpt>
      <trkpt lat="45.45656" lon="4.68877">
        <ele>522</ele>
        <time>2018-08-15T07:38:14.239Z</time>
      </trkpt>
      <trkpt lat="45.45656" lon="4.68877">
        <ele>522</ele>
        <time>2018-08-15T07:38:15.244Z</time>
      </trkpt>
      <trkpt lat="45.4566" lon="4.68879">
        <ele>522</ele>
        <time>2018-08-15T07:38:16.234Z</time>
      </trkpt>
      <trkpt lat="45.4566" lon="4.68879">
        <ele>522</ele>
        <time>2018-08-15T07:38:17.239Z</time>
      </trkpt>
      <trkpt lat="45.45664" lon="4.68881">
        <ele>523</ele>
        <time>2018-08-15T07:38:18.268Z</time>
      </trkpt>
      <trkpt lat="45.45664" lon="4.68881">
        <ele>523</ele>
        <time>2018-08-15T07:38:19.233Z</time>
      </trkpt>
      <trkpt lat="45.45668" lon="4.68882">
        <ele>523</ele>
        <time>2018-08-15T07:38:20.263Z</time>
      </trkpt>
      <trkpt lat="45.45668" lon="4.68882">
        <ele>523</ele>
        <time>2018-08-15T07:38:21.270Z</time>
      </trkpt>
      <trkpt lat="45.45672" lon="4.68884">
        <ele>524</ele>
        <time>2018-08-15T07:38:22.265Z</time>
      </trkpt>
      <trkpt lat="45.45672" lon="4.68884">
        <ele>524</ele>
        <time>2018-08-15T07:38:23.270Z</time>
      </trkpt>
      <trkpt lat="45.45677" lon="4.68885">
        <ele>525</ele>
        <time>2018-08-15T07:38:24.269Z</time>
      </trkpt>
      <trkpt lat="45.45677" lon="4.68885">
        <ele>525</ele>
        <time>2018-08-15T07:38:25.235Z</time>
      </trkpt>
      <trkpt lat="45.45681" lon="4.68887">
        <ele>526</ele>
        <time>2018-08-15T07:38:26.265Z</time>
      </trkpt>
      <trkpt lat="45.45681" lon="4.68887">
        <ele>526</ele>
        <time>2018-08-15T07:38:27.271Z</time>
      </trkpt>
      <trkpt lat="45.45685" lon="4.68888">
        <ele>527</ele>
        <time>2018-08-15T07:38:28.244Z</time>
      </trkpt>
      <trkpt lat="45.45685" lon="4.68888">
        <ele>527</ele>
        <time>2018-08-15T07:38:29.250Z</time>
      </trkpt>
      <trkpt lat="45.45689" lon="4.68888">
        <ele>528</ele>
        <time>2018-08-15T07:38:30.248Z</time>
      </trkpt>
      <trkpt lat="45.45689" lon="4.68888">
        <ele>528</ele>
        <time>2018-08-15T07:38:31.254Z</time>
      </trkpt>
      <trkpt lat="45.45693" lon="4.68888">
        <ele>529</ele>
        <time>2018-08-15T07:38:32.240Z</time>
      </trkpt>
      <trkpt lat="45.45693" lon="4.68888">
        <ele>529</ele>
        <time>2018-08-15T07:38:33.245Z</time>
      </trkpt>
      <trkpt lat="45.45697" lon="4.68888">
        <ele>531</ele>
        <time>2018-08-15T07:38:34.250Z</time>
      </trkpt>
      <trkpt lat="45.45697" lon="4.68888">
        <ele>531</ele>
        <time>2018-08-15T07:38:35.238Z</time>
      </trkpt>
      <trkpt lat="45.45701" lon="4.68887">
        <ele>533</ele>
        <time>2018-08-15T07:38:36.248Z</time>
      </trkpt>
      <trkpt lat="45.45703" lon="4.68886">
        <ele>533</ele>
        <time>2018-08-15T07:38:37.253Z</time>
      </trkpt>
      <trkpt lat="45.45703" lon="4.68886">
        <ele>533</ele>
        <time>2018-08-15T07:38:38.259Z</time>
      </trkpt>
      <trkpt lat="45.45707" lon="4.68884">
        <ele>534</ele>
        <time>2018-08-15T07:38:39.243Z</time>
      </trkpt>
      <trkpt lat="45.45707" lon="4.68884">
        <ele>534</ele>
        <time>2018-08-15T07:38:40.249Z</time>
      </trkpt>
      <trkpt lat="45.45711" lon="4.68881">
        <ele>535</ele>
        <time>2018-08-15T07:38:41.234Z</time>
      </trkpt>
      <trkpt lat="45.45711" lon="4.68881">
        <ele>535</ele>
        <time>2018-08-15T07:38:42.240Z</time>
      </trkpt>
      <trkpt lat="45.45714" lon="4.68878">
        <ele>535</ele>
        <time>2018-08-15T07:38:43.232Z</time>
      </trkpt>
      <trkpt lat="45.45716" lon="4.68877">
        <ele>536</ele>
        <time>2018-08-15T07:38:44.266Z</time>
      </trkpt>
      <trkpt lat="45.45716" lon="4.68877">
        <ele>536</ele>
        <time>2018-08-15T07:38:45.232Z</time>
      </trkpt>
      <trkpt lat="45.45719" lon="4.68874">
        <ele>536</ele>
        <time>2018-08-15T07:38:46.250Z</time>
      </trkpt>
      <trkpt lat="45.45719" lon="4.68874">
        <ele>536</ele>
        <time>2018-08-15T07:38:47.255Z</time>
      </trkpt>
      <trkpt lat="45.45722" lon="4.68869">
        <ele>536</ele>
        <time>2018-08-15T07:38:48.256Z</time>
      </trkpt>
      <trkpt lat="45.45722" lon="4.68869">
        <ele>536</ele>
        <time>2018-08-15T07:38:49.261Z</time>
      </trkpt>
      <trkpt lat="45.45725" lon="4.68865">
        <ele>535</ele>
        <time>2018-08-15T07:38:50.245Z</time>
      </trkpt>
      <trkpt lat="45.45725" lon="4.68865">
        <ele>535</ele>
        <time>2018-08-15T07:38:51.251Z</time>
      </trkpt>
      <trkpt lat="45.45727" lon="4.68859">
        <ele>535</ele>
        <time>2018-08-15T07:38:52.243Z</time>
      </trkpt>
      <trkpt lat="45.45727" lon="4.68859">
        <ele>535</ele>
        <time>2018-08-15T07:38:53.248Z</time>
      </trkpt>
      <trkpt lat="45.45729" lon="4.68854">
        <ele>535</ele>
        <time>2018-08-15T07:38:54.242Z</time>
      </trkpt>
      <trkpt lat="45.45729" lon="4.68854">
        <ele>535</ele>
        <time>2018-08-15T07:38:55.247Z</time>
      </trkpt>
      <trkpt lat="45.45731" lon="4.68849">
        <ele>535</ele>
        <time>2018-08-15T07:38:56.261Z</time>
      </trkpt>
      <trkpt lat="45.45731" lon="4.68849">
        <ele>535</ele>
        <time>2018-08-15T07:38:57.268Z</time>
      </trkpt>
      <trkpt lat="45.45732" lon="4.68844">
        <ele>536</ele>
        <time>2018-08-15T07:38:58.249Z</time>
      </trkpt>
      <trkpt lat="45.45732" lon="4.68844">
        <ele>536</ele>
        <time>2018-08-15T07:38:59.255Z</time>
      </trkpt>
      <trkpt lat="45.45733" lon="4.68838">
        <ele>536</ele>
        <time>2018-08-15T07:39:00.266Z</time>
      </trkpt>
      <trkpt lat="45.45733" lon="4.68838">
        <ele>536</ele>
        <time>2018-08-15T07:39:01.272Z</time>
      </trkpt>
      <trkpt lat="45.45734" lon="4.68832">
        <ele>536</ele>
        <time>2018-08-15T07:39:02.261Z</time>
      </trkpt>
      <trkpt lat="45.45734" lon="4.68832">
        <ele>536</ele>
        <time>2018-08-15T07:39:03.267Z</time>
      </trkpt>
      <trkpt lat="45.45736" lon="4.68827">
        <ele>536</ele>
        <time>2018-08-15T07:39:04.262Z</time>
      </trkpt>
      <trkpt lat="45.45736" lon="4.68827">
        <ele>536</ele>
        <time>2018-08-15T07:39:05.268Z</time>
      </trkpt>
      <trkpt lat="45.45737" lon="4.68821">
        <ele>536</ele>
        <time>2018-08-15T07:39:06.269Z</time>
      </trkpt>
      <trkpt lat="45.45737" lon="4.68821">
        <ele>536</ele>
        <time>2018-08-15T07:39:07.235Z</time>
      </trkpt>
      <trkpt lat="45.45737" lon="4.68814">
        <ele>536</ele>
        <time>2018-08-15T07:39:08.233Z</time>
      </trkpt>
      <trkpt lat="45.45737" lon="4.68814">
        <ele>536</ele>
        <time>2018-08-15T07:39:09.238Z</time>
      </trkpt>
      <trkpt lat="45.45738" lon="4.68807">
        <ele>536</ele>
        <time>2018-08-15T07:39:10.263Z</time>
      </trkpt>
      <trkpt lat="45.45738" lon="4.68804">
        <ele>536</ele>
        <time>2018-08-15T07:39:11.270Z</time>
      </trkpt>
      <trkpt lat="45.45738" lon="4.68804">
        <ele>536</ele>
        <time>2018-08-15T07:39:12.236Z</time>
      </trkpt>
      <trkpt lat="45.4574" lon="4.68797">
        <ele>536</ele>
        <time>2018-08-15T07:39:13.267Z</time>
      </trkpt>
      <trkpt lat="45.4574" lon="4.68794">
        <ele>535</ele>
        <time>2018-08-15T07:39:14.261Z</time>
      </trkpt>
      <trkpt lat="45.4574" lon="4.68794">
        <ele>535</ele>
        <time>2018-08-15T07:39:15.269Z</time>
      </trkpt>
      <trkpt lat="45.45743" lon="4.68789">
        <ele>535</ele>
        <time>2018-08-15T07:39:16.262Z</time>
      </trkpt>
      <trkpt lat="45.45743" lon="4.68789">
        <ele>535</ele>
        <time>2018-08-15T07:39:17.268Z</time>
      </trkpt>
      <trkpt lat="45.45745" lon="4.68784">
        <ele>534</ele>
        <time>2018-08-15T07:39:18.263Z</time>
      </trkpt>
      <trkpt lat="45.45745" lon="4.68784">
        <ele>534</ele>
        <time>2018-08-15T07:39:19.269Z</time>
      </trkpt>
      <trkpt lat="45.45747" lon="4.68779">
        <ele>534</ele>
        <time>2018-08-15T07:39:20.240Z</time>
      </trkpt>
      <trkpt lat="45.45747" lon="4.68779">
        <ele>534</ele>
        <time>2018-08-15T07:39:21.245Z</time>
      </trkpt>
      <trkpt lat="45.4575" lon="4.68774">
        <ele>534</ele>
        <time>2018-08-15T07:39:22.239Z</time>
      </trkpt>
      <trkpt lat="45.4575" lon="4.68774">
        <ele>534</ele>
        <time>2018-08-15T07:39:23.245Z</time>
      </trkpt>
      <trkpt lat="45.45754" lon="4.68769">
        <ele>533</ele>
        <time>2018-08-15T07:39:24.266Z</time>
      </trkpt>
      <trkpt lat="45.45754" lon="4.68769">
        <ele>533</ele>
        <time>2018-08-15T07:39:25.232Z</time>
      </trkpt>
      <trkpt lat="45.45757" lon="4.68763">
        <ele>533</ele>
        <time>2018-08-15T07:39:26.268Z</time>
      </trkpt>
      <trkpt lat="45.45759" lon="4.68761">
        <ele>533</ele>
        <time>2018-08-15T07:39:27.242Z</time>
      </trkpt>
      <trkpt lat="45.45759" lon="4.68761">
        <ele>533</ele>
        <time>2018-08-15T07:39:28.248Z</time>
      </trkpt>
      <trkpt lat="45.45762" lon="4.68756">
        <ele>533</ele>
        <time>2018-08-15T07:39:29.256Z</time>
      </trkpt>
      <trkpt lat="45.45762" lon="4.68756">
        <ele>533</ele>
        <time>2018-08-15T07:39:30.235Z</time>
      </trkpt>
      <trkpt lat="45.45766" lon="4.68752">
        <ele>532</ele>
        <time>2018-08-15T07:39:31.268Z</time>
      </trkpt>
      <trkpt lat="45.45768" lon="4.68751">
        <ele>532</ele>
        <time>2018-08-15T07:39:32.267Z</time>
      </trkpt>
      <trkpt lat="45.45768" lon="4.68751">
        <ele>532</ele>
        <time>2018-08-15T07:39:33.233Z</time>
      </trkpt>
      <trkpt lat="45.45772" lon="4.68748">
        <ele>532</ele>
        <time>2018-08-15T07:39:34.263Z</time>
      </trkpt>
      <trkpt lat="45.45772" lon="4.68748">
        <ele>532</ele>
        <time>2018-08-15T07:39:35.270Z</time>
      </trkpt>
      <trkpt lat="45.45776" lon="4.68746">
        <ele>533</ele>
        <time>2018-08-15T07:39:36.250Z</time>
      </trkpt>
      <trkpt lat="45.45778" lon="4.68745">
        <ele>533</ele>
        <time>2018-08-15T07:39:37.255Z</time>
      </trkpt>
      <trkpt lat="45.4578" lon="4.68744">
        <ele>533</ele>
        <time>2018-08-15T07:39:38.243Z</time>
      </trkpt>
      <trkpt lat="45.4578" lon="4.68744">
        <ele>533</ele>
        <time>2018-08-15T07:39:39.249Z</time>
      </trkpt>
      <trkpt lat="45.45785" lon="4.68743">
        <ele>534</ele>
        <time>2018-08-15T07:39:40.242Z</time>
      </trkpt>
      <trkpt lat="45.45787" lon="4.68743">
        <ele>534</ele>
        <time>2018-08-15T07:39:41.249Z</time>
      </trkpt>
      <trkpt lat="45.45787" lon="4.68743">
        <ele>534</ele>
        <time>2018-08-15T07:39:42.254Z</time>
      </trkpt>
      <trkpt lat="45.45791" lon="4.68742">
        <ele>535</ele>
        <time>2018-08-15T07:39:43.239Z</time>
      </trkpt>
      <trkpt lat="45.45791" lon="4.68742">
        <ele>535</ele>
        <time>2018-08-15T07:39:44.245Z</time>
      </trkpt>
      <trkpt lat="45.45795" lon="4.68742">
        <ele>535</ele>
        <time>2018-08-15T07:39:45.233Z</time>
      </trkpt>
      <trkpt lat="45.45795" lon="4.68742">
        <ele>535</ele>
        <time>2018-08-15T07:39:46.239Z</time>
      </trkpt>
      <trkpt lat="45.458" lon="4.68742">
        <ele>535</ele>
        <time>2018-08-15T07:39:47.239Z</time>
      </trkpt>
      <trkpt lat="45.45802" lon="4.68742">
        <ele>535</ele>
        <time>2018-08-15T07:39:48.267Z</time>
      </trkpt>
      <trkpt lat="45.45802" lon="4.68742">
        <ele>535</ele>
        <time>2018-08-15T07:39:49.235Z</time>
      </trkpt>
      <trkpt lat="45.45806" lon="4.68742">
        <ele>535</ele>
        <time>2018-08-15T07:39:50.262Z</time>
      </trkpt>
      <trkpt lat="45.45806" lon="4.68742">
        <ele>535</ele>
        <time>2018-08-15T07:39:51.269Z</time>
      </trkpt>
      <trkpt lat="45.4581" lon="4.68743">
        <ele>536</ele>
        <time>2018-08-15T07:39:52.264Z</time>
      </trkpt>
      <trkpt lat="45.4581" lon="4.68743">
        <ele>536</ele>
        <time>2018-08-15T07:39:53.270Z</time>
      </trkpt>
      <trkpt lat="45.45814" lon="4.68745">
        <ele>537</ele>
        <time>2018-08-15T07:39:54.240Z</time>
      </trkpt>
      <trkpt lat="45.45814" lon="4.68745">
        <ele>537</ele>
        <time>2018-08-15T07:39:55.245Z</time>
      </trkpt>
      <trkpt lat="45.45819" lon="4.68745">
        <ele>537</ele>
        <time>2018-08-15T07:39:56.246Z</time>
      </trkpt>
      <trkpt lat="45.45819" lon="4.68745">
        <ele>537</ele>
        <time>2018-08-15T07:39:57.251Z</time>
      </trkpt>
      <trkpt lat="45.45823" lon="4.68746">
        <ele>538</ele>
        <time>2018-08-15T07:39:58.247Z</time>
      </trkpt>
      <trkpt lat="45.45825" lon="4.68747">
        <ele>539</ele>
        <time>2018-08-15T07:39:59.246Z</time>
      </trkpt>
      <trkpt lat="45.45825" lon="4.68747">
        <ele>539</ele>
        <time>2018-08-15T07:40:00.252Z</time>
      </trkpt>
      <trkpt lat="45.45829" lon="4.68749">
        <ele>540</ele>
        <time>2018-08-15T07:40:01.252Z</time>
      </trkpt>
      <trkpt lat="45.45831" lon="4.6875">
        <ele>540</ele>
        <time>2018-08-15T07:40:02.233Z</time>
      </trkpt>
      <trkpt lat="45.45831" lon="4.6875">
        <ele>540</ele>
        <time>2018-08-15T07:40:03.238Z</time>
      </trkpt>
      <trkpt lat="45.45835" lon="4.68752">
        <ele>541</ele>
        <time>2018-08-15T07:40:04.271Z</time>
      </trkpt>
      <trkpt lat="45.45835" lon="4.68752">
        <ele>541</ele>
        <time>2018-08-15T07:40:05.237Z</time>
      </trkpt>
      <trkpt lat="45.45838" lon="4.68754">
        <ele>542</ele>
        <time>2018-08-15T07:40:06.253Z</time>
      </trkpt>
      <trkpt lat="45.45838" lon="4.68754">
        <ele>542</ele>
        <time>2018-08-15T07:40:07.258Z</time>
      </trkpt>
      <trkpt lat="45.45842" lon="4.68756">
        <ele>544</ele>
        <time>2018-08-15T07:40:08.243Z</time>
      </trkpt>
      <trkpt lat="45.45842" lon="4.68756">
        <ele>544</ele>
        <time>2018-08-15T07:40:09.248Z</time>
      </trkpt>
      <trkpt lat="45.45846" lon="4.68759">
        <ele>545</ele>
        <time>2018-08-15T07:40:10.266Z</time>
      </trkpt>
      <trkpt lat="45.45846" lon="4.68759">
        <ele>545</ele>
        <time>2018-08-15T07:40:11.248Z</time>
      </trkpt>
      <trkpt lat="45.4585" lon="4.68761">
        <ele>546</ele>
        <time>2018-08-15T07:40:12.254Z</time>
      </trkpt>
      <trkpt lat="45.4585" lon="4.68761">
        <ele>546</ele>
        <time>2018-08-15T07:40:13.263Z</time>
      </trkpt>
      <trkpt lat="45.45854" lon="4.68763">
        <ele>546</ele>
        <time>2018-08-15T07:40:14.253Z</time>
      </trkpt>
      <trkpt lat="45.45854" lon="4.68763">
        <ele>546</ele>
        <time>2018-08-15T07:40:15.260Z</time>
      </trkpt>
      <trkpt lat="45.45858" lon="4.68765">
        <ele>547</ele>
        <time>2018-08-15T07:40:16.246Z</time>
      </trkpt>
      <trkpt lat="45.45858" lon="4.68765">
        <ele>547</ele>
        <time>2018-08-15T07:40:17.253Z</time>
      </trkpt>
      <trkpt lat="45.45863" lon="4.68766">
        <ele>547</ele>
        <time>2018-08-15T07:40:18.248Z</time>
      </trkpt>
      <trkpt lat="45.45863" lon="4.68766">
        <ele>547</ele>
        <time>2018-08-15T07:40:19.253Z</time>
      </trkpt>
      <trkpt lat="45.45867" lon="4.68767">
        <ele>547</ele>
        <time>2018-08-15T07:40:20.249Z</time>
      </trkpt>
      <trkpt lat="45.45867" lon="4.68767">
        <ele>547</ele>
        <time>2018-08-15T07:40:21.255Z</time>
      </trkpt>
      <trkpt lat="45.45872" lon="4.68767">
        <ele>547</ele>
        <time>2018-08-15T07:40:22.251Z</time>
      </trkpt>
      <trkpt lat="45.45872" lon="4.68767">
        <ele>547</ele>
        <time>2018-08-15T07:40:23.257Z</time>
      </trkpt>
      <trkpt lat="45.45876" lon="4.68767">
        <ele>547</ele>
        <time>2018-08-15T07:40:24.242Z</time>
      </trkpt>
      <trkpt lat="45.45876" lon="4.68767">
        <ele>547</ele>
        <time>2018-08-15T07:40:25.247Z</time>
      </trkpt>
      <trkpt lat="45.45881" lon="4.68765">
        <ele>547</ele>
        <time>2018-08-15T07:40:26.248Z</time>
      </trkpt>
      <trkpt lat="45.45881" lon="4.68765">
        <ele>547</ele>
        <time>2018-08-15T07:40:27.253Z</time>
      </trkpt>
      <trkpt lat="45.45885" lon="4.68764">
        <ele>547</ele>
        <time>2018-08-15T07:40:28.248Z</time>
      </trkpt>
      <trkpt lat="45.45885" lon="4.68764">
        <ele>547</ele>
        <time>2018-08-15T07:40:29.253Z</time>
      </trkpt>
      <trkpt lat="45.4589" lon="4.68763">
        <ele>547</ele>
        <time>2018-08-15T07:40:30.253Z</time>
      </trkpt>
      <trkpt lat="45.4589" lon="4.68763">
        <ele>547</ele>
        <time>2018-08-15T07:40:31.258Z</time>
      </trkpt>
      <trkpt lat="45.45894" lon="4.68761">
        <ele>547</ele>
        <time>2018-08-15T07:40:32.241Z</time>
      </trkpt>
      <trkpt lat="45.45894" lon="4.68761">
        <ele>547</ele>
        <time>2018-08-15T07:40:33.247Z</time>
      </trkpt>
      <trkpt lat="45.45898" lon="4.68757">
        <ele>547</ele>
        <time>2018-08-15T07:40:34.236Z</time>
      </trkpt>
      <trkpt lat="45.45898" lon="4.68757">
        <ele>547</ele>
        <time>2018-08-15T07:40:35.241Z</time>
      </trkpt>
      <trkpt lat="45.45902" lon="4.68754">
        <ele>547</ele>
        <time>2018-08-15T07:40:36.252Z</time>
      </trkpt>
      <trkpt lat="45.45904" lon="4.68753">
        <ele>547</ele>
        <time>2018-08-15T07:40:37.243Z</time>
      </trkpt>
      <trkpt lat="45.45904" lon="4.68753">
        <ele>547</ele>
        <time>2018-08-15T07:40:38.248Z</time>
      </trkpt>
      <trkpt lat="45.45908" lon="4.68749">
        <ele>546</ele>
        <time>2018-08-15T07:40:39.253Z</time>
      </trkpt>
      <trkpt lat="45.45908" lon="4.68749">
        <ele>546</ele>
        <time>2018-08-15T07:40:40.258Z</time>
      </trkpt>
      <trkpt lat="45.45911" lon="4.68746">
        <ele>547</ele>
        <time>2018-08-15T07:40:41.263Z</time>
      </trkpt>
      <trkpt lat="45.45911" lon="4.68746">
        <ele>547</ele>
        <time>2018-08-15T07:40:42.269Z</time>
      </trkpt>
      <trkpt lat="45.45915" lon="4.68743">
        <ele>547</ele>
        <time>2018-08-15T07:40:43.265Z</time>
      </trkpt>
      <trkpt lat="45.45917" lon="4.68741">
        <ele>547</ele>
        <time>2018-08-15T07:40:44.256Z</time>
      </trkpt>
      <trkpt lat="45.45917" lon="4.68741">
        <ele>547</ele>
        <time>2018-08-15T07:40:45.264Z</time>
      </trkpt>
      <trkpt lat="45.45919" lon="4.68737">
        <ele>547</ele>
        <time>2018-08-15T07:40:46.260Z</time>
      </trkpt>
      <trkpt lat="45.45921" lon="4.68735">
        <ele>547</ele>
        <time>2018-08-15T07:40:47.246Z</time>
      </trkpt>
      <trkpt lat="45.45921" lon="4.68735">
        <ele>547</ele>
        <time>2018-08-15T07:40:48.251Z</time>
      </trkpt>
      <trkpt lat="45.45923" lon="4.68731">
        <ele>548</ele>
        <time>2018-08-15T07:40:49.244Z</time>
      </trkpt>
      <trkpt lat="45.45925" lon="4.68729">
        <ele>548</ele>
        <time>2018-08-15T07:40:50.237Z</time>
      </trkpt>
      <trkpt lat="45.45925" lon="4.68729">
        <ele>548</ele>
        <time>2018-08-15T07:40:51.242Z</time>
      </trkpt>
      <trkpt lat="45.45927" lon="4.68726">
        <ele>549</ele>
        <time>2018-08-15T07:40:52.234Z</time>
      </trkpt>
      <trkpt lat="45.45927" lon="4.68726">
        <ele>549</ele>
        <time>2018-08-15T07:40:53.239Z</time>
      </trkpt>
      <trkpt lat="45.45931" lon="4.68721">
        <ele>549</ele>
        <time>2018-08-15T07:40:54.241Z</time>
      </trkpt>
      <trkpt lat="45.45931" lon="4.68721">
        <ele>549</ele>
        <time>2018-08-15T07:40:55.235Z</time>
      </trkpt>
      <trkpt lat="45.45933" lon="4.68717">
        <ele>549</ele>
        <time>2018-08-15T07:40:56.236Z</time>
      </trkpt>
      <trkpt lat="45.45933" lon="4.68717">
        <ele>549</ele>
        <time>2018-08-15T07:40:57.242Z</time>
      </trkpt>
      <trkpt lat="45.45936" lon="4.68712">
        <ele>549</ele>
        <time>2018-08-15T07:40:58.263Z</time>
      </trkpt>
      <trkpt lat="45.45936" lon="4.68712">
        <ele>549</ele>
        <time>2018-08-15T07:40:59.269Z</time>
      </trkpt>
      <trkpt lat="45.45939" lon="4.68707">
        <ele>549</ele>
        <time>2018-08-15T07:41:00.254Z</time>
      </trkpt>
      <trkpt lat="45.45941" lon="4.68706">
        <ele>548</ele>
        <time>2018-08-15T07:41:01.248Z</time>
      </trkpt>
      <trkpt lat="45.45942" lon="4.68703">
        <ele>548</ele>
        <time>2018-08-15T07:41:02.270Z</time>
      </trkpt>
      <trkpt lat="45.45942" lon="4.68703">
        <ele>548</ele>
        <time>2018-08-15T07:41:03.235Z</time>
      </trkpt>
      <trkpt lat="45.45944" lon="4.68699">
        <ele>548</ele>
        <time>2018-08-15T07:41:04.269Z</time>
      </trkpt>
      <trkpt lat="45.45944" lon="4.68699">
        <ele>548</ele>
        <time>2018-08-15T07:41:05.236Z</time>
      </trkpt>
      <trkpt lat="45.45946" lon="4.68694">
        <ele>548</ele>
        <time>2018-08-15T07:41:06.270Z</time>
      </trkpt>
      <trkpt lat="45.45946" lon="4.68694">
        <ele>548</ele>
        <time>2018-08-15T07:41:07.235Z</time>
      </trkpt>
      <trkpt lat="45.45948" lon="4.68689">
        <ele>548</ele>
        <time>2018-08-15T07:41:08.234Z</time>
      </trkpt>
      <trkpt lat="45.45948" lon="4.68689">
        <ele>548</ele>
        <time>2018-08-15T07:41:09.240Z</time>
      </trkpt>
      <trkpt lat="45.4595" lon="4.68683">
        <ele>548</ele>
        <time>2018-08-15T07:41:10.242Z</time>
      </trkpt>
      <trkpt lat="45.4595" lon="4.68683">
        <ele>548</ele>
        <time>2018-08-15T07:41:11.247Z</time>
      </trkpt>
      <trkpt lat="45.45952" lon="4.68677">
        <ele>548</ele>
        <time>2018-08-15T07:41:12.248Z</time>
      </trkpt>
      <trkpt lat="45.45952" lon="4.68677">
        <ele>548</ele>
        <time>2018-08-15T07:41:13.255Z</time>
      </trkpt>
      <trkpt lat="45.45953" lon="4.6867">
        <ele>547</ele>
        <time>2018-08-15T07:41:14.266Z</time>
      </trkpt>
      <trkpt lat="45.45953" lon="4.6867">
        <ele>547</ele>
        <time>2018-08-15T07:41:15.271Z</time>
      </trkpt>
      <trkpt lat="45.45956" lon="4.68664">
        <ele>547</ele>
        <time>2018-08-15T07:41:16.256Z</time>
      </trkpt>
      <trkpt lat="45.45956" lon="4.68664">
        <ele>547</ele>
        <time>2018-08-15T07:41:17.265Z</time>
      </trkpt>
      <trkpt lat="45.45958" lon="4.68658">
        <ele>547</ele>
        <time>2018-08-15T07:41:18.235Z</time>
      </trkpt>
      <trkpt lat="45.45959" lon="4.68656">
        <ele>547</ele>
        <time>2018-08-15T07:41:19.237Z</time>
      </trkpt>
      <trkpt lat="45.4596" lon="4.68653">
        <ele>547</ele>
        <time>2018-08-15T07:41:20.239Z</time>
      </trkpt>
      <trkpt lat="45.4596" lon="4.68653">
        <ele>547</ele>
        <time>2018-08-15T07:41:21.244Z</time>
      </trkpt>
      <trkpt lat="45.45962" lon="4.68646">
        <ele>547</ele>
        <time>2018-08-15T07:41:22.269Z</time>
      </trkpt>
      <trkpt lat="45.45962" lon="4.68646">
        <ele>547</ele>
        <time>2018-08-15T07:41:23.236Z</time>
      </trkpt>
      <trkpt lat="45.45964" lon="4.6864">
        <ele>547</ele>
        <time>2018-08-15T07:41:24.243Z</time>
      </trkpt>
      <trkpt lat="45.45964" lon="4.6864">
        <ele>547</ele>
        <time>2018-08-15T07:41:25.248Z</time>
      </trkpt>
      <trkpt lat="45.45966" lon="4.68635">
        <ele>547</ele>
        <time>2018-08-15T07:41:26.234Z</time>
      </trkpt>
      <trkpt lat="45.45966" lon="4.68635">
        <ele>547</ele>
        <time>2018-08-15T07:41:27.239Z</time>
      </trkpt>
      <trkpt lat="45.45968" lon="4.68629">
        <ele>547</ele>
        <time>2018-08-15T07:41:28.241Z</time>
      </trkpt>
      <trkpt lat="45.45968" lon="4.68629">
        <ele>547</ele>
        <time>2018-08-15T07:41:29.247Z</time>
      </trkpt>
      <trkpt lat="45.45969" lon="4.68624">
        <ele>548</ele>
        <time>2018-08-15T07:41:30.238Z</time>
      </trkpt>
      <trkpt lat="45.45969" lon="4.68624">
        <ele>548</ele>
        <time>2018-08-15T07:41:31.243Z</time>
      </trkpt>
      <trkpt lat="45.4597" lon="4.68619">
        <ele>548</ele>
        <time>2018-08-15T07:41:32.236Z</time>
      </trkpt>
      <trkpt lat="45.4597" lon="4.68619">
        <ele>548</ele>
        <time>2018-08-15T07:41:33.242Z</time>
      </trkpt>
      <trkpt lat="45.45972" lon="4.68614">
        <ele>548</ele>
        <time>2018-08-15T07:41:34.264Z</time>
      </trkpt>
      <trkpt lat="45.45972" lon="4.68614">
        <ele>548</ele>
        <time>2018-08-15T07:41:35.244Z</time>
      </trkpt>
      <trkpt lat="45.45975" lon="4.68607">
        <ele>549</ele>
        <time>2018-08-15T07:41:36.252Z</time>
      </trkpt>
      <trkpt lat="45.45976" lon="4.68604">
        <ele>549</ele>
        <time>2018-08-15T07:41:37.243Z</time>
      </trkpt>
      <trkpt lat="45.45978" lon="4.68601">
        <ele>549</ele>
        <time>2018-08-15T07:41:38.238Z</time>
      </trkpt>
      <trkpt lat="45.45978" lon="4.68601">
        <ele>549</ele>
        <time>2018-08-15T07:41:39.244Z</time>
      </trkpt>
      <trkpt lat="45.45981" lon="4.68595">
        <ele>549</ele>
        <time>2018-08-15T07:41:40.233Z</time>
      </trkpt>
      <trkpt lat="45.45981" lon="4.68595">
        <ele>549</ele>
        <time>2018-08-15T07:41:41.238Z</time>
      </trkpt>
      <trkpt lat="45.45985" lon="4.6859">
        <ele>550</ele>
        <time>2018-08-15T07:41:42.264Z</time>
      </trkpt>
      <trkpt lat="45.45985" lon="4.6859">
        <ele>550</ele>
        <time>2018-08-15T07:41:43.270Z</time>
      </trkpt>
      <trkpt lat="45.45989" lon="4.68586">
        <ele>550</ele>
        <time>2018-08-15T07:41:44.265Z</time>
      </trkpt>
      <trkpt lat="45.45989" lon="4.68586">
        <ele>550</ele>
        <time>2018-08-15T07:41:45.270Z</time>
      </trkpt>
      <trkpt lat="45.45992" lon="4.68582">
        <ele>550</ele>
        <time>2018-08-15T07:41:46.240Z</time>
      </trkpt>
      <trkpt lat="45.45992" lon="4.68582">
        <ele>550</ele>
        <time>2018-08-15T07:41:47.245Z</time>
      </trkpt>
      <trkpt lat="45.45996" lon="4.68578">
        <ele>550</ele>
        <time>2018-08-15T07:41:48.255Z</time>
      </trkpt>
      <trkpt lat="45.45998" lon="4.68576">
        <ele>550</ele>
        <time>2018-08-15T07:41:49.236Z</time>
      </trkpt>
      <trkpt lat="45.46" lon="4.68575">
        <ele>550</ele>
        <time>2018-08-15T07:41:50.241Z</time>
      </trkpt>
      <trkpt lat="45.46" lon="4.68575">
        <ele>550</ele>
        <time>2018-08-15T07:41:51.263Z</time>
      </trkpt>
      <trkpt lat="45.46004" lon="4.68572">
        <ele>550</ele>
        <time>2018-08-15T07:41:52.253Z</time>
      </trkpt>
      <trkpt lat="45.46004" lon="4.68572">
        <ele>550</ele>
        <time>2018-08-15T07:41:53.258Z</time>
      </trkpt>
      <trkpt lat="45.46008" lon="4.6857">
        <ele>551</ele>
        <time>2018-08-15T07:41:54.256Z</time>
      </trkpt>
      <trkpt lat="45.4601" lon="4.68569">
        <ele>551</ele>
        <time>2018-08-15T07:41:55.257Z</time>
      </trkpt>
      <trkpt lat="45.46012" lon="4.68569">
        <ele>551</ele>
        <time>2018-08-15T07:41:56.246Z</time>
      </trkpt>
      <trkpt lat="45.46012" lon="4.68569">
        <ele>551</ele>
        <time>2018-08-15T07:41:57.252Z</time>
      </trkpt>
      <trkpt lat="45.46016" lon="4.68568">
        <ele>552</ele>
        <time>2018-08-15T07:41:58.240Z</time>
      </trkpt>
      <trkpt lat="45.46018" lon="4.68568">
        <ele>553</ele>
        <time>2018-08-15T07:41:59.243Z</time>
      </trkpt>
      <trkpt lat="45.46018" lon="4.68568">
        <ele>553</ele>
        <time>2018-08-15T07:42:00.249Z</time>
      </trkpt>
      <trkpt lat="45.46023" lon="4.68567">
        <ele>554</ele>
        <time>2018-08-15T07:42:01.257Z</time>
      </trkpt>
      <trkpt lat="45.46025" lon="4.68567">
        <ele>555</ele>
        <time>2018-08-15T07:42:02.237Z</time>
      </trkpt>
      <trkpt lat="45.46025" lon="4.68567">
        <ele>555</ele>
        <time>2018-08-15T07:42:03.242Z</time>
      </trkpt>
      <trkpt lat="45.46028" lon="4.68565">
        <ele>557</ele>
        <time>2018-08-15T07:42:04.270Z</time>
      </trkpt>
      <trkpt lat="45.46028" lon="4.68565">
        <ele>557</ele>
        <time>2018-08-15T07:42:05.236Z</time>
      </trkpt>
      <trkpt lat="45.46031" lon="4.68565">
        <ele>560</ele>
        <time>2018-08-15T07:42:06.241Z</time>
      </trkpt>
      <trkpt lat="45.46031" lon="4.68565">
        <ele>560</ele>
        <time>2018-08-15T07:42:07.246Z</time>
      </trkpt>
      <trkpt lat="45.46034" lon="4.68566">
        <ele>563</ele>
        <time>2018-08-15T07:42:08.257Z</time>
      </trkpt>
      <trkpt lat="45.46034" lon="4.68566">
        <ele>563</ele>
        <time>2018-08-15T07:42:09.264Z</time>
      </trkpt>
      <trkpt lat="45.46038" lon="4.68568">
        <ele>566</ele>
        <time>2018-08-15T07:42:10.252Z</time>
      </trkpt>
      <trkpt lat="45.46039" lon="4.68568">
        <ele>567</ele>
        <time>2018-08-15T07:42:11.263Z</time>
      </trkpt>
      <trkpt lat="45.46039" lon="4.68568">
        <ele>567</ele>
        <time>2018-08-15T07:42:12.269Z</time>
      </trkpt>
      <trkpt lat="45.46042" lon="4.68568">
        <ele>571</ele>
        <time>2018-08-15T07:42:13.263Z</time>
      </trkpt>
      <trkpt lat="45.46044" lon="4.68568">
        <ele>573</ele>
        <time>2018-08-15T07:42:14.271Z</time>
      </trkpt>
      <trkpt lat="45.46044" lon="4.68568">
        <ele>573</ele>
        <time>2018-08-15T07:42:15.236Z</time>
      </trkpt>
      <trkpt lat="45.46047" lon="4.68567">
        <ele>576</ele>
        <time>2018-08-15T07:42:16.263Z</time>
      </trkpt>
      <trkpt lat="45.46047" lon="4.68567">
        <ele>576</ele>
        <time>2018-08-15T07:42:17.269Z</time>
      </trkpt>
      <trkpt lat="45.4605" lon="4.68566">
        <ele>579</ele>
        <time>2018-08-15T07:42:18.254Z</time>
      </trkpt>
      <trkpt lat="45.46052" lon="4.68564">
        <ele>577</ele>
        <time>2018-08-15T07:42:19.260Z</time>
      </trkpt>
      <trkpt lat="45.46054" lon="4.68563">
        <ele>579</ele>
        <time>2018-08-15T07:42:20.260Z</time>
      </trkpt>
      <trkpt lat="45.46054" lon="4.68563">
        <ele>579</ele>
        <time>2018-08-15T07:42:21.267Z</time>
      </trkpt>
      <trkpt lat="45.46057" lon="4.6856">
        <ele>580</ele>
        <time>2018-08-15T07:42:22.260Z</time>
      </trkpt>
      <trkpt lat="45.4606" lon="4.68559">
        <ele>580</ele>
        <time>2018-08-15T07:42:23.251Z</time>
      </trkpt>
      <trkpt lat="45.4606" lon="4.68559">
        <ele>580</ele>
        <time>2018-08-15T07:42:24.257Z</time>
      </trkpt>
      <trkpt lat="45.46065" lon="4.68556">
        <ele>581</ele>
        <time>2018-08-15T07:42:25.250Z</time>
      </trkpt>
      <trkpt lat="45.46067" lon="4.68554">
        <ele>582</ele>
        <time>2018-08-15T07:42:26.263Z</time>
      </trkpt>
      <trkpt lat="45.46067" lon="4.68554">
        <ele>582</ele>
        <time>2018-08-15T07:42:27.269Z</time>
      </trkpt>
      <trkpt lat="45.4607" lon="4.68552">
        <ele>582</ele>
        <time>2018-08-15T07:42:28.261Z</time>
      </trkpt>
      <trkpt lat="45.4607" lon="4.68552">
        <ele>582</ele>
        <time>2018-08-15T07:42:29.267Z</time>
      </trkpt>
      <trkpt lat="45.46074" lon="4.6855">
        <ele>583</ele>
        <time>2018-08-15T07:42:30.263Z</time>
      </trkpt>
      <trkpt lat="45.46075" lon="4.68549">
        <ele>584</ele>
        <time>2018-08-15T07:42:31.244Z</time>
      </trkpt>
      <trkpt lat="45.46077" lon="4.68548">
        <ele>584</ele>
        <time>2018-08-15T07:42:32.232Z</time>
      </trkpt>
      <trkpt lat="45.46077" lon="4.68548">
        <ele>584</ele>
        <time>2018-08-15T07:42:33.239Z</time>
      </trkpt>
      <trkpt lat="45.46081" lon="4.68544">
        <ele>584</ele>
        <time>2018-08-15T07:42:34.234Z</time>
      </trkpt>
      <trkpt lat="45.46081" lon="4.68544">
        <ele>584</ele>
        <time>2018-08-15T07:42:35.240Z</time>
      </trkpt>
      <trkpt lat="45.46086" lon="4.68542">
        <ele>584</ele>
        <time>2018-08-15T07:42:36.271Z</time>
      </trkpt>
      <trkpt lat="45.46087" lon="4.68541">
        <ele>585</ele>
        <time>2018-08-15T07:42:37.235Z</time>
      </trkpt>
      <trkpt lat="45.46089" lon="4.6854">
        <ele>585</ele>
        <time>2018-08-15T07:42:38.264Z</time>
      </trkpt>
      <trkpt lat="45.46089" lon="4.6854">
        <ele>585</ele>
        <time>2018-08-15T07:42:39.271Z</time>
      </trkpt>
      <trkpt lat="45.46093" lon="4.68536">
        <ele>585</ele>
        <time>2018-08-15T07:42:40.265Z</time>
      </trkpt>
      <trkpt lat="45.46093" lon="4.68536">
        <ele>585</ele>
        <time>2018-08-15T07:42:41.240Z</time>
      </trkpt>
      <trkpt lat="45.46096" lon="4.68532">
        <ele>585</ele>
        <time>2018-08-15T07:42:42.262Z</time>
      </trkpt>
      <trkpt lat="45.46096" lon="4.68532">
        <ele>585</ele>
        <time>2018-08-15T07:42:43.243Z</time>
      </trkpt>
      <trkpt lat="45.461" lon="4.68528">
        <ele>585</ele>
        <time>2018-08-15T07:42:44.270Z</time>
      </trkpt>
      <trkpt lat="45.461" lon="4.68528">
        <ele>585</ele>
        <time>2018-08-15T07:42:45.235Z</time>
      </trkpt>
      <trkpt lat="45.46104" lon="4.68525">
        <ele>585</ele>
        <time>2018-08-15T07:42:46.232Z</time>
      </trkpt>
      <trkpt lat="45.46104" lon="4.68525">
        <ele>585</ele>
        <time>2018-08-15T07:42:47.238Z</time>
      </trkpt>
      <trkpt lat="45.46107" lon="4.68521">
        <ele>585</ele>
        <time>2018-08-15T07:42:48.235Z</time>
      </trkpt>
      <trkpt lat="45.46107" lon="4.68521">
        <ele>585</ele>
        <time>2018-08-15T07:42:49.240Z</time>
      </trkpt>
      <trkpt lat="45.4611" lon="4.68518">
        <ele>585</ele>
        <time>2018-08-15T07:42:50.243Z</time>
      </trkpt>
      <trkpt lat="45.4611" lon="4.68518">
        <ele>585</ele>
        <time>2018-08-15T07:42:51.248Z</time>
      </trkpt>
      <trkpt lat="45.46113" lon="4.68514">
        <ele>585</ele>
        <time>2018-08-15T07:42:52.248Z</time>
      </trkpt>
      <trkpt lat="45.46113" lon="4.68514">
        <ele>585</ele>
        <time>2018-08-15T07:42:53.254Z</time>
      </trkpt>
      <trkpt lat="45.46116" lon="4.68512">
        <ele>586</ele>
        <time>2018-08-15T07:42:54.239Z</time>
      </trkpt>
      <trkpt lat="45.46116" lon="4.68512">
        <ele>586</ele>
        <time>2018-08-15T07:42:55.247Z</time>
      </trkpt>
      <trkpt lat="45.46119" lon="4.68509">
        <ele>586</ele>
        <time>2018-08-15T07:42:56.236Z</time>
      </trkpt>
      <trkpt lat="45.46119" lon="4.68509">
        <ele>586</ele>
        <time>2018-08-15T07:42:57.242Z</time>
      </trkpt>
      <trkpt lat="45.46122" lon="4.68505">
        <ele>586</ele>
        <time>2018-08-15T07:42:58.239Z</time>
      </trkpt>
      <trkpt lat="45.46122" lon="4.68505">
        <ele>586</ele>
        <time>2018-08-15T07:42:59.251Z</time>
      </trkpt>
      <trkpt lat="45.46124" lon="4.685">
        <ele>587</ele>
        <time>2018-08-15T07:43:00.235Z</time>
      </trkpt>
      <trkpt lat="45.46124" lon="4.685">
        <ele>587</ele>
        <time>2018-08-15T07:43:01.244Z</time>
      </trkpt>
      <trkpt lat="45.46127" lon="4.68495">
        <ele>586</ele>
        <time>2018-08-15T07:43:02.237Z</time>
      </trkpt>
      <trkpt lat="45.46127" lon="4.68495">
        <ele>586</ele>
        <time>2018-08-15T07:43:03.243Z</time>
      </trkpt>
      <trkpt lat="45.4613" lon="4.68491">
        <ele>586</ele>
        <time>2018-08-15T07:43:04.235Z</time>
      </trkpt>
      <trkpt lat="45.4613" lon="4.68491">
        <ele>586</ele>
        <time>2018-08-15T07:43:05.240Z</time>
      </trkpt>
      <trkpt lat="45.46134" lon="4.68484">
        <ele>586</ele>
        <time>2018-08-15T07:43:06.241Z</time>
      </trkpt>
      <trkpt lat="45.46134" lon="4.68484">
        <ele>586</ele>
        <time>2018-08-15T07:43:07.246Z</time>
      </trkpt>
      <trkpt lat="45.46137" lon="4.68479">
        <ele>586</ele>
        <time>2018-08-15T07:43:08.235Z</time>
      </trkpt>
      <trkpt lat="45.46137" lon="4.68479">
        <ele>586</ele>
        <time>2018-08-15T07:43:09.241Z</time>
      </trkpt>
      <trkpt lat="45.46139" lon="4.68475">
        <ele>586</ele>
        <time>2018-08-15T07:43:10.252Z</time>
      </trkpt>
      <trkpt lat="45.46139" lon="4.68475">
        <ele>586</ele>
        <time>2018-08-15T07:43:11.263Z</time>
      </trkpt>
      <trkpt lat="45.46142" lon="4.6847">
        <ele>586</ele>
        <time>2018-08-15T07:43:12.248Z</time>
      </trkpt>
      <trkpt lat="45.46142" lon="4.6847">
        <ele>586</ele>
        <time>2018-08-15T07:43:13.254Z</time>
      </trkpt>
      <trkpt lat="45.46144" lon="4.68467">
        <ele>587</ele>
        <time>2018-08-15T07:43:14.244Z</time>
      </trkpt>
      <trkpt lat="45.46144" lon="4.68467">
        <ele>587</ele>
        <time>2018-08-15T07:43:15.249Z</time>
      </trkpt>
      <trkpt lat="45.46147" lon="4.68463">
        <ele>587</ele>
        <time>2018-08-15T07:43:16.239Z</time>
      </trkpt>
      <trkpt lat="45.46147" lon="4.68463">
        <ele>587</ele>
        <time>2018-08-15T07:43:17.244Z</time>
      </trkpt>
      <trkpt lat="45.4615" lon="4.68458">
        <ele>587</ele>
        <time>2018-08-15T07:43:18.233Z</time>
      </trkpt>
      <trkpt lat="45.4615" lon="4.68458">
        <ele>587</ele>
        <time>2018-08-15T07:43:19.239Z</time>
      </trkpt>
      <trkpt lat="45.46154" lon="4.68454">
        <ele>588</ele>
        <time>2018-08-15T07:43:20.233Z</time>
      </trkpt>
      <trkpt lat="45.46154" lon="4.68454">
        <ele>588</ele>
        <time>2018-08-15T07:43:21.238Z</time>
      </trkpt>
      <trkpt lat="45.46157" lon="4.6845">
        <ele>588</ele>
        <time>2018-08-15T07:43:22.233Z</time>
      </trkpt>
      <trkpt lat="45.46157" lon="4.6845">
        <ele>588</ele>
        <time>2018-08-15T07:43:23.247Z</time>
      </trkpt>
      <trkpt lat="45.46161" lon="4.68446">
        <ele>588</ele>
        <time>2018-08-15T07:43:24.234Z</time>
      </trkpt>
      <trkpt lat="45.46162" lon="4.68444">
        <ele>588</ele>
        <time>2018-08-15T07:43:25.256Z</time>
      </trkpt>
      <trkpt lat="45.46162" lon="4.68444">
        <ele>588</ele>
        <time>2018-08-15T07:43:26.266Z</time>
      </trkpt>
      <trkpt lat="45.46165" lon="4.68439">
        <ele>589</ele>
        <time>2018-08-15T07:43:27.253Z</time>
      </trkpt>
      <trkpt lat="45.46166" lon="4.68437">
        <ele>589</ele>
        <time>2018-08-15T07:43:28.238Z</time>
      </trkpt>
      <trkpt lat="45.46166" lon="4.68437">
        <ele>589</ele>
        <time>2018-08-15T07:43:29.243Z</time>
      </trkpt>
      <trkpt lat="45.46169" lon="4.68433">
        <ele>590</ele>
        <time>2018-08-15T07:43:30.262Z</time>
      </trkpt>
      <trkpt lat="45.46171" lon="4.68431">
        <ele>590</ele>
        <time>2018-08-15T07:43:31.249Z</time>
      </trkpt>
      <trkpt lat="45.46171" lon="4.68431">
        <ele>590</ele>
        <time>2018-08-15T07:43:32.255Z</time>
      </trkpt>
      <trkpt lat="45.46175" lon="4.68427">
        <ele>591</ele>
        <time>2018-08-15T07:43:33.250Z</time>
      </trkpt>
      <trkpt lat="45.46175" lon="4.68427">
        <ele>591</ele>
        <time>2018-08-15T07:43:34.255Z</time>
      </trkpt>
      <trkpt lat="45.46179" lon="4.68423">
        <ele>591</ele>
        <time>2018-08-15T07:43:35.266Z</time>
      </trkpt>
      <trkpt lat="45.46179" lon="4.68423">
        <ele>591</ele>
        <time>2018-08-15T07:43:36.241Z</time>
      </trkpt>
      <trkpt lat="45.46183" lon="4.68418">
        <ele>592</ele>
        <time>2018-08-15T07:43:37.233Z</time>
      </trkpt>
      <trkpt lat="45.46185" lon="4.68415">
        <ele>592</ele>
        <time>2018-08-15T07:43:38.268Z</time>
      </trkpt>
      <trkpt lat="45.46185" lon="4.68415">
        <ele>592</ele>
        <time>2018-08-15T07:43:39.233Z</time>
      </trkpt>
      <trkpt lat="45.46188" lon="4.6841">
        <ele>593</ele>
        <time>2018-08-15T07:43:40.271Z</time>
      </trkpt>
      <trkpt lat="45.46188" lon="4.6841">
        <ele>593</ele>
        <time>2018-08-15T07:43:41.237Z</time>
      </trkpt>
      <trkpt lat="45.46191" lon="4.68409">
        <ele>594</ele>
        <time>2018-08-15T07:43:42.239Z</time>
      </trkpt>
      <trkpt lat="45.46191" lon="4.68409">
        <ele>594</ele>
        <time>2018-08-15T07:43:43.244Z</time>
      </trkpt>
      <trkpt lat="45.46194" lon="4.68406">
        <ele>594</ele>
        <time>2018-08-15T07:43:44.236Z</time>
      </trkpt>
      <trkpt lat="45.46194" lon="4.68406">
        <ele>594</ele>
        <time>2018-08-15T07:43:45.241Z</time>
      </trkpt>
      <trkpt lat="45.46197" lon="4.68404">
        <ele>595</ele>
        <time>2018-08-15T07:43:46.265Z</time>
      </trkpt>
      <trkpt lat="45.46197" lon="4.68404">
        <ele>595</ele>
        <time>2018-08-15T07:43:47.271Z</time>
      </trkpt>
      <trkpt lat="45.462" lon="4.68402">
        <ele>595</ele>
        <time>2018-08-15T07:43:48.241Z</time>
      </trkpt>
      <trkpt lat="45.462" lon="4.68402">
        <ele>595</ele>
        <time>2018-08-15T07:43:49.247Z</time>
      </trkpt>
      <trkpt lat="45.46204" lon="4.68399">
        <ele>596</ele>
        <time>2018-08-15T07:43:50.233Z</time>
      </trkpt>
      <trkpt lat="45.46204" lon="4.68399">
        <ele>596</ele>
        <time>2018-08-15T07:43:51.239Z</time>
      </trkpt>
      <trkpt lat="45.46208" lon="4.68396">
        <ele>596</ele>
        <time>2018-08-15T07:43:52.233Z</time>
      </trkpt>
      <trkpt lat="45.46208" lon="4.68396">
        <ele>596</ele>
        <time>2018-08-15T07:43:53.238Z</time>
      </trkpt>
      <trkpt lat="45.46211" lon="4.68392">
        <ele>597</ele>
        <time>2018-08-15T07:43:54.258Z</time>
      </trkpt>
      <trkpt lat="45.46211" lon="4.68392">
        <ele>597</ele>
        <time>2018-08-15T07:43:55.264Z</time>
      </trkpt>
      <trkpt lat="45.46215" lon="4.68389">
        <ele>598</ele>
        <time>2018-08-15T07:43:56.266Z</time>
      </trkpt>
      <trkpt lat="45.46215" lon="4.68389">
        <ele>598</ele>
        <time>2018-08-15T07:43:57.271Z</time>
      </trkpt>
      <trkpt lat="45.46218" lon="4.68386">
        <ele>598</ele>
        <time>2018-08-15T07:43:58.247Z</time>
      </trkpt>
      <trkpt lat="45.46218" lon="4.68386">
        <ele>598</ele>
        <time>2018-08-15T07:43:59.252Z</time>
      </trkpt>
      <trkpt lat="45.46222" lon="4.68384">
        <ele>599</ele>
        <time>2018-08-15T07:44:00.263Z</time>
      </trkpt>
      <trkpt lat="45.46224" lon="4.68383">
        <ele>599</ele>
        <time>2018-08-15T07:44:01.260Z</time>
      </trkpt>
      <trkpt lat="45.46226" lon="4.68382">
        <ele>599</ele>
        <time>2018-08-15T07:44:02.245Z</time>
      </trkpt>
      <trkpt lat="45.46226" lon="4.68382">
        <ele>599</ele>
        <time>2018-08-15T07:44:03.250Z</time>
      </trkpt>
      <trkpt lat="45.46229" lon="4.68379">
        <ele>600</ele>
        <time>2018-08-15T07:44:04.237Z</time>
      </trkpt>
      <trkpt lat="45.46229" lon="4.68379">
        <ele>600</ele>
        <time>2018-08-15T07:44:05.243Z</time>
      </trkpt>
      <trkpt lat="45.46233" lon="4.68377">
        <ele>600</ele>
        <time>2018-08-15T07:44:06.244Z</time>
      </trkpt>
      <trkpt lat="45.46233" lon="4.68377">
        <ele>600</ele>
        <time>2018-08-15T07:44:07.249Z</time>
      </trkpt>
      <trkpt lat="45.46239" lon="4.68374">
        <ele>600</ele>
        <time>2018-08-15T07:44:08.244Z</time>
      </trkpt>
      <trkpt lat="45.46239" lon="4.68374">
        <ele>600</ele>
        <time>2018-08-15T07:44:09.250Z</time>
      </trkpt>
      <trkpt lat="45.46243" lon="4.68372">
        <ele>601</ele>
        <time>2018-08-15T07:44:10.258Z</time>
      </trkpt>
      <trkpt lat="45.46246" lon="4.6837">
        <ele>601</ele>
        <time>2018-08-15T07:44:11.246Z</time>
      </trkpt>
      <trkpt lat="45.46246" lon="4.6837">
        <ele>601</ele>
        <time>2018-08-15T07:44:12.251Z</time>
      </trkpt>
      <trkpt lat="45.4625" lon="4.68369">
        <ele>601</ele>
        <time>2018-08-15T07:44:13.261Z</time>
      </trkpt>
      <trkpt lat="45.46253" lon="4.68368">
        <ele>602</ele>
        <time>2018-08-15T07:44:14.253Z</time>
      </trkpt>
      <trkpt lat="45.46253" lon="4.68368">
        <ele>602</ele>
        <time>2018-08-15T07:44:15.260Z</time>
      </trkpt>
      <trkpt lat="45.46256" lon="4.68367">
        <ele>602</ele>
        <time>2018-08-15T07:44:16.251Z</time>
      </trkpt>
      <trkpt lat="45.46256" lon="4.68367">
        <ele>602</ele>
        <time>2018-08-15T07:44:17.257Z</time>
      </trkpt>
      <trkpt lat="45.46259" lon="4.68365">
        <ele>602</ele>
        <time>2018-08-15T07:44:18.245Z</time>
      </trkpt>
      <trkpt lat="45.46259" lon="4.68365">
        <ele>602</ele>
        <time>2018-08-15T07:44:19.251Z</time>
      </trkpt>
      <trkpt lat="45.46264" lon="4.68365">
        <ele>603</ele>
        <time>2018-08-15T07:44:20.239Z</time>
      </trkpt>
      <trkpt lat="45.46264" lon="4.68365">
        <ele>603</ele>
        <time>2018-08-15T07:44:21.244Z</time>
      </trkpt>
      <trkpt lat="45.46268" lon="4.68364">
        <ele>604</ele>
        <time>2018-08-15T07:44:22.252Z</time>
      </trkpt>
      <trkpt lat="45.46268" lon="4.68364">
        <ele>604</ele>
        <time>2018-08-15T07:44:23.240Z</time>
      </trkpt>
      <trkpt lat="45.46273" lon="4.68363">
        <ele>605</ele>
        <time>2018-08-15T07:44:24.234Z</time>
      </trkpt>
      <trkpt lat="45.46275" lon="4.68363">
        <ele>605</ele>
        <time>2018-08-15T07:44:25.260Z</time>
      </trkpt>
      <trkpt lat="45.46276" lon="4.68363">
        <ele>606</ele>
        <time>2018-08-15T07:44:26.253Z</time>
      </trkpt>
      <trkpt lat="45.46276" lon="4.68363">
        <ele>606</ele>
        <time>2018-08-15T07:44:27.264Z</time>
      </trkpt>
      <trkpt lat="45.46279" lon="4.68363">
        <ele>606</ele>
        <time>2018-08-15T07:44:28.244Z</time>
      </trkpt>
      <trkpt lat="45.46279" lon="4.68363">
        <ele>606</ele>
        <time>2018-08-15T07:44:29.250Z</time>
      </trkpt>
      <trkpt lat="45.46283" lon="4.68361">
        <ele>607</ele>
        <time>2018-08-15T07:44:30.245Z</time>
      </trkpt>
      <trkpt lat="45.46283" lon="4.68361">
        <ele>607</ele>
        <time>2018-08-15T07:44:31.252Z</time>
      </trkpt>
      <trkpt lat="45.46289" lon="4.68359">
        <ele>607</ele>
        <time>2018-08-15T07:44:32.238Z</time>
      </trkpt>
      <trkpt lat="45.46289" lon="4.68359">
        <ele>607</ele>
        <time>2018-08-15T07:44:33.243Z</time>
      </trkpt>
      <trkpt lat="45.46294" lon="4.68356">
        <ele>608</ele>
        <time>2018-08-15T07:44:34.253Z</time>
      </trkpt>
      <trkpt lat="45.46294" lon="4.68356">
        <ele>608</ele>
        <time>2018-08-15T07:44:35.260Z</time>
      </trkpt>
      <trkpt lat="45.46299" lon="4.68354">
        <ele>609</ele>
        <time>2018-08-15T07:44:36.244Z</time>
      </trkpt>
      <trkpt lat="45.46299" lon="4.68354">
        <ele>609</ele>
        <time>2018-08-15T07:44:37.235Z</time>
      </trkpt>
      <trkpt lat="45.46305" lon="4.6835">
        <ele>610</ele>
        <time>2018-08-15T07:44:38.258Z</time>
      </trkpt>
      <trkpt lat="45.46305" lon="4.6835">
        <ele>610</ele>
        <time>2018-08-15T07:44:39.264Z</time>
      </trkpt>
      <trkpt lat="45.4631" lon="4.68347">
        <ele>610</ele>
        <time>2018-08-15T07:44:40.256Z</time>
      </trkpt>
      <trkpt lat="45.4631" lon="4.68347">
        <ele>610</ele>
        <time>2018-08-15T07:44:41.264Z</time>
      </trkpt>
      <trkpt lat="45.46315" lon="4.68344">
        <ele>611</ele>
        <time>2018-08-15T07:44:42.247Z</time>
      </trkpt>
      <trkpt lat="45.46315" lon="4.68344">
        <ele>611</ele>
        <time>2018-08-15T07:44:43.252Z</time>
      </trkpt>
      <trkpt lat="45.4632" lon="4.68342">
        <ele>611</ele>
        <time>2018-08-15T07:44:44.243Z</time>
      </trkpt>
      <trkpt lat="45.4632" lon="4.68342">
        <ele>611</ele>
        <time>2018-08-15T07:44:45.248Z</time>
      </trkpt>
      <trkpt lat="45.46324" lon="4.68342">
        <ele>612</ele>
        <time>2018-08-15T07:44:46.264Z</time>
      </trkpt>
      <trkpt lat="45.46324" lon="4.68342">
        <ele>612</ele>
        <time>2018-08-15T07:44:47.270Z</time>
      </trkpt>
      <trkpt lat="45.46328" lon="4.68341">
        <ele>613</ele>
        <time>2018-08-15T07:44:48.253Z</time>
      </trkpt>
      <trkpt lat="45.46328" lon="4.68341">
        <ele>613</ele>
        <time>2018-08-15T07:44:49.265Z</time>
      </trkpt>
      <trkpt lat="45.46332" lon="4.68343">
        <ele>614</ele>
        <time>2018-08-15T07:44:50.253Z</time>
      </trkpt>
      <trkpt lat="45.46332" lon="4.68343">
        <ele>614</ele>
        <time>2018-08-15T07:44:51.258Z</time>
      </trkpt>
      <trkpt lat="45.46336" lon="4.68345">
        <ele>615</ele>
        <time>2018-08-15T07:44:52.240Z</time>
      </trkpt>
      <trkpt lat="45.46336" lon="4.68345">
        <ele>615</ele>
        <time>2018-08-15T07:44:53.246Z</time>
      </trkpt>
      <trkpt lat="45.4634" lon="4.68347">
        <ele>616</ele>
        <time>2018-08-15T07:44:54.271Z</time>
      </trkpt>
      <trkpt lat="45.4634" lon="4.68347">
        <ele>616</ele>
        <time>2018-08-15T07:44:55.236Z</time>
      </trkpt>
      <trkpt lat="45.46343" lon="4.68351">
        <ele>617</ele>
        <time>2018-08-15T07:44:56.235Z</time>
      </trkpt>
      <trkpt lat="45.46343" lon="4.68351">
        <ele>617</ele>
        <time>2018-08-15T07:44:57.240Z</time>
      </trkpt>
      <trkpt lat="45.46347" lon="4.68356">
        <ele>618</ele>
        <time>2018-08-15T07:44:58.264Z</time>
      </trkpt>
      <trkpt lat="45.46347" lon="4.68356">
        <ele>618</ele>
        <time>2018-08-15T07:44:59.269Z</time>
      </trkpt>
      <trkpt lat="45.46349" lon="4.6836">
        <ele>619</ele>
        <time>2018-08-15T07:45:00.235Z</time>
      </trkpt>
      <trkpt lat="45.46349" lon="4.6836">
        <ele>619</ele>
        <time>2018-08-15T07:45:01.232Z</time>
      </trkpt>
      <trkpt lat="45.46352" lon="4.68365">
        <ele>620</ele>
        <time>2018-08-15T07:45:02.232Z</time>
      </trkpt>
      <trkpt lat="45.46352" lon="4.68365">
        <ele>620</ele>
        <time>2018-08-15T07:45:03.238Z</time>
      </trkpt>
      <trkpt lat="45.46354" lon="4.6837">
        <ele>621</ele>
        <time>2018-08-15T07:45:04.233Z</time>
      </trkpt>
      <trkpt lat="45.46354" lon="4.6837">
        <ele>621</ele>
        <time>2018-08-15T07:45:05.240Z</time>
      </trkpt>
      <trkpt lat="45.46357" lon="4.68375">
        <ele>621</ele>
        <time>2018-08-15T07:45:06.268Z</time>
      </trkpt>
      <trkpt lat="45.46357" lon="4.68375">
        <ele>621</ele>
        <time>2018-08-15T07:45:07.236Z</time>
      </trkpt>
      <trkpt lat="45.46359" lon="4.6838">
        <ele>622</ele>
        <time>2018-08-15T07:45:08.236Z</time>
      </trkpt>
      <trkpt lat="45.46359" lon="4.6838">
        <ele>622</ele>
        <time>2018-08-15T07:45:09.241Z</time>
      </trkpt>
      <trkpt lat="45.4636" lon="4.68385">
        <ele>622</ele>
        <time>2018-08-15T07:45:10.270Z</time>
      </trkpt>
      <trkpt lat="45.46361" lon="4.68388">
        <ele>623</ele>
        <time>2018-08-15T07:45:11.249Z</time>
      </trkpt>
      <trkpt lat="45.46361" lon="4.68388">
        <ele>623</ele>
        <time>2018-08-15T07:45:12.255Z</time>
      </trkpt>
      <trkpt lat="45.46361" lon="4.68394">
        <ele>623</ele>
        <time>2018-08-15T07:45:13.241Z</time>
      </trkpt>
      <trkpt lat="45.46362" lon="4.68397">
        <ele>623</ele>
        <time>2018-08-15T07:45:14.239Z</time>
      </trkpt>
      <trkpt lat="45.46362" lon="4.68397">
        <ele>623</ele>
        <time>2018-08-15T07:45:15.244Z</time>
      </trkpt>
      <trkpt lat="45.46363" lon="4.68403">
        <ele>624</ele>
        <time>2018-08-15T07:45:16.248Z</time>
      </trkpt>
      <trkpt lat="45.46363" lon="4.68403">
        <ele>624</ele>
        <time>2018-08-15T07:45:17.253Z</time>
      </trkpt>
      <trkpt lat="45.46364" lon="4.6841">
        <ele>625</ele>
        <time>2018-08-15T07:45:18.255Z</time>
      </trkpt>
      <trkpt lat="45.46364" lon="4.6841">
        <ele>625</ele>
        <time>2018-08-15T07:45:19.264Z</time>
      </trkpt>
      <trkpt lat="45.46365" lon="4.68416">
        <ele>625</ele>
        <time>2018-08-15T07:45:20.237Z</time>
      </trkpt>
      <trkpt lat="45.46365" lon="4.68416">
        <ele>625</ele>
        <time>2018-08-15T07:45:21.242Z</time>
      </trkpt>
      <trkpt lat="45.46366" lon="4.68422">
        <ele>626</ele>
        <time>2018-08-15T07:45:22.235Z</time>
      </trkpt>
      <trkpt lat="45.46366" lon="4.68422">
        <ele>626</ele>
        <time>2018-08-15T07:45:23.246Z</time>
      </trkpt>
      <trkpt lat="45.46366" lon="4.68428">
        <ele>626</ele>
        <time>2018-08-15T07:45:24.253Z</time>
      </trkpt>
      <trkpt lat="45.46366" lon="4.68428">
        <ele>626</ele>
        <time>2018-08-15T07:45:25.263Z</time>
      </trkpt>
      <trkpt lat="45.46367" lon="4.68434">
        <ele>626</ele>
        <time>2018-08-15T07:45:26.251Z</time>
      </trkpt>
      <trkpt lat="45.46367" lon="4.68434">
        <ele>626</ele>
        <time>2018-08-15T07:45:27.256Z</time>
      </trkpt>
      <trkpt lat="45.46369" lon="4.6844">
        <ele>627</ele>
        <time>2018-08-15T07:45:28.263Z</time>
      </trkpt>
      <trkpt lat="45.46369" lon="4.6844">
        <ele>627</ele>
        <time>2018-08-15T07:45:29.268Z</time>
      </trkpt>
      <trkpt lat="45.46369" lon="4.68447">
        <ele>627</ele>
        <time>2018-08-15T07:45:30.269Z</time>
      </trkpt>
      <trkpt lat="45.46369" lon="4.68451">
        <ele>627</ele>
        <time>2018-08-15T07:45:31.268Z</time>
      </trkpt>
      <trkpt lat="45.4637" lon="4.68455">
        <ele>628</ele>
        <time>2018-08-15T07:45:32.251Z</time>
      </trkpt>
      <trkpt lat="45.4637" lon="4.68455">
        <ele>628</ele>
        <time>2018-08-15T07:45:33.257Z</time>
      </trkpt>
      <trkpt lat="45.46371" lon="4.6846">
        <ele>628</ele>
        <time>2018-08-15T07:45:34.247Z</time>
      </trkpt>
      <trkpt lat="45.46371" lon="4.6846">
        <ele>628</ele>
        <time>2018-08-15T07:45:35.252Z</time>
      </trkpt>
      <trkpt lat="45.46372" lon="4.68467">
        <ele>629</ele>
        <time>2018-08-15T07:45:36.256Z</time>
      </trkpt>
      <trkpt lat="45.46372" lon="4.68471">
        <ele>629</ele>
        <time>2018-08-15T07:45:37.244Z</time>
      </trkpt>
      <trkpt lat="45.46372" lon="4.68474">
        <ele>629</ele>
        <time>2018-08-15T07:45:38.269Z</time>
      </trkpt>
      <trkpt lat="45.46372" lon="4.68474">
        <ele>629</ele>
        <time>2018-08-15T07:45:39.235Z</time>
      </trkpt>
      <trkpt lat="45.46373" lon="4.6848">
        <ele>630</ele>
        <time>2018-08-15T07:45:40.242Z</time>
      </trkpt>
      <trkpt lat="45.46373" lon="4.68484">
        <ele>630</ele>
        <time>2018-08-15T07:45:41.270Z</time>
      </trkpt>
      <trkpt lat="45.46373" lon="4.68484">
        <ele>630</ele>
        <time>2018-08-15T07:45:42.235Z</time>
      </trkpt>
      <trkpt lat="45.46374" lon="4.68491">
        <ele>630</ele>
        <time>2018-08-15T07:45:43.271Z</time>
      </trkpt>
      <trkpt lat="45.46374" lon="4.68494">
        <ele>631</ele>
        <time>2018-08-15T07:45:44.254Z</time>
      </trkpt>
      <trkpt lat="45.46374" lon="4.68494">
        <ele>631</ele>
        <time>2018-08-15T07:45:45.262Z</time>
      </trkpt>
      <trkpt lat="45.46375" lon="4.68501">
        <ele>631</ele>
        <time>2018-08-15T07:45:46.259Z</time>
      </trkpt>
      <trkpt lat="45.46375" lon="4.68501">
        <ele>631</ele>
        <time>2018-08-15T07:45:47.265Z</time>
      </trkpt>
      <trkpt lat="45.46375" lon="4.68508">
        <ele>632</ele>
        <time>2018-08-15T07:45:48.248Z</time>
      </trkpt>
      <trkpt lat="45.46375" lon="4.68508">
        <ele>632</ele>
        <time>2018-08-15T07:45:49.253Z</time>
      </trkpt>
      <trkpt lat="45.46376" lon="4.68514">
        <ele>632</ele>
        <time>2018-08-15T07:45:50.246Z</time>
      </trkpt>
      <trkpt lat="45.46377" lon="4.68517">
        <ele>633</ele>
        <time>2018-08-15T07:45:51.239Z</time>
      </trkpt>
      <trkpt lat="45.46377" lon="4.68517">
        <ele>633</ele>
        <time>2018-08-15T07:45:52.244Z</time>
      </trkpt>
      <trkpt lat="45.46377" lon="4.68524">
        <ele>633</ele>
        <time>2018-08-15T07:45:53.233Z</time>
      </trkpt>
      <trkpt lat="45.46378" lon="4.68527">
        <ele>633</ele>
        <time>2018-08-15T07:45:54.265Z</time>
      </trkpt>
      <trkpt lat="45.46378" lon="4.68527">
        <ele>633</ele>
        <time>2018-08-15T07:45:55.270Z</time>
      </trkpt>
      <trkpt lat="45.46379" lon="4.68533">
        <ele>634</ele>
        <time>2018-08-15T07:45:56.237Z</time>
      </trkpt>
      <trkpt lat="45.46379" lon="4.68533">
        <ele>634</ele>
        <time>2018-08-15T07:45:57.242Z</time>
      </trkpt>
      <trkpt lat="45.4638" lon="4.68538">
        <ele>634</ele>
        <time>2018-08-15T07:45:58.270Z</time>
      </trkpt>
      <trkpt lat="45.4638" lon="4.68538">
        <ele>634</ele>
        <time>2018-08-15T07:45:59.236Z</time>
      </trkpt>
      <trkpt lat="45.46381" lon="4.68545">
        <ele>634</ele>
        <time>2018-08-15T07:46:00.234Z</time>
      </trkpt>
      <trkpt lat="45.46381" lon="4.68545">
        <ele>634</ele>
        <time>2018-08-15T07:46:01.241Z</time>
      </trkpt>
      <trkpt lat="45.46382" lon="4.68551">
        <ele>634</ele>
        <time>2018-08-15T07:46:02.243Z</time>
      </trkpt>
      <trkpt lat="45.46382" lon="4.68551">
        <ele>634</ele>
        <time>2018-08-15T07:46:03.248Z</time>
      </trkpt>
      <trkpt lat="45.46382" lon="4.68557">
        <ele>634</ele>
        <time>2018-08-15T07:46:04.253Z</time>
      </trkpt>
      <trkpt lat="45.46382" lon="4.68557">
        <ele>634</ele>
        <time>2018-08-15T07:46:05.259Z</time>
      </trkpt>
      <trkpt lat="45.46383" lon="4.68564">
        <ele>635</ele>
        <time>2018-08-15T07:46:06.251Z</time>
      </trkpt>
      <trkpt lat="45.46383" lon="4.68564">
        <ele>635</ele>
        <time>2018-08-15T07:46:07.257Z</time>
      </trkpt>
      <trkpt lat="45.46383" lon="4.6857">
        <ele>635</ele>
        <time>2018-08-15T07:46:08.253Z</time>
      </trkpt>
      <trkpt lat="45.46383" lon="4.6857">
        <ele>635</ele>
        <time>2018-08-15T07:46:09.259Z</time>
      </trkpt>
      <trkpt lat="45.46384" lon="4.68576">
        <ele>635</ele>
        <time>2018-08-15T07:46:10.257Z</time>
      </trkpt>
      <trkpt lat="45.46384" lon="4.68576">
        <ele>635</ele>
        <time>2018-08-15T07:46:11.262Z</time>
      </trkpt>
      <trkpt lat="45.46384" lon="4.68582">
        <ele>635</ele>
        <time>2018-08-15T07:46:12.257Z</time>
      </trkpt>
      <trkpt lat="45.46384" lon="4.68585">
        <ele>635</ele>
        <time>2018-08-15T07:46:13.265Z</time>
      </trkpt>
      <trkpt lat="45.46384" lon="4.68588">
        <ele>635</ele>
        <time>2018-08-15T07:46:14.252Z</time>
      </trkpt>
      <trkpt lat="45.46384" lon="4.68588">
        <ele>635</ele>
        <time>2018-08-15T07:46:15.260Z</time>
      </trkpt>
      <trkpt lat="45.46385" lon="4.68594">
        <ele>635</ele>
        <time>2018-08-15T07:46:16.251Z</time>
      </trkpt>
      <trkpt lat="45.46385" lon="4.68594">
        <ele>635</ele>
        <time>2018-08-15T07:46:17.257Z</time>
      </trkpt>
      <trkpt lat="45.46386" lon="4.686">
        <ele>636</ele>
        <time>2018-08-15T07:46:18.259Z</time>
      </trkpt>
      <trkpt lat="45.46386" lon="4.68603">
        <ele>636</ele>
        <time>2018-08-15T07:46:19.247Z</time>
      </trkpt>
      <trkpt lat="45.46387" lon="4.68606">
        <ele>636</ele>
        <time>2018-08-15T07:46:20.265Z</time>
      </trkpt>
      <trkpt lat="45.46387" lon="4.68606">
        <ele>636</ele>
        <time>2018-08-15T07:46:21.270Z</time>
      </trkpt>
      <trkpt lat="45.46389" lon="4.68613">
        <ele>636</ele>
        <time>2018-08-15T07:46:22.243Z</time>
      </trkpt>
      <trkpt lat="45.46389" lon="4.68613">
        <ele>636</ele>
        <time>2018-08-15T07:46:23.248Z</time>
      </trkpt>
      <trkpt lat="45.4639" lon="4.68618">
        <ele>636</ele>
        <time>2018-08-15T07:46:24.239Z</time>
      </trkpt>
      <trkpt lat="45.4639" lon="4.68618">
        <ele>636</ele>
        <time>2018-08-15T07:46:25.245Z</time>
      </trkpt>
      <trkpt lat="45.46392" lon="4.68624">
        <ele>636</ele>
        <time>2018-08-15T07:46:26.246Z</time>
      </trkpt>
      <trkpt lat="45.46392" lon="4.68624">
        <ele>636</ele>
        <time>2018-08-15T07:46:27.251Z</time>
      </trkpt>
      <trkpt lat="45.46393" lon="4.68629">
        <ele>636</ele>
        <time>2018-08-15T07:46:28.243Z</time>
      </trkpt>
      <trkpt lat="45.46393" lon="4.68629">
        <ele>636</ele>
        <time>2018-08-15T07:46:29.249Z</time>
      </trkpt>
      <trkpt lat="45.46395" lon="4.68635">
        <ele>636</ele>
        <time>2018-08-15T07:46:30.271Z</time>
      </trkpt>
      <trkpt lat="45.46395" lon="4.68635">
        <ele>636</ele>
        <time>2018-08-15T07:46:31.237Z</time>
      </trkpt>
      <trkpt lat="45.46396" lon="4.68641">
        <ele>636</ele>
        <time>2018-08-15T07:46:32.248Z</time>
      </trkpt>
      <trkpt lat="45.46396" lon="4.68641">
        <ele>636</ele>
        <time>2018-08-15T07:46:33.253Z</time>
      </trkpt>
      <trkpt lat="45.46397" lon="4.68647">
        <ele>636</ele>
        <time>2018-08-15T07:46:34.250Z</time>
      </trkpt>
      <trkpt lat="45.46397" lon="4.68647">
        <ele>636</ele>
        <time>2018-08-15T07:46:35.255Z</time>
      </trkpt>
      <trkpt lat="45.46398" lon="4.68653">
        <ele>636</ele>
        <time>2018-08-15T07:46:36.253Z</time>
      </trkpt>
      <trkpt lat="45.46398" lon="4.68653">
        <ele>636</ele>
        <time>2018-08-15T07:46:37.250Z</time>
      </trkpt>
      <trkpt lat="45.46398" lon="4.68659">
        <ele>636</ele>
        <time>2018-08-15T07:46:38.246Z</time>
      </trkpt>
      <trkpt lat="45.46398" lon="4.68659">
        <ele>636</ele>
        <time>2018-08-15T07:46:39.252Z</time>
      </trkpt>
      <trkpt lat="45.46399" lon="4.68665">
        <ele>636</ele>
        <time>2018-08-15T07:46:40.243Z</time>
      </trkpt>
      <trkpt lat="45.46399" lon="4.68665">
        <ele>636</ele>
        <time>2018-08-15T07:46:41.248Z</time>
      </trkpt>
      <trkpt lat="45.46399" lon="4.68671">
        <ele>636</ele>
        <time>2018-08-15T07:46:42.243Z</time>
      </trkpt>
      <trkpt lat="45.46399" lon="4.68671">
        <ele>636</ele>
        <time>2018-08-15T07:46:43.248Z</time>
      </trkpt>
      <trkpt lat="45.46399" lon="4.68677">
        <ele>635</ele>
        <time>2018-08-15T07:46:44.254Z</time>
      </trkpt>
      <trkpt lat="45.46399" lon="4.68677">
        <ele>635</ele>
        <time>2018-08-15T07:46:45.260Z</time>
      </trkpt>
      <trkpt lat="45.46399" lon="4.68684">
        <ele>635</ele>
        <time>2018-08-15T07:46:46.266Z</time>
      </trkpt>
      <trkpt lat="45.46399" lon="4.68684">
        <ele>635</ele>
        <time>2018-08-15T07:46:47.271Z</time>
      </trkpt>
      <trkpt lat="45.46399" lon="4.68689">
        <ele>635</ele>
        <time>2018-08-15T07:46:48.239Z</time>
      </trkpt>
      <trkpt lat="45.46399" lon="4.68689">
        <ele>635</ele>
        <time>2018-08-15T07:46:49.245Z</time>
      </trkpt>
      <trkpt lat="45.46399" lon="4.68694">
        <ele>636</ele>
        <time>2018-08-15T07:46:50.238Z</time>
      </trkpt>
      <trkpt lat="45.46399" lon="4.68694">
        <ele>636</ele>
        <time>2018-08-15T07:46:51.243Z</time>
      </trkpt>
      <trkpt lat="45.46399" lon="4.687">
        <ele>636</ele>
        <time>2018-08-15T07:46:52.238Z</time>
      </trkpt>
      <trkpt lat="45.46399" lon="4.687">
        <ele>636</ele>
        <time>2018-08-15T07:46:53.243Z</time>
      </trkpt>
      <trkpt lat="45.46399" lon="4.68707">
        <ele>635</ele>
        <time>2018-08-15T07:46:54.234Z</time>
      </trkpt>
      <trkpt lat="45.46399" lon="4.68707">
        <ele>635</ele>
        <time>2018-08-15T07:46:55.239Z</time>
      </trkpt>
      <trkpt lat="45.46399" lon="4.68712">
        <ele>636</ele>
        <time>2018-08-15T07:46:56.262Z</time>
      </trkpt>
      <trkpt lat="45.46399" lon="4.68712">
        <ele>636</ele>
        <time>2018-08-15T07:46:57.268Z</time>
      </trkpt>
      <trkpt lat="45.46399" lon="4.68719">
        <ele>635</ele>
        <time>2018-08-15T07:46:58.253Z</time>
      </trkpt>
      <trkpt lat="45.46399" lon="4.68719">
        <ele>635</ele>
        <time>2018-08-15T07:46:59.263Z</time>
      </trkpt>
      <trkpt lat="45.46398" lon="4.68725">
        <ele>636</ele>
        <time>2018-08-15T07:47:00.263Z</time>
      </trkpt>
      <trkpt lat="45.46398" lon="4.68725">
        <ele>636</ele>
        <time>2018-08-15T07:47:01.236Z</time>
      </trkpt>
      <trkpt lat="45.46398" lon="4.68731">
        <ele>636</ele>
        <time>2018-08-15T07:47:02.269Z</time>
      </trkpt>
      <trkpt lat="45.46398" lon="4.68731">
        <ele>636</ele>
        <time>2018-08-15T07:47:03.234Z</time>
      </trkpt>
      <trkpt lat="45.46398" lon="4.68738">
        <ele>636</ele>
        <time>2018-08-15T07:47:04.241Z</time>
      </trkpt>
      <trkpt lat="45.46398" lon="4.68738">
        <ele>636</ele>
        <time>2018-08-15T07:47:05.248Z</time>
      </trkpt>
      <trkpt lat="45.46398" lon="4.68744">
        <ele>636</ele>
        <time>2018-08-15T07:47:06.243Z</time>
      </trkpt>
      <trkpt lat="45.46398" lon="4.68744">
        <ele>636</ele>
        <time>2018-08-15T07:47:07.248Z</time>
      </trkpt>
      <trkpt lat="45.46398" lon="4.68751">
        <ele>636</ele>
        <time>2018-08-15T07:47:08.242Z</time>
      </trkpt>
      <trkpt lat="45.46398" lon="4.68751">
        <ele>636</ele>
        <time>2018-08-15T07:47:09.248Z</time>
      </trkpt>
      <trkpt lat="45.46397" lon="4.68757">
        <ele>636</ele>
        <time>2018-08-15T07:47:10.237Z</time>
      </trkpt>
      <trkpt lat="45.46397" lon="4.68757">
        <ele>636</ele>
        <time>2018-08-15T07:47:11.243Z</time>
      </trkpt>
      <trkpt lat="45.46397" lon="4.68763">
        <ele>637</ele>
        <time>2018-08-15T07:47:12.248Z</time>
      </trkpt>
      <trkpt lat="45.46397" lon="4.68763">
        <ele>637</ele>
        <time>2018-08-15T07:47:13.253Z</time>
      </trkpt>
      <trkpt lat="45.46395" lon="4.68769">
        <ele>637</ele>
        <time>2018-08-15T07:47:14.248Z</time>
      </trkpt>
      <trkpt lat="45.46395" lon="4.68769">
        <ele>637</ele>
        <time>2018-08-15T07:47:15.253Z</time>
      </trkpt>
      <trkpt lat="45.46395" lon="4.68775">
        <ele>637</ele>
        <time>2018-08-15T07:47:16.243Z</time>
      </trkpt>
      <trkpt lat="45.46395" lon="4.68775">
        <ele>637</ele>
        <time>2018-08-15T07:47:17.248Z</time>
      </trkpt>
      <trkpt lat="45.46394" lon="4.68781">
        <ele>638</ele>
        <time>2018-08-15T07:47:18.249Z</time>
      </trkpt>
      <trkpt lat="45.46394" lon="4.68781">
        <ele>638</ele>
        <time>2018-08-15T07:47:19.254Z</time>
      </trkpt>
      <trkpt lat="45.46394" lon="4.68787">
        <ele>638</ele>
        <time>2018-08-15T07:47:20.258Z</time>
      </trkpt>
      <trkpt lat="45.46394" lon="4.68787">
        <ele>638</ele>
        <time>2018-08-15T07:47:21.264Z</time>
      </trkpt>
      <trkpt lat="45.46394" lon="4.68794">
        <ele>638</ele>
        <time>2018-08-15T07:47:22.254Z</time>
      </trkpt>
      <trkpt lat="45.46394" lon="4.68794">
        <ele>638</ele>
        <time>2018-08-15T07:47:23.263Z</time>
      </trkpt>
      <trkpt lat="45.46393" lon="4.688">
        <ele>638</ele>
        <time>2018-08-15T07:47:24.255Z</time>
      </trkpt>
      <trkpt lat="45.46393" lon="4.688">
        <ele>638</ele>
        <time>2018-08-15T07:47:25.264Z</time>
      </trkpt>
      <trkpt lat="45.46392" lon="4.68807">
        <ele>638</ele>
        <time>2018-08-15T07:47:26.245Z</time>
      </trkpt>
      <trkpt lat="45.46392" lon="4.68807">
        <ele>638</ele>
        <time>2018-08-15T07:47:27.251Z</time>
      </trkpt>
      <trkpt lat="45.46392" lon="4.68813">
        <ele>639</ele>
        <time>2018-08-15T07:47:28.265Z</time>
      </trkpt>
      <trkpt lat="45.46392" lon="4.68813">
        <ele>639</ele>
        <time>2018-08-15T07:47:29.237Z</time>
      </trkpt>
      <trkpt lat="45.46391" lon="4.68819">
        <ele>639</ele>
        <time>2018-08-15T07:47:30.270Z</time>
      </trkpt>
      <trkpt lat="45.46391" lon="4.68819">
        <ele>639</ele>
        <time>2018-08-15T07:47:31.237Z</time>
      </trkpt>
      <trkpt lat="45.46391" lon="4.68826">
        <ele>639</ele>
        <time>2018-08-15T07:47:32.267Z</time>
      </trkpt>
      <trkpt lat="45.46391" lon="4.68826">
        <ele>639</ele>
        <time>2018-08-15T07:47:33.232Z</time>
      </trkpt>
      <trkpt lat="45.4639" lon="4.68832">
        <ele>639</ele>
        <time>2018-08-15T07:47:34.267Z</time>
      </trkpt>
      <trkpt lat="45.4639" lon="4.68835">
        <ele>639</ele>
        <time>2018-08-15T07:47:35.232Z</time>
      </trkpt>
      <trkpt lat="45.4639" lon="4.68835">
        <ele>639</ele>
        <time>2018-08-15T07:47:36.246Z</time>
      </trkpt>
      <trkpt lat="45.46389" lon="4.68842">
        <ele>639</ele>
        <time>2018-08-15T07:47:37.242Z</time>
      </trkpt>
      <trkpt lat="45.46389" lon="4.68845">
        <ele>639</ele>
        <time>2018-08-15T07:47:38.247Z</time>
      </trkpt>
      <trkpt lat="45.46389" lon="4.68845">
        <ele>639</ele>
        <time>2018-08-15T07:47:39.253Z</time>
      </trkpt>
      <trkpt lat="45.46389" lon="4.68852">
        <ele>639</ele>
        <time>2018-08-15T07:47:40.240Z</time>
      </trkpt>
      <trkpt lat="45.46389" lon="4.68852">
        <ele>639</ele>
        <time>2018-08-15T07:47:41.246Z</time>
      </trkpt>
      <trkpt lat="45.46389" lon="4.68858">
        <ele>639</ele>
        <time>2018-08-15T07:47:42.237Z</time>
      </trkpt>
      <trkpt lat="45.46389" lon="4.68858">
        <ele>639</ele>
        <time>2018-08-15T07:47:43.242Z</time>
      </trkpt>
      <trkpt lat="45.46389" lon="4.68865">
        <ele>639</ele>
        <time>2018-08-15T07:47:44.234Z</time>
      </trkpt>
      <trkpt lat="45.46389" lon="4.68865">
        <ele>639</ele>
        <time>2018-08-15T07:47:45.239Z</time>
      </trkpt>
      <trkpt lat="45.46389" lon="4.68871">
        <ele>639</ele>
        <time>2018-08-15T07:47:46.248Z</time>
      </trkpt>
      <trkpt lat="45.46389" lon="4.68871">
        <ele>639</ele>
        <time>2018-08-15T07:47:47.253Z</time>
      </trkpt>
      <trkpt lat="45.46389" lon="4.68878">
        <ele>639</ele>
        <time>2018-08-15T07:47:48.253Z</time>
      </trkpt>
      <trkpt lat="45.46389" lon="4.68878">
        <ele>639</ele>
        <time>2018-08-15T07:47:49.260Z</time>
      </trkpt>
      <trkpt lat="45.46387" lon="4.68885">
        <ele>640</ele>
        <time>2018-08-15T07:47:50.249Z</time>
      </trkpt>
      <trkpt lat="45.46387" lon="4.68885">
        <ele>640</ele>
        <time>2018-08-15T07:47:51.255Z</time>
      </trkpt>
      <trkpt lat="45.46386" lon="4.68891">
        <ele>640</ele>
        <time>2018-08-15T07:47:52.264Z</time>
      </trkpt>
      <trkpt lat="45.46386" lon="4.68891">
        <ele>640</ele>
        <time>2018-08-15T07:47:53.269Z</time>
      </trkpt>
      <trkpt lat="45.46386" lon="4.68898">
        <ele>640</ele>
        <time>2018-08-15T07:47:54.256Z</time>
      </trkpt>
      <trkpt lat="45.46386" lon="4.68898">
        <ele>640</ele>
        <time>2018-08-15T07:47:55.247Z</time>
      </trkpt>
      <trkpt lat="45.46388" lon="4.68903">
        <ele>640</ele>
        <time>2018-08-15T07:47:56.236Z</time>
      </trkpt>
      <trkpt lat="45.46388" lon="4.68903">
        <ele>640</ele>
        <time>2018-08-15T07:47:57.242Z</time>
      </trkpt>
      <trkpt lat="45.46391" lon="4.68906">
        <ele>641</ele>
        <time>2018-08-15T07:47:58.234Z</time>
      </trkpt>
      <trkpt lat="45.46391" lon="4.68906">
        <ele>641</ele>
        <time>2018-08-15T07:47:59.240Z</time>
      </trkpt>
      <trkpt lat="45.46395" lon="4.68907">
        <ele>640</ele>
        <time>2018-08-15T07:48:00.245Z</time>
      </trkpt>
      <trkpt lat="45.46397" lon="4.68906">
        <ele>640</ele>
        <time>2018-08-15T07:48:01.248Z</time>
      </trkpt>
      <trkpt lat="45.46399" lon="4.68905">
        <ele>640</ele>
        <time>2018-08-15T07:48:02.255Z</time>
      </trkpt>
      <trkpt lat="45.46399" lon="4.68905">
        <ele>640</ele>
        <time>2018-08-15T07:48:03.263Z</time>
      </trkpt>
      <trkpt lat="45.46402" lon="4.689">
        <ele>640</ele>
        <time>2018-08-15T07:48:04.261Z</time>
      </trkpt>
      <trkpt lat="45.46403" lon="4.68897">
        <ele>640</ele>
        <time>2018-08-15T07:48:05.243Z</time>
      </trkpt>
      <trkpt lat="45.46403" lon="4.68897">
        <ele>640</ele>
        <time>2018-08-15T07:48:06.248Z</time>
      </trkpt>
      <trkpt lat="45.46404" lon="4.68891">
        <ele>640</ele>
        <time>2018-08-15T07:48:07.241Z</time>
      </trkpt>
      <trkpt lat="45.46404" lon="4.68888">
        <ele>640</ele>
        <time>2018-08-15T07:48:08.247Z</time>
      </trkpt>
      <trkpt lat="45.46404" lon="4.68888">
        <ele>640</ele>
        <time>2018-08-15T07:48:09.252Z</time>
      </trkpt>
      <trkpt lat="45.46403" lon="4.68881">
        <ele>640</ele>
        <time>2018-08-15T07:48:10.243Z</time>
      </trkpt>
      <trkpt lat="45.46403" lon="4.68881">
        <ele>640</ele>
        <time>2018-08-15T07:48:11.249Z</time>
      </trkpt>
      <trkpt lat="45.46403" lon="4.68874">
        <ele>640</ele>
        <time>2018-08-15T07:48:12.271Z</time>
      </trkpt>
      <trkpt lat="45.46403" lon="4.68874">
        <ele>640</ele>
        <time>2018-08-15T07:48:13.237Z</time>
      </trkpt>
      <trkpt lat="45.46403" lon="4.68867">
        <ele>640</ele>
        <time>2018-08-15T07:48:14.264Z</time>
      </trkpt>
      <trkpt lat="45.46403" lon="4.68867">
        <ele>640</ele>
        <time>2018-08-15T07:48:15.269Z</time>
      </trkpt>
      <trkpt lat="45.46405" lon="4.6886">
        <ele>640</ele>
        <time>2018-08-15T07:48:16.267Z</time>
      </trkpt>
      <trkpt lat="45.46405" lon="4.6886">
        <ele>640</ele>
        <time>2018-08-15T07:48:17.232Z</time>
      </trkpt>
      <trkpt lat="45.46405" lon="4.68854">
        <ele>640</ele>
        <time>2018-08-15T07:48:18.248Z</time>
      </trkpt>
      <trkpt lat="45.46405" lon="4.68854">
        <ele>640</ele>
        <time>2018-08-15T07:48:19.254Z</time>
      </trkpt>
      <trkpt lat="45.46406" lon="4.68847">
        <ele>640</ele>
        <time>2018-08-15T07:48:20.263Z</time>
      </trkpt>
      <trkpt lat="45.46406" lon="4.68847">
        <ele>640</ele>
        <time>2018-08-15T07:48:21.268Z</time>
      </trkpt>
      <trkpt lat="45.46407" lon="4.68841">
        <ele>641</ele>
        <time>2018-08-15T07:48:22.271Z</time>
      </trkpt>
      <trkpt lat="45.46407" lon="4.68841">
        <ele>641</ele>
        <time>2018-08-15T07:48:23.237Z</time>
      </trkpt>
      <trkpt lat="45.46409" lon="4.68835">
        <ele>641</ele>
        <time>2018-08-15T07:48:24.236Z</time>
      </trkpt>
      <trkpt lat="45.46409" lon="4.68835">
        <ele>641</ele>
        <time>2018-08-15T07:48:25.242Z</time>
      </trkpt>
      <trkpt lat="45.4641" lon="4.68828">
        <ele>641</ele>
        <time>2018-08-15T07:48:26.244Z</time>
      </trkpt>
      <trkpt lat="45.4641" lon="4.68828">
        <ele>641</ele>
        <time>2018-08-15T07:48:27.249Z</time>
      </trkpt>
      <trkpt lat="45.46411" lon="4.68822">
        <ele>641</ele>
        <time>2018-08-15T07:48:28.232Z</time>
      </trkpt>
      <trkpt lat="45.46411" lon="4.68822">
        <ele>641</ele>
        <time>2018-08-15T07:48:29.238Z</time>
      </trkpt>
      <trkpt lat="45.46413" lon="4.68816">
        <ele>641</ele>
        <time>2018-08-15T07:48:30.235Z</time>
      </trkpt>
      <trkpt lat="45.46413" lon="4.68816">
        <ele>641</ele>
        <time>2018-08-15T07:48:31.241Z</time>
      </trkpt>
      <trkpt lat="45.46414" lon="4.68811">
        <ele>642</ele>
        <time>2018-08-15T07:48:32.246Z</time>
      </trkpt>
      <trkpt lat="45.46414" lon="4.68811">
        <ele>642</ele>
        <time>2018-08-15T07:48:33.251Z</time>
      </trkpt>
      <trkpt lat="45.46416" lon="4.68805">
        <ele>642</ele>
        <time>2018-08-15T07:48:34.249Z</time>
      </trkpt>
      <trkpt lat="45.46416" lon="4.68805">
        <ele>642</ele>
        <time>2018-08-15T07:48:35.254Z</time>
      </trkpt>
      <trkpt lat="45.46417" lon="4.688">
        <ele>642</ele>
        <time>2018-08-15T07:48:36.265Z</time>
      </trkpt>
      <trkpt lat="45.46417" lon="4.688">
        <ele>642</ele>
        <time>2018-08-15T07:48:37.261Z</time>
      </trkpt>
      <trkpt lat="45.46419" lon="4.68794">
        <ele>642</ele>
        <time>2018-08-15T07:48:38.249Z</time>
      </trkpt>
      <trkpt lat="45.46419" lon="4.68794">
        <ele>642</ele>
        <time>2018-08-15T07:48:39.254Z</time>
      </trkpt>
      <trkpt lat="45.46421" lon="4.68788">
        <ele>642</ele>
        <time>2018-08-15T07:48:40.235Z</time>
      </trkpt>
      <trkpt lat="45.46421" lon="4.68788">
        <ele>642</ele>
        <time>2018-08-15T07:48:41.240Z</time>
      </trkpt>
      <trkpt lat="45.46423" lon="4.68782">
        <ele>642</ele>
        <time>2018-08-15T07:48:42.261Z</time>
      </trkpt>
      <trkpt lat="45.46423" lon="4.68782">
        <ele>642</ele>
        <time>2018-08-15T07:48:43.268Z</time>
      </trkpt>
      <trkpt lat="45.46424" lon="4.68776">
        <ele>642</ele>
        <time>2018-08-15T07:48:44.261Z</time>
      </trkpt>
      <trkpt lat="45.46424" lon="4.68776">
        <ele>642</ele>
        <time>2018-08-15T07:48:45.266Z</time>
      </trkpt>
      <trkpt lat="45.46426" lon="4.6877">
        <ele>642</ele>
        <time>2018-08-15T07:48:46.267Z</time>
      </trkpt>
      <trkpt lat="45.46426" lon="4.6877">
        <ele>642</ele>
        <time>2018-08-15T07:48:47.233Z</time>
      </trkpt>
      <trkpt lat="45.46428" lon="4.68764">
        <ele>642</ele>
        <time>2018-08-15T07:48:48.263Z</time>
      </trkpt>
      <trkpt lat="45.46428" lon="4.68764">
        <ele>642</ele>
        <time>2018-08-15T07:48:49.239Z</time>
      </trkpt>
      <trkpt lat="45.4643" lon="4.68758">
        <ele>642</ele>
        <time>2018-08-15T07:48:50.235Z</time>
      </trkpt>
      <trkpt lat="45.4643" lon="4.68758">
        <ele>642</ele>
        <time>2018-08-15T07:48:51.240Z</time>
      </trkpt>
      <trkpt lat="45.46432" lon="4.68753">
        <ele>643</ele>
        <time>2018-08-15T07:48:52.256Z</time>
      </trkpt>
      <trkpt lat="45.46432" lon="4.68753">
        <ele>643</ele>
        <time>2018-08-15T07:48:53.261Z</time>
      </trkpt>
      <trkpt lat="45.46433" lon="4.68747">
        <ele>643</ele>
        <time>2018-08-15T07:48:54.257Z</time>
      </trkpt>
      <trkpt lat="45.46433" lon="4.68747">
        <ele>643</ele>
        <time>2018-08-15T07:48:55.264Z</time>
      </trkpt>
      <trkpt lat="45.46434" lon="4.68742">
        <ele>643</ele>
        <time>2018-08-15T07:48:56.246Z</time>
      </trkpt>
      <trkpt lat="45.46434" lon="4.68742">
        <ele>643</ele>
        <time>2018-08-15T07:48:57.268Z</time>
      </trkpt>
      <trkpt lat="45.46436" lon="4.68736">
        <ele>644</ele>
        <time>2018-08-15T07:48:58.256Z</time>
      </trkpt>
      <trkpt lat="45.46436" lon="4.68736">
        <ele>644</ele>
        <time>2018-08-15T07:48:59.262Z</time>
      </trkpt>
      <trkpt lat="45.46437" lon="4.68731">
        <ele>644</ele>
        <time>2018-08-15T07:49:00.260Z</time>
      </trkpt>
      <trkpt lat="45.46437" lon="4.68731">
        <ele>644</ele>
        <time>2018-08-15T07:49:01.265Z</time>
      </trkpt>
      <trkpt lat="45.46438" lon="4.68725">
        <ele>645</ele>
        <time>2018-08-15T07:49:02.247Z</time>
      </trkpt>
      <trkpt lat="45.46438" lon="4.68725">
        <ele>645</ele>
        <time>2018-08-15T07:49:03.252Z</time>
      </trkpt>
      <trkpt lat="45.46439" lon="4.68719">
        <ele>646</ele>
        <time>2018-08-15T07:49:04.253Z</time>
      </trkpt>
      <trkpt lat="45.46439" lon="4.68719">
        <ele>646</ele>
        <time>2018-08-15T07:49:05.259Z</time>
      </trkpt>
      <trkpt lat="45.46439" lon="4.68713">
        <ele>646</ele>
        <time>2018-08-15T07:49:06.247Z</time>
      </trkpt>
      <trkpt lat="45.46439" lon="4.68713">
        <ele>646</ele>
        <time>2018-08-15T07:49:07.253Z</time>
      </trkpt>
      <trkpt lat="45.46439" lon="4.68706">
        <ele>647</ele>
        <time>2018-08-15T07:49:08.243Z</time>
      </trkpt>
      <trkpt lat="45.46439" lon="4.68706">
        <ele>647</ele>
        <time>2018-08-15T07:49:09.249Z</time>
      </trkpt>
      <trkpt lat="45.4644" lon="4.687">
        <ele>647</ele>
        <time>2018-08-15T07:49:10.260Z</time>
      </trkpt>
      <trkpt lat="45.4644" lon="4.687">
        <ele>647</ele>
        <time>2018-08-15T07:49:11.259Z</time>
      </trkpt>
      <trkpt lat="45.46441" lon="4.68695">
        <ele>648</ele>
        <time>2018-08-15T07:49:12.233Z</time>
      </trkpt>
      <trkpt lat="45.46441" lon="4.68695">
        <ele>648</ele>
        <time>2018-08-15T07:49:13.238Z</time>
      </trkpt>
      <trkpt lat="45.46441" lon="4.6869">
        <ele>649</ele>
        <time>2018-08-15T07:49:14.233Z</time>
      </trkpt>
      <trkpt lat="45.46441" lon="4.6869">
        <ele>649</ele>
        <time>2018-08-15T07:49:15.238Z</time>
      </trkpt>
      <trkpt lat="45.46441" lon="4.68684">
        <ele>649</ele>
        <time>2018-08-15T07:49:16.266Z</time>
      </trkpt>
      <trkpt lat="45.46441" lon="4.68684">
        <ele>649</ele>
        <time>2018-08-15T07:49:17.271Z</time>
      </trkpt>
      <trkpt lat="45.46443" lon="4.68678">
        <ele>650</ele>
        <time>2018-08-15T07:49:18.261Z</time>
      </trkpt>
      <trkpt lat="45.46443" lon="4.68678">
        <ele>650</ele>
        <time>2018-08-15T07:49:19.239Z</time>
      </trkpt>
      <trkpt lat="45.46443" lon="4.68672">
        <ele>651</ele>
        <time>2018-08-15T07:49:20.265Z</time>
      </trkpt>
      <trkpt lat="45.46443" lon="4.68672">
        <ele>651</ele>
        <time>2018-08-15T07:49:21.270Z</time>
      </trkpt>
      <trkpt lat="45.46443" lon="4.68666">
        <ele>651</ele>
        <time>2018-08-15T07:49:22.246Z</time>
      </trkpt>
      <trkpt lat="45.46443" lon="4.68666">
        <ele>651</ele>
        <time>2018-08-15T07:49:23.251Z</time>
      </trkpt>
      <trkpt lat="45.46444" lon="4.68661">
        <ele>652</ele>
        <time>2018-08-15T07:49:24.253Z</time>
      </trkpt>
      <trkpt lat="45.46444" lon="4.68661">
        <ele>652</ele>
        <time>2018-08-15T07:49:25.258Z</time>
      </trkpt>
      <trkpt lat="45.46443" lon="4.68655">
        <ele>652</ele>
        <time>2018-08-15T07:49:26.239Z</time>
      </trkpt>
      <trkpt lat="45.46443" lon="4.68655">
        <ele>652</ele>
        <time>2018-08-15T07:49:27.244Z</time>
      </trkpt>
      <trkpt lat="45.46444" lon="4.68649">
        <ele>653</ele>
        <time>2018-08-15T07:49:28.248Z</time>
      </trkpt>
      <trkpt lat="45.46444" lon="4.68649">
        <ele>653</ele>
        <time>2018-08-15T07:49:29.253Z</time>
      </trkpt>
      <trkpt lat="45.46444" lon="4.68643">
        <ele>654</ele>
        <time>2018-08-15T07:49:30.253Z</time>
      </trkpt>
      <trkpt lat="45.46444" lon="4.68643">
        <ele>654</ele>
        <time>2018-08-15T07:49:31.262Z</time>
      </trkpt>
      <trkpt lat="45.46445" lon="4.68636">
        <ele>654</ele>
        <time>2018-08-15T07:49:32.256Z</time>
      </trkpt>
      <trkpt lat="45.46445" lon="4.68636">
        <ele>654</ele>
        <time>2018-08-15T07:49:33.262Z</time>
      </trkpt>
      <trkpt lat="45.46445" lon="4.6863">
        <ele>655</ele>
        <time>2018-08-15T07:49:34.251Z</time>
      </trkpt>
      <trkpt lat="45.46445" lon="4.6863">
        <ele>655</ele>
        <time>2018-08-15T07:49:35.264Z</time>
      </trkpt>
      <trkpt lat="45.46446" lon="4.68625">
        <ele>656</ele>
        <time>2018-08-15T07:49:36.234Z</time>
      </trkpt>
      <trkpt lat="45.46447" lon="4.68622">
        <ele>656</ele>
        <time>2018-08-15T07:49:37.241Z</time>
      </trkpt>
      <trkpt lat="45.46448" lon="4.68618">
        <ele>656</ele>
        <time>2018-08-15T07:49:38.235Z</time>
      </trkpt>
      <trkpt lat="45.46448" lon="4.68618">
        <ele>656</ele>
        <time>2018-08-15T07:49:39.240Z</time>
      </trkpt>
      <trkpt lat="45.46449" lon="4.68612">
        <ele>656</ele>
        <time>2018-08-15T07:49:40.232Z</time>
      </trkpt>
      <trkpt lat="45.46449" lon="4.68612">
        <ele>656</ele>
        <time>2018-08-15T07:49:41.238Z</time>
      </trkpt>
      <trkpt lat="45.4645" lon="4.68606">
        <ele>657</ele>
        <time>2018-08-15T07:49:42.271Z</time>
      </trkpt>
      <trkpt lat="45.4645" lon="4.68602">
        <ele>657</ele>
        <time>2018-08-15T07:49:43.261Z</time>
      </trkpt>
      <trkpt lat="45.4645" lon="4.68599">
        <ele>657</ele>
        <time>2018-08-15T07:49:44.258Z</time>
      </trkpt>
      <trkpt lat="45.4645" lon="4.68599">
        <ele>657</ele>
        <time>2018-08-15T07:49:45.265Z</time>
      </trkpt>
      <trkpt lat="45.4645" lon="4.68593">
        <ele>658</ele>
        <time>2018-08-15T07:49:46.232Z</time>
      </trkpt>
      <trkpt lat="45.4645" lon="4.68593">
        <ele>658</ele>
        <time>2018-08-15T07:49:47.237Z</time>
      </trkpt>
      <trkpt lat="45.46453" lon="4.68587">
        <ele>658</ele>
        <time>2018-08-15T07:49:48.257Z</time>
      </trkpt>
      <trkpt lat="45.46453" lon="4.68587">
        <ele>658</ele>
        <time>2018-08-15T07:49:49.263Z</time>
      </trkpt>
      <trkpt lat="45.46454" lon="4.6858">
        <ele>659</ele>
        <time>2018-08-15T07:49:50.253Z</time>
      </trkpt>
      <trkpt lat="45.46454" lon="4.6858">
        <ele>659</ele>
        <time>2018-08-15T07:49:51.260Z</time>
      </trkpt>
      <trkpt lat="45.46454" lon="4.68573">
        <ele>659</ele>
        <time>2018-08-15T07:49:52.252Z</time>
      </trkpt>
      <trkpt lat="45.46454" lon="4.68573">
        <ele>659</ele>
        <time>2018-08-15T07:49:53.258Z</time>
      </trkpt>
      <trkpt lat="45.46454" lon="4.68568">
        <ele>660</ele>
        <time>2018-08-15T07:49:54.253Z</time>
      </trkpt>
      <trkpt lat="45.46454" lon="4.68568">
        <ele>660</ele>
        <time>2018-08-15T07:49:55.262Z</time>
      </trkpt>
      <trkpt lat="45.46453" lon="4.68561">
        <ele>660</ele>
        <time>2018-08-15T07:49:56.256Z</time>
      </trkpt>
      <trkpt lat="45.46453" lon="4.68561">
        <ele>660</ele>
        <time>2018-08-15T07:49:57.261Z</time>
      </trkpt>
      <trkpt lat="45.46453" lon="4.68555">
        <ele>661</ele>
        <time>2018-08-15T07:49:58.248Z</time>
      </trkpt>
      <trkpt lat="45.46453" lon="4.68555">
        <ele>661</ele>
        <time>2018-08-15T07:49:59.256Z</time>
      </trkpt>
      <trkpt lat="45.46453" lon="4.6855">
        <ele>662</ele>
        <time>2018-08-15T07:50:00.254Z</time>
      </trkpt>
      <trkpt lat="45.46453" lon="4.6855">
        <ele>662</ele>
        <time>2018-08-15T07:50:01.259Z</time>
      </trkpt>
      <trkpt lat="45.46453" lon="4.68544">
        <ele>662</ele>
        <time>2018-08-15T07:50:02.257Z</time>
      </trkpt>
      <trkpt lat="45.46453" lon="4.68544">
        <ele>662</ele>
        <time>2018-08-15T07:50:03.263Z</time>
      </trkpt>
      <trkpt lat="45.46453" lon="4.68538">
        <ele>663</ele>
        <time>2018-08-15T07:50:04.267Z</time>
      </trkpt>
      <trkpt lat="45.46453" lon="4.68538">
        <ele>663</ele>
        <time>2018-08-15T07:50:05.232Z</time>
      </trkpt>
      <trkpt lat="45.46453" lon="4.68531">
        <ele>664</ele>
        <time>2018-08-15T07:50:06.245Z</time>
      </trkpt>
      <trkpt lat="45.46453" lon="4.68531">
        <ele>664</ele>
        <time>2018-08-15T07:50:07.265Z</time>
      </trkpt>
      <trkpt lat="45.46453" lon="4.68525">
        <ele>664</ele>
        <time>2018-08-15T07:50:08.262Z</time>
      </trkpt>
      <trkpt lat="45.46453" lon="4.68525">
        <ele>664</ele>
        <time>2018-08-15T07:50:09.267Z</time>
      </trkpt>
      <trkpt lat="45.46453" lon="4.68519">
        <ele>665</ele>
        <time>2018-08-15T07:50:10.263Z</time>
      </trkpt>
      <trkpt lat="45.46453" lon="4.68519">
        <ele>665</ele>
        <time>2018-08-15T07:50:11.268Z</time>
      </trkpt>
      <trkpt lat="45.46453" lon="4.68513">
        <ele>666</ele>
        <time>2018-08-15T07:50:12.254Z</time>
      </trkpt>
      <trkpt lat="45.46453" lon="4.68513">
        <ele>666</ele>
        <time>2018-08-15T07:50:13.259Z</time>
      </trkpt>
      <trkpt lat="45.46454" lon="4.68507">
        <ele>666</ele>
        <time>2018-08-15T07:50:14.260Z</time>
      </trkpt>
      <trkpt lat="45.46454" lon="4.68507">
        <ele>666</ele>
        <time>2018-08-15T07:50:15.266Z</time>
      </trkpt>
      <trkpt lat="45.46454" lon="4.68501">
        <ele>667</ele>
        <time>2018-08-15T07:50:16.263Z</time>
      </trkpt>
      <trkpt lat="45.46454" lon="4.68501">
        <ele>667</ele>
        <time>2018-08-15T07:50:17.269Z</time>
      </trkpt>
      <trkpt lat="45.46455" lon="4.68495">
        <ele>668</ele>
        <time>2018-08-15T07:50:18.251Z</time>
      </trkpt>
      <trkpt lat="45.46455" lon="4.68495">
        <ele>668</ele>
        <time>2018-08-15T07:50:19.261Z</time>
      </trkpt>
      <trkpt lat="45.46458" lon="4.68488">
        <ele>669</ele>
        <time>2018-08-15T07:50:20.252Z</time>
      </trkpt>
      <trkpt lat="45.46458" lon="4.68488">
        <ele>669</ele>
        <time>2018-08-15T07:50:21.258Z</time>
      </trkpt>
      <trkpt lat="45.46459" lon="4.68483">
        <ele>669</ele>
        <time>2018-08-15T07:50:22.263Z</time>
      </trkpt>
      <trkpt lat="45.46459" lon="4.68483">
        <ele>669</ele>
        <time>2018-08-15T07:50:23.244Z</time>
      </trkpt>
      <trkpt lat="45.4646" lon="4.68478">
        <ele>670</ele>
        <time>2018-08-15T07:50:24.238Z</time>
      </trkpt>
      <trkpt lat="45.4646" lon="4.68478">
        <ele>670</ele>
        <time>2018-08-15T07:50:25.243Z</time>
      </trkpt>
      <trkpt lat="45.46461" lon="4.68472">
        <ele>670</ele>
        <time>2018-08-15T07:50:26.234Z</time>
      </trkpt>
      <trkpt lat="45.46461" lon="4.68472">
        <ele>670</ele>
        <time>2018-08-15T07:50:27.240Z</time>
      </trkpt>
      <trkpt lat="45.4646" lon="4.68466">
        <ele>671</ele>
        <time>2018-08-15T07:50:28.233Z</time>
      </trkpt>
      <trkpt lat="45.4646" lon="4.68466">
        <ele>671</ele>
        <time>2018-08-15T07:50:29.239Z</time>
      </trkpt>
      <trkpt lat="45.4646" lon="4.68459">
        <ele>672</ele>
        <time>2018-08-15T07:50:30.266Z</time>
      </trkpt>
      <trkpt lat="45.4646" lon="4.68459">
        <ele>672</ele>
        <time>2018-08-15T07:50:31.232Z</time>
      </trkpt>
      <trkpt lat="45.46461" lon="4.68454">
        <ele>672</ele>
        <time>2018-08-15T07:50:32.259Z</time>
      </trkpt>
      <trkpt lat="45.46461" lon="4.68454">
        <ele>672</ele>
        <time>2018-08-15T07:50:33.265Z</time>
      </trkpt>
      <trkpt lat="45.46462" lon="4.68448">
        <ele>673</ele>
        <time>2018-08-15T07:50:34.243Z</time>
      </trkpt>
      <trkpt lat="45.46462" lon="4.68448">
        <ele>673</ele>
        <time>2018-08-15T07:50:35.261Z</time>
      </trkpt>
      <trkpt lat="45.46461" lon="4.68443">
        <ele>674</ele>
        <time>2018-08-15T07:50:36.247Z</time>
      </trkpt>
      <trkpt lat="45.46462" lon="4.68439">
        <ele>675</ele>
        <time>2018-08-15T07:50:37.235Z</time>
      </trkpt>
      <trkpt lat="45.46463" lon="4.68436">
        <ele>675</ele>
        <time>2018-08-15T07:50:38.237Z</time>
      </trkpt>
      <trkpt lat="45.46463" lon="4.68436">
        <ele>675</ele>
        <time>2018-08-15T07:50:39.242Z</time>
      </trkpt>
      <trkpt lat="45.46464" lon="4.68431">
        <ele>676</ele>
        <time>2018-08-15T07:50:40.264Z</time>
      </trkpt>
      <trkpt lat="45.46464" lon="4.68431">
        <ele>676</ele>
        <time>2018-08-15T07:50:41.270Z</time>
      </trkpt>
      <trkpt lat="45.46464" lon="4.68425">
        <ele>677</ele>
        <time>2018-08-15T07:50:42.265Z</time>
      </trkpt>
      <trkpt lat="45.46464" lon="4.68425">
        <ele>677</ele>
        <time>2018-08-15T07:50:43.272Z</time>
      </trkpt>
      <trkpt lat="45.46466" lon="4.68419">
        <ele>677</ele>
        <time>2018-08-15T07:50:44.263Z</time>
      </trkpt>
      <trkpt lat="45.46466" lon="4.68419">
        <ele>677</ele>
        <time>2018-08-15T07:50:45.268Z</time>
      </trkpt>
      <trkpt lat="45.46466" lon="4.68413">
        <ele>678</ele>
        <time>2018-08-15T07:50:46.263Z</time>
      </trkpt>
      <trkpt lat="45.46466" lon="4.68411">
        <ele>679</ele>
        <time>2018-08-15T07:50:47.263Z</time>
      </trkpt>
      <trkpt lat="45.46466" lon="4.68411">
        <ele>679</ele>
        <time>2018-08-15T07:50:48.268Z</time>
      </trkpt>
      <trkpt lat="45.46466" lon="4.68406">
        <ele>680</ele>
        <time>2018-08-15T07:50:49.266Z</time>
      </trkpt>
      <trkpt lat="45.46467" lon="4.68402">
        <ele>680</ele>
        <time>2018-08-15T07:50:50.235Z</time>
      </trkpt>
      <trkpt lat="45.46467" lon="4.68402">
        <ele>680</ele>
        <time>2018-08-15T07:50:51.240Z</time>
      </trkpt>
      <trkpt lat="45.46468" lon="4.68396">
        <ele>681</ele>
        <time>2018-08-15T07:50:52.243Z</time>
      </trkpt>
      <trkpt lat="45.46468" lon="4.68396">
        <ele>681</ele>
        <time>2018-08-15T07:50:53.248Z</time>
      </trkpt>
      <trkpt lat="45.46469" lon="4.68391">
        <ele>682</ele>
        <time>2018-08-15T07:50:54.244Z</time>
      </trkpt>
      <trkpt lat="45.46469" lon="4.68391">
        <ele>682</ele>
        <time>2018-08-15T07:50:55.250Z</time>
      </trkpt>
      <trkpt lat="45.4647" lon="4.68385">
        <ele>682</ele>
        <time>2018-08-15T07:50:56.237Z</time>
      </trkpt>
      <trkpt lat="45.4647" lon="4.68385">
        <ele>682</ele>
        <time>2018-08-15T07:50:57.242Z</time>
      </trkpt>
      <trkpt lat="45.46469" lon="4.6838">
        <ele>683</ele>
        <time>2018-08-15T07:50:58.243Z</time>
      </trkpt>
      <trkpt lat="45.46469" lon="4.6838">
        <ele>683</ele>
        <time>2018-08-15T07:50:59.248Z</time>
      </trkpt>
      <trkpt lat="45.4647" lon="4.68374">
        <ele>684</ele>
        <time>2018-08-15T07:51:00.245Z</time>
      </trkpt>
      <trkpt lat="45.4647" lon="4.68374">
        <ele>684</ele>
        <time>2018-08-15T07:51:01.250Z</time>
      </trkpt>
      <trkpt lat="45.46471" lon="4.68368">
        <ele>685</ele>
        <time>2018-08-15T07:51:02.262Z</time>
      </trkpt>
      <trkpt lat="45.46471" lon="4.68368">
        <ele>685</ele>
        <time>2018-08-15T07:51:03.242Z</time>
      </trkpt>
      <trkpt lat="45.4647" lon="4.68362">
        <ele>686</ele>
        <time>2018-08-15T07:51:04.234Z</time>
      </trkpt>
      <trkpt lat="45.4647" lon="4.68362">
        <ele>686</ele>
        <time>2018-08-15T07:51:05.257Z</time>
      </trkpt>
      <trkpt lat="45.46471" lon="4.68356">
        <ele>687</ele>
        <time>2018-08-15T07:51:06.249Z</time>
      </trkpt>
      <trkpt lat="45.46471" lon="4.68353">
        <ele>687</ele>
        <time>2018-08-15T07:51:07.266Z</time>
      </trkpt>
      <trkpt lat="45.46471" lon="4.68353">
        <ele>687</ele>
        <time>2018-08-15T07:51:08.271Z</time>
      </trkpt>
      <trkpt lat="45.4647" lon="4.68346">
        <ele>688</ele>
        <time>2018-08-15T07:51:09.243Z</time>
      </trkpt>
      <trkpt lat="45.4647" lon="4.68343">
        <ele>689</ele>
        <time>2018-08-15T07:51:10.238Z</time>
      </trkpt>
      <trkpt lat="45.4647" lon="4.68343">
        <ele>689</ele>
        <time>2018-08-15T07:51:11.243Z</time>
      </trkpt>
      <trkpt lat="45.46471" lon="4.68337">
        <ele>689</ele>
        <time>2018-08-15T07:51:12.241Z</time>
      </trkpt>
      <trkpt lat="45.46471" lon="4.68337">
        <ele>689</ele>
        <time>2018-08-15T07:51:13.247Z</time>
      </trkpt>
      <trkpt lat="45.46471" lon="4.68331">
        <ele>690</ele>
        <time>2018-08-15T07:51:14.255Z</time>
      </trkpt>
      <trkpt lat="45.46471" lon="4.68331">
        <ele>690</ele>
        <time>2018-08-15T07:51:15.261Z</time>
      </trkpt>
      <trkpt lat="45.46471" lon="4.68325">
        <ele>691</ele>
        <time>2018-08-15T07:51:16.267Z</time>
      </trkpt>
      <trkpt lat="45.46471" lon="4.68325">
        <ele>691</ele>
        <time>2018-08-15T07:51:17.232Z</time>
      </trkpt>
      <trkpt lat="45.46472" lon="4.68319">
        <ele>692</ele>
        <time>2018-08-15T07:51:18.261Z</time>
      </trkpt>
      <trkpt lat="45.46472" lon="4.68319">
        <ele>692</ele>
        <time>2018-08-15T07:51:19.266Z</time>
      </trkpt>
      <trkpt lat="45.46473" lon="4.68313">
        <ele>693</ele>
        <time>2018-08-15T07:51:20.263Z</time>
      </trkpt>
      <trkpt lat="45.46473" lon="4.68313">
        <ele>693</ele>
        <time>2018-08-15T07:51:21.268Z</time>
      </trkpt>
      <trkpt lat="45.46474" lon="4.68306">
        <ele>693</ele>
        <time>2018-08-15T07:51:22.250Z</time>
      </trkpt>
      <trkpt lat="45.46474" lon="4.68306">
        <ele>693</ele>
        <time>2018-08-15T07:51:23.257Z</time>
      </trkpt>
      <trkpt lat="45.46475" lon="4.683">
        <ele>694</ele>
        <time>2018-08-15T07:51:24.252Z</time>
      </trkpt>
      <trkpt lat="45.46475" lon="4.683">
        <ele>694</ele>
        <time>2018-08-15T07:51:25.261Z</time>
      </trkpt>
      <trkpt lat="45.46476" lon="4.68294">
        <ele>695</ele>
        <time>2018-08-15T07:51:26.247Z</time>
      </trkpt>
      <trkpt lat="45.46476" lon="4.68294">
        <ele>695</ele>
        <time>2018-08-15T07:51:27.253Z</time>
      </trkpt>
      <trkpt lat="45.46477" lon="4.68286">
        <ele>695</ele>
        <time>2018-08-15T07:51:28.233Z</time>
      </trkpt>
      <trkpt lat="45.46477" lon="4.68286">
        <ele>695</ele>
        <time>2018-08-15T07:51:29.238Z</time>
      </trkpt>
      <trkpt lat="45.46477" lon="4.6828">
        <ele>696</ele>
        <time>2018-08-15T07:51:30.261Z</time>
      </trkpt>
      <trkpt lat="45.46477" lon="4.6828">
        <ele>696</ele>
        <time>2018-08-15T07:51:31.266Z</time>
      </trkpt>
      <trkpt lat="45.46478" lon="4.68274">
        <ele>697</ele>
        <time>2018-08-15T07:51:32.238Z</time>
      </trkpt>
      <trkpt lat="45.46478" lon="4.68274">
        <ele>697</ele>
        <time>2018-08-15T07:51:33.244Z</time>
      </trkpt>
      <trkpt lat="45.46477" lon="4.68268">
        <ele>698</ele>
        <time>2018-08-15T07:51:34.238Z</time>
      </trkpt>
      <trkpt lat="45.46477" lon="4.68268">
        <ele>698</ele>
        <time>2018-08-15T07:51:35.244Z</time>
      </trkpt>
      <trkpt lat="45.46478" lon="4.68262">
        <ele>698</ele>
        <time>2018-08-15T07:51:36.249Z</time>
      </trkpt>
      <trkpt lat="45.46478" lon="4.68259">
        <ele>699</ele>
        <time>2018-08-15T07:51:37.236Z</time>
      </trkpt>
      <trkpt lat="45.46479" lon="4.68256">
        <ele>699</ele>
        <time>2018-08-15T07:51:38.243Z</time>
      </trkpt>
      <trkpt lat="45.46479" lon="4.68256">
        <ele>699</ele>
        <time>2018-08-15T07:51:39.250Z</time>
      </trkpt>
      <trkpt lat="45.46479" lon="4.6825">
        <ele>699</ele>
        <time>2018-08-15T07:51:40.242Z</time>
      </trkpt>
      <trkpt lat="45.46479" lon="4.6825">
        <ele>699</ele>
        <time>2018-08-15T07:51:41.248Z</time>
      </trkpt>
      <trkpt lat="45.46479" lon="4.68242">
        <ele>700</ele>
        <time>2018-08-15T07:51:42.233Z</time>
      </trkpt>
      <trkpt lat="45.46479" lon="4.68242">
        <ele>700</ele>
        <time>2018-08-15T07:51:43.239Z</time>
      </trkpt>
      <trkpt lat="45.46479" lon="4.68235">
        <ele>700</ele>
        <time>2018-08-15T07:51:44.240Z</time>
      </trkpt>
      <trkpt lat="45.46479" lon="4.68235">
        <ele>700</ele>
        <time>2018-08-15T07:51:45.261Z</time>
      </trkpt>
      <trkpt lat="45.46479" lon="4.68229">
        <ele>700</ele>
        <time>2018-08-15T07:51:46.253Z</time>
      </trkpt>
      <trkpt lat="45.46479" lon="4.68229">
        <ele>700</ele>
        <time>2018-08-15T07:51:47.261Z</time>
      </trkpt>
      <trkpt lat="45.4648" lon="4.68223">
        <ele>701</ele>
        <time>2018-08-15T07:51:48.258Z</time>
      </trkpt>
      <trkpt lat="45.4648" lon="4.68223">
        <ele>701</ele>
        <time>2018-08-15T07:51:49.263Z</time>
      </trkpt>
      <trkpt lat="45.4648" lon="4.68217">
        <ele>701</ele>
        <time>2018-08-15T07:51:50.260Z</time>
      </trkpt>
      <trkpt lat="45.4648" lon="4.68217">
        <ele>701</ele>
        <time>2018-08-15T07:51:51.265Z</time>
      </trkpt>
      <trkpt lat="45.46482" lon="4.68211">
        <ele>701</ele>
        <time>2018-08-15T07:51:52.253Z</time>
      </trkpt>
      <trkpt lat="45.46482" lon="4.68211">
        <ele>701</ele>
        <time>2018-08-15T07:51:53.258Z</time>
      </trkpt>
      <trkpt lat="45.46481" lon="4.68204">
        <ele>701</ele>
        <time>2018-08-15T07:51:54.258Z</time>
      </trkpt>
      <trkpt lat="45.46481" lon="4.68204">
        <ele>701</ele>
        <time>2018-08-15T07:51:55.263Z</time>
      </trkpt>
      <trkpt lat="45.46481" lon="4.68198">
        <ele>701</ele>
        <time>2018-08-15T07:51:56.243Z</time>
      </trkpt>
      <trkpt lat="45.46481" lon="4.68198">
        <ele>701</ele>
        <time>2018-08-15T07:51:57.248Z</time>
      </trkpt>
      <trkpt lat="45.46481" lon="4.68193">
        <ele>701</ele>
        <time>2018-08-15T07:51:58.243Z</time>
      </trkpt>
      <trkpt lat="45.46481" lon="4.68193">
        <ele>701</ele>
        <time>2018-08-15T07:51:59.248Z</time>
      </trkpt>
      <trkpt lat="45.46481" lon="4.68187">
        <ele>702</ele>
        <time>2018-08-15T07:52:00.238Z</time>
      </trkpt>
      <trkpt lat="45.46481" lon="4.68187">
        <ele>702</ele>
        <time>2018-08-15T07:52:01.243Z</time>
      </trkpt>
      <trkpt lat="45.4648" lon="4.68181">
        <ele>702</ele>
        <time>2018-08-15T07:52:02.241Z</time>
      </trkpt>
      <trkpt lat="45.4648" lon="4.68181">
        <ele>702</ele>
        <time>2018-08-15T07:52:03.247Z</time>
      </trkpt>
      <trkpt lat="45.4648" lon="4.68175">
        <ele>702</ele>
        <time>2018-08-15T07:52:04.270Z</time>
      </trkpt>
      <trkpt lat="45.4648" lon="4.68172">
        <ele>702</ele>
        <time>2018-08-15T07:52:05.263Z</time>
      </trkpt>
      <trkpt lat="45.4648" lon="4.68172">
        <ele>702</ele>
        <time>2018-08-15T07:52:06.269Z</time>
      </trkpt>
      <trkpt lat="45.46479" lon="4.68166">
        <ele>703</ele>
        <time>2018-08-15T07:52:07.238Z</time>
      </trkpt>
      <trkpt lat="45.46479" lon="4.68163">
        <ele>703</ele>
        <time>2018-08-15T07:52:08.267Z</time>
      </trkpt>
      <trkpt lat="45.46479" lon="4.68163">
        <ele>703</ele>
        <time>2018-08-15T07:52:09.232Z</time>
      </trkpt>
      <trkpt lat="45.46479" lon="4.68156">
        <ele>703</ele>
        <time>2018-08-15T07:52:10.264Z</time>
      </trkpt>
      <trkpt lat="45.46479" lon="4.68156">
        <ele>703</ele>
        <time>2018-08-15T07:52:11.270Z</time>
      </trkpt>
      <trkpt lat="45.46478" lon="4.6815">
        <ele>704</ele>
        <time>2018-08-15T07:52:12.264Z</time>
      </trkpt>
      <trkpt lat="45.46478" lon="4.6815">
        <ele>704</ele>
        <time>2018-08-15T07:52:13.269Z</time>
      </trkpt>
      <trkpt lat="45.46477" lon="4.68144">
        <ele>704</ele>
        <time>2018-08-15T07:52:14.265Z</time>
      </trkpt>
      <trkpt lat="45.46477" lon="4.68144">
        <ele>704</ele>
        <time>2018-08-15T07:52:15.270Z</time>
      </trkpt>
      <trkpt lat="45.46477" lon="4.68138">
        <ele>704</ele>
        <time>2018-08-15T07:52:16.261Z</time>
      </trkpt>
      <trkpt lat="45.46477" lon="4.68138">
        <ele>704</ele>
        <time>2018-08-15T07:52:17.267Z</time>
      </trkpt>
      <trkpt lat="45.46477" lon="4.68132">
        <ele>705</ele>
        <time>2018-08-15T07:52:18.263Z</time>
      </trkpt>
      <trkpt lat="45.46477" lon="4.68132">
        <ele>705</ele>
        <time>2018-08-15T07:52:19.237Z</time>
      </trkpt>
      <trkpt lat="45.46476" lon="4.68126">
        <ele>705</ele>
        <time>2018-08-15T07:52:20.233Z</time>
      </trkpt>
      <trkpt lat="45.46476" lon="4.68126">
        <ele>705</ele>
        <time>2018-08-15T07:52:21.238Z</time>
      </trkpt>
      <trkpt lat="45.46475" lon="4.6812">
        <ele>706</ele>
        <time>2018-08-15T07:52:22.270Z</time>
      </trkpt>
      <trkpt lat="45.46475" lon="4.6812">
        <ele>706</ele>
        <time>2018-08-15T07:52:23.235Z</time>
      </trkpt>
      <trkpt lat="45.46475" lon="4.68114">
        <ele>706</ele>
        <time>2018-08-15T07:52:24.261Z</time>
      </trkpt>
      <trkpt lat="45.46475" lon="4.68114">
        <ele>706</ele>
        <time>2018-08-15T07:52:25.266Z</time>
      </trkpt>
      <trkpt lat="45.46473" lon="4.68109">
        <ele>707</ele>
        <time>2018-08-15T07:52:26.250Z</time>
      </trkpt>
      <trkpt lat="45.46473" lon="4.68109">
        <ele>707</ele>
        <time>2018-08-15T07:52:27.261Z</time>
      </trkpt>
      <trkpt lat="45.46472" lon="4.68104">
        <ele>707</ele>
        <time>2018-08-15T07:52:28.249Z</time>
      </trkpt>
      <trkpt lat="45.46472" lon="4.68104">
        <ele>707</ele>
        <time>2018-08-15T07:52:29.254Z</time>
      </trkpt>
      <trkpt lat="45.46471" lon="4.68098">
        <ele>707</ele>
        <time>2018-08-15T07:52:30.247Z</time>
      </trkpt>
      <trkpt lat="45.46471" lon="4.68098">
        <ele>707</ele>
        <time>2018-08-15T07:52:31.253Z</time>
      </trkpt>
      <trkpt lat="45.46471" lon="4.68092">
        <ele>708</ele>
        <time>2018-08-15T07:52:32.270Z</time>
      </trkpt>
      <trkpt lat="45.46471" lon="4.68092">
        <ele>708</ele>
        <time>2018-08-15T07:52:33.236Z</time>
      </trkpt>
      <trkpt lat="45.46471" lon="4.68087">
        <ele>708</ele>
        <time>2018-08-15T07:52:34.261Z</time>
      </trkpt>
      <trkpt lat="45.46471" lon="4.68087">
        <ele>708</ele>
        <time>2018-08-15T07:52:35.268Z</time>
      </trkpt>
      <trkpt lat="45.4647" lon="4.68081">
        <ele>708</ele>
        <time>2018-08-15T07:52:36.247Z</time>
      </trkpt>
      <trkpt lat="45.4647" lon="4.68078">
        <ele>708</ele>
        <time>2018-08-15T07:52:37.267Z</time>
      </trkpt>
      <trkpt lat="45.46469" lon="4.68074">
        <ele>708</ele>
        <time>2018-08-15T07:52:38.263Z</time>
      </trkpt>
      <trkpt lat="45.46469" lon="4.68074">
        <ele>708</ele>
        <time>2018-08-15T07:52:39.269Z</time>
      </trkpt>
      <trkpt lat="45.46469" lon="4.68069">
        <ele>709</ele>
        <time>2018-08-15T07:52:40.264Z</time>
      </trkpt>
      <trkpt lat="45.46469" lon="4.68069">
        <ele>709</ele>
        <time>2018-08-15T07:52:41.270Z</time>
      </trkpt>
      <trkpt lat="45.46468" lon="4.68062">
        <ele>709</ele>
        <time>2018-08-15T07:52:42.263Z</time>
      </trkpt>
      <trkpt lat="45.46468" lon="4.68062">
        <ele>709</ele>
        <time>2018-08-15T07:52:43.269Z</time>
      </trkpt>
      <trkpt lat="45.46467" lon="4.68056">
        <ele>709</ele>
        <time>2018-08-15T07:52:44.268Z</time>
      </trkpt>
      <trkpt lat="45.46467" lon="4.68056">
        <ele>709</ele>
        <time>2018-08-15T07:52:45.234Z</time>
      </trkpt>
      <trkpt lat="45.46466" lon="4.6805">
        <ele>709</ele>
        <time>2018-08-15T07:52:46.266Z</time>
      </trkpt>
      <trkpt lat="45.46466" lon="4.6805">
        <ele>709</ele>
        <time>2018-08-15T07:52:47.232Z</time>
      </trkpt>
      <trkpt lat="45.46465" lon="4.68044">
        <ele>709</ele>
        <time>2018-08-15T07:52:48.263Z</time>
      </trkpt>
      <trkpt lat="45.46465" lon="4.68044">
        <ele>709</ele>
        <time>2018-08-15T07:52:49.269Z</time>
      </trkpt>
      <trkpt lat="45.46464" lon="4.68037">
        <ele>709</ele>
        <time>2018-08-15T07:52:50.242Z</time>
      </trkpt>
      <trkpt lat="45.46464" lon="4.68037">
        <ele>709</ele>
        <time>2018-08-15T07:52:51.248Z</time>
      </trkpt>
      <trkpt lat="45.46463" lon="4.68031">
        <ele>709</ele>
        <time>2018-08-15T07:52:52.263Z</time>
      </trkpt>
      <trkpt lat="45.46463" lon="4.68031">
        <ele>709</ele>
        <time>2018-08-15T07:52:53.269Z</time>
      </trkpt>
      <trkpt lat="45.46461" lon="4.68023">
        <ele>708</ele>
        <time>2018-08-15T07:52:54.271Z</time>
      </trkpt>
      <trkpt lat="45.46461" lon="4.68023">
        <ele>708</ele>
        <time>2018-08-15T07:52:55.236Z</time>
      </trkpt>
      <trkpt lat="45.46459" lon="4.68016">
        <ele>708</ele>
        <time>2018-08-15T07:52:56.232Z</time>
      </trkpt>
      <trkpt lat="45.46459" lon="4.68016">
        <ele>708</ele>
        <time>2018-08-15T07:52:57.237Z</time>
      </trkpt>
      <trkpt lat="45.46457" lon="4.68009">
        <ele>708</ele>
        <time>2018-08-15T07:52:58.239Z</time>
      </trkpt>
      <trkpt lat="45.46457" lon="4.68009">
        <ele>708</ele>
        <time>2018-08-15T07:52:59.245Z</time>
      </trkpt>
      <trkpt lat="45.46456" lon="4.68004">
        <ele>708</ele>
        <time>2018-08-15T07:53:00.266Z</time>
      </trkpt>
      <trkpt lat="45.46455" lon="4.68001">
        <ele>708</ele>
        <time>2018-08-15T07:53:01.248Z</time>
      </trkpt>
      <trkpt lat="45.46455" lon="4.67998">
        <ele>708</ele>
        <time>2018-08-15T07:53:02.235Z</time>
      </trkpt>
      <trkpt lat="45.46455" lon="4.67998">
        <ele>708</ele>
        <time>2018-08-15T07:53:03.241Z</time>
      </trkpt>
      <trkpt lat="45.46454" lon="4.67991">
        <ele>708</ele>
        <time>2018-08-15T07:53:04.242Z</time>
      </trkpt>
      <trkpt lat="45.46454" lon="4.67991">
        <ele>708</ele>
        <time>2018-08-15T07:53:05.239Z</time>
      </trkpt>
      <trkpt lat="45.46454" lon="4.67985">
        <ele>708</ele>
        <time>2018-08-15T07:53:06.233Z</time>
      </trkpt>
      <trkpt lat="45.46454" lon="4.67985">
        <ele>708</ele>
        <time>2018-08-15T07:53:07.238Z</time>
      </trkpt>
      <trkpt lat="45.46453" lon="4.67979">
        <ele>708</ele>
        <time>2018-08-15T07:53:08.254Z</time>
      </trkpt>
      <trkpt lat="45.46453" lon="4.67979">
        <ele>708</ele>
        <time>2018-08-15T07:53:09.264Z</time>
      </trkpt>
      <trkpt lat="45.46453" lon="4.67973">
        <ele>708</ele>
        <time>2018-08-15T07:53:10.246Z</time>
      </trkpt>
      <trkpt lat="45.46452" lon="4.6797">
        <ele>708</ele>
        <time>2018-08-15T07:53:11.232Z</time>
      </trkpt>
      <trkpt lat="45.46452" lon="4.6797">
        <ele>708</ele>
        <time>2018-08-15T07:53:12.237Z</time>
      </trkpt>
      <trkpt lat="45.46451" lon="4.67965">
        <ele>708</ele>
        <time>2018-08-15T07:53:13.240Z</time>
      </trkpt>
      <trkpt lat="45.4645" lon="4.67962">
        <ele>708</ele>
        <time>2018-08-15T07:53:14.233Z</time>
      </trkpt>
      <trkpt lat="45.4645" lon="4.67962">
        <ele>708</ele>
        <time>2018-08-15T07:53:15.238Z</time>
      </trkpt>
      <trkpt lat="45.46449" lon="4.67956">
        <ele>708</ele>
        <time>2018-08-15T07:53:16.269Z</time>
      </trkpt>
      <trkpt lat="45.46449" lon="4.67956">
        <ele>708</ele>
        <time>2018-08-15T07:53:17.235Z</time>
      </trkpt>
      <trkpt lat="45.46448" lon="4.6795">
        <ele>708</ele>
        <time>2018-08-15T07:53:18.259Z</time>
      </trkpt>
      <trkpt lat="45.46447" lon="4.67947">
        <ele>708</ele>
        <time>2018-08-15T07:53:19.263Z</time>
      </trkpt>
      <trkpt lat="45.46447" lon="4.67947">
        <ele>708</ele>
        <time>2018-08-15T07:53:20.236Z</time>
      </trkpt>
      <trkpt lat="45.46447" lon="4.6794">
        <ele>708</ele>
        <time>2018-08-15T07:53:21.264Z</time>
      </trkpt>
      <trkpt lat="45.46447" lon="4.6794">
        <ele>708</ele>
        <time>2018-08-15T07:53:22.269Z</time>
      </trkpt>
      <trkpt lat="45.46446" lon="4.67934">
        <ele>707</ele>
        <time>2018-08-15T07:53:23.265Z</time>
      </trkpt>
      <trkpt lat="45.46446" lon="4.67934">
        <ele>707</ele>
        <time>2018-08-15T07:53:24.270Z</time>
      </trkpt>
      <trkpt lat="45.46445" lon="4.67926">
        <ele>707</ele>
        <time>2018-08-15T07:53:25.270Z</time>
      </trkpt>
      <trkpt lat="45.46444" lon="4.67923">
        <ele>707</ele>
        <time>2018-08-15T07:53:26.267Z</time>
      </trkpt>
      <trkpt lat="45.46444" lon="4.67923">
        <ele>707</ele>
        <time>2018-08-15T07:53:27.232Z</time>
      </trkpt>
      <trkpt lat="45.46444" lon="4.67916">
        <ele>707</ele>
        <time>2018-08-15T07:53:28.270Z</time>
      </trkpt>
      <trkpt lat="45.46444" lon="4.67916">
        <ele>707</ele>
        <time>2018-08-15T07:53:29.235Z</time>
      </trkpt>
      <trkpt lat="45.46443" lon="4.67909">
        <ele>706</ele>
        <time>2018-08-15T07:53:30.233Z</time>
      </trkpt>
      <trkpt lat="45.46443" lon="4.67909">
        <ele>706</ele>
        <time>2018-08-15T07:53:31.238Z</time>
      </trkpt>
      <trkpt lat="45.46444" lon="4.67903">
        <ele>706</ele>
        <time>2018-08-15T07:53:32.238Z</time>
      </trkpt>
      <trkpt lat="45.46444" lon="4.67903">
        <ele>706</ele>
        <time>2018-08-15T07:53:33.243Z</time>
      </trkpt>
      <trkpt lat="45.46445" lon="4.67897">
        <ele>706</ele>
        <time>2018-08-15T07:53:34.245Z</time>
      </trkpt>
      <trkpt lat="45.46445" lon="4.67894">
        <ele>706</ele>
        <time>2018-08-15T07:53:35.233Z</time>
      </trkpt>
      <trkpt lat="45.46445" lon="4.67894">
        <ele>706</ele>
        <time>2018-08-15T07:53:36.245Z</time>
      </trkpt>
      <trkpt lat="45.46446" lon="4.67888">
        <ele>706</ele>
        <time>2018-08-15T07:53:37.234Z</time>
      </trkpt>
      <trkpt lat="45.46446" lon="4.67885">
        <ele>705</ele>
        <time>2018-08-15T07:53:38.240Z</time>
      </trkpt>
      <trkpt lat="45.46446" lon="4.67885">
        <ele>705</ele>
        <time>2018-08-15T07:53:39.245Z</time>
      </trkpt>
      <trkpt lat="45.46449" lon="4.67879">
        <ele>704</ele>
        <time>2018-08-15T07:53:40.248Z</time>
      </trkpt>
      <trkpt lat="45.46449" lon="4.67879">
        <ele>704</ele>
        <time>2018-08-15T07:53:41.254Z</time>
      </trkpt>
      <trkpt lat="45.46451" lon="4.67874">
        <ele>701</ele>
        <time>2018-08-15T07:53:42.253Z</time>
      </trkpt>
      <trkpt lat="45.46451" lon="4.67874">
        <ele>701</ele>
        <time>2018-08-15T07:53:43.261Z</time>
      </trkpt>
      <trkpt lat="45.46452" lon="4.67868">
        <ele>699</ele>
        <time>2018-08-15T07:53:44.269Z</time>
      </trkpt>
      <trkpt lat="45.46454" lon="4.67865">
        <ele>698</ele>
        <time>2018-08-15T07:53:45.264Z</time>
      </trkpt>
      <trkpt lat="45.46454" lon="4.67865">
        <ele>698</ele>
        <time>2018-08-15T07:53:46.270Z</time>
      </trkpt>
      <trkpt lat="45.46455" lon="4.67859">
        <ele>698</ele>
        <time>2018-08-15T07:53:47.254Z</time>
      </trkpt>
      <trkpt lat="45.46455" lon="4.67855">
        <ele>697</ele>
        <time>2018-08-15T07:53:48.240Z</time>
      </trkpt>
      <trkpt lat="45.46455" lon="4.67855">
        <ele>697</ele>
        <time>2018-08-15T07:53:49.246Z</time>
      </trkpt>
      <trkpt lat="45.46456" lon="4.67848">
        <ele>697</ele>
        <time>2018-08-15T07:53:50.260Z</time>
      </trkpt>
      <trkpt lat="45.46456" lon="4.67848">
        <ele>697</ele>
        <time>2018-08-15T07:53:51.269Z</time>
      </trkpt>
      <trkpt lat="45.46456" lon="4.67841">
        <ele>696</ele>
        <time>2018-08-15T07:53:52.233Z</time>
      </trkpt>
      <trkpt lat="45.46456" lon="4.67841">
        <ele>696</ele>
        <time>2018-08-15T07:53:53.239Z</time>
      </trkpt>
      <trkpt lat="45.46456" lon="4.67834">
        <ele>695</ele>
        <time>2018-08-15T07:53:54.237Z</time>
      </trkpt>
      <trkpt lat="45.46456" lon="4.67834">
        <ele>695</ele>
        <time>2018-08-15T07:53:55.246Z</time>
      </trkpt>
      <trkpt lat="45.46455" lon="4.67825">
        <ele>694</ele>
        <time>2018-08-15T07:53:56.234Z</time>
      </trkpt>
      <trkpt lat="45.46455" lon="4.67825">
        <ele>694</ele>
        <time>2018-08-15T07:53:57.240Z</time>
      </trkpt>
      <trkpt lat="45.46454" lon="4.67819">
        <ele>694</ele>
        <time>2018-08-15T07:53:58.236Z</time>
      </trkpt>
      <trkpt lat="45.46454" lon="4.67816">
        <ele>694</ele>
        <time>2018-08-15T07:53:59.265Z</time>
      </trkpt>
      <trkpt lat="45.46454" lon="4.67816">
        <ele>694</ele>
        <time>2018-08-15T07:54:00.232Z</time>
      </trkpt>
      <trkpt lat="45.46454" lon="4.6781">
        <ele>693</ele>
        <time>2018-08-15T07:54:01.253Z</time>
      </trkpt>
      <trkpt lat="45.46453" lon="4.67808">
        <ele>692</ele>
        <time>2018-08-15T07:54:02.253Z</time>
      </trkpt>
      <trkpt lat="45.46453" lon="4.67808">
        <ele>692</ele>
        <time>2018-08-15T07:54:03.260Z</time>
      </trkpt>
      <trkpt lat="45.46453" lon="4.67803">
        <ele>692</ele>
        <time>2018-08-15T07:54:04.257Z</time>
      </trkpt>
      <trkpt lat="45.46453" lon="4.67803">
        <ele>692</ele>
        <time>2018-08-15T07:54:05.264Z</time>
      </trkpt>
      <trkpt lat="45.46454" lon="4.67799">
        <ele>689</ele>
        <time>2018-08-15T07:54:06.269Z</time>
      </trkpt>
      <trkpt lat="45.46454" lon="4.67797">
        <ele>688</ele>
        <time>2018-08-15T07:54:07.271Z</time>
      </trkpt>
      <trkpt lat="45.46454" lon="4.67795">
        <ele>688</ele>
        <time>2018-08-15T07:54:08.252Z</time>
      </trkpt>
      <trkpt lat="45.46454" lon="4.67795">
        <ele>688</ele>
        <time>2018-08-15T07:54:09.262Z</time>
      </trkpt>
      <trkpt lat="45.46453" lon="4.67788">
        <ele>687</ele>
        <time>2018-08-15T07:54:10.265Z</time>
      </trkpt>
      <trkpt lat="45.46453" lon="4.67788">
        <ele>687</ele>
        <time>2018-08-15T07:54:11.270Z</time>
      </trkpt>
      <trkpt lat="45.46453" lon="4.6778">
        <ele>685</ele>
        <time>2018-08-15T07:54:12.260Z</time>
      </trkpt>
      <trkpt lat="45.46453" lon="4.6778">
        <ele>685</ele>
        <time>2018-08-15T07:54:13.265Z</time>
      </trkpt>
      <trkpt lat="45.46452" lon="4.6777">
        <ele>684</ele>
        <time>2018-08-15T07:54:14.255Z</time>
      </trkpt>
      <trkpt lat="45.46452" lon="4.6777">
        <ele>684</ele>
        <time>2018-08-15T07:54:15.263Z</time>
      </trkpt>
      <trkpt lat="45.46452" lon="4.67758">
        <ele>681</ele>
        <time>2018-08-15T07:54:16.242Z</time>
      </trkpt>
      <trkpt lat="45.46452" lon="4.67758">
        <ele>681</ele>
        <time>2018-08-15T07:54:17.232Z</time>
      </trkpt>
      <trkpt lat="45.4645" lon="4.67745">
        <ele>678</ele>
        <time>2018-08-15T07:54:18.264Z</time>
      </trkpt>
      <trkpt lat="45.4645" lon="4.67745">
        <ele>678</ele>
        <time>2018-08-15T07:54:19.270Z</time>
      </trkpt>
      <trkpt lat="45.46449" lon="4.67731">
        <ele>677</ele>
        <time>2018-08-15T07:54:20.234Z</time>
      </trkpt>
      <trkpt lat="45.46448" lon="4.67723">
        <ele>676</ele>
        <time>2018-08-15T07:54:21.259Z</time>
      </trkpt>
      <trkpt lat="45.46448" lon="4.67723">
        <ele>676</ele>
        <time>2018-08-15T07:54:22.266Z</time>
      </trkpt>
      <trkpt lat="45.46446" lon="4.67706">
        <ele>674</ele>
        <time>2018-08-15T07:54:23.236Z</time>
      </trkpt>
      <trkpt lat="45.46446" lon="4.67706">
        <ele>674</ele>
        <time>2018-08-15T07:54:24.242Z</time>
      </trkpt>
      <trkpt lat="45.46446" lon="4.67688">
        <ele>671</ele>
        <time>2018-08-15T07:54:25.233Z</time>
      </trkpt>
      <trkpt lat="45.46445" lon="4.67678">
        <ele>670</ele>
        <time>2018-08-15T07:54:26.266Z</time>
      </trkpt>
      <trkpt lat="45.46445" lon="4.67678">
        <ele>670</ele>
        <time>2018-08-15T07:54:27.232Z</time>
      </trkpt>
      <trkpt lat="45.46445" lon="4.67659">
        <ele>667</ele>
        <time>2018-08-15T07:54:28.261Z</time>
      </trkpt>
      <trkpt lat="45.46445" lon="4.67659">
        <ele>667</ele>
        <time>2018-08-15T07:54:29.267Z</time>
      </trkpt>
      <trkpt lat="45.46443" lon="4.67636">
        <ele>665</ele>
        <time>2018-08-15T07:54:30.239Z</time>
      </trkpt>
      <trkpt lat="45.46443" lon="4.67636">
        <ele>665</ele>
        <time>2018-08-15T07:54:31.245Z</time>
      </trkpt>
      <trkpt lat="45.46441" lon="4.67613">
        <ele>663</ele>
        <time>2018-08-15T07:54:32.263Z</time>
      </trkpt>
      <trkpt lat="45.46441" lon="4.67613">
        <ele>663</ele>
        <time>2018-08-15T07:54:33.268Z</time>
      </trkpt>
      <trkpt lat="45.46439" lon="4.67589">
        <ele>661</ele>
        <time>2018-08-15T07:54:34.239Z</time>
      </trkpt>
      <trkpt lat="45.46439" lon="4.67589">
        <ele>661</ele>
        <time>2018-08-15T07:54:35.238Z</time>
      </trkpt>
      <trkpt lat="45.46438" lon="4.67564">
        <ele>660</ele>
        <time>2018-08-15T07:54:36.243Z</time>
      </trkpt>
      <trkpt lat="45.46437" lon="4.67552">
        <ele>659</ele>
        <time>2018-08-15T07:54:37.272Z</time>
      </trkpt>
      <trkpt lat="45.46437" lon="4.6754">
        <ele>658</ele>
        <time>2018-08-15T07:54:38.269Z</time>
      </trkpt>
      <trkpt lat="45.46437" lon="4.6754">
        <ele>658</ele>
        <time>2018-08-15T07:54:39.235Z</time>
      </trkpt>
      <trkpt lat="45.46435" lon="4.67515">
        <ele>656</ele>
        <time>2018-08-15T07:54:40.266Z</time>
      </trkpt>
      <trkpt lat="45.46435" lon="4.67515">
        <ele>656</ele>
        <time>2018-08-15T07:54:41.233Z</time>
      </trkpt>
      <trkpt lat="45.46432" lon="4.6749">
        <ele>655</ele>
        <time>2018-08-15T07:54:42.261Z</time>
      </trkpt>
      <trkpt lat="45.4643" lon="4.67478">
        <ele>654</ele>
        <time>2018-08-15T07:54:43.254Z</time>
      </trkpt>
      <trkpt lat="45.46429" lon="4.67465">
        <ele>653</ele>
        <time>2018-08-15T07:54:44.251Z</time>
      </trkpt>
      <trkpt lat="45.46429" lon="4.67465">
        <ele>653</ele>
        <time>2018-08-15T07:54:45.266Z</time>
      </trkpt>
      <trkpt lat="45.46425" lon="4.6744">
        <ele>652</ele>
        <time>2018-08-15T07:54:46.266Z</time>
      </trkpt>
      <trkpt lat="45.46425" lon="4.6744">
        <ele>652</ele>
        <time>2018-08-15T07:54:47.271Z</time>
      </trkpt>
      <trkpt lat="45.4642" lon="4.67414">
        <ele>650</ele>
        <time>2018-08-15T07:54:48.253Z</time>
      </trkpt>
      <trkpt lat="45.4642" lon="4.67414">
        <ele>650</ele>
        <time>2018-08-15T07:54:49.245Z</time>
      </trkpt>
      <trkpt lat="45.46415" lon="4.6739">
        <ele>649</ele>
        <time>2018-08-15T07:54:50.235Z</time>
      </trkpt>
      <trkpt lat="45.46415" lon="4.6739">
        <ele>649</ele>
        <time>2018-08-15T07:54:51.240Z</time>
      </trkpt>
      <trkpt lat="45.4641" lon="4.67364">
        <ele>647</ele>
        <time>2018-08-15T07:54:52.264Z</time>
      </trkpt>
      <trkpt lat="45.4641" lon="4.67364">
        <ele>647</ele>
        <time>2018-08-15T07:54:53.269Z</time>
      </trkpt>
      <trkpt lat="45.46407" lon="4.67337">
        <ele>646</ele>
        <time>2018-08-15T07:54:54.247Z</time>
      </trkpt>
      <trkpt lat="45.46407" lon="4.67337">
        <ele>646</ele>
        <time>2018-08-15T07:54:55.252Z</time>
      </trkpt>
      <trkpt lat="45.46407" lon="4.6731">
        <ele>644</ele>
        <time>2018-08-15T07:54:56.251Z</time>
      </trkpt>
      <trkpt lat="45.46407" lon="4.6731">
        <ele>644</ele>
        <time>2018-08-15T07:54:57.261Z</time>
      </trkpt>
      <trkpt lat="45.46409" lon="4.67281">
        <ele>642</ele>
        <time>2018-08-15T07:54:58.256Z</time>
      </trkpt>
      <trkpt lat="45.46409" lon="4.67281">
        <ele>642</ele>
        <time>2018-08-15T07:54:59.262Z</time>
      </trkpt>
      <trkpt lat="45.46411" lon="4.67251">
        <ele>640</ele>
        <time>2018-08-15T07:55:00.244Z</time>
      </trkpt>
      <trkpt lat="45.46411" lon="4.67251">
        <ele>640</ele>
        <time>2018-08-15T07:55:01.249Z</time>
      </trkpt>
      <trkpt lat="45.4641" lon="4.6722">
        <ele>639</ele>
        <time>2018-08-15T07:55:02.243Z</time>
      </trkpt>
      <trkpt lat="45.4641" lon="4.6722">
        <ele>639</ele>
        <time>2018-08-15T07:55:03.250Z</time>
      </trkpt>
      <trkpt lat="45.46408" lon="4.67192">
        <ele>637</ele>
        <time>2018-08-15T07:55:04.243Z</time>
      </trkpt>
      <trkpt lat="45.46408" lon="4.67192">
        <ele>637</ele>
        <time>2018-08-15T07:55:05.249Z</time>
      </trkpt>
      <trkpt lat="45.46404" lon="4.67165">
        <ele>636</ele>
        <time>2018-08-15T07:55:06.261Z</time>
      </trkpt>
      <trkpt lat="45.46404" lon="4.67165">
        <ele>636</ele>
        <time>2018-08-15T07:55:07.266Z</time>
      </trkpt>
      <trkpt lat="45.46399" lon="4.67138">
        <ele>634</ele>
        <time>2018-08-15T07:55:08.256Z</time>
      </trkpt>
      <trkpt lat="45.46399" lon="4.67138">
        <ele>634</ele>
        <time>2018-08-15T07:55:09.261Z</time>
      </trkpt>
      <trkpt lat="45.46397" lon="4.67109">
        <ele>632</ele>
        <time>2018-08-15T07:55:10.250Z</time>
      </trkpt>
      <trkpt lat="45.46397" lon="4.67109">
        <ele>632</ele>
        <time>2018-08-15T07:55:11.256Z</time>
      </trkpt>
      <trkpt lat="45.46398" lon="4.6708">
        <ele>631</ele>
        <time>2018-08-15T07:55:12.256Z</time>
      </trkpt>
      <trkpt lat="45.46398" lon="4.6708">
        <ele>631</ele>
        <time>2018-08-15T07:55:13.261Z</time>
      </trkpt>
      <trkpt lat="45.46401" lon="4.67051">
        <ele>629</ele>
        <time>2018-08-15T07:55:14.258Z</time>
      </trkpt>
      <trkpt lat="45.46401" lon="4.67051">
        <ele>629</ele>
        <time>2018-08-15T07:55:15.263Z</time>
      </trkpt>
      <trkpt lat="45.46404" lon="4.67021">
        <ele>627</ele>
        <time>2018-08-15T07:55:16.239Z</time>
      </trkpt>
      <trkpt lat="45.46405" lon="4.67006">
        <ele>627</ele>
        <time>2018-08-15T07:55:17.266Z</time>
      </trkpt>
      <trkpt lat="45.46405" lon="4.67006">
        <ele>627</ele>
        <time>2018-08-15T07:55:18.271Z</time>
      </trkpt>
      <trkpt lat="45.46411" lon="4.66976">
        <ele>625</ele>
        <time>2018-08-15T07:55:19.260Z</time>
      </trkpt>
      <trkpt lat="45.46414" lon="4.66961">
        <ele>624</ele>
        <time>2018-08-15T07:55:20.252Z</time>
      </trkpt>
      <trkpt lat="45.46414" lon="4.66961">
        <ele>624</ele>
        <time>2018-08-15T07:55:21.262Z</time>
      </trkpt>
      <trkpt lat="45.4642" lon="4.66932">
        <ele>623</ele>
        <time>2018-08-15T07:55:22.253Z</time>
      </trkpt>
      <trkpt lat="45.4642" lon="4.66932">
        <ele>623</ele>
        <time>2018-08-15T07:55:23.260Z</time>
      </trkpt>
      <trkpt lat="45.46424" lon="4.66901">
        <ele>621</ele>
        <time>2018-08-15T07:55:24.249Z</time>
      </trkpt>
      <trkpt lat="45.46424" lon="4.66901">
        <ele>621</ele>
        <time>2018-08-15T07:55:25.259Z</time>
      </trkpt>
      <trkpt lat="45.46426" lon="4.6687">
        <ele>620</ele>
        <time>2018-08-15T07:55:26.233Z</time>
      </trkpt>
      <trkpt lat="45.46426" lon="4.6687">
        <ele>620</ele>
        <time>2018-08-15T07:55:27.256Z</time>
      </trkpt>
      <trkpt lat="45.4643" lon="4.66839">
        <ele>618</ele>
        <time>2018-08-15T07:55:28.242Z</time>
      </trkpt>
      <trkpt lat="45.4643" lon="4.66839">
        <ele>618</ele>
        <time>2018-08-15T07:55:29.258Z</time>
      </trkpt>
      <trkpt lat="45.46437" lon="4.66809">
        <ele>617</ele>
        <time>2018-08-15T07:55:30.266Z</time>
      </trkpt>
      <trkpt lat="45.46442" lon="4.66795">
        <ele>616</ele>
        <time>2018-08-15T07:55:31.241Z</time>
      </trkpt>
      <trkpt lat="45.46447" lon="4.66781">
        <ele>615</ele>
        <time>2018-08-15T07:55:32.250Z</time>
      </trkpt>
      <trkpt lat="45.46447" lon="4.66781">
        <ele>615</ele>
        <time>2018-08-15T07:55:33.255Z</time>
      </trkpt>
      <trkpt lat="45.46458" lon="4.66753">
        <ele>614</ele>
        <time>2018-08-15T07:55:34.233Z</time>
      </trkpt>
      <trkpt lat="45.46458" lon="4.66753">
        <ele>614</ele>
        <time>2018-08-15T07:55:35.238Z</time>
      </trkpt>
      <trkpt lat="45.46469" lon="4.66724">
        <ele>612</ele>
        <time>2018-08-15T07:55:36.233Z</time>
      </trkpt>
      <trkpt lat="45.46474" lon="4.66709">
        <ele>611</ele>
        <time>2018-08-15T07:55:37.239Z</time>
      </trkpt>
      <trkpt lat="45.46479" lon="4.66694">
        <ele>610</ele>
        <time>2018-08-15T07:55:38.248Z</time>
      </trkpt>
      <trkpt lat="45.46479" lon="4.66694">
        <ele>610</ele>
        <time>2018-08-15T07:55:39.254Z</time>
      </trkpt>
      <trkpt lat="45.4649" lon="4.66664">
        <ele>609</ele>
        <time>2018-08-15T07:55:40.264Z</time>
      </trkpt>
      <trkpt lat="45.4649" lon="4.66664">
        <ele>609</ele>
        <time>2018-08-15T07:55:41.269Z</time>
      </trkpt>
      <trkpt lat="45.46499" lon="4.66638">
        <ele>607</ele>
        <time>2018-08-15T07:55:42.249Z</time>
      </trkpt>
      <trkpt lat="45.46503" lon="4.66626">
        <ele>606</ele>
        <time>2018-08-15T07:55:43.246Z</time>
      </trkpt>
      <trkpt lat="45.46503" lon="4.66626">
        <ele>606</ele>
        <time>2018-08-15T07:55:44.255Z</time>
      </trkpt>
      <trkpt lat="45.46511" lon="4.666">
        <ele>605</ele>
        <time>2018-08-15T07:55:45.259Z</time>
      </trkpt>
      <trkpt lat="45.46511" lon="4.666">
        <ele>605</ele>
        <time>2018-08-15T07:55:46.239Z</time>
      </trkpt>
      <trkpt lat="45.46516" lon="4.66574">
        <ele>604</ele>
        <time>2018-08-15T07:55:47.272Z</time>
      </trkpt>
      <trkpt lat="45.46516" lon="4.66574">
        <ele>604</ele>
        <time>2018-08-15T07:55:48.237Z</time>
      </trkpt>
      <trkpt lat="45.46517" lon="4.6655">
        <ele>602</ele>
        <time>2018-08-15T07:55:49.246Z</time>
      </trkpt>
      <trkpt lat="45.46516" lon="4.66541">
        <ele>602</ele>
        <time>2018-08-15T07:55:50.262Z</time>
      </trkpt>
      <trkpt lat="45.46516" lon="4.66541">
        <ele>602</ele>
        <time>2018-08-15T07:55:51.241Z</time>
      </trkpt>
      <trkpt lat="45.46518" lon="4.66526">
        <ele>601</ele>
        <time>2018-08-15T07:55:52.253Z</time>
      </trkpt>
      <trkpt lat="45.46518" lon="4.66526">
        <ele>601</ele>
        <time>2018-08-15T07:55:53.260Z</time>
      </trkpt>
      <trkpt lat="45.46527" lon="4.66519">
        <ele>600</ele>
        <time>2018-08-15T07:55:54.245Z</time>
      </trkpt>
      <trkpt lat="45.46527" lon="4.66519">
        <ele>600</ele>
        <time>2018-08-15T07:55:55.251Z</time>
      </trkpt>
      <trkpt lat="45.46534" lon="4.6653">
        <ele>599</ele>
        <time>2018-08-15T07:55:56.242Z</time>
      </trkpt>
      <trkpt lat="45.46535" lon="4.66538">
        <ele>599</ele>
        <time>2018-08-15T07:55:57.245Z</time>
      </trkpt>
      <trkpt lat="45.46535" lon="4.66538">
        <ele>599</ele>
        <time>2018-08-15T07:55:58.250Z</time>
      </trkpt>
      <trkpt lat="45.46535" lon="4.66554">
        <ele>599</ele>
        <time>2018-08-15T07:55:59.264Z</time>
      </trkpt>
      <trkpt lat="45.46535" lon="4.66554">
        <ele>599</ele>
        <time>2018-08-15T07:56:00.272Z</time>
      </trkpt>
      <trkpt lat="45.46532" lon="4.66571">
        <ele>600</ele>
        <time>2018-08-15T07:56:01.234Z</time>
      </trkpt>
      <trkpt lat="45.46532" lon="4.66571">
        <ele>600</ele>
        <time>2018-08-15T07:56:02.240Z</time>
      </trkpt>
      <trkpt lat="45.46529" lon="4.6659">
        <ele>600</ele>
        <time>2018-08-15T07:56:03.263Z</time>
      </trkpt>
      <trkpt lat="45.46529" lon="4.6659">
        <ele>600</ele>
        <time>2018-08-15T07:56:04.268Z</time>
      </trkpt>
      <trkpt lat="45.46526" lon="4.6661">
        <ele>601</ele>
        <time>2018-08-15T07:56:05.233Z</time>
      </trkpt>
      <trkpt lat="45.46526" lon="4.6661">
        <ele>601</ele>
        <time>2018-08-15T07:56:06.251Z</time>
      </trkpt>
      <trkpt lat="45.46524" lon="4.6663">
        <ele>601</ele>
        <time>2018-08-15T07:56:07.267Z</time>
      </trkpt>
      <trkpt lat="45.46524" lon="4.66639">
        <ele>601</ele>
        <time>2018-08-15T07:56:08.236Z</time>
      </trkpt>
      <trkpt lat="45.46524" lon="4.66639">
        <ele>601</ele>
        <time>2018-08-15T07:56:09.241Z</time>
      </trkpt>
      <trkpt lat="45.46521" lon="4.6666">
        <ele>601</ele>
        <time>2018-08-15T07:56:10.265Z</time>
      </trkpt>
      <trkpt lat="45.46519" lon="4.66673">
        <ele>601</ele>
        <time>2018-08-15T07:56:11.246Z</time>
      </trkpt>
      <trkpt lat="45.46519" lon="4.66673">
        <ele>601</ele>
        <time>2018-08-15T07:56:12.251Z</time>
      </trkpt>
      <trkpt lat="45.46516" lon="4.66698">
        <ele>600</ele>
        <time>2018-08-15T07:56:13.264Z</time>
      </trkpt>
      <trkpt lat="45.46514" lon="4.66713">
        <ele>601</ele>
        <time>2018-08-15T07:56:14.244Z</time>
      </trkpt>
      <trkpt lat="45.46514" lon="4.66713">
        <ele>601</ele>
        <time>2018-08-15T07:56:15.264Z</time>
      </trkpt>
      <trkpt lat="45.46513" lon="4.66743">
        <ele>601</ele>
        <time>2018-08-15T07:56:16.243Z</time>
      </trkpt>
      <trkpt lat="45.46513" lon="4.66758">
        <ele>601</ele>
        <time>2018-08-15T07:56:17.253Z</time>
      </trkpt>
      <trkpt lat="45.46513" lon="4.66758">
        <ele>601</ele>
        <time>2018-08-15T07:56:18.260Z</time>
      </trkpt>
      <trkpt lat="45.46513" lon="4.66788">
        <ele>601</ele>
        <time>2018-08-15T07:56:19.235Z</time>
      </trkpt>
      <trkpt lat="45.46513" lon="4.66788">
        <ele>601</ele>
        <time>2018-08-15T07:56:20.240Z</time>
      </trkpt>
      <trkpt lat="45.46513" lon="4.66816">
        <ele>601</ele>
        <time>2018-08-15T07:56:21.259Z</time>
      </trkpt>
      <trkpt lat="45.46513" lon="4.66816">
        <ele>601</ele>
        <time>2018-08-15T07:56:22.265Z</time>
      </trkpt>
      <trkpt lat="45.46514" lon="4.66842">
        <ele>601</ele>
        <time>2018-08-15T07:56:23.237Z</time>
      </trkpt>
      <trkpt lat="45.46514" lon="4.66842">
        <ele>601</ele>
        <time>2018-08-15T07:56:24.243Z</time>
      </trkpt>
      <trkpt lat="45.46516" lon="4.66867">
        <ele>601</ele>
        <time>2018-08-15T07:56:25.251Z</time>
      </trkpt>
      <trkpt lat="45.46517" lon="4.66878">
        <ele>601</ele>
        <time>2018-08-15T07:56:26.264Z</time>
      </trkpt>
      <trkpt lat="45.46517" lon="4.66878">
        <ele>601</ele>
        <time>2018-08-15T07:56:27.269Z</time>
      </trkpt>
      <trkpt lat="45.46518" lon="4.66901">
        <ele>601</ele>
        <time>2018-08-15T07:56:28.244Z</time>
      </trkpt>
      <trkpt lat="45.46518" lon="4.66901">
        <ele>601</ele>
        <time>2018-08-15T07:56:29.249Z</time>
      </trkpt>
      <trkpt lat="45.46518" lon="4.66923">
        <ele>601</ele>
        <time>2018-08-15T07:56:30.261Z</time>
      </trkpt>
      <trkpt lat="45.46518" lon="4.66935">
        <ele>601</ele>
        <time>2018-08-15T07:56:31.255Z</time>
      </trkpt>
      <trkpt lat="45.46517" lon="4.66946">
        <ele>601</ele>
        <time>2018-08-15T07:56:32.265Z</time>
      </trkpt>
      <trkpt lat="45.46517" lon="4.66946">
        <ele>601</ele>
        <time>2018-08-15T07:56:33.270Z</time>
      </trkpt>
      <trkpt lat="45.46513" lon="4.66968">
        <ele>601</ele>
        <time>2018-08-15T07:56:34.242Z</time>
      </trkpt>
      <trkpt lat="45.46513" lon="4.66968">
        <ele>601</ele>
        <time>2018-08-15T07:56:35.247Z</time>
      </trkpt>
      <trkpt lat="45.46511" lon="4.66989">
        <ele>601</ele>
        <time>2018-08-15T07:56:36.250Z</time>
      </trkpt>
      <trkpt lat="45.4651" lon="4.67001">
        <ele>601</ele>
        <time>2018-08-15T07:56:37.267Z</time>
      </trkpt>
      <trkpt lat="45.46511" lon="4.67013">
        <ele>601</ele>
        <time>2018-08-15T07:56:38.243Z</time>
      </trkpt>
      <trkpt lat="45.46511" lon="4.67013">
        <ele>601</ele>
        <time>2018-08-15T07:56:39.248Z</time>
      </trkpt>
      <trkpt lat="45.46515" lon="4.67036">
        <ele>601</ele>
        <time>2018-08-15T07:56:40.262Z</time>
      </trkpt>
      <trkpt lat="45.46515" lon="4.67036">
        <ele>601</ele>
        <time>2018-08-15T07:56:41.268Z</time>
      </trkpt>
      <trkpt lat="45.46522" lon="4.67058">
        <ele>601</ele>
        <time>2018-08-15T07:56:42.264Z</time>
      </trkpt>
      <trkpt lat="45.46522" lon="4.67058">
        <ele>601</ele>
        <time>2018-08-15T07:56:43.269Z</time>
      </trkpt>
      <trkpt lat="45.46529" lon="4.67077">
        <ele>601</ele>
        <time>2018-08-15T07:56:44.233Z</time>
      </trkpt>
      <trkpt lat="45.46529" lon="4.67077">
        <ele>601</ele>
        <time>2018-08-15T07:56:45.249Z</time>
      </trkpt>
      <trkpt lat="45.46538" lon="4.67091">
        <ele>601</ele>
        <time>2018-08-15T07:56:46.262Z</time>
      </trkpt>
      <trkpt lat="45.46538" lon="4.67091">
        <ele>601</ele>
        <time>2018-08-15T07:56:47.268Z</time>
      </trkpt>
      <trkpt lat="45.46548" lon="4.67103">
        <ele>601</ele>
        <time>2018-08-15T07:56:48.233Z</time>
      </trkpt>
      <trkpt lat="45.46548" lon="4.67103">
        <ele>601</ele>
        <time>2018-08-15T07:56:49.238Z</time>
      </trkpt>
      <trkpt lat="45.4656" lon="4.67113">
        <ele>601</ele>
        <time>2018-08-15T07:56:50.246Z</time>
      </trkpt>
      <trkpt lat="45.4656" lon="4.67113">
        <ele>601</ele>
        <time>2018-08-15T07:56:51.253Z</time>
      </trkpt>
      <trkpt lat="45.46573" lon="4.6712">
        <ele>601</ele>
        <time>2018-08-15T07:56:52.257Z</time>
      </trkpt>
      <trkpt lat="45.46573" lon="4.6712">
        <ele>601</ele>
        <time>2018-08-15T07:56:53.263Z</time>
      </trkpt>
      <trkpt lat="45.46587" lon="4.67125">
        <ele>601</ele>
        <time>2018-08-15T07:56:54.254Z</time>
      </trkpt>
      <trkpt lat="45.46587" lon="4.67125">
        <ele>601</ele>
        <time>2018-08-15T07:56:55.261Z</time>
      </trkpt>
      <trkpt lat="45.46601" lon="4.67124">
        <ele>601</ele>
        <time>2018-08-15T07:56:56.243Z</time>
      </trkpt>
      <trkpt lat="45.46601" lon="4.67124">
        <ele>601</ele>
        <time>2018-08-15T07:56:57.248Z</time>
      </trkpt>
      <trkpt lat="45.46613" lon="4.67114">
        <ele>602</ele>
        <time>2018-08-15T07:56:58.239Z</time>
      </trkpt>
      <trkpt lat="45.46613" lon="4.67114">
        <ele>602</ele>
        <time>2018-08-15T07:56:59.244Z</time>
      </trkpt>
      <trkpt lat="45.46622" lon="4.67098">
        <ele>602</ele>
        <time>2018-08-15T07:57:00.239Z</time>
      </trkpt>
      <trkpt lat="45.46622" lon="4.67098">
        <ele>602</ele>
        <time>2018-08-15T07:57:01.245Z</time>
      </trkpt>
      <trkpt lat="45.4663" lon="4.67084">
        <ele>602</ele>
        <time>2018-08-15T07:57:02.241Z</time>
      </trkpt>
      <trkpt lat="45.4663" lon="4.67084">
        <ele>602</ele>
        <time>2018-08-15T07:57:03.246Z</time>
      </trkpt>
      <trkpt lat="45.46635" lon="4.67069">
        <ele>603</ele>
        <time>2018-08-15T07:57:04.245Z</time>
      </trkpt>
      <trkpt lat="45.46635" lon="4.67069">
        <ele>603</ele>
        <time>2018-08-15T07:57:05.251Z</time>
      </trkpt>
      <trkpt lat="45.46639" lon="4.67052">
        <ele>603</ele>
        <time>2018-08-15T07:57:06.246Z</time>
      </trkpt>
      <trkpt lat="45.46639" lon="4.67052">
        <ele>603</ele>
        <time>2018-08-15T07:57:07.252Z</time>
      </trkpt>
      <trkpt lat="45.46641" lon="4.67035">
        <ele>604</ele>
        <time>2018-08-15T07:57:08.241Z</time>
      </trkpt>
      <trkpt lat="45.46641" lon="4.67035">
        <ele>604</ele>
        <time>2018-08-15T07:57:09.246Z</time>
      </trkpt>
      <trkpt lat="45.46644" lon="4.67018">
        <ele>604</ele>
        <time>2018-08-15T07:57:10.241Z</time>
      </trkpt>
      <trkpt lat="45.46644" lon="4.67018">
        <ele>604</ele>
        <time>2018-08-15T07:57:11.247Z</time>
      </trkpt>
      <trkpt lat="45.46652" lon="4.67002">
        <ele>603</ele>
        <time>2018-08-15T07:57:12.243Z</time>
      </trkpt>
      <trkpt lat="45.46652" lon="4.67002">
        <ele>603</ele>
        <time>2018-08-15T07:57:13.252Z</time>
      </trkpt>
      <trkpt lat="45.46659" lon="4.66986">
        <ele>601</ele>
        <time>2018-08-15T07:57:14.254Z</time>
      </trkpt>
      <trkpt lat="45.46659" lon="4.66986">
        <ele>601</ele>
        <time>2018-08-15T07:57:15.262Z</time>
      </trkpt>
      <trkpt lat="45.46666" lon="4.66969">
        <ele>601</ele>
        <time>2018-08-15T07:57:16.269Z</time>
      </trkpt>
      <trkpt lat="45.46669" lon="4.6696">
        <ele>601</ele>
        <time>2018-08-15T07:57:17.267Z</time>
      </trkpt>
      <trkpt lat="45.46669" lon="4.6696">
        <ele>601</ele>
        <time>2018-08-15T07:57:18.233Z</time>
      </trkpt>
      <trkpt lat="45.46678" lon="4.66942">
        <ele>601</ele>
        <time>2018-08-15T07:57:19.265Z</time>
      </trkpt>
      <trkpt lat="45.46682" lon="4.66933">
        <ele>601</ele>
        <time>2018-08-15T07:57:20.249Z</time>
      </trkpt>
      <trkpt lat="45.46682" lon="4.66933">
        <ele>601</ele>
        <time>2018-08-15T07:57:21.255Z</time>
      </trkpt>
      <trkpt lat="45.46691" lon="4.66915">
        <ele>600</ele>
        <time>2018-08-15T07:57:22.238Z</time>
      </trkpt>
      <trkpt lat="45.46696" lon="4.66905">
        <ele>600</ele>
        <time>2018-08-15T07:57:23.243Z</time>
      </trkpt>
      <trkpt lat="45.46696" lon="4.66905">
        <ele>600</ele>
        <time>2018-08-15T07:57:24.248Z</time>
      </trkpt>
      <trkpt lat="45.46706" lon="4.66887">
        <ele>600</ele>
        <time>2018-08-15T07:57:25.266Z</time>
      </trkpt>
      <trkpt lat="45.46706" lon="4.66887">
        <ele>600</ele>
        <time>2018-08-15T07:57:26.271Z</time>
      </trkpt>
      <trkpt lat="45.46719" lon="4.66869">
        <ele>600</ele>
        <time>2018-08-15T07:57:27.267Z</time>
      </trkpt>
      <trkpt lat="45.46725" lon="4.6686">
        <ele>600</ele>
        <time>2018-08-15T07:57:28.253Z</time>
      </trkpt>
      <trkpt lat="45.46725" lon="4.6686">
        <ele>600</ele>
        <time>2018-08-15T07:57:29.259Z</time>
      </trkpt>
      <trkpt lat="45.46739" lon="4.66844">
        <ele>599</ele>
        <time>2018-08-15T07:57:30.247Z</time>
      </trkpt>
      <trkpt lat="45.46739" lon="4.66844">
        <ele>599</ele>
        <time>2018-08-15T07:57:31.252Z</time>
      </trkpt>
      <trkpt lat="45.46754" lon="4.66827">
        <ele>599</ele>
        <time>2018-08-15T07:57:32.264Z</time>
      </trkpt>
      <trkpt lat="45.46754" lon="4.66827">
        <ele>599</ele>
        <time>2018-08-15T07:57:33.263Z</time>
      </trkpt>
      <trkpt lat="45.46768" lon="4.66812">
        <ele>599</ele>
        <time>2018-08-15T07:57:34.263Z</time>
      </trkpt>
      <trkpt lat="45.46768" lon="4.66812">
        <ele>599</ele>
        <time>2018-08-15T07:57:35.268Z</time>
      </trkpt>
      <trkpt lat="45.46783" lon="4.66797">
        <ele>599</ele>
        <time>2018-08-15T07:57:36.240Z</time>
      </trkpt>
      <trkpt lat="45.46791" lon="4.66789">
        <ele>599</ele>
        <time>2018-08-15T07:57:37.266Z</time>
      </trkpt>
      <trkpt lat="45.46798" lon="4.6678">
        <ele>598</ele>
        <time>2018-08-15T07:57:38.259Z</time>
      </trkpt>
      <trkpt lat="45.46798" lon="4.6678">
        <ele>598</ele>
        <time>2018-08-15T07:57:39.265Z</time>
      </trkpt>
      <trkpt lat="45.4681" lon="4.66762">
        <ele>598</ele>
        <time>2018-08-15T07:57:40.237Z</time>
      </trkpt>
      <trkpt lat="45.4681" lon="4.66762">
        <ele>598</ele>
        <time>2018-08-15T07:57:41.248Z</time>
      </trkpt>
      <trkpt lat="45.46821" lon="4.66739">
        <ele>598</ele>
        <time>2018-08-15T07:57:42.240Z</time>
      </trkpt>
      <trkpt lat="45.46821" lon="4.66739">
        <ele>598</ele>
        <time>2018-08-15T07:57:43.247Z</time>
      </trkpt>
      <trkpt lat="45.4683" lon="4.66715">
        <ele>597</ele>
        <time>2018-08-15T07:57:44.262Z</time>
      </trkpt>
      <trkpt lat="45.4683" lon="4.66715">
        <ele>597</ele>
        <time>2018-08-15T07:57:45.267Z</time>
      </trkpt>
      <trkpt lat="45.46838" lon="4.66689">
        <ele>597</ele>
        <time>2018-08-15T07:57:46.236Z</time>
      </trkpt>
      <trkpt lat="45.46838" lon="4.66689">
        <ele>597</ele>
        <time>2018-08-15T07:57:47.241Z</time>
      </trkpt>
      <trkpt lat="45.46844" lon="4.66662">
        <ele>596</ele>
        <time>2018-08-15T07:57:48.234Z</time>
      </trkpt>
      <trkpt lat="45.46844" lon="4.66662">
        <ele>596</ele>
        <time>2018-08-15T07:57:49.239Z</time>
      </trkpt>
      <trkpt lat="45.46851" lon="4.66636">
        <ele>596</ele>
        <time>2018-08-15T07:57:50.263Z</time>
      </trkpt>
      <trkpt lat="45.46851" lon="4.66636">
        <ele>596</ele>
        <time>2018-08-15T07:57:51.268Z</time>
      </trkpt>
      <trkpt lat="45.4686" lon="4.66613">
        <ele>596</ele>
        <time>2018-08-15T07:57:52.249Z</time>
      </trkpt>
      <trkpt lat="45.4686" lon="4.66613">
        <ele>596</ele>
        <time>2018-08-15T07:57:53.259Z</time>
      </trkpt>
      <trkpt lat="45.46872" lon="4.66593">
        <ele>596</ele>
        <time>2018-08-15T07:57:54.258Z</time>
      </trkpt>
      <trkpt lat="45.46872" lon="4.66593">
        <ele>596</ele>
        <time>2018-08-15T07:57:55.263Z</time>
      </trkpt>
      <trkpt lat="45.46888" lon="4.66577">
        <ele>595</ele>
        <time>2018-08-15T07:57:56.263Z</time>
      </trkpt>
      <trkpt lat="45.46888" lon="4.66577">
        <ele>595</ele>
        <time>2018-08-15T07:57:57.268Z</time>
      </trkpt>
      <trkpt lat="45.46905" lon="4.66563">
        <ele>594</ele>
        <time>2018-08-15T07:57:58.253Z</time>
      </trkpt>
      <trkpt lat="45.46905" lon="4.66563">
        <ele>594</ele>
        <time>2018-08-15T07:57:59.259Z</time>
      </trkpt>
      <trkpt lat="45.4692" lon="4.66544">
        <ele>594</ele>
        <time>2018-08-15T07:58:00.250Z</time>
      </trkpt>
      <trkpt lat="45.4692" lon="4.66544">
        <ele>594</ele>
        <time>2018-08-15T07:58:01.255Z</time>
      </trkpt>
      <trkpt lat="45.46931" lon="4.66521">
        <ele>593</ele>
        <time>2018-08-15T07:58:02.248Z</time>
      </trkpt>
      <trkpt lat="45.46931" lon="4.66521">
        <ele>593</ele>
        <time>2018-08-15T07:58:03.259Z</time>
      </trkpt>
      <trkpt lat="45.4694" lon="4.66494">
        <ele>592</ele>
        <time>2018-08-15T07:58:04.253Z</time>
      </trkpt>
      <trkpt lat="45.4694" lon="4.66494">
        <ele>592</ele>
        <time>2018-08-15T07:58:05.260Z</time>
      </trkpt>
      <trkpt lat="45.46947" lon="4.66467">
        <ele>589</ele>
        <time>2018-08-15T07:58:06.259Z</time>
      </trkpt>
      <trkpt lat="45.46947" lon="4.66467">
        <ele>589</ele>
        <time>2018-08-15T07:58:07.232Z</time>
      </trkpt>
      <trkpt lat="45.46956" lon="4.6644">
        <ele>585</ele>
        <time>2018-08-15T07:58:08.267Z</time>
      </trkpt>
      <trkpt lat="45.46956" lon="4.6644">
        <ele>585</ele>
        <time>2018-08-15T07:58:09.234Z</time>
      </trkpt>
      <trkpt lat="45.46967" lon="4.66414">
        <ele>583</ele>
        <time>2018-08-15T07:58:10.243Z</time>
      </trkpt>
      <trkpt lat="45.46967" lon="4.66414">
        <ele>583</ele>
        <time>2018-08-15T07:58:11.248Z</time>
      </trkpt>
      <trkpt lat="45.46979" lon="4.6639">
        <ele>581</ele>
        <time>2018-08-15T07:58:12.244Z</time>
      </trkpt>
      <trkpt lat="45.46979" lon="4.6639">
        <ele>581</ele>
        <time>2018-08-15T07:58:13.249Z</time>
      </trkpt>
      <trkpt lat="45.46993" lon="4.66366">
        <ele>579</ele>
        <time>2018-08-15T07:58:14.242Z</time>
      </trkpt>
      <trkpt lat="45.46993" lon="4.66366">
        <ele>579</ele>
        <time>2018-08-15T07:58:15.248Z</time>
      </trkpt>
      <trkpt lat="45.47005" lon="4.66343">
        <ele>578</ele>
        <time>2018-08-15T07:58:16.238Z</time>
      </trkpt>
      <trkpt lat="45.47005" lon="4.66343">
        <ele>578</ele>
        <time>2018-08-15T07:58:17.243Z</time>
      </trkpt>
      <trkpt lat="45.47015" lon="4.66318">
        <ele>575</ele>
        <time>2018-08-15T07:58:18.236Z</time>
      </trkpt>
      <trkpt lat="45.47015" lon="4.66318">
        <ele>575</ele>
        <time>2018-08-15T07:58:19.256Z</time>
      </trkpt>
      <trkpt lat="45.47022" lon="4.66291">
        <ele>574</ele>
        <time>2018-08-15T07:58:20.233Z</time>
      </trkpt>
      <trkpt lat="45.47022" lon="4.66291">
        <ele>574</ele>
        <time>2018-08-15T07:58:21.238Z</time>
      </trkpt>
      <trkpt lat="45.47029" lon="4.66263">
        <ele>573</ele>
        <time>2018-08-15T07:58:22.235Z</time>
      </trkpt>
      <trkpt lat="45.47029" lon="4.66263">
        <ele>573</ele>
        <time>2018-08-15T07:58:23.240Z</time>
      </trkpt>
      <trkpt lat="45.47036" lon="4.66235">
        <ele>571</ele>
        <time>2018-08-15T07:58:24.234Z</time>
      </trkpt>
      <trkpt lat="45.47036" lon="4.66235">
        <ele>571</ele>
        <time>2018-08-15T07:58:25.239Z</time>
      </trkpt>
      <trkpt lat="45.47041" lon="4.66207">
        <ele>570</ele>
        <time>2018-08-15T07:58:26.267Z</time>
      </trkpt>
      <trkpt lat="45.47041" lon="4.66207">
        <ele>570</ele>
        <time>2018-08-15T07:58:27.234Z</time>
      </trkpt>
      <trkpt lat="45.47046" lon="4.66178">
        <ele>566</ele>
        <time>2018-08-15T07:58:28.264Z</time>
      </trkpt>
      <trkpt lat="45.47046" lon="4.66178">
        <ele>566</ele>
        <time>2018-08-15T07:58:29.270Z</time>
      </trkpt>
      <trkpt lat="45.4705" lon="4.6615">
        <ele>563</ele>
        <time>2018-08-15T07:58:30.238Z</time>
      </trkpt>
      <trkpt lat="45.4705" lon="4.6615">
        <ele>563</ele>
        <time>2018-08-15T07:58:31.244Z</time>
      </trkpt>
      <trkpt lat="45.47052" lon="4.66121">
        <ele>560</ele>
        <time>2018-08-15T07:58:32.237Z</time>
      </trkpt>
      <trkpt lat="45.47052" lon="4.66121">
        <ele>560</ele>
        <time>2018-08-15T07:58:33.243Z</time>
      </trkpt>
      <trkpt lat="45.47055" lon="4.66092">
        <ele>558</ele>
        <time>2018-08-15T07:58:34.232Z</time>
      </trkpt>
      <trkpt lat="45.47055" lon="4.66092">
        <ele>558</ele>
        <time>2018-08-15T07:58:35.238Z</time>
      </trkpt>
      <trkpt lat="45.47058" lon="4.66065">
        <ele>556</ele>
        <time>2018-08-15T07:58:36.241Z</time>
      </trkpt>
      <trkpt lat="45.47059" lon="4.66052">
        <ele>555</ele>
        <time>2018-08-15T07:58:37.260Z</time>
      </trkpt>
      <trkpt lat="45.47061" lon="4.6604">
        <ele>554</ele>
        <time>2018-08-15T07:58:38.243Z</time>
      </trkpt>
      <trkpt lat="45.47061" lon="4.6604">
        <ele>554</ele>
        <time>2018-08-15T07:58:39.262Z</time>
      </trkpt>
      <trkpt lat="45.47063" lon="4.66016">
        <ele>552</ele>
        <time>2018-08-15T07:58:40.253Z</time>
      </trkpt>
      <trkpt lat="45.47063" lon="4.66016">
        <ele>552</ele>
        <time>2018-08-15T07:58:41.259Z</time>
      </trkpt>
      <trkpt lat="45.47068" lon="4.65992">
        <ele>551</ele>
        <time>2018-08-15T07:58:42.249Z</time>
      </trkpt>
      <trkpt lat="45.47068" lon="4.65992">
        <ele>551</ele>
        <time>2018-08-15T07:58:43.254Z</time>
      </trkpt>
      <trkpt lat="45.47078" lon="4.65971">
        <ele>549</ele>
        <time>2018-08-15T07:58:44.243Z</time>
      </trkpt>
      <trkpt lat="45.47078" lon="4.65971">
        <ele>549</ele>
        <time>2018-08-15T07:58:45.258Z</time>
      </trkpt>
      <trkpt lat="45.47089" lon="4.65955">
        <ele>547</ele>
        <time>2018-08-15T07:58:46.264Z</time>
      </trkpt>
      <trkpt lat="45.47089" lon="4.65955">
        <ele>547</ele>
        <time>2018-08-15T07:58:47.269Z</time>
      </trkpt>
      <trkpt lat="45.47099" lon="4.65941">
        <ele>545</ele>
        <time>2018-08-15T07:58:48.256Z</time>
      </trkpt>
      <trkpt lat="45.47099" lon="4.65941">
        <ele>545</ele>
        <time>2018-08-15T07:58:49.261Z</time>
      </trkpt>
      <trkpt lat="45.47106" lon="4.65926">
        <ele>544</ele>
        <time>2018-08-15T07:58:50.241Z</time>
      </trkpt>
      <trkpt lat="45.47106" lon="4.65926">
        <ele>544</ele>
        <time>2018-08-15T07:58:51.246Z</time>
      </trkpt>
      <trkpt lat="45.47107" lon="4.65909">
        <ele>542</ele>
        <time>2018-08-15T07:58:52.242Z</time>
      </trkpt>
      <trkpt lat="45.47107" lon="4.65909">
        <ele>542</ele>
        <time>2018-08-15T07:58:53.248Z</time>
      </trkpt>
      <trkpt lat="45.471" lon="4.65892">
        <ele>541</ele>
        <time>2018-08-15T07:58:54.243Z</time>
      </trkpt>
      <trkpt lat="45.47093" lon="4.65888">
        <ele>540</ele>
        <time>2018-08-15T07:58:55.270Z</time>
      </trkpt>
      <trkpt lat="45.47086" lon="4.65888">
        <ele>539</ele>
        <time>2018-08-15T07:58:56.248Z</time>
      </trkpt>
      <trkpt lat="45.47086" lon="4.65888">
        <ele>539</ele>
        <time>2018-08-15T07:58:57.258Z</time>
      </trkpt>
      <trkpt lat="45.47071" lon="4.65895">
        <ele>537</ele>
        <time>2018-08-15T07:58:58.242Z</time>
      </trkpt>
      <trkpt lat="45.47071" lon="4.65895">
        <ele>537</ele>
        <time>2018-08-15T07:58:59.247Z</time>
      </trkpt>
      <trkpt lat="45.47056" lon="4.65905">
        <ele>535</ele>
        <time>2018-08-15T07:59:00.238Z</time>
      </trkpt>
      <trkpt lat="45.47056" lon="4.65905">
        <ele>535</ele>
        <time>2018-08-15T07:59:01.243Z</time>
      </trkpt>
      <trkpt lat="45.4704" lon="4.65916">
        <ele>534</ele>
        <time>2018-08-15T07:59:02.269Z</time>
      </trkpt>
      <trkpt lat="45.4704" lon="4.65916">
        <ele>534</ele>
        <time>2018-08-15T07:59:03.235Z</time>
      </trkpt>
      <trkpt lat="45.47026" lon="4.65927">
        <ele>532</ele>
        <time>2018-08-15T07:59:04.234Z</time>
      </trkpt>
      <trkpt lat="45.47026" lon="4.65927">
        <ele>532</ele>
        <time>2018-08-15T07:59:05.240Z</time>
      </trkpt>
      <trkpt lat="45.47014" lon="4.65943">
        <ele>531</ele>
        <time>2018-08-15T07:59:06.238Z</time>
      </trkpt>
      <trkpt lat="45.47014" lon="4.65943">
        <ele>531</ele>
        <time>2018-08-15T07:59:07.243Z</time>
      </trkpt>
      <trkpt lat="45.47006" lon="4.65964">
        <ele>529</ele>
        <time>2018-08-15T07:59:08.271Z</time>
      </trkpt>
      <trkpt lat="45.47006" lon="4.65964">
        <ele>529</ele>
        <time>2018-08-15T07:59:09.238Z</time>
      </trkpt>
      <trkpt lat="45.47" lon="4.65988">
        <ele>528</ele>
        <time>2018-08-15T07:59:10.272Z</time>
      </trkpt>
      <trkpt lat="45.47" lon="4.65988">
        <ele>528</ele>
        <time>2018-08-15T07:59:11.237Z</time>
      </trkpt>
      <trkpt lat="45.46994" lon="4.66014">
        <ele>526</ele>
        <time>2018-08-15T07:59:12.262Z</time>
      </trkpt>
      <trkpt lat="45.46994" lon="4.66014">
        <ele>526</ele>
        <time>2018-08-15T07:59:13.267Z</time>
      </trkpt>
      <trkpt lat="45.46987" lon="4.66039">
        <ele>525</ele>
        <time>2018-08-15T07:59:14.270Z</time>
      </trkpt>
      <trkpt lat="45.46987" lon="4.66039">
        <ele>525</ele>
        <time>2018-08-15T07:59:15.235Z</time>
      </trkpt>
      <trkpt lat="45.4698" lon="4.66063">
        <ele>523</ele>
        <time>2018-08-15T07:59:16.256Z</time>
      </trkpt>
      <trkpt lat="45.4698" lon="4.66063">
        <ele>523</ele>
        <time>2018-08-15T07:59:17.235Z</time>
      </trkpt>
      <trkpt lat="45.46974" lon="4.66086">
        <ele>522</ele>
        <time>2018-08-15T07:59:18.236Z</time>
      </trkpt>
      <trkpt lat="45.46974" lon="4.66086">
        <ele>522</ele>
        <time>2018-08-15T07:59:19.241Z</time>
      </trkpt>
      <trkpt lat="45.46969" lon="4.66108">
        <ele>521</ele>
        <time>2018-08-15T07:59:20.246Z</time>
      </trkpt>
      <trkpt lat="45.46969" lon="4.66108">
        <ele>521</ele>
        <time>2018-08-15T07:59:21.252Z</time>
      </trkpt>
      <trkpt lat="45.46963" lon="4.66127">
        <ele>520</ele>
        <time>2018-08-15T07:59:22.236Z</time>
      </trkpt>
      <trkpt lat="45.46958" lon="4.66135">
        <ele>519</ele>
        <time>2018-08-15T07:59:23.271Z</time>
      </trkpt>
      <trkpt lat="45.46958" lon="4.66135">
        <ele>519</ele>
        <time>2018-08-15T07:59:24.236Z</time>
      </trkpt>
      <trkpt lat="45.46945" lon="4.66144">
        <ele>518</ele>
        <time>2018-08-15T07:59:25.234Z</time>
      </trkpt>
      <trkpt lat="45.46938" lon="4.66145">
        <ele>517</ele>
        <time>2018-08-15T07:59:26.268Z</time>
      </trkpt>
      <trkpt lat="45.46938" lon="4.66145">
        <ele>517</ele>
        <time>2018-08-15T07:59:27.233Z</time>
      </trkpt>
      <trkpt lat="45.46924" lon="4.66137">
        <ele>516</ele>
        <time>2018-08-15T07:59:28.259Z</time>
      </trkpt>
      <trkpt lat="45.46924" lon="4.66137">
        <ele>516</ele>
        <time>2018-08-15T07:59:29.264Z</time>
      </trkpt>
      <trkpt lat="45.46919" lon="4.6612">
        <ele>515</ele>
        <time>2018-08-15T07:59:30.250Z</time>
      </trkpt>
      <trkpt lat="45.46919" lon="4.6612">
        <ele>515</ele>
        <time>2018-08-15T07:59:31.258Z</time>
      </trkpt>
      <trkpt lat="45.46919" lon="4.66099">
        <ele>514</ele>
        <time>2018-08-15T07:59:32.245Z</time>
      </trkpt>
      <trkpt lat="45.46919" lon="4.66099">
        <ele>514</ele>
        <time>2018-08-15T07:59:33.251Z</time>
      </trkpt>
      <trkpt lat="45.46924" lon="4.66077">
        <ele>514</ele>
        <time>2018-08-15T07:59:34.246Z</time>
      </trkpt>
      <trkpt lat="45.46924" lon="4.66077">
        <ele>514</ele>
        <time>2018-08-15T07:59:35.260Z</time>
      </trkpt>
      <trkpt lat="45.46926" lon="4.66054">
        <ele>513</ele>
        <time>2018-08-15T07:59:36.253Z</time>
      </trkpt>
      <trkpt lat="45.46925" lon="4.66041">
        <ele>513</ele>
        <time>2018-08-15T07:59:37.266Z</time>
      </trkpt>
      <trkpt lat="45.46922" lon="4.66031">
        <ele>512</ele>
        <time>2018-08-15T07:59:38.266Z</time>
      </trkpt>
      <trkpt lat="45.46922" lon="4.66031">
        <ele>512</ele>
        <time>2018-08-15T07:59:39.271Z</time>
      </trkpt>
      <trkpt lat="45.46914" lon="4.66012">
        <ele>511</ele>
        <time>2018-08-15T07:59:40.263Z</time>
      </trkpt>
      <trkpt lat="45.46914" lon="4.66012">
        <ele>511</ele>
        <time>2018-08-15T07:59:41.269Z</time>
      </trkpt>
      <trkpt lat="45.46902" lon="4.65996">
        <ele>510</ele>
        <time>2018-08-15T07:59:42.264Z</time>
      </trkpt>
      <trkpt lat="45.46902" lon="4.65996">
        <ele>510</ele>
        <time>2018-08-15T07:59:43.269Z</time>
      </trkpt>
      <trkpt lat="45.46891" lon="4.6598">
        <ele>509</ele>
        <time>2018-08-15T07:59:44.259Z</time>
      </trkpt>
      <trkpt lat="45.46891" lon="4.6598">
        <ele>509</ele>
        <time>2018-08-15T07:59:45.265Z</time>
      </trkpt>
      <trkpt lat="45.4688" lon="4.65962">
        <ele>508</ele>
        <time>2018-08-15T07:59:46.268Z</time>
      </trkpt>
      <trkpt lat="45.4688" lon="4.65962">
        <ele>508</ele>
        <time>2018-08-15T07:59:47.233Z</time>
      </trkpt>
      <trkpt lat="45.46869" lon="4.65945">
        <ele>507</ele>
        <time>2018-08-15T07:59:48.252Z</time>
      </trkpt>
      <trkpt lat="45.46865" lon="4.65938">
        <ele>506</ele>
        <time>2018-08-15T07:59:49.243Z</time>
      </trkpt>
      <trkpt lat="45.46862" lon="4.65931">
        <ele>506</ele>
        <time>2018-08-15T07:59:50.268Z</time>
      </trkpt>
      <trkpt lat="45.46862" lon="4.65931">
        <ele>506</ele>
        <time>2018-08-15T07:59:51.234Z</time>
      </trkpt>
      <trkpt lat="45.4686" lon="4.65916">
        <ele>505</ele>
        <time>2018-08-15T07:59:52.262Z</time>
      </trkpt>
      <trkpt lat="45.4686" lon="4.65916">
        <ele>505</ele>
        <time>2018-08-15T07:59:53.268Z</time>
      </trkpt>
      <trkpt lat="45.46864" lon="4.65905">
        <ele>504</ele>
        <time>2018-08-15T07:59:54.258Z</time>
      </trkpt>
      <trkpt lat="45.46864" lon="4.65905">
        <ele>504</ele>
        <time>2018-08-15T07:59:55.263Z</time>
      </trkpt>
      <trkpt lat="45.46873" lon="4.65907">
        <ele>503</ele>
        <time>2018-08-15T07:59:56.233Z</time>
      </trkpt>
      <trkpt lat="45.46873" lon="4.65907">
        <ele>503</ele>
        <time>2018-08-15T07:59:57.239Z</time>
      </trkpt>
      <trkpt lat="45.46882" lon="4.6592">
        <ele>502</ele>
        <time>2018-08-15T07:59:58.233Z</time>
      </trkpt>
      <trkpt lat="45.46882" lon="4.6592">
        <ele>502</ele>
        <time>2018-08-15T07:59:59.238Z</time>
      </trkpt>
      <trkpt lat="45.46889" lon="4.65936">
        <ele>501</ele>
        <time>2018-08-15T08:00:00.233Z</time>
      </trkpt>
      <trkpt lat="45.46889" lon="4.65936">
        <ele>501</ele>
        <time>2018-08-15T08:00:01.238Z</time>
      </trkpt>
      <trkpt lat="45.46899" lon="4.65947">
        <ele>501</ele>
        <time>2018-08-15T08:00:02.267Z</time>
      </trkpt>
      <trkpt lat="45.46899" lon="4.65947">
        <ele>501</ele>
        <time>2018-08-15T08:00:03.232Z</time>
      </trkpt>
      <trkpt lat="45.46909" lon="4.65947">
        <ele>500</ele>
        <time>2018-08-15T08:00:04.254Z</time>
      </trkpt>
      <trkpt lat="45.46909" lon="4.65947">
        <ele>500</ele>
        <time>2018-08-15T08:00:05.261Z</time>
      </trkpt>
      <trkpt lat="45.46918" lon="4.65938">
        <ele>500</ele>
        <time>2018-08-15T08:00:06.243Z</time>
      </trkpt>
      <trkpt lat="45.46918" lon="4.65938">
        <ele>500</ele>
        <time>2018-08-15T08:00:07.254Z</time>
      </trkpt>
      <trkpt lat="45.46923" lon="4.65919">
        <ele>499</ele>
        <time>2018-08-15T08:00:08.239Z</time>
      </trkpt>
      <trkpt lat="45.46923" lon="4.65919">
        <ele>499</ele>
        <time>2018-08-15T08:00:09.244Z</time>
      </trkpt>
      <trkpt lat="45.46929" lon="4.65898">
        <ele>499</ele>
        <time>2018-08-15T08:00:10.265Z</time>
      </trkpt>
      <trkpt lat="45.46929" lon="4.65898">
        <ele>499</ele>
        <time>2018-08-15T08:00:11.270Z</time>
      </trkpt>
      <trkpt lat="45.46938" lon="4.65877">
        <ele>498</ele>
        <time>2018-08-15T08:00:12.265Z</time>
      </trkpt>
      <trkpt lat="45.46944" lon="4.65868">
        <ele>498</ele>
        <time>2018-08-15T08:00:13.255Z</time>
      </trkpt>
      <trkpt lat="45.46951" lon="4.65859">
        <ele>498</ele>
        <time>2018-08-15T08:00:14.252Z</time>
      </trkpt>
      <trkpt lat="45.46951" lon="4.65859">
        <ele>498</ele>
        <time>2018-08-15T08:00:15.257Z</time>
      </trkpt>
      <trkpt lat="45.46966" lon="4.65843">
        <ele>497</ele>
        <time>2018-08-15T08:00:16.244Z</time>
      </trkpt>
      <trkpt lat="45.46966" lon="4.65843">
        <ele>497</ele>
        <time>2018-08-15T08:00:17.249Z</time>
      </trkpt>
      <trkpt lat="45.46981" lon="4.65827">
        <ele>496</ele>
        <time>2018-08-15T08:00:18.258Z</time>
      </trkpt>
      <trkpt lat="45.46989" lon="4.65818">
        <ele>496</ele>
        <time>2018-08-15T08:00:19.244Z</time>
      </trkpt>
      <trkpt lat="45.46997" lon="4.6581">
        <ele>496</ele>
        <time>2018-08-15T08:00:20.235Z</time>
      </trkpt>
      <trkpt lat="45.46997" lon="4.6581">
        <ele>496</ele>
        <time>2018-08-15T08:00:21.240Z</time>
      </trkpt>
      <trkpt lat="45.47012" lon="4.6579">
        <ele>496</ele>
        <time>2018-08-15T08:00:22.243Z</time>
      </trkpt>
      <trkpt lat="45.47018" lon="4.65781">
        <ele>495</ele>
        <time>2018-08-15T08:00:23.260Z</time>
      </trkpt>
      <trkpt lat="45.47018" lon="4.65781">
        <ele>495</ele>
        <time>2018-08-15T08:00:24.233Z</time>
      </trkpt>
      <trkpt lat="45.47031" lon="4.65763">
        <ele>495</ele>
        <time>2018-08-15T08:00:25.258Z</time>
      </trkpt>
      <trkpt lat="45.47037" lon="4.65753">
        <ele>495</ele>
        <time>2018-08-15T08:00:26.246Z</time>
      </trkpt>
      <trkpt lat="45.47037" lon="4.65753">
        <ele>495</ele>
        <time>2018-08-15T08:00:27.262Z</time>
      </trkpt>
      <trkpt lat="45.47046" lon="4.65733">
        <ele>494</ele>
        <time>2018-08-15T08:00:28.243Z</time>
      </trkpt>
      <trkpt lat="45.47046" lon="4.65733">
        <ele>494</ele>
        <time>2018-08-15T08:00:29.253Z</time>
      </trkpt>
      <trkpt lat="45.47054" lon="4.65711">
        <ele>494</ele>
        <time>2018-08-15T08:00:30.246Z</time>
      </trkpt>
      <trkpt lat="45.47054" lon="4.65711">
        <ele>494</ele>
        <time>2018-08-15T08:00:31.253Z</time>
      </trkpt>
      <trkpt lat="45.47062" lon="4.65692">
        <ele>493</ele>
        <time>2018-08-15T08:00:32.241Z</time>
      </trkpt>
      <trkpt lat="45.47062" lon="4.65692">
        <ele>493</ele>
        <time>2018-08-15T08:00:33.247Z</time>
      </trkpt>
      <trkpt lat="45.47076" lon="4.65677">
        <ele>492</ele>
        <time>2018-08-15T08:00:34.265Z</time>
      </trkpt>
      <trkpt lat="45.47076" lon="4.65677">
        <ele>492</ele>
        <time>2018-08-15T08:00:35.270Z</time>
      </trkpt>
      <trkpt lat="45.4709" lon="4.6566">
        <ele>492</ele>
        <time>2018-08-15T08:00:36.248Z</time>
      </trkpt>
      <trkpt lat="45.47098" lon="4.65654">
        <ele>491</ele>
        <time>2018-08-15T08:00:37.243Z</time>
      </trkpt>
      <trkpt lat="45.47107" lon="4.65648">
        <ele>491</ele>
        <time>2018-08-15T08:00:38.243Z</time>
      </trkpt>
      <trkpt lat="45.47107" lon="4.65648">
        <ele>491</ele>
        <time>2018-08-15T08:00:39.248Z</time>
      </trkpt>
      <trkpt lat="45.47126" lon="4.65641">
        <ele>490</ele>
        <time>2018-08-15T08:00:40.245Z</time>
      </trkpt>
      <trkpt lat="45.47126" lon="4.65641">
        <ele>490</ele>
        <time>2018-08-15T08:00:41.250Z</time>
      </trkpt>
      <trkpt lat="45.47145" lon="4.65636">
        <ele>490</ele>
        <time>2018-08-15T08:00:42.273Z</time>
      </trkpt>
      <trkpt lat="45.47145" lon="4.65636">
        <ele>490</ele>
        <time>2018-08-15T08:00:43.242Z</time>
      </trkpt>
      <trkpt lat="45.47165" lon="4.65635">
        <ele>489</ele>
        <time>2018-08-15T08:00:44.233Z</time>
      </trkpt>
      <trkpt lat="45.47165" lon="4.65635">
        <ele>489</ele>
        <time>2018-08-15T08:00:45.238Z</time>
      </trkpt>
      <trkpt lat="45.47184" lon="4.65634">
        <ele>488</ele>
        <time>2018-08-15T08:00:46.270Z</time>
      </trkpt>
      <trkpt lat="45.47184" lon="4.65634">
        <ele>488</ele>
        <time>2018-08-15T08:00:47.235Z</time>
      </trkpt>
      <trkpt lat="45.47201" lon="4.65632">
        <ele>488</ele>
        <time>2018-08-15T08:00:48.254Z</time>
      </trkpt>
      <trkpt lat="45.47201" lon="4.65632">
        <ele>488</ele>
        <time>2018-08-15T08:00:49.260Z</time>
      </trkpt>
      <trkpt lat="45.47218" lon="4.65627">
        <ele>487</ele>
        <time>2018-08-15T08:00:50.253Z</time>
      </trkpt>
      <trkpt lat="45.47218" lon="4.65627">
        <ele>487</ele>
        <time>2018-08-15T08:00:51.261Z</time>
      </trkpt>
      <trkpt lat="45.47238" lon="4.65618">
        <ele>487</ele>
        <time>2018-08-15T08:00:52.260Z</time>
      </trkpt>
      <trkpt lat="45.47238" lon="4.65618">
        <ele>487</ele>
        <time>2018-08-15T08:00:53.266Z</time>
      </trkpt>
      <trkpt lat="45.47257" lon="4.65608">
        <ele>487</ele>
        <time>2018-08-15T08:00:54.234Z</time>
      </trkpt>
      <trkpt lat="45.47267" lon="4.65605">
        <ele>487</ele>
        <time>2018-08-15T08:00:55.265Z</time>
      </trkpt>
      <trkpt lat="45.47278" lon="4.65602">
        <ele>486</ele>
        <time>2018-08-15T08:00:56.255Z</time>
      </trkpt>
      <trkpt lat="45.47278" lon="4.65602">
        <ele>486</ele>
        <time>2018-08-15T08:00:57.260Z</time>
      </trkpt>
      <trkpt lat="45.473" lon="4.656">
        <ele>485</ele>
        <time>2018-08-15T08:00:58.260Z</time>
      </trkpt>
      <trkpt lat="45.473" lon="4.656">
        <ele>485</ele>
        <time>2018-08-15T08:00:59.265Z</time>
      </trkpt>
      <trkpt lat="45.47322" lon="4.65599">
        <ele>484</ele>
        <time>2018-08-15T08:01:00.249Z</time>
      </trkpt>
      <trkpt lat="45.47322" lon="4.65599">
        <ele>484</ele>
        <time>2018-08-15T08:01:01.257Z</time>
      </trkpt>
      <trkpt lat="45.47344" lon="4.65597">
        <ele>483</ele>
        <time>2018-08-15T08:01:02.249Z</time>
      </trkpt>
      <trkpt lat="45.47344" lon="4.65597">
        <ele>483</ele>
        <time>2018-08-15T08:01:03.234Z</time>
      </trkpt>
      <trkpt lat="45.47366" lon="4.65595">
        <ele>481</ele>
        <time>2018-08-15T08:01:04.242Z</time>
      </trkpt>
      <trkpt lat="45.47366" lon="4.65595">
        <ele>481</ele>
        <time>2018-08-15T08:01:05.247Z</time>
      </trkpt>
      <trkpt lat="45.47385" lon="4.6559">
        <ele>479</ele>
        <time>2018-08-15T08:01:06.251Z</time>
      </trkpt>
      <trkpt lat="45.47385" lon="4.6559">
        <ele>479</ele>
        <time>2018-08-15T08:01:07.243Z</time>
      </trkpt>
      <trkpt lat="45.47402" lon="4.65586">
        <ele>477</ele>
        <time>2018-08-15T08:01:08.232Z</time>
      </trkpt>
      <trkpt lat="45.47402" lon="4.65586">
        <ele>477</ele>
        <time>2018-08-15T08:01:09.237Z</time>
      </trkpt>
      <trkpt lat="45.47421" lon="4.65582">
        <ele>476</ele>
        <time>2018-08-15T08:01:10.239Z</time>
      </trkpt>
      <trkpt lat="45.47421" lon="4.65582">
        <ele>476</ele>
        <time>2018-08-15T08:01:11.245Z</time>
      </trkpt>
      <trkpt lat="45.47439" lon="4.65576">
        <ele>475</ele>
        <time>2018-08-15T08:01:12.263Z</time>
      </trkpt>
      <trkpt lat="45.47439" lon="4.65576">
        <ele>475</ele>
        <time>2018-08-15T08:01:13.268Z</time>
      </trkpt>
      <trkpt lat="45.47456" lon="4.65562">
        <ele>474</ele>
        <time>2018-08-15T08:01:14.237Z</time>
      </trkpt>
      <trkpt lat="45.47456" lon="4.65562">
        <ele>474</ele>
        <time>2018-08-15T08:01:15.244Z</time>
      </trkpt>
      <trkpt lat="45.47471" lon="4.65544">
        <ele>473</ele>
        <time>2018-08-15T08:01:16.269Z</time>
      </trkpt>
      <trkpt lat="45.47471" lon="4.65544">
        <ele>473</ele>
        <time>2018-08-15T08:01:17.257Z</time>
      </trkpt>
      <trkpt lat="45.47483" lon="4.65523">
        <ele>472</ele>
        <time>2018-08-15T08:01:18.246Z</time>
      </trkpt>
      <trkpt lat="45.47483" lon="4.65523">
        <ele>472</ele>
        <time>2018-08-15T08:01:19.251Z</time>
      </trkpt>
      <trkpt lat="45.47494" lon="4.65498">
        <ele>470</ele>
        <time>2018-08-15T08:01:20.239Z</time>
      </trkpt>
      <trkpt lat="45.47494" lon="4.65498">
        <ele>470</ele>
        <time>2018-08-15T08:01:21.244Z</time>
      </trkpt>
      <trkpt lat="45.47505" lon="4.65471">
        <ele>469</ele>
        <time>2018-08-15T08:01:22.265Z</time>
      </trkpt>
      <trkpt lat="45.47505" lon="4.65471">
        <ele>469</ele>
        <time>2018-08-15T08:01:23.270Z</time>
      </trkpt>
      <trkpt lat="45.47518" lon="4.65445">
        <ele>468</ele>
        <time>2018-08-15T08:01:24.237Z</time>
      </trkpt>
      <trkpt lat="45.47518" lon="4.65445">
        <ele>468</ele>
        <time>2018-08-15T08:01:25.251Z</time>
      </trkpt>
      <trkpt lat="45.47532" lon="4.65422">
        <ele>467</ele>
        <time>2018-08-15T08:01:26.241Z</time>
      </trkpt>
      <trkpt lat="45.47532" lon="4.65422">
        <ele>467</ele>
        <time>2018-08-15T08:01:27.247Z</time>
      </trkpt>
      <trkpt lat="45.47546" lon="4.65401">
        <ele>466</ele>
        <time>2018-08-15T08:01:28.242Z</time>
      </trkpt>
      <trkpt lat="45.47546" lon="4.65401">
        <ele>466</ele>
        <time>2018-08-15T08:01:29.248Z</time>
      </trkpt>
      <trkpt lat="45.47559" lon="4.65379">
        <ele>465</ele>
        <time>2018-08-15T08:01:30.244Z</time>
      </trkpt>
      <trkpt lat="45.47559" lon="4.65379">
        <ele>465</ele>
        <time>2018-08-15T08:01:31.249Z</time>
      </trkpt>
      <trkpt lat="45.47572" lon="4.65356">
        <ele>464</ele>
        <time>2018-08-15T08:01:32.241Z</time>
      </trkpt>
      <trkpt lat="45.47572" lon="4.65356">
        <ele>464</ele>
        <time>2018-08-15T08:01:33.246Z</time>
      </trkpt>
      <trkpt lat="45.47583" lon="4.65332">
        <ele>463</ele>
        <time>2018-08-15T08:01:34.239Z</time>
      </trkpt>
      <trkpt lat="45.47583" lon="4.65332">
        <ele>463</ele>
        <time>2018-08-15T08:01:35.244Z</time>
      </trkpt>
      <trkpt lat="45.47593" lon="4.65304">
        <ele>462</ele>
        <time>2018-08-15T08:01:36.236Z</time>
      </trkpt>
      <trkpt lat="45.47597" lon="4.65291">
        <ele>461</ele>
        <time>2018-08-15T08:01:37.238Z</time>
      </trkpt>
      <trkpt lat="45.47602" lon="4.65278">
        <ele>460</ele>
        <time>2018-08-15T08:01:38.255Z</time>
      </trkpt>
      <trkpt lat="45.47602" lon="4.65278">
        <ele>460</ele>
        <time>2018-08-15T08:01:39.262Z</time>
      </trkpt>
      <trkpt lat="45.4761" lon="4.65252">
        <ele>459</ele>
        <time>2018-08-15T08:01:40.257Z</time>
      </trkpt>
      <trkpt lat="45.4761" lon="4.65252">
        <ele>459</ele>
        <time>2018-08-15T08:01:41.262Z</time>
      </trkpt>
      <trkpt lat="45.47619" lon="4.65227">
        <ele>458</ele>
        <time>2018-08-15T08:01:42.255Z</time>
      </trkpt>
      <trkpt lat="45.47619" lon="4.65227">
        <ele>458</ele>
        <time>2018-08-15T08:01:43.262Z</time>
      </trkpt>
      <trkpt lat="45.47627" lon="4.65201">
        <ele>457</ele>
        <time>2018-08-15T08:01:44.252Z</time>
      </trkpt>
      <trkpt lat="45.47627" lon="4.65201">
        <ele>457</ele>
        <time>2018-08-15T08:01:45.258Z</time>
      </trkpt>
      <trkpt lat="45.47636" lon="4.65175">
        <ele>456</ele>
        <time>2018-08-15T08:01:46.243Z</time>
      </trkpt>
      <trkpt lat="45.47636" lon="4.65175">
        <ele>456</ele>
        <time>2018-08-15T08:01:47.248Z</time>
      </trkpt>
      <trkpt lat="45.47644" lon="4.6515">
        <ele>455</ele>
        <time>2018-08-15T08:01:48.243Z</time>
      </trkpt>
      <trkpt lat="45.47644" lon="4.6515">
        <ele>455</ele>
        <time>2018-08-15T08:01:49.250Z</time>
      </trkpt>
      <trkpt lat="45.4765" lon="4.65123">
        <ele>453</ele>
        <time>2018-08-15T08:01:50.237Z</time>
      </trkpt>
      <trkpt lat="45.4765" lon="4.65123">
        <ele>453</ele>
        <time>2018-08-15T08:01:51.242Z</time>
      </trkpt>
      <trkpt lat="45.47656" lon="4.65097">
        <ele>452</ele>
        <time>2018-08-15T08:01:52.245Z</time>
      </trkpt>
      <trkpt lat="45.47656" lon="4.65097">
        <ele>452</ele>
        <time>2018-08-15T08:01:53.250Z</time>
      </trkpt>
      <trkpt lat="45.4766" lon="4.65073">
        <ele>452</ele>
        <time>2018-08-15T08:01:54.243Z</time>
      </trkpt>
      <trkpt lat="45.4766" lon="4.65073">
        <ele>452</ele>
        <time>2018-08-15T08:01:55.248Z</time>
      </trkpt>
      <trkpt lat="45.47667" lon="4.65051">
        <ele>451</ele>
        <time>2018-08-15T08:01:56.269Z</time>
      </trkpt>
      <trkpt lat="45.47667" lon="4.65051">
        <ele>451</ele>
        <time>2018-08-15T08:01:57.242Z</time>
      </trkpt>
      <trkpt lat="45.47678" lon="4.6503">
        <ele>450</ele>
        <time>2018-08-15T08:01:58.264Z</time>
      </trkpt>
      <trkpt lat="45.47678" lon="4.6503">
        <ele>450</ele>
        <time>2018-08-15T08:01:59.269Z</time>
      </trkpt>
      <trkpt lat="45.4769" lon="4.65009">
        <ele>448</ele>
        <time>2018-08-15T08:02:00.233Z</time>
      </trkpt>
      <trkpt lat="45.4769" lon="4.65009">
        <ele>448</ele>
        <time>2018-08-15T08:02:01.238Z</time>
      </trkpt>
      <trkpt lat="45.47701" lon="4.64988">
        <ele>447</ele>
        <time>2018-08-15T08:02:02.233Z</time>
      </trkpt>
      <trkpt lat="45.47701" lon="4.64988">
        <ele>447</ele>
        <time>2018-08-15T08:02:03.238Z</time>
      </trkpt>
      <trkpt lat="45.47714" lon="4.64966">
        <ele>447</ele>
        <time>2018-08-15T08:02:04.268Z</time>
      </trkpt>
      <trkpt lat="45.47714" lon="4.64966">
        <ele>447</ele>
        <time>2018-08-15T08:02:05.233Z</time>
      </trkpt>
      <trkpt lat="45.47725" lon="4.64945">
        <ele>445</ele>
        <time>2018-08-15T08:02:06.261Z</time>
      </trkpt>
      <trkpt lat="45.47725" lon="4.64945">
        <ele>445</ele>
        <time>2018-08-15T08:02:07.267Z</time>
      </trkpt>
      <trkpt lat="45.47737" lon="4.64924">
        <ele>444</ele>
        <time>2018-08-15T08:02:08.267Z</time>
      </trkpt>
      <trkpt lat="45.47737" lon="4.64924">
        <ele>444</ele>
        <time>2018-08-15T08:02:09.232Z</time>
      </trkpt>
      <trkpt lat="45.47749" lon="4.64903">
        <ele>443</ele>
        <time>2018-08-15T08:02:10.262Z</time>
      </trkpt>
      <trkpt lat="45.47749" lon="4.64903">
        <ele>443</ele>
        <time>2018-08-15T08:02:11.268Z</time>
      </trkpt>
      <trkpt lat="45.47762" lon="4.64885">
        <ele>441</ele>
        <time>2018-08-15T08:02:12.263Z</time>
      </trkpt>
      <trkpt lat="45.47762" lon="4.64885">
        <ele>441</ele>
        <time>2018-08-15T08:02:13.268Z</time>
      </trkpt>
      <trkpt lat="45.47775" lon="4.64867">
        <ele>440</ele>
        <time>2018-08-15T08:02:14.264Z</time>
      </trkpt>
      <trkpt lat="45.47775" lon="4.64867">
        <ele>440</ele>
        <time>2018-08-15T08:02:15.269Z</time>
      </trkpt>
      <trkpt lat="45.47789" lon="4.6485">
        <ele>439</ele>
        <time>2018-08-15T08:02:16.265Z</time>
      </trkpt>
      <trkpt lat="45.47789" lon="4.6485">
        <ele>439</ele>
        <time>2018-08-15T08:02:17.270Z</time>
      </trkpt>
      <trkpt lat="45.47803" lon="4.64831">
        <ele>438</ele>
        <time>2018-08-15T08:02:18.235Z</time>
      </trkpt>
      <trkpt lat="45.47803" lon="4.64831">
        <ele>438</ele>
        <time>2018-08-15T08:02:19.240Z</time>
      </trkpt>
      <trkpt lat="45.47816" lon="4.64814">
        <ele>437</ele>
        <time>2018-08-15T08:02:20.233Z</time>
      </trkpt>
      <trkpt lat="45.47816" lon="4.64814">
        <ele>437</ele>
        <time>2018-08-15T08:02:21.238Z</time>
      </trkpt>
      <trkpt lat="45.4783" lon="4.64797">
        <ele>436</ele>
        <time>2018-08-15T08:02:22.269Z</time>
      </trkpt>
      <trkpt lat="45.47837" lon="4.64789">
        <ele>435</ele>
        <time>2018-08-15T08:02:23.259Z</time>
      </trkpt>
      <trkpt lat="45.47837" lon="4.64789">
        <ele>435</ele>
        <time>2018-08-15T08:02:24.264Z</time>
      </trkpt>
      <trkpt lat="45.47847" lon="4.64774">
        <ele>434</ele>
        <time>2018-08-15T08:02:25.248Z</time>
      </trkpt>
      <trkpt lat="45.47852" lon="4.64768">
        <ele>434</ele>
        <time>2018-08-15T08:02:26.252Z</time>
      </trkpt>
      <trkpt lat="45.47852" lon="4.64768">
        <ele>434</ele>
        <time>2018-08-15T08:02:27.258Z</time>
      </trkpt>
      <trkpt lat="45.4786" lon="4.64757">
        <ele>432</ele>
        <time>2018-08-15T08:02:28.251Z</time>
      </trkpt>
      <trkpt lat="45.4786" lon="4.64757">
        <ele>432</ele>
        <time>2018-08-15T08:02:29.269Z</time>
      </trkpt>
      <trkpt lat="45.47868" lon="4.64747">
        <ele>431</ele>
        <time>2018-08-15T08:02:30.271Z</time>
      </trkpt>
      <trkpt lat="45.47868" lon="4.64747">
        <ele>431</ele>
        <time>2018-08-15T08:02:31.236Z</time>
      </trkpt>
      <trkpt lat="45.47874" lon="4.64737">
        <ele>430</ele>
        <time>2018-08-15T08:02:32.236Z</time>
      </trkpt>
      <trkpt lat="45.47874" lon="4.64737">
        <ele>430</ele>
        <time>2018-08-15T08:02:33.242Z</time>
      </trkpt>
      <trkpt lat="45.47881" lon="4.64729">
        <ele>429</ele>
        <time>2018-08-15T08:02:34.243Z</time>
      </trkpt>
      <trkpt lat="45.47881" lon="4.64729">
        <ele>429</ele>
        <time>2018-08-15T08:02:35.248Z</time>
      </trkpt>
      <trkpt lat="45.47885" lon="4.64723">
        <ele>428</ele>
        <time>2018-08-15T08:02:36.248Z</time>
      </trkpt>
      <trkpt lat="45.47887" lon="4.6472">
        <ele>427</ele>
        <time>2018-08-15T08:02:37.270Z</time>
      </trkpt>
      <trkpt lat="45.47888" lon="4.64718">
        <ele>426</ele>
        <time>2018-08-15T08:02:38.233Z</time>
      </trkpt>
      <trkpt lat="45.47888" lon="4.64718">
        <ele>426</ele>
        <time>2018-08-15T08:02:39.239Z</time>
      </trkpt>
      <trkpt lat="45.47891" lon="4.64715">
        <ele>425</ele>
        <time>2018-08-15T08:02:40.238Z</time>
      </trkpt>
      <trkpt lat="45.47891" lon="4.64715">
        <ele>425</ele>
        <time>2018-08-15T08:02:41.244Z</time>
      </trkpt>
      <trkpt lat="45.47894" lon="4.64712">
        <ele>425</ele>
        <time>2018-08-15T08:02:42.240Z</time>
      </trkpt>
      <trkpt lat="45.47894" lon="4.64712">
        <ele>425</ele>
        <time>2018-08-15T08:02:43.245Z</time>
      </trkpt>
      <trkpt lat="45.47897" lon="4.64712">
        <ele>424</ele>
        <time>2018-08-15T08:02:44.272Z</time>
      </trkpt>
      <trkpt lat="45.47897" lon="4.64712">
        <ele>424</ele>
        <time>2018-08-15T08:02:45.237Z</time>
      </trkpt>
      <trkpt lat="45.479" lon="4.64711">
        <ele>423</ele>
        <time>2018-08-15T08:02:46.242Z</time>
      </trkpt>
      <trkpt lat="45.479" lon="4.64711">
        <ele>423</ele>
        <time>2018-08-15T08:02:47.255Z</time>
      </trkpt>
      <trkpt lat="45.47903" lon="4.64711">
        <ele>423</ele>
        <time>2018-08-15T08:02:48.243Z</time>
      </trkpt>
      <trkpt lat="45.47903" lon="4.64711">
        <ele>423</ele>
        <time>2018-08-15T08:02:49.260Z</time>
      </trkpt>
      <trkpt lat="45.47905" lon="4.64709">
        <ele>422</ele>
        <time>2018-08-15T08:02:50.257Z</time>
      </trkpt>
      <trkpt lat="45.47905" lon="4.64709">
        <ele>422</ele>
        <time>2018-08-15T08:02:51.267Z</time>
      </trkpt>
      <trkpt lat="45.47906" lon="4.64706">
        <ele>422</ele>
        <time>2018-08-15T08:02:52.243Z</time>
      </trkpt>
      <trkpt lat="45.47906" lon="4.64706">
        <ele>422</ele>
        <time>2018-08-15T08:02:53.248Z</time>
      </trkpt>
      <trkpt lat="45.47905" lon="4.64704">
        <ele>422</ele>
        <time>2018-08-15T08:02:54.252Z</time>
      </trkpt>
      <trkpt lat="45.47905" lon="4.64704">
        <ele>422</ele>
        <time>2018-08-15T08:02:55.270Z</time>
      </trkpt>
      <trkpt lat="45.47908" lon="4.64706">
        <ele>415</ele>
        <time>2018-08-15T08:02:56.332Z</time>
      </trkpt>
      <trkpt lat="45.47908" lon="4.64706">
        <ele>415</ele>
        <time>2018-08-15T08:02:57.253Z</time>
      </trkpt>
      <trkpt lat="45.47908" lon="4.64706">
        <ele>415</ele>
        <time>2018-08-15T08:02:58.267Z</time>
      </trkpt>
      <trkpt lat="45.47908" lon="4.64706">
        <ele>415</ele>
        <time>2018-08-15T08:02:59.239Z</time>
      </trkpt>
      <trkpt lat="45.47908" lon="4.64706">
        <ele>415</ele>
        <time>2018-08-15T08:03:00.267Z</time>
      </trkpt>
      <trkpt lat="45.47909" lon="4.64712">
        <ele>415</ele>
        <time>2018-08-15T08:03:01.364Z</time>
      </trkpt>
      <trkpt lat="45.47909" lon="4.64712">
        <ele>415</ele>
        <time>2018-08-15T08:03:02.243Z</time>
      </trkpt>
      <trkpt lat="45.47911" lon="4.64713">
        <ele>416</ele>
        <time>2018-08-15T08:03:03.256Z</time>
      </trkpt>
      <trkpt lat="45.47911" lon="4.64713">
        <ele>416</ele>
        <time>2018-08-15T08:03:04.247Z</time>
      </trkpt>
      <trkpt lat="45.47914" lon="4.64713">
        <ele>416</ele>
        <time>2018-08-15T08:03:05.260Z</time>
      </trkpt>
      <trkpt lat="45.47914" lon="4.64713">
        <ele>416</ele>
        <time>2018-08-15T08:03:06.249Z</time>
      </trkpt>
      <trkpt lat="45.47917" lon="4.64715">
        <ele>417</ele>
        <time>2018-08-15T08:03:07.264Z</time>
      </trkpt>
      <trkpt lat="45.47917" lon="4.64715">
        <ele>417</ele>
        <time>2018-08-15T08:03:08.269Z</time>
      </trkpt>
      <trkpt lat="45.4792" lon="4.64716">
        <ele>417</ele>
        <time>2018-08-15T08:03:09.237Z</time>
      </trkpt>
      <trkpt lat="45.4792" lon="4.64716">
        <ele>417</ele>
        <time>2018-08-15T08:03:10.248Z</time>
      </trkpt>
      <trkpt lat="45.47924" lon="4.6472">
        <ele>418</ele>
        <time>2018-08-15T08:03:11.262Z</time>
      </trkpt>
      <trkpt lat="45.47924" lon="4.6472">
        <ele>418</ele>
        <time>2018-08-15T08:03:12.233Z</time>
      </trkpt>
      <trkpt lat="45.47929" lon="4.64725">
        <ele>418</ele>
        <time>2018-08-15T08:03:13.245Z</time>
      </trkpt>
      <trkpt lat="45.47929" lon="4.64725">
        <ele>418</ele>
        <time>2018-08-15T08:03:14.238Z</time>
      </trkpt>
      <trkpt lat="45.47934" lon="4.64732">
        <ele>419</ele>
        <time>2018-08-15T08:03:15.316Z</time>
      </trkpt>
      <trkpt lat="45.47934" lon="4.64732">
        <ele>419</ele>
        <time>2018-08-15T08:03:16.265Z</time>
      </trkpt>
      <trkpt lat="45.4794" lon="4.64739">
        <ele>419</ele>
        <time>2018-08-15T08:03:17.238Z</time>
      </trkpt>
      <trkpt lat="45.4794" lon="4.64739">
        <ele>419</ele>
        <time>2018-08-15T08:03:18.259Z</time>
      </trkpt>
      <trkpt lat="45.47946" lon="4.64746">
        <ele>420</ele>
        <time>2018-08-15T08:03:19.270Z</time>
      </trkpt>
      <trkpt lat="45.47949" lon="4.6475">
        <ele>420</ele>
        <time>2018-08-15T08:03:20.245Z</time>
      </trkpt>
      <trkpt lat="45.47949" lon="4.6475">
        <ele>420</ele>
        <time>2018-08-15T08:03:21.260Z</time>
      </trkpt>
      <trkpt lat="45.47954" lon="4.64756">
        <ele>422</ele>
        <time>2018-08-15T08:03:22.233Z</time>
      </trkpt>
      <trkpt lat="45.47954" lon="4.64758">
        <ele>422</ele>
        <time>2018-08-15T08:03:23.255Z</time>
      </trkpt>
      <trkpt lat="45.47954" lon="4.64758">
        <ele>422</ele>
        <time>2018-08-15T08:03:24.242Z</time>
      </trkpt>
      <trkpt lat="45.47956" lon="4.64757">
        <ele>422</ele>
        <time>2018-08-15T08:03:25.252Z</time>
      </trkpt>
      <trkpt lat="45.47956" lon="4.64756">
        <ele>423</ele>
        <time>2018-08-15T08:03:26.234Z</time>
      </trkpt>
      <trkpt lat="45.47955" lon="4.64753">
        <ele>423</ele>
        <time>2018-08-15T08:03:27.245Z</time>
      </trkpt>
      <trkpt lat="45.47955" lon="4.64753">
        <ele>423</ele>
        <time>2018-08-15T08:03:28.247Z</time>
      </trkpt>
      <trkpt lat="45.47952" lon="4.64749">
        <ele>424</ele>
        <time>2018-08-15T08:03:29.257Z</time>
      </trkpt>
      <trkpt lat="45.47952" lon="4.64749">
        <ele>424</ele>
        <time>2018-08-15T08:03:30.263Z</time>
      </trkpt>
      <trkpt lat="45.47949" lon="4.64746">
        <ele>425</ele>
        <time>2018-08-15T08:03:31.232Z</time>
      </trkpt>
      <trkpt lat="45.47949" lon="4.64746">
        <ele>425</ele>
        <time>2018-08-15T08:03:32.268Z</time>
      </trkpt>
      <trkpt lat="45.47945" lon="4.64744">
        <ele>425</ele>
        <time>2018-08-15T08:03:33.234Z</time>
      </trkpt>
      <trkpt lat="45.47945" lon="4.64744">
        <ele>425</ele>
        <time>2018-08-15T08:03:34.241Z</time>
      </trkpt>
      <trkpt lat="45.47941" lon="4.64746">
        <ele>426</ele>
        <time>2018-08-15T08:03:35.238Z</time>
      </trkpt>
      <trkpt lat="45.47941" lon="4.64746">
        <ele>426</ele>
        <time>2018-08-15T08:03:36.268Z</time>
      </trkpt>
      <trkpt lat="45.47937" lon="4.64749">
        <ele>426</ele>
        <time>2018-08-15T08:03:37.243Z</time>
      </trkpt>
      <trkpt lat="45.47937" lon="4.64749">
        <ele>426</ele>
        <time>2018-08-15T08:03:38.245Z</time>
      </trkpt>
      <trkpt lat="45.47935" lon="4.64755">
        <ele>426</ele>
        <time>2018-08-15T08:03:39.254Z</time>
      </trkpt>
      <trkpt lat="45.47935" lon="4.64755">
        <ele>426</ele>
        <time>2018-08-15T08:03:40.240Z</time>
      </trkpt>
      <trkpt lat="45.47935" lon="4.64761">
        <ele>427</ele>
        <time>2018-08-15T08:03:41.256Z</time>
      </trkpt>
      <trkpt lat="45.47935" lon="4.64761">
        <ele>427</ele>
        <time>2018-08-15T08:03:42.260Z</time>
      </trkpt>
      <trkpt lat="45.47936" lon="4.64767">
        <ele>427</ele>
        <time>2018-08-15T08:03:43.278Z</time>
      </trkpt>
      <trkpt lat="45.47936" lon="4.64767">
        <ele>427</ele>
        <time>2018-08-15T08:03:44.258Z</time>
      </trkpt>
      <trkpt lat="45.47937" lon="4.64774">
        <ele>428</ele>
        <time>2018-08-15T08:03:45.267Z</time>
      </trkpt>
      <trkpt lat="45.47937" lon="4.64774">
        <ele>428</ele>
        <time>2018-08-15T08:03:46.257Z</time>
      </trkpt>
      <trkpt lat="45.47939" lon="4.6478">
        <ele>428</ele>
        <time>2018-08-15T08:03:47.268Z</time>
      </trkpt>
      <trkpt lat="45.47939" lon="4.64783">
        <ele>429</ele>
        <time>2018-08-15T08:03:48.259Z</time>
      </trkpt>
      <trkpt lat="45.47939" lon="4.64783">
        <ele>429</ele>
        <time>2018-08-15T08:03:49.238Z</time>
      </trkpt>
      <trkpt lat="45.47941" lon="4.64788">
        <ele>429</ele>
        <time>2018-08-15T08:03:50.246Z</time>
      </trkpt>
      <trkpt lat="45.47942" lon="4.6479">
        <ele>429</ele>
        <time>2018-08-15T08:03:51.242Z</time>
      </trkpt>
      <trkpt lat="45.47942" lon="4.6479">
        <ele>429</ele>
        <time>2018-08-15T08:03:52.248Z</time>
      </trkpt>
      <trkpt lat="45.47943" lon="4.64797">
        <ele>430</ele>
        <time>2018-08-15T08:03:53.268Z</time>
      </trkpt>
      <trkpt lat="45.47943" lon="4.64797">
        <ele>430</ele>
        <time>2018-08-15T08:03:54.262Z</time>
      </trkpt>
      <trkpt lat="45.47944" lon="4.64803">
        <ele>431</ele>
        <time>2018-08-15T08:03:55.235Z</time>
      </trkpt>
      <trkpt lat="45.47944" lon="4.64803">
        <ele>431</ele>
        <time>2018-08-15T08:03:56.259Z</time>
      </trkpt>
      <trkpt lat="45.47946" lon="4.64809">
        <ele>432</ele>
        <time>2018-08-15T08:03:57.321Z</time>
      </trkpt>
      <trkpt lat="45.47946" lon="4.64809">
        <ele>432</ele>
        <time>2018-08-15T08:03:58.248Z</time>
      </trkpt>
      <trkpt lat="45.47947" lon="4.64817">
        <ele>432</ele>
        <time>2018-08-15T08:03:59.265Z</time>
      </trkpt>
      <trkpt lat="45.47947" lon="4.64817">
        <ele>432</ele>
        <time>2018-08-15T08:04:00.268Z</time>
      </trkpt>
      <trkpt lat="45.47948" lon="4.64824">
        <ele>433</ele>
        <time>2018-08-15T08:04:01.235Z</time>
      </trkpt>
      <trkpt lat="45.47948" lon="4.64824">
        <ele>433</ele>
        <time>2018-08-15T08:04:02.257Z</time>
      </trkpt>
      <trkpt lat="45.47949" lon="4.64831">
        <ele>434</ele>
        <time>2018-08-15T08:04:03.265Z</time>
      </trkpt>
      <trkpt lat="45.47949" lon="4.64831">
        <ele>434</ele>
        <time>2018-08-15T08:04:04.260Z</time>
      </trkpt>
      <trkpt lat="45.4795" lon="4.64838">
        <ele>435</ele>
        <time>2018-08-15T08:04:05.267Z</time>
      </trkpt>
      <trkpt lat="45.4795" lon="4.64838">
        <ele>435</ele>
        <time>2018-08-15T08:04:06.237Z</time>
      </trkpt>
      <trkpt lat="45.47954" lon="4.64849">
        <ele>436</ele>
        <time>2018-08-15T08:04:07.248Z</time>
      </trkpt>
      <trkpt lat="45.47954" lon="4.64849">
        <ele>436</ele>
        <time>2018-08-15T08:04:08.259Z</time>
      </trkpt>
      <trkpt lat="45.47957" lon="4.64856">
        <ele>437</ele>
        <time>2018-08-15T08:04:09.270Z</time>
      </trkpt>
      <trkpt lat="45.47957" lon="4.64856">
        <ele>437</ele>
        <time>2018-08-15T08:04:10.251Z</time>
      </trkpt>
      <trkpt lat="45.4796" lon="4.64866">
        <ele>438</ele>
        <time>2018-08-15T08:04:11.275Z</time>
      </trkpt>
      <trkpt lat="45.47961" lon="4.64869">
        <ele>439</ele>
        <time>2018-08-15T08:04:12.267Z</time>
      </trkpt>
      <trkpt lat="45.47961" lon="4.64869">
        <ele>439</ele>
        <time>2018-08-15T08:04:13.262Z</time>
      </trkpt>
      <trkpt lat="45.47964" lon="4.64876">
        <ele>439</ele>
        <time>2018-08-15T08:04:14.268Z</time>
      </trkpt>
      <trkpt lat="45.47964" lon="4.64879">
        <ele>440</ele>
        <time>2018-08-15T08:04:15.271Z</time>
      </trkpt>
      <trkpt lat="45.47964" lon="4.64879">
        <ele>440</ele>
        <time>2018-08-15T08:04:16.241Z</time>
      </trkpt>
      <trkpt lat="45.47965" lon="4.64886">
        <ele>440</ele>
        <time>2018-08-15T08:04:17.258Z</time>
      </trkpt>
      <trkpt lat="45.47965" lon="4.64886">
        <ele>440</ele>
        <time>2018-08-15T08:04:18.271Z</time>
      </trkpt>
      <trkpt lat="45.47967" lon="4.64891">
        <ele>441</ele>
        <time>2018-08-15T08:04:19.241Z</time>
      </trkpt>
      <trkpt lat="45.47968" lon="4.64895">
        <ele>442</ele>
        <time>2018-08-15T08:04:20.257Z</time>
      </trkpt>
      <trkpt lat="45.47968" lon="4.64895">
        <ele>442</ele>
        <time>2018-08-15T08:04:21.320Z</time>
      </trkpt>
      <trkpt lat="45.47969" lon="4.64898">
        <ele>442</ele>
        <time>2018-08-15T08:04:22.241Z</time>
      </trkpt>
      <trkpt lat="45.47971" lon="4.64904">
        <ele>443</ele>
        <time>2018-08-15T08:04:23.249Z</time>
      </trkpt>
      <trkpt lat="45.47971" lon="4.64904">
        <ele>443</ele>
        <time>2018-08-15T08:04:24.269Z</time>
      </trkpt>
      <trkpt lat="45.47972" lon="4.64911">
        <ele>444</ele>
        <time>2018-08-15T08:04:25.246Z</time>
      </trkpt>
      <trkpt lat="45.47972" lon="4.64911">
        <ele>444</ele>
        <time>2018-08-15T08:04:26.269Z</time>
      </trkpt>
      <trkpt lat="45.47974" lon="4.64917">
        <ele>445</ele>
        <time>2018-08-15T08:04:27.246Z</time>
      </trkpt>
      <trkpt lat="45.47974" lon="4.64917">
        <ele>445</ele>
        <time>2018-08-15T08:04:28.260Z</time>
      </trkpt>
      <trkpt lat="45.47976" lon="4.64922">
        <ele>446</ele>
        <time>2018-08-15T08:04:29.268Z</time>
      </trkpt>
      <trkpt lat="45.47976" lon="4.64922">
        <ele>446</ele>
        <time>2018-08-15T08:04:30.257Z</time>
      </trkpt>
      <trkpt lat="45.47978" lon="4.64927">
        <ele>447</ele>
        <time>2018-08-15T08:04:31.271Z</time>
      </trkpt>
      <trkpt lat="45.47978" lon="4.64927">
        <ele>447</ele>
        <time>2018-08-15T08:04:32.232Z</time>
      </trkpt>
      <trkpt lat="45.4798" lon="4.64934">
        <ele>447</ele>
        <time>2018-08-15T08:04:33.243Z</time>
      </trkpt>
      <trkpt lat="45.4798" lon="4.64934">
        <ele>447</ele>
        <time>2018-08-15T08:04:34.245Z</time>
      </trkpt>
      <trkpt lat="45.47983" lon="4.64942">
        <ele>447</ele>
        <time>2018-08-15T08:04:35.255Z</time>
      </trkpt>
      <trkpt lat="45.47983" lon="4.64942">
        <ele>447</ele>
        <time>2018-08-15T08:04:36.239Z</time>
      </trkpt>
      <trkpt lat="45.47988" lon="4.64952">
        <ele>448</ele>
        <time>2018-08-15T08:04:37.251Z</time>
      </trkpt>
      <trkpt lat="45.47989" lon="4.64957">
        <ele>448</ele>
        <time>2018-08-15T08:04:38.266Z</time>
      </trkpt>
      <trkpt lat="45.47989" lon="4.64961">
        <ele>448</ele>
        <time>2018-08-15T08:04:39.258Z</time>
      </trkpt>
      <trkpt lat="45.47989" lon="4.64961">
        <ele>448</ele>
        <time>2018-08-15T08:04:40.270Z</time>
      </trkpt>
      <trkpt lat="45.47992" lon="4.6497">
        <ele>448</ele>
        <time>2018-08-15T08:04:41.250Z</time>
      </trkpt>
      <trkpt lat="45.47992" lon="4.6497">
        <ele>448</ele>
        <time>2018-08-15T08:04:42.250Z</time>
      </trkpt>
      <trkpt lat="45.47993" lon="4.64976">
        <ele>448</ele>
        <time>2018-08-15T08:04:43.265Z</time>
      </trkpt>
      <trkpt lat="45.47993" lon="4.64976">
        <ele>448</ele>
        <time>2018-08-15T08:04:44.260Z</time>
      </trkpt>
      <trkpt lat="45.47995" lon="4.6498">
        <ele>449</ele>
        <time>2018-08-15T08:04:45.268Z</time>
      </trkpt>
      <trkpt lat="45.47995" lon="4.6498">
        <ele>449</ele>
        <time>2018-08-15T08:04:46.244Z</time>
      </trkpt>
      <trkpt lat="45.47997" lon="4.64986">
        <ele>449</ele>
        <time>2018-08-15T08:04:47.249Z</time>
      </trkpt>
      <trkpt lat="45.47997" lon="4.64986">
        <ele>449</ele>
        <time>2018-08-15T08:04:48.237Z</time>
      </trkpt>
      <trkpt lat="45.48" lon="4.6499">
        <ele>449</ele>
        <time>2018-08-15T08:04:49.232Z</time>
      </trkpt>
      <trkpt lat="45.48" lon="4.6499">
        <ele>449</ele>
        <time>2018-08-15T08:04:50.240Z</time>
      </trkpt>
      <trkpt lat="45.48003" lon="4.64994">
        <ele>449</ele>
        <time>2018-08-15T08:04:51.267Z</time>
      </trkpt>
      <trkpt lat="45.48003" lon="4.64994">
        <ele>449</ele>
        <time>2018-08-15T08:04:52.259Z</time>
      </trkpt>
      <trkpt lat="45.48005" lon="4.64999">
        <ele>450</ele>
        <time>2018-08-15T08:04:53.271Z</time>
      </trkpt>
      <trkpt lat="45.48005" lon="4.64999">
        <ele>450</ele>
        <time>2018-08-15T08:04:54.235Z</time>
      </trkpt>
      <trkpt lat="45.48007" lon="4.65003">
        <ele>450</ele>
        <time>2018-08-15T08:04:55.308Z</time>
      </trkpt>
      <trkpt lat="45.48007" lon="4.65003">
        <ele>450</ele>
        <time>2018-08-15T08:04:56.259Z</time>
      </trkpt>
      <trkpt lat="45.48009" lon="4.65008">
        <ele>451</ele>
        <time>2018-08-15T08:04:57.266Z</time>
      </trkpt>
      <trkpt lat="45.48009" lon="4.65008">
        <ele>451</ele>
        <time>2018-08-15T08:04:58.270Z</time>
      </trkpt>
      <trkpt lat="45.48012" lon="4.65012">
        <ele>452</ele>
        <time>2018-08-15T08:04:59.242Z</time>
      </trkpt>
      <trkpt lat="45.48014" lon="4.65015">
        <ele>452</ele>
        <time>2018-08-15T08:05:00.234Z</time>
      </trkpt>
      <trkpt lat="45.48014" lon="4.65015">
        <ele>452</ele>
        <time>2018-08-15T08:05:01.247Z</time>
      </trkpt>
      <trkpt lat="45.48016" lon="4.6502">
        <ele>452</ele>
        <time>2018-08-15T08:05:02.258Z</time>
      </trkpt>
      <trkpt lat="45.48017" lon="4.65022">
        <ele>453</ele>
        <time>2018-08-15T08:05:03.234Z</time>
      </trkpt>
      <trkpt lat="45.48017" lon="4.65022">
        <ele>453</ele>
        <time>2018-08-15T08:05:04.239Z</time>
      </trkpt>
      <trkpt lat="45.48019" lon="4.65028">
        <ele>453</ele>
        <time>2018-08-15T08:05:05.248Z</time>
      </trkpt>
      <trkpt lat="45.48019" lon="4.65028">
        <ele>453</ele>
        <time>2018-08-15T08:05:06.263Z</time>
      </trkpt>
      <trkpt lat="45.48022" lon="4.65034">
        <ele>453</ele>
        <time>2018-08-15T08:05:07.271Z</time>
      </trkpt>
      <trkpt lat="45.48022" lon="4.65034">
        <ele>453</ele>
        <time>2018-08-15T08:05:08.245Z</time>
      </trkpt>
      <trkpt lat="45.48024" lon="4.65044">
        <ele>454</ele>
        <time>2018-08-15T08:05:09.254Z</time>
      </trkpt>
      <trkpt lat="45.48024" lon="4.65044">
        <ele>454</ele>
        <time>2018-08-15T08:05:10.271Z</time>
      </trkpt>
      <trkpt lat="45.48026" lon="4.6505">
        <ele>454</ele>
        <time>2018-08-15T08:05:11.243Z</time>
      </trkpt>
      <trkpt lat="45.48026" lon="4.6505">
        <ele>454</ele>
        <time>2018-08-15T08:05:12.236Z</time>
      </trkpt>
      <trkpt lat="45.48029" lon="4.65057">
        <ele>454</ele>
        <time>2018-08-15T08:05:13.282Z</time>
      </trkpt>
      <trkpt lat="45.48029" lon="4.65057">
        <ele>454</ele>
        <time>2018-08-15T08:05:14.234Z</time>
      </trkpt>
      <trkpt lat="45.48032" lon="4.65063">
        <ele>454</ele>
        <time>2018-08-15T08:05:15.263Z</time>
      </trkpt>
      <trkpt lat="45.48032" lon="4.65063">
        <ele>454</ele>
        <time>2018-08-15T08:05:16.259Z</time>
      </trkpt>
      <trkpt lat="45.48034" lon="4.65071">
        <ele>454</ele>
        <time>2018-08-15T08:05:17.232Z</time>
      </trkpt>
      <trkpt lat="45.48034" lon="4.65071">
        <ele>454</ele>
        <time>2018-08-15T08:05:18.238Z</time>
      </trkpt>
      <trkpt lat="45.48037" lon="4.65076">
        <ele>454</ele>
        <time>2018-08-15T08:05:19.247Z</time>
      </trkpt>
      <trkpt lat="45.48037" lon="4.65076">
        <ele>454</ele>
        <time>2018-08-15T08:05:20.237Z</time>
      </trkpt>
      <trkpt lat="45.48039" lon="4.65082">
        <ele>455</ele>
        <time>2018-08-15T08:05:21.246Z</time>
      </trkpt>
      <trkpt lat="45.48039" lon="4.65082">
        <ele>455</ele>
        <time>2018-08-15T08:05:22.270Z</time>
      </trkpt>
      <trkpt lat="45.48041" lon="4.65088">
        <ele>455</ele>
        <time>2018-08-15T08:05:23.246Z</time>
      </trkpt>
      <trkpt lat="45.48041" lon="4.65088">
        <ele>455</ele>
        <time>2018-08-15T08:05:24.269Z</time>
      </trkpt>
      <trkpt lat="45.48043" lon="4.65094">
        <ele>455</ele>
        <time>2018-08-15T08:05:25.240Z</time>
      </trkpt>
      <trkpt lat="45.48043" lon="4.65094">
        <ele>455</ele>
        <time>2018-08-15T08:05:26.270Z</time>
      </trkpt>
      <trkpt lat="45.48044" lon="4.651">
        <ele>455</ele>
        <time>2018-08-15T08:05:27.247Z</time>
      </trkpt>
      <trkpt lat="45.48044" lon="4.651">
        <ele>455</ele>
        <time>2018-08-15T08:05:28.248Z</time>
      </trkpt>
      <trkpt lat="45.48045" lon="4.65104">
        <ele>456</ele>
        <time>2018-08-15T08:05:29.259Z</time>
      </trkpt>
      <trkpt lat="45.48045" lon="4.65104">
        <ele>456</ele>
        <time>2018-08-15T08:05:30.245Z</time>
      </trkpt>
      <trkpt lat="45.48046" lon="4.6511">
        <ele>456</ele>
        <time>2018-08-15T08:05:31.258Z</time>
      </trkpt>
      <trkpt lat="45.48046" lon="4.6511">
        <ele>456</ele>
        <time>2018-08-15T08:05:32.251Z</time>
      </trkpt>
      <trkpt lat="45.48047" lon="4.65117">
        <ele>457</ele>
        <time>2018-08-15T08:05:33.268Z</time>
      </trkpt>
      <trkpt lat="45.48047" lon="4.65117">
        <ele>457</ele>
        <time>2018-08-15T08:05:34.239Z</time>
      </trkpt>
      <trkpt lat="45.48049" lon="4.65123">
        <ele>457</ele>
        <time>2018-08-15T08:05:35.247Z</time>
      </trkpt>
      <trkpt lat="45.48049" lon="4.65123">
        <ele>457</ele>
        <time>2018-08-15T08:05:36.263Z</time>
      </trkpt>
      <trkpt lat="45.48051" lon="4.65128">
        <ele>458</ele>
        <time>2018-08-15T08:05:37.258Z</time>
      </trkpt>
      <trkpt lat="45.48052" lon="4.65131">
        <ele>458</ele>
        <time>2018-08-15T08:05:38.241Z</time>
      </trkpt>
      <trkpt lat="45.48053" lon="4.65135">
        <ele>458</ele>
        <time>2018-08-15T08:05:39.249Z</time>
      </trkpt>
      <trkpt lat="45.48053" lon="4.65135">
        <ele>458</ele>
        <time>2018-08-15T08:05:40.268Z</time>
      </trkpt>
      <trkpt lat="45.48055" lon="4.65142">
        <ele>458</ele>
        <time>2018-08-15T08:05:41.235Z</time>
      </trkpt>
      <trkpt lat="45.48055" lon="4.65142">
        <ele>458</ele>
        <time>2018-08-15T08:05:42.249Z</time>
      </trkpt>
      <trkpt lat="45.48059" lon="4.65148">
        <ele>458</ele>
        <time>2018-08-15T08:05:43.265Z</time>
      </trkpt>
      <trkpt lat="45.48059" lon="4.65148">
        <ele>458</ele>
        <time>2018-08-15T08:05:44.246Z</time>
      </trkpt>
      <trkpt lat="45.48062" lon="4.65153">
        <ele>459</ele>
        <time>2018-08-15T08:05:45.255Z</time>
      </trkpt>
      <trkpt lat="45.48062" lon="4.65153">
        <ele>459</ele>
        <time>2018-08-15T08:05:46.269Z</time>
      </trkpt>
      <trkpt lat="45.48064" lon="4.65158">
        <ele>460</ele>
        <time>2018-08-15T08:05:47.236Z</time>
      </trkpt>
      <trkpt lat="45.48066" lon="4.6516">
        <ele>460</ele>
        <time>2018-08-15T08:05:48.238Z</time>
      </trkpt>
      <trkpt lat="45.48066" lon="4.6516">
        <ele>460</ele>
        <time>2018-08-15T08:05:49.267Z</time>
      </trkpt>
      <trkpt lat="45.48069" lon="4.65164">
        <ele>460</ele>
        <time>2018-08-15T08:05:50.236Z</time>
      </trkpt>
      <trkpt lat="45.48071" lon="4.65167">
        <ele>460</ele>
        <time>2018-08-15T08:05:51.264Z</time>
      </trkpt>
      <trkpt lat="45.48071" lon="4.65167">
        <ele>460</ele>
        <time>2018-08-15T08:05:52.235Z</time>
      </trkpt>
      <trkpt lat="45.48074" lon="4.65171">
        <ele>461</ele>
        <time>2018-08-15T08:05:53.246Z</time>
      </trkpt>
      <trkpt lat="45.48074" lon="4.65171">
        <ele>461</ele>
        <time>2018-08-15T08:05:54.252Z</time>
      </trkpt>
      <trkpt lat="45.48076" lon="4.65175">
        <ele>461</ele>
        <time>2018-08-15T08:05:55.260Z</time>
      </trkpt>
      <trkpt lat="45.48076" lon="4.65175">
        <ele>461</ele>
        <time>2018-08-15T08:05:56.248Z</time>
      </trkpt>
      <trkpt lat="45.48076" lon="4.65175">
        <ele>461</ele>
        <time>2018-08-15T08:05:57.325Z</time>
      </trkpt>
      <trkpt lat="45.48079" lon="4.65179">
        <ele>461</ele>
        <time>2018-08-15T08:05:58.266Z</time>
      </trkpt>
      <trkpt lat="45.48082" lon="4.65184">
        <ele>461</ele>
        <time>2018-08-15T08:05:59.237Z</time>
      </trkpt>
      <trkpt lat="45.48082" lon="4.65184">
        <ele>461</ele>
        <time>2018-08-15T08:06:00.247Z</time>
      </trkpt>
      <trkpt lat="45.48085" lon="4.6519">
        <ele>462</ele>
        <time>2018-08-15T08:06:01.264Z</time>
      </trkpt>
      <trkpt lat="45.48085" lon="4.6519">
        <ele>462</ele>
        <time>2018-08-15T08:06:02.260Z</time>
      </trkpt>
      <trkpt lat="45.48088" lon="4.65195">
        <ele>461</ele>
        <time>2018-08-15T08:06:03.272Z</time>
      </trkpt>
      <trkpt lat="45.48088" lon="4.65195">
        <ele>461</ele>
        <time>2018-08-15T08:06:04.254Z</time>
      </trkpt>
      <trkpt lat="45.48091" lon="4.65199">
        <ele>461</ele>
        <time>2018-08-15T08:06:05.263Z</time>
      </trkpt>
      <trkpt lat="45.48091" lon="4.65199">
        <ele>461</ele>
        <time>2018-08-15T08:06:06.260Z</time>
      </trkpt>
      <trkpt lat="45.48093" lon="4.65205">
        <ele>461</ele>
        <time>2018-08-15T08:06:07.273Z</time>
      </trkpt>
      <trkpt lat="45.48094" lon="4.65207">
        <ele>461</ele>
        <time>2018-08-15T08:06:08.246Z</time>
      </trkpt>
      <trkpt lat="45.48094" lon="4.65211">
        <ele>461</ele>
        <time>2018-08-15T08:06:09.252Z</time>
      </trkpt>
      <trkpt lat="45.48094" lon="4.65211">
        <ele>461</ele>
        <time>2018-08-15T08:06:10.268Z</time>
      </trkpt>
      <trkpt lat="45.48097" lon="4.65219">
        <ele>461</ele>
        <time>2018-08-15T08:06:11.234Z</time>
      </trkpt>
      <trkpt lat="45.48097" lon="4.65219">
        <ele>461</ele>
        <time>2018-08-15T08:06:12.270Z</time>
      </trkpt>
      <trkpt lat="45.48099" lon="4.65225">
        <ele>460</ele>
        <time>2018-08-15T08:06:13.239Z</time>
      </trkpt>
      <trkpt lat="45.48099" lon="4.65225">
        <ele>460</ele>
        <time>2018-08-15T08:06:14.241Z</time>
      </trkpt>
      <trkpt lat="45.48102" lon="4.6523">
        <ele>460</ele>
        <time>2018-08-15T08:06:15.258Z</time>
      </trkpt>
      <trkpt lat="45.48102" lon="4.6523">
        <ele>460</ele>
        <time>2018-08-15T08:06:16.246Z</time>
      </trkpt>
      <trkpt lat="45.48104" lon="4.65234">
        <ele>460</ele>
        <time>2018-08-15T08:06:17.263Z</time>
      </trkpt>
      <trkpt lat="45.48104" lon="4.65234">
        <ele>460</ele>
        <time>2018-08-15T08:06:18.258Z</time>
      </trkpt>
      <trkpt lat="45.48107" lon="4.65237">
        <ele>460</ele>
        <time>2018-08-15T08:06:19.268Z</time>
      </trkpt>
      <trkpt lat="45.48107" lon="4.65237">
        <ele>460</ele>
        <time>2018-08-15T08:06:20.263Z</time>
      </trkpt>
      <trkpt lat="45.4811" lon="4.65241">
        <ele>460</ele>
        <time>2018-08-15T08:06:21.276Z</time>
      </trkpt>
      <trkpt lat="45.4811" lon="4.65241">
        <ele>460</ele>
        <time>2018-08-15T08:06:22.258Z</time>
      </trkpt>
      <trkpt lat="45.48114" lon="4.65245">
        <ele>461</ele>
        <time>2018-08-15T08:06:23.272Z</time>
      </trkpt>
      <trkpt lat="45.48114" lon="4.65245">
        <ele>461</ele>
        <time>2018-08-15T08:06:24.235Z</time>
      </trkpt>
      <trkpt lat="45.48119" lon="4.65249">
        <ele>462</ele>
        <time>2018-08-15T08:06:25.258Z</time>
      </trkpt>
      <trkpt lat="45.48121" lon="4.65251">
        <ele>462</ele>
        <time>2018-08-15T08:06:26.264Z</time>
      </trkpt>
      <trkpt lat="45.48123" lon="4.65253">
        <ele>462</ele>
        <time>2018-08-15T08:06:27.258Z</time>
      </trkpt>
      <trkpt lat="45.48123" lon="4.65253">
        <ele>462</ele>
        <time>2018-08-15T08:06:28.251Z</time>
      </trkpt>
      <trkpt lat="45.48127" lon="4.65257">
        <ele>463</ele>
        <time>2018-08-15T08:06:29.260Z</time>
      </trkpt>
      <trkpt lat="45.48127" lon="4.65257">
        <ele>463</ele>
        <time>2018-08-15T08:06:30.258Z</time>
      </trkpt>
      <trkpt lat="45.48131" lon="4.65261">
        <ele>463</ele>
        <time>2018-08-15T08:06:31.236Z</time>
      </trkpt>
      <trkpt lat="45.48131" lon="4.65261">
        <ele>463</ele>
        <time>2018-08-15T08:06:32.263Z</time>
      </trkpt>
      <trkpt lat="45.48134" lon="4.65266">
        <ele>463</ele>
        <time>2018-08-15T08:06:33.233Z</time>
      </trkpt>
      <trkpt lat="45.48134" lon="4.65266">
        <ele>463</ele>
        <time>2018-08-15T08:06:34.251Z</time>
      </trkpt>
      <trkpt lat="45.48137" lon="4.6527">
        <ele>463</ele>
        <time>2018-08-15T08:06:35.267Z</time>
      </trkpt>
      <trkpt lat="45.48137" lon="4.6527">
        <ele>463</ele>
        <time>2018-08-15T08:06:36.259Z</time>
      </trkpt>
      <trkpt lat="45.4814" lon="4.65275">
        <ele>463</ele>
        <time>2018-08-15T08:06:37.243Z</time>
      </trkpt>
      <trkpt lat="45.48141" lon="4.65277">
        <ele>463</ele>
        <time>2018-08-15T08:06:38.234Z</time>
      </trkpt>
      <trkpt lat="45.48143" lon="4.6528">
        <ele>463</ele>
        <time>2018-08-15T08:06:39.270Z</time>
      </trkpt>
      <trkpt lat="45.48143" lon="4.6528">
        <ele>463</ele>
        <time>2018-08-15T08:06:40.269Z</time>
      </trkpt>
      <trkpt lat="45.48147" lon="4.65287">
        <ele>463</ele>
        <time>2018-08-15T08:06:41.238Z</time>
      </trkpt>
      <trkpt lat="45.48147" lon="4.65287">
        <ele>463</ele>
        <time>2018-08-15T08:06:42.266Z</time>
      </trkpt>
      <trkpt lat="45.4815" lon="4.65293">
        <ele>463</ele>
        <time>2018-08-15T08:06:43.235Z</time>
      </trkpt>
      <trkpt lat="45.4815" lon="4.65293">
        <ele>463</ele>
        <time>2018-08-15T08:06:44.271Z</time>
      </trkpt>
      <trkpt lat="45.48154" lon="4.65297">
        <ele>463</ele>
        <time>2018-08-15T08:06:45.249Z</time>
      </trkpt>
      <trkpt lat="45.48154" lon="4.65297">
        <ele>463</ele>
        <time>2018-08-15T08:06:46.265Z</time>
      </trkpt>
      <trkpt lat="45.48157" lon="4.65301">
        <ele>463</ele>
        <time>2018-08-15T08:06:47.233Z</time>
      </trkpt>
      <trkpt lat="45.48157" lon="4.65301">
        <ele>463</ele>
        <time>2018-08-15T08:06:48.243Z</time>
      </trkpt>
      <trkpt lat="45.48161" lon="4.65306">
        <ele>462</ele>
        <time>2018-08-15T08:06:49.250Z</time>
      </trkpt>
      <trkpt lat="45.48161" lon="4.65306">
        <ele>462</ele>
        <time>2018-08-15T08:06:50.243Z</time>
      </trkpt>
      <trkpt lat="45.48163" lon="4.65312">
        <ele>462</ele>
        <time>2018-08-15T08:06:51.252Z</time>
      </trkpt>
      <trkpt lat="45.48163" lon="4.65312">
        <ele>462</ele>
        <time>2018-08-15T08:06:52.269Z</time>
      </trkpt>
      <trkpt lat="45.48166" lon="4.65318">
        <ele>462</ele>
        <time>2018-08-15T08:06:53.238Z</time>
      </trkpt>
      <trkpt lat="45.48166" lon="4.65318">
        <ele>462</ele>
        <time>2018-08-15T08:06:54.238Z</time>
      </trkpt>
      <trkpt lat="45.48169" lon="4.65324">
        <ele>462</ele>
        <time>2018-08-15T08:06:55.246Z</time>
      </trkpt>
      <trkpt lat="45.48169" lon="4.65324">
        <ele>462</ele>
        <time>2018-08-15T08:06:56.260Z</time>
      </trkpt>
      <trkpt lat="45.48171" lon="4.65332">
        <ele>463</ele>
        <time>2018-08-15T08:06:57.268Z</time>
      </trkpt>
      <trkpt lat="45.48171" lon="4.65332">
        <ele>463</ele>
        <time>2018-08-15T08:06:58.270Z</time>
      </trkpt>
      <trkpt lat="45.48172" lon="4.65339">
        <ele>463</ele>
        <time>2018-08-15T08:06:59.236Z</time>
      </trkpt>
      <trkpt lat="45.48172" lon="4.65339">
        <ele>463</ele>
        <time>2018-08-15T08:07:00.267Z</time>
      </trkpt>
      <trkpt lat="45.48173" lon="4.65345">
        <ele>463</ele>
        <time>2018-08-15T08:07:01.238Z</time>
      </trkpt>
      <trkpt lat="45.48173" lon="4.65345">
        <ele>463</ele>
        <time>2018-08-15T08:07:02.266Z</time>
      </trkpt>
      <trkpt lat="45.48173" lon="4.65352">
        <ele>464</ele>
        <time>2018-08-15T08:07:03.237Z</time>
      </trkpt>
      <trkpt lat="45.48173" lon="4.65352">
        <ele>464</ele>
        <time>2018-08-15T08:07:04.266Z</time>
      </trkpt>
      <trkpt lat="45.48173" lon="4.65359">
        <ele>464</ele>
        <time>2018-08-15T08:07:05.250Z</time>
      </trkpt>
      <trkpt lat="45.48173" lon="4.65359">
        <ele>464</ele>
        <time>2018-08-15T08:07:06.246Z</time>
      </trkpt>
      <trkpt lat="45.48174" lon="4.65365">
        <ele>465</ele>
        <time>2018-08-15T08:07:07.257Z</time>
      </trkpt>
      <trkpt lat="45.48174" lon="4.65365">
        <ele>465</ele>
        <time>2018-08-15T08:07:08.270Z</time>
      </trkpt>
      <trkpt lat="45.48174" lon="4.65372">
        <ele>465</ele>
        <time>2018-08-15T08:07:09.238Z</time>
      </trkpt>
      <trkpt lat="45.48174" lon="4.65372">
        <ele>465</ele>
        <time>2018-08-15T08:07:10.239Z</time>
      </trkpt>
      <trkpt lat="45.48175" lon="4.65379">
        <ele>466</ele>
        <time>2018-08-15T08:07:11.271Z</time>
      </trkpt>
      <trkpt lat="45.48175" lon="4.65379">
        <ele>466</ele>
        <time>2018-08-15T08:07:12.260Z</time>
      </trkpt>
      <trkpt lat="45.48174" lon="4.65386">
        <ele>467</ele>
        <time>2018-08-15T08:07:13.269Z</time>
      </trkpt>
      <trkpt lat="45.48174" lon="4.65386">
        <ele>467</ele>
        <time>2018-08-15T08:07:14.232Z</time>
      </trkpt>
      <trkpt lat="45.48175" lon="4.65392">
        <ele>467</ele>
        <time>2018-08-15T08:07:15.242Z</time>
      </trkpt>
      <trkpt lat="45.48175" lon="4.65392">
        <ele>467</ele>
        <time>2018-08-15T08:07:16.237Z</time>
      </trkpt>
      <trkpt lat="45.48176" lon="4.65398">
        <ele>467</ele>
        <time>2018-08-15T08:07:17.247Z</time>
      </trkpt>
      <trkpt lat="45.48176" lon="4.65398">
        <ele>467</ele>
        <time>2018-08-15T08:07:18.258Z</time>
      </trkpt>
      <trkpt lat="45.48178" lon="4.65404">
        <ele>467</ele>
        <time>2018-08-15T08:07:19.269Z</time>
      </trkpt>
      <trkpt lat="45.48178" lon="4.65404">
        <ele>467</ele>
        <time>2018-08-15T08:07:20.250Z</time>
      </trkpt>
      <trkpt lat="45.48181" lon="4.6541">
        <ele>466</ele>
        <time>2018-08-15T08:07:21.258Z</time>
      </trkpt>
      <trkpt lat="45.48181" lon="4.6541">
        <ele>466</ele>
        <time>2018-08-15T08:07:22.270Z</time>
      </trkpt>
      <trkpt lat="45.48184" lon="4.65414">
        <ele>466</ele>
        <time>2018-08-15T08:07:23.241Z</time>
      </trkpt>
      <trkpt lat="45.48184" lon="4.65414">
        <ele>466</ele>
        <time>2018-08-15T08:07:24.261Z</time>
      </trkpt>
      <trkpt lat="45.48188" lon="4.65418">
        <ele>466</ele>
        <time>2018-08-15T08:07:25.271Z</time>
      </trkpt>
      <trkpt lat="45.48188" lon="4.65418">
        <ele>466</ele>
        <time>2018-08-15T08:07:26.267Z</time>
      </trkpt>
      <trkpt lat="45.48193" lon="4.65422">
        <ele>465</ele>
        <time>2018-08-15T08:07:27.236Z</time>
      </trkpt>
      <trkpt lat="45.48193" lon="4.65422">
        <ele>465</ele>
        <time>2018-08-15T08:07:28.259Z</time>
      </trkpt>
      <trkpt lat="45.48197" lon="4.65424">
        <ele>465</ele>
        <time>2018-08-15T08:07:29.275Z</time>
      </trkpt>
      <trkpt lat="45.48197" lon="4.65424">
        <ele>465</ele>
        <time>2018-08-15T08:07:30.260Z</time>
      </trkpt>
      <trkpt lat="45.48202" lon="4.65425">
        <ele>465</ele>
        <time>2018-08-15T08:07:31.233Z</time>
      </trkpt>
      <trkpt lat="45.48204" lon="4.65425">
        <ele>466</ele>
        <time>2018-08-15T08:07:32.241Z</time>
      </trkpt>
      <trkpt lat="45.48207" lon="4.65425">
        <ele>466</ele>
        <time>2018-08-15T08:07:33.255Z</time>
      </trkpt>
      <trkpt lat="45.48207" lon="4.65425">
        <ele>466</ele>
        <time>2018-08-15T08:07:34.235Z</time>
      </trkpt>
      <trkpt lat="45.48211" lon="4.65425">
        <ele>466</ele>
        <time>2018-08-15T08:07:35.244Z</time>
      </trkpt>
      <trkpt lat="45.48211" lon="4.65425">
        <ele>466</ele>
        <time>2018-08-15T08:07:36.268Z</time>
      </trkpt>
      <trkpt lat="45.48216" lon="4.65426">
        <ele>466</ele>
        <time>2018-08-15T08:07:37.237Z</time>
      </trkpt>
      <trkpt lat="45.48218" lon="4.65427">
        <ele>467</ele>
        <time>2018-08-15T08:07:38.267Z</time>
      </trkpt>
      <trkpt lat="45.4822" lon="4.65427">
        <ele>467</ele>
        <time>2018-08-15T08:07:39.265Z</time>
      </trkpt>
      <trkpt lat="45.4822" lon="4.65427">
        <ele>467</ele>
        <time>2018-08-15T08:07:40.249Z</time>
      </trkpt>
      <trkpt lat="45.48224" lon="4.6543">
        <ele>467</ele>
        <time>2018-08-15T08:07:41.259Z</time>
      </trkpt>
      <trkpt lat="45.48224" lon="4.6543">
        <ele>467</ele>
        <time>2018-08-15T08:07:42.249Z</time>
      </trkpt>
      <trkpt lat="45.48229" lon="4.65433">
        <ele>467</ele>
        <time>2018-08-15T08:07:43.260Z</time>
      </trkpt>
      <trkpt lat="45.48229" lon="4.65433">
        <ele>467</ele>
        <time>2018-08-15T08:07:44.259Z</time>
      </trkpt>
      <trkpt lat="45.48233" lon="4.65438">
        <ele>467</ele>
        <time>2018-08-15T08:07:45.266Z</time>
      </trkpt>
      <trkpt lat="45.48233" lon="4.65438">
        <ele>467</ele>
        <time>2018-08-15T08:07:46.232Z</time>
      </trkpt>
      <trkpt lat="45.48236" lon="4.65441">
        <ele>467</ele>
        <time>2018-08-15T08:07:47.238Z</time>
      </trkpt>
      <trkpt lat="45.48236" lon="4.65441">
        <ele>467</ele>
        <time>2018-08-15T08:07:48.259Z</time>
      </trkpt>
      <trkpt lat="45.48239" lon="4.65445">
        <ele>467</ele>
        <time>2018-08-15T08:07:49.240Z</time>
      </trkpt>
      <trkpt lat="45.48239" lon="4.65445">
        <ele>467</ele>
        <time>2018-08-15T08:07:50.250Z</time>
      </trkpt>
      <trkpt lat="45.48242" lon="4.6545">
        <ele>466</ele>
        <time>2018-08-15T08:07:51.269Z</time>
      </trkpt>
      <trkpt lat="45.48242" lon="4.6545">
        <ele>466</ele>
        <time>2018-08-15T08:07:52.242Z</time>
      </trkpt>
      <trkpt lat="45.48246" lon="4.65454">
        <ele>466</ele>
        <time>2018-08-15T08:07:53.254Z</time>
      </trkpt>
      <trkpt lat="45.48246" lon="4.65454">
        <ele>466</ele>
        <time>2018-08-15T08:07:54.271Z</time>
      </trkpt>
      <trkpt lat="45.48249" lon="4.65458">
        <ele>466</ele>
        <time>2018-08-15T08:07:55.305Z</time>
      </trkpt>
      <trkpt lat="45.48249" lon="4.65458">
        <ele>466</ele>
        <time>2018-08-15T08:07:56.239Z</time>
      </trkpt>
      <trkpt lat="45.48252" lon="4.65462">
        <ele>467</ele>
        <time>2018-08-15T08:07:57.246Z</time>
      </trkpt>
      <trkpt lat="45.48252" lon="4.65462">
        <ele>467</ele>
        <time>2018-08-15T08:07:58.247Z</time>
      </trkpt>
      <trkpt lat="45.48256" lon="4.65466">
        <ele>467</ele>
        <time>2018-08-15T08:07:59.257Z</time>
      </trkpt>
      <trkpt lat="45.48256" lon="4.65466">
        <ele>467</ele>
        <time>2018-08-15T08:08:00.260Z</time>
      </trkpt>
      <trkpt lat="45.48259" lon="4.6547">
        <ele>467</ele>
        <time>2018-08-15T08:08:01.268Z</time>
      </trkpt>
      <trkpt lat="45.48259" lon="4.6547">
        <ele>467</ele>
        <time>2018-08-15T08:08:02.265Z</time>
      </trkpt>
      <trkpt lat="45.48263" lon="4.65473">
        <ele>467</ele>
        <time>2018-08-15T08:08:03.237Z</time>
      </trkpt>
      <trkpt lat="45.48263" lon="4.65473">
        <ele>467</ele>
        <time>2018-08-15T08:08:04.265Z</time>
      </trkpt>
      <trkpt lat="45.48267" lon="4.65477">
        <ele>467</ele>
        <time>2018-08-15T08:08:05.235Z</time>
      </trkpt>
      <trkpt lat="45.48267" lon="4.65477">
        <ele>467</ele>
        <time>2018-08-15T08:08:06.262Z</time>
      </trkpt>
      <trkpt lat="45.4827" lon="4.6548">
        <ele>468</ele>
        <time>2018-08-15T08:08:07.248Z</time>
      </trkpt>
      <trkpt lat="45.48272" lon="4.65482">
        <ele>468</ele>
        <time>2018-08-15T08:08:08.262Z</time>
      </trkpt>
      <trkpt lat="45.48274" lon="4.65484">
        <ele>468</ele>
        <time>2018-08-15T08:08:09.257Z</time>
      </trkpt>
      <trkpt lat="45.48274" lon="4.65484">
        <ele>468</ele>
        <time>2018-08-15T08:08:10.244Z</time>
      </trkpt>
      <trkpt lat="45.48278" lon="4.65488">
        <ele>469</ele>
        <time>2018-08-15T08:08:11.266Z</time>
      </trkpt>
      <trkpt lat="45.4828" lon="4.6549">
        <ele>469</ele>
        <time>2018-08-15T08:08:12.272Z</time>
      </trkpt>
      <trkpt lat="45.4828" lon="4.6549">
        <ele>469</ele>
        <time>2018-08-15T08:08:13.259Z</time>
      </trkpt>
      <trkpt lat="45.48283" lon="4.65495">
        <ele>470</ele>
        <time>2018-08-15T08:08:14.239Z</time>
      </trkpt>
      <trkpt lat="45.48285" lon="4.65498">
        <ele>470</ele>
        <time>2018-08-15T08:08:15.247Z</time>
      </trkpt>
      <trkpt lat="45.48285" lon="4.65498">
        <ele>470</ele>
        <time>2018-08-15T08:08:16.265Z</time>
      </trkpt>
      <trkpt lat="45.4829" lon="4.65503">
        <ele>471</ele>
        <time>2018-08-15T08:08:17.271Z</time>
      </trkpt>
      <trkpt lat="45.4829" lon="4.65503">
        <ele>471</ele>
        <time>2018-08-15T08:08:18.269Z</time>
      </trkpt>
      <trkpt lat="45.48294" lon="4.65507">
        <ele>471</ele>
        <time>2018-08-15T08:08:19.238Z</time>
      </trkpt>
      <trkpt lat="45.48294" lon="4.65507">
        <ele>471</ele>
        <time>2018-08-15T08:08:20.248Z</time>
      </trkpt>
      <trkpt lat="45.48299" lon="4.65511">
        <ele>472</ele>
        <time>2018-08-15T08:08:21.260Z</time>
      </trkpt>
      <trkpt lat="45.48301" lon="4.65513">
        <ele>472</ele>
        <time>2018-08-15T08:08:22.248Z</time>
      </trkpt>
      <trkpt lat="45.48301" lon="4.65513">
        <ele>472</ele>
        <time>2018-08-15T08:08:23.263Z</time>
      </trkpt>
      <trkpt lat="45.48305" lon="4.65516">
        <ele>472</ele>
        <time>2018-08-15T08:08:24.233Z</time>
      </trkpt>
      <trkpt lat="45.48305" lon="4.65516">
        <ele>472</ele>
        <time>2018-08-15T08:08:25.233Z</time>
      </trkpt>
      <trkpt lat="45.4831" lon="4.6552">
        <ele>472</ele>
        <time>2018-08-15T08:08:26.244Z</time>
      </trkpt>
      <trkpt lat="45.48312" lon="4.65521">
        <ele>473</ele>
        <time>2018-08-15T08:08:27.251Z</time>
      </trkpt>
      <trkpt lat="45.48312" lon="4.65521">
        <ele>473</ele>
        <time>2018-08-15T08:08:28.246Z</time>
      </trkpt>
      <trkpt lat="45.48317" lon="4.65524">
        <ele>473</ele>
        <time>2018-08-15T08:08:29.260Z</time>
      </trkpt>
      <trkpt lat="45.48317" lon="4.65524">
        <ele>473</ele>
        <time>2018-08-15T08:08:30.238Z</time>
      </trkpt>
      <trkpt lat="45.48321" lon="4.65527">
        <ele>473</ele>
        <time>2018-08-15T08:08:31.246Z</time>
      </trkpt>
      <trkpt lat="45.48321" lon="4.65527">
        <ele>473</ele>
        <time>2018-08-15T08:08:32.259Z</time>
      </trkpt>
      <trkpt lat="45.48325" lon="4.6553">
        <ele>473</ele>
        <time>2018-08-15T08:08:33.269Z</time>
      </trkpt>
      <trkpt lat="45.48325" lon="4.6553">
        <ele>473</ele>
        <time>2018-08-15T08:08:34.259Z</time>
      </trkpt>
      <trkpt lat="45.4833" lon="4.65533">
        <ele>473</ele>
        <time>2018-08-15T08:08:35.267Z</time>
      </trkpt>
      <trkpt lat="45.4833" lon="4.65533">
        <ele>473</ele>
        <time>2018-08-15T08:08:36.256Z</time>
      </trkpt>
      <trkpt lat="45.48334" lon="4.65537">
        <ele>474</ele>
        <time>2018-08-15T08:08:37.270Z</time>
      </trkpt>
      <trkpt lat="45.48336" lon="4.65538">
        <ele>474</ele>
        <time>2018-08-15T08:08:38.260Z</time>
      </trkpt>
      <trkpt lat="45.48339" lon="4.65539">
        <ele>474</ele>
        <time>2018-08-15T08:08:39.243Z</time>
      </trkpt>
      <trkpt lat="45.48339" lon="4.65539">
        <ele>474</ele>
        <time>2018-08-15T08:08:40.235Z</time>
      </trkpt>
      <trkpt lat="45.48344" lon="4.65542">
        <ele>474</ele>
        <time>2018-08-15T08:08:41.260Z</time>
      </trkpt>
      <trkpt lat="45.48344" lon="4.65542">
        <ele>474</ele>
        <time>2018-08-15T08:08:42.265Z</time>
      </trkpt>
      <trkpt lat="45.48348" lon="4.65544">
        <ele>474</ele>
        <time>2018-08-15T08:08:43.237Z</time>
      </trkpt>
      <trkpt lat="45.48348" lon="4.65544">
        <ele>474</ele>
        <time>2018-08-15T08:08:44.252Z</time>
      </trkpt>
      <trkpt lat="45.48352" lon="4.65547">
        <ele>474</ele>
        <time>2018-08-15T08:08:45.262Z</time>
      </trkpt>
      <trkpt lat="45.48352" lon="4.65547">
        <ele>474</ele>
        <time>2018-08-15T08:08:46.257Z</time>
      </trkpt>
      <trkpt lat="45.48356" lon="4.6555">
        <ele>474</ele>
        <time>2018-08-15T08:08:47.266Z</time>
      </trkpt>
      <trkpt lat="45.48356" lon="4.6555">
        <ele>474</ele>
        <time>2018-08-15T08:08:48.259Z</time>
      </trkpt>
      <trkpt lat="45.48356" lon="4.6555">
        <ele>474</ele>
        <time>2018-08-15T08:08:49.296Z</time>
      </trkpt>
      <trkpt lat="45.48361" lon="4.65552">
        <ele>474</ele>
        <time>2018-08-15T08:08:50.240Z</time>
      </trkpt>
      <trkpt lat="45.48366" lon="4.65555">
        <ele>475</ele>
        <time>2018-08-15T08:08:51.248Z</time>
      </trkpt>
      <trkpt lat="45.48366" lon="4.65555">
        <ele>475</ele>
        <time>2018-08-15T08:08:52.237Z</time>
      </trkpt>
      <trkpt lat="45.4837" lon="4.65558">
        <ele>475</ele>
        <time>2018-08-15T08:08:53.244Z</time>
      </trkpt>
      <trkpt lat="45.4837" lon="4.65558">
        <ele>475</ele>
        <time>2018-08-15T08:08:54.256Z</time>
      </trkpt>
      <trkpt lat="45.48374" lon="4.65561">
        <ele>475</ele>
        <time>2018-08-15T08:08:55.268Z</time>
      </trkpt>
      <trkpt lat="45.48374" lon="4.65561">
        <ele>475</ele>
        <time>2018-08-15T08:08:56.240Z</time>
      </trkpt>
      <trkpt lat="45.48378" lon="4.65564">
        <ele>476</ele>
        <time>2018-08-15T08:08:57.252Z</time>
      </trkpt>
      <trkpt lat="45.48378" lon="4.65564">
        <ele>476</ele>
        <time>2018-08-15T08:08:58.238Z</time>
      </trkpt>
      <trkpt lat="45.48382" lon="4.65566">
        <ele>476</ele>
        <time>2018-08-15T08:08:59.248Z</time>
      </trkpt>
      <trkpt lat="45.48382" lon="4.65566">
        <ele>476</ele>
        <time>2018-08-15T08:09:00.246Z</time>
      </trkpt>
      <trkpt lat="45.48387" lon="4.65567">
        <ele>476</ele>
        <time>2018-08-15T08:09:01.264Z</time>
      </trkpt>
      <trkpt lat="45.48387" lon="4.65567">
        <ele>476</ele>
        <time>2018-08-15T08:09:02.237Z</time>
      </trkpt>
      <trkpt lat="45.48392" lon="4.65569">
        <ele>477</ele>
        <time>2018-08-15T08:09:03.249Z</time>
      </trkpt>
      <trkpt lat="45.48392" lon="4.65569">
        <ele>477</ele>
        <time>2018-08-15T08:09:04.249Z</time>
      </trkpt>
      <trkpt lat="45.48395" lon="4.65572">
        <ele>477</ele>
        <time>2018-08-15T08:09:05.258Z</time>
      </trkpt>
      <trkpt lat="45.48395" lon="4.65572">
        <ele>477</ele>
        <time>2018-08-15T08:09:06.239Z</time>
      </trkpt>
      <trkpt lat="45.48399" lon="4.65574">
        <ele>477</ele>
        <time>2018-08-15T08:09:07.253Z</time>
      </trkpt>
      <trkpt lat="45.48399" lon="4.65574">
        <ele>477</ele>
        <time>2018-08-15T08:09:08.239Z</time>
      </trkpt>
      <trkpt lat="45.48404" lon="4.65577">
        <ele>477</ele>
        <time>2018-08-15T08:09:09.248Z</time>
      </trkpt>
      <trkpt lat="45.48404" lon="4.65577">
        <ele>477</ele>
        <time>2018-08-15T08:09:10.234Z</time>
      </trkpt>
      <trkpt lat="45.48409" lon="4.6558">
        <ele>477</ele>
        <time>2018-08-15T08:09:11.244Z</time>
      </trkpt>
      <trkpt lat="45.48409" lon="4.6558">
        <ele>477</ele>
        <time>2018-08-15T08:09:12.232Z</time>
      </trkpt>
      <trkpt lat="45.48414" lon="4.65582">
        <ele>477</ele>
        <time>2018-08-15T08:09:13.248Z</time>
      </trkpt>
      <trkpt lat="45.48414" lon="4.65582">
        <ele>477</ele>
        <time>2018-08-15T08:09:14.258Z</time>
      </trkpt>
      <trkpt lat="45.48419" lon="4.65584">
        <ele>477</ele>
        <time>2018-08-15T08:09:15.233Z</time>
      </trkpt>
      <trkpt lat="45.48419" lon="4.65584">
        <ele>477</ele>
        <time>2018-08-15T08:09:16.258Z</time>
      </trkpt>
      <trkpt lat="45.48423" lon="4.65587">
        <ele>477</ele>
        <time>2018-08-15T08:09:17.344Z</time>
      </trkpt>
      <trkpt lat="45.48425" lon="4.65588">
        <ele>477</ele>
        <time>2018-08-15T08:09:18.245Z</time>
      </trkpt>
      <trkpt lat="45.48425" lon="4.65588">
        <ele>477</ele>
        <time>2018-08-15T08:09:19.234Z</time>
      </trkpt>
      <trkpt lat="45.48429" lon="4.6559">
        <ele>477</ele>
        <time>2018-08-15T08:09:20.245Z</time>
      </trkpt>
      <trkpt lat="45.48432" lon="4.65592">
        <ele>477</ele>
        <time>2018-08-15T08:09:21.244Z</time>
      </trkpt>
      <trkpt lat="45.48432" lon="4.65592">
        <ele>477</ele>
        <time>2018-08-15T08:09:22.237Z</time>
      </trkpt>
      <trkpt lat="45.48436" lon="4.65594">
        <ele>477</ele>
        <time>2018-08-15T08:09:23.243Z</time>
      </trkpt>
      <trkpt lat="45.48436" lon="4.65594">
        <ele>477</ele>
        <time>2018-08-15T08:09:24.245Z</time>
      </trkpt>
      <trkpt lat="45.48441" lon="4.65597">
        <ele>477</ele>
        <time>2018-08-15T08:09:25.259Z</time>
      </trkpt>
      <trkpt lat="45.48441" lon="4.65597">
        <ele>477</ele>
        <time>2018-08-15T08:09:26.250Z</time>
      </trkpt>
      <trkpt lat="45.48445" lon="4.65599">
        <ele>477</ele>
        <time>2018-08-15T08:09:27.257Z</time>
      </trkpt>
      <trkpt lat="45.48445" lon="4.65599">
        <ele>477</ele>
        <time>2018-08-15T08:09:28.259Z</time>
      </trkpt>
      <trkpt lat="45.4845" lon="4.65602">
        <ele>477</ele>
        <time>2018-08-15T08:09:29.270Z</time>
      </trkpt>
      <trkpt lat="45.4845" lon="4.65602">
        <ele>477</ele>
        <time>2018-08-15T08:09:30.250Z</time>
      </trkpt>
      <trkpt lat="45.48454" lon="4.65604">
        <ele>477</ele>
        <time>2018-08-15T08:09:31.257Z</time>
      </trkpt>
      <trkpt lat="45.48454" lon="4.65604">
        <ele>477</ele>
        <time>2018-08-15T08:09:32.250Z</time>
      </trkpt>
      <trkpt lat="45.48459" lon="4.65607">
        <ele>478</ele>
        <time>2018-08-15T08:09:33.268Z</time>
      </trkpt>
      <trkpt lat="45.48459" lon="4.65607">
        <ele>478</ele>
        <time>2018-08-15T08:09:34.232Z</time>
      </trkpt>
      <trkpt lat="45.48463" lon="4.65609">
        <ele>478</ele>
        <time>2018-08-15T08:09:35.239Z</time>
      </trkpt>
      <trkpt lat="45.48463" lon="4.65609">
        <ele>478</ele>
        <time>2018-08-15T08:09:36.240Z</time>
      </trkpt>
      <trkpt lat="45.48468" lon="4.65612">
        <ele>478</ele>
        <time>2018-08-15T08:09:37.235Z</time>
      </trkpt>
      <trkpt lat="45.4847" lon="4.65614">
        <ele>478</ele>
        <time>2018-08-15T08:09:38.271Z</time>
      </trkpt>
      <trkpt lat="45.48472" lon="4.65616">
        <ele>478</ele>
        <time>2018-08-15T08:09:39.233Z</time>
      </trkpt>
      <trkpt lat="45.48472" lon="4.65616">
        <ele>478</ele>
        <time>2018-08-15T08:09:40.234Z</time>
      </trkpt>
      <trkpt lat="45.48477" lon="4.65619">
        <ele>478</ele>
        <time>2018-08-15T08:09:41.241Z</time>
      </trkpt>
      <trkpt lat="45.48477" lon="4.65619">
        <ele>478</ele>
        <time>2018-08-15T08:09:42.259Z</time>
      </trkpt>
      <trkpt lat="45.4848" lon="4.65624">
        <ele>478</ele>
        <time>2018-08-15T08:09:43.270Z</time>
      </trkpt>
      <trkpt lat="45.4848" lon="4.65624">
        <ele>478</ele>
        <time>2018-08-15T08:09:44.245Z</time>
      </trkpt>
      <trkpt lat="45.48484" lon="4.65628">
        <ele>478</ele>
        <time>2018-08-15T08:09:45.252Z</time>
      </trkpt>
      <trkpt lat="45.48484" lon="4.65628">
        <ele>478</ele>
        <time>2018-08-15T08:09:46.261Z</time>
      </trkpt>
      <trkpt lat="45.48486" lon="4.65633">
        <ele>478</ele>
        <time>2018-08-15T08:09:47.246Z</time>
      </trkpt>
      <trkpt lat="45.48486" lon="4.65633">
        <ele>478</ele>
        <time>2018-08-15T08:09:48.260Z</time>
      </trkpt>
      <trkpt lat="45.48488" lon="4.65639">
        <ele>478</ele>
        <time>2018-08-15T08:09:49.268Z</time>
      </trkpt>
      <trkpt lat="45.48488" lon="4.65639">
        <ele>478</ele>
        <time>2018-08-15T08:09:50.244Z</time>
      </trkpt>
      <trkpt lat="45.4849" lon="4.65646">
        <ele>478</ele>
        <time>2018-08-15T08:09:51.253Z</time>
      </trkpt>
      <trkpt lat="45.4849" lon="4.65646">
        <ele>478</ele>
        <time>2018-08-15T08:09:52.237Z</time>
      </trkpt>
      <trkpt lat="45.4849" lon="4.65651">
        <ele>478</ele>
        <time>2018-08-15T08:09:53.244Z</time>
      </trkpt>
      <trkpt lat="45.4849" lon="4.65651">
        <ele>478</ele>
        <time>2018-08-15T08:09:54.239Z</time>
      </trkpt>
      <trkpt lat="45.48491" lon="4.65657">
        <ele>479</ele>
        <time>2018-08-15T08:09:55.249Z</time>
      </trkpt>
      <trkpt lat="45.48491" lon="4.65657">
        <ele>479</ele>
        <time>2018-08-15T08:09:56.239Z</time>
      </trkpt>
      <trkpt lat="45.4849" lon="4.65663">
        <ele>480</ele>
        <time>2018-08-15T08:09:57.247Z</time>
      </trkpt>
      <trkpt lat="45.4849" lon="4.65663">
        <ele>480</ele>
        <time>2018-08-15T08:09:58.237Z</time>
      </trkpt>
      <trkpt lat="45.4849" lon="4.65663">
        <ele>480</ele>
        <time>2018-08-15T08:09:59.322Z</time>
      </trkpt>
      <trkpt lat="45.48489" lon="4.65669">
        <ele>480</ele>
        <time>2018-08-15T08:10:00.260Z</time>
      </trkpt>
      <trkpt lat="45.48488" lon="4.65675">
        <ele>481</ele>
        <time>2018-08-15T08:10:01.234Z</time>
      </trkpt>
      <trkpt lat="45.48488" lon="4.65675">
        <ele>481</ele>
        <time>2018-08-15T08:10:02.256Z</time>
      </trkpt>
      <trkpt lat="45.48487" lon="4.65682">
        <ele>482</ele>
        <time>2018-08-15T08:10:03.232Z</time>
      </trkpt>
      <trkpt lat="45.48487" lon="4.65682">
        <ele>482</ele>
        <time>2018-08-15T08:10:04.244Z</time>
      </trkpt>
      <trkpt lat="45.48486" lon="4.65689">
        <ele>484</ele>
        <time>2018-08-15T08:10:05.256Z</time>
      </trkpt>
      <trkpt lat="45.48486" lon="4.65689">
        <ele>484</ele>
        <time>2018-08-15T08:10:06.257Z</time>
      </trkpt>
      <trkpt lat="45.48484" lon="4.65696">
        <ele>484</ele>
        <time>2018-08-15T08:10:07.264Z</time>
      </trkpt>
      <trkpt lat="45.48484" lon="4.65696">
        <ele>484</ele>
        <time>2018-08-15T08:10:08.257Z</time>
      </trkpt>
      <trkpt lat="45.48483" lon="4.65702">
        <ele>485</ele>
        <time>2018-08-15T08:10:09.282Z</time>
      </trkpt>
      <trkpt lat="45.48483" lon="4.65702">
        <ele>485</ele>
        <time>2018-08-15T08:10:10.269Z</time>
      </trkpt>
      <trkpt lat="45.48482" lon="4.65709">
        <ele>485</ele>
        <time>2018-08-15T08:10:11.258Z</time>
      </trkpt>
      <trkpt lat="45.48482" lon="4.65709">
        <ele>485</ele>
        <time>2018-08-15T08:10:12.234Z</time>
      </trkpt>
      <trkpt lat="45.4848" lon="4.65716">
        <ele>486</ele>
        <time>2018-08-15T08:10:13.245Z</time>
      </trkpt>
      <trkpt lat="45.4848" lon="4.65716">
        <ele>486</ele>
        <time>2018-08-15T08:10:14.270Z</time>
      </trkpt>
      <trkpt lat="45.48479" lon="4.65722">
        <ele>487</ele>
        <time>2018-08-15T08:10:15.237Z</time>
      </trkpt>
      <trkpt lat="45.48479" lon="4.65722">
        <ele>487</ele>
        <time>2018-08-15T08:10:16.243Z</time>
      </trkpt>
      <trkpt lat="45.48479" lon="4.65729">
        <ele>486</ele>
        <time>2018-08-15T08:10:17.263Z</time>
      </trkpt>
      <trkpt lat="45.48478" lon="4.65732">
        <ele>487</ele>
        <time>2018-08-15T08:10:18.238Z</time>
      </trkpt>
      <trkpt lat="45.48478" lon="4.65732">
        <ele>487</ele>
        <time>2018-08-15T08:10:19.245Z</time>
      </trkpt>
      <trkpt lat="45.48476" lon="4.65738">
        <ele>487</ele>
        <time>2018-08-15T08:10:20.257Z</time>
      </trkpt>
      <trkpt lat="45.48474" lon="4.65741">
        <ele>487</ele>
        <time>2018-08-15T08:10:21.251Z</time>
      </trkpt>
      <trkpt lat="45.48474" lon="4.65741">
        <ele>487</ele>
        <time>2018-08-15T08:10:22.257Z</time>
      </trkpt>
      <trkpt lat="45.48473" lon="4.65748">
        <ele>487</ele>
        <time>2018-08-15T08:10:23.249Z</time>
      </trkpt>
      <trkpt lat="45.48473" lon="4.65748">
        <ele>487</ele>
        <time>2018-08-15T08:10:24.252Z</time>
      </trkpt>
      <trkpt lat="45.4847" lon="4.65753">
        <ele>488</ele>
        <time>2018-08-15T08:10:25.318Z</time>
      </trkpt>
      <trkpt lat="45.4847" lon="4.65753">
        <ele>488</ele>
        <time>2018-08-15T08:10:26.263Z</time>
      </trkpt>
      <trkpt lat="45.48467" lon="4.65758">
        <ele>488</ele>
        <time>2018-08-15T08:10:27.233Z</time>
      </trkpt>
      <trkpt lat="45.48467" lon="4.65758">
        <ele>488</ele>
        <time>2018-08-15T08:10:28.233Z</time>
      </trkpt>
      <trkpt lat="45.48464" lon="4.65763">
        <ele>488</ele>
        <time>2018-08-15T08:10:29.248Z</time>
      </trkpt>
      <trkpt lat="45.48464" lon="4.65763">
        <ele>488</ele>
        <time>2018-08-15T08:10:30.238Z</time>
      </trkpt>
      <trkpt lat="45.48461" lon="4.65768">
        <ele>489</ele>
        <time>2018-08-15T08:10:31.247Z</time>
      </trkpt>
      <trkpt lat="45.48461" lon="4.65768">
        <ele>489</ele>
        <time>2018-08-15T08:10:32.265Z</time>
      </trkpt>
      <trkpt lat="45.48457" lon="4.65773">
        <ele>489</ele>
        <time>2018-08-15T08:10:33.239Z</time>
      </trkpt>
      <trkpt lat="45.48457" lon="4.65773">
        <ele>489</ele>
        <time>2018-08-15T08:10:34.271Z</time>
      </trkpt>
      <trkpt lat="45.48454" lon="4.65777">
        <ele>489</ele>
        <time>2018-08-15T08:10:35.238Z</time>
      </trkpt>
      <trkpt lat="45.48454" lon="4.65777">
        <ele>489</ele>
        <time>2018-08-15T08:10:36.238Z</time>
      </trkpt>
      <trkpt lat="45.48451" lon="4.65782">
        <ele>489</ele>
        <time>2018-08-15T08:10:37.239Z</time>
      </trkpt>
      <trkpt lat="45.48449" lon="4.65784">
        <ele>489</ele>
        <time>2018-08-15T08:10:38.242Z</time>
      </trkpt>
      <trkpt lat="45.48447" lon="4.65786">
        <ele>490</ele>
        <time>2018-08-15T08:10:39.266Z</time>
      </trkpt>
      <trkpt lat="45.48447" lon="4.65786">
        <ele>490</ele>
        <time>2018-08-15T08:10:40.259Z</time>
      </trkpt>
      <trkpt lat="45.48444" lon="4.6579">
        <ele>490</ele>
        <time>2018-08-15T08:10:41.269Z</time>
      </trkpt>
      <trkpt lat="45.48444" lon="4.6579">
        <ele>490</ele>
        <time>2018-08-15T08:10:42.255Z</time>
      </trkpt>
      <trkpt lat="45.48442" lon="4.65795">
        <ele>490</ele>
        <time>2018-08-15T08:10:43.233Z</time>
      </trkpt>
      <trkpt lat="45.4844" lon="4.65797">
        <ele>490</ele>
        <time>2018-08-15T08:10:44.233Z</time>
      </trkpt>
      <trkpt lat="45.48439" lon="4.658">
        <ele>490</ele>
        <time>2018-08-15T08:10:45.254Z</time>
      </trkpt>
      <trkpt lat="45.48439" lon="4.658">
        <ele>490</ele>
        <time>2018-08-15T08:10:46.246Z</time>
      </trkpt>
      <trkpt lat="45.48437" lon="4.65806">
        <ele>491</ele>
        <time>2018-08-15T08:10:47.262Z</time>
      </trkpt>
      <trkpt lat="45.48437" lon="4.65806">
        <ele>491</ele>
        <time>2018-08-15T08:10:48.234Z</time>
      </trkpt>
      <trkpt lat="45.48435" lon="4.65812">
        <ele>491</ele>
        <time>2018-08-15T08:10:49.241Z</time>
      </trkpt>
      <trkpt lat="45.48435" lon="4.65815">
        <ele>491</ele>
        <time>2018-08-15T08:10:50.262Z</time>
      </trkpt>
      <trkpt lat="45.48434" lon="4.65818">
        <ele>491</ele>
        <time>2018-08-15T08:10:51.247Z</time>
      </trkpt>
      <trkpt lat="45.48434" lon="4.65818">
        <ele>491</ele>
        <time>2018-08-15T08:10:52.267Z</time>
      </trkpt>
      <trkpt lat="45.48433" lon="4.65823">
        <ele>492</ele>
        <time>2018-08-15T08:10:53.241Z</time>
      </trkpt>
      <trkpt lat="45.48433" lon="4.65823">
        <ele>492</ele>
        <time>2018-08-15T08:10:54.244Z</time>
      </trkpt>
      <trkpt lat="45.48434" lon="4.6583">
        <ele>492</ele>
        <time>2018-08-15T08:10:55.261Z</time>
      </trkpt>
      <trkpt lat="45.48434" lon="4.6583">
        <ele>492</ele>
        <time>2018-08-15T08:10:56.236Z</time>
      </trkpt>
      <trkpt lat="45.48435" lon="4.65837">
        <ele>492</ele>
        <time>2018-08-15T08:10:57.258Z</time>
      </trkpt>
      <trkpt lat="45.48435" lon="4.65837">
        <ele>492</ele>
        <time>2018-08-15T08:10:58.258Z</time>
      </trkpt>
      <trkpt lat="45.48437" lon="4.65842">
        <ele>493</ele>
        <time>2018-08-15T08:10:59.269Z</time>
      </trkpt>
      <trkpt lat="45.48437" lon="4.65842">
        <ele>493</ele>
        <time>2018-08-15T08:11:00.268Z</time>
      </trkpt>
      <trkpt lat="45.48437" lon="4.65842">
        <ele>493</ele>
        <time>2018-08-15T08:11:01.308Z</time>
      </trkpt>
      <trkpt lat="45.4844" lon="4.65847">
        <ele>493</ele>
        <time>2018-08-15T08:11:02.268Z</time>
      </trkpt>
      <trkpt lat="45.48443" lon="4.65851">
        <ele>493</ele>
        <time>2018-08-15T08:11:03.241Z</time>
      </trkpt>
      <trkpt lat="45.48443" lon="4.65851">
        <ele>493</ele>
        <time>2018-08-15T08:11:04.256Z</time>
      </trkpt>
      <trkpt lat="45.48447" lon="4.65856">
        <ele>494</ele>
        <time>2018-08-15T08:11:05.269Z</time>
      </trkpt>
      <trkpt lat="45.48447" lon="4.65856">
        <ele>494</ele>
        <time>2018-08-15T08:11:06.256Z</time>
      </trkpt>
      <trkpt lat="45.4845" lon="4.65861">
        <ele>494</ele>
        <time>2018-08-15T08:11:07.269Z</time>
      </trkpt>
      <trkpt lat="45.4845" lon="4.65861">
        <ele>494</ele>
        <time>2018-08-15T08:11:08.259Z</time>
      </trkpt>
      <trkpt lat="45.48453" lon="4.65867">
        <ele>494</ele>
        <time>2018-08-15T08:11:09.234Z</time>
      </trkpt>
      <trkpt lat="45.48453" lon="4.65867">
        <ele>494</ele>
        <time>2018-08-15T08:11:10.269Z</time>
      </trkpt>
      <trkpt lat="45.48455" lon="4.65872">
        <ele>495</ele>
        <time>2018-08-15T08:11:11.239Z</time>
      </trkpt>
      <trkpt lat="45.48455" lon="4.65872">
        <ele>495</ele>
        <time>2018-08-15T08:11:12.269Z</time>
      </trkpt>
      <trkpt lat="45.48458" lon="4.65879">
        <ele>495</ele>
        <time>2018-08-15T08:11:13.235Z</time>
      </trkpt>
      <trkpt lat="45.48458" lon="4.65879">
        <ele>495</ele>
        <time>2018-08-15T08:11:14.258Z</time>
      </trkpt>
      <trkpt lat="45.4846" lon="4.65885">
        <ele>495</ele>
        <time>2018-08-15T08:11:15.265Z</time>
      </trkpt>
      <trkpt lat="45.4846" lon="4.65885">
        <ele>495</ele>
        <time>2018-08-15T08:11:16.262Z</time>
      </trkpt>
      <trkpt lat="45.48461" lon="4.65892">
        <ele>495</ele>
        <time>2018-08-15T08:11:17.232Z</time>
      </trkpt>
      <trkpt lat="45.48461" lon="4.65892">
        <ele>495</ele>
        <time>2018-08-15T08:11:18.237Z</time>
      </trkpt>
      <trkpt lat="45.48462" lon="4.65899">
        <ele>495</ele>
        <time>2018-08-15T08:11:19.233Z</time>
      </trkpt>
      <trkpt lat="45.48462" lon="4.65899">
        <ele>495</ele>
        <time>2018-08-15T08:11:20.269Z</time>
      </trkpt>
      <trkpt lat="45.48464" lon="4.65908">
        <ele>495</ele>
        <time>2018-08-15T08:11:21.239Z</time>
      </trkpt>
      <trkpt lat="45.48464" lon="4.65908">
        <ele>495</ele>
        <time>2018-08-15T08:11:22.248Z</time>
      </trkpt>
      <trkpt lat="45.48465" lon="4.65916">
        <ele>494</ele>
        <time>2018-08-15T08:11:23.262Z</time>
      </trkpt>
      <trkpt lat="45.48465" lon="4.65916">
        <ele>494</ele>
        <time>2018-08-15T08:11:24.256Z</time>
      </trkpt>
      <trkpt lat="45.48465" lon="4.65923">
        <ele>495</ele>
        <time>2018-08-15T08:11:25.275Z</time>
      </trkpt>
      <trkpt lat="45.48464" lon="4.65927">
        <ele>495</ele>
        <time>2018-08-15T08:11:26.258Z</time>
      </trkpt>
      <trkpt lat="45.48464" lon="4.65931">
        <ele>495</ele>
        <time>2018-08-15T08:11:27.243Z</time>
      </trkpt>
      <trkpt lat="45.48464" lon="4.65931">
        <ele>495</ele>
        <time>2018-08-15T08:11:28.270Z</time>
      </trkpt>
      <trkpt lat="45.48462" lon="4.65938">
        <ele>496</ele>
        <time>2018-08-15T08:11:29.238Z</time>
      </trkpt>
      <trkpt lat="45.48462" lon="4.65938">
        <ele>496</ele>
        <time>2018-08-15T08:11:30.249Z</time>
      </trkpt>
      <trkpt lat="45.48459" lon="4.65943">
        <ele>496</ele>
        <time>2018-08-15T08:11:31.265Z</time>
      </trkpt>
      <trkpt lat="45.48459" lon="4.65943">
        <ele>496</ele>
        <time>2018-08-15T08:11:32.250Z</time>
      </trkpt>
      <trkpt lat="45.48456" lon="4.65949">
        <ele>497</ele>
        <time>2018-08-15T08:11:33.265Z</time>
      </trkpt>
      <trkpt lat="45.48456" lon="4.65949">
        <ele>497</ele>
        <time>2018-08-15T08:11:34.259Z</time>
      </trkpt>
      <trkpt lat="45.48453" lon="4.65953">
        <ele>497</ele>
        <time>2018-08-15T08:11:35.267Z</time>
      </trkpt>
      <trkpt lat="45.48453" lon="4.65953">
        <ele>497</ele>
        <time>2018-08-15T08:11:36.235Z</time>
      </trkpt>
      <trkpt lat="45.4845" lon="4.65959">
        <ele>498</ele>
        <time>2018-08-15T08:11:37.269Z</time>
      </trkpt>
      <trkpt lat="45.4845" lon="4.65959">
        <ele>498</ele>
        <time>2018-08-15T08:11:38.265Z</time>
      </trkpt>
      <trkpt lat="45.48447" lon="4.65964">
        <ele>498</ele>
        <time>2018-08-15T08:11:39.234Z</time>
      </trkpt>
      <trkpt lat="45.48447" lon="4.65964">
        <ele>498</ele>
        <time>2018-08-15T08:11:40.244Z</time>
      </trkpt>
      <trkpt lat="45.48444" lon="4.65968">
        <ele>499</ele>
        <time>2018-08-15T08:11:41.250Z</time>
      </trkpt>
      <trkpt lat="45.48444" lon="4.65968">
        <ele>499</ele>
        <time>2018-08-15T08:11:42.234Z</time>
      </trkpt>
      <trkpt lat="45.48442" lon="4.65975">
        <ele>499</ele>
        <time>2018-08-15T08:11:43.247Z</time>
      </trkpt>
      <trkpt lat="45.48442" lon="4.65975">
        <ele>499</ele>
        <time>2018-08-15T08:11:44.239Z</time>
      </trkpt>
      <trkpt lat="45.48441" lon="4.65981">
        <ele>500</ele>
        <time>2018-08-15T08:11:45.249Z</time>
      </trkpt>
      <trkpt lat="45.48441" lon="4.65981">
        <ele>500</ele>
        <time>2018-08-15T08:11:46.238Z</time>
      </trkpt>
      <trkpt lat="45.48441" lon="4.65987">
        <ele>500</ele>
        <time>2018-08-15T08:11:47.248Z</time>
      </trkpt>
      <trkpt lat="45.48441" lon="4.65987">
        <ele>500</ele>
        <time>2018-08-15T08:11:48.237Z</time>
      </trkpt>
      <trkpt lat="45.48443" lon="4.65993">
        <ele>501</ele>
        <time>2018-08-15T08:11:49.233Z</time>
      </trkpt>
      <trkpt lat="45.48443" lon="4.65993">
        <ele>501</ele>
        <time>2018-08-15T08:11:50.262Z</time>
      </trkpt>
      <trkpt lat="45.48444" lon="4.65999">
        <ele>502</ele>
        <time>2018-08-15T08:11:51.234Z</time>
      </trkpt>
      <trkpt lat="45.48444" lon="4.65999">
        <ele>502</ele>
        <time>2018-08-15T08:11:52.270Z</time>
      </trkpt>
      <trkpt lat="45.48447" lon="4.66003">
        <ele>503</ele>
        <time>2018-08-15T08:11:53.240Z</time>
      </trkpt>
      <trkpt lat="45.48447" lon="4.66003">
        <ele>503</ele>
        <time>2018-08-15T08:11:54.257Z</time>
      </trkpt>
      <trkpt lat="45.4845" lon="4.66007">
        <ele>504</ele>
        <time>2018-08-15T08:11:55.315Z</time>
      </trkpt>
      <trkpt lat="45.4845" lon="4.66007">
        <ele>504</ele>
        <time>2018-08-15T08:11:56.263Z</time>
      </trkpt>
      <trkpt lat="45.48453" lon="4.66013">
        <ele>504</ele>
        <time>2018-08-15T08:11:57.235Z</time>
      </trkpt>
      <trkpt lat="45.48453" lon="4.66013">
        <ele>504</ele>
        <time>2018-08-15T08:11:58.232Z</time>
      </trkpt>
      <trkpt lat="45.48457" lon="4.66016">
        <ele>504</ele>
        <time>2018-08-15T08:11:59.240Z</time>
      </trkpt>
      <trkpt lat="45.48457" lon="4.66016">
        <ele>504</ele>
        <time>2018-08-15T08:12:00.238Z</time>
      </trkpt>
      <trkpt lat="45.48462" lon="4.6602">
        <ele>505</ele>
        <time>2018-08-15T08:12:01.278Z</time>
      </trkpt>
      <trkpt lat="45.48462" lon="4.6602">
        <ele>505</ele>
        <time>2018-08-15T08:12:02.256Z</time>
      </trkpt>
      <trkpt lat="45.48466" lon="4.66024">
        <ele>505</ele>
        <time>2018-08-15T08:12:03.269Z</time>
      </trkpt>
      <trkpt lat="45.48466" lon="4.66024">
        <ele>505</ele>
        <time>2018-08-15T08:12:04.264Z</time>
      </trkpt>
      <trkpt lat="45.4847" lon="4.66028">
        <ele>506</ele>
        <time>2018-08-15T08:12:05.279Z</time>
      </trkpt>
      <trkpt lat="45.4847" lon="4.66028">
        <ele>506</ele>
        <time>2018-08-15T08:12:06.239Z</time>
      </trkpt>
      <trkpt lat="45.48475" lon="4.66032">
        <ele>506</ele>
        <time>2018-08-15T08:12:07.250Z</time>
      </trkpt>
      <trkpt lat="45.48475" lon="4.66032">
        <ele>506</ele>
        <time>2018-08-15T08:12:08.239Z</time>
      </trkpt>
      <trkpt lat="45.48479" lon="4.66035">
        <ele>507</ele>
        <time>2018-08-15T08:12:09.258Z</time>
      </trkpt>
      <trkpt lat="45.48479" lon="4.66035">
        <ele>507</ele>
        <time>2018-08-15T08:12:10.246Z</time>
      </trkpt>
      <trkpt lat="45.48483" lon="4.66038">
        <ele>507</ele>
        <time>2018-08-15T08:12:11.250Z</time>
      </trkpt>
      <trkpt lat="45.48483" lon="4.66038">
        <ele>507</ele>
        <time>2018-08-15T08:12:12.238Z</time>
      </trkpt>
      <trkpt lat="45.48488" lon="4.66042">
        <ele>508</ele>
        <time>2018-08-15T08:12:13.247Z</time>
      </trkpt>
      <trkpt lat="45.4849" lon="4.66044">
        <ele>508</ele>
        <time>2018-08-15T08:12:14.252Z</time>
      </trkpt>
      <trkpt lat="45.48491" lon="4.66045">
        <ele>508</ele>
        <time>2018-08-15T08:12:15.262Z</time>
      </trkpt>
      <trkpt lat="45.48491" lon="4.66045">
        <ele>508</ele>
        <time>2018-08-15T08:12:16.248Z</time>
      </trkpt>
      <trkpt lat="45.48495" lon="4.66049">
        <ele>508</ele>
        <time>2018-08-15T08:12:17.233Z</time>
      </trkpt>
      <trkpt lat="45.48497" lon="4.66052">
        <ele>508</ele>
        <time>2018-08-15T08:12:18.262Z</time>
      </trkpt>
      <trkpt lat="45.48497" lon="4.66052">
        <ele>508</ele>
        <time>2018-08-15T08:12:19.246Z</time>
      </trkpt>
      <trkpt lat="45.48501" lon="4.66056">
        <ele>508</ele>
        <time>2018-08-15T08:12:20.264Z</time>
      </trkpt>
      <trkpt lat="45.48503" lon="4.66059">
        <ele>508</ele>
        <time>2018-08-15T08:12:21.247Z</time>
      </trkpt>
      <trkpt lat="45.48503" lon="4.66059">
        <ele>508</ele>
        <time>2018-08-15T08:12:22.260Z</time>
      </trkpt>
      <trkpt lat="45.48506" lon="4.66064">
        <ele>507</ele>
        <time>2018-08-15T08:12:23.280Z</time>
      </trkpt>
      <trkpt lat="45.48506" lon="4.66064">
        <ele>507</ele>
        <time>2018-08-15T08:12:24.248Z</time>
      </trkpt>
      <trkpt lat="45.48509" lon="4.66069">
        <ele>507</ele>
        <time>2018-08-15T08:12:25.259Z</time>
      </trkpt>
      <trkpt lat="45.48509" lon="4.66069">
        <ele>507</ele>
        <time>2018-08-15T08:12:26.239Z</time>
      </trkpt>
      <trkpt lat="45.48512" lon="4.66075">
        <ele>507</ele>
        <time>2018-08-15T08:12:27.247Z</time>
      </trkpt>
      <trkpt lat="45.48512" lon="4.66075">
        <ele>507</ele>
        <time>2018-08-15T08:12:28.240Z</time>
      </trkpt>
      <trkpt lat="45.48515" lon="4.6608">
        <ele>506</ele>
        <time>2018-08-15T08:12:29.250Z</time>
      </trkpt>
      <trkpt lat="45.48515" lon="4.6608">
        <ele>506</ele>
        <time>2018-08-15T08:12:30.238Z</time>
      </trkpt>
      <trkpt lat="45.48517" lon="4.66086">
        <ele>506</ele>
        <time>2018-08-15T08:12:31.252Z</time>
      </trkpt>
      <trkpt lat="45.48517" lon="4.66086">
        <ele>506</ele>
        <time>2018-08-15T08:12:32.238Z</time>
      </trkpt>
      <trkpt lat="45.48519" lon="4.66093">
        <ele>505</ele>
        <time>2018-08-15T08:12:33.245Z</time>
      </trkpt>
      <trkpt lat="45.48519" lon="4.66093">
        <ele>505</ele>
        <time>2018-08-15T08:12:34.244Z</time>
      </trkpt>
      <trkpt lat="45.48519" lon="4.66099">
        <ele>505</ele>
        <time>2018-08-15T08:12:35.257Z</time>
      </trkpt>
      <trkpt lat="45.48519" lon="4.66099">
        <ele>505</ele>
        <time>2018-08-15T08:12:36.261Z</time>
      </trkpt>
      <trkpt lat="45.4852" lon="4.66106">
        <ele>505</ele>
        <time>2018-08-15T08:12:37.241Z</time>
      </trkpt>
      <trkpt lat="45.48521" lon="4.66109">
        <ele>504</ele>
        <time>2018-08-15T08:12:38.271Z</time>
      </trkpt>
      <trkpt lat="45.48522" lon="4.66112">
        <ele>504</ele>
        <time>2018-08-15T08:12:39.260Z</time>
      </trkpt>
      <trkpt lat="45.48522" lon="4.66112">
        <ele>504</ele>
        <time>2018-08-15T08:12:40.236Z</time>
      </trkpt>
      <trkpt lat="45.48524" lon="4.66119">
        <ele>504</ele>
        <time>2018-08-15T08:12:41.245Z</time>
      </trkpt>
      <trkpt lat="45.48524" lon="4.66119">
        <ele>504</ele>
        <time>2018-08-15T08:12:42.270Z</time>
      </trkpt>
      <trkpt lat="45.48525" lon="4.66125">
        <ele>504</ele>
        <time>2018-08-15T08:12:43.240Z</time>
      </trkpt>
      <trkpt lat="45.48525" lon="4.66125">
        <ele>504</ele>
        <time>2018-08-15T08:12:44.235Z</time>
      </trkpt>
      <trkpt lat="45.48526" lon="4.66132">
        <ele>504</ele>
        <time>2018-08-15T08:12:45.244Z</time>
      </trkpt>
      <trkpt lat="45.48526" lon="4.66132">
        <ele>504</ele>
        <time>2018-08-15T08:12:46.257Z</time>
      </trkpt>
      <trkpt lat="45.48528" lon="4.66138">
        <ele>504</ele>
        <time>2018-08-15T08:12:47.251Z</time>
      </trkpt>
      <trkpt lat="45.48528" lon="4.66138">
        <ele>504</ele>
        <time>2018-08-15T08:12:48.232Z</time>
      </trkpt>
      <trkpt lat="45.48528" lon="4.66145">
        <ele>504</ele>
        <time>2018-08-15T08:12:49.242Z</time>
      </trkpt>
      <trkpt lat="45.48528" lon="4.66145">
        <ele>504</ele>
        <time>2018-08-15T08:12:50.236Z</time>
      </trkpt>
      <trkpt lat="45.48529" lon="4.66152">
        <ele>504</ele>
        <time>2018-08-15T08:12:51.248Z</time>
      </trkpt>
      <trkpt lat="45.48529" lon="4.66152">
        <ele>504</ele>
        <time>2018-08-15T08:12:52.256Z</time>
      </trkpt>
      <trkpt lat="45.48529" lon="4.66158">
        <ele>504</ele>
        <time>2018-08-15T08:12:53.266Z</time>
      </trkpt>
      <trkpt lat="45.48529" lon="4.66158">
        <ele>504</ele>
        <time>2018-08-15T08:12:54.256Z</time>
      </trkpt>
      <trkpt lat="45.4853" lon="4.66165">
        <ele>504</ele>
        <time>2018-08-15T08:12:55.313Z</time>
      </trkpt>
      <trkpt lat="45.48529" lon="4.66168">
        <ele>504</ele>
        <time>2018-08-15T08:12:56.247Z</time>
      </trkpt>
      <trkpt lat="45.48529" lon="4.66171">
        <ele>504</ele>
        <time>2018-08-15T08:12:57.241Z</time>
      </trkpt>
      <trkpt lat="45.48529" lon="4.66171">
        <ele>504</ele>
        <time>2018-08-15T08:12:58.239Z</time>
      </trkpt>
      <trkpt lat="45.48528" lon="4.66177">
        <ele>504</ele>
        <time>2018-08-15T08:12:59.259Z</time>
      </trkpt>
      <trkpt lat="45.48528" lon="4.66177">
        <ele>504</ele>
        <time>2018-08-15T08:13:00.254Z</time>
      </trkpt>
      <trkpt lat="45.48527" lon="4.66183">
        <ele>505</ele>
        <time>2018-08-15T08:13:01.263Z</time>
      </trkpt>
      <trkpt lat="45.48527" lon="4.66183">
        <ele>505</ele>
        <time>2018-08-15T08:13:02.252Z</time>
      </trkpt>
      <trkpt lat="45.48526" lon="4.66189">
        <ele>504</ele>
        <time>2018-08-15T08:13:03.263Z</time>
      </trkpt>
      <trkpt lat="45.48526" lon="4.66189">
        <ele>504</ele>
        <time>2018-08-15T08:13:04.249Z</time>
      </trkpt>
      <trkpt lat="45.48525" lon="4.66195">
        <ele>505</ele>
        <time>2018-08-15T08:13:05.264Z</time>
      </trkpt>
      <trkpt lat="45.48525" lon="4.66195">
        <ele>505</ele>
        <time>2018-08-15T08:13:06.236Z</time>
      </trkpt>
      <trkpt lat="45.48524" lon="4.66202">
        <ele>506</ele>
        <time>2018-08-15T08:13:07.247Z</time>
      </trkpt>
      <trkpt lat="45.48524" lon="4.66202">
        <ele>506</ele>
        <time>2018-08-15T08:13:08.247Z</time>
      </trkpt>
      <trkpt lat="45.48522" lon="4.66208">
        <ele>506</ele>
        <time>2018-08-15T08:13:09.265Z</time>
      </trkpt>
      <trkpt lat="45.48522" lon="4.66208">
        <ele>506</ele>
        <time>2018-08-15T08:13:10.259Z</time>
      </trkpt>
      <trkpt lat="45.4852" lon="4.66214">
        <ele>507</ele>
        <time>2018-08-15T08:13:11.237Z</time>
      </trkpt>
      <trkpt lat="45.4852" lon="4.66214">
        <ele>507</ele>
        <time>2018-08-15T08:13:12.243Z</time>
      </trkpt>
      <trkpt lat="45.48517" lon="4.6622">
        <ele>507</ele>
        <time>2018-08-15T08:13:13.257Z</time>
      </trkpt>
      <trkpt lat="45.48516" lon="4.66223">
        <ele>507</ele>
        <time>2018-08-15T08:13:14.250Z</time>
      </trkpt>
      <trkpt lat="45.48516" lon="4.66223">
        <ele>507</ele>
        <time>2018-08-15T08:13:15.266Z</time>
      </trkpt>
      <trkpt lat="45.48514" lon="4.66229">
        <ele>507</ele>
        <time>2018-08-15T08:13:16.234Z</time>
      </trkpt>
      <trkpt lat="45.48514" lon="4.66229">
        <ele>507</ele>
        <time>2018-08-15T08:13:17.256Z</time>
      </trkpt>
      <trkpt lat="45.48511" lon="4.66234">
        <ele>507</ele>
        <time>2018-08-15T08:13:18.266Z</time>
      </trkpt>
      <trkpt lat="45.48511" lon="4.66234">
        <ele>507</ele>
        <time>2018-08-15T08:13:19.235Z</time>
      </trkpt>
      <trkpt lat="45.48508" lon="4.66239">
        <ele>507</ele>
        <time>2018-08-15T08:13:20.242Z</time>
      </trkpt>
      <trkpt lat="45.48507" lon="4.66242">
        <ele>507</ele>
        <time>2018-08-15T08:13:21.235Z</time>
      </trkpt>
      <trkpt lat="45.48507" lon="4.66242">
        <ele>507</ele>
        <time>2018-08-15T08:13:22.269Z</time>
      </trkpt>
      <trkpt lat="45.48507" lon="4.66242">
        <ele>507</ele>
        <time>2018-08-15T08:13:23.325Z</time>
      </trkpt>
      <trkpt lat="45.48504" lon="4.66247">
        <ele>508</ele>
        <time>2018-08-15T08:13:24.238Z</time>
      </trkpt>
      <trkpt lat="45.48501" lon="4.66252">
        <ele>507</ele>
        <time>2018-08-15T08:13:25.248Z</time>
      </trkpt>
      <trkpt lat="45.48499" lon="4.66255">
        <ele>507</ele>
        <time>2018-08-15T08:13:26.262Z</time>
      </trkpt>
      <trkpt lat="45.48497" lon="4.66258">
        <ele>506</ele>
        <time>2018-08-15T08:13:27.235Z</time>
      </trkpt>
      <trkpt lat="45.48497" lon="4.66258">
        <ele>506</ele>
        <time>2018-08-15T08:13:28.247Z</time>
      </trkpt>
      <trkpt lat="45.48493" lon="4.66262">
        <ele>505</ele>
        <time>2018-08-15T08:13:29.266Z</time>
      </trkpt>
      <trkpt lat="45.48493" lon="4.66262">
        <ele>505</ele>
        <time>2018-08-15T08:13:30.269Z</time>
      </trkpt>
      <trkpt lat="45.4849" lon="4.66266">
        <ele>506</ele>
        <time>2018-08-15T08:13:31.243Z</time>
      </trkpt>
      <trkpt lat="45.4849" lon="4.66266">
        <ele>506</ele>
        <time>2018-08-15T08:13:32.239Z</time>
      </trkpt>
      <trkpt lat="45.48487" lon="4.6627">
        <ele>506</ele>
        <time>2018-08-15T08:13:33.250Z</time>
      </trkpt>
      <trkpt lat="45.48487" lon="4.6627">
        <ele>506</ele>
        <time>2018-08-15T08:13:34.233Z</time>
      </trkpt>
      <trkpt lat="45.48484" lon="4.66273">
        <ele>506</ele>
        <time>2018-08-15T08:13:35.240Z</time>
      </trkpt>
      <trkpt lat="45.48484" lon="4.66273">
        <ele>506</ele>
        <time>2018-08-15T08:13:36.236Z</time>
      </trkpt>
      <trkpt lat="45.48481" lon="4.66276">
        <ele>507</ele>
        <time>2018-08-15T08:13:37.260Z</time>
      </trkpt>
      <trkpt lat="45.48481" lon="4.66276">
        <ele>507</ele>
        <time>2018-08-15T08:13:38.240Z</time>
      </trkpt>
      <trkpt lat="45.48478" lon="4.66279">
        <ele>508</ele>
        <time>2018-08-15T08:13:39.248Z</time>
      </trkpt>
      <trkpt lat="45.48478" lon="4.66279">
        <ele>508</ele>
        <time>2018-08-15T08:13:40.245Z</time>
      </trkpt>
      <trkpt lat="45.48474" lon="4.66283">
        <ele>508</ele>
        <time>2018-08-15T08:13:41.258Z</time>
      </trkpt>
      <trkpt lat="45.48474" lon="4.66283">
        <ele>508</ele>
        <time>2018-08-15T08:13:42.255Z</time>
      </trkpt>
      <trkpt lat="45.48469" lon="4.66287">
        <ele>509</ele>
        <time>2018-08-15T08:13:43.268Z</time>
      </trkpt>
      <trkpt lat="45.48469" lon="4.66287">
        <ele>509</ele>
        <time>2018-08-15T08:13:44.251Z</time>
      </trkpt>
      <trkpt lat="45.48465" lon="4.66291">
        <ele>509</ele>
        <time>2018-08-15T08:13:45.265Z</time>
      </trkpt>
      <trkpt lat="45.48465" lon="4.66291">
        <ele>509</ele>
        <time>2018-08-15T08:13:46.243Z</time>
      </trkpt>
      <trkpt lat="45.4846" lon="4.66293">
        <ele>510</ele>
        <time>2018-08-15T08:13:47.272Z</time>
      </trkpt>
      <trkpt lat="45.4846" lon="4.66293">
        <ele>510</ele>
        <time>2018-08-15T08:13:48.257Z</time>
      </trkpt>
      <trkpt lat="45.48456" lon="4.66295">
        <ele>510</ele>
        <time>2018-08-15T08:13:49.265Z</time>
      </trkpt>
      <trkpt lat="45.48456" lon="4.66295">
        <ele>510</ele>
        <time>2018-08-15T08:13:50.256Z</time>
      </trkpt>
      <trkpt lat="45.48452" lon="4.66297">
        <ele>510</ele>
        <time>2018-08-15T08:13:51.266Z</time>
      </trkpt>
      <trkpt lat="45.48452" lon="4.66297">
        <ele>510</ele>
        <time>2018-08-15T08:13:52.255Z</time>
      </trkpt>
      <trkpt lat="45.48448" lon="4.66297">
        <ele>511</ele>
        <time>2018-08-15T08:13:53.268Z</time>
      </trkpt>
      <trkpt lat="45.48448" lon="4.66297">
        <ele>511</ele>
        <time>2018-08-15T08:13:54.253Z</time>
      </trkpt>
      <trkpt lat="45.48444" lon="4.66296">
        <ele>511</ele>
        <time>2018-08-15T08:13:55.301Z</time>
      </trkpt>
      <trkpt lat="45.48444" lon="4.66296">
        <ele>511</ele>
        <time>2018-08-15T08:13:56.255Z</time>
      </trkpt>
      <trkpt lat="45.48441" lon="4.66296">
        <ele>511</ele>
        <time>2018-08-15T08:13:57.266Z</time>
      </trkpt>
      <trkpt lat="45.48441" lon="4.66296">
        <ele>511</ele>
        <time>2018-08-15T08:13:58.268Z</time>
      </trkpt>
      <trkpt lat="45.48436" lon="4.66298">
        <ele>512</ele>
        <time>2018-08-15T08:13:59.238Z</time>
      </trkpt>
      <trkpt lat="45.48434" lon="4.66298">
        <ele>512</ele>
        <time>2018-08-15T08:14:00.258Z</time>
      </trkpt>
      <trkpt lat="45.48434" lon="4.66298">
        <ele>512</ele>
        <time>2018-08-15T08:14:01.256Z</time>
      </trkpt>
      <trkpt lat="45.48431" lon="4.66299">
        <ele>512</ele>
        <time>2018-08-15T08:14:02.268Z</time>
      </trkpt>
      <trkpt lat="45.48428" lon="4.66299">
        <ele>512</ele>
        <time>2018-08-15T08:14:03.254Z</time>
      </trkpt>
      <trkpt lat="45.48428" lon="4.66299">
        <ele>512</ele>
        <time>2018-08-15T08:14:04.247Z</time>
      </trkpt>
      <trkpt lat="45.48424" lon="4.66301">
        <ele>512</ele>
        <time>2018-08-15T08:14:05.257Z</time>
      </trkpt>
      <trkpt lat="45.48424" lon="4.66301">
        <ele>512</ele>
        <time>2018-08-15T08:14:06.270Z</time>
      </trkpt>
      <trkpt lat="45.4842" lon="4.66304">
        <ele>513</ele>
        <time>2018-08-15T08:14:07.238Z</time>
      </trkpt>
      <trkpt lat="45.4842" lon="4.66304">
        <ele>513</ele>
        <time>2018-08-15T08:14:08.238Z</time>
      </trkpt>
      <trkpt lat="45.48417" lon="4.66305">
        <ele>513</ele>
        <time>2018-08-15T08:14:09.251Z</time>
      </trkpt>
      <trkpt lat="45.48417" lon="4.66305">
        <ele>513</ele>
        <time>2018-08-15T08:14:10.257Z</time>
      </trkpt>
      <trkpt lat="45.48414" lon="4.66308">
        <ele>514</ele>
        <time>2018-08-15T08:14:11.266Z</time>
      </trkpt>
      <trkpt lat="45.48414" lon="4.66308">
        <ele>514</ele>
        <time>2018-08-15T08:14:12.257Z</time>
      </trkpt>
      <trkpt lat="45.4841" lon="4.66311">
        <ele>514</ele>
        <time>2018-08-15T08:14:13.266Z</time>
      </trkpt>
      <trkpt lat="45.4841" lon="4.66311">
        <ele>514</ele>
        <time>2018-08-15T08:14:14.241Z</time>
      </trkpt>
      <trkpt lat="45.48408" lon="4.66314">
        <ele>515</ele>
        <time>2018-08-15T08:14:15.269Z</time>
      </trkpt>
      <trkpt lat="45.48408" lon="4.66314">
        <ele>515</ele>
        <time>2018-08-15T08:14:16.251Z</time>
      </trkpt>
      <trkpt lat="45.48404" lon="4.66319">
        <ele>515</ele>
        <time>2018-08-15T08:14:17.259Z</time>
      </trkpt>
      <trkpt lat="45.48404" lon="4.66319">
        <ele>515</ele>
        <time>2018-08-15T08:14:18.243Z</time>
      </trkpt>
      <trkpt lat="45.48402" lon="4.66324">
        <ele>516</ele>
        <time>2018-08-15T08:14:19.270Z</time>
      </trkpt>
      <trkpt lat="45.48402" lon="4.66324">
        <ele>516</ele>
        <time>2018-08-15T08:14:20.238Z</time>
      </trkpt>
      <trkpt lat="45.484" lon="4.6633">
        <ele>516</ele>
        <time>2018-08-15T08:14:21.248Z</time>
      </trkpt>
      <trkpt lat="45.484" lon="4.6633">
        <ele>516</ele>
        <time>2018-08-15T08:14:22.270Z</time>
      </trkpt>
      <trkpt lat="45.484" lon="4.66337">
        <ele>517</ele>
        <time>2018-08-15T08:14:23.241Z</time>
      </trkpt>
      <trkpt lat="45.484" lon="4.66337">
        <ele>517</ele>
        <time>2018-08-15T08:14:24.252Z</time>
      </trkpt>
      <trkpt lat="45.48398" lon="4.66344">
        <ele>518</ele>
        <time>2018-08-15T08:14:25.259Z</time>
      </trkpt>
      <trkpt lat="45.48398" lon="4.66344">
        <ele>518</ele>
        <time>2018-08-15T08:14:26.239Z</time>
      </trkpt>
      <trkpt lat="45.48399" lon="4.6635">
        <ele>518</ele>
        <time>2018-08-15T08:14:27.248Z</time>
      </trkpt>
      <trkpt lat="45.48399" lon="4.6635">
        <ele>518</ele>
        <time>2018-08-15T08:14:28.235Z</time>
      </trkpt>
      <trkpt lat="45.48398" lon="4.66356">
        <ele>519</ele>
        <time>2018-08-15T08:14:29.245Z</time>
      </trkpt>
      <trkpt lat="45.48398" lon="4.66356">
        <ele>519</ele>
        <time>2018-08-15T08:14:30.236Z</time>
      </trkpt>
      <trkpt lat="45.48398" lon="4.66364">
        <ele>519</ele>
        <time>2018-08-15T08:14:31.250Z</time>
      </trkpt>
      <trkpt lat="45.48398" lon="4.66367">
        <ele>520</ele>
        <time>2018-08-15T08:14:32.251Z</time>
      </trkpt>
      <trkpt lat="45.48397" lon="4.66369">
        <ele>520</ele>
        <time>2018-08-15T08:14:33.257Z</time>
      </trkpt>
      <trkpt lat="45.48397" lon="4.66369">
        <ele>520</ele>
        <time>2018-08-15T08:14:34.254Z</time>
      </trkpt>
      <trkpt lat="45.48396" lon="4.66374">
        <ele>521</ele>
        <time>2018-08-15T08:14:35.261Z</time>
      </trkpt>
      <trkpt lat="45.48396" lon="4.66377">
        <ele>521</ele>
        <time>2018-08-15T08:14:36.269Z</time>
      </trkpt>
      <trkpt lat="45.48396" lon="4.66377">
        <ele>521</ele>
        <time>2018-08-15T08:14:37.238Z</time>
      </trkpt>
      <trkpt lat="45.48395" lon="4.66383">
        <ele>522</ele>
        <time>2018-08-15T08:14:38.254Z</time>
      </trkpt>
      <trkpt lat="45.48394" lon="4.66385">
        <ele>522</ele>
        <time>2018-08-15T08:14:39.247Z</time>
      </trkpt>
      <trkpt lat="45.48394" lon="4.66385">
        <ele>522</ele>
        <time>2018-08-15T08:14:40.248Z</time>
      </trkpt>
      <trkpt lat="45.48393" lon="4.66391">
        <ele>523</ele>
        <time>2018-08-15T08:14:41.256Z</time>
      </trkpt>
      <trkpt lat="45.48393" lon="4.66391">
        <ele>523</ele>
        <time>2018-08-15T08:14:42.260Z</time>
      </trkpt>
      <trkpt lat="45.48392" lon="4.66397">
        <ele>524</ele>
        <time>2018-08-15T08:14:43.267Z</time>
      </trkpt>
      <trkpt lat="45.48392" lon="4.66397">
        <ele>524</ele>
        <time>2018-08-15T08:14:44.264Z</time>
      </trkpt>
      <trkpt lat="45.4839" lon="4.66404">
        <ele>524</ele>
        <time>2018-08-15T08:14:45.236Z</time>
      </trkpt>
      <trkpt lat="45.4839" lon="4.66404">
        <ele>524</ele>
        <time>2018-08-15T08:14:46.258Z</time>
      </trkpt>
      <trkpt lat="45.48389" lon="4.66412">
        <ele>526</ele>
        <time>2018-08-15T08:14:47.248Z</time>
      </trkpt>
      <trkpt lat="45.48389" lon="4.66412">
        <ele>526</ele>
        <time>2018-08-15T08:14:48.267Z</time>
      </trkpt>
      <trkpt lat="45.48388" lon="4.6642">
        <ele>527</ele>
        <time>2018-08-15T08:14:49.238Z</time>
      </trkpt>
      <trkpt lat="45.48388" lon="4.6642">
        <ele>527</ele>
        <time>2018-08-15T08:14:50.243Z</time>
      </trkpt>
      <trkpt lat="45.48386" lon="4.66428">
        <ele>528</ele>
        <time>2018-08-15T08:14:51.254Z</time>
      </trkpt>
      <trkpt lat="45.48386" lon="4.66428">
        <ele>528</ele>
        <time>2018-08-15T08:14:52.268Z</time>
      </trkpt>
      <trkpt lat="45.48386" lon="4.66437">
        <ele>529</ele>
        <time>2018-08-15T08:14:53.301Z</time>
      </trkpt>
      <trkpt lat="45.48386" lon="4.66437">
        <ele>529</ele>
        <time>2018-08-15T08:14:54.248Z</time>
      </trkpt>
      <trkpt lat="45.48384" lon="4.66445">
        <ele>530</ele>
        <time>2018-08-15T08:14:55.263Z</time>
      </trkpt>
      <trkpt lat="45.48384" lon="4.66445">
        <ele>530</ele>
        <time>2018-08-15T08:14:56.248Z</time>
      </trkpt>
      <trkpt lat="45.48382" lon="4.66452">
        <ele>531</ele>
        <time>2018-08-15T08:14:57.264Z</time>
      </trkpt>
      <trkpt lat="45.48382" lon="4.66455">
        <ele>532</ele>
        <time>2018-08-15T08:14:58.246Z</time>
      </trkpt>
      <trkpt lat="45.48382" lon="4.66455">
        <ele>532</ele>
        <time>2018-08-15T08:14:59.265Z</time>
      </trkpt>
      <trkpt lat="45.4838" lon="4.66462">
        <ele>532</ele>
        <time>2018-08-15T08:15:00.236Z</time>
      </trkpt>
      <trkpt lat="45.4838" lon="4.66462">
        <ele>532</ele>
        <time>2018-08-15T08:15:01.238Z</time>
      </trkpt>
      <trkpt lat="45.48379" lon="4.66468">
        <ele>533</ele>
        <time>2018-08-15T08:15:02.246Z</time>
      </trkpt>
      <trkpt lat="45.48378" lon="4.66471">
        <ele>533</ele>
        <time>2018-08-15T08:15:03.239Z</time>
      </trkpt>
      <trkpt lat="45.48378" lon="4.66471">
        <ele>533</ele>
        <time>2018-08-15T08:15:04.242Z</time>
      </trkpt>
      <trkpt lat="45.48376" lon="4.66478">
        <ele>534</ele>
        <time>2018-08-15T08:15:05.232Z</time>
      </trkpt>
      <trkpt lat="45.48376" lon="4.66478">
        <ele>534</ele>
        <time>2018-08-15T08:15:06.261Z</time>
      </trkpt>
      <trkpt lat="45.48374" lon="4.66484">
        <ele>534</ele>
        <time>2018-08-15T08:15:07.242Z</time>
      </trkpt>
      <trkpt lat="45.48374" lon="4.66484">
        <ele>534</ele>
        <time>2018-08-15T08:15:08.232Z</time>
      </trkpt>
      <trkpt lat="45.48373" lon="4.66491">
        <ele>535</ele>
        <time>2018-08-15T08:15:09.245Z</time>
      </trkpt>
      <trkpt lat="45.48373" lon="4.66491">
        <ele>535</ele>
        <time>2018-08-15T08:15:10.262Z</time>
      </trkpt>
      <trkpt lat="45.48371" lon="4.66497">
        <ele>535</ele>
        <time>2018-08-15T08:15:11.234Z</time>
      </trkpt>
      <trkpt lat="45.48371" lon="4.66497">
        <ele>535</ele>
        <time>2018-08-15T08:15:12.240Z</time>
      </trkpt>
      <trkpt lat="45.4837" lon="4.66503">
        <ele>535</ele>
        <time>2018-08-15T08:15:13.250Z</time>
      </trkpt>
      <trkpt lat="45.4837" lon="4.66503">
        <ele>535</ele>
        <time>2018-08-15T08:15:14.258Z</time>
      </trkpt>
      <trkpt lat="45.48369" lon="4.6651">
        <ele>536</ele>
        <time>2018-08-15T08:15:15.256Z</time>
      </trkpt>
      <trkpt lat="45.48369" lon="4.6651">
        <ele>536</ele>
        <time>2018-08-15T08:15:16.237Z</time>
      </trkpt>
      <trkpt lat="45.48367" lon="4.66517">
        <ele>537</ele>
        <time>2018-08-15T08:15:17.261Z</time>
      </trkpt>
      <trkpt lat="45.48366" lon="4.6652">
        <ele>537</ele>
        <time>2018-08-15T08:15:18.261Z</time>
      </trkpt>
      <trkpt lat="45.48366" lon="4.6652">
        <ele>537</ele>
        <time>2018-08-15T08:15:19.238Z</time>
      </trkpt>
      <trkpt lat="45.48365" lon="4.66527">
        <ele>537</ele>
        <time>2018-08-15T08:15:20.280Z</time>
      </trkpt>
      <trkpt lat="45.48364" lon="4.66531">
        <ele>537</ele>
        <time>2018-08-15T08:15:21.240Z</time>
      </trkpt>
      <trkpt lat="45.48364" lon="4.66531">
        <ele>537</ele>
        <time>2018-08-15T08:15:22.237Z</time>
      </trkpt>
      <trkpt lat="45.48362" lon="4.66538">
        <ele>537</ele>
        <time>2018-08-15T08:15:23.247Z</time>
      </trkpt>
      <trkpt lat="45.48362" lon="4.66538">
        <ele>537</ele>
        <time>2018-08-15T08:15:24.239Z</time>
      </trkpt>
      <trkpt lat="45.48362" lon="4.66547">
        <ele>537</ele>
        <time>2018-08-15T08:15:25.249Z</time>
      </trkpt>
      <trkpt lat="45.48361" lon="4.6655">
        <ele>537</ele>
        <time>2018-08-15T08:15:26.237Z</time>
      </trkpt>
      <trkpt lat="45.48359" lon="4.66555">
        <ele>537</ele>
        <time>2018-08-15T08:15:27.246Z</time>
      </trkpt>
      <trkpt lat="45.48359" lon="4.66555">
        <ele>537</ele>
        <time>2018-08-15T08:15:28.238Z</time>
      </trkpt>
      <trkpt lat="45.48358" lon="4.66563">
        <ele>537</ele>
        <time>2018-08-15T08:15:29.246Z</time>
      </trkpt>
      <trkpt lat="45.48358" lon="4.66563">
        <ele>537</ele>
        <time>2018-08-15T08:15:30.244Z</time>
      </trkpt>
      <trkpt lat="45.48356" lon="4.66572">
        <ele>538</ele>
        <time>2018-08-15T08:15:31.260Z</time>
      </trkpt>
      <trkpt lat="45.48356" lon="4.66572">
        <ele>538</ele>
        <time>2018-08-15T08:15:32.261Z</time>
      </trkpt>
      <trkpt lat="45.48354" lon="4.6658">
        <ele>538</ele>
        <time>2018-08-15T08:15:33.269Z</time>
      </trkpt>
      <trkpt lat="45.48354" lon="4.6658">
        <ele>538</ele>
        <time>2018-08-15T08:15:34.266Z</time>
      </trkpt>
      <trkpt lat="45.48352" lon="4.66589">
        <ele>538</ele>
        <time>2018-08-15T08:15:35.234Z</time>
      </trkpt>
      <trkpt lat="45.48352" lon="4.66589">
        <ele>538</ele>
        <time>2018-08-15T08:15:36.232Z</time>
      </trkpt>
      <trkpt lat="45.4835" lon="4.66599">
        <ele>539</ele>
        <time>2018-08-15T08:15:37.244Z</time>
      </trkpt>
      <trkpt lat="45.48349" lon="4.66604">
        <ele>539</ele>
        <time>2018-08-15T08:15:38.237Z</time>
      </trkpt>
      <trkpt lat="45.48348" lon="4.66609">
        <ele>539</ele>
        <time>2018-08-15T08:15:39.238Z</time>
      </trkpt>
      <trkpt lat="45.48348" lon="4.66609">
        <ele>539</ele>
        <time>2018-08-15T08:15:40.263Z</time>
      </trkpt>
      <trkpt lat="45.48346" lon="4.66618">
        <ele>540</ele>
        <time>2018-08-15T08:15:41.239Z</time>
      </trkpt>
      <trkpt lat="45.48346" lon="4.66618">
        <ele>540</ele>
        <time>2018-08-15T08:15:42.250Z</time>
      </trkpt>
      <trkpt lat="45.48346" lon="4.66628">
        <ele>540</ele>
        <time>2018-08-15T08:15:43.259Z</time>
      </trkpt>
      <trkpt lat="45.48346" lon="4.66628">
        <ele>540</ele>
        <time>2018-08-15T08:15:44.241Z</time>
      </trkpt>
      <trkpt lat="45.48346" lon="4.66638">
        <ele>540</ele>
        <time>2018-08-15T08:15:45.256Z</time>
      </trkpt>
      <trkpt lat="45.48346" lon="4.66638">
        <ele>540</ele>
        <time>2018-08-15T08:15:46.271Z</time>
      </trkpt>
      <trkpt lat="45.48345" lon="4.66648">
        <ele>540</ele>
        <time>2018-08-15T08:15:47.236Z</time>
      </trkpt>
      <trkpt lat="45.48345" lon="4.66653">
        <ele>540</ele>
        <time>2018-08-15T08:15:48.256Z</time>
      </trkpt>
      <trkpt lat="45.48345" lon="4.66653">
        <ele>540</ele>
        <time>2018-08-15T08:15:49.256Z</time>
      </trkpt>
      <trkpt lat="45.48345" lon="4.66662">
        <ele>540</ele>
        <time>2018-08-15T08:15:50.265Z</time>
      </trkpt>
      <trkpt lat="45.48345" lon="4.66662">
        <ele>540</ele>
        <time>2018-08-15T08:15:51.307Z</time>
      </trkpt>
      <trkpt lat="45.48345" lon="4.66667">
        <ele>539</ele>
        <time>2018-08-15T08:15:52.258Z</time>
      </trkpt>
      <trkpt lat="45.48346" lon="4.66676">
        <ele>539</ele>
        <time>2018-08-15T08:15:53.234Z</time>
      </trkpt>
      <trkpt lat="45.48346" lon="4.66676">
        <ele>539</ele>
        <time>2018-08-15T08:15:54.269Z</time>
      </trkpt>
      <trkpt lat="45.48346" lon="4.66676">
        <ele>539</ele>
        <time>2018-08-15T08:15:55.318Z</time>
      </trkpt>
      <trkpt lat="45.48346" lon="4.66685">
        <ele>539</ele>
        <time>2018-08-15T08:15:56.250Z</time>
      </trkpt>
      <trkpt lat="45.48346" lon="4.66693">
        <ele>539</ele>
        <time>2018-08-15T08:15:57.259Z</time>
      </trkpt>
      <trkpt lat="45.48346" lon="4.66693">
        <ele>539</ele>
        <time>2018-08-15T08:15:58.257Z</time>
      </trkpt>
      <trkpt lat="45.48346" lon="4.66702">
        <ele>539</ele>
        <time>2018-08-15T08:15:59.264Z</time>
      </trkpt>
      <trkpt lat="45.48346" lon="4.66702">
        <ele>539</ele>
        <time>2018-08-15T08:16:00.234Z</time>
      </trkpt>
      <trkpt lat="45.48346" lon="4.66711">
        <ele>538</ele>
        <time>2018-08-15T08:16:01.247Z</time>
      </trkpt>
      <trkpt lat="45.48346" lon="4.66711">
        <ele>538</ele>
        <time>2018-08-15T08:16:02.255Z</time>
      </trkpt>
      <trkpt lat="45.48347" lon="4.66719">
        <ele>538</ele>
        <time>2018-08-15T08:16:03.268Z</time>
      </trkpt>
      <trkpt lat="45.48347" lon="4.66719">
        <ele>538</ele>
        <time>2018-08-15T08:16:04.265Z</time>
      </trkpt>
      <trkpt lat="45.48347" lon="4.66728">
        <ele>538</ele>
        <time>2018-08-15T08:16:05.238Z</time>
      </trkpt>
      <trkpt lat="45.48347" lon="4.66728">
        <ele>538</ele>
        <time>2018-08-15T08:16:06.236Z</time>
      </trkpt>
      <trkpt lat="45.48347" lon="4.66736">
        <ele>538</ele>
        <time>2018-08-15T08:16:07.246Z</time>
      </trkpt>
      <trkpt lat="45.48347" lon="4.6674">
        <ele>538</ele>
        <time>2018-08-15T08:16:08.264Z</time>
      </trkpt>
      <trkpt lat="45.48347" lon="4.66744">
        <ele>538</ele>
        <time>2018-08-15T08:16:09.260Z</time>
      </trkpt>
      <trkpt lat="45.48347" lon="4.66744">
        <ele>538</ele>
        <time>2018-08-15T08:16:10.247Z</time>
      </trkpt>
      <trkpt lat="45.48347" lon="4.66752">
        <ele>538</ele>
        <time>2018-08-15T08:16:11.256Z</time>
      </trkpt>
      <trkpt lat="45.48347" lon="4.66752">
        <ele>538</ele>
        <time>2018-08-15T08:16:12.257Z</time>
      </trkpt>
      <trkpt lat="45.48347" lon="4.6676">
        <ele>538</ele>
        <time>2018-08-15T08:16:13.265Z</time>
      </trkpt>
      <trkpt lat="45.48347" lon="4.6676">
        <ele>538</ele>
        <time>2018-08-15T08:16:14.260Z</time>
      </trkpt>
      <trkpt lat="45.48347" lon="4.66768">
        <ele>538</ele>
        <time>2018-08-15T08:16:15.272Z</time>
      </trkpt>
      <trkpt lat="45.48347" lon="4.66768">
        <ele>538</ele>
        <time>2018-08-15T08:16:16.253Z</time>
      </trkpt>
      <trkpt lat="45.48346" lon="4.66775">
        <ele>538</ele>
        <time>2018-08-15T08:16:17.263Z</time>
      </trkpt>
      <trkpt lat="45.48346" lon="4.66775">
        <ele>538</ele>
        <time>2018-08-15T08:16:18.259Z</time>
      </trkpt>
      <trkpt lat="45.48345" lon="4.66783">
        <ele>538</ele>
        <time>2018-08-15T08:16:19.267Z</time>
      </trkpt>
      <trkpt lat="45.48345" lon="4.66783">
        <ele>538</ele>
        <time>2018-08-15T08:16:20.254Z</time>
      </trkpt>
      <trkpt lat="45.48344" lon="4.66792">
        <ele>538</ele>
        <time>2018-08-15T08:16:21.264Z</time>
      </trkpt>
      <trkpt lat="45.48344" lon="4.66792">
        <ele>538</ele>
        <time>2018-08-15T08:16:22.239Z</time>
      </trkpt>
      <trkpt lat="45.48342" lon="4.66801">
        <ele>538</ele>
        <time>2018-08-15T08:16:23.248Z</time>
      </trkpt>
      <trkpt lat="45.48342" lon="4.66801">
        <ele>538</ele>
        <time>2018-08-15T08:16:24.235Z</time>
      </trkpt>
      <trkpt lat="45.4834" lon="4.6681">
        <ele>537</ele>
        <time>2018-08-15T08:16:25.246Z</time>
      </trkpt>
      <trkpt lat="45.4834" lon="4.6681">
        <ele>537</ele>
        <time>2018-08-15T08:16:26.233Z</time>
      </trkpt>
      <trkpt lat="45.48337" lon="4.66821">
        <ele>537</ele>
        <time>2018-08-15T08:16:27.242Z</time>
      </trkpt>
      <trkpt lat="45.48337" lon="4.66821">
        <ele>537</ele>
        <time>2018-08-15T08:16:28.235Z</time>
      </trkpt>
      <trkpt lat="45.48332" lon="4.66833">
        <ele>537</ele>
        <time>2018-08-15T08:16:29.242Z</time>
      </trkpt>
      <trkpt lat="45.48332" lon="4.66833">
        <ele>537</ele>
        <time>2018-08-15T08:16:30.272Z</time>
      </trkpt>
      <trkpt lat="45.48327" lon="4.66846">
        <ele>537</ele>
        <time>2018-08-15T08:16:31.238Z</time>
      </trkpt>
      <trkpt lat="45.48327" lon="4.66846">
        <ele>537</ele>
        <time>2018-08-15T08:16:32.237Z</time>
      </trkpt>
      <trkpt lat="45.48322" lon="4.66859">
        <ele>536</ele>
        <time>2018-08-15T08:16:33.247Z</time>
      </trkpt>
      <trkpt lat="45.48322" lon="4.66859">
        <ele>536</ele>
        <time>2018-08-15T08:16:34.270Z</time>
      </trkpt>
      <trkpt lat="45.48316" lon="4.66873">
        <ele>535</ele>
        <time>2018-08-15T08:16:35.238Z</time>
      </trkpt>
      <trkpt lat="45.48316" lon="4.66873">
        <ele>535</ele>
        <time>2018-08-15T08:16:36.269Z</time>
      </trkpt>
      <trkpt lat="45.48309" lon="4.66887">
        <ele>535</ele>
        <time>2018-08-15T08:16:37.257Z</time>
      </trkpt>
      <trkpt lat="45.48309" lon="4.66887">
        <ele>535</ele>
        <time>2018-08-15T08:16:38.264Z</time>
      </trkpt>
      <trkpt lat="45.48301" lon="4.66901">
        <ele>534</ele>
        <time>2018-08-15T08:16:39.274Z</time>
      </trkpt>
      <trkpt lat="45.48301" lon="4.66901">
        <ele>534</ele>
        <time>2018-08-15T08:16:40.262Z</time>
      </trkpt>
      <trkpt lat="45.48294" lon="4.66918">
        <ele>533</ele>
        <time>2018-08-15T08:16:41.232Z</time>
      </trkpt>
      <trkpt lat="45.48294" lon="4.66918">
        <ele>533</ele>
        <time>2018-08-15T08:16:42.264Z</time>
      </trkpt>
      <trkpt lat="45.48286" lon="4.66935">
        <ele>533</ele>
        <time>2018-08-15T08:16:43.236Z</time>
      </trkpt>
      <trkpt lat="45.48286" lon="4.66935">
        <ele>533</ele>
        <time>2018-08-15T08:16:44.249Z</time>
      </trkpt>
      <trkpt lat="45.48277" lon="4.6695">
        <ele>532</ele>
        <time>2018-08-15T08:16:45.260Z</time>
      </trkpt>
      <trkpt lat="45.48277" lon="4.6695">
        <ele>532</ele>
        <time>2018-08-15T08:16:46.253Z</time>
      </trkpt>
      <trkpt lat="45.48265" lon="4.66959">
        <ele>531</ele>
        <time>2018-08-15T08:16:47.268Z</time>
      </trkpt>
      <trkpt lat="45.48265" lon="4.66959">
        <ele>531</ele>
        <time>2018-08-15T08:16:48.251Z</time>
      </trkpt>
      <trkpt lat="45.48252" lon="4.6696">
        <ele>530</ele>
        <time>2018-08-15T08:16:49.236Z</time>
      </trkpt>
      <trkpt lat="45.48252" lon="4.6696">
        <ele>530</ele>
        <time>2018-08-15T08:16:50.240Z</time>
      </trkpt>
      <trkpt lat="45.48244" lon="4.66956">
        <ele>530</ele>
        <time>2018-08-15T08:16:51.249Z</time>
      </trkpt>
      <trkpt lat="45.48244" lon="4.66956">
        <ele>530</ele>
        <time>2018-08-15T08:16:52.242Z</time>
      </trkpt>
      <trkpt lat="45.48238" lon="4.66953">
        <ele>529</ele>
        <time>2018-08-15T08:16:53.252Z</time>
      </trkpt>
      <trkpt lat="45.48238" lon="4.66953">
        <ele>529</ele>
        <time>2018-08-15T08:16:54.237Z</time>
      </trkpt>
      <trkpt lat="45.48232" lon="4.66949">
        <ele>529</ele>
        <time>2018-08-15T08:16:55.245Z</time>
      </trkpt>
      <trkpt lat="45.48229" lon="4.66947">
        <ele>529</ele>
        <time>2018-08-15T08:16:56.239Z</time>
      </trkpt>
      <trkpt lat="45.48229" lon="4.66947">
        <ele>529</ele>
        <time>2018-08-15T08:16:57.247Z</time>
      </trkpt>
      <trkpt lat="45.48223" lon="4.66943">
        <ele>529</ele>
        <time>2018-08-15T08:16:58.269Z</time>
      </trkpt>
      <trkpt lat="45.48223" lon="4.66943">
        <ele>529</ele>
        <time>2018-08-15T08:16:59.234Z</time>
      </trkpt>
      <trkpt lat="45.48215" lon="4.66941">
        <ele>528</ele>
        <time>2018-08-15T08:17:00.243Z</time>
      </trkpt>
      <trkpt lat="45.48215" lon="4.66941">
        <ele>528</ele>
        <time>2018-08-15T08:17:01.257Z</time>
      </trkpt>
      <trkpt lat="45.48208" lon="4.66938">
        <ele>528</ele>
        <time>2018-08-15T08:17:02.266Z</time>
      </trkpt>
      <trkpt lat="45.48205" lon="4.66936">
        <ele>528</ele>
        <time>2018-08-15T08:17:03.232Z</time>
      </trkpt>
      <trkpt lat="45.48205" lon="4.66936">
        <ele>528</ele>
        <time>2018-08-15T08:17:04.260Z</time>
      </trkpt>
      <trkpt lat="45.48198" lon="4.66934">
        <ele>527</ele>
        <time>2018-08-15T08:17:05.238Z</time>
      </trkpt>
      <trkpt lat="45.48198" lon="4.66934">
        <ele>527</ele>
        <time>2018-08-15T08:17:06.240Z</time>
      </trkpt>
      <trkpt lat="45.48192" lon="4.66935">
        <ele>527</ele>
        <time>2018-08-15T08:17:07.251Z</time>
      </trkpt>
      <trkpt lat="45.48192" lon="4.66935">
        <ele>527</ele>
        <time>2018-08-15T08:17:08.266Z</time>
      </trkpt>
      <trkpt lat="45.48188" lon="4.66941">
        <ele>527</ele>
        <time>2018-08-15T08:17:09.238Z</time>
      </trkpt>
      <trkpt lat="45.48188" lon="4.66941">
        <ele>527</ele>
        <time>2018-08-15T08:17:10.243Z</time>
      </trkpt>
      <trkpt lat="45.48184" lon="4.66949">
        <ele>528</ele>
        <time>2018-08-15T08:17:11.261Z</time>
      </trkpt>
      <trkpt lat="45.48184" lon="4.66949">
        <ele>528</ele>
        <time>2018-08-15T08:17:12.237Z</time>
      </trkpt>
      <trkpt lat="45.48182" lon="4.66958">
        <ele>528</ele>
        <time>2018-08-15T08:17:13.243Z</time>
      </trkpt>
      <trkpt lat="45.48182" lon="4.66958">
        <ele>528</ele>
        <time>2018-08-15T08:17:14.240Z</time>
      </trkpt>
      <trkpt lat="45.48184" lon="4.66967">
        <ele>528</ele>
        <time>2018-08-15T08:17:15.246Z</time>
      </trkpt>
      <trkpt lat="45.48184" lon="4.66967">
        <ele>528</ele>
        <time>2018-08-15T08:17:16.264Z</time>
      </trkpt>
      <trkpt lat="45.48187" lon="4.66975">
        <ele>529</ele>
        <time>2018-08-15T08:17:17.232Z</time>
      </trkpt>
      <trkpt lat="45.48187" lon="4.66975">
        <ele>529</ele>
        <time>2018-08-15T08:17:18.243Z</time>
      </trkpt>
      <trkpt lat="45.48191" lon="4.66985">
        <ele>529</ele>
        <time>2018-08-15T08:17:19.234Z</time>
      </trkpt>
      <trkpt lat="45.48191" lon="4.66985">
        <ele>529</ele>
        <time>2018-08-15T08:17:20.232Z</time>
      </trkpt>
      <trkpt lat="45.48195" lon="4.66994">
        <ele>529</ele>
        <time>2018-08-15T08:17:21.239Z</time>
      </trkpt>
      <trkpt lat="45.48195" lon="4.66994">
        <ele>529</ele>
        <time>2018-08-15T08:17:22.253Z</time>
      </trkpt>
      <trkpt lat="45.48199" lon="4.67003">
        <ele>530</ele>
        <time>2018-08-15T08:17:23.263Z</time>
      </trkpt>
      <trkpt lat="45.48199" lon="4.67003">
        <ele>530</ele>
        <time>2018-08-15T08:17:24.244Z</time>
      </trkpt>
      <trkpt lat="45.48201" lon="4.67012">
        <ele>530</ele>
        <time>2018-08-15T08:17:25.253Z</time>
      </trkpt>
      <trkpt lat="45.48201" lon="4.67012">
        <ele>530</ele>
        <time>2018-08-15T08:17:26.264Z</time>
      </trkpt>
      <trkpt lat="45.48203" lon="4.67023">
        <ele>531</ele>
        <time>2018-08-15T08:17:27.248Z</time>
      </trkpt>
      <trkpt lat="45.48203" lon="4.67023">
        <ele>531</ele>
        <time>2018-08-15T08:17:28.254Z</time>
      </trkpt>
      <trkpt lat="45.48205" lon="4.67033">
        <ele>531</ele>
        <time>2018-08-15T08:17:29.264Z</time>
      </trkpt>
      <trkpt lat="45.48205" lon="4.67033">
        <ele>531</ele>
        <time>2018-08-15T08:17:30.258Z</time>
      </trkpt>
      <trkpt lat="45.48206" lon="4.67043">
        <ele>531</ele>
        <time>2018-08-15T08:17:31.236Z</time>
      </trkpt>
      <trkpt lat="45.48206" lon="4.67043">
        <ele>531</ele>
        <time>2018-08-15T08:17:32.237Z</time>
      </trkpt>
      <trkpt lat="45.48206" lon="4.67051">
        <ele>533</ele>
        <time>2018-08-15T08:17:33.245Z</time>
      </trkpt>
      <trkpt lat="45.48206" lon="4.67051">
        <ele>533</ele>
        <time>2018-08-15T08:17:34.252Z</time>
      </trkpt>
      <trkpt lat="45.48204" lon="4.67059">
        <ele>534</ele>
        <time>2018-08-15T08:17:35.259Z</time>
      </trkpt>
      <trkpt lat="45.48204" lon="4.67059">
        <ele>534</ele>
        <time>2018-08-15T08:17:36.256Z</time>
      </trkpt>
      <trkpt lat="45.482" lon="4.67068">
        <ele>535</ele>
        <time>2018-08-15T08:17:37.271Z</time>
      </trkpt>
      <trkpt lat="45.482" lon="4.67068">
        <ele>535</ele>
        <time>2018-08-15T08:17:38.269Z</time>
      </trkpt>
      <trkpt lat="45.48197" lon="4.67076">
        <ele>536</ele>
        <time>2018-08-15T08:17:39.242Z</time>
      </trkpt>
      <trkpt lat="45.48197" lon="4.67076">
        <ele>536</ele>
        <time>2018-08-15T08:17:40.261Z</time>
      </trkpt>
      <trkpt lat="45.48195" lon="4.67084">
        <ele>536</ele>
        <time>2018-08-15T08:17:41.236Z</time>
      </trkpt>
      <trkpt lat="45.48195" lon="4.67084">
        <ele>536</ele>
        <time>2018-08-15T08:17:42.244Z</time>
      </trkpt>
      <trkpt lat="45.48191" lon="4.67094">
        <ele>537</ele>
        <time>2018-08-15T08:17:43.273Z</time>
      </trkpt>
      <trkpt lat="45.48191" lon="4.67094">
        <ele>537</ele>
        <time>2018-08-15T08:17:44.232Z</time>
      </trkpt>
      <trkpt lat="45.48188" lon="4.67104">
        <ele>537</ele>
        <time>2018-08-15T08:17:45.251Z</time>
      </trkpt>
      <trkpt lat="45.48188" lon="4.67104">
        <ele>537</ele>
        <time>2018-08-15T08:17:46.250Z</time>
      </trkpt>
      <trkpt lat="45.48186" lon="4.67115">
        <ele>538</ele>
        <time>2018-08-15T08:17:47.262Z</time>
      </trkpt>
      <trkpt lat="45.48186" lon="4.67115">
        <ele>538</ele>
        <time>2018-08-15T08:17:48.254Z</time>
      </trkpt>
      <trkpt lat="45.48185" lon="4.67127">
        <ele>538</ele>
        <time>2018-08-15T08:17:49.261Z</time>
      </trkpt>
      <trkpt lat="45.48185" lon="4.67127">
        <ele>538</ele>
        <time>2018-08-15T08:17:50.251Z</time>
      </trkpt>
      <trkpt lat="45.48185" lon="4.67139">
        <ele>538</ele>
        <time>2018-08-15T08:17:51.261Z</time>
      </trkpt>
      <trkpt lat="45.48185" lon="4.67139">
        <ele>538</ele>
        <time>2018-08-15T08:17:52.258Z</time>
      </trkpt>
      <trkpt lat="45.48185" lon="4.6715">
        <ele>538</ele>
        <time>2018-08-15T08:17:53.265Z</time>
      </trkpt>
      <trkpt lat="45.48185" lon="4.6715">
        <ele>538</ele>
        <time>2018-08-15T08:17:54.269Z</time>
      </trkpt>
      <trkpt lat="45.48186" lon="4.67162">
        <ele>539</ele>
        <time>2018-08-15T08:17:55.237Z</time>
      </trkpt>
      <trkpt lat="45.48186" lon="4.67162">
        <ele>539</ele>
        <time>2018-08-15T08:17:56.252Z</time>
      </trkpt>
      <trkpt lat="45.48185" lon="4.67174">
        <ele>539</ele>
        <time>2018-08-15T08:17:57.260Z</time>
      </trkpt>
      <trkpt lat="45.48185" lon="4.67174">
        <ele>539</ele>
        <time>2018-08-15T08:17:58.259Z</time>
      </trkpt>
      <trkpt lat="45.48186" lon="4.67184">
        <ele>540</ele>
        <time>2018-08-15T08:17:59.267Z</time>
      </trkpt>
      <trkpt lat="45.48186" lon="4.67184">
        <ele>540</ele>
        <time>2018-08-15T08:18:00.254Z</time>
      </trkpt>
      <trkpt lat="45.48186" lon="4.67196">
        <ele>540</ele>
        <time>2018-08-15T08:18:01.357Z</time>
      </trkpt>
      <trkpt lat="45.48186" lon="4.67196">
        <ele>540</ele>
        <time>2018-08-15T08:18:02.266Z</time>
      </trkpt>
      <trkpt lat="45.48186" lon="4.67207">
        <ele>541</ele>
        <time>2018-08-15T08:18:03.234Z</time>
      </trkpt>
      <trkpt lat="45.48186" lon="4.67207">
        <ele>541</ele>
        <time>2018-08-15T08:18:04.252Z</time>
      </trkpt>
      <trkpt lat="45.48185" lon="4.67218">
        <ele>541</ele>
        <time>2018-08-15T08:18:05.268Z</time>
      </trkpt>
      <trkpt lat="45.48185" lon="4.67218">
        <ele>541</ele>
        <time>2018-08-15T08:18:06.250Z</time>
      </trkpt>
      <trkpt lat="45.48181" lon="4.67229">
        <ele>542</ele>
        <time>2018-08-15T08:18:07.259Z</time>
      </trkpt>
      <trkpt lat="45.48181" lon="4.67229">
        <ele>542</ele>
        <time>2018-08-15T08:18:08.263Z</time>
      </trkpt>
      <trkpt lat="45.48177" lon="4.67238">
        <ele>542</ele>
        <time>2018-08-15T08:18:09.257Z</time>
      </trkpt>
      <trkpt lat="45.48177" lon="4.67238">
        <ele>542</ele>
        <time>2018-08-15T08:18:10.236Z</time>
      </trkpt>
      <trkpt lat="45.48172" lon="4.67246">
        <ele>542</ele>
        <time>2018-08-15T08:18:11.246Z</time>
      </trkpt>
      <trkpt lat="45.48172" lon="4.67246">
        <ele>542</ele>
        <time>2018-08-15T08:18:12.241Z</time>
      </trkpt>
      <trkpt lat="45.48167" lon="4.67254">
        <ele>542</ele>
        <time>2018-08-15T08:18:13.260Z</time>
      </trkpt>
      <trkpt lat="45.48167" lon="4.67254">
        <ele>542</ele>
        <time>2018-08-15T08:18:14.269Z</time>
      </trkpt>
      <trkpt lat="45.48163" lon="4.67262">
        <ele>541</ele>
        <time>2018-08-15T08:18:15.271Z</time>
      </trkpt>
      <trkpt lat="45.48163" lon="4.67262">
        <ele>541</ele>
        <time>2018-08-15T08:18:16.266Z</time>
      </trkpt>
      <trkpt lat="45.48157" lon="4.67269">
        <ele>541</ele>
        <time>2018-08-15T08:18:17.246Z</time>
      </trkpt>
      <trkpt lat="45.48157" lon="4.67269">
        <ele>541</ele>
        <time>2018-08-15T08:18:18.239Z</time>
      </trkpt>
      <trkpt lat="45.48152" lon="4.67277">
        <ele>541</ele>
        <time>2018-08-15T08:18:19.246Z</time>
      </trkpt>
      <trkpt lat="45.48152" lon="4.67277">
        <ele>541</ele>
        <time>2018-08-15T08:18:20.256Z</time>
      </trkpt>
      <trkpt lat="45.48147" lon="4.67285">
        <ele>541</ele>
        <time>2018-08-15T08:18:21.266Z</time>
      </trkpt>
      <trkpt lat="45.48147" lon="4.67285">
        <ele>541</ele>
        <time>2018-08-15T08:18:22.250Z</time>
      </trkpt>
      <trkpt lat="45.48141" lon="4.67292">
        <ele>541</ele>
        <time>2018-08-15T08:18:23.259Z</time>
      </trkpt>
      <trkpt lat="45.48141" lon="4.67292">
        <ele>541</ele>
        <time>2018-08-15T08:18:24.252Z</time>
      </trkpt>
      <trkpt lat="45.48136" lon="4.67302">
        <ele>540</ele>
        <time>2018-08-15T08:18:25.260Z</time>
      </trkpt>
      <trkpt lat="45.48136" lon="4.67302">
        <ele>540</ele>
        <time>2018-08-15T08:18:26.253Z</time>
      </trkpt>
      <trkpt lat="45.48129" lon="4.67311">
        <ele>540</ele>
        <time>2018-08-15T08:18:27.234Z</time>
      </trkpt>
      <trkpt lat="45.48129" lon="4.67311">
        <ele>540</ele>
        <time>2018-08-15T08:18:28.235Z</time>
      </trkpt>
      <trkpt lat="45.48124" lon="4.67319">
        <ele>539</ele>
        <time>2018-08-15T08:18:29.244Z</time>
      </trkpt>
      <trkpt lat="45.48124" lon="4.67319">
        <ele>539</ele>
        <time>2018-08-15T08:18:30.257Z</time>
      </trkpt>
      <trkpt lat="45.48119" lon="4.67328">
        <ele>539</ele>
        <time>2018-08-15T08:18:31.266Z</time>
      </trkpt>
      <trkpt lat="45.48119" lon="4.67328">
        <ele>539</ele>
        <time>2018-08-15T08:18:32.266Z</time>
      </trkpt>
      <trkpt lat="45.48116" lon="4.67337">
        <ele>539</ele>
        <time>2018-08-15T08:18:33.239Z</time>
      </trkpt>
      <trkpt lat="45.48116" lon="4.67337">
        <ele>539</ele>
        <time>2018-08-15T08:18:34.262Z</time>
      </trkpt>
      <trkpt lat="45.48114" lon="4.67346">
        <ele>539</ele>
        <time>2018-08-15T08:18:35.234Z</time>
      </trkpt>
      <trkpt lat="45.48114" lon="4.67346">
        <ele>539</ele>
        <time>2018-08-15T08:18:36.246Z</time>
      </trkpt>
      <trkpt lat="45.48111" lon="4.67355">
        <ele>539</ele>
        <time>2018-08-15T08:18:37.242Z</time>
      </trkpt>
      <trkpt lat="45.48111" lon="4.67355">
        <ele>539</ele>
        <time>2018-08-15T08:18:38.266Z</time>
      </trkpt>
      <trkpt lat="45.4811" lon="4.67363">
        <ele>539</ele>
        <time>2018-08-15T08:18:39.240Z</time>
      </trkpt>
      <trkpt lat="45.4811" lon="4.67363">
        <ele>539</ele>
        <time>2018-08-15T08:18:40.265Z</time>
      </trkpt>
      <trkpt lat="45.48108" lon="4.67371">
        <ele>539</ele>
        <time>2018-08-15T08:18:41.249Z</time>
      </trkpt>
      <trkpt lat="45.48108" lon="4.67371">
        <ele>539</ele>
        <time>2018-08-15T08:18:42.270Z</time>
      </trkpt>
      <trkpt lat="45.48106" lon="4.67378">
        <ele>539</ele>
        <time>2018-08-15T08:18:43.238Z</time>
      </trkpt>
      <trkpt lat="45.48106" lon="4.67378">
        <ele>539</ele>
        <time>2018-08-15T08:18:44.239Z</time>
      </trkpt>
      <trkpt lat="45.48104" lon="4.67384">
        <ele>539</ele>
        <time>2018-08-15T08:18:45.251Z</time>
      </trkpt>
      <trkpt lat="45.48104" lon="4.67384">
        <ele>539</ele>
        <time>2018-08-15T08:18:46.259Z</time>
      </trkpt>
      <trkpt lat="45.48103" lon="4.67391">
        <ele>540</ele>
        <time>2018-08-15T08:18:47.235Z</time>
      </trkpt>
      <trkpt lat="45.48103" lon="4.67391">
        <ele>540</ele>
        <time>2018-08-15T08:18:48.250Z</time>
      </trkpt>
      <trkpt lat="45.48101" lon="4.67398">
        <ele>540</ele>
        <time>2018-08-15T08:18:49.241Z</time>
      </trkpt>
      <trkpt lat="45.48101" lon="4.67398">
        <ele>540</ele>
        <time>2018-08-15T08:18:50.270Z</time>
      </trkpt>
      <trkpt lat="45.481" lon="4.67405">
        <ele>541</ele>
        <time>2018-08-15T08:18:51.240Z</time>
      </trkpt>
      <trkpt lat="45.481" lon="4.67405">
        <ele>541</ele>
        <time>2018-08-15T08:18:52.260Z</time>
      </trkpt>
      <trkpt lat="45.48099" lon="4.67412">
        <ele>541</ele>
        <time>2018-08-15T08:18:53.269Z</time>
      </trkpt>
      <trkpt lat="45.48099" lon="4.67412">
        <ele>541</ele>
        <time>2018-08-15T08:18:54.259Z</time>
      </trkpt>
      <trkpt lat="45.48098" lon="4.67419">
        <ele>542</ele>
        <time>2018-08-15T08:18:55.255Z</time>
      </trkpt>
      <trkpt lat="45.48098" lon="4.67419">
        <ele>542</ele>
        <time>2018-08-15T08:18:56.253Z</time>
      </trkpt>
      <trkpt lat="45.48096" lon="4.67426">
        <ele>542</ele>
        <time>2018-08-15T08:18:57.268Z</time>
      </trkpt>
      <trkpt lat="45.48096" lon="4.67426">
        <ele>542</ele>
        <time>2018-08-15T08:18:58.240Z</time>
      </trkpt>
      <trkpt lat="45.48096" lon="4.67426">
        <ele>542</ele>
        <time>2018-08-15T08:18:59.308Z</time>
      </trkpt>
      <trkpt lat="45.48095" lon="4.67433">
        <ele>543</ele>
        <time>2018-08-15T08:19:00.267Z</time>
      </trkpt>
      <trkpt lat="45.48093" lon="4.6744">
        <ele>544</ele>
        <time>2018-08-15T08:19:01.237Z</time>
      </trkpt>
      <trkpt lat="45.48092" lon="4.67443">
        <ele>544</ele>
        <time>2018-08-15T08:19:02.253Z</time>
      </trkpt>
      <trkpt lat="45.48092" lon="4.67443">
        <ele>544</ele>
        <time>2018-08-15T08:19:03.260Z</time>
      </trkpt>
      <trkpt lat="45.48091" lon="4.6745">
        <ele>544</ele>
        <time>2018-08-15T08:19:04.238Z</time>
      </trkpt>
      <trkpt lat="45.48091" lon="4.6745">
        <ele>544</ele>
        <time>2018-08-15T08:19:05.234Z</time>
      </trkpt>
      <trkpt lat="45.48089" lon="4.67457">
        <ele>545</ele>
        <time>2018-08-15T08:19:06.241Z</time>
      </trkpt>
      <trkpt lat="45.48089" lon="4.67457">
        <ele>545</ele>
        <time>2018-08-15T08:19:07.237Z</time>
      </trkpt>
      <trkpt lat="45.48088" lon="4.67464">
        <ele>546</ele>
        <time>2018-08-15T08:19:08.247Z</time>
      </trkpt>
      <trkpt lat="45.48087" lon="4.67467">
        <ele>546</ele>
        <time>2018-08-15T08:19:09.248Z</time>
      </trkpt>
      <trkpt lat="45.48087" lon="4.67467">
        <ele>546</ele>
        <time>2018-08-15T08:19:10.253Z</time>
      </trkpt>
      <trkpt lat="45.48085" lon="4.67474">
        <ele>547</ele>
        <time>2018-08-15T08:19:11.266Z</time>
      </trkpt>
      <trkpt lat="45.48085" lon="4.67474">
        <ele>547</ele>
        <time>2018-08-15T08:19:12.269Z</time>
      </trkpt>
      <trkpt lat="45.48084" lon="4.6748">
        <ele>547</ele>
        <time>2018-08-15T08:19:13.239Z</time>
      </trkpt>
      <trkpt lat="45.48084" lon="4.6748">
        <ele>547</ele>
        <time>2018-08-15T08:19:14.271Z</time>
      </trkpt>
      <trkpt lat="45.48083" lon="4.67488">
        <ele>548</ele>
        <time>2018-08-15T08:19:15.244Z</time>
      </trkpt>
      <trkpt lat="45.48083" lon="4.67488">
        <ele>548</ele>
        <time>2018-08-15T08:19:16.234Z</time>
      </trkpt>
      <trkpt lat="45.48081" lon="4.67495">
        <ele>548</ele>
        <time>2018-08-15T08:19:17.250Z</time>
      </trkpt>
      <trkpt lat="45.48081" lon="4.67495">
        <ele>548</ele>
        <time>2018-08-15T08:19:18.257Z</time>
      </trkpt>
      <trkpt lat="45.4808" lon="4.67502">
        <ele>548</ele>
        <time>2018-08-15T08:19:19.238Z</time>
      </trkpt>
      <trkpt lat="45.4808" lon="4.67502">
        <ele>548</ele>
        <time>2018-08-15T08:19:20.247Z</time>
      </trkpt>
      <trkpt lat="45.48079" lon="4.67509">
        <ele>549</ele>
        <time>2018-08-15T08:19:21.261Z</time>
      </trkpt>
      <trkpt lat="45.48079" lon="4.67509">
        <ele>549</ele>
        <time>2018-08-15T08:19:22.267Z</time>
      </trkpt>
      <trkpt lat="45.48077" lon="4.67515">
        <ele>549</ele>
        <time>2018-08-15T08:19:23.234Z</time>
      </trkpt>
      <trkpt lat="45.48077" lon="4.67515">
        <ele>549</ele>
        <time>2018-08-15T08:19:24.252Z</time>
      </trkpt>
      <trkpt lat="45.48076" lon="4.67522">
        <ele>550</ele>
        <time>2018-08-15T08:19:25.268Z</time>
      </trkpt>
      <trkpt lat="45.48076" lon="4.67522">
        <ele>550</ele>
        <time>2018-08-15T08:19:26.249Z</time>
      </trkpt>
      <trkpt lat="45.48075" lon="4.67528">
        <ele>550</ele>
        <time>2018-08-15T08:19:27.257Z</time>
      </trkpt>
      <trkpt lat="45.48075" lon="4.67528">
        <ele>550</ele>
        <time>2018-08-15T08:19:28.269Z</time>
      </trkpt>
      <trkpt lat="45.48074" lon="4.67535">
        <ele>550</ele>
        <time>2018-08-15T08:19:29.257Z</time>
      </trkpt>
      <trkpt lat="45.48074" lon="4.67535">
        <ele>550</ele>
        <time>2018-08-15T08:19:30.247Z</time>
      </trkpt>
      <trkpt lat="45.48072" lon="4.67542">
        <ele>550</ele>
        <time>2018-08-15T08:19:31.261Z</time>
      </trkpt>
      <trkpt lat="45.48071" lon="4.67545">
        <ele>550</ele>
        <time>2018-08-15T08:19:32.259Z</time>
      </trkpt>
      <trkpt lat="45.4807" lon="4.67549">
        <ele>550</ele>
        <time>2018-08-15T08:19:33.260Z</time>
      </trkpt>
      <trkpt lat="45.4807" lon="4.67549">
        <ele>550</ele>
        <time>2018-08-15T08:19:34.250Z</time>
      </trkpt>
      <trkpt lat="45.48069" lon="4.67556">
        <ele>551</ele>
        <time>2018-08-15T08:19:35.259Z</time>
      </trkpt>
      <trkpt lat="45.48069" lon="4.67556">
        <ele>551</ele>
        <time>2018-08-15T08:19:36.270Z</time>
      </trkpt>
      <trkpt lat="45.48067" lon="4.67562">
        <ele>551</ele>
        <time>2018-08-15T08:19:37.262Z</time>
      </trkpt>
      <trkpt lat="45.48067" lon="4.67562">
        <ele>551</ele>
        <time>2018-08-15T08:19:38.258Z</time>
      </trkpt>
      <trkpt lat="45.48065" lon="4.6757">
        <ele>551</ele>
        <time>2018-08-15T08:19:39.276Z</time>
      </trkpt>
      <trkpt lat="45.48065" lon="4.6757">
        <ele>551</ele>
        <time>2018-08-15T08:19:40.259Z</time>
      </trkpt>
      <trkpt lat="45.48064" lon="4.67577">
        <ele>551</ele>
        <time>2018-08-15T08:19:41.232Z</time>
      </trkpt>
      <trkpt lat="45.48064" lon="4.67577">
        <ele>551</ele>
        <time>2018-08-15T08:19:42.233Z</time>
      </trkpt>
      <trkpt lat="45.48062" lon="4.67584">
        <ele>551</ele>
        <time>2018-08-15T08:19:43.240Z</time>
      </trkpt>
      <trkpt lat="45.48062" lon="4.67584">
        <ele>551</ele>
        <time>2018-08-15T08:19:44.259Z</time>
      </trkpt>
      <trkpt lat="45.4806" lon="4.67591">
        <ele>551</ele>
        <time>2018-08-15T08:19:45.268Z</time>
      </trkpt>
      <trkpt lat="45.4806" lon="4.67591">
        <ele>551</ele>
        <time>2018-08-15T08:19:46.248Z</time>
      </trkpt>
      <trkpt lat="45.48059" lon="4.67599">
        <ele>551</ele>
        <time>2018-08-15T08:19:47.257Z</time>
      </trkpt>
      <trkpt lat="45.48059" lon="4.67599">
        <ele>551</ele>
        <time>2018-08-15T08:19:48.248Z</time>
      </trkpt>
      <trkpt lat="45.48057" lon="4.67606">
        <ele>551</ele>
        <time>2018-08-15T08:19:49.257Z</time>
      </trkpt>
      <trkpt lat="45.48057" lon="4.67606">
        <ele>551</ele>
        <time>2018-08-15T08:19:50.260Z</time>
      </trkpt>
      <trkpt lat="45.48054" lon="4.67613">
        <ele>551</ele>
        <time>2018-08-15T08:19:51.234Z</time>
      </trkpt>
      <trkpt lat="45.48054" lon="4.67613">
        <ele>551</ele>
        <time>2018-08-15T08:19:52.255Z</time>
      </trkpt>
      <trkpt lat="45.48052" lon="4.67621">
        <ele>552</ele>
        <time>2018-08-15T08:19:53.267Z</time>
      </trkpt>
      <trkpt lat="45.48052" lon="4.67621">
        <ele>552</ele>
        <time>2018-08-15T08:19:54.239Z</time>
      </trkpt>
      <trkpt lat="45.48052" lon="4.67621">
        <ele>552</ele>
        <time>2018-08-15T08:19:55.313Z</time>
      </trkpt>
      <trkpt lat="45.4805" lon="4.67629">
        <ele>552</ele>
        <time>2018-08-15T08:19:56.245Z</time>
      </trkpt>
      <trkpt lat="45.48048" lon="4.67637">
        <ele>552</ele>
        <time>2018-08-15T08:19:57.257Z</time>
      </trkpt>
      <trkpt lat="45.48048" lon="4.67637">
        <ele>552</ele>
        <time>2018-08-15T08:19:58.236Z</time>
      </trkpt>
      <trkpt lat="45.48046" lon="4.67644">
        <ele>552</ele>
        <time>2018-08-15T08:19:59.244Z</time>
      </trkpt>
      <trkpt lat="45.48046" lon="4.67644">
        <ele>552</ele>
        <time>2018-08-15T08:20:00.262Z</time>
      </trkpt>
      <trkpt lat="45.48044" lon="4.67652">
        <ele>553</ele>
        <time>2018-08-15T08:20:01.271Z</time>
      </trkpt>
      <trkpt lat="45.48044" lon="4.67652">
        <ele>553</ele>
        <time>2018-08-15T08:20:02.235Z</time>
      </trkpt>
      <trkpt lat="45.48042" lon="4.67659">
        <ele>553</ele>
        <time>2018-08-15T08:20:03.250Z</time>
      </trkpt>
      <trkpt lat="45.48042" lon="4.67659">
        <ele>553</ele>
        <time>2018-08-15T08:20:04.242Z</time>
      </trkpt>
      <trkpt lat="45.4804" lon="4.67666">
        <ele>554</ele>
        <time>2018-08-15T08:20:05.262Z</time>
      </trkpt>
      <trkpt lat="45.4804" lon="4.67666">
        <ele>554</ele>
        <time>2018-08-15T08:20:06.245Z</time>
      </trkpt>
      <trkpt lat="45.48037" lon="4.67673">
        <ele>554</ele>
        <time>2018-08-15T08:20:07.263Z</time>
      </trkpt>
      <trkpt lat="45.48037" lon="4.67673">
        <ele>554</ele>
        <time>2018-08-15T08:20:08.257Z</time>
      </trkpt>
      <trkpt lat="45.48034" lon="4.67681">
        <ele>554</ele>
        <time>2018-08-15T08:20:09.268Z</time>
      </trkpt>
      <trkpt lat="45.48034" lon="4.67681">
        <ele>554</ele>
        <time>2018-08-15T08:20:10.251Z</time>
      </trkpt>
      <trkpt lat="45.48031" lon="4.67688">
        <ele>554</ele>
        <time>2018-08-15T08:20:11.260Z</time>
      </trkpt>
      <trkpt lat="45.48031" lon="4.67688">
        <ele>554</ele>
        <time>2018-08-15T08:20:12.232Z</time>
      </trkpt>
      <trkpt lat="45.48028" lon="4.67696">
        <ele>554</ele>
        <time>2018-08-15T08:20:13.243Z</time>
      </trkpt>
      <trkpt lat="45.48028" lon="4.67696">
        <ele>554</ele>
        <time>2018-08-15T08:20:14.242Z</time>
      </trkpt>
      <trkpt lat="45.48025" lon="4.67702">
        <ele>555</ele>
        <time>2018-08-15T08:20:15.249Z</time>
      </trkpt>
      <trkpt lat="45.48025" lon="4.67702">
        <ele>555</ele>
        <time>2018-08-15T08:20:16.235Z</time>
      </trkpt>
      <trkpt lat="45.48022" lon="4.67708">
        <ele>555</ele>
        <time>2018-08-15T08:20:17.245Z</time>
      </trkpt>
      <trkpt lat="45.48022" lon="4.67708">
        <ele>555</ele>
        <time>2018-08-15T08:20:18.265Z</time>
      </trkpt>
      <trkpt lat="45.48018" lon="4.67714">
        <ele>556</ele>
        <time>2018-08-15T08:20:19.235Z</time>
      </trkpt>
      <trkpt lat="45.48018" lon="4.67714">
        <ele>556</ele>
        <time>2018-08-15T08:20:20.242Z</time>
      </trkpt>
      <trkpt lat="45.48014" lon="4.67718">
        <ele>556</ele>
        <time>2018-08-15T08:20:21.255Z</time>
      </trkpt>
      <trkpt lat="45.48014" lon="4.67718">
        <ele>556</ele>
        <time>2018-08-15T08:20:22.234Z</time>
      </trkpt>
      <trkpt lat="45.4801" lon="4.6772">
        <ele>557</ele>
        <time>2018-08-15T08:20:23.240Z</time>
      </trkpt>
      <trkpt lat="45.4801" lon="4.6772">
        <ele>557</ele>
        <time>2018-08-15T08:20:24.254Z</time>
      </trkpt>
      <trkpt lat="45.48006" lon="4.67723">
        <ele>557</ele>
        <time>2018-08-15T08:20:25.264Z</time>
      </trkpt>
      <trkpt lat="45.48006" lon="4.67723">
        <ele>557</ele>
        <time>2018-08-15T08:20:26.257Z</time>
      </trkpt>
      <trkpt lat="45.48003" lon="4.67727">
        <ele>557</ele>
        <time>2018-08-15T08:20:27.267Z</time>
      </trkpt>
      <trkpt lat="45.48003" lon="4.67727">
        <ele>557</ele>
        <time>2018-08-15T08:20:28.239Z</time>
      </trkpt>
      <trkpt lat="45.47999" lon="4.6773">
        <ele>557</ele>
        <time>2018-08-15T08:20:29.247Z</time>
      </trkpt>
      <trkpt lat="45.47999" lon="4.6773">
        <ele>557</ele>
        <time>2018-08-15T08:20:30.253Z</time>
      </trkpt>
      <trkpt lat="45.47995" lon="4.67733">
        <ele>557</ele>
        <time>2018-08-15T08:20:31.266Z</time>
      </trkpt>
      <trkpt lat="45.47995" lon="4.67733">
        <ele>557</ele>
        <time>2018-08-15T08:20:32.262Z</time>
      </trkpt>
      <trkpt lat="45.47991" lon="4.67736">
        <ele>557</ele>
        <time>2018-08-15T08:20:33.273Z</time>
      </trkpt>
      <trkpt lat="45.47991" lon="4.67736">
        <ele>557</ele>
        <time>2018-08-15T08:20:34.271Z</time>
      </trkpt>
      <trkpt lat="45.47987" lon="4.67738">
        <ele>557</ele>
        <time>2018-08-15T08:20:35.238Z</time>
      </trkpt>
      <trkpt lat="45.47987" lon="4.67738">
        <ele>557</ele>
        <time>2018-08-15T08:20:36.251Z</time>
      </trkpt>
      <trkpt lat="45.47983" lon="4.67739">
        <ele>557</ele>
        <time>2018-08-15T08:20:37.234Z</time>
      </trkpt>
      <trkpt lat="45.47983" lon="4.67739">
        <ele>557</ele>
        <time>2018-08-15T08:20:38.261Z</time>
      </trkpt>
      <trkpt lat="45.47978" lon="4.67741">
        <ele>557</ele>
        <time>2018-08-15T08:20:39.234Z</time>
      </trkpt>
      <trkpt lat="45.47976" lon="4.67741">
        <ele>557</ele>
        <time>2018-08-15T08:20:40.262Z</time>
      </trkpt>
      <trkpt lat="45.47976" lon="4.67741">
        <ele>557</ele>
        <time>2018-08-15T08:20:41.261Z</time>
      </trkpt>
      <trkpt lat="45.47971" lon="4.67742">
        <ele>558</ele>
        <time>2018-08-15T08:20:42.248Z</time>
      </trkpt>
      <trkpt lat="45.47971" lon="4.67742">
        <ele>558</ele>
        <time>2018-08-15T08:20:43.233Z</time>
      </trkpt>
      <trkpt lat="45.47967" lon="4.67742">
        <ele>558</ele>
        <time>2018-08-15T08:20:44.253Z</time>
      </trkpt>
      <trkpt lat="45.47964" lon="4.67742">
        <ele>558</ele>
        <time>2018-08-15T08:20:45.238Z</time>
      </trkpt>
      <trkpt lat="45.47964" lon="4.67742">
        <ele>558</ele>
        <time>2018-08-15T08:20:46.259Z</time>
      </trkpt>
      <trkpt lat="45.4796" lon="4.67741">
        <ele>558</ele>
        <time>2018-08-15T08:20:47.271Z</time>
      </trkpt>
      <trkpt lat="45.4796" lon="4.67741">
        <ele>558</ele>
        <time>2018-08-15T08:20:48.259Z</time>
      </trkpt>
      <trkpt lat="45.47955" lon="4.67741">
        <ele>559</ele>
        <time>2018-08-15T08:20:49.271Z</time>
      </trkpt>
      <trkpt lat="45.47955" lon="4.67741">
        <ele>559</ele>
        <time>2018-08-15T08:20:50.262Z</time>
      </trkpt>
      <trkpt lat="45.4795" lon="4.6774">
        <ele>559</ele>
        <time>2018-08-15T08:20:51.271Z</time>
      </trkpt>
      <trkpt lat="45.4795" lon="4.6774">
        <ele>559</ele>
        <time>2018-08-15T08:20:52.246Z</time>
      </trkpt>
      <trkpt lat="45.47946" lon="4.67739">
        <ele>559</ele>
        <time>2018-08-15T08:20:53.235Z</time>
      </trkpt>
      <trkpt lat="45.47946" lon="4.67739">
        <ele>559</ele>
        <time>2018-08-15T08:20:54.250Z</time>
      </trkpt>
      <trkpt lat="45.47942" lon="4.67737">
        <ele>560</ele>
        <time>2018-08-15T08:20:55.262Z</time>
      </trkpt>
      <trkpt lat="45.47942" lon="4.67737">
        <ele>560</ele>
        <time>2018-08-15T08:20:56.237Z</time>
      </trkpt>
      <trkpt lat="45.47937" lon="4.67736">
        <ele>560</ele>
        <time>2018-08-15T08:20:57.244Z</time>
      </trkpt>
      <trkpt lat="45.47937" lon="4.67736">
        <ele>560</ele>
        <time>2018-08-15T08:20:58.255Z</time>
      </trkpt>
      <trkpt lat="45.47933" lon="4.67734">
        <ele>560</ele>
        <time>2018-08-15T08:20:59.268Z</time>
      </trkpt>
      <trkpt lat="45.47933" lon="4.67734">
        <ele>560</ele>
        <time>2018-08-15T08:21:00.249Z</time>
      </trkpt>
      <trkpt lat="45.47928" lon="4.67732">
        <ele>560</ele>
        <time>2018-08-15T08:21:01.256Z</time>
      </trkpt>
      <trkpt lat="45.47928" lon="4.67732">
        <ele>560</ele>
        <time>2018-08-15T08:21:02.258Z</time>
      </trkpt>
      <trkpt lat="45.47924" lon="4.67729">
        <ele>561</ele>
        <time>2018-08-15T08:21:03.270Z</time>
      </trkpt>
      <trkpt lat="45.47924" lon="4.67729">
        <ele>561</ele>
        <time>2018-08-15T08:21:04.243Z</time>
      </trkpt>
      <trkpt lat="45.47919" lon="4.67727">
        <ele>561</ele>
        <time>2018-08-15T08:21:05.260Z</time>
      </trkpt>
      <trkpt lat="45.47919" lon="4.67727">
        <ele>561</ele>
        <time>2018-08-15T08:21:06.250Z</time>
      </trkpt>
      <trkpt lat="45.47915" lon="4.67725">
        <ele>561</ele>
        <time>2018-08-15T08:21:07.258Z</time>
      </trkpt>
      <trkpt lat="45.47913" lon="4.67725">
        <ele>561</ele>
        <time>2018-08-15T08:21:08.258Z</time>
      </trkpt>
      <trkpt lat="45.47913" lon="4.67725">
        <ele>561</ele>
        <time>2018-08-15T08:21:09.257Z</time>
      </trkpt>
      <trkpt lat="45.47909" lon="4.67722">
        <ele>561</ele>
        <time>2018-08-15T08:21:10.269Z</time>
      </trkpt>
      <trkpt lat="45.47909" lon="4.67722">
        <ele>561</ele>
        <time>2018-08-15T08:21:11.240Z</time>
      </trkpt>
      <trkpt lat="45.47905" lon="4.6772">
        <ele>561</ele>
        <time>2018-08-15T08:21:12.254Z</time>
      </trkpt>
      <trkpt lat="45.47905" lon="4.6772">
        <ele>561</ele>
        <time>2018-08-15T08:21:13.234Z</time>
      </trkpt>
      <trkpt lat="45.47902" lon="4.67718">
        <ele>561</ele>
        <time>2018-08-15T08:21:14.241Z</time>
      </trkpt>
      <trkpt lat="45.479" lon="4.67717">
        <ele>561</ele>
        <time>2018-08-15T08:21:15.264Z</time>
      </trkpt>
      <trkpt lat="45.479" lon="4.67717">
        <ele>561</ele>
        <time>2018-08-15T08:21:16.244Z</time>
      </trkpt>
      <trkpt lat="45.47896" lon="4.67714">
        <ele>561</ele>
        <time>2018-08-15T08:21:17.258Z</time>
      </trkpt>
      <trkpt lat="45.47896" lon="4.67714">
        <ele>561</ele>
        <time>2018-08-15T08:21:18.239Z</time>
      </trkpt>
      <trkpt lat="45.47892" lon="4.67712">
        <ele>562</ele>
        <time>2018-08-15T08:21:19.247Z</time>
      </trkpt>
      <trkpt lat="45.47892" lon="4.67712">
        <ele>562</ele>
        <time>2018-08-15T08:21:20.267Z</time>
      </trkpt>
      <trkpt lat="45.47889" lon="4.6771">
        <ele>562</ele>
        <time>2018-08-15T08:21:21.241Z</time>
      </trkpt>
      <trkpt lat="45.47889" lon="4.6771">
        <ele>562</ele>
        <time>2018-08-15T08:21:22.243Z</time>
      </trkpt>
      <trkpt lat="45.47885" lon="4.67707">
        <ele>562</ele>
        <time>2018-08-15T08:21:23.254Z</time>
      </trkpt>
      <trkpt lat="45.47885" lon="4.67707">
        <ele>562</ele>
        <time>2018-08-15T08:21:24.242Z</time>
      </trkpt>
      <trkpt lat="45.47881" lon="4.67705">
        <ele>562</ele>
        <time>2018-08-15T08:21:25.250Z</time>
      </trkpt>
      <trkpt lat="45.47879" lon="4.67703">
        <ele>562</ele>
        <time>2018-08-15T08:21:26.237Z</time>
      </trkpt>
      <trkpt lat="45.47878" lon="4.67702">
        <ele>562</ele>
        <time>2018-08-15T08:21:27.263Z</time>
      </trkpt>
      <trkpt lat="45.47878" lon="4.67702">
        <ele>562</ele>
        <time>2018-08-15T08:21:28.263Z</time>
      </trkpt>
      <trkpt lat="45.47874" lon="4.677">
        <ele>563</ele>
        <time>2018-08-15T08:21:29.240Z</time>
      </trkpt>
      <trkpt lat="45.47874" lon="4.677">
        <ele>563</ele>
        <time>2018-08-15T08:21:30.265Z</time>
      </trkpt>
      <trkpt lat="45.47869" lon="4.67698">
        <ele>563</ele>
        <time>2018-08-15T08:21:31.272Z</time>
      </trkpt>
      <trkpt lat="45.47869" lon="4.67698">
        <ele>563</ele>
        <time>2018-08-15T08:21:32.318Z</time>
      </trkpt>
      <trkpt lat="45.47865" lon="4.67695">
        <ele>563</ele>
        <time>2018-08-15T08:21:33.232Z</time>
      </trkpt>
      <trkpt lat="45.47865" lon="4.67695">
        <ele>563</ele>
        <time>2018-08-15T08:21:34.233Z</time>
      </trkpt>
      <trkpt lat="45.47861" lon="4.67693">
        <ele>563</ele>
        <time>2018-08-15T08:21:35.241Z</time>
      </trkpt>
      <trkpt lat="45.47861" lon="4.67693">
        <ele>563</ele>
        <time>2018-08-15T08:21:36.256Z</time>
      </trkpt>
      <trkpt lat="45.47857" lon="4.67691">
        <ele>563</ele>
        <time>2018-08-15T08:21:37.262Z</time>
      </trkpt>
      <trkpt lat="45.47857" lon="4.67691">
        <ele>563</ele>
        <time>2018-08-15T08:21:38.255Z</time>
      </trkpt>
      <trkpt lat="45.47854" lon="4.67689">
        <ele>564</ele>
        <time>2018-08-15T08:21:39.268Z</time>
      </trkpt>
      <trkpt lat="45.47854" lon="4.67689">
        <ele>564</ele>
        <time>2018-08-15T08:21:40.234Z</time>
      </trkpt>
      <trkpt lat="45.4785" lon="4.67686">
        <ele>564</ele>
        <time>2018-08-15T08:21:41.241Z</time>
      </trkpt>
      <trkpt lat="45.4785" lon="4.67686">
        <ele>564</ele>
        <time>2018-08-15T08:21:42.245Z</time>
      </trkpt>
      <trkpt lat="45.47846" lon="4.67683">
        <ele>564</ele>
        <time>2018-08-15T08:21:43.256Z</time>
      </trkpt>
      <trkpt lat="45.47846" lon="4.67683">
        <ele>564</ele>
        <time>2018-08-15T08:21:44.254Z</time>
      </trkpt>
      <trkpt lat="45.47842" lon="4.67681">
        <ele>565</ele>
        <time>2018-08-15T08:21:45.265Z</time>
      </trkpt>
      <trkpt lat="45.47842" lon="4.67681">
        <ele>565</ele>
        <time>2018-08-15T08:21:46.258Z</time>
      </trkpt>
      <trkpt lat="45.47838" lon="4.67679">
        <ele>565</ele>
        <time>2018-08-15T08:21:47.267Z</time>
      </trkpt>
      <trkpt lat="45.47838" lon="4.67679">
        <ele>565</ele>
        <time>2018-08-15T08:21:48.262Z</time>
      </trkpt>
      <trkpt lat="45.47834" lon="4.67677">
        <ele>565</ele>
        <time>2018-08-15T08:21:49.235Z</time>
      </trkpt>
      <trkpt lat="45.47833" lon="4.67676">
        <ele>565</ele>
        <time>2018-08-15T08:21:50.257Z</time>
      </trkpt>
      <trkpt lat="45.47833" lon="4.67676">
        <ele>565</ele>
        <time>2018-08-15T08:21:51.254Z</time>
      </trkpt>
      <trkpt lat="45.47829" lon="4.67673">
        <ele>566</ele>
        <time>2018-08-15T08:21:52.254Z</time>
      </trkpt>
      <trkpt lat="45.47827" lon="4.67672">
        <ele>566</ele>
        <time>2018-08-15T08:21:53.238Z</time>
      </trkpt>
      <trkpt lat="45.47827" lon="4.67672">
        <ele>566</ele>
        <time>2018-08-15T08:21:54.260Z</time>
      </trkpt>
      <trkpt lat="45.47827" lon="4.67672">
        <ele>566</ele>
        <time>2018-08-15T08:21:55.300Z</time>
      </trkpt>
      <trkpt lat="45.47824" lon="4.67669">
        <ele>566</ele>
        <time>2018-08-15T08:21:56.252Z</time>
      </trkpt>
      <trkpt lat="45.47821" lon="4.67667">
        <ele>566</ele>
        <time>2018-08-15T08:21:57.265Z</time>
      </trkpt>
      <trkpt lat="45.47821" lon="4.67667">
        <ele>566</ele>
        <time>2018-08-15T08:21:58.249Z</time>
      </trkpt>
      <trkpt lat="45.47817" lon="4.67665">
        <ele>567</ele>
        <time>2018-08-15T08:21:59.274Z</time>
      </trkpt>
      <trkpt lat="45.47817" lon="4.67665">
        <ele>567</ele>
        <time>2018-08-15T08:22:00.270Z</time>
      </trkpt>
      <trkpt lat="45.47813" lon="4.67663">
        <ele>567</ele>
        <time>2018-08-15T08:22:01.243Z</time>
      </trkpt>
      <trkpt lat="45.47813" lon="4.67663">
        <ele>567</ele>
        <time>2018-08-15T08:22:02.261Z</time>
      </trkpt>
      <trkpt lat="45.47809" lon="4.67661">
        <ele>567</ele>
        <time>2018-08-15T08:22:03.271Z</time>
      </trkpt>
      <trkpt lat="45.47809" lon="4.67661">
        <ele>567</ele>
        <time>2018-08-15T08:22:04.265Z</time>
      </trkpt>
      <trkpt lat="45.47806" lon="4.67657">
        <ele>568</ele>
        <time>2018-08-15T08:22:05.232Z</time>
      </trkpt>
      <trkpt lat="45.47806" lon="4.67657">
        <ele>568</ele>
        <time>2018-08-15T08:22:06.234Z</time>
      </trkpt>
      <trkpt lat="45.47802" lon="4.67653">
        <ele>568</ele>
        <time>2018-08-15T08:22:07.241Z</time>
      </trkpt>
      <trkpt lat="45.47802" lon="4.67653">
        <ele>568</ele>
        <time>2018-08-15T08:22:08.265Z</time>
      </trkpt>
      <trkpt lat="45.47799" lon="4.6765">
        <ele>568</ele>
        <time>2018-08-15T08:22:09.233Z</time>
      </trkpt>
      <trkpt lat="45.47799" lon="4.6765">
        <ele>568</ele>
        <time>2018-08-15T08:22:10.260Z</time>
      </trkpt>
      <trkpt lat="45.47796" lon="4.67646">
        <ele>569</ele>
        <time>2018-08-15T08:22:11.232Z</time>
      </trkpt>
      <trkpt lat="45.47796" lon="4.67646">
        <ele>569</ele>
        <time>2018-08-15T08:22:12.269Z</time>
      </trkpt>
      <trkpt lat="45.47793" lon="4.67641">
        <ele>570</ele>
        <time>2018-08-15T08:22:13.250Z</time>
      </trkpt>
      <trkpt lat="45.47793" lon="4.67641">
        <ele>570</ele>
        <time>2018-08-15T08:22:14.267Z</time>
      </trkpt>
      <trkpt lat="45.47791" lon="4.67637">
        <ele>570</ele>
        <time>2018-08-15T08:22:15.239Z</time>
      </trkpt>
      <trkpt lat="45.47791" lon="4.67637">
        <ele>570</ele>
        <time>2018-08-15T08:22:16.232Z</time>
      </trkpt>
      <trkpt lat="45.47788" lon="4.67632">
        <ele>571</ele>
        <time>2018-08-15T08:22:17.254Z</time>
      </trkpt>
      <trkpt lat="45.47788" lon="4.67632">
        <ele>571</ele>
        <time>2018-08-15T08:22:18.258Z</time>
      </trkpt>
      <trkpt lat="45.47785" lon="4.67627">
        <ele>571</ele>
        <time>2018-08-15T08:22:19.266Z</time>
      </trkpt>
      <trkpt lat="45.47785" lon="4.67627">
        <ele>571</ele>
        <time>2018-08-15T08:22:20.248Z</time>
      </trkpt>
      <trkpt lat="45.47783" lon="4.67623">
        <ele>572</ele>
        <time>2018-08-15T08:22:21.258Z</time>
      </trkpt>
      <trkpt lat="45.47783" lon="4.67623">
        <ele>572</ele>
        <time>2018-08-15T08:22:22.251Z</time>
      </trkpt>
      <trkpt lat="45.47781" lon="4.67617">
        <ele>572</ele>
        <time>2018-08-15T08:22:23.266Z</time>
      </trkpt>
      <trkpt lat="45.47781" lon="4.67617">
        <ele>572</ele>
        <time>2018-08-15T08:22:24.247Z</time>
      </trkpt>
      <trkpt lat="45.4778" lon="4.67611">
        <ele>572</ele>
        <time>2018-08-15T08:22:25.308Z</time>
      </trkpt>
      <trkpt lat="45.4778" lon="4.67611">
        <ele>572</ele>
        <time>2018-08-15T08:22:26.266Z</time>
      </trkpt>
      <trkpt lat="45.47778" lon="4.67605">
        <ele>572</ele>
        <time>2018-08-15T08:22:27.237Z</time>
      </trkpt>
      <trkpt lat="45.47778" lon="4.67605">
        <ele>572</ele>
        <time>2018-08-15T08:22:28.236Z</time>
      </trkpt>
      <trkpt lat="45.47777" lon="4.67599">
        <ele>572</ele>
        <time>2018-08-15T08:22:29.247Z</time>
      </trkpt>
      <trkpt lat="45.47777" lon="4.67599">
        <ele>572</ele>
        <time>2018-08-15T08:22:30.268Z</time>
      </trkpt>
      <trkpt lat="45.47775" lon="4.67594">
        <ele>572</ele>
        <time>2018-08-15T08:22:31.239Z</time>
      </trkpt>
      <trkpt lat="45.47775" lon="4.67594">
        <ele>572</ele>
        <time>2018-08-15T08:22:32.246Z</time>
      </trkpt>
      <trkpt lat="45.47773" lon="4.67589">
        <ele>572</ele>
        <time>2018-08-15T08:22:33.256Z</time>
      </trkpt>
      <trkpt lat="45.47773" lon="4.67589">
        <ele>572</ele>
        <time>2018-08-15T08:22:34.234Z</time>
      </trkpt>
      <trkpt lat="45.47772" lon="4.67583">
        <ele>573</ele>
        <time>2018-08-15T08:22:35.245Z</time>
      </trkpt>
      <trkpt lat="45.47772" lon="4.67583">
        <ele>573</ele>
        <time>2018-08-15T08:22:36.257Z</time>
      </trkpt>
      <trkpt lat="45.47772" lon="4.67577">
        <ele>573</ele>
        <time>2018-08-15T08:22:37.235Z</time>
      </trkpt>
      <trkpt lat="45.47772" lon="4.67577">
        <ele>573</ele>
        <time>2018-08-15T08:22:38.256Z</time>
      </trkpt>
      <trkpt lat="45.4777" lon="4.67571">
        <ele>574</ele>
        <time>2018-08-15T08:22:39.263Z</time>
      </trkpt>
      <trkpt lat="45.4777" lon="4.67571">
        <ele>574</ele>
        <time>2018-08-15T08:22:40.270Z</time>
      </trkpt>
      <trkpt lat="45.47769" lon="4.67566">
        <ele>574</ele>
        <time>2018-08-15T08:22:41.238Z</time>
      </trkpt>
      <trkpt lat="45.47769" lon="4.67566">
        <ele>574</ele>
        <time>2018-08-15T08:22:42.252Z</time>
      </trkpt>
      <trkpt lat="45.47769" lon="4.67561">
        <ele>574</ele>
        <time>2018-08-15T08:22:43.258Z</time>
      </trkpt>
      <trkpt lat="45.47769" lon="4.67561">
        <ele>574</ele>
        <time>2018-08-15T08:22:44.249Z</time>
      </trkpt>
      <trkpt lat="45.47767" lon="4.67555">
        <ele>574</ele>
        <time>2018-08-15T08:22:45.261Z</time>
      </trkpt>
      <trkpt lat="45.47767" lon="4.67555">
        <ele>574</ele>
        <time>2018-08-15T08:22:46.255Z</time>
      </trkpt>
      <trkpt lat="45.47766" lon="4.67549">
        <ele>575</ele>
        <time>2018-08-15T08:22:47.265Z</time>
      </trkpt>
      <trkpt lat="45.47766" lon="4.67549">
        <ele>575</ele>
        <time>2018-08-15T08:22:48.268Z</time>
      </trkpt>
      <trkpt lat="45.47765" lon="4.67544">
        <ele>575</ele>
        <time>2018-08-15T08:22:49.235Z</time>
      </trkpt>
      <trkpt lat="45.47765" lon="4.67544">
        <ele>575</ele>
        <time>2018-08-15T08:22:50.252Z</time>
      </trkpt>
      <trkpt lat="45.47763" lon="4.67538">
        <ele>575</ele>
        <time>2018-08-15T08:22:51.270Z</time>
      </trkpt>
      <trkpt lat="45.47763" lon="4.67538">
        <ele>575</ele>
        <time>2018-08-15T08:22:52.239Z</time>
      </trkpt>
      <trkpt lat="45.47762" lon="4.67532">
        <ele>575</ele>
        <time>2018-08-15T08:22:53.247Z</time>
      </trkpt>
      <trkpt lat="45.47762" lon="4.67532">
        <ele>575</ele>
        <time>2018-08-15T08:22:54.260Z</time>
      </trkpt>
      <trkpt lat="45.4776" lon="4.67527">
        <ele>576</ele>
        <time>2018-08-15T08:22:55.271Z</time>
      </trkpt>
      <trkpt lat="45.4776" lon="4.67527">
        <ele>576</ele>
        <time>2018-08-15T08:22:56.238Z</time>
      </trkpt>
      <trkpt lat="45.4776" lon="4.67527">
        <ele>576</ele>
        <time>2018-08-15T08:22:57.308Z</time>
      </trkpt>
      <trkpt lat="45.47758" lon="4.67521">
        <ele>576</ele>
        <time>2018-08-15T08:22:58.254Z</time>
      </trkpt>
      <trkpt lat="45.47757" lon="4.67516">
        <ele>576</ele>
        <time>2018-08-15T08:22:59.262Z</time>
      </trkpt>
      <trkpt lat="45.47757" lon="4.67516">
        <ele>576</ele>
        <time>2018-08-15T08:23:00.234Z</time>
      </trkpt>
      <trkpt lat="45.47755" lon="4.6751">
        <ele>577</ele>
        <time>2018-08-15T08:23:01.244Z</time>
      </trkpt>
      <trkpt lat="45.47755" lon="4.6751">
        <ele>577</ele>
        <time>2018-08-15T08:23:02.257Z</time>
      </trkpt>
      <trkpt lat="45.47753" lon="4.67504">
        <ele>577</ele>
        <time>2018-08-15T08:23:03.267Z</time>
      </trkpt>
      <trkpt lat="45.47753" lon="4.67504">
        <ele>577</ele>
        <time>2018-08-15T08:23:04.258Z</time>
      </trkpt>
      <trkpt lat="45.47751" lon="4.67499">
        <ele>577</ele>
        <time>2018-08-15T08:23:05.262Z</time>
      </trkpt>
      <trkpt lat="45.47751" lon="4.67499">
        <ele>577</ele>
        <time>2018-08-15T08:23:06.242Z</time>
      </trkpt>
      <trkpt lat="45.47748" lon="4.67495">
        <ele>578</ele>
        <time>2018-08-15T08:23:07.257Z</time>
      </trkpt>
      <trkpt lat="45.47748" lon="4.67495">
        <ele>578</ele>
        <time>2018-08-15T08:23:08.269Z</time>
      </trkpt>
      <trkpt lat="45.47746" lon="4.6749">
        <ele>578</ele>
        <time>2018-08-15T08:23:09.238Z</time>
      </trkpt>
      <trkpt lat="45.47746" lon="4.6749">
        <ele>578</ele>
        <time>2018-08-15T08:23:10.232Z</time>
      </trkpt>
      <trkpt lat="45.47743" lon="4.67485">
        <ele>578</ele>
        <time>2018-08-15T08:23:11.242Z</time>
      </trkpt>
      <trkpt lat="45.47743" lon="4.67485">
        <ele>578</ele>
        <time>2018-08-15T08:23:12.241Z</time>
      </trkpt>
      <trkpt lat="45.4774" lon="4.67482">
        <ele>578</ele>
        <time>2018-08-15T08:23:13.284Z</time>
      </trkpt>
      <trkpt lat="45.4774" lon="4.67482">
        <ele>578</ele>
        <time>2018-08-15T08:23:14.239Z</time>
      </trkpt>
      <trkpt lat="45.47736" lon="4.67478">
        <ele>579</ele>
        <time>2018-08-15T08:23:15.252Z</time>
      </trkpt>
      <trkpt lat="45.47736" lon="4.67478">
        <ele>579</ele>
        <time>2018-08-15T08:23:16.252Z</time>
      </trkpt>
      <trkpt lat="45.47732" lon="4.67475">
        <ele>579</ele>
        <time>2018-08-15T08:23:17.262Z</time>
      </trkpt>
      <trkpt lat="45.47732" lon="4.67475">
        <ele>579</ele>
        <time>2018-08-15T08:23:18.263Z</time>
      </trkpt>
      <trkpt lat="45.47728" lon="4.67475">
        <ele>580</ele>
        <time>2018-08-15T08:23:19.273Z</time>
      </trkpt>
      <trkpt lat="45.47726" lon="4.67476">
        <ele>580</ele>
        <time>2018-08-15T08:23:20.265Z</time>
      </trkpt>
      <trkpt lat="45.47724" lon="4.67477">
        <ele>580</ele>
        <time>2018-08-15T08:23:21.260Z</time>
      </trkpt>
      <trkpt lat="45.47724" lon="4.67477">
        <ele>580</ele>
        <time>2018-08-15T08:23:22.256Z</time>
      </trkpt>
      <trkpt lat="45.4772" lon="4.67479">
        <ele>580</ele>
        <time>2018-08-15T08:23:23.271Z</time>
      </trkpt>
      <trkpt lat="45.4772" lon="4.67479">
        <ele>580</ele>
        <time>2018-08-15T08:23:24.270Z</time>
      </trkpt>
      <trkpt lat="45.47717" lon="4.67483">
        <ele>580</ele>
        <time>2018-08-15T08:23:25.238Z</time>
      </trkpt>
      <trkpt lat="45.47717" lon="4.67483">
        <ele>580</ele>
        <time>2018-08-15T08:23:26.266Z</time>
      </trkpt>
      <trkpt lat="45.47717" lon="4.67483">
        <ele>580</ele>
        <time>2018-08-15T08:23:27.329Z</time>
      </trkpt>
      <trkpt lat="45.47713" lon="4.67487">
        <ele>581</ele>
        <time>2018-08-15T08:23:28.246Z</time>
      </trkpt>
      <trkpt lat="45.4771" lon="4.67492">
        <ele>580</ele>
        <time>2018-08-15T08:23:29.255Z</time>
      </trkpt>
      <trkpt lat="45.4771" lon="4.67492">
        <ele>580</ele>
        <time>2018-08-15T08:23:30.239Z</time>
      </trkpt>
      <trkpt lat="45.47707" lon="4.67497">
        <ele>580</ele>
        <time>2018-08-15T08:23:31.248Z</time>
      </trkpt>
      <trkpt lat="45.47707" lon="4.67497">
        <ele>580</ele>
        <time>2018-08-15T08:23:32.237Z</time>
      </trkpt>
      <trkpt lat="45.47705" lon="4.67501">
        <ele>580</ele>
        <time>2018-08-15T08:23:33.247Z</time>
      </trkpt>
      <trkpt lat="45.47705" lon="4.67501">
        <ele>580</ele>
        <time>2018-08-15T08:23:34.268Z</time>
      </trkpt>
      <trkpt lat="45.47702" lon="4.67507">
        <ele>581</ele>
        <time>2018-08-15T08:23:35.236Z</time>
      </trkpt>
      <trkpt lat="45.47702" lon="4.67507">
        <ele>581</ele>
        <time>2018-08-15T08:23:36.239Z</time>
      </trkpt>
      <trkpt lat="45.47698" lon="4.67512">
        <ele>581</ele>
        <time>2018-08-15T08:23:37.238Z</time>
      </trkpt>
      <trkpt lat="45.47697" lon="4.67515">
        <ele>581</ele>
        <time>2018-08-15T08:23:38.269Z</time>
      </trkpt>
      <trkpt lat="45.47695" lon="4.67517">
        <ele>581</ele>
        <time>2018-08-15T08:23:39.264Z</time>
      </trkpt>
      <trkpt lat="45.47695" lon="4.67517">
        <ele>581</ele>
        <time>2018-08-15T08:23:40.239Z</time>
      </trkpt>
      <trkpt lat="45.47691" lon="4.67522">
        <ele>581</ele>
        <time>2018-08-15T08:23:41.248Z</time>
      </trkpt>
      <trkpt lat="45.47691" lon="4.67522">
        <ele>581</ele>
        <time>2018-08-15T08:23:42.239Z</time>
      </trkpt>
      <trkpt lat="45.47688" lon="4.67529">
        <ele>581</ele>
        <time>2018-08-15T08:23:43.246Z</time>
      </trkpt>
      <trkpt lat="45.47688" lon="4.67529">
        <ele>581</ele>
        <time>2018-08-15T08:23:44.242Z</time>
      </trkpt>
      <trkpt lat="45.47685" lon="4.67535">
        <ele>581</ele>
        <time>2018-08-15T08:23:45.258Z</time>
      </trkpt>
      <trkpt lat="45.47685" lon="4.67535">
        <ele>581</ele>
        <time>2018-08-15T08:23:46.252Z</time>
      </trkpt>
      <trkpt lat="45.47681" lon="4.67541">
        <ele>581</ele>
        <time>2018-08-15T08:23:47.261Z</time>
      </trkpt>
      <trkpt lat="45.47681" lon="4.67541">
        <ele>581</ele>
        <time>2018-08-15T08:23:48.259Z</time>
      </trkpt>
      <trkpt lat="45.47678" lon="4.67546">
        <ele>582</ele>
        <time>2018-08-15T08:23:49.269Z</time>
      </trkpt>
      <trkpt lat="45.47678" lon="4.67546">
        <ele>582</ele>
        <time>2018-08-15T08:23:50.269Z</time>
      </trkpt>
      <trkpt lat="45.47675" lon="4.67552">
        <ele>582</ele>
        <time>2018-08-15T08:23:51.240Z</time>
      </trkpt>
      <trkpt lat="45.47675" lon="4.67552">
        <ele>582</ele>
        <time>2018-08-15T08:23:52.234Z</time>
      </trkpt>
      <trkpt lat="45.47671" lon="4.67558">
        <ele>582</ele>
        <time>2018-08-15T08:23:53.294Z</time>
      </trkpt>
      <trkpt lat="45.47671" lon="4.67558">
        <ele>582</ele>
        <time>2018-08-15T08:23:54.251Z</time>
      </trkpt>
      <trkpt lat="45.47668" lon="4.67563">
        <ele>582</ele>
        <time>2018-08-15T08:23:55.271Z</time>
      </trkpt>
      <trkpt lat="45.47668" lon="4.67563">
        <ele>582</ele>
        <time>2018-08-15T08:23:56.264Z</time>
      </trkpt>
      <trkpt lat="45.47664" lon="4.67568">
        <ele>581</ele>
        <time>2018-08-15T08:23:57.237Z</time>
      </trkpt>
      <trkpt lat="45.47664" lon="4.67568">
        <ele>581</ele>
        <time>2018-08-15T08:23:58.267Z</time>
      </trkpt>
      <trkpt lat="45.47661" lon="4.67572">
        <ele>581</ele>
        <time>2018-08-15T08:23:59.236Z</time>
      </trkpt>
      <trkpt lat="45.47661" lon="4.67572">
        <ele>581</ele>
        <time>2018-08-15T08:24:00.232Z</time>
      </trkpt>
      <trkpt lat="45.47657" lon="4.67577">
        <ele>581</ele>
        <time>2018-08-15T08:24:01.238Z</time>
      </trkpt>
      <trkpt lat="45.47657" lon="4.67577">
        <ele>581</ele>
        <time>2018-08-15T08:24:02.260Z</time>
      </trkpt>
      <trkpt lat="45.47652" lon="4.67584">
        <ele>581</ele>
        <time>2018-08-15T08:24:03.270Z</time>
      </trkpt>
      <trkpt lat="45.47652" lon="4.67584">
        <ele>581</ele>
        <time>2018-08-15T08:24:04.263Z</time>
      </trkpt>
      <trkpt lat="45.47647" lon="4.67589">
        <ele>581</ele>
        <time>2018-08-15T08:24:05.271Z</time>
      </trkpt>
      <trkpt lat="45.47647" lon="4.67589">
        <ele>581</ele>
        <time>2018-08-15T08:24:06.269Z</time>
      </trkpt>
      <trkpt lat="45.47642" lon="4.67592">
        <ele>581</ele>
        <time>2018-08-15T08:24:07.246Z</time>
      </trkpt>
      <trkpt lat="45.47642" lon="4.67592">
        <ele>581</ele>
        <time>2018-08-15T08:24:08.234Z</time>
      </trkpt>
      <trkpt lat="45.47636" lon="4.67596">
        <ele>581</ele>
        <time>2018-08-15T08:24:09.242Z</time>
      </trkpt>
      <trkpt lat="45.47633" lon="4.67597">
        <ele>581</ele>
        <time>2018-08-15T08:24:10.243Z</time>
      </trkpt>
      <trkpt lat="45.47633" lon="4.67597">
        <ele>581</ele>
        <time>2018-08-15T08:24:11.232Z</time>
      </trkpt>
      <trkpt lat="45.47627" lon="4.676">
        <ele>581</ele>
        <time>2018-08-15T08:24:12.246Z</time>
      </trkpt>
      <trkpt lat="45.47624" lon="4.67601">
        <ele>581</ele>
        <time>2018-08-15T08:24:13.270Z</time>
      </trkpt>
      <trkpt lat="45.47624" lon="4.67601">
        <ele>581</ele>
        <time>2018-08-15T08:24:14.237Z</time>
      </trkpt>
      <trkpt lat="45.47618" lon="4.67602">
        <ele>581</ele>
        <time>2018-08-15T08:24:15.266Z</time>
      </trkpt>
      <trkpt lat="45.47618" lon="4.67602">
        <ele>581</ele>
        <time>2018-08-15T08:24:16.251Z</time>
      </trkpt>
      <trkpt lat="45.47611" lon="4.67603">
        <ele>582</ele>
        <time>2018-08-15T08:24:17.261Z</time>
      </trkpt>
      <trkpt lat="45.47611" lon="4.67603">
        <ele>582</ele>
        <time>2018-08-15T08:24:18.251Z</time>
      </trkpt>
      <trkpt lat="45.47605" lon="4.67602">
        <ele>583</ele>
        <time>2018-08-15T08:24:19.261Z</time>
      </trkpt>
      <trkpt lat="45.47605" lon="4.67602">
        <ele>583</ele>
        <time>2018-08-15T08:24:20.259Z</time>
      </trkpt>
      <trkpt lat="45.47598" lon="4.676">
        <ele>584</ele>
        <time>2018-08-15T08:24:21.233Z</time>
      </trkpt>
      <trkpt lat="45.47598" lon="4.676">
        <ele>584</ele>
        <time>2018-08-15T08:24:22.256Z</time>
      </trkpt>
      <trkpt lat="45.47592" lon="4.67597">
        <ele>585</ele>
        <time>2018-08-15T08:24:23.266Z</time>
      </trkpt>
      <trkpt lat="45.47589" lon="4.67595">
        <ele>585</ele>
        <time>2018-08-15T08:24:24.279Z</time>
      </trkpt>
      <trkpt lat="45.47589" lon="4.67595">
        <ele>585</ele>
        <time>2018-08-15T08:24:25.251Z</time>
      </trkpt>
      <trkpt lat="45.47584" lon="4.67591">
        <ele>586</ele>
        <time>2018-08-15T08:24:26.260Z</time>
      </trkpt>
      <trkpt lat="45.47581" lon="4.67588">
        <ele>586</ele>
        <time>2018-08-15T08:24:27.257Z</time>
      </trkpt>
      <trkpt lat="45.47581" lon="4.67588">
        <ele>586</ele>
        <time>2018-08-15T08:24:28.251Z</time>
      </trkpt>
      <trkpt lat="45.47576" lon="4.67584">
        <ele>587</ele>
        <time>2018-08-15T08:24:29.263Z</time>
      </trkpt>
      <trkpt lat="45.47576" lon="4.67584">
        <ele>587</ele>
        <time>2018-08-15T08:24:30.262Z</time>
      </trkpt>
      <trkpt lat="45.4757" lon="4.67579">
        <ele>588</ele>
        <time>2018-08-15T08:24:31.272Z</time>
      </trkpt>
      <trkpt lat="45.4757" lon="4.67579">
        <ele>588</ele>
        <time>2018-08-15T08:24:32.267Z</time>
      </trkpt>
      <trkpt lat="45.47564" lon="4.67572">
        <ele>589</ele>
        <time>2018-08-15T08:24:33.238Z</time>
      </trkpt>
      <trkpt lat="45.47564" lon="4.67572">
        <ele>589</ele>
        <time>2018-08-15T08:24:34.251Z</time>
      </trkpt>
      <trkpt lat="45.47557" lon="4.67567">
        <ele>589</ele>
        <time>2018-08-15T08:24:35.259Z</time>
      </trkpt>
      <trkpt lat="45.47557" lon="4.67567">
        <ele>589</ele>
        <time>2018-08-15T08:24:36.252Z</time>
      </trkpt>
      <trkpt lat="45.4755" lon="4.67564">
        <ele>590</ele>
        <time>2018-08-15T08:24:37.261Z</time>
      </trkpt>
      <trkpt lat="45.4755" lon="4.67564">
        <ele>590</ele>
        <time>2018-08-15T08:24:38.251Z</time>
      </trkpt>
      <trkpt lat="45.47543" lon="4.67567">
        <ele>590</ele>
        <time>2018-08-15T08:24:39.268Z</time>
      </trkpt>
      <trkpt lat="45.47543" lon="4.67567">
        <ele>590</ele>
        <time>2018-08-15T08:24:40.256Z</time>
      </trkpt>
      <trkpt lat="45.47538" lon="4.67578">
        <ele>591</ele>
        <time>2018-08-15T08:24:41.269Z</time>
      </trkpt>
      <trkpt lat="45.47538" lon="4.67578">
        <ele>591</ele>
        <time>2018-08-15T08:24:42.249Z</time>
      </trkpt>
      <trkpt lat="45.47537" lon="4.67587">
        <ele>591</ele>
        <time>2018-08-15T08:24:43.258Z</time>
      </trkpt>
      <trkpt lat="45.47537" lon="4.67592">
        <ele>591</ele>
        <time>2018-08-15T08:24:44.246Z</time>
      </trkpt>
      <trkpt lat="45.47537" lon="4.67596">
        <ele>592</ele>
        <time>2018-08-15T08:24:45.247Z</time>
      </trkpt>
      <trkpt lat="45.47537" lon="4.67596">
        <ele>592</ele>
        <time>2018-08-15T08:24:46.239Z</time>
      </trkpt>
      <trkpt lat="45.47538" lon="4.67605">
        <ele>592</ele>
        <time>2018-08-15T08:24:47.257Z</time>
      </trkpt>
      <trkpt lat="45.47538" lon="4.67605">
        <ele>592</ele>
        <time>2018-08-15T08:24:48.268Z</time>
      </trkpt>
      <trkpt lat="45.47538" lon="4.67613">
        <ele>593</ele>
        <time>2018-08-15T08:24:49.235Z</time>
      </trkpt>
      <trkpt lat="45.47538" lon="4.67613">
        <ele>593</ele>
        <time>2018-08-15T08:24:50.254Z</time>
      </trkpt>
      <trkpt lat="45.47538" lon="4.67613">
        <ele>593</ele>
        <time>2018-08-15T08:24:51.307Z</time>
      </trkpt>
      <trkpt lat="45.47538" lon="4.67621">
        <ele>593</ele>
        <time>2018-08-15T08:24:52.254Z</time>
      </trkpt>
      <trkpt lat="45.4754" lon="4.6763">
        <ele>594</ele>
        <time>2018-08-15T08:24:53.263Z</time>
      </trkpt>
      <trkpt lat="45.4754" lon="4.6763">
        <ele>594</ele>
        <time>2018-08-15T08:24:54.258Z</time>
      </trkpt>
      <trkpt lat="45.47543" lon="4.6764">
        <ele>595</ele>
        <time>2018-08-15T08:24:55.268Z</time>
      </trkpt>
      <trkpt lat="45.47543" lon="4.6764">
        <ele>595</ele>
        <time>2018-08-15T08:24:56.253Z</time>
      </trkpt>
      <trkpt lat="45.47547" lon="4.67652">
        <ele>595</ele>
        <time>2018-08-15T08:24:57.263Z</time>
      </trkpt>
      <trkpt lat="45.47547" lon="4.67652">
        <ele>595</ele>
        <time>2018-08-15T08:24:58.256Z</time>
      </trkpt>
      <trkpt lat="45.47548" lon="4.67665">
        <ele>596</ele>
        <time>2018-08-15T08:24:59.268Z</time>
      </trkpt>
      <trkpt lat="45.47548" lon="4.67665">
        <ele>596</ele>
        <time>2018-08-15T08:25:00.266Z</time>
      </trkpt>
      <trkpt lat="45.47546" lon="4.67678">
        <ele>596</ele>
        <time>2018-08-15T08:25:01.234Z</time>
      </trkpt>
      <trkpt lat="45.47543" lon="4.67684">
        <ele>596</ele>
        <time>2018-08-15T08:25:02.249Z</time>
      </trkpt>
      <trkpt lat="45.47541" lon="4.6769">
        <ele>596</ele>
        <time>2018-08-15T08:25:03.240Z</time>
      </trkpt>
      <trkpt lat="45.47541" lon="4.6769">
        <ele>596</ele>
        <time>2018-08-15T08:25:04.238Z</time>
      </trkpt>
      <trkpt lat="45.47535" lon="4.67702">
        <ele>596</ele>
        <time>2018-08-15T08:25:05.265Z</time>
      </trkpt>
      <trkpt lat="45.47535" lon="4.67702">
        <ele>596</ele>
        <time>2018-08-15T08:25:06.264Z</time>
      </trkpt>
      <trkpt lat="45.47533" lon="4.67718">
        <ele>596</ele>
        <time>2018-08-15T08:25:07.272Z</time>
      </trkpt>
      <trkpt lat="45.47533" lon="4.67718">
        <ele>596</ele>
        <time>2018-08-15T08:25:08.251Z</time>
      </trkpt>
      <trkpt lat="45.47539" lon="4.67729">
        <ele>596</ele>
        <time>2018-08-15T08:25:09.264Z</time>
      </trkpt>
      <trkpt lat="45.47539" lon="4.67729">
        <ele>596</ele>
        <time>2018-08-15T08:25:10.253Z</time>
      </trkpt>
      <trkpt lat="45.47548" lon="4.67736">
        <ele>596</ele>
        <time>2018-08-15T08:25:11.263Z</time>
      </trkpt>
      <trkpt lat="45.47548" lon="4.67736">
        <ele>596</ele>
        <time>2018-08-15T08:25:12.269Z</time>
      </trkpt>
      <trkpt lat="45.47557" lon="4.67743">
        <ele>595</ele>
        <time>2018-08-15T08:25:13.239Z</time>
      </trkpt>
      <trkpt lat="45.47557" lon="4.67743">
        <ele>595</ele>
        <time>2018-08-15T08:25:14.265Z</time>
      </trkpt>
      <trkpt lat="45.47567" lon="4.67749">
        <ele>594</ele>
        <time>2018-08-15T08:25:15.238Z</time>
      </trkpt>
      <trkpt lat="45.47567" lon="4.67749">
        <ele>594</ele>
        <time>2018-08-15T08:25:16.234Z</time>
      </trkpt>
      <trkpt lat="45.47576" lon="4.67755">
        <ele>593</ele>
        <time>2018-08-15T08:25:17.244Z</time>
      </trkpt>
      <trkpt lat="45.47576" lon="4.67755">
        <ele>593</ele>
        <time>2018-08-15T08:25:18.239Z</time>
      </trkpt>
      <trkpt lat="45.47584" lon="4.67762">
        <ele>593</ele>
        <time>2018-08-15T08:25:19.261Z</time>
      </trkpt>
      <trkpt lat="45.47584" lon="4.67762">
        <ele>593</ele>
        <time>2018-08-15T08:25:20.234Z</time>
      </trkpt>
      <trkpt lat="45.47592" lon="4.6777">
        <ele>593</ele>
        <time>2018-08-15T08:25:21.241Z</time>
      </trkpt>
      <trkpt lat="45.47592" lon="4.6777">
        <ele>593</ele>
        <time>2018-08-15T08:25:22.239Z</time>
      </trkpt>
      <trkpt lat="45.47598" lon="4.67779">
        <ele>593</ele>
        <time>2018-08-15T08:25:23.257Z</time>
      </trkpt>
      <trkpt lat="45.47598" lon="4.67779">
        <ele>593</ele>
        <time>2018-08-15T08:25:24.260Z</time>
      </trkpt>
      <trkpt lat="45.47603" lon="4.67789">
        <ele>592</ele>
        <time>2018-08-15T08:25:25.269Z</time>
      </trkpt>
      <trkpt lat="45.47603" lon="4.67789">
        <ele>592</ele>
        <time>2018-08-15T08:25:26.259Z</time>
      </trkpt>
      <trkpt lat="45.47607" lon="4.67799">
        <ele>592</ele>
        <time>2018-08-15T08:25:27.268Z</time>
      </trkpt>
      <trkpt lat="45.47607" lon="4.67799">
        <ele>592</ele>
        <time>2018-08-15T08:25:28.259Z</time>
      </trkpt>
      <trkpt lat="45.47611" lon="4.67808">
        <ele>592</ele>
        <time>2018-08-15T08:25:29.248Z</time>
      </trkpt>
      <trkpt lat="45.47611" lon="4.67808">
        <ele>592</ele>
        <time>2018-08-15T08:25:30.253Z</time>
      </trkpt>
      <trkpt lat="45.47616" lon="4.67818">
        <ele>592</ele>
        <time>2018-08-15T08:25:31.261Z</time>
      </trkpt>
      <trkpt lat="45.47616" lon="4.67818">
        <ele>592</ele>
        <time>2018-08-15T08:25:32.242Z</time>
      </trkpt>
      <trkpt lat="45.47619" lon="4.67828">
        <ele>592</ele>
        <time>2018-08-15T08:25:33.265Z</time>
      </trkpt>
      <trkpt lat="45.47619" lon="4.67828">
        <ele>592</ele>
        <time>2018-08-15T08:25:34.239Z</time>
      </trkpt>
      <trkpt lat="45.47623" lon="4.67838">
        <ele>593</ele>
        <time>2018-08-15T08:25:35.266Z</time>
      </trkpt>
      <trkpt lat="45.47623" lon="4.67838">
        <ele>593</ele>
        <time>2018-08-15T08:25:36.270Z</time>
      </trkpt>
      <trkpt lat="45.47627" lon="4.67846">
        <ele>593</ele>
        <time>2018-08-15T08:25:37.256Z</time>
      </trkpt>
      <trkpt lat="45.47627" lon="4.67846">
        <ele>593</ele>
        <time>2018-08-15T08:25:38.244Z</time>
      </trkpt>
      <trkpt lat="45.4763" lon="4.67855">
        <ele>592</ele>
        <time>2018-08-15T08:25:39.256Z</time>
      </trkpt>
      <trkpt lat="45.4763" lon="4.67855">
        <ele>592</ele>
        <time>2018-08-15T08:25:40.247Z</time>
      </trkpt>
      <trkpt lat="45.47632" lon="4.67863">
        <ele>592</ele>
        <time>2018-08-15T08:25:41.259Z</time>
      </trkpt>
      <trkpt lat="45.47632" lon="4.67863">
        <ele>592</ele>
        <time>2018-08-15T08:25:42.242Z</time>
      </trkpt>
      <trkpt lat="45.47635" lon="4.67871">
        <ele>592</ele>
        <time>2018-08-15T08:25:43.252Z</time>
      </trkpt>
      <trkpt lat="45.47635" lon="4.67871">
        <ele>592</ele>
        <time>2018-08-15T08:25:44.251Z</time>
      </trkpt>
      <trkpt lat="45.47637" lon="4.67879">
        <ele>592</ele>
        <time>2018-08-15T08:25:45.261Z</time>
      </trkpt>
      <trkpt lat="45.47637" lon="4.67879">
        <ele>592</ele>
        <time>2018-08-15T08:25:46.236Z</time>
      </trkpt>
      <trkpt lat="45.4764" lon="4.67887">
        <ele>592</ele>
        <time>2018-08-15T08:25:47.248Z</time>
      </trkpt>
      <trkpt lat="45.4764" lon="4.67887">
        <ele>592</ele>
        <time>2018-08-15T08:25:48.270Z</time>
      </trkpt>
      <trkpt lat="45.47643" lon="4.67895">
        <ele>592</ele>
        <time>2018-08-15T08:25:49.239Z</time>
      </trkpt>
      <trkpt lat="45.47643" lon="4.67895">
        <ele>592</ele>
        <time>2018-08-15T08:25:50.255Z</time>
      </trkpt>
      <trkpt lat="45.47647" lon="4.67904">
        <ele>592</ele>
        <time>2018-08-15T08:25:51.264Z</time>
      </trkpt>
      <trkpt lat="45.47647" lon="4.67904">
        <ele>592</ele>
        <time>2018-08-15T08:25:52.272Z</time>
      </trkpt>
      <trkpt lat="45.47651" lon="4.67912">
        <ele>592</ele>
        <time>2018-08-15T08:25:53.241Z</time>
      </trkpt>
      <trkpt lat="45.47651" lon="4.67912">
        <ele>592</ele>
        <time>2018-08-15T08:25:54.267Z</time>
      </trkpt>
      <trkpt lat="45.47654" lon="4.67921">
        <ele>592</ele>
        <time>2018-08-15T08:25:55.238Z</time>
      </trkpt>
      <trkpt lat="45.47654" lon="4.67921">
        <ele>592</ele>
        <time>2018-08-15T08:25:56.239Z</time>
      </trkpt>
      <trkpt lat="45.47658" lon="4.67931">
        <ele>592</ele>
        <time>2018-08-15T08:25:57.245Z</time>
      </trkpt>
      <trkpt lat="45.47658" lon="4.67931">
        <ele>592</ele>
        <time>2018-08-15T08:25:58.260Z</time>
      </trkpt>
      <trkpt lat="45.47659" lon="4.67943">
        <ele>592</ele>
        <time>2018-08-15T08:25:59.247Z</time>
      </trkpt>
      <trkpt lat="45.47659" lon="4.67943">
        <ele>592</ele>
        <time>2018-08-15T08:26:00.232Z</time>
      </trkpt>
      <trkpt lat="45.4766" lon="4.67958">
        <ele>592</ele>
        <time>2018-08-15T08:26:01.242Z</time>
      </trkpt>
      <trkpt lat="45.4766" lon="4.67958">
        <ele>592</ele>
        <time>2018-08-15T08:26:02.235Z</time>
      </trkpt>
      <trkpt lat="45.4766" lon="4.67975">
        <ele>591</ele>
        <time>2018-08-15T08:26:03.243Z</time>
      </trkpt>
      <trkpt lat="45.4766" lon="4.67975">
        <ele>591</ele>
        <time>2018-08-15T08:26:04.251Z</time>
      </trkpt>
      <trkpt lat="45.47656" lon="4.67992">
        <ele>590</ele>
        <time>2018-08-15T08:26:05.259Z</time>
      </trkpt>
      <trkpt lat="45.47656" lon="4.67992">
        <ele>590</ele>
        <time>2018-08-15T08:26:06.251Z</time>
      </trkpt>
      <trkpt lat="45.47654" lon="4.68012">
        <ele>590</ele>
        <time>2018-08-15T08:26:07.265Z</time>
      </trkpt>
      <trkpt lat="45.47654" lon="4.68012">
        <ele>590</ele>
        <time>2018-08-15T08:26:08.241Z</time>
      </trkpt>
      <trkpt lat="45.47648" lon="4.68032">
        <ele>590</ele>
        <time>2018-08-15T08:26:09.250Z</time>
      </trkpt>
      <trkpt lat="45.47648" lon="4.68032">
        <ele>590</ele>
        <time>2018-08-15T08:26:10.237Z</time>
      </trkpt>
      <trkpt lat="45.47638" lon="4.68051">
        <ele>589</ele>
        <time>2018-08-15T08:26:11.259Z</time>
      </trkpt>
      <trkpt lat="45.47638" lon="4.68051">
        <ele>589</ele>
        <time>2018-08-15T08:26:12.242Z</time>
      </trkpt>
      <trkpt lat="45.47628" lon="4.6807">
        <ele>588</ele>
        <time>2018-08-15T08:26:13.254Z</time>
      </trkpt>
      <trkpt lat="45.47628" lon="4.6807">
        <ele>588</ele>
        <time>2018-08-15T08:26:14.247Z</time>
      </trkpt>
      <trkpt lat="45.47616" lon="4.68086">
        <ele>587</ele>
        <time>2018-08-15T08:26:15.256Z</time>
      </trkpt>
      <trkpt lat="45.47616" lon="4.68086">
        <ele>587</ele>
        <time>2018-08-15T08:26:16.251Z</time>
      </trkpt>
      <trkpt lat="45.47605" lon="4.68098">
        <ele>586</ele>
        <time>2018-08-15T08:26:17.236Z</time>
      </trkpt>
      <trkpt lat="45.47605" lon="4.68098">
        <ele>586</ele>
        <time>2018-08-15T08:26:18.248Z</time>
      </trkpt>
      <trkpt lat="45.47596" lon="4.68109">
        <ele>585</ele>
        <time>2018-08-15T08:26:19.262Z</time>
      </trkpt>
      <trkpt lat="45.47596" lon="4.68109">
        <ele>585</ele>
        <time>2018-08-15T08:26:20.236Z</time>
      </trkpt>
      <trkpt lat="45.47593" lon="4.68125">
        <ele>584</ele>
        <time>2018-08-15T08:26:21.256Z</time>
      </trkpt>
      <trkpt lat="45.47593" lon="4.68125">
        <ele>584</ele>
        <time>2018-08-15T08:26:22.259Z</time>
      </trkpt>
      <trkpt lat="45.47595" lon="4.68139">
        <ele>583</ele>
        <time>2018-08-15T08:26:23.272Z</time>
      </trkpt>
      <trkpt lat="45.47595" lon="4.68139">
        <ele>583</ele>
        <time>2018-08-15T08:26:24.259Z</time>
      </trkpt>
      <trkpt lat="45.476" lon="4.68152">
        <ele>583</ele>
        <time>2018-08-15T08:26:25.274Z</time>
      </trkpt>
      <trkpt lat="45.476" lon="4.68152">
        <ele>583</ele>
        <time>2018-08-15T08:26:26.256Z</time>
      </trkpt>
      <trkpt lat="45.47603" lon="4.68164">
        <ele>582</ele>
        <time>2018-08-15T08:26:27.264Z</time>
      </trkpt>
      <trkpt lat="45.47603" lon="4.68164">
        <ele>582</ele>
        <time>2018-08-15T08:26:28.239Z</time>
      </trkpt>
      <trkpt lat="45.47605" lon="4.68177">
        <ele>582</ele>
        <time>2018-08-15T08:26:29.256Z</time>
      </trkpt>
      <trkpt lat="45.47605" lon="4.68177">
        <ele>582</ele>
        <time>2018-08-15T08:26:30.260Z</time>
      </trkpt>
      <trkpt lat="45.47607" lon="4.68189">
        <ele>582</ele>
        <time>2018-08-15T08:26:31.271Z</time>
      </trkpt>
      <trkpt lat="45.47607" lon="4.68189">
        <ele>582</ele>
        <time>2018-08-15T08:26:32.270Z</time>
      </trkpt>
      <trkpt lat="45.47607" lon="4.68189">
        <ele>582</ele>
        <time>2018-08-15T08:26:33.417Z</time>
      </trkpt>
      <trkpt lat="45.47608" lon="4.68199">
        <ele>581</ele>
        <time>2018-08-15T08:26:34.242Z</time>
      </trkpt>
      <trkpt lat="45.4761" lon="4.68209">
        <ele>581</ele>
        <time>2018-08-15T08:26:35.254Z</time>
      </trkpt>
      <trkpt lat="45.4761" lon="4.68209">
        <ele>581</ele>
        <time>2018-08-15T08:26:36.256Z</time>
      </trkpt>
      <trkpt lat="45.47612" lon="4.68216">
        <ele>582</ele>
        <time>2018-08-15T08:26:37.257Z</time>
      </trkpt>
      <trkpt lat="45.47612" lon="4.68216">
        <ele>582</ele>
        <time>2018-08-15T08:26:38.233Z</time>
      </trkpt>
      <trkpt lat="45.47614" lon="4.68224">
        <ele>582</ele>
        <time>2018-08-15T08:26:39.242Z</time>
      </trkpt>
      <trkpt lat="45.47614" lon="4.68224">
        <ele>582</ele>
        <time>2018-08-15T08:26:40.262Z</time>
      </trkpt>
      <trkpt lat="45.47614" lon="4.68231">
        <ele>583</ele>
        <time>2018-08-15T08:26:41.250Z</time>
      </trkpt>
      <trkpt lat="45.47614" lon="4.68231">
        <ele>583</ele>
        <time>2018-08-15T08:26:42.262Z</time>
      </trkpt>
      <trkpt lat="45.47615" lon="4.68238">
        <ele>584</ele>
        <time>2018-08-15T08:26:43.272Z</time>
      </trkpt>
      <trkpt lat="45.47615" lon="4.68238">
        <ele>584</ele>
        <time>2018-08-15T08:26:44.242Z</time>
      </trkpt>
      <trkpt lat="45.47617" lon="4.68244">
        <ele>584</ele>
        <time>2018-08-15T08:26:45.257Z</time>
      </trkpt>
      <trkpt lat="45.47617" lon="4.68244">
        <ele>584</ele>
        <time>2018-08-15T08:26:46.261Z</time>
      </trkpt>
      <trkpt lat="45.47617" lon="4.6825">
        <ele>585</ele>
        <time>2018-08-15T08:26:47.236Z</time>
      </trkpt>
      <trkpt lat="45.47617" lon="4.6825">
        <ele>585</ele>
        <time>2018-08-15T08:26:48.236Z</time>
      </trkpt>
      <trkpt lat="45.47618" lon="4.68257">
        <ele>586</ele>
        <time>2018-08-15T08:26:49.246Z</time>
      </trkpt>
      <trkpt lat="45.47619" lon="4.6826">
        <ele>586</ele>
        <time>2018-08-15T08:26:50.265Z</time>
      </trkpt>
      <trkpt lat="45.47619" lon="4.68264">
        <ele>586</ele>
        <time>2018-08-15T08:26:51.248Z</time>
      </trkpt>
      <trkpt lat="45.47619" lon="4.68264">
        <ele>586</ele>
        <time>2018-08-15T08:26:52.250Z</time>
      </trkpt>
      <trkpt lat="45.47621" lon="4.68271">
        <ele>587</ele>
        <time>2018-08-15T08:26:53.257Z</time>
      </trkpt>
      <trkpt lat="45.47621" lon="4.68271">
        <ele>587</ele>
        <time>2018-08-15T08:26:54.267Z</time>
      </trkpt>
      <trkpt lat="45.47623" lon="4.68277">
        <ele>588</ele>
        <time>2018-08-15T08:26:55.234Z</time>
      </trkpt>
      <trkpt lat="45.47623" lon="4.68277">
        <ele>588</ele>
        <time>2018-08-15T08:26:56.233Z</time>
      </trkpt>
      <trkpt lat="45.47625" lon="4.68284">
        <ele>589</ele>
        <time>2018-08-15T08:26:57.244Z</time>
      </trkpt>
      <trkpt lat="45.47625" lon="4.68284">
        <ele>589</ele>
        <time>2018-08-15T08:26:58.265Z</time>
      </trkpt>
      <trkpt lat="45.47625" lon="4.6829">
        <ele>589</ele>
        <time>2018-08-15T08:26:59.306Z</time>
      </trkpt>
      <trkpt lat="45.47625" lon="4.6829">
        <ele>589</ele>
        <time>2018-08-15T08:27:00.250Z</time>
      </trkpt>
      <trkpt lat="45.47626" lon="4.68295">
        <ele>589</ele>
        <time>2018-08-15T08:27:01.261Z</time>
      </trkpt>
      <trkpt lat="45.47626" lon="4.68295">
        <ele>589</ele>
        <time>2018-08-15T08:27:02.254Z</time>
      </trkpt>
      <trkpt lat="45.47627" lon="4.68301">
        <ele>589</ele>
        <time>2018-08-15T08:27:03.236Z</time>
      </trkpt>
      <trkpt lat="45.47627" lon="4.68301">
        <ele>589</ele>
        <time>2018-08-15T08:27:04.247Z</time>
      </trkpt>
      <trkpt lat="45.47627" lon="4.68306">
        <ele>589</ele>
        <time>2018-08-15T08:27:05.255Z</time>
      </trkpt>
      <trkpt lat="45.47627" lon="4.68306">
        <ele>589</ele>
        <time>2018-08-15T08:27:06.242Z</time>
      </trkpt>
      <trkpt lat="45.47627" lon="4.68311">
        <ele>590</ele>
        <time>2018-08-15T08:27:07.258Z</time>
      </trkpt>
      <trkpt lat="45.47627" lon="4.68311">
        <ele>590</ele>
        <time>2018-08-15T08:27:08.250Z</time>
      </trkpt>
      <trkpt lat="45.47627" lon="4.68316">
        <ele>590</ele>
        <time>2018-08-15T08:27:09.260Z</time>
      </trkpt>
      <trkpt lat="45.47627" lon="4.68316">
        <ele>590</ele>
        <time>2018-08-15T08:27:10.269Z</time>
      </trkpt>
      <trkpt lat="45.47627" lon="4.68322">
        <ele>590</ele>
        <time>2018-08-15T08:27:11.249Z</time>
      </trkpt>
      <trkpt lat="45.47627" lon="4.68322">
        <ele>590</ele>
        <time>2018-08-15T08:27:12.244Z</time>
      </trkpt>
      <trkpt lat="45.47628" lon="4.68327">
        <ele>591</ele>
        <time>2018-08-15T08:27:13.253Z</time>
      </trkpt>
      <trkpt lat="45.47628" lon="4.68327">
        <ele>591</ele>
        <time>2018-08-15T08:27:14.249Z</time>
      </trkpt>
      <trkpt lat="45.47628" lon="4.68332">
        <ele>591</ele>
        <time>2018-08-15T08:27:15.239Z</time>
      </trkpt>
      <trkpt lat="45.47628" lon="4.68332">
        <ele>591</ele>
        <time>2018-08-15T08:27:16.242Z</time>
      </trkpt>
      <trkpt lat="45.47627" lon="4.68338">
        <ele>592</ele>
        <time>2018-08-15T08:27:17.262Z</time>
      </trkpt>
      <trkpt lat="45.47627" lon="4.68338">
        <ele>592</ele>
        <time>2018-08-15T08:27:18.254Z</time>
      </trkpt>
      <trkpt lat="45.47628" lon="4.68343">
        <ele>592</ele>
        <time>2018-08-15T08:27:19.264Z</time>
      </trkpt>
      <trkpt lat="45.47628" lon="4.68343">
        <ele>592</ele>
        <time>2018-08-15T08:27:20.260Z</time>
      </trkpt>
      <trkpt lat="45.47628" lon="4.68348">
        <ele>593</ele>
        <time>2018-08-15T08:27:21.232Z</time>
      </trkpt>
      <trkpt lat="45.47628" lon="4.68348">
        <ele>593</ele>
        <time>2018-08-15T08:27:22.268Z</time>
      </trkpt>
      <trkpt lat="45.47628" lon="4.68353">
        <ele>594</ele>
        <time>2018-08-15T08:27:23.235Z</time>
      </trkpt>
      <trkpt lat="45.47628" lon="4.68353">
        <ele>594</ele>
        <time>2018-08-15T08:27:24.242Z</time>
      </trkpt>
      <trkpt lat="45.47628" lon="4.68359">
        <ele>595</ele>
        <time>2018-08-15T08:27:25.249Z</time>
      </trkpt>
      <trkpt lat="45.47628" lon="4.68359">
        <ele>595</ele>
        <time>2018-08-15T08:27:26.235Z</time>
      </trkpt>
      <trkpt lat="45.47628" lon="4.68364">
        <ele>595</ele>
        <time>2018-08-15T08:27:27.256Z</time>
      </trkpt>
      <trkpt lat="45.47628" lon="4.68364">
        <ele>595</ele>
        <time>2018-08-15T08:27:28.233Z</time>
      </trkpt>
      <trkpt lat="45.47627" lon="4.68369">
        <ele>595</ele>
        <time>2018-08-15T08:27:29.248Z</time>
      </trkpt>
      <trkpt lat="45.47627" lon="4.68369">
        <ele>595</ele>
        <time>2018-08-15T08:27:30.240Z</time>
      </trkpt>
      <trkpt lat="45.47628" lon="4.68374">
        <ele>596</ele>
        <time>2018-08-15T08:27:31.261Z</time>
      </trkpt>
      <trkpt lat="45.47628" lon="4.68374">
        <ele>596</ele>
        <time>2018-08-15T08:27:32.253Z</time>
      </trkpt>
      <trkpt lat="45.47628" lon="4.6838">
        <ele>596</ele>
        <time>2018-08-15T08:27:33.263Z</time>
      </trkpt>
      <trkpt lat="45.47628" lon="4.6838">
        <ele>596</ele>
        <time>2018-08-15T08:27:34.257Z</time>
      </trkpt>
      <trkpt lat="45.47627" lon="4.68385">
        <ele>596</ele>
        <time>2018-08-15T08:27:35.232Z</time>
      </trkpt>
      <trkpt lat="45.47627" lon="4.68385">
        <ele>596</ele>
        <time>2018-08-15T08:27:36.232Z</time>
      </trkpt>
      <trkpt lat="45.47627" lon="4.6839">
        <ele>597</ele>
        <time>2018-08-15T08:27:37.238Z</time>
      </trkpt>
      <trkpt lat="45.47627" lon="4.68393">
        <ele>597</ele>
        <time>2018-08-15T08:27:38.233Z</time>
      </trkpt>
      <trkpt lat="45.47627" lon="4.68395">
        <ele>598</ele>
        <time>2018-08-15T08:27:39.257Z</time>
      </trkpt>
      <trkpt lat="45.47627" lon="4.68395">
        <ele>598</ele>
        <time>2018-08-15T08:27:40.260Z</time>
      </trkpt>
      <trkpt lat="45.47626" lon="4.684">
        <ele>598</ele>
        <time>2018-08-15T08:27:41.271Z</time>
      </trkpt>
      <trkpt lat="45.47626" lon="4.684">
        <ele>598</ele>
        <time>2018-08-15T08:27:42.233Z</time>
      </trkpt>
      <trkpt lat="45.47626" lon="4.68405">
        <ele>599</ele>
        <time>2018-08-15T08:27:43.252Z</time>
      </trkpt>
      <trkpt lat="45.47626" lon="4.68405">
        <ele>599</ele>
        <time>2018-08-15T08:27:44.236Z</time>
      </trkpt>
      <trkpt lat="45.47625" lon="4.68411">
        <ele>600</ele>
        <time>2018-08-15T08:27:45.243Z</time>
      </trkpt>
      <trkpt lat="45.47625" lon="4.68411">
        <ele>600</ele>
        <time>2018-08-15T08:27:46.233Z</time>
      </trkpt>
      <trkpt lat="45.47624" lon="4.68415">
        <ele>600</ele>
        <time>2018-08-15T08:27:47.248Z</time>
      </trkpt>
      <trkpt lat="45.47624" lon="4.68418">
        <ele>601</ele>
        <time>2018-08-15T08:27:48.258Z</time>
      </trkpt>
      <trkpt lat="45.47624" lon="4.68418">
        <ele>601</ele>
        <time>2018-08-15T08:27:49.249Z</time>
      </trkpt>
      <trkpt lat="45.47624" lon="4.68423">
        <ele>601</ele>
        <time>2018-08-15T08:27:50.242Z</time>
      </trkpt>
      <trkpt lat="45.47623" lon="4.68426">
        <ele>601</ele>
        <time>2018-08-15T08:27:51.254Z</time>
      </trkpt>
      <trkpt lat="45.47623" lon="4.68426">
        <ele>601</ele>
        <time>2018-08-15T08:27:52.239Z</time>
      </trkpt>
      <trkpt lat="45.47623" lon="4.6843">
        <ele>602</ele>
        <time>2018-08-15T08:27:53.257Z</time>
      </trkpt>
      <trkpt lat="45.47623" lon="4.6843">
        <ele>602</ele>
        <time>2018-08-15T08:27:54.265Z</time>
      </trkpt>
      <trkpt lat="45.47621" lon="4.68435">
        <ele>603</ele>
        <time>2018-08-15T08:27:55.233Z</time>
      </trkpt>
      <trkpt lat="45.47621" lon="4.68435">
        <ele>603</ele>
        <time>2018-08-15T08:27:56.253Z</time>
      </trkpt>
      <trkpt lat="45.4762" lon="4.68439">
        <ele>603</ele>
        <time>2018-08-15T08:27:57.262Z</time>
      </trkpt>
      <trkpt lat="45.4762" lon="4.68439">
        <ele>603</ele>
        <time>2018-08-15T08:27:58.252Z</time>
      </trkpt>
      <trkpt lat="45.47619" lon="4.68444">
        <ele>603</ele>
        <time>2018-08-15T08:27:59.271Z</time>
      </trkpt>
      <trkpt lat="45.47619" lon="4.68444">
        <ele>603</ele>
        <time>2018-08-15T08:28:00.257Z</time>
      </trkpt>
      <trkpt lat="45.47618" lon="4.68449">
        <ele>603</ele>
        <time>2018-08-15T08:28:01.270Z</time>
      </trkpt>
      <trkpt lat="45.47617" lon="4.68451">
        <ele>604</ele>
        <time>2018-08-15T08:28:02.254Z</time>
      </trkpt>
      <trkpt lat="45.47617" lon="4.68454">
        <ele>604</ele>
        <time>2018-08-15T08:28:03.261Z</time>
      </trkpt>
      <trkpt lat="45.47617" lon="4.68454">
        <ele>604</ele>
        <time>2018-08-15T08:28:04.250Z</time>
      </trkpt>
      <trkpt lat="45.47616" lon="4.68459">
        <ele>604</ele>
        <time>2018-08-15T08:28:05.258Z</time>
      </trkpt>
      <trkpt lat="45.47616" lon="4.68459">
        <ele>604</ele>
        <time>2018-08-15T08:28:06.256Z</time>
      </trkpt>
      <trkpt lat="45.47614" lon="4.68465">
        <ele>604</ele>
        <time>2018-08-15T08:28:07.240Z</time>
      </trkpt>
      <trkpt lat="45.47613" lon="4.68468">
        <ele>604</ele>
        <time>2018-08-15T08:28:08.266Z</time>
      </trkpt>
      <trkpt lat="45.47613" lon="4.68471">
        <ele>604</ele>
        <time>2018-08-15T08:28:09.268Z</time>
      </trkpt>
      <trkpt lat="45.47613" lon="4.68471">
        <ele>604</ele>
        <time>2018-08-15T08:28:10.256Z</time>
      </trkpt>
      <trkpt lat="45.47611" lon="4.68477">
        <ele>603</ele>
        <time>2018-08-15T08:28:11.259Z</time>
      </trkpt>
      <trkpt lat="45.47611" lon="4.68477">
        <ele>603</ele>
        <time>2018-08-15T08:28:12.248Z</time>
      </trkpt>
      <trkpt lat="45.4761" lon="4.68486">
        <ele>603</ele>
        <time>2018-08-15T08:28:13.256Z</time>
      </trkpt>
      <trkpt lat="45.4761" lon="4.68486">
        <ele>603</ele>
        <time>2018-08-15T08:28:14.239Z</time>
      </trkpt>
      <trkpt lat="45.47607" lon="4.68496">
        <ele>603</ele>
        <time>2018-08-15T08:28:15.246Z</time>
      </trkpt>
      <trkpt lat="45.47607" lon="4.68496">
        <ele>603</ele>
        <time>2018-08-15T08:28:16.261Z</time>
      </trkpt>
      <trkpt lat="45.47603" lon="4.6851">
        <ele>603</ele>
        <time>2018-08-15T08:28:17.237Z</time>
      </trkpt>
      <trkpt lat="45.47603" lon="4.6851">
        <ele>603</ele>
        <time>2018-08-15T08:28:18.259Z</time>
      </trkpt>
      <trkpt lat="45.47598" lon="4.68526">
        <ele>602</ele>
        <time>2018-08-15T08:28:19.269Z</time>
      </trkpt>
      <trkpt lat="45.47598" lon="4.68526">
        <ele>602</ele>
        <time>2018-08-15T08:28:20.263Z</time>
      </trkpt>
      <trkpt lat="45.47591" lon="4.68546">
        <ele>600</ele>
        <time>2018-08-15T08:28:21.271Z</time>
      </trkpt>
      <trkpt lat="45.47591" lon="4.68546">
        <ele>600</ele>
        <time>2018-08-15T08:28:22.263Z</time>
      </trkpt>
      <trkpt lat="45.47584" lon="4.68567">
        <ele>599</ele>
        <time>2018-08-15T08:28:23.238Z</time>
      </trkpt>
      <trkpt lat="45.47584" lon="4.68567">
        <ele>599</ele>
        <time>2018-08-15T08:28:24.269Z</time>
      </trkpt>
      <trkpt lat="45.47575" lon="4.68584">
        <ele>597</ele>
        <time>2018-08-15T08:28:25.237Z</time>
      </trkpt>
      <trkpt lat="45.47575" lon="4.68584">
        <ele>597</ele>
        <time>2018-08-15T08:28:26.249Z</time>
      </trkpt>
      <trkpt lat="45.47564" lon="4.68601">
        <ele>596</ele>
        <time>2018-08-15T08:28:27.258Z</time>
      </trkpt>
      <trkpt lat="45.47564" lon="4.68601">
        <ele>596</ele>
        <time>2018-08-15T08:28:28.249Z</time>
      </trkpt>
      <trkpt lat="45.47555" lon="4.68617">
        <ele>594</ele>
        <time>2018-08-15T08:28:29.258Z</time>
      </trkpt>
      <trkpt lat="45.47555" lon="4.68617">
        <ele>594</ele>
        <time>2018-08-15T08:28:30.307Z</time>
      </trkpt>
      <trkpt lat="45.47549" lon="4.68637">
        <ele>593</ele>
        <time>2018-08-15T08:28:31.242Z</time>
      </trkpt>
      <trkpt lat="45.47549" lon="4.68637">
        <ele>593</ele>
        <time>2018-08-15T08:28:32.265Z</time>
      </trkpt>
      <trkpt lat="45.47552" lon="4.6866">
        <ele>591</ele>
        <time>2018-08-15T08:28:33.241Z</time>
      </trkpt>
      <trkpt lat="45.47552" lon="4.6866">
        <ele>591</ele>
        <time>2018-08-15T08:28:34.271Z</time>
      </trkpt>
      <trkpt lat="45.4756" lon="4.68676">
        <ele>590</ele>
        <time>2018-08-15T08:28:35.239Z</time>
      </trkpt>
      <trkpt lat="45.4756" lon="4.68676">
        <ele>590</ele>
        <time>2018-08-15T08:28:36.253Z</time>
      </trkpt>
      <trkpt lat="45.47567" lon="4.68686">
        <ele>589</ele>
        <time>2018-08-15T08:28:37.232Z</time>
      </trkpt>
      <trkpt lat="45.47571" lon="4.68688">
        <ele>589</ele>
        <time>2018-08-15T08:28:38.237Z</time>
      </trkpt>
      <trkpt lat="45.47574" lon="4.6869">
        <ele>589</ele>
        <time>2018-08-15T08:28:39.268Z</time>
      </trkpt>
      <trkpt lat="45.47574" lon="4.6869">
        <ele>589</ele>
        <time>2018-08-15T08:28:40.256Z</time>
      </trkpt>
      <trkpt lat="45.47579" lon="4.68695">
        <ele>590</ele>
        <time>2018-08-15T08:28:41.268Z</time>
      </trkpt>
      <trkpt lat="45.47579" lon="4.68695">
        <ele>590</ele>
        <time>2018-08-15T08:28:42.270Z</time>
      </trkpt>
      <trkpt lat="45.47583" lon="4.68699">
        <ele>590</ele>
        <time>2018-08-15T08:28:43.241Z</time>
      </trkpt>
      <trkpt lat="45.47583" lon="4.68699">
        <ele>590</ele>
        <time>2018-08-15T08:28:44.255Z</time>
      </trkpt>
      <trkpt lat="45.47587" lon="4.68703">
        <ele>590</ele>
        <time>2018-08-15T08:28:45.240Z</time>
      </trkpt>
      <trkpt lat="45.47587" lon="4.68703">
        <ele>590</ele>
        <time>2018-08-15T08:28:46.234Z</time>
      </trkpt>
      <trkpt lat="45.47592" lon="4.68707">
        <ele>591</ele>
        <time>2018-08-15T08:28:47.243Z</time>
      </trkpt>
      <trkpt lat="45.47592" lon="4.68707">
        <ele>591</ele>
        <time>2018-08-15T08:28:48.263Z</time>
      </trkpt>
      <trkpt lat="45.47596" lon="4.68711">
        <ele>591</ele>
        <time>2018-08-15T08:28:49.241Z</time>
      </trkpt>
      <trkpt lat="45.47596" lon="4.68711">
        <ele>591</ele>
        <time>2018-08-15T08:28:50.265Z</time>
      </trkpt>
      <trkpt lat="45.476" lon="4.68715">
        <ele>591</ele>
        <time>2018-08-15T08:28:51.238Z</time>
      </trkpt>
      <trkpt lat="45.476" lon="4.68715">
        <ele>591</ele>
        <time>2018-08-15T08:28:52.235Z</time>
      </trkpt>
      <trkpt lat="45.47605" lon="4.6872">
        <ele>592</ele>
        <time>2018-08-15T08:28:53.243Z</time>
      </trkpt>
      <trkpt lat="45.47605" lon="4.6872">
        <ele>592</ele>
        <time>2018-08-15T08:28:54.233Z</time>
      </trkpt>
      <trkpt lat="45.47609" lon="4.68724">
        <ele>592</ele>
        <time>2018-08-15T08:28:55.243Z</time>
      </trkpt>
      <trkpt lat="45.47609" lon="4.68724">
        <ele>592</ele>
        <time>2018-08-15T08:28:56.267Z</time>
      </trkpt>
      <trkpt lat="45.47613" lon="4.68728">
        <ele>592</ele>
        <time>2018-08-15T08:28:57.240Z</time>
      </trkpt>
      <trkpt lat="45.47613" lon="4.68728">
        <ele>592</ele>
        <time>2018-08-15T08:28:58.239Z</time>
      </trkpt>
      <trkpt lat="45.47618" lon="4.68732">
        <ele>593</ele>
        <time>2018-08-15T08:28:59.254Z</time>
      </trkpt>
      <trkpt lat="45.47618" lon="4.68732">
        <ele>593</ele>
        <time>2018-08-15T08:29:00.253Z</time>
      </trkpt>
      <trkpt lat="45.47622" lon="4.68736">
        <ele>593</ele>
        <time>2018-08-15T08:29:01.243Z</time>
      </trkpt>
      <trkpt lat="45.47625" lon="4.68738">
        <ele>593</ele>
        <time>2018-08-15T08:29:02.257Z</time>
      </trkpt>
      <trkpt lat="45.47627" lon="4.6874">
        <ele>593</ele>
        <time>2018-08-15T08:29:03.265Z</time>
      </trkpt>
      <trkpt lat="45.47627" lon="4.6874">
        <ele>593</ele>
        <time>2018-08-15T08:29:04.254Z</time>
      </trkpt>
      <trkpt lat="45.47632" lon="4.68744">
        <ele>594</ele>
        <time>2018-08-15T08:29:05.272Z</time>
      </trkpt>
      <trkpt lat="45.47634" lon="4.68746">
        <ele>594</ele>
        <time>2018-08-15T08:29:06.263Z</time>
      </trkpt>
      <trkpt lat="45.47634" lon="4.68746">
        <ele>594</ele>
        <time>2018-08-15T08:29:07.261Z</time>
      </trkpt>
      <trkpt lat="45.47638" lon="4.68752">
        <ele>595</ele>
        <time>2018-08-15T08:29:08.269Z</time>
      </trkpt>
      <trkpt lat="45.4764" lon="4.68755">
        <ele>595</ele>
        <time>2018-08-15T08:29:09.267Z</time>
      </trkpt>
      <trkpt lat="45.4764" lon="4.68755">
        <ele>595</ele>
        <time>2018-08-15T08:29:10.259Z</time>
      </trkpt>
      <trkpt lat="45.47644" lon="4.68761">
        <ele>596</ele>
        <time>2018-08-15T08:29:11.270Z</time>
      </trkpt>
      <trkpt lat="45.47644" lon="4.68761">
        <ele>596</ele>
        <time>2018-08-15T08:29:12.264Z</time>
      </trkpt>
      <trkpt lat="45.47648" lon="4.68766">
        <ele>596</ele>
        <time>2018-08-15T08:29:13.233Z</time>
      </trkpt>
      <trkpt lat="45.47648" lon="4.68766">
        <ele>596</ele>
        <time>2018-08-15T08:29:14.255Z</time>
      </trkpt>
      <trkpt lat="45.47651" lon="4.68771">
        <ele>596</ele>
        <time>2018-08-15T08:29:15.265Z</time>
      </trkpt>
      <trkpt lat="45.47651" lon="4.68771">
        <ele>596</ele>
        <time>2018-08-15T08:29:16.259Z</time>
      </trkpt>
      <trkpt lat="45.47655" lon="4.68776">
        <ele>596</ele>
        <time>2018-08-15T08:29:17.268Z</time>
      </trkpt>
      <trkpt lat="45.47655" lon="4.68776">
        <ele>596</ele>
        <time>2018-08-15T08:29:18.233Z</time>
      </trkpt>
      <trkpt lat="45.47659" lon="4.68782">
        <ele>596</ele>
        <time>2018-08-15T08:29:19.240Z</time>
      </trkpt>
      <trkpt lat="45.47659" lon="4.68782">
        <ele>596</ele>
        <time>2018-08-15T08:29:20.239Z</time>
      </trkpt>
      <trkpt lat="45.47663" lon="4.68787">
        <ele>597</ele>
        <time>2018-08-15T08:29:21.247Z</time>
      </trkpt>
      <trkpt lat="45.47663" lon="4.68787">
        <ele>597</ele>
        <time>2018-08-15T08:29:22.242Z</time>
      </trkpt>
      <trkpt lat="45.47667" lon="4.68793">
        <ele>598</ele>
        <time>2018-08-15T08:29:23.256Z</time>
      </trkpt>
      <trkpt lat="45.47667" lon="4.68793">
        <ele>598</ele>
        <time>2018-08-15T08:29:24.236Z</time>
      </trkpt>
      <trkpt lat="45.4767" lon="4.68799">
        <ele>598</ele>
        <time>2018-08-15T08:29:25.244Z</time>
      </trkpt>
      <trkpt lat="45.4767" lon="4.68799">
        <ele>598</ele>
        <time>2018-08-15T08:29:26.234Z</time>
      </trkpt>
      <trkpt lat="45.47673" lon="4.68806">
        <ele>598</ele>
        <time>2018-08-15T08:29:27.241Z</time>
      </trkpt>
      <trkpt lat="45.47673" lon="4.68806">
        <ele>598</ele>
        <time>2018-08-15T08:29:28.250Z</time>
      </trkpt>
      <trkpt lat="45.47675" lon="4.68811">
        <ele>598</ele>
        <time>2018-08-15T08:29:29.319Z</time>
      </trkpt>
      <trkpt lat="45.47675" lon="4.68811">
        <ele>598</ele>
        <time>2018-08-15T08:29:30.249Z</time>
      </trkpt>
      <trkpt lat="45.47678" lon="4.68817">
        <ele>599</ele>
        <time>2018-08-15T08:29:31.266Z</time>
      </trkpt>
      <trkpt lat="45.47678" lon="4.68817">
        <ele>599</ele>
        <time>2018-08-15T08:29:32.237Z</time>
      </trkpt>
      <trkpt lat="45.47679" lon="4.68824">
        <ele>599</ele>
        <time>2018-08-15T08:29:33.245Z</time>
      </trkpt>
      <trkpt lat="45.47679" lon="4.68824">
        <ele>599</ele>
        <time>2018-08-15T08:29:34.237Z</time>
      </trkpt>
      <trkpt lat="45.47681" lon="4.68831">
        <ele>599</ele>
        <time>2018-08-15T08:29:35.253Z</time>
      </trkpt>
      <trkpt lat="45.47681" lon="4.68831">
        <ele>599</ele>
        <time>2018-08-15T08:29:36.249Z</time>
      </trkpt>
      <trkpt lat="45.47683" lon="4.68838">
        <ele>599</ele>
        <time>2018-08-15T08:29:37.273Z</time>
      </trkpt>
      <trkpt lat="45.47683" lon="4.68838">
        <ele>599</ele>
        <time>2018-08-15T08:29:38.261Z</time>
      </trkpt>
      <trkpt lat="45.47685" lon="4.68845">
        <ele>599</ele>
        <time>2018-08-15T08:29:39.273Z</time>
      </trkpt>
      <trkpt lat="45.47685" lon="4.68845">
        <ele>599</ele>
        <time>2018-08-15T08:29:40.239Z</time>
      </trkpt>
      <trkpt lat="45.47686" lon="4.68854">
        <ele>600</ele>
        <time>2018-08-15T08:29:41.247Z</time>
      </trkpt>
      <trkpt lat="45.47686" lon="4.68854">
        <ele>600</ele>
        <time>2018-08-15T08:29:42.249Z</time>
      </trkpt>
      <trkpt lat="45.47686" lon="4.68864">
        <ele>599</ele>
        <time>2018-08-15T08:29:43.262Z</time>
      </trkpt>
      <trkpt lat="45.47687" lon="4.6887">
        <ele>599</ele>
        <time>2018-08-15T08:29:44.248Z</time>
      </trkpt>
      <trkpt lat="45.47687" lon="4.68875">
        <ele>599</ele>
        <time>2018-08-15T08:29:45.244Z</time>
      </trkpt>
      <trkpt lat="45.47687" lon="4.68875">
        <ele>599</ele>
        <time>2018-08-15T08:29:46.236Z</time>
      </trkpt>
      <trkpt lat="45.47686" lon="4.68889">
        <ele>599</ele>
        <time>2018-08-15T08:29:47.243Z</time>
      </trkpt>
      <trkpt lat="45.47686" lon="4.68889">
        <ele>599</ele>
        <time>2018-08-15T08:29:48.265Z</time>
      </trkpt>
      <trkpt lat="45.47682" lon="4.68905">
        <ele>598</ele>
        <time>2018-08-15T08:29:49.233Z</time>
      </trkpt>
      <trkpt lat="45.47682" lon="4.68905">
        <ele>598</ele>
        <time>2018-08-15T08:29:50.254Z</time>
      </trkpt>
      <trkpt lat="45.47674" lon="4.68925">
        <ele>598</ele>
        <time>2018-08-15T08:29:51.270Z</time>
      </trkpt>
      <trkpt lat="45.47674" lon="4.68925">
        <ele>598</ele>
        <time>2018-08-15T08:29:52.237Z</time>
      </trkpt>
      <trkpt lat="45.47665" lon="4.68946">
        <ele>597</ele>
        <time>2018-08-15T08:29:53.254Z</time>
      </trkpt>
      <trkpt lat="45.47665" lon="4.68946">
        <ele>597</ele>
        <time>2018-08-15T08:29:54.238Z</time>
      </trkpt>
      <trkpt lat="45.47659" lon="4.68967">
        <ele>596</ele>
        <time>2018-08-15T08:29:55.245Z</time>
      </trkpt>
      <trkpt lat="45.47659" lon="4.68967">
        <ele>596</ele>
        <time>2018-08-15T08:29:56.252Z</time>
      </trkpt>
      <trkpt lat="45.47659" lon="4.68967">
        <ele>596</ele>
        <time>2018-08-15T08:29:57.312Z</time>
      </trkpt>
      <trkpt lat="45.47659" lon="4.68989">
        <ele>596</ele>
        <time>2018-08-15T08:29:58.239Z</time>
      </trkpt>
      <trkpt lat="45.47662" lon="4.69004">
        <ele>595</ele>
        <time>2018-08-15T08:29:59.258Z</time>
      </trkpt>
      <trkpt lat="45.47662" lon="4.69004">
        <ele>595</ele>
        <time>2018-08-15T08:30:00.249Z</time>
      </trkpt>
      <trkpt lat="45.47664" lon="4.69012">
        <ele>595</ele>
        <time>2018-08-15T08:30:01.256Z</time>
      </trkpt>
      <trkpt lat="45.47666" lon="4.69016">
        <ele>595</ele>
        <time>2018-08-15T08:30:02.269Z</time>
      </trkpt>
      <trkpt lat="45.47667" lon="4.69019">
        <ele>594</ele>
        <time>2018-08-15T08:30:03.263Z</time>
      </trkpt>
      <trkpt lat="45.47667" lon="4.69019">
        <ele>594</ele>
        <time>2018-08-15T08:30:04.235Z</time>
      </trkpt>
      <trkpt lat="45.47669" lon="4.69023">
        <ele>594</ele>
        <time>2018-08-15T08:30:05.248Z</time>
      </trkpt>
      <trkpt lat="45.47669" lon="4.69023">
        <ele>594</ele>
        <time>2018-08-15T08:30:06.249Z</time>
      </trkpt>
      <trkpt lat="45.47671" lon="4.69025">
        <ele>594</ele>
        <time>2018-08-15T08:30:07.255Z</time>
      </trkpt>
      <trkpt lat="45.47671" lon="4.69025">
        <ele>594</ele>
        <time>2018-08-15T08:30:08.270Z</time>
      </trkpt>
      <trkpt lat="45.47674" lon="4.69027">
        <ele>594</ele>
        <time>2018-08-15T08:30:09.236Z</time>
      </trkpt>
      <trkpt lat="45.47674" lon="4.69027">
        <ele>594</ele>
        <time>2018-08-15T08:30:10.242Z</time>
      </trkpt>
      <trkpt lat="45.47677" lon="4.6903">
        <ele>593</ele>
        <time>2018-08-15T08:30:11.261Z</time>
      </trkpt>
      <trkpt lat="45.47677" lon="4.6903">
        <ele>593</ele>
        <time>2018-08-15T08:30:12.258Z</time>
      </trkpt>
      <trkpt lat="45.47681" lon="4.69035">
        <ele>593</ele>
        <time>2018-08-15T08:30:13.269Z</time>
      </trkpt>
      <trkpt lat="45.47681" lon="4.69035">
        <ele>593</ele>
        <time>2018-08-15T08:30:14.238Z</time>
      </trkpt>
      <trkpt lat="45.47683" lon="4.69039">
        <ele>594</ele>
        <time>2018-08-15T08:30:15.248Z</time>
      </trkpt>
      <trkpt lat="45.47683" lon="4.69039">
        <ele>594</ele>
        <time>2018-08-15T08:30:16.245Z</time>
      </trkpt>
      <trkpt lat="45.47685" lon="4.69043">
        <ele>594</ele>
        <time>2018-08-15T08:30:17.253Z</time>
      </trkpt>
      <trkpt lat="45.47685" lon="4.69043">
        <ele>594</ele>
        <time>2018-08-15T08:30:18.259Z</time>
      </trkpt>
      <trkpt lat="45.47687" lon="4.69047">
        <ele>594</ele>
        <time>2018-08-15T08:30:19.232Z</time>
      </trkpt>
      <trkpt lat="45.47687" lon="4.69047">
        <ele>594</ele>
        <time>2018-08-15T08:30:20.241Z</time>
      </trkpt>
      <trkpt lat="45.4769" lon="4.69051">
        <ele>594</ele>
        <time>2018-08-15T08:30:21.259Z</time>
      </trkpt>
      <trkpt lat="45.4769" lon="4.69051">
        <ele>594</ele>
        <time>2018-08-15T08:30:22.239Z</time>
      </trkpt>
      <trkpt lat="45.47694" lon="4.69055">
        <ele>595</ele>
        <time>2018-08-15T08:30:23.260Z</time>
      </trkpt>
      <trkpt lat="45.47694" lon="4.69055">
        <ele>595</ele>
        <time>2018-08-15T08:30:24.255Z</time>
      </trkpt>
      <trkpt lat="45.47696" lon="4.69059">
        <ele>595</ele>
        <time>2018-08-15T08:30:25.264Z</time>
      </trkpt>
      <trkpt lat="45.47696" lon="4.69059">
        <ele>595</ele>
        <time>2018-08-15T08:30:26.253Z</time>
      </trkpt>
      <trkpt lat="45.47696" lon="4.69059">
        <ele>595</ele>
        <time>2018-08-15T08:30:27.309Z</time>
      </trkpt>
      <trkpt lat="45.47698" lon="4.69064">
        <ele>596</ele>
        <time>2018-08-15T08:30:28.259Z</time>
      </trkpt>
      <trkpt lat="45.477" lon="4.69069">
        <ele>596</ele>
        <time>2018-08-15T08:30:29.267Z</time>
      </trkpt>
      <trkpt lat="45.477" lon="4.69069">
        <ele>596</ele>
        <time>2018-08-15T08:30:30.237Z</time>
      </trkpt>
      <trkpt lat="45.47703" lon="4.69074">
        <ele>597</ele>
        <time>2018-08-15T08:30:31.254Z</time>
      </trkpt>
      <trkpt lat="45.47703" lon="4.69074">
        <ele>597</ele>
        <time>2018-08-15T08:30:32.258Z</time>
      </trkpt>
      <trkpt lat="45.47704" lon="4.69078">
        <ele>597</ele>
        <time>2018-08-15T08:30:33.268Z</time>
      </trkpt>
      <trkpt lat="45.47704" lon="4.69078">
        <ele>597</ele>
        <time>2018-08-15T08:30:34.253Z</time>
      </trkpt>
      <trkpt lat="45.47706" lon="4.69083">
        <ele>598</ele>
        <time>2018-08-15T08:30:35.232Z</time>
      </trkpt>
      <trkpt lat="45.47706" lon="4.69083">
        <ele>598</ele>
        <time>2018-08-15T08:30:36.266Z</time>
      </trkpt>
      <trkpt lat="45.47708" lon="4.69087">
        <ele>598</ele>
        <time>2018-08-15T08:30:37.239Z</time>
      </trkpt>
      <trkpt lat="45.47708" lon="4.69087">
        <ele>598</ele>
        <time>2018-08-15T08:30:38.245Z</time>
      </trkpt>
      <trkpt lat="45.47709" lon="4.69092">
        <ele>599</ele>
        <time>2018-08-15T08:30:39.256Z</time>
      </trkpt>
      <trkpt lat="45.47709" lon="4.69092">
        <ele>599</ele>
        <time>2018-08-15T08:30:40.261Z</time>
      </trkpt>
      <trkpt lat="45.47711" lon="4.69098">
        <ele>599</ele>
        <time>2018-08-15T08:30:41.235Z</time>
      </trkpt>
      <trkpt lat="45.47711" lon="4.69098">
        <ele>599</ele>
        <time>2018-08-15T08:30:42.241Z</time>
      </trkpt>
      <trkpt lat="45.47714" lon="4.69105">
        <ele>600</ele>
        <time>2018-08-15T08:30:43.234Z</time>
      </trkpt>
      <trkpt lat="45.47714" lon="4.69105">
        <ele>600</ele>
        <time>2018-08-15T08:30:44.248Z</time>
      </trkpt>
      <trkpt lat="45.47717" lon="4.6911">
        <ele>601</ele>
        <time>2018-08-15T08:30:45.255Z</time>
      </trkpt>
      <trkpt lat="45.47717" lon="4.6911">
        <ele>601</ele>
        <time>2018-08-15T08:30:46.242Z</time>
      </trkpt>
      <trkpt lat="45.47719" lon="4.69115">
        <ele>601</ele>
        <time>2018-08-15T08:30:47.290Z</time>
      </trkpt>
      <trkpt lat="45.47719" lon="4.69115">
        <ele>601</ele>
        <time>2018-08-15T08:30:48.246Z</time>
      </trkpt>
      <trkpt lat="45.47721" lon="4.69118">
        <ele>602</ele>
        <time>2018-08-15T08:30:49.270Z</time>
      </trkpt>
      <trkpt lat="45.47721" lon="4.69118">
        <ele>602</ele>
        <time>2018-08-15T08:30:50.269Z</time>
      </trkpt>
      <trkpt lat="45.47722" lon="4.69122">
        <ele>603</ele>
        <time>2018-08-15T08:30:51.240Z</time>
      </trkpt>
      <trkpt lat="45.47722" lon="4.69122">
        <ele>603</ele>
        <time>2018-08-15T08:30:52.251Z</time>
      </trkpt>
      <trkpt lat="45.47724" lon="4.69126">
        <ele>604</ele>
        <time>2018-08-15T08:30:53.263Z</time>
      </trkpt>
      <trkpt lat="45.47724" lon="4.69126">
        <ele>604</ele>
        <time>2018-08-15T08:30:54.269Z</time>
      </trkpt>
      <trkpt lat="45.47725" lon="4.69131">
        <ele>604</ele>
        <time>2018-08-15T08:30:55.237Z</time>
      </trkpt>
      <trkpt lat="45.47725" lon="4.69131">
        <ele>604</ele>
        <time>2018-08-15T08:30:56.270Z</time>
      </trkpt>
      <trkpt lat="45.47727" lon="4.69135">
        <ele>604</ele>
        <time>2018-08-15T08:30:57.236Z</time>
      </trkpt>
      <trkpt lat="45.47727" lon="4.69135">
        <ele>604</ele>
        <time>2018-08-15T08:30:58.266Z</time>
      </trkpt>
      <trkpt lat="45.47727" lon="4.69135">
        <ele>604</ele>
        <time>2018-08-15T08:30:59.298Z</time>
      </trkpt>
      <trkpt lat="45.47728" lon="4.69139">
        <ele>605</ele>
        <time>2018-08-15T08:31:00.253Z</time>
      </trkpt>
      <trkpt lat="45.47729" lon="4.69143">
        <ele>605</ele>
        <time>2018-08-15T08:31:01.269Z</time>
      </trkpt>
      <trkpt lat="45.47729" lon="4.69146">
        <ele>606</ele>
        <time>2018-08-15T08:31:02.270Z</time>
      </trkpt>
      <trkpt lat="45.4773" lon="4.69149">
        <ele>606</ele>
        <time>2018-08-15T08:31:03.244Z</time>
      </trkpt>
      <trkpt lat="45.4773" lon="4.69149">
        <ele>606</ele>
        <time>2018-08-15T08:31:04.261Z</time>
      </trkpt>
      <trkpt lat="45.47732" lon="4.69154">
        <ele>607</ele>
        <time>2018-08-15T08:31:05.277Z</time>
      </trkpt>
      <trkpt lat="45.47732" lon="4.69154">
        <ele>607</ele>
        <time>2018-08-15T08:31:06.248Z</time>
      </trkpt>
      <trkpt lat="45.47734" lon="4.69161">
        <ele>607</ele>
        <time>2018-08-15T08:31:07.256Z</time>
      </trkpt>
      <trkpt lat="45.47735" lon="4.69164">
        <ele>608</ele>
        <time>2018-08-15T08:31:08.237Z</time>
      </trkpt>
      <trkpt lat="45.47735" lon="4.69167">
        <ele>608</ele>
        <time>2018-08-15T08:31:09.272Z</time>
      </trkpt>
      <trkpt lat="45.47735" lon="4.69167">
        <ele>608</ele>
        <time>2018-08-15T08:31:10.236Z</time>
      </trkpt>
      <trkpt lat="45.47736" lon="4.69173">
        <ele>609</ele>
        <time>2018-08-15T08:31:11.249Z</time>
      </trkpt>
      <trkpt lat="45.47736" lon="4.69173">
        <ele>609</ele>
        <time>2018-08-15T08:31:12.238Z</time>
      </trkpt>
      <trkpt lat="45.47737" lon="4.6918">
        <ele>610</ele>
        <time>2018-08-15T08:31:13.250Z</time>
      </trkpt>
      <trkpt lat="45.47737" lon="4.6918">
        <ele>610</ele>
        <time>2018-08-15T08:31:14.270Z</time>
      </trkpt>
      <trkpt lat="45.4774" lon="4.69189">
        <ele>610</ele>
        <time>2018-08-15T08:31:15.265Z</time>
      </trkpt>
      <trkpt lat="45.4774" lon="4.69189">
        <ele>610</ele>
        <time>2018-08-15T08:31:16.264Z</time>
      </trkpt>
      <trkpt lat="45.47741" lon="4.69197">
        <ele>611</ele>
        <time>2018-08-15T08:31:17.243Z</time>
      </trkpt>
      <trkpt lat="45.47742" lon="4.69201">
        <ele>612</ele>
        <time>2018-08-15T08:31:18.271Z</time>
      </trkpt>
      <trkpt lat="45.47742" lon="4.69201">
        <ele>612</ele>
        <time>2018-08-15T08:31:19.269Z</time>
      </trkpt>
      <trkpt lat="45.47743" lon="4.69209">
        <ele>613</ele>
        <time>2018-08-15T08:31:20.284Z</time>
      </trkpt>
      <trkpt lat="45.47744" lon="4.69213">
        <ele>614</ele>
        <time>2018-08-15T08:31:21.272Z</time>
      </trkpt>
      <trkpt lat="45.47744" lon="4.69213">
        <ele>614</ele>
        <time>2018-08-15T08:31:22.244Z</time>
      </trkpt>
      <trkpt lat="45.47744" lon="4.6922">
        <ele>615</ele>
        <time>2018-08-15T08:31:23.255Z</time>
      </trkpt>
      <trkpt lat="45.47744" lon="4.6922">
        <ele>615</ele>
        <time>2018-08-15T08:31:24.235Z</time>
      </trkpt>
      <trkpt lat="45.47745" lon="4.69227">
        <ele>616</ele>
        <time>2018-08-15T08:31:25.247Z</time>
      </trkpt>
      <trkpt lat="45.47746" lon="4.6923">
        <ele>616</ele>
        <time>2018-08-15T08:31:26.232Z</time>
      </trkpt>
      <trkpt lat="45.47746" lon="4.69234">
        <ele>617</ele>
        <time>2018-08-15T08:31:27.244Z</time>
      </trkpt>
      <trkpt lat="45.47746" lon="4.69234">
        <ele>617</ele>
        <time>2018-08-15T08:31:28.246Z</time>
      </trkpt>
      <trkpt lat="45.47747" lon="4.69242">
        <ele>618</ele>
        <time>2018-08-15T08:31:29.256Z</time>
      </trkpt>
      <trkpt lat="45.47747" lon="4.69242">
        <ele>618</ele>
        <time>2018-08-15T08:31:30.269Z</time>
      </trkpt>
      <trkpt lat="45.47748" lon="4.69249">
        <ele>620</ele>
        <time>2018-08-15T08:31:31.236Z</time>
      </trkpt>
      <trkpt lat="45.47748" lon="4.69249">
        <ele>620</ele>
        <time>2018-08-15T08:31:32.248Z</time>
      </trkpt>
      <trkpt lat="45.47749" lon="4.69254">
        <ele>621</ele>
        <time>2018-08-15T08:31:33.261Z</time>
      </trkpt>
      <trkpt lat="45.47749" lon="4.69254">
        <ele>621</ele>
        <time>2018-08-15T08:31:34.250Z</time>
      </trkpt>
      <trkpt lat="45.47749" lon="4.69259">
        <ele>622</ele>
        <time>2018-08-15T08:31:35.257Z</time>
      </trkpt>
      <trkpt lat="45.47749" lon="4.69259">
        <ele>622</ele>
        <time>2018-08-15T08:31:36.259Z</time>
      </trkpt>
      <trkpt lat="45.47749" lon="4.69264">
        <ele>623</ele>
        <time>2018-08-15T08:31:37.241Z</time>
      </trkpt>
      <trkpt lat="45.47749" lon="4.69267">
        <ele>624</ele>
        <time>2018-08-15T08:31:38.287Z</time>
      </trkpt>
      <trkpt lat="45.47749" lon="4.6927">
        <ele>624</ele>
        <time>2018-08-15T08:31:39.238Z</time>
      </trkpt>
      <trkpt lat="45.47749" lon="4.6927">
        <ele>624</ele>
        <time>2018-08-15T08:31:40.235Z</time>
      </trkpt>
      <trkpt lat="45.4775" lon="4.69277">
        <ele>626</ele>
        <time>2018-08-15T08:31:41.243Z</time>
      </trkpt>
      <trkpt lat="45.4775" lon="4.69277">
        <ele>626</ele>
        <time>2018-08-15T08:31:42.254Z</time>
      </trkpt>
      <trkpt lat="45.4775" lon="4.69283">
        <ele>627</ele>
        <time>2018-08-15T08:31:43.263Z</time>
      </trkpt>
      <trkpt lat="45.4775" lon="4.69283">
        <ele>627</ele>
        <time>2018-08-15T08:31:44.255Z</time>
      </trkpt>
      <trkpt lat="45.47751" lon="4.69291">
        <ele>628</ele>
        <time>2018-08-15T08:31:45.264Z</time>
      </trkpt>
      <trkpt lat="45.47751" lon="4.69291">
        <ele>628</ele>
        <time>2018-08-15T08:31:46.259Z</time>
      </trkpt>
      <trkpt lat="45.47751" lon="4.69297">
        <ele>629</ele>
        <time>2018-08-15T08:31:47.235Z</time>
      </trkpt>
      <trkpt lat="45.47751" lon="4.69297">
        <ele>629</ele>
        <time>2018-08-15T08:31:48.252Z</time>
      </trkpt>
      <trkpt lat="45.47751" lon="4.69303">
        <ele>630</ele>
        <time>2018-08-15T08:31:49.265Z</time>
      </trkpt>
      <trkpt lat="45.47751" lon="4.69303">
        <ele>630</ele>
        <time>2018-08-15T08:31:50.251Z</time>
      </trkpt>
      <trkpt lat="45.4775" lon="4.69308">
        <ele>632</ele>
        <time>2018-08-15T08:31:51.258Z</time>
      </trkpt>
      <trkpt lat="45.4775" lon="4.69308">
        <ele>632</ele>
        <time>2018-08-15T08:31:52.258Z</time>
      </trkpt>
      <trkpt lat="45.4775" lon="4.69313">
        <ele>633</ele>
        <time>2018-08-15T08:31:53.239Z</time>
      </trkpt>
      <trkpt lat="45.4775" lon="4.69317">
        <ele>633</ele>
        <time>2018-08-15T08:31:54.232Z</time>
      </trkpt>
      <trkpt lat="45.4775" lon="4.69317">
        <ele>633</ele>
        <time>2018-08-15T08:31:55.250Z</time>
      </trkpt>
      <trkpt lat="45.4775" lon="4.69317">
        <ele>633</ele>
        <time>2018-08-15T08:31:56.299Z</time>
      </trkpt>
      <trkpt lat="45.47749" lon="4.69329">
        <ele>634</ele>
        <time>2018-08-15T08:31:57.251Z</time>
      </trkpt>
      <trkpt lat="45.47749" lon="4.69329">
        <ele>634</ele>
        <time>2018-08-15T08:31:58.235Z</time>
      </trkpt>
      <trkpt lat="45.47749" lon="4.69338">
        <ele>635</ele>
        <time>2018-08-15T08:31:59.243Z</time>
      </trkpt>
      <trkpt lat="45.47749" lon="4.69338">
        <ele>635</ele>
        <time>2018-08-15T08:32:00.254Z</time>
      </trkpt>
      <trkpt lat="45.47749" lon="4.69347">
        <ele>636</ele>
        <time>2018-08-15T08:32:01.253Z</time>
      </trkpt>
      <trkpt lat="45.47749" lon="4.69347">
        <ele>636</ele>
        <time>2018-08-15T08:32:02.239Z</time>
      </trkpt>
      <trkpt lat="45.47747" lon="4.69355">
        <ele>637</ele>
        <time>2018-08-15T08:32:03.258Z</time>
      </trkpt>
      <trkpt lat="45.47747" lon="4.69355">
        <ele>637</ele>
        <time>2018-08-15T08:32:04.255Z</time>
      </trkpt>
      <trkpt lat="45.47747" lon="4.69365">
        <ele>637</ele>
        <time>2018-08-15T08:32:05.268Z</time>
      </trkpt>
      <trkpt lat="45.47747" lon="4.69365">
        <ele>637</ele>
        <time>2018-08-15T08:32:06.244Z</time>
      </trkpt>
      <trkpt lat="45.47745" lon="4.69374">
        <ele>638</ele>
        <time>2018-08-15T08:32:07.255Z</time>
      </trkpt>
      <trkpt lat="45.47745" lon="4.69374">
        <ele>638</ele>
        <time>2018-08-15T08:32:08.268Z</time>
      </trkpt>
      <trkpt lat="45.47745" lon="4.69383">
        <ele>638</ele>
        <time>2018-08-15T08:32:09.240Z</time>
      </trkpt>
      <trkpt lat="45.47745" lon="4.69383">
        <ele>638</ele>
        <time>2018-08-15T08:32:10.269Z</time>
      </trkpt>
      <trkpt lat="45.47743" lon="4.69392">
        <ele>638</ele>
        <time>2018-08-15T08:32:11.238Z</time>
      </trkpt>
      <trkpt lat="45.47743" lon="4.69392">
        <ele>638</ele>
        <time>2018-08-15T08:32:12.257Z</time>
      </trkpt>
      <trkpt lat="45.47741" lon="4.694">
        <ele>638</ele>
        <time>2018-08-15T08:32:13.265Z</time>
      </trkpt>
      <trkpt lat="45.47741" lon="4.694">
        <ele>638</ele>
        <time>2018-08-15T08:32:14.237Z</time>
      </trkpt>
      <trkpt lat="45.47739" lon="4.69407">
        <ele>638</ele>
        <time>2018-08-15T08:32:15.251Z</time>
      </trkpt>
      <trkpt lat="45.47739" lon="4.69407">
        <ele>638</ele>
        <time>2018-08-15T08:32:16.240Z</time>
      </trkpt>
      <trkpt lat="45.47738" lon="4.69417">
        <ele>638</ele>
        <time>2018-08-15T08:32:17.252Z</time>
      </trkpt>
      <trkpt lat="45.47738" lon="4.69417">
        <ele>638</ele>
        <time>2018-08-15T08:32:18.269Z</time>
      </trkpt>
      <trkpt lat="45.47736" lon="4.69424">
        <ele>638</ele>
        <time>2018-08-15T08:32:19.235Z</time>
      </trkpt>
      <trkpt lat="45.47736" lon="4.69424">
        <ele>638</ele>
        <time>2018-08-15T08:32:20.248Z</time>
      </trkpt>
      <trkpt lat="45.47733" lon="4.6943">
        <ele>638</ele>
        <time>2018-08-15T08:32:21.257Z</time>
      </trkpt>
      <trkpt lat="45.47733" lon="4.6943">
        <ele>638</ele>
        <time>2018-08-15T08:32:22.244Z</time>
      </trkpt>
      <trkpt lat="45.47729" lon="4.69436">
        <ele>638</ele>
        <time>2018-08-15T08:32:23.254Z</time>
      </trkpt>
      <trkpt lat="45.47729" lon="4.69436">
        <ele>638</ele>
        <time>2018-08-15T08:32:24.254Z</time>
      </trkpt>
      <trkpt lat="45.47725" lon="4.69442">
        <ele>639</ele>
        <time>2018-08-15T08:32:25.263Z</time>
      </trkpt>
      <trkpt lat="45.47725" lon="4.69442">
        <ele>639</ele>
        <time>2018-08-15T08:32:26.268Z</time>
      </trkpt>
      <trkpt lat="45.47721" lon="4.69445">
        <ele>639</ele>
        <time>2018-08-15T08:32:27.258Z</time>
      </trkpt>
      <trkpt lat="45.47721" lon="4.69445">
        <ele>639</ele>
        <time>2018-08-15T08:32:28.259Z</time>
      </trkpt>
      <trkpt lat="45.47717" lon="4.69449">
        <ele>638</ele>
        <time>2018-08-15T08:32:29.268Z</time>
      </trkpt>
      <trkpt lat="45.47717" lon="4.69449">
        <ele>638</ele>
        <time>2018-08-15T08:32:30.255Z</time>
      </trkpt>
      <trkpt lat="45.47712" lon="4.69454">
        <ele>638</ele>
        <time>2018-08-15T08:32:31.255Z</time>
      </trkpt>
      <trkpt lat="45.47712" lon="4.69454">
        <ele>638</ele>
        <time>2018-08-15T08:32:32.258Z</time>
      </trkpt>
      <trkpt lat="45.47708" lon="4.69457">
        <ele>639</ele>
        <time>2018-08-15T08:32:33.235Z</time>
      </trkpt>
      <trkpt lat="45.47708" lon="4.69457">
        <ele>639</ele>
        <time>2018-08-15T08:32:34.253Z</time>
      </trkpt>
      <trkpt lat="45.47704" lon="4.69461">
        <ele>639</ele>
        <time>2018-08-15T08:32:35.233Z</time>
      </trkpt>
      <trkpt lat="45.47704" lon="4.69461">
        <ele>639</ele>
        <time>2018-08-15T08:32:36.254Z</time>
      </trkpt>
      <trkpt lat="45.477" lon="4.69465">
        <ele>639</ele>
        <time>2018-08-15T08:32:37.241Z</time>
      </trkpt>
      <trkpt lat="45.477" lon="4.69465">
        <ele>639</ele>
        <time>2018-08-15T08:32:38.257Z</time>
      </trkpt>
      <trkpt lat="45.47697" lon="4.69468">
        <ele>639</ele>
        <time>2018-08-15T08:32:39.232Z</time>
      </trkpt>
      <trkpt lat="45.47697" lon="4.69468">
        <ele>639</ele>
        <time>2018-08-15T08:32:40.250Z</time>
      </trkpt>
      <trkpt lat="45.47694" lon="4.69471">
        <ele>640</ele>
        <time>2018-08-15T08:32:41.259Z</time>
      </trkpt>
      <trkpt lat="45.47694" lon="4.69471">
        <ele>640</ele>
        <time>2018-08-15T08:32:42.250Z</time>
      </trkpt>
      <trkpt lat="45.4769" lon="4.69474">
        <ele>640</ele>
        <time>2018-08-15T08:32:43.258Z</time>
      </trkpt>
      <trkpt lat="45.4769" lon="4.69474">
        <ele>640</ele>
        <time>2018-08-15T08:32:44.249Z</time>
      </trkpt>
      <trkpt lat="45.47684" lon="4.69478">
        <ele>640</ele>
        <time>2018-08-15T08:32:45.261Z</time>
      </trkpt>
      <trkpt lat="45.47684" lon="4.69478">
        <ele>640</ele>
        <time>2018-08-15T08:32:46.259Z</time>
      </trkpt>
      <trkpt lat="45.47677" lon="4.69486">
        <ele>640</ele>
        <time>2018-08-15T08:32:47.238Z</time>
      </trkpt>
      <trkpt lat="45.47677" lon="4.69486">
        <ele>640</ele>
        <time>2018-08-15T08:32:48.260Z</time>
      </trkpt>
      <trkpt lat="45.4767" lon="4.69495">
        <ele>639</ele>
        <time>2018-08-15T08:32:49.269Z</time>
      </trkpt>
      <trkpt lat="45.4767" lon="4.69495">
        <ele>639</ele>
        <time>2018-08-15T08:32:50.265Z</time>
      </trkpt>
      <trkpt lat="45.47665" lon="4.69503">
        <ele>639</ele>
        <time>2018-08-15T08:32:51.233Z</time>
      </trkpt>
      <trkpt lat="45.47665" lon="4.69503">
        <ele>639</ele>
        <time>2018-08-15T08:32:52.271Z</time>
      </trkpt>
      <trkpt lat="45.47661" lon="4.69512">
        <ele>638</ele>
        <time>2018-08-15T08:32:53.239Z</time>
      </trkpt>
      <trkpt lat="45.47661" lon="4.69512">
        <ele>638</ele>
        <time>2018-08-15T08:32:54.239Z</time>
      </trkpt>
      <trkpt lat="45.47657" lon="4.69521">
        <ele>637</ele>
        <time>2018-08-15T08:32:55.249Z</time>
      </trkpt>
      <trkpt lat="45.47657" lon="4.69521">
        <ele>637</ele>
        <time>2018-08-15T08:32:56.238Z</time>
      </trkpt>
      <trkpt lat="45.47653" lon="4.6953">
        <ele>637</ele>
        <time>2018-08-15T08:32:57.252Z</time>
      </trkpt>
      <trkpt lat="45.47653" lon="4.6953">
        <ele>637</ele>
        <time>2018-08-15T08:32:58.246Z</time>
      </trkpt>
      <trkpt lat="45.4765" lon="4.6954">
        <ele>635</ele>
        <time>2018-08-15T08:32:59.302Z</time>
      </trkpt>
      <trkpt lat="45.4765" lon="4.6954">
        <ele>635</ele>
        <time>2018-08-15T08:33:00.244Z</time>
      </trkpt>
      <trkpt lat="45.47647" lon="4.69549">
        <ele>635</ele>
        <time>2018-08-15T08:33:01.256Z</time>
      </trkpt>
      <trkpt lat="45.47647" lon="4.69549">
        <ele>635</ele>
        <time>2018-08-15T08:33:02.261Z</time>
      </trkpt>
      <trkpt lat="45.47644" lon="4.69558">
        <ele>634</ele>
        <time>2018-08-15T08:33:03.238Z</time>
      </trkpt>
      <trkpt lat="45.47644" lon="4.69558">
        <ele>634</ele>
        <time>2018-08-15T08:33:04.256Z</time>
      </trkpt>
      <trkpt lat="45.47642" lon="4.69566">
        <ele>632</ele>
        <time>2018-08-15T08:33:05.274Z</time>
      </trkpt>
      <trkpt lat="45.47642" lon="4.69566">
        <ele>632</ele>
        <time>2018-08-15T08:33:06.233Z</time>
      </trkpt>
      <trkpt lat="45.4764" lon="4.69574">
        <ele>631</ele>
        <time>2018-08-15T08:33:07.243Z</time>
      </trkpt>
      <trkpt lat="45.47639" lon="4.69579">
        <ele>631</ele>
        <time>2018-08-15T08:33:08.261Z</time>
      </trkpt>
      <trkpt lat="45.47638" lon="4.69583">
        <ele>631</ele>
        <time>2018-08-15T08:33:09.254Z</time>
      </trkpt>
      <trkpt lat="45.47638" lon="4.69583">
        <ele>631</ele>
        <time>2018-08-15T08:33:10.233Z</time>
      </trkpt>
      <trkpt lat="45.47637" lon="4.69591">
        <ele>630</ele>
        <time>2018-08-15T08:33:11.239Z</time>
      </trkpt>
      <trkpt lat="45.47637" lon="4.69591">
        <ele>630</ele>
        <time>2018-08-15T08:33:12.237Z</time>
      </trkpt>
      <trkpt lat="45.47636" lon="4.69599">
        <ele>629</ele>
        <time>2018-08-15T08:33:13.253Z</time>
      </trkpt>
      <trkpt lat="45.47636" lon="4.69599">
        <ele>629</ele>
        <time>2018-08-15T08:33:14.264Z</time>
      </trkpt>
      <trkpt lat="45.47634" lon="4.69607">
        <ele>629</ele>
        <time>2018-08-15T08:33:15.232Z</time>
      </trkpt>
      <trkpt lat="45.47634" lon="4.69607">
        <ele>629</ele>
        <time>2018-08-15T08:33:16.269Z</time>
      </trkpt>
      <trkpt lat="45.47634" lon="4.69615">
        <ele>628</ele>
        <time>2018-08-15T08:33:17.238Z</time>
      </trkpt>
      <trkpt lat="45.47633" lon="4.6962">
        <ele>628</ele>
        <time>2018-08-15T08:33:18.271Z</time>
      </trkpt>
      <trkpt lat="45.47633" lon="4.6962">
        <ele>628</ele>
        <time>2018-08-15T08:33:19.259Z</time>
      </trkpt>
      <trkpt lat="45.47632" lon="4.69627">
        <ele>628</ele>
        <time>2018-08-15T08:33:20.266Z</time>
      </trkpt>
      <trkpt lat="45.47631" lon="4.69631">
        <ele>628</ele>
        <time>2018-08-15T08:33:21.261Z</time>
      </trkpt>
      <trkpt lat="45.47631" lon="4.69631">
        <ele>628</ele>
        <time>2018-08-15T08:33:22.269Z</time>
      </trkpt>
      <trkpt lat="45.47631" lon="4.6964">
        <ele>628</ele>
        <time>2018-08-15T08:33:23.237Z</time>
      </trkpt>
      <trkpt lat="45.47631" lon="4.6964">
        <ele>628</ele>
        <time>2018-08-15T08:33:24.244Z</time>
      </trkpt>
      <trkpt lat="45.4763" lon="4.69648">
        <ele>627</ele>
        <time>2018-08-15T08:33:25.265Z</time>
      </trkpt>
      <trkpt lat="45.47629" lon="4.69652">
        <ele>627</ele>
        <time>2018-08-15T08:33:26.259Z</time>
      </trkpt>
      <trkpt lat="45.47629" lon="4.69652">
        <ele>627</ele>
        <time>2018-08-15T08:33:27.271Z</time>
      </trkpt>
      <trkpt lat="45.47629" lon="4.6966">
        <ele>627</ele>
        <time>2018-08-15T08:33:28.237Z</time>
      </trkpt>
      <trkpt lat="45.47629" lon="4.6966">
        <ele>627</ele>
        <time>2018-08-15T08:33:29.269Z</time>
      </trkpt>
      <trkpt lat="45.47628" lon="4.69668">
        <ele>627</ele>
        <time>2018-08-15T08:33:30.241Z</time>
      </trkpt>
      <trkpt lat="45.47628" lon="4.69668">
        <ele>627</ele>
        <time>2018-08-15T08:33:31.263Z</time>
      </trkpt>
      <trkpt lat="45.47628" lon="4.69675">
        <ele>626</ele>
        <time>2018-08-15T08:33:32.232Z</time>
      </trkpt>
      <trkpt lat="45.47628" lon="4.6968">
        <ele>626</ele>
        <time>2018-08-15T08:33:33.235Z</time>
      </trkpt>
      <trkpt lat="45.47628" lon="4.6968">
        <ele>626</ele>
        <time>2018-08-15T08:33:34.269Z</time>
      </trkpt>
      <trkpt lat="45.47631" lon="4.69689">
        <ele>625</ele>
        <time>2018-08-15T08:33:35.304Z</time>
      </trkpt>
      <trkpt lat="45.47631" lon="4.69689">
        <ele>625</ele>
        <time>2018-08-15T08:33:36.247Z</time>
      </trkpt>
      <trkpt lat="45.47636" lon="4.69699">
        <ele>625</ele>
        <time>2018-08-15T08:33:37.259Z</time>
      </trkpt>
      <trkpt lat="45.4764" lon="4.69703">
        <ele>625</ele>
        <time>2018-08-15T08:33:38.267Z</time>
      </trkpt>
      <trkpt lat="45.4764" lon="4.69703">
        <ele>625</ele>
        <time>2018-08-15T08:33:39.256Z</time>
      </trkpt>
      <trkpt lat="45.47647" lon="4.69712">
        <ele>625</ele>
        <time>2018-08-15T08:33:40.278Z</time>
      </trkpt>
      <trkpt lat="45.47647" lon="4.69712">
        <ele>625</ele>
        <time>2018-08-15T08:33:41.263Z</time>
      </trkpt>
      <trkpt lat="45.47655" lon="4.69719">
        <ele>626</ele>
        <time>2018-08-15T08:33:42.248Z</time>
      </trkpt>
      <trkpt lat="45.47659" lon="4.69722">
        <ele>625</ele>
        <time>2018-08-15T08:33:43.251Z</time>
      </trkpt>
      <trkpt lat="45.47659" lon="4.69722">
        <ele>625</ele>
        <time>2018-08-15T08:33:44.245Z</time>
      </trkpt>
      <trkpt lat="45.47667" lon="4.69725">
        <ele>626</ele>
        <time>2018-08-15T08:33:45.254Z</time>
      </trkpt>
      <trkpt lat="45.47667" lon="4.69725">
        <ele>626</ele>
        <time>2018-08-15T08:33:46.269Z</time>
      </trkpt>
      <trkpt lat="45.47676" lon="4.69726">
        <ele>626</ele>
        <time>2018-08-15T08:33:47.238Z</time>
      </trkpt>
      <trkpt lat="45.47676" lon="4.69726">
        <ele>626</ele>
        <time>2018-08-15T08:33:48.265Z</time>
      </trkpt>
      <trkpt lat="45.47684" lon="4.69725">
        <ele>626</ele>
        <time>2018-08-15T08:33:49.237Z</time>
      </trkpt>
      <trkpt lat="45.47684" lon="4.69725">
        <ele>626</ele>
        <time>2018-08-15T08:33:50.235Z</time>
      </trkpt>
      <trkpt lat="45.47692" lon="4.69723">
        <ele>626</ele>
        <time>2018-08-15T08:33:51.256Z</time>
      </trkpt>
      <trkpt lat="45.47692" lon="4.69723">
        <ele>626</ele>
        <time>2018-08-15T08:33:52.259Z</time>
      </trkpt>
      <trkpt lat="45.477" lon="4.69721">
        <ele>626</ele>
        <time>2018-08-15T08:33:53.267Z</time>
      </trkpt>
      <trkpt lat="45.477" lon="4.69721">
        <ele>626</ele>
        <time>2018-08-15T08:33:54.240Z</time>
      </trkpt>
      <trkpt lat="45.47707" lon="4.69718">
        <ele>625</ele>
        <time>2018-08-15T08:33:55.247Z</time>
      </trkpt>
      <trkpt lat="45.47707" lon="4.69718">
        <ele>625</ele>
        <time>2018-08-15T08:33:56.248Z</time>
      </trkpt>
      <trkpt lat="45.47715" lon="4.69716">
        <ele>625</ele>
        <time>2018-08-15T08:33:57.258Z</time>
      </trkpt>
      <trkpt lat="45.47715" lon="4.69716">
        <ele>625</ele>
        <time>2018-08-15T08:33:58.249Z</time>
      </trkpt>
      <trkpt lat="45.47723" lon="4.69715">
        <ele>625</ele>
        <time>2018-08-15T08:33:59.261Z</time>
      </trkpt>
      <trkpt lat="45.47723" lon="4.69715">
        <ele>625</ele>
        <time>2018-08-15T08:34:00.249Z</time>
      </trkpt>
      <trkpt lat="45.47731" lon="4.69714">
        <ele>624</ele>
        <time>2018-08-15T08:34:01.258Z</time>
      </trkpt>
      <trkpt lat="45.47731" lon="4.69714">
        <ele>624</ele>
        <time>2018-08-15T08:34:02.263Z</time>
      </trkpt>
      <trkpt lat="45.4774" lon="4.69714">
        <ele>625</ele>
        <time>2018-08-15T08:34:03.270Z</time>
      </trkpt>
      <trkpt lat="45.4774" lon="4.69714">
        <ele>625</ele>
        <time>2018-08-15T08:34:04.260Z</time>
      </trkpt>
      <trkpt lat="45.47749" lon="4.69714">
        <ele>625</ele>
        <time>2018-08-15T08:34:05.270Z</time>
      </trkpt>
      <trkpt lat="45.47749" lon="4.69714">
        <ele>625</ele>
        <time>2018-08-15T08:34:06.250Z</time>
      </trkpt>
      <trkpt lat="45.47758" lon="4.69714">
        <ele>625</ele>
        <time>2018-08-15T08:34:07.265Z</time>
      </trkpt>
      <trkpt lat="45.47758" lon="4.69714">
        <ele>625</ele>
        <time>2018-08-15T08:34:08.257Z</time>
      </trkpt>
      <trkpt lat="45.47767" lon="4.69714">
        <ele>625</ele>
        <time>2018-08-15T08:34:09.269Z</time>
      </trkpt>
      <trkpt lat="45.47767" lon="4.69714">
        <ele>625</ele>
        <time>2018-08-15T08:34:10.244Z</time>
      </trkpt>
      <trkpt lat="45.47776" lon="4.69715">
        <ele>625</ele>
        <time>2018-08-15T08:34:11.262Z</time>
      </trkpt>
      <trkpt lat="45.47776" lon="4.69715">
        <ele>625</ele>
        <time>2018-08-15T08:34:12.240Z</time>
      </trkpt>
      <trkpt lat="45.47786" lon="4.69715">
        <ele>626</ele>
        <time>2018-08-15T08:34:13.248Z</time>
      </trkpt>
      <trkpt lat="45.4779" lon="4.69716">
        <ele>626</ele>
        <time>2018-08-15T08:34:14.266Z</time>
      </trkpt>
      <trkpt lat="45.47795" lon="4.69716">
        <ele>626</ele>
        <time>2018-08-15T08:34:15.249Z</time>
      </trkpt>
      <trkpt lat="45.47795" lon="4.69716">
        <ele>626</ele>
        <time>2018-08-15T08:34:16.249Z</time>
      </trkpt>
      <trkpt lat="45.47805" lon="4.69717">
        <ele>626</ele>
        <time>2018-08-15T08:34:17.258Z</time>
      </trkpt>
      <trkpt lat="45.47805" lon="4.69717">
        <ele>626</ele>
        <time>2018-08-15T08:34:18.247Z</time>
      </trkpt>
      <trkpt lat="45.47815" lon="4.69718">
        <ele>625</ele>
        <time>2018-08-15T08:34:19.256Z</time>
      </trkpt>
      <trkpt lat="45.47815" lon="4.69718">
        <ele>625</ele>
        <time>2018-08-15T08:34:20.247Z</time>
      </trkpt>
      <trkpt lat="45.47826" lon="4.69719">
        <ele>626</ele>
        <time>2018-08-15T08:34:21.257Z</time>
      </trkpt>
      <trkpt lat="45.47826" lon="4.69719">
        <ele>626</ele>
        <time>2018-08-15T08:34:22.234Z</time>
      </trkpt>
      <trkpt lat="45.47837" lon="4.69723">
        <ele>626</ele>
        <time>2018-08-15T08:34:23.247Z</time>
      </trkpt>
      <trkpt lat="45.47843" lon="4.69724">
        <ele>626</ele>
        <time>2018-08-15T08:34:24.234Z</time>
      </trkpt>
      <trkpt lat="45.47843" lon="4.69724">
        <ele>626</ele>
        <time>2018-08-15T08:34:25.248Z</time>
      </trkpt>
      <trkpt lat="45.47854" lon="4.69729">
        <ele>625</ele>
        <time>2018-08-15T08:34:26.235Z</time>
      </trkpt>
      <trkpt lat="45.47859" lon="4.69731">
        <ele>625</ele>
        <time>2018-08-15T08:34:27.251Z</time>
      </trkpt>
      <trkpt lat="45.47859" lon="4.69731">
        <ele>625</ele>
        <time>2018-08-15T08:34:28.247Z</time>
      </trkpt>
      <trkpt lat="45.47871" lon="4.69736">
        <ele>625</ele>
        <time>2018-08-15T08:34:29.258Z</time>
      </trkpt>
      <trkpt lat="45.47876" lon="4.69739">
        <ele>624</ele>
        <time>2018-08-15T08:34:30.238Z</time>
      </trkpt>
      <trkpt lat="45.47876" lon="4.69739">
        <ele>624</ele>
        <time>2018-08-15T08:34:31.236Z</time>
      </trkpt>
      <trkpt lat="45.47888" lon="4.69745">
        <ele>624</ele>
        <time>2018-08-15T08:34:32.268Z</time>
      </trkpt>
      <trkpt lat="45.47888" lon="4.69745">
        <ele>624</ele>
        <time>2018-08-15T08:34:33.257Z</time>
      </trkpt>
      <trkpt lat="45.47899" lon="4.6975">
        <ele>624</ele>
        <time>2018-08-15T08:34:34.267Z</time>
      </trkpt>
      <trkpt lat="45.47899" lon="4.6975">
        <ele>624</ele>
        <time>2018-08-15T08:34:35.252Z</time>
      </trkpt>
      <trkpt lat="45.4791" lon="4.69755">
        <ele>624</ele>
        <time>2018-08-15T08:34:36.251Z</time>
      </trkpt>
      <trkpt lat="45.4791" lon="4.69755">
        <ele>624</ele>
        <time>2018-08-15T08:34:37.240Z</time>
      </trkpt>
      <trkpt lat="45.47922" lon="4.69761">
        <ele>623</ele>
        <time>2018-08-15T08:34:38.263Z</time>
      </trkpt>
      <trkpt lat="45.47927" lon="4.69764">
        <ele>623</ele>
        <time>2018-08-15T08:34:39.259Z</time>
      </trkpt>
      <trkpt lat="45.47927" lon="4.69764">
        <ele>623</ele>
        <time>2018-08-15T08:34:40.245Z</time>
      </trkpt>
      <trkpt lat="45.47938" lon="4.6977">
        <ele>622</ele>
        <time>2018-08-15T08:34:41.255Z</time>
      </trkpt>
      <trkpt lat="45.47938" lon="4.6977">
        <ele>622</ele>
        <time>2018-08-15T08:34:42.247Z</time>
      </trkpt>
      <trkpt lat="45.47947" lon="4.69777">
        <ele>622</ele>
        <time>2018-08-15T08:34:43.258Z</time>
      </trkpt>
      <trkpt lat="45.47947" lon="4.69777">
        <ele>622</ele>
        <time>2018-08-15T08:34:44.243Z</time>
      </trkpt>
      <trkpt lat="45.47956" lon="4.69786">
        <ele>622</ele>
        <time>2018-08-15T08:34:45.245Z</time>
      </trkpt>
      <trkpt lat="45.47956" lon="4.69786">
        <ele>622</ele>
        <time>2018-08-15T08:34:46.251Z</time>
      </trkpt>
      <trkpt lat="45.47965" lon="4.69795">
        <ele>621</ele>
        <time>2018-08-15T08:34:47.264Z</time>
      </trkpt>
      <trkpt lat="45.47965" lon="4.69795">
        <ele>621</ele>
        <time>2018-08-15T08:34:48.238Z</time>
      </trkpt>
      <trkpt lat="45.47975" lon="4.69806">
        <ele>621</ele>
        <time>2018-08-15T08:34:49.252Z</time>
      </trkpt>
      <trkpt lat="45.47975" lon="4.69806">
        <ele>621</ele>
        <time>2018-08-15T08:34:50.239Z</time>
      </trkpt>
      <trkpt lat="45.47987" lon="4.69816">
        <ele>621</ele>
        <time>2018-08-15T08:34:51.271Z</time>
      </trkpt>
      <trkpt lat="45.47987" lon="4.69816">
        <ele>621</ele>
        <time>2018-08-15T08:34:52.249Z</time>
      </trkpt>
      <trkpt lat="45.47998" lon="4.69827">
        <ele>620</ele>
        <time>2018-08-15T08:34:53.257Z</time>
      </trkpt>
      <trkpt lat="45.47998" lon="4.69827">
        <ele>620</ele>
        <time>2018-08-15T08:34:54.267Z</time>
      </trkpt>
      <trkpt lat="45.48009" lon="4.69837">
        <ele>620</ele>
        <time>2018-08-15T08:34:55.237Z</time>
      </trkpt>
      <trkpt lat="45.48009" lon="4.69837">
        <ele>620</ele>
        <time>2018-08-15T08:34:56.243Z</time>
      </trkpt>
      <trkpt lat="45.48021" lon="4.69846">
        <ele>620</ele>
        <time>2018-08-15T08:34:57.252Z</time>
      </trkpt>
      <trkpt lat="45.48021" lon="4.69846">
        <ele>620</ele>
        <time>2018-08-15T08:34:58.248Z</time>
      </trkpt>
      <trkpt lat="45.48033" lon="4.69853">
        <ele>620</ele>
        <time>2018-08-15T08:34:59.266Z</time>
      </trkpt>
      <trkpt lat="45.48033" lon="4.69853">
        <ele>620</ele>
        <time>2018-08-15T08:35:00.246Z</time>
      </trkpt>
      <trkpt lat="45.48045" lon="4.6986">
        <ele>620</ele>
        <time>2018-08-15T08:35:01.255Z</time>
      </trkpt>
      <trkpt lat="45.48045" lon="4.6986">
        <ele>620</ele>
        <time>2018-08-15T08:35:02.269Z</time>
      </trkpt>
      <trkpt lat="45.48057" lon="4.69865">
        <ele>620</ele>
        <time>2018-08-15T08:35:03.238Z</time>
      </trkpt>
      <trkpt lat="45.48057" lon="4.69865">
        <ele>620</ele>
        <time>2018-08-15T08:35:04.259Z</time>
      </trkpt>
      <trkpt lat="45.48068" lon="4.69866">
        <ele>620</ele>
        <time>2018-08-15T08:35:05.271Z</time>
      </trkpt>
      <trkpt lat="45.48068" lon="4.69866">
        <ele>620</ele>
        <time>2018-08-15T08:35:06.237Z</time>
      </trkpt>
      <trkpt lat="45.48077" lon="4.69858">
        <ele>620</ele>
        <time>2018-08-15T08:35:07.255Z</time>
      </trkpt>
      <trkpt lat="45.4808" lon="4.69851">
        <ele>620</ele>
        <time>2018-08-15T08:35:08.267Z</time>
      </trkpt>
      <trkpt lat="45.48082" lon="4.69842">
        <ele>620</ele>
        <time>2018-08-15T08:35:09.269Z</time>
      </trkpt>
      <trkpt lat="45.48082" lon="4.69842">
        <ele>620</ele>
        <time>2018-08-15T08:35:10.267Z</time>
      </trkpt>
      <trkpt lat="45.4808" lon="4.69825">
        <ele>620</ele>
        <time>2018-08-15T08:35:11.236Z</time>
      </trkpt>
      <trkpt lat="45.4808" lon="4.69825">
        <ele>620</ele>
        <time>2018-08-15T08:35:12.245Z</time>
      </trkpt>
      <trkpt lat="45.48074" lon="4.69814">
        <ele>621</ele>
        <time>2018-08-15T08:35:13.255Z</time>
      </trkpt>
      <trkpt lat="45.48074" lon="4.69814">
        <ele>621</ele>
        <time>2018-08-15T08:35:14.255Z</time>
      </trkpt>
      <trkpt lat="45.48066" lon="4.69804">
        <ele>621</ele>
        <time>2018-08-15T08:35:15.281Z</time>
      </trkpt>
      <trkpt lat="45.48066" lon="4.69804">
        <ele>621</ele>
        <time>2018-08-15T08:35:16.233Z</time>
      </trkpt>
      <trkpt lat="45.48057" lon="4.69794">
        <ele>621</ele>
        <time>2018-08-15T08:35:17.250Z</time>
      </trkpt>
      <trkpt lat="45.48057" lon="4.69794">
        <ele>621</ele>
        <time>2018-08-15T08:35:18.255Z</time>
      </trkpt>
      <trkpt lat="45.48048" lon="4.69783">
        <ele>621</ele>
        <time>2018-08-15T08:35:19.264Z</time>
      </trkpt>
      <trkpt lat="45.48043" lon="4.69777">
        <ele>621</ele>
        <time>2018-08-15T08:35:20.238Z</time>
      </trkpt>
      <trkpt lat="45.48039" lon="4.69771">
        <ele>621</ele>
        <time>2018-08-15T08:35:21.239Z</time>
      </trkpt>
      <trkpt lat="45.48039" lon="4.69771">
        <ele>621</ele>
        <time>2018-08-15T08:35:22.233Z</time>
      </trkpt>
      <trkpt lat="45.48033" lon="4.69757">
        <ele>621</ele>
        <time>2018-08-15T08:35:23.242Z</time>
      </trkpt>
      <trkpt lat="45.48033" lon="4.69757">
        <ele>621</ele>
        <time>2018-08-15T08:35:24.265Z</time>
      </trkpt>
      <trkpt lat="45.48028" lon="4.69743">
        <ele>621</ele>
        <time>2018-08-15T08:35:25.233Z</time>
      </trkpt>
      <trkpt lat="45.48028" lon="4.69743">
        <ele>621</ele>
        <time>2018-08-15T08:35:26.269Z</time>
      </trkpt>
      <trkpt lat="45.48024" lon="4.69728">
        <ele>621</ele>
        <time>2018-08-15T08:35:27.235Z</time>
      </trkpt>
      <trkpt lat="45.48024" lon="4.69728">
        <ele>621</ele>
        <time>2018-08-15T08:35:28.251Z</time>
      </trkpt>
      <trkpt lat="45.4802" lon="4.69713">
        <ele>620</ele>
        <time>2018-08-15T08:35:29.259Z</time>
      </trkpt>
      <trkpt lat="45.4802" lon="4.69713">
        <ele>620</ele>
        <time>2018-08-15T08:35:30.259Z</time>
      </trkpt>
      <trkpt lat="45.48018" lon="4.69697">
        <ele>619</ele>
        <time>2018-08-15T08:35:31.268Z</time>
      </trkpt>
      <trkpt lat="45.48018" lon="4.69697">
        <ele>619</ele>
        <time>2018-08-15T08:35:32.268Z</time>
      </trkpt>
      <trkpt lat="45.48017" lon="4.6968">
        <ele>618</ele>
        <time>2018-08-15T08:35:33.238Z</time>
      </trkpt>
      <trkpt lat="45.48017" lon="4.6968">
        <ele>618</ele>
        <time>2018-08-15T08:35:34.246Z</time>
      </trkpt>
      <trkpt lat="45.48017" lon="4.6968">
        <ele>618</ele>
        <time>2018-08-15T08:35:35.297Z</time>
      </trkpt>
      <trkpt lat="45.48017" lon="4.69663">
        <ele>618</ele>
        <time>2018-08-15T08:35:36.245Z</time>
      </trkpt>
      <trkpt lat="45.48019" lon="4.69646">
        <ele>618</ele>
        <time>2018-08-15T08:35:37.250Z</time>
      </trkpt>
      <trkpt lat="45.48021" lon="4.69638">
        <ele>618</ele>
        <time>2018-08-15T08:35:38.248Z</time>
      </trkpt>
      <trkpt lat="45.48023" lon="4.6963">
        <ele>618</ele>
        <time>2018-08-15T08:35:39.256Z</time>
      </trkpt>
      <trkpt lat="45.48023" lon="4.6963">
        <ele>618</ele>
        <time>2018-08-15T08:35:40.269Z</time>
      </trkpt>
      <trkpt lat="45.48028" lon="4.69615">
        <ele>617</ele>
        <time>2018-08-15T08:35:41.254Z</time>
      </trkpt>
      <trkpt lat="45.48028" lon="4.69615">
        <ele>617</ele>
        <time>2018-08-15T08:35:42.256Z</time>
      </trkpt>
      <trkpt lat="45.48034" lon="4.69602">
        <ele>617</ele>
        <time>2018-08-15T08:35:43.235Z</time>
      </trkpt>
      <trkpt lat="45.48034" lon="4.69602">
        <ele>617</ele>
        <time>2018-08-15T08:35:44.249Z</time>
      </trkpt>
      <trkpt lat="45.48039" lon="4.6959">
        <ele>617</ele>
        <time>2018-08-15T08:35:45.242Z</time>
      </trkpt>
      <trkpt lat="45.48039" lon="4.6959">
        <ele>617</ele>
        <time>2018-08-15T08:35:46.252Z</time>
      </trkpt>
      <trkpt lat="45.48047" lon="4.69578">
        <ele>618</ele>
        <time>2018-08-15T08:35:47.262Z</time>
      </trkpt>
      <trkpt lat="45.48047" lon="4.69578">
        <ele>618</ele>
        <time>2018-08-15T08:35:48.252Z</time>
      </trkpt>
      <trkpt lat="45.48055" lon="4.69567">
        <ele>618</ele>
        <time>2018-08-15T08:35:49.251Z</time>
      </trkpt>
      <trkpt lat="45.48055" lon="4.69567">
        <ele>618</ele>
        <time>2018-08-15T08:35:50.248Z</time>
      </trkpt>
      <trkpt lat="45.48065" lon="4.69556">
        <ele>619</ele>
        <time>2018-08-15T08:35:51.256Z</time>
      </trkpt>
      <trkpt lat="45.48065" lon="4.69556">
        <ele>619</ele>
        <time>2018-08-15T08:35:52.259Z</time>
      </trkpt>
      <trkpt lat="45.48074" lon="4.69547">
        <ele>619</ele>
        <time>2018-08-15T08:35:53.268Z</time>
      </trkpt>
      <trkpt lat="45.48074" lon="4.69547">
        <ele>619</ele>
        <time>2018-08-15T08:35:54.253Z</time>
      </trkpt>
      <trkpt lat="45.48083" lon="4.69539">
        <ele>619</ele>
        <time>2018-08-15T08:35:55.259Z</time>
      </trkpt>
      <trkpt lat="45.48087" lon="4.69534">
        <ele>619</ele>
        <time>2018-08-15T08:35:56.259Z</time>
      </trkpt>
      <trkpt lat="45.48093" lon="4.6953">
        <ele>619</ele>
        <time>2018-08-15T08:35:57.293Z</time>
      </trkpt>
      <trkpt lat="45.48093" lon="4.6953">
        <ele>619</ele>
        <time>2018-08-15T08:35:58.237Z</time>
      </trkpt>
      <trkpt lat="45.48102" lon="4.69521">
        <ele>619</ele>
        <time>2018-08-15T08:35:59.251Z</time>
      </trkpt>
      <trkpt lat="45.48102" lon="4.69521">
        <ele>619</ele>
        <time>2018-08-15T08:36:00.232Z</time>
      </trkpt>
      <trkpt lat="45.48112" lon="4.69511">
        <ele>619</ele>
        <time>2018-08-15T08:36:01.242Z</time>
      </trkpt>
      <trkpt lat="45.48112" lon="4.69511">
        <ele>619</ele>
        <time>2018-08-15T08:36:02.246Z</time>
      </trkpt>
      <trkpt lat="45.4812" lon="4.69498">
        <ele>619</ele>
        <time>2018-08-15T08:36:03.258Z</time>
      </trkpt>
      <trkpt lat="45.4812" lon="4.69498">
        <ele>619</ele>
        <time>2018-08-15T08:36:04.249Z</time>
      </trkpt>
      <trkpt lat="45.48124" lon="4.69483">
        <ele>619</ele>
        <time>2018-08-15T08:36:05.258Z</time>
      </trkpt>
      <trkpt lat="45.48124" lon="4.69475">
        <ele>618</ele>
        <time>2018-08-15T08:36:06.250Z</time>
      </trkpt>
      <trkpt lat="45.48124" lon="4.69475">
        <ele>618</ele>
        <time>2018-08-15T08:36:07.261Z</time>
      </trkpt>
      <trkpt lat="45.48121" lon="4.69459">
        <ele>619</ele>
        <time>2018-08-15T08:36:08.236Z</time>
      </trkpt>
      <trkpt lat="45.48119" lon="4.69452">
        <ele>619</ele>
        <time>2018-08-15T08:36:09.237Z</time>
      </trkpt>
      <trkpt lat="45.48119" lon="4.69452">
        <ele>619</ele>
        <time>2018-08-15T08:36:10.267Z</time>
      </trkpt>
      <trkpt lat="45.48116" lon="4.69437">
        <ele>619</ele>
        <time>2018-08-15T08:36:11.236Z</time>
      </trkpt>
      <trkpt lat="45.48116" lon="4.69437">
        <ele>619</ele>
        <time>2018-08-15T08:36:12.236Z</time>
      </trkpt>
      <trkpt lat="45.48113" lon="4.69423">
        <ele>619</ele>
        <time>2018-08-15T08:36:13.254Z</time>
      </trkpt>
      <trkpt lat="45.48113" lon="4.69423">
        <ele>619</ele>
        <time>2018-08-15T08:36:14.254Z</time>
      </trkpt>
      <trkpt lat="45.48111" lon="4.69408">
        <ele>619</ele>
        <time>2018-08-15T08:36:15.261Z</time>
      </trkpt>
      <trkpt lat="45.48111" lon="4.69408">
        <ele>619</ele>
        <time>2018-08-15T08:36:16.247Z</time>
      </trkpt>
      <trkpt lat="45.4811" lon="4.69392">
        <ele>619</ele>
        <time>2018-08-15T08:36:17.259Z</time>
      </trkpt>
      <trkpt lat="45.4811" lon="4.69392">
        <ele>619</ele>
        <time>2018-08-15T08:36:18.249Z</time>
      </trkpt>
      <trkpt lat="45.48113" lon="4.69377">
        <ele>619</ele>
        <time>2018-08-15T08:36:19.261Z</time>
      </trkpt>
      <trkpt lat="45.48113" lon="4.69377">
        <ele>619</ele>
        <time>2018-08-15T08:36:20.259Z</time>
      </trkpt>
      <trkpt lat="45.48118" lon="4.69364">
        <ele>619</ele>
        <time>2018-08-15T08:36:21.272Z</time>
      </trkpt>
      <trkpt lat="45.48118" lon="4.69364">
        <ele>619</ele>
        <time>2018-08-15T08:36:22.256Z</time>
      </trkpt>
      <trkpt lat="45.48124" lon="4.69354">
        <ele>619</ele>
        <time>2018-08-15T08:36:23.268Z</time>
      </trkpt>
      <trkpt lat="45.48124" lon="4.69354">
        <ele>619</ele>
        <time>2018-08-15T08:36:24.259Z</time>
      </trkpt>
      <trkpt lat="45.48132" lon="4.69344">
        <ele>619</ele>
        <time>2018-08-15T08:36:25.270Z</time>
      </trkpt>
      <trkpt lat="45.48132" lon="4.69344">
        <ele>619</ele>
        <time>2018-08-15T08:36:26.251Z</time>
      </trkpt>
      <trkpt lat="45.4814" lon="4.69335">
        <ele>619</ele>
        <time>2018-08-15T08:36:27.263Z</time>
      </trkpt>
      <trkpt lat="45.4814" lon="4.69335">
        <ele>619</ele>
        <time>2018-08-15T08:36:28.249Z</time>
      </trkpt>
      <trkpt lat="45.4815" lon="4.69329">
        <ele>619</ele>
        <time>2018-08-15T08:36:29.240Z</time>
      </trkpt>
      <trkpt lat="45.4815" lon="4.69329">
        <ele>619</ele>
        <time>2018-08-15T08:36:30.236Z</time>
      </trkpt>
      <trkpt lat="45.4816" lon="4.69324">
        <ele>619</ele>
        <time>2018-08-15T08:36:31.248Z</time>
      </trkpt>
      <trkpt lat="45.4816" lon="4.69324">
        <ele>619</ele>
        <time>2018-08-15T08:36:32.239Z</time>
      </trkpt>
      <trkpt lat="45.48171" lon="4.69319">
        <ele>619</ele>
        <time>2018-08-15T08:36:33.255Z</time>
      </trkpt>
      <trkpt lat="45.48171" lon="4.69319">
        <ele>619</ele>
        <time>2018-08-15T08:36:34.246Z</time>
      </trkpt>
      <trkpt lat="45.48182" lon="4.69317">
        <ele>619</ele>
        <time>2018-08-15T08:36:35.260Z</time>
      </trkpt>
      <trkpt lat="45.48182" lon="4.69317">
        <ele>619</ele>
        <time>2018-08-15T08:36:36.269Z</time>
      </trkpt>
      <trkpt lat="45.48193" lon="4.69316">
        <ele>619</ele>
        <time>2018-08-15T08:36:37.271Z</time>
      </trkpt>
      <trkpt lat="45.48193" lon="4.69316">
        <ele>619</ele>
        <time>2018-08-15T08:36:38.238Z</time>
      </trkpt>
      <trkpt lat="45.48204" lon="4.69315">
        <ele>619</ele>
        <time>2018-08-15T08:36:39.248Z</time>
      </trkpt>
      <trkpt lat="45.48204" lon="4.69315">
        <ele>619</ele>
        <time>2018-08-15T08:36:40.268Z</time>
      </trkpt>
      <trkpt lat="45.48215" lon="4.69315">
        <ele>619</ele>
        <time>2018-08-15T08:36:41.237Z</time>
      </trkpt>
      <trkpt lat="45.48215" lon="4.69315">
        <ele>619</ele>
        <time>2018-08-15T08:36:42.264Z</time>
      </trkpt>
      <trkpt lat="45.48225" lon="4.69314">
        <ele>618</ele>
        <time>2018-08-15T08:36:43.272Z</time>
      </trkpt>
      <trkpt lat="45.48225" lon="4.69314">
        <ele>618</ele>
        <time>2018-08-15T08:36:44.262Z</time>
      </trkpt>
      <trkpt lat="45.48236" lon="4.69314">
        <ele>618</ele>
        <time>2018-08-15T08:36:45.232Z</time>
      </trkpt>
      <trkpt lat="45.48236" lon="4.69314">
        <ele>618</ele>
        <time>2018-08-15T08:36:46.234Z</time>
      </trkpt>
      <trkpt lat="45.48245" lon="4.69314">
        <ele>618</ele>
        <time>2018-08-15T08:36:47.258Z</time>
      </trkpt>
      <trkpt lat="45.48245" lon="4.69314">
        <ele>618</ele>
        <time>2018-08-15T08:36:48.245Z</time>
      </trkpt>
      <trkpt lat="45.48255" lon="4.69313">
        <ele>618</ele>
        <time>2018-08-15T08:36:49.258Z</time>
      </trkpt>
      <trkpt lat="45.48255" lon="4.69313">
        <ele>618</ele>
        <time>2018-08-15T08:36:50.246Z</time>
      </trkpt>
      <trkpt lat="45.48265" lon="4.69312">
        <ele>618</ele>
        <time>2018-08-15T08:36:51.258Z</time>
      </trkpt>
      <trkpt lat="45.48265" lon="4.69312">
        <ele>618</ele>
        <time>2018-08-15T08:36:52.267Z</time>
      </trkpt>
      <trkpt lat="45.48276" lon="4.69312">
        <ele>618</ele>
        <time>2018-08-15T08:36:53.240Z</time>
      </trkpt>
      <trkpt lat="45.48276" lon="4.69312">
        <ele>618</ele>
        <time>2018-08-15T08:36:54.238Z</time>
      </trkpt>
      <trkpt lat="45.48287" lon="4.69311">
        <ele>619</ele>
        <time>2018-08-15T08:36:55.248Z</time>
      </trkpt>
      <trkpt lat="45.48287" lon="4.69311">
        <ele>619</ele>
        <time>2018-08-15T08:36:56.239Z</time>
      </trkpt>
      <trkpt lat="45.48297" lon="4.6931">
        <ele>619</ele>
        <time>2018-08-15T08:36:57.252Z</time>
      </trkpt>
      <trkpt lat="45.48297" lon="4.6931">
        <ele>619</ele>
        <time>2018-08-15T08:36:58.253Z</time>
      </trkpt>
      <trkpt lat="45.48309" lon="4.69309">
        <ele>619</ele>
        <time>2018-08-15T08:36:59.265Z</time>
      </trkpt>
      <trkpt lat="45.48309" lon="4.69309">
        <ele>619</ele>
        <time>2018-08-15T08:37:00.239Z</time>
      </trkpt>
      <trkpt lat="45.4832" lon="4.69307">
        <ele>619</ele>
        <time>2018-08-15T08:37:01.255Z</time>
      </trkpt>
      <trkpt lat="45.4832" lon="4.69307">
        <ele>619</ele>
        <time>2018-08-15T08:37:02.253Z</time>
      </trkpt>
      <trkpt lat="45.48331" lon="4.69307">
        <ele>619</ele>
        <time>2018-08-15T08:37:03.264Z</time>
      </trkpt>
      <trkpt lat="45.48331" lon="4.69307">
        <ele>619</ele>
        <time>2018-08-15T08:37:04.246Z</time>
      </trkpt>
      <trkpt lat="45.48344" lon="4.69307">
        <ele>619</ele>
        <time>2018-08-15T08:37:05.256Z</time>
      </trkpt>
      <trkpt lat="45.48344" lon="4.69307">
        <ele>619</ele>
        <time>2018-08-15T08:37:06.233Z</time>
      </trkpt>
      <trkpt lat="45.48356" lon="4.69306">
        <ele>619</ele>
        <time>2018-08-15T08:37:07.244Z</time>
      </trkpt>
      <trkpt lat="45.48356" lon="4.69306">
        <ele>619</ele>
        <time>2018-08-15T08:37:08.239Z</time>
      </trkpt>
      <trkpt lat="45.48368" lon="4.69304">
        <ele>619</ele>
        <time>2018-08-15T08:37:09.250Z</time>
      </trkpt>
      <trkpt lat="45.48373" lon="4.69302">
        <ele>619</ele>
        <time>2018-08-15T08:37:10.271Z</time>
      </trkpt>
      <trkpt lat="45.48373" lon="4.69302">
        <ele>619</ele>
        <time>2018-08-15T08:37:11.263Z</time>
      </trkpt>
      <trkpt lat="45.48383" lon="4.69294">
        <ele>619</ele>
        <time>2018-08-15T08:37:12.275Z</time>
      </trkpt>
      <trkpt lat="45.48386" lon="4.69288">
        <ele>619</ele>
        <time>2018-08-15T08:37:13.252Z</time>
      </trkpt>
      <trkpt lat="45.48386" lon="4.69288">
        <ele>619</ele>
        <time>2018-08-15T08:37:14.256Z</time>
      </trkpt>
      <trkpt lat="45.48388" lon="4.69274">
        <ele>621</ele>
        <time>2018-08-15T08:37:15.265Z</time>
      </trkpt>
      <trkpt lat="45.48388" lon="4.69274">
        <ele>621</ele>
        <time>2018-08-15T08:37:16.249Z</time>
      </trkpt>
      <trkpt lat="45.48387" lon="4.69259">
        <ele>620</ele>
        <time>2018-08-15T08:37:17.261Z</time>
      </trkpt>
      <trkpt lat="45.48387" lon="4.69259">
        <ele>620</ele>
        <time>2018-08-15T08:37:18.237Z</time>
      </trkpt>
      <trkpt lat="45.48386" lon="4.69244">
        <ele>620</ele>
        <time>2018-08-15T08:37:19.250Z</time>
      </trkpt>
      <trkpt lat="45.48386" lon="4.69244">
        <ele>620</ele>
        <time>2018-08-15T08:37:20.244Z</time>
      </trkpt>
      <trkpt lat="45.48384" lon="4.69228">
        <ele>620</ele>
        <time>2018-08-15T08:37:21.252Z</time>
      </trkpt>
      <trkpt lat="45.48384" lon="4.69228">
        <ele>620</ele>
        <time>2018-08-15T08:37:22.260Z</time>
      </trkpt>
      <trkpt lat="45.48377" lon="4.69217">
        <ele>619</ele>
        <time>2018-08-15T08:37:23.275Z</time>
      </trkpt>
      <trkpt lat="45.48377" lon="4.69217">
        <ele>619</ele>
        <time>2018-08-15T08:37:24.246Z</time>
      </trkpt>
      <trkpt lat="45.48366" lon="4.69213">
        <ele>619</ele>
        <time>2018-08-15T08:37:25.256Z</time>
      </trkpt>
      <trkpt lat="45.48366" lon="4.69213">
        <ele>619</ele>
        <time>2018-08-15T08:37:26.259Z</time>
      </trkpt>
      <trkpt lat="45.48353" lon="4.69212">
        <ele>620</ele>
        <time>2018-08-15T08:37:27.239Z</time>
      </trkpt>
      <trkpt lat="45.48353" lon="4.69212">
        <ele>620</ele>
        <time>2018-08-15T08:37:28.267Z</time>
      </trkpt>
      <trkpt lat="45.4834" lon="4.69207">
        <ele>619</ele>
        <time>2018-08-15T08:37:29.235Z</time>
      </trkpt>
      <trkpt lat="45.4834" lon="4.69207">
        <ele>619</ele>
        <time>2018-08-15T08:37:30.235Z</time>
      </trkpt>
      <trkpt lat="45.48328" lon="4.69197">
        <ele>619</ele>
        <time>2018-08-15T08:37:31.250Z</time>
      </trkpt>
      <trkpt lat="45.48328" lon="4.69197">
        <ele>619</ele>
        <time>2018-08-15T08:37:32.232Z</time>
      </trkpt>
      <trkpt lat="45.48317" lon="4.69188">
        <ele>619</ele>
        <time>2018-08-15T08:37:33.239Z</time>
      </trkpt>
      <trkpt lat="45.48317" lon="4.69188">
        <ele>619</ele>
        <time>2018-08-15T08:37:34.232Z</time>
      </trkpt>
      <trkpt lat="45.48306" lon="4.69178">
        <ele>618</ele>
        <time>2018-08-15T08:37:35.242Z</time>
      </trkpt>
      <trkpt lat="45.48306" lon="4.69178">
        <ele>618</ele>
        <time>2018-08-15T08:37:36.267Z</time>
      </trkpt>
      <trkpt lat="45.48296" lon="4.69168">
        <ele>618</ele>
        <time>2018-08-15T08:37:37.256Z</time>
      </trkpt>
      <trkpt lat="45.48296" lon="4.69168">
        <ele>618</ele>
        <time>2018-08-15T08:37:38.268Z</time>
      </trkpt>
      <trkpt lat="45.48286" lon="4.69158">
        <ele>618</ele>
        <time>2018-08-15T08:37:39.240Z</time>
      </trkpt>
      <trkpt lat="45.48286" lon="4.69158">
        <ele>618</ele>
        <time>2018-08-15T08:37:40.263Z</time>
      </trkpt>
      <trkpt lat="45.48275" lon="4.69149">
        <ele>619</ele>
        <time>2018-08-15T08:37:41.271Z</time>
      </trkpt>
      <trkpt lat="45.48275" lon="4.69149">
        <ele>619</ele>
        <time>2018-08-15T08:37:42.236Z</time>
      </trkpt>
      <trkpt lat="45.48264" lon="4.69139">
        <ele>619</ele>
        <time>2018-08-15T08:37:43.248Z</time>
      </trkpt>
      <trkpt lat="45.48264" lon="4.69139">
        <ele>619</ele>
        <time>2018-08-15T08:37:44.235Z</time>
      </trkpt>
      <trkpt lat="45.48254" lon="4.69127">
        <ele>618</ele>
        <time>2018-08-15T08:37:45.255Z</time>
      </trkpt>
      <trkpt lat="45.48254" lon="4.69127">
        <ele>618</ele>
        <time>2018-08-15T08:37:46.249Z</time>
      </trkpt>
      <trkpt lat="45.48245" lon="4.69112">
        <ele>617</ele>
        <time>2018-08-15T08:37:47.238Z</time>
      </trkpt>
      <trkpt lat="45.48245" lon="4.69112">
        <ele>617</ele>
        <time>2018-08-15T08:37:48.248Z</time>
      </trkpt>
      <trkpt lat="45.48238" lon="4.69094">
        <ele>616</ele>
        <time>2018-08-15T08:37:49.258Z</time>
      </trkpt>
      <trkpt lat="45.48238" lon="4.69094">
        <ele>616</ele>
        <time>2018-08-15T08:37:50.268Z</time>
      </trkpt>
      <trkpt lat="45.48234" lon="4.69074">
        <ele>616</ele>
        <time>2018-08-15T08:37:51.235Z</time>
      </trkpt>
      <trkpt lat="45.48234" lon="4.69074">
        <ele>616</ele>
        <time>2018-08-15T08:37:52.262Z</time>
      </trkpt>
      <trkpt lat="45.48232" lon="4.69055">
        <ele>616</ele>
        <time>2018-08-15T08:37:53.234Z</time>
      </trkpt>
      <trkpt lat="45.48232" lon="4.69055">
        <ele>616</ele>
        <time>2018-08-15T08:37:54.259Z</time>
      </trkpt>
      <trkpt lat="45.48231" lon="4.69036">
        <ele>615</ele>
        <time>2018-08-15T08:37:55.238Z</time>
      </trkpt>
      <trkpt lat="45.48231" lon="4.69036">
        <ele>615</ele>
        <time>2018-08-15T08:37:56.272Z</time>
      </trkpt>
      <trkpt lat="45.48229" lon="4.69017">
        <ele>615</ele>
        <time>2018-08-15T08:37:57.240Z</time>
      </trkpt>
      <trkpt lat="45.48229" lon="4.69017">
        <ele>615</ele>
        <time>2018-08-15T08:37:58.239Z</time>
      </trkpt>
      <trkpt lat="45.48227" lon="4.68998">
        <ele>615</ele>
        <time>2018-08-15T08:37:59.264Z</time>
      </trkpt>
      <trkpt lat="45.48227" lon="4.68998">
        <ele>615</ele>
        <time>2018-08-15T08:38:00.262Z</time>
      </trkpt>
      <trkpt lat="45.48224" lon="4.68978">
        <ele>614</ele>
        <time>2018-08-15T08:38:01.272Z</time>
      </trkpt>
      <trkpt lat="45.48224" lon="4.68978">
        <ele>614</ele>
        <time>2018-08-15T08:38:02.266Z</time>
      </trkpt>
      <trkpt lat="45.48219" lon="4.68959">
        <ele>614</ele>
        <time>2018-08-15T08:38:03.238Z</time>
      </trkpt>
      <trkpt lat="45.48219" lon="4.68959">
        <ele>614</ele>
        <time>2018-08-15T08:38:04.269Z</time>
      </trkpt>
      <trkpt lat="45.48212" lon="4.6894">
        <ele>613</ele>
        <time>2018-08-15T08:38:05.244Z</time>
      </trkpt>
      <trkpt lat="45.48212" lon="4.6894">
        <ele>613</ele>
        <time>2018-08-15T08:38:06.244Z</time>
      </trkpt>
      <trkpt lat="45.48204" lon="4.68923">
        <ele>612</ele>
        <time>2018-08-15T08:38:07.251Z</time>
      </trkpt>
      <trkpt lat="45.48204" lon="4.68923">
        <ele>612</ele>
        <time>2018-08-15T08:38:08.239Z</time>
      </trkpt>
      <trkpt lat="45.48198" lon="4.68906">
        <ele>612</ele>
        <time>2018-08-15T08:38:09.251Z</time>
      </trkpt>
      <trkpt lat="45.48198" lon="4.68906">
        <ele>612</ele>
        <time>2018-08-15T08:38:10.268Z</time>
      </trkpt>
      <trkpt lat="45.48192" lon="4.68887">
        <ele>611</ele>
        <time>2018-08-15T08:38:11.236Z</time>
      </trkpt>
      <trkpt lat="45.48192" lon="4.68887">
        <ele>611</ele>
        <time>2018-08-15T08:38:12.269Z</time>
      </trkpt>
      <trkpt lat="45.48191" lon="4.68868">
        <ele>610</ele>
        <time>2018-08-15T08:38:13.239Z</time>
      </trkpt>
      <trkpt lat="45.48192" lon="4.68858">
        <ele>611</ele>
        <time>2018-08-15T08:38:14.246Z</time>
      </trkpt>
      <trkpt lat="45.48195" lon="4.68849">
        <ele>611</ele>
        <time>2018-08-15T08:38:15.233Z</time>
      </trkpt>
      <trkpt lat="45.48195" lon="4.68849">
        <ele>611</ele>
        <time>2018-08-15T08:38:16.253Z</time>
      </trkpt>
      <trkpt lat="45.48202" lon="4.68832">
        <ele>611</ele>
        <time>2018-08-15T08:38:17.232Z</time>
      </trkpt>
      <trkpt lat="45.48202" lon="4.68832">
        <ele>611</ele>
        <time>2018-08-15T08:38:18.244Z</time>
      </trkpt>
      <trkpt lat="45.48211" lon="4.68815">
        <ele>610</ele>
        <time>2018-08-15T08:38:19.254Z</time>
      </trkpt>
      <trkpt lat="45.48211" lon="4.68815">
        <ele>610</ele>
        <time>2018-08-15T08:38:20.239Z</time>
      </trkpt>
      <trkpt lat="45.48219" lon="4.68796">
        <ele>608</ele>
        <time>2018-08-15T08:38:21.252Z</time>
      </trkpt>
      <trkpt lat="45.48219" lon="4.68796">
        <ele>608</ele>
        <time>2018-08-15T08:38:22.245Z</time>
      </trkpt>
      <trkpt lat="45.48225" lon="4.68774">
        <ele>608</ele>
        <time>2018-08-15T08:38:23.271Z</time>
      </trkpt>
      <trkpt lat="45.48225" lon="4.68774">
        <ele>608</ele>
        <time>2018-08-15T08:38:24.243Z</time>
      </trkpt>
      <trkpt lat="45.48226" lon="4.68751">
        <ele>607</ele>
        <time>2018-08-15T08:38:25.258Z</time>
      </trkpt>
      <trkpt lat="45.48226" lon="4.68751">
        <ele>607</ele>
        <time>2018-08-15T08:38:26.250Z</time>
      </trkpt>
      <trkpt lat="45.48224" lon="4.68727">
        <ele>606</ele>
        <time>2018-08-15T08:38:27.258Z</time>
      </trkpt>
      <trkpt lat="45.48224" lon="4.68727">
        <ele>606</ele>
        <time>2018-08-15T08:38:28.266Z</time>
      </trkpt>
      <trkpt lat="45.48223" lon="4.68704">
        <ele>605</ele>
        <time>2018-08-15T08:38:29.235Z</time>
      </trkpt>
      <trkpt lat="45.48223" lon="4.68704">
        <ele>605</ele>
        <time>2018-08-15T08:38:30.254Z</time>
      </trkpt>
      <trkpt lat="45.48221" lon="4.6868">
        <ele>604</ele>
        <time>2018-08-15T08:38:31.271Z</time>
      </trkpt>
      <trkpt lat="45.48221" lon="4.6868">
        <ele>604</ele>
        <time>2018-08-15T08:38:32.270Z</time>
      </trkpt>
      <trkpt lat="45.4822" lon="4.68655">
        <ele>603</ele>
        <time>2018-08-15T08:38:33.253Z</time>
      </trkpt>
      <trkpt lat="45.4822" lon="4.68655">
        <ele>603</ele>
        <time>2018-08-15T08:38:34.249Z</time>
      </trkpt>
      <trkpt lat="45.4822" lon="4.6863">
        <ele>602</ele>
        <time>2018-08-15T08:38:35.258Z</time>
      </trkpt>
      <trkpt lat="45.4822" lon="4.6863">
        <ele>602</ele>
        <time>2018-08-15T08:38:36.253Z</time>
      </trkpt>
      <trkpt lat="45.48221" lon="4.68605">
        <ele>601</ele>
        <time>2018-08-15T08:38:37.244Z</time>
      </trkpt>
      <trkpt lat="45.48223" lon="4.68593">
        <ele>600</ele>
        <time>2018-08-15T08:38:38.264Z</time>
      </trkpt>
      <trkpt lat="45.48225" lon="4.68581">
        <ele>600</ele>
        <time>2018-08-15T08:38:39.238Z</time>
      </trkpt>
      <trkpt lat="45.48225" lon="4.68581">
        <ele>600</ele>
        <time>2018-08-15T08:38:40.254Z</time>
      </trkpt>
      <trkpt lat="45.48232" lon="4.68557">
        <ele>599</ele>
        <time>2018-08-15T08:38:41.266Z</time>
      </trkpt>
      <trkpt lat="45.48232" lon="4.68557">
        <ele>599</ele>
        <time>2018-08-15T08:38:42.270Z</time>
      </trkpt>
      <trkpt lat="45.4824" lon="4.68535">
        <ele>598</ele>
        <time>2018-08-15T08:38:43.243Z</time>
      </trkpt>
      <trkpt lat="45.4824" lon="4.68535">
        <ele>598</ele>
        <time>2018-08-15T08:38:44.262Z</time>
      </trkpt>
      <trkpt lat="45.48251" lon="4.68515">
        <ele>596</ele>
        <time>2018-08-15T08:38:45.240Z</time>
      </trkpt>
      <trkpt lat="45.48251" lon="4.68515">
        <ele>596</ele>
        <time>2018-08-15T08:38:46.248Z</time>
      </trkpt>
      <trkpt lat="45.48263" lon="4.68499">
        <ele>595</ele>
        <time>2018-08-15T08:38:47.238Z</time>
      </trkpt>
      <trkpt lat="45.48263" lon="4.68499">
        <ele>595</ele>
        <time>2018-08-15T08:38:48.232Z</time>
      </trkpt>
      <trkpt lat="45.48278" lon="4.68487">
        <ele>594</ele>
        <time>2018-08-15T08:38:49.258Z</time>
      </trkpt>
      <trkpt lat="45.48278" lon="4.68487">
        <ele>594</ele>
        <time>2018-08-15T08:38:50.252Z</time>
      </trkpt>
      <trkpt lat="45.48294" lon="4.68481">
        <ele>594</ele>
        <time>2018-08-15T08:38:51.233Z</time>
      </trkpt>
      <trkpt lat="45.48294" lon="4.68481">
        <ele>594</ele>
        <time>2018-08-15T08:38:52.239Z</time>
      </trkpt>
      <trkpt lat="45.4831" lon="4.68478">
        <ele>594</ele>
        <time>2018-08-15T08:38:53.247Z</time>
      </trkpt>
      <trkpt lat="45.4831" lon="4.68478">
        <ele>594</ele>
        <time>2018-08-15T08:38:54.240Z</time>
      </trkpt>
      <trkpt lat="45.48324" lon="4.68475">
        <ele>593</ele>
        <time>2018-08-15T08:38:55.253Z</time>
      </trkpt>
      <trkpt lat="45.48324" lon="4.68475">
        <ele>593</ele>
        <time>2018-08-15T08:38:56.270Z</time>
      </trkpt>
      <trkpt lat="45.48335" lon="4.68468">
        <ele>592</ele>
        <time>2018-08-15T08:38:57.238Z</time>
      </trkpt>
      <trkpt lat="45.48335" lon="4.68468">
        <ele>592</ele>
        <time>2018-08-15T08:38:58.259Z</time>
      </trkpt>
      <trkpt lat="45.48343" lon="4.68455">
        <ele>591</ele>
        <time>2018-08-15T08:38:59.277Z</time>
      </trkpt>
      <trkpt lat="45.48343" lon="4.68455">
        <ele>591</ele>
        <time>2018-08-15T08:39:00.237Z</time>
      </trkpt>
      <trkpt lat="45.48341" lon="4.68437">
        <ele>591</ele>
        <time>2018-08-15T08:39:01.257Z</time>
      </trkpt>
      <trkpt lat="45.48341" lon="4.68437">
        <ele>591</ele>
        <time>2018-08-15T08:39:02.267Z</time>
      </trkpt>
      <trkpt lat="45.48336" lon="4.68419">
        <ele>590</ele>
        <time>2018-08-15T08:39:03.235Z</time>
      </trkpt>
      <trkpt lat="45.48336" lon="4.68419">
        <ele>590</ele>
        <time>2018-08-15T08:39:04.252Z</time>
      </trkpt>
      <trkpt lat="45.48328" lon="4.68401">
        <ele>589</ele>
        <time>2018-08-15T08:39:05.261Z</time>
      </trkpt>
      <trkpt lat="45.48328" lon="4.68401">
        <ele>589</ele>
        <time>2018-08-15T08:39:06.255Z</time>
      </trkpt>
      <trkpt lat="45.48317" lon="4.68385">
        <ele>589</ele>
        <time>2018-08-15T08:39:07.263Z</time>
      </trkpt>
      <trkpt lat="45.48317" lon="4.68385">
        <ele>589</ele>
        <time>2018-08-15T08:39:08.259Z</time>
      </trkpt>
      <trkpt lat="45.48305" lon="4.68369">
        <ele>588</ele>
        <time>2018-08-15T08:39:09.267Z</time>
      </trkpt>
      <trkpt lat="45.48305" lon="4.68369">
        <ele>588</ele>
        <time>2018-08-15T08:39:10.244Z</time>
      </trkpt>
      <trkpt lat="45.48293" lon="4.68352">
        <ele>587</ele>
        <time>2018-08-15T08:39:11.253Z</time>
      </trkpt>
      <trkpt lat="45.48293" lon="4.68352">
        <ele>587</ele>
        <time>2018-08-15T08:39:12.247Z</time>
      </trkpt>
      <trkpt lat="45.48281" lon="4.68338">
        <ele>587</ele>
        <time>2018-08-15T08:39:13.239Z</time>
      </trkpt>
      <trkpt lat="45.48281" lon="4.68338">
        <ele>587</ele>
        <time>2018-08-15T08:39:14.248Z</time>
      </trkpt>
      <trkpt lat="45.48271" lon="4.68325">
        <ele>586</ele>
        <time>2018-08-15T08:39:15.267Z</time>
      </trkpt>
      <trkpt lat="45.48271" lon="4.68325">
        <ele>586</ele>
        <time>2018-08-15T08:39:16.232Z</time>
      </trkpt>
      <trkpt lat="45.48263" lon="4.68309">
        <ele>586</ele>
        <time>2018-08-15T08:39:17.240Z</time>
      </trkpt>
      <trkpt lat="45.48263" lon="4.68309">
        <ele>586</ele>
        <time>2018-08-15T08:39:18.241Z</time>
      </trkpt>
      <trkpt lat="45.48258" lon="4.68289">
        <ele>585</ele>
        <time>2018-08-15T08:39:19.232Z</time>
      </trkpt>
      <trkpt lat="45.48258" lon="4.68289">
        <ele>585</ele>
        <time>2018-08-15T08:39:20.271Z</time>
      </trkpt>
      <trkpt lat="45.48257" lon="4.68268">
        <ele>584</ele>
        <time>2018-08-15T08:39:21.241Z</time>
      </trkpt>
      <trkpt lat="45.48257" lon="4.68268">
        <ele>584</ele>
        <time>2018-08-15T08:39:22.237Z</time>
      </trkpt>
      <trkpt lat="45.4826" lon="4.68247">
        <ele>583</ele>
        <time>2018-08-15T08:39:23.250Z</time>
      </trkpt>
      <trkpt lat="45.4826" lon="4.68247">
        <ele>583</ele>
        <time>2018-08-15T08:39:24.246Z</time>
      </trkpt>
      <trkpt lat="45.48264" lon="4.68224">
        <ele>582</ele>
        <time>2018-08-15T08:39:25.258Z</time>
      </trkpt>
      <trkpt lat="45.48264" lon="4.68224">
        <ele>582</ele>
        <time>2018-08-15T08:39:26.241Z</time>
      </trkpt>
      <trkpt lat="45.48268" lon="4.68201">
        <ele>582</ele>
        <time>2018-08-15T08:39:27.253Z</time>
      </trkpt>
      <trkpt lat="45.4827" lon="4.6819">
        <ele>582</ele>
        <time>2018-08-15T08:39:28.259Z</time>
      </trkpt>
      <trkpt lat="45.4827" lon="4.6819">
        <ele>582</ele>
        <time>2018-08-15T08:39:29.240Z</time>
      </trkpt>
      <trkpt lat="45.48275" lon="4.68167">
        <ele>580</ele>
        <time>2018-08-15T08:39:30.248Z</time>
      </trkpt>
      <trkpt lat="45.48275" lon="4.68167">
        <ele>580</ele>
        <time>2018-08-15T08:39:31.237Z</time>
      </trkpt>
      <trkpt lat="45.4828" lon="4.68144">
        <ele>579</ele>
        <time>2018-08-15T08:39:32.251Z</time>
      </trkpt>
      <trkpt lat="45.48283" lon="4.68132">
        <ele>578</ele>
        <time>2018-08-15T08:39:33.270Z</time>
      </trkpt>
      <trkpt lat="45.48283" lon="4.68132">
        <ele>578</ele>
        <time>2018-08-15T08:39:34.270Z</time>
      </trkpt>
      <trkpt lat="45.48288" lon="4.68109">
        <ele>578</ele>
        <time>2018-08-15T08:39:35.237Z</time>
      </trkpt>
      <trkpt lat="45.48288" lon="4.68109">
        <ele>578</ele>
        <time>2018-08-15T08:39:36.251Z</time>
      </trkpt>
      <trkpt lat="45.48294" lon="4.68086">
        <ele>577</ele>
        <time>2018-08-15T08:39:37.259Z</time>
      </trkpt>
      <trkpt lat="45.48298" lon="4.68075">
        <ele>576</ele>
        <time>2018-08-15T08:39:38.257Z</time>
      </trkpt>
      <trkpt lat="45.48303" lon="4.68064">
        <ele>576</ele>
        <time>2018-08-15T08:39:39.269Z</time>
      </trkpt>
      <trkpt lat="45.48303" lon="4.68064">
        <ele>576</ele>
        <time>2018-08-15T08:39:40.269Z</time>
      </trkpt>
      <trkpt lat="45.48312" lon="4.68043">
        <ele>575</ele>
        <time>2018-08-15T08:39:41.240Z</time>
      </trkpt>
      <trkpt lat="45.48312" lon="4.68043">
        <ele>575</ele>
        <time>2018-08-15T08:39:42.268Z</time>
      </trkpt>
      <trkpt lat="45.48321" lon="4.68023">
        <ele>574</ele>
        <time>2018-08-15T08:39:43.260Z</time>
      </trkpt>
      <trkpt lat="45.48321" lon="4.68023">
        <ele>574</ele>
        <time>2018-08-15T08:39:44.250Z</time>
      </trkpt>
      <trkpt lat="45.48331" lon="4.68003">
        <ele>573</ele>
        <time>2018-08-15T08:39:45.257Z</time>
      </trkpt>
      <trkpt lat="45.48331" lon="4.68003">
        <ele>573</ele>
        <time>2018-08-15T08:39:46.236Z</time>
      </trkpt>
      <trkpt lat="45.48341" lon="4.67983">
        <ele>572</ele>
        <time>2018-08-15T08:39:47.258Z</time>
      </trkpt>
      <trkpt lat="45.48341" lon="4.67983">
        <ele>572</ele>
        <time>2018-08-15T08:39:48.249Z</time>
      </trkpt>
      <trkpt lat="45.48352" lon="4.67964">
        <ele>571</ele>
        <time>2018-08-15T08:39:49.317Z</time>
      </trkpt>
      <trkpt lat="45.48352" lon="4.67964">
        <ele>571</ele>
        <time>2018-08-15T08:39:50.269Z</time>
      </trkpt>
      <trkpt lat="45.48365" lon="4.67946">
        <ele>569</ele>
        <time>2018-08-15T08:39:51.246Z</time>
      </trkpt>
      <trkpt lat="45.48365" lon="4.67946">
        <ele>569</ele>
        <time>2018-08-15T08:39:52.262Z</time>
      </trkpt>
      <trkpt lat="45.48378" lon="4.67927">
        <ele>568</ele>
        <time>2018-08-15T08:39:53.273Z</time>
      </trkpt>
      <trkpt lat="45.48378" lon="4.67927">
        <ele>568</ele>
        <time>2018-08-15T08:39:54.253Z</time>
      </trkpt>
      <trkpt lat="45.48391" lon="4.67908">
        <ele>567</ele>
        <time>2018-08-15T08:39:55.264Z</time>
      </trkpt>
      <trkpt lat="45.48391" lon="4.67908">
        <ele>567</ele>
        <time>2018-08-15T08:39:56.260Z</time>
      </trkpt>
      <trkpt lat="45.48404" lon="4.67888">
        <ele>566</ele>
        <time>2018-08-15T08:39:57.271Z</time>
      </trkpt>
      <trkpt lat="45.48404" lon="4.67888">
        <ele>566</ele>
        <time>2018-08-15T08:39:58.259Z</time>
      </trkpt>
      <trkpt lat="45.48414" lon="4.67865">
        <ele>565</ele>
        <time>2018-08-15T08:39:59.267Z</time>
      </trkpt>
      <trkpt lat="45.48414" lon="4.67865">
        <ele>565</ele>
        <time>2018-08-15T08:40:00.245Z</time>
      </trkpt>
      <trkpt lat="45.48422" lon="4.67842">
        <ele>564</ele>
        <time>2018-08-15T08:40:01.263Z</time>
      </trkpt>
      <trkpt lat="45.48422" lon="4.67842">
        <ele>564</ele>
        <time>2018-08-15T08:40:02.265Z</time>
      </trkpt>
      <trkpt lat="45.4843" lon="4.6782">
        <ele>563</ele>
        <time>2018-08-15T08:40:03.238Z</time>
      </trkpt>
      <trkpt lat="45.4843" lon="4.6782">
        <ele>563</ele>
        <time>2018-08-15T08:40:04.245Z</time>
      </trkpt>
      <trkpt lat="45.48442" lon="4.67804">
        <ele>562</ele>
        <time>2018-08-15T08:40:05.260Z</time>
      </trkpt>
      <trkpt lat="45.48442" lon="4.67804">
        <ele>562</ele>
        <time>2018-08-15T08:40:06.251Z</time>
      </trkpt>
      <trkpt lat="45.48459" lon="4.67798">
        <ele>561</ele>
        <time>2018-08-15T08:40:07.264Z</time>
      </trkpt>
      <trkpt lat="45.48459" lon="4.67798">
        <ele>561</ele>
        <time>2018-08-15T08:40:08.258Z</time>
      </trkpt>
      <trkpt lat="45.48477" lon="4.67798">
        <ele>560</ele>
        <time>2018-08-15T08:40:09.268Z</time>
      </trkpt>
      <trkpt lat="45.48477" lon="4.67798">
        <ele>560</ele>
        <time>2018-08-15T08:40:10.267Z</time>
      </trkpt>
      <trkpt lat="45.48494" lon="4.67802">
        <ele>559</ele>
        <time>2018-08-15T08:40:11.233Z</time>
      </trkpt>
      <trkpt lat="45.48494" lon="4.67802">
        <ele>559</ele>
        <time>2018-08-15T08:40:12.270Z</time>
      </trkpt>
      <trkpt lat="45.48509" lon="4.67805">
        <ele>559</ele>
        <time>2018-08-15T08:40:13.248Z</time>
      </trkpt>
      <trkpt lat="45.48509" lon="4.67805">
        <ele>559</ele>
        <time>2018-08-15T08:40:14.267Z</time>
      </trkpt>
      <trkpt lat="45.48522" lon="4.67804">
        <ele>559</ele>
        <time>2018-08-15T08:40:15.269Z</time>
      </trkpt>
      <trkpt lat="45.48522" lon="4.67804">
        <ele>559</ele>
        <time>2018-08-15T08:40:16.267Z</time>
      </trkpt>
      <trkpt lat="45.4853" lon="4.67794">
        <ele>560</ele>
        <time>2018-08-15T08:40:17.242Z</time>
      </trkpt>
      <trkpt lat="45.4853" lon="4.67794">
        <ele>560</ele>
        <time>2018-08-15T08:40:18.235Z</time>
      </trkpt>
      <trkpt lat="45.48536" lon="4.67782">
        <ele>560</ele>
        <time>2018-08-15T08:40:19.247Z</time>
      </trkpt>
      <trkpt lat="45.48536" lon="4.67782">
        <ele>560</ele>
        <time>2018-08-15T08:40:20.243Z</time>
      </trkpt>
      <trkpt lat="45.48538" lon="4.67768">
        <ele>560</ele>
        <time>2018-08-15T08:40:21.255Z</time>
      </trkpt>
      <trkpt lat="45.48538" lon="4.67768">
        <ele>560</ele>
        <time>2018-08-15T08:40:22.249Z</time>
      </trkpt>
      <trkpt lat="45.48542" lon="4.67754">
        <ele>559</ele>
        <time>2018-08-15T08:40:23.258Z</time>
      </trkpt>
      <trkpt lat="45.48542" lon="4.67754">
        <ele>559</ele>
        <time>2018-08-15T08:40:24.247Z</time>
      </trkpt>
      <trkpt lat="45.48546" lon="4.67737">
        <ele>559</ele>
        <time>2018-08-15T08:40:25.268Z</time>
      </trkpt>
      <trkpt lat="45.48546" lon="4.67737">
        <ele>559</ele>
        <time>2018-08-15T08:40:26.259Z</time>
      </trkpt>
      <trkpt lat="45.48544" lon="4.67719">
        <ele>559</ele>
        <time>2018-08-15T08:40:27.264Z</time>
      </trkpt>
      <trkpt lat="45.48544" lon="4.67719">
        <ele>559</ele>
        <time>2018-08-15T08:40:28.267Z</time>
      </trkpt>
      <trkpt lat="45.48539" lon="4.67703">
        <ele>559</ele>
        <time>2018-08-15T08:40:29.243Z</time>
      </trkpt>
      <trkpt lat="45.48539" lon="4.67703">
        <ele>559</ele>
        <time>2018-08-15T08:40:30.247Z</time>
      </trkpt>
      <trkpt lat="45.48531" lon="4.6769">
        <ele>558</ele>
        <time>2018-08-15T08:40:31.260Z</time>
      </trkpt>
      <trkpt lat="45.48531" lon="4.6769">
        <ele>558</ele>
        <time>2018-08-15T08:40:32.242Z</time>
      </trkpt>
      <trkpt lat="45.4852" lon="4.67681">
        <ele>558</ele>
        <time>2018-08-15T08:40:33.277Z</time>
      </trkpt>
      <trkpt lat="45.4852" lon="4.67681">
        <ele>558</ele>
        <time>2018-08-15T08:40:34.239Z</time>
      </trkpt>
      <trkpt lat="45.48509" lon="4.67674">
        <ele>558</ele>
        <time>2018-08-15T08:40:35.250Z</time>
      </trkpt>
      <trkpt lat="45.48509" lon="4.67674">
        <ele>558</ele>
        <time>2018-08-15T08:40:36.234Z</time>
      </trkpt>
      <trkpt lat="45.48498" lon="4.67664">
        <ele>557</ele>
        <time>2018-08-15T08:40:37.253Z</time>
      </trkpt>
      <trkpt lat="45.48498" lon="4.67664">
        <ele>557</ele>
        <time>2018-08-15T08:40:38.249Z</time>
      </trkpt>
      <trkpt lat="45.48489" lon="4.67652">
        <ele>557</ele>
        <time>2018-08-15T08:40:39.258Z</time>
      </trkpt>
      <trkpt lat="45.48489" lon="4.67652">
        <ele>557</ele>
        <time>2018-08-15T08:40:40.243Z</time>
      </trkpt>
      <trkpt lat="45.48482" lon="4.67638">
        <ele>557</ele>
        <time>2018-08-15T08:40:41.265Z</time>
      </trkpt>
      <trkpt lat="45.48482" lon="4.67638">
        <ele>557</ele>
        <time>2018-08-15T08:40:42.249Z</time>
      </trkpt>
      <trkpt lat="45.48477" lon="4.67621">
        <ele>556</ele>
        <time>2018-08-15T08:40:43.256Z</time>
      </trkpt>
      <trkpt lat="45.48477" lon="4.67621">
        <ele>556</ele>
        <time>2018-08-15T08:40:44.256Z</time>
      </trkpt>
      <trkpt lat="45.48475" lon="4.67604">
        <ele>556</ele>
        <time>2018-08-15T08:40:45.266Z</time>
      </trkpt>
      <trkpt lat="45.48475" lon="4.67604">
        <ele>556</ele>
        <time>2018-08-15T08:40:46.259Z</time>
      </trkpt>
      <trkpt lat="45.48475" lon="4.67588">
        <ele>556</ele>
        <time>2018-08-15T08:40:47.268Z</time>
      </trkpt>
      <trkpt lat="45.48475" lon="4.67588">
        <ele>556</ele>
        <time>2018-08-15T08:40:48.258Z</time>
      </trkpt>
      <trkpt lat="45.48474" lon="4.6757">
        <ele>556</ele>
        <time>2018-08-15T08:40:49.278Z</time>
      </trkpt>
      <trkpt lat="45.48474" lon="4.6757">
        <ele>556</ele>
        <time>2018-08-15T08:40:50.263Z</time>
      </trkpt>
      <trkpt lat="45.48473" lon="4.67554">
        <ele>556</ele>
        <time>2018-08-15T08:40:51.238Z</time>
      </trkpt>
      <trkpt lat="45.48473" lon="4.67554">
        <ele>556</ele>
        <time>2018-08-15T08:40:52.247Z</time>
      </trkpt>
      <trkpt lat="45.48471" lon="4.67538">
        <ele>555</ele>
        <time>2018-08-15T08:40:53.254Z</time>
      </trkpt>
      <trkpt lat="45.48471" lon="4.67538">
        <ele>555</ele>
        <time>2018-08-15T08:40:54.256Z</time>
      </trkpt>
      <trkpt lat="45.48469" lon="4.67521">
        <ele>555</ele>
        <time>2018-08-15T08:40:55.267Z</time>
      </trkpt>
      <trkpt lat="45.48469" lon="4.67521">
        <ele>555</ele>
        <time>2018-08-15T08:40:56.268Z</time>
      </trkpt>
      <trkpt lat="45.48467" lon="4.67504">
        <ele>555</ele>
        <time>2018-08-15T08:40:57.238Z</time>
      </trkpt>
      <trkpt lat="45.48467" lon="4.67504">
        <ele>555</ele>
        <time>2018-08-15T08:40:58.236Z</time>
      </trkpt>
      <trkpt lat="45.48466" lon="4.67487">
        <ele>554</ele>
        <time>2018-08-15T08:40:59.252Z</time>
      </trkpt>
      <trkpt lat="45.48466" lon="4.67487">
        <ele>554</ele>
        <time>2018-08-15T08:41:00.236Z</time>
      </trkpt>
      <trkpt lat="45.48467" lon="4.67471">
        <ele>554</ele>
        <time>2018-08-15T08:41:01.244Z</time>
      </trkpt>
      <trkpt lat="45.48467" lon="4.67471">
        <ele>554</ele>
        <time>2018-08-15T08:41:02.236Z</time>
      </trkpt>
      <trkpt lat="45.48468" lon="4.67455">
        <ele>554</ele>
        <time>2018-08-15T08:41:03.251Z</time>
      </trkpt>
      <trkpt lat="45.48468" lon="4.67455">
        <ele>554</ele>
        <time>2018-08-15T08:41:04.240Z</time>
      </trkpt>
      <trkpt lat="45.48472" lon="4.6744">
        <ele>553</ele>
        <time>2018-08-15T08:41:05.247Z</time>
      </trkpt>
      <trkpt lat="45.48472" lon="4.6744">
        <ele>553</ele>
        <time>2018-08-15T08:41:06.243Z</time>
      </trkpt>
      <trkpt lat="45.48477" lon="4.67425">
        <ele>552</ele>
        <time>2018-08-15T08:41:07.232Z</time>
      </trkpt>
      <trkpt lat="45.48477" lon="4.67425">
        <ele>552</ele>
        <time>2018-08-15T08:41:08.248Z</time>
      </trkpt>
      <trkpt lat="45.48482" lon="4.67411">
        <ele>552</ele>
        <time>2018-08-15T08:41:09.263Z</time>
      </trkpt>
      <trkpt lat="45.48482" lon="4.67411">
        <ele>552</ele>
        <time>2018-08-15T08:41:10.236Z</time>
      </trkpt>
      <trkpt lat="45.48486" lon="4.67398">
        <ele>552</ele>
        <time>2018-08-15T08:41:11.248Z</time>
      </trkpt>
      <trkpt lat="45.48489" lon="4.67391">
        <ele>552</ele>
        <time>2018-08-15T08:41:12.236Z</time>
      </trkpt>
      <trkpt lat="45.48489" lon="4.67391">
        <ele>552</ele>
        <time>2018-08-15T08:41:13.269Z</time>
      </trkpt>
      <trkpt lat="45.48493" lon="4.67378">
        <ele>552</ele>
        <time>2018-08-15T08:41:14.238Z</time>
      </trkpt>
      <trkpt lat="45.48495" lon="4.67372">
        <ele>552</ele>
        <time>2018-08-15T08:41:15.260Z</time>
      </trkpt>
      <trkpt lat="45.48495" lon="4.67372">
        <ele>552</ele>
        <time>2018-08-15T08:41:16.259Z</time>
      </trkpt>
      <trkpt lat="45.48499" lon="4.67358">
        <ele>552</ele>
        <time>2018-08-15T08:41:17.232Z</time>
      </trkpt>
      <trkpt lat="45.48499" lon="4.67358">
        <ele>552</ele>
        <time>2018-08-15T08:41:18.262Z</time>
      </trkpt>
      <trkpt lat="45.48503" lon="4.67346">
        <ele>552</ele>
        <time>2018-08-15T08:41:19.272Z</time>
      </trkpt>
      <trkpt lat="45.48503" lon="4.67346">
        <ele>552</ele>
        <time>2018-08-15T08:41:20.260Z</time>
      </trkpt>
      <trkpt lat="45.48508" lon="4.67334">
        <ele>552</ele>
        <time>2018-08-15T08:41:21.243Z</time>
      </trkpt>
      <trkpt lat="45.48508" lon="4.67334">
        <ele>552</ele>
        <time>2018-08-15T08:41:22.244Z</time>
      </trkpt>
      <trkpt lat="45.48512" lon="4.67322">
        <ele>552</ele>
        <time>2018-08-15T08:41:23.257Z</time>
      </trkpt>
      <trkpt lat="45.48512" lon="4.67322">
        <ele>552</ele>
        <time>2018-08-15T08:41:24.249Z</time>
      </trkpt>
      <trkpt lat="45.48516" lon="4.67311">
        <ele>552</ele>
        <time>2018-08-15T08:41:25.255Z</time>
      </trkpt>
      <trkpt lat="45.48516" lon="4.67311">
        <ele>552</ele>
        <time>2018-08-15T08:41:26.264Z</time>
      </trkpt>
      <trkpt lat="45.48521" lon="4.673">
        <ele>552</ele>
        <time>2018-08-15T08:41:27.258Z</time>
      </trkpt>
      <trkpt lat="45.48521" lon="4.673">
        <ele>552</ele>
        <time>2018-08-15T08:41:28.260Z</time>
      </trkpt>
      <trkpt lat="45.48526" lon="4.6729">
        <ele>551</ele>
        <time>2018-08-15T08:41:29.270Z</time>
      </trkpt>
      <trkpt lat="45.48526" lon="4.6729">
        <ele>551</ele>
        <time>2018-08-15T08:41:30.257Z</time>
      </trkpt>
      <trkpt lat="45.48532" lon="4.67279">
        <ele>551</ele>
        <time>2018-08-15T08:41:31.267Z</time>
      </trkpt>
      <trkpt lat="45.48535" lon="4.67273">
        <ele>551</ele>
        <time>2018-08-15T08:41:32.256Z</time>
      </trkpt>
      <trkpt lat="45.48535" lon="4.67273">
        <ele>551</ele>
        <time>2018-08-15T08:41:33.257Z</time>
      </trkpt>
      <trkpt lat="45.48541" lon="4.67262">
        <ele>551</ele>
        <time>2018-08-15T08:41:34.266Z</time>
      </trkpt>
      <trkpt lat="45.48541" lon="4.67262">
        <ele>551</ele>
        <time>2018-08-15T08:41:35.258Z</time>
      </trkpt>
      <trkpt lat="45.48547" lon="4.67252">
        <ele>551</ele>
        <time>2018-08-15T08:41:36.251Z</time>
      </trkpt>
      <trkpt lat="45.4855" lon="4.67247">
        <ele>551</ele>
        <time>2018-08-15T08:41:37.258Z</time>
      </trkpt>
      <trkpt lat="45.4855" lon="4.67247">
        <ele>551</ele>
        <time>2018-08-15T08:41:38.246Z</time>
      </trkpt>
      <trkpt lat="45.48556" lon="4.67237">
        <ele>552</ele>
        <time>2018-08-15T08:41:39.245Z</time>
      </trkpt>
      <trkpt lat="45.48556" lon="4.67237">
        <ele>552</ele>
        <time>2018-08-15T08:41:40.271Z</time>
      </trkpt>
      <trkpt lat="45.48562" lon="4.67227">
        <ele>552</ele>
        <time>2018-08-15T08:41:41.238Z</time>
      </trkpt>
      <trkpt lat="45.48562" lon="4.67227">
        <ele>552</ele>
        <time>2018-08-15T08:41:42.238Z</time>
      </trkpt>
      <trkpt lat="45.48569" lon="4.67218">
        <ele>552</ele>
        <time>2018-08-15T08:41:43.255Z</time>
      </trkpt>
      <trkpt lat="45.48569" lon="4.67218">
        <ele>552</ele>
        <time>2018-08-15T08:41:44.267Z</time>
      </trkpt>
      <trkpt lat="45.48576" lon="4.67209">
        <ele>552</ele>
        <time>2018-08-15T08:41:45.247Z</time>
      </trkpt>
      <trkpt lat="45.48576" lon="4.67209">
        <ele>552</ele>
        <time>2018-08-15T08:41:46.247Z</time>
      </trkpt>
      <trkpt lat="45.48584" lon="4.67199">
        <ele>552</ele>
        <time>2018-08-15T08:41:47.256Z</time>
      </trkpt>
      <trkpt lat="45.48584" lon="4.67199">
        <ele>552</ele>
        <time>2018-08-15T08:41:48.263Z</time>
      </trkpt>
      <trkpt lat="45.48592" lon="4.67191">
        <ele>553</ele>
        <time>2018-08-15T08:41:49.271Z</time>
      </trkpt>
      <trkpt lat="45.48592" lon="4.67191">
        <ele>553</ele>
        <time>2018-08-15T08:41:50.251Z</time>
      </trkpt>
      <trkpt lat="45.486" lon="4.67183">
        <ele>553</ele>
        <time>2018-08-15T08:41:51.261Z</time>
      </trkpt>
      <trkpt lat="45.486" lon="4.67183">
        <ele>553</ele>
        <time>2018-08-15T08:41:52.248Z</time>
      </trkpt>
      <trkpt lat="45.48608" lon="4.67176">
        <ele>553</ele>
        <time>2018-08-15T08:41:53.260Z</time>
      </trkpt>
      <trkpt lat="45.48613" lon="4.67172">
        <ele>553</ele>
        <time>2018-08-15T08:41:54.268Z</time>
      </trkpt>
      <trkpt lat="45.48613" lon="4.67172">
        <ele>553</ele>
        <time>2018-08-15T08:41:55.270Z</time>
      </trkpt>
      <trkpt lat="45.48622" lon="4.67166">
        <ele>553</ele>
        <time>2018-08-15T08:41:56.271Z</time>
      </trkpt>
      <trkpt lat="45.48627" lon="4.67164">
        <ele>553</ele>
        <time>2018-08-15T08:41:57.238Z</time>
      </trkpt>
      <trkpt lat="45.48632" lon="4.67161">
        <ele>553</ele>
        <time>2018-08-15T08:41:58.237Z</time>
      </trkpt>
      <trkpt lat="45.48632" lon="4.67161">
        <ele>553</ele>
        <time>2018-08-15T08:41:59.249Z</time>
      </trkpt>
      <trkpt lat="45.48642" lon="4.67156">
        <ele>553</ele>
        <time>2018-08-15T08:42:00.258Z</time>
      </trkpt>
      <trkpt lat="45.48647" lon="4.67153">
        <ele>553</ele>
        <time>2018-08-15T08:42:01.258Z</time>
      </trkpt>
      <trkpt lat="45.48647" lon="4.67153">
        <ele>553</ele>
        <time>2018-08-15T08:42:02.259Z</time>
      </trkpt>
      <trkpt lat="45.48659" lon="4.67148">
        <ele>553</ele>
        <time>2018-08-15T08:42:03.244Z</time>
      </trkpt>
      <trkpt lat="45.48659" lon="4.67148">
        <ele>553</ele>
        <time>2018-08-15T08:42:04.249Z</time>
      </trkpt>
      <trkpt lat="45.4867" lon="4.67143">
        <ele>553</ele>
        <time>2018-08-15T08:42:05.259Z</time>
      </trkpt>
      <trkpt lat="45.48676" lon="4.6714">
        <ele>553</ele>
        <time>2018-08-15T08:42:06.267Z</time>
      </trkpt>
      <trkpt lat="45.48676" lon="4.6714">
        <ele>553</ele>
        <time>2018-08-15T08:42:07.264Z</time>
      </trkpt>
      <trkpt lat="45.48689" lon="4.67135">
        <ele>552</ele>
        <time>2018-08-15T08:42:08.275Z</time>
      </trkpt>
      <trkpt lat="45.48695" lon="4.67132">
        <ele>552</ele>
        <time>2018-08-15T08:42:09.264Z</time>
      </trkpt>
      <trkpt lat="45.48695" lon="4.67132">
        <ele>552</ele>
        <time>2018-08-15T08:42:10.262Z</time>
      </trkpt>
      <trkpt lat="45.48707" lon="4.67127">
        <ele>552</ele>
        <time>2018-08-15T08:42:11.269Z</time>
      </trkpt>
      <trkpt lat="45.48707" lon="4.67127">
        <ele>552</ele>
        <time>2018-08-15T08:42:12.269Z</time>
      </trkpt>
      <trkpt lat="45.4872" lon="4.6712">
        <ele>552</ele>
        <time>2018-08-15T08:42:13.238Z</time>
      </trkpt>
      <trkpt lat="45.48726" lon="4.67117">
        <ele>552</ele>
        <time>2018-08-15T08:42:14.236Z</time>
      </trkpt>
      <trkpt lat="45.48732" lon="4.67114">
        <ele>551</ele>
        <time>2018-08-15T08:42:15.250Z</time>
      </trkpt>
      <trkpt lat="45.48732" lon="4.67114">
        <ele>551</ele>
        <time>2018-08-15T08:42:16.246Z</time>
      </trkpt>
      <trkpt lat="45.48744" lon="4.67109">
        <ele>551</ele>
        <time>2018-08-15T08:42:17.256Z</time>
      </trkpt>
      <trkpt lat="45.48744" lon="4.67109">
        <ele>551</ele>
        <time>2018-08-15T08:42:18.251Z</time>
      </trkpt>
      <trkpt lat="45.48757" lon="4.67102">
        <ele>551</ele>
        <time>2018-08-15T08:42:19.266Z</time>
      </trkpt>
      <trkpt lat="45.48757" lon="4.67102">
        <ele>551</ele>
        <time>2018-08-15T08:42:20.261Z</time>
      </trkpt>
      <trkpt lat="45.48768" lon="4.67095">
        <ele>552</ele>
        <time>2018-08-15T08:42:21.248Z</time>
      </trkpt>
      <trkpt lat="45.48768" lon="4.67095">
        <ele>552</ele>
        <time>2018-08-15T08:42:22.250Z</time>
      </trkpt>
      <trkpt lat="45.4878" lon="4.67088">
        <ele>551</ele>
        <time>2018-08-15T08:42:23.270Z</time>
      </trkpt>
      <trkpt lat="45.4878" lon="4.67088">
        <ele>551</ele>
        <time>2018-08-15T08:42:24.256Z</time>
      </trkpt>
      <trkpt lat="45.48793" lon="4.6708">
        <ele>551</ele>
        <time>2018-08-15T08:42:25.290Z</time>
      </trkpt>
      <trkpt lat="45.48793" lon="4.6708">
        <ele>551</ele>
        <time>2018-08-15T08:42:26.244Z</time>
      </trkpt>
      <trkpt lat="45.48804" lon="4.67071">
        <ele>550</ele>
        <time>2018-08-15T08:42:27.281Z</time>
      </trkpt>
      <trkpt lat="45.48804" lon="4.67071">
        <ele>550</ele>
        <time>2018-08-15T08:42:28.269Z</time>
      </trkpt>
      <trkpt lat="45.48812" lon="4.67058">
        <ele>550</ele>
        <time>2018-08-15T08:42:29.237Z</time>
      </trkpt>
      <trkpt lat="45.48812" lon="4.67058">
        <ele>550</ele>
        <time>2018-08-15T08:42:30.266Z</time>
      </trkpt>
      <trkpt lat="45.48813" lon="4.67041">
        <ele>549</ele>
        <time>2018-08-15T08:42:31.233Z</time>
      </trkpt>
      <trkpt lat="45.48813" lon="4.67041">
        <ele>549</ele>
        <time>2018-08-15T08:42:32.246Z</time>
      </trkpt>
      <trkpt lat="45.48807" lon="4.67026">
        <ele>548</ele>
        <time>2018-08-15T08:42:33.267Z</time>
      </trkpt>
      <trkpt lat="45.48807" lon="4.67026">
        <ele>548</ele>
        <time>2018-08-15T08:42:34.245Z</time>
      </trkpt>
      <trkpt lat="45.48797" lon="4.67016">
        <ele>548</ele>
        <time>2018-08-15T08:42:35.260Z</time>
      </trkpt>
      <trkpt lat="45.48797" lon="4.67016">
        <ele>548</ele>
        <time>2018-08-15T08:42:36.265Z</time>
      </trkpt>
      <trkpt lat="45.48787" lon="4.67008">
        <ele>548</ele>
        <time>2018-08-15T08:42:37.287Z</time>
      </trkpt>
      <trkpt lat="45.48787" lon="4.67008">
        <ele>548</ele>
        <time>2018-08-15T08:42:38.256Z</time>
      </trkpt>
      <trkpt lat="45.48778" lon="4.67">
        <ele>548</ele>
        <time>2018-08-15T08:42:39.272Z</time>
      </trkpt>
      <trkpt lat="45.48778" lon="4.67">
        <ele>548</ele>
        <time>2018-08-15T08:42:40.259Z</time>
      </trkpt>
      <trkpt lat="45.48768" lon="4.66993">
        <ele>548</ele>
        <time>2018-08-15T08:42:41.269Z</time>
      </trkpt>
      <trkpt lat="45.48768" lon="4.66993">
        <ele>548</ele>
        <time>2018-08-15T08:42:42.266Z</time>
      </trkpt>
      <trkpt lat="45.48758" lon="4.66986">
        <ele>548</ele>
        <time>2018-08-15T08:42:43.237Z</time>
      </trkpt>
      <trkpt lat="45.48758" lon="4.66986">
        <ele>548</ele>
        <time>2018-08-15T08:42:44.242Z</time>
      </trkpt>
      <trkpt lat="45.48749" lon="4.66978">
        <ele>549</ele>
        <time>2018-08-15T08:42:45.253Z</time>
      </trkpt>
      <trkpt lat="45.48749" lon="4.66978">
        <ele>549</ele>
        <time>2018-08-15T08:42:46.268Z</time>
      </trkpt>
      <trkpt lat="45.4874" lon="4.66972">
        <ele>549</ele>
        <time>2018-08-15T08:42:47.239Z</time>
      </trkpt>
      <trkpt lat="45.4874" lon="4.66972">
        <ele>549</ele>
        <time>2018-08-15T08:42:48.249Z</time>
      </trkpt>
      <trkpt lat="45.48731" lon="4.66964">
        <ele>549</ele>
        <time>2018-08-15T08:42:49.261Z</time>
      </trkpt>
      <trkpt lat="45.48731" lon="4.66964">
        <ele>549</ele>
        <time>2018-08-15T08:42:50.244Z</time>
      </trkpt>
      <trkpt lat="45.48723" lon="4.66955">
        <ele>550</ele>
        <time>2018-08-15T08:42:51.253Z</time>
      </trkpt>
      <trkpt lat="45.48723" lon="4.66955">
        <ele>550</ele>
        <time>2018-08-15T08:42:52.260Z</time>
      </trkpt>
      <trkpt lat="45.48716" lon="4.66945">
        <ele>551</ele>
        <time>2018-08-15T08:42:53.273Z</time>
      </trkpt>
      <trkpt lat="45.48716" lon="4.66945">
        <ele>551</ele>
        <time>2018-08-15T08:42:54.259Z</time>
      </trkpt>
      <trkpt lat="45.48709" lon="4.66932">
        <ele>551</ele>
        <time>2018-08-15T08:42:55.268Z</time>
      </trkpt>
      <trkpt lat="45.48709" lon="4.66932">
        <ele>551</ele>
        <time>2018-08-15T08:42:56.255Z</time>
      </trkpt>
      <trkpt lat="45.48704" lon="4.66919">
        <ele>550</ele>
        <time>2018-08-15T08:42:57.238Z</time>
      </trkpt>
      <trkpt lat="45.48704" lon="4.66919">
        <ele>550</ele>
        <time>2018-08-15T08:42:58.249Z</time>
      </trkpt>
      <trkpt lat="45.48699" lon="4.66904">
        <ele>550</ele>
        <time>2018-08-15T08:42:59.269Z</time>
      </trkpt>
      <trkpt lat="45.48699" lon="4.66904">
        <ele>550</ele>
        <time>2018-08-15T08:43:00.262Z</time>
      </trkpt>
      <trkpt lat="45.48696" lon="4.66888">
        <ele>550</ele>
        <time>2018-08-15T08:43:01.242Z</time>
      </trkpt>
      <trkpt lat="45.48696" lon="4.66888">
        <ele>550</ele>
        <time>2018-08-15T08:43:02.269Z</time>
      </trkpt>
      <trkpt lat="45.48694" lon="4.66871">
        <ele>550</ele>
        <time>2018-08-15T08:43:03.238Z</time>
      </trkpt>
      <trkpt lat="45.48694" lon="4.66871">
        <ele>550</ele>
        <time>2018-08-15T08:43:04.256Z</time>
      </trkpt>
      <trkpt lat="45.48692" lon="4.66854">
        <ele>549</ele>
        <time>2018-08-15T08:43:05.264Z</time>
      </trkpt>
      <trkpt lat="45.48692" lon="4.66854">
        <ele>549</ele>
        <time>2018-08-15T08:43:06.258Z</time>
      </trkpt>
      <trkpt lat="45.48691" lon="4.66836">
        <ele>549</ele>
        <time>2018-08-15T08:43:07.235Z</time>
      </trkpt>
      <trkpt lat="45.48692" lon="4.66827">
        <ele>549</ele>
        <time>2018-08-15T08:43:08.233Z</time>
      </trkpt>
      <trkpt lat="45.48693" lon="4.66818">
        <ele>549</ele>
        <time>2018-08-15T08:43:09.261Z</time>
      </trkpt>
      <trkpt lat="45.48693" lon="4.66818">
        <ele>549</ele>
        <time>2018-08-15T08:43:10.245Z</time>
      </trkpt>
      <trkpt lat="45.48695" lon="4.66801">
        <ele>548</ele>
        <time>2018-08-15T08:43:11.252Z</time>
      </trkpt>
      <trkpt lat="45.48695" lon="4.66801">
        <ele>548</ele>
        <time>2018-08-15T08:43:12.251Z</time>
      </trkpt>
      <trkpt lat="45.48698" lon="4.66783">
        <ele>548</ele>
        <time>2018-08-15T08:43:13.259Z</time>
      </trkpt>
      <trkpt lat="45.48698" lon="4.66783">
        <ele>548</ele>
        <time>2018-08-15T08:43:14.260Z</time>
      </trkpt>
      <trkpt lat="45.48701" lon="4.66764">
        <ele>547</ele>
        <time>2018-08-15T08:43:15.270Z</time>
      </trkpt>
      <trkpt lat="45.48701" lon="4.66764">
        <ele>547</ele>
        <time>2018-08-15T08:43:16.259Z</time>
      </trkpt>
      <trkpt lat="45.48704" lon="4.66745">
        <ele>547</ele>
        <time>2018-08-15T08:43:17.236Z</time>
      </trkpt>
      <trkpt lat="45.48704" lon="4.66745">
        <ele>547</ele>
        <time>2018-08-15T08:43:18.263Z</time>
      </trkpt>
      <trkpt lat="45.48708" lon="4.66726">
        <ele>546</ele>
        <time>2018-08-15T08:43:19.271Z</time>
      </trkpt>
      <trkpt lat="45.4871" lon="4.66717">
        <ele>546</ele>
        <time>2018-08-15T08:43:20.235Z</time>
      </trkpt>
      <trkpt lat="45.48712" lon="4.66707">
        <ele>546</ele>
        <time>2018-08-15T08:43:21.262Z</time>
      </trkpt>
      <trkpt lat="45.48712" lon="4.66707">
        <ele>546</ele>
        <time>2018-08-15T08:43:22.244Z</time>
      </trkpt>
      <trkpt lat="45.48716" lon="4.66689">
        <ele>546</ele>
        <time>2018-08-15T08:43:23.256Z</time>
      </trkpt>
      <trkpt lat="45.48716" lon="4.66689">
        <ele>546</ele>
        <time>2018-08-15T08:43:24.254Z</time>
      </trkpt>
      <trkpt lat="45.48721" lon="4.6667">
        <ele>545</ele>
        <time>2018-08-15T08:43:25.266Z</time>
      </trkpt>
      <trkpt lat="45.48721" lon="4.6667">
        <ele>545</ele>
        <time>2018-08-15T08:43:26.269Z</time>
      </trkpt>
      <trkpt lat="45.48726" lon="4.66652">
        <ele>545</ele>
        <time>2018-08-15T08:43:27.239Z</time>
      </trkpt>
      <trkpt lat="45.48726" lon="4.66652">
        <ele>545</ele>
        <time>2018-08-15T08:43:28.266Z</time>
      </trkpt>
      <trkpt lat="45.48733" lon="4.66634">
        <ele>544</ele>
        <time>2018-08-15T08:43:29.236Z</time>
      </trkpt>
      <trkpt lat="45.48737" lon="4.66626">
        <ele>544</ele>
        <time>2018-08-15T08:43:30.278Z</time>
      </trkpt>
      <trkpt lat="45.48737" lon="4.66626">
        <ele>544</ele>
        <time>2018-08-15T08:43:31.269Z</time>
      </trkpt>
      <trkpt lat="45.48747" lon="4.66609">
        <ele>543</ele>
        <time>2018-08-15T08:43:32.244Z</time>
      </trkpt>
      <trkpt lat="45.48752" lon="4.66603">
        <ele>543</ele>
        <time>2018-08-15T08:43:33.237Z</time>
      </trkpt>
      <trkpt lat="45.48752" lon="4.66603">
        <ele>543</ele>
        <time>2018-08-15T08:43:34.237Z</time>
      </trkpt>
      <trkpt lat="45.48764" lon="4.6659">
        <ele>543</ele>
        <time>2018-08-15T08:43:35.246Z</time>
      </trkpt>
      <trkpt lat="45.48764" lon="4.6659">
        <ele>543</ele>
        <time>2018-08-15T08:43:36.257Z</time>
      </trkpt>
      <trkpt lat="45.48776" lon="4.66579">
        <ele>543</ele>
        <time>2018-08-15T08:43:37.259Z</time>
      </trkpt>
      <trkpt lat="45.48776" lon="4.66579">
        <ele>543</ele>
        <time>2018-08-15T08:43:38.244Z</time>
      </trkpt>
      <trkpt lat="45.48789" lon="4.66569">
        <ele>542</ele>
        <time>2018-08-15T08:43:39.253Z</time>
      </trkpt>
      <trkpt lat="45.48789" lon="4.66569">
        <ele>542</ele>
        <time>2018-08-15T08:43:40.240Z</time>
      </trkpt>
      <trkpt lat="45.48803" lon="4.66563">
        <ele>542</ele>
        <time>2018-08-15T08:43:41.258Z</time>
      </trkpt>
      <trkpt lat="45.48803" lon="4.66563">
        <ele>542</ele>
        <time>2018-08-15T08:43:42.248Z</time>
      </trkpt>
      <trkpt lat="45.48816" lon="4.66557">
        <ele>542</ele>
        <time>2018-08-15T08:43:43.258Z</time>
      </trkpt>
      <trkpt lat="45.48816" lon="4.66557">
        <ele>542</ele>
        <time>2018-08-15T08:43:44.244Z</time>
      </trkpt>
      <trkpt lat="45.4883" lon="4.66552">
        <ele>541</ele>
        <time>2018-08-15T08:43:45.254Z</time>
      </trkpt>
      <trkpt lat="45.4883" lon="4.66552">
        <ele>541</ele>
        <time>2018-08-15T08:43:46.252Z</time>
      </trkpt>
      <trkpt lat="45.48843" lon="4.66549">
        <ele>541</ele>
        <time>2018-08-15T08:43:47.240Z</time>
      </trkpt>
      <trkpt lat="45.48843" lon="4.66549">
        <ele>541</ele>
        <time>2018-08-15T08:43:48.248Z</time>
      </trkpt>
      <trkpt lat="45.48857" lon="4.66546">
        <ele>540</ele>
        <time>2018-08-15T08:43:49.257Z</time>
      </trkpt>
      <trkpt lat="45.48857" lon="4.66546">
        <ele>540</ele>
        <time>2018-08-15T08:43:50.253Z</time>
      </trkpt>
      <trkpt lat="45.48871" lon="4.66545">
        <ele>540</ele>
        <time>2018-08-15T08:43:51.265Z</time>
      </trkpt>
      <trkpt lat="45.48871" lon="4.66545">
        <ele>540</ele>
        <time>2018-08-15T08:43:52.249Z</time>
      </trkpt>
      <trkpt lat="45.48885" lon="4.66544">
        <ele>540</ele>
        <time>2018-08-15T08:43:53.257Z</time>
      </trkpt>
      <trkpt lat="45.48885" lon="4.66544">
        <ele>540</ele>
        <time>2018-08-15T08:43:54.243Z</time>
      </trkpt>
      <trkpt lat="45.48899" lon="4.66543">
        <ele>539</ele>
        <time>2018-08-15T08:43:55.252Z</time>
      </trkpt>
      <trkpt lat="45.48899" lon="4.66543">
        <ele>539</ele>
        <time>2018-08-15T08:43:56.261Z</time>
      </trkpt>
      <trkpt lat="45.48913" lon="4.66538">
        <ele>539</ele>
        <time>2018-08-15T08:43:57.269Z</time>
      </trkpt>
      <trkpt lat="45.48913" lon="4.66538">
        <ele>539</ele>
        <time>2018-08-15T08:43:58.257Z</time>
      </trkpt>
      <trkpt lat="45.48926" lon="4.6653">
        <ele>538</ele>
        <time>2018-08-15T08:43:59.251Z</time>
      </trkpt>
      <trkpt lat="45.48932" lon="4.66524">
        <ele>538</ele>
        <time>2018-08-15T08:44:00.249Z</time>
      </trkpt>
      <trkpt lat="45.48932" lon="4.66524">
        <ele>538</ele>
        <time>2018-08-15T08:44:01.244Z</time>
      </trkpt>
      <trkpt lat="45.48943" lon="4.66512">
        <ele>537</ele>
        <time>2018-08-15T08:44:02.256Z</time>
      </trkpt>
      <trkpt lat="45.48948" lon="4.66505">
        <ele>537</ele>
        <time>2018-08-15T08:44:03.258Z</time>
      </trkpt>
      <trkpt lat="45.48948" lon="4.66505">
        <ele>537</ele>
        <time>2018-08-15T08:44:04.247Z</time>
      </trkpt>
      <trkpt lat="45.4896" lon="4.66492">
        <ele>537</ele>
        <time>2018-08-15T08:44:05.260Z</time>
      </trkpt>
      <trkpt lat="45.4896" lon="4.66492">
        <ele>537</ele>
        <time>2018-08-15T08:44:06.259Z</time>
      </trkpt>
      <trkpt lat="45.48973" lon="4.66482">
        <ele>536</ele>
        <time>2018-08-15T08:44:07.232Z</time>
      </trkpt>
      <trkpt lat="45.48973" lon="4.66482">
        <ele>536</ele>
        <time>2018-08-15T08:44:08.247Z</time>
      </trkpt>
      <trkpt lat="45.48986" lon="4.66473">
        <ele>536</ele>
        <time>2018-08-15T08:44:09.258Z</time>
      </trkpt>
      <trkpt lat="45.48986" lon="4.66473">
        <ele>536</ele>
        <time>2018-08-15T08:44:10.243Z</time>
      </trkpt>
      <trkpt lat="45.49" lon="4.66467">
        <ele>535</ele>
        <time>2018-08-15T08:44:11.259Z</time>
      </trkpt>
      <trkpt lat="45.49" lon="4.66467">
        <ele>535</ele>
        <time>2018-08-15T08:44:12.246Z</time>
      </trkpt>
      <trkpt lat="45.49015" lon="4.66462">
        <ele>535</ele>
        <time>2018-08-15T08:44:13.270Z</time>
      </trkpt>
      <trkpt lat="45.49015" lon="4.66462">
        <ele>535</ele>
        <time>2018-08-15T08:44:14.265Z</time>
      </trkpt>
      <trkpt lat="45.4903" lon="4.66457">
        <ele>534</ele>
        <time>2018-08-15T08:44:15.272Z</time>
      </trkpt>
      <trkpt lat="45.4903" lon="4.66457">
        <ele>534</ele>
        <time>2018-08-15T08:44:16.239Z</time>
      </trkpt>
      <trkpt lat="45.49046" lon="4.66454">
        <ele>533</ele>
        <time>2018-08-15T08:44:17.248Z</time>
      </trkpt>
      <trkpt lat="45.49046" lon="4.66454">
        <ele>533</ele>
        <time>2018-08-15T08:44:18.258Z</time>
      </trkpt>
      <trkpt lat="45.49062" lon="4.6645">
        <ele>533</ele>
        <time>2018-08-15T08:44:19.265Z</time>
      </trkpt>
      <trkpt lat="45.49062" lon="4.6645">
        <ele>533</ele>
        <time>2018-08-15T08:44:20.248Z</time>
      </trkpt>
      <trkpt lat="45.49077" lon="4.66446">
        <ele>532</ele>
        <time>2018-08-15T08:44:21.258Z</time>
      </trkpt>
      <trkpt lat="45.49077" lon="4.66446">
        <ele>532</ele>
        <time>2018-08-15T08:44:22.249Z</time>
      </trkpt>
      <trkpt lat="45.49093" lon="4.66444">
        <ele>532</ele>
        <time>2018-08-15T08:44:23.264Z</time>
      </trkpt>
      <trkpt lat="45.49102" lon="4.66444">
        <ele>531</ele>
        <time>2018-08-15T08:44:24.243Z</time>
      </trkpt>
      <trkpt lat="45.49102" lon="4.66444">
        <ele>531</ele>
        <time>2018-08-15T08:44:25.245Z</time>
      </trkpt>
      <trkpt lat="45.49118" lon="4.66444">
        <ele>530</ele>
        <time>2018-08-15T08:44:26.254Z</time>
      </trkpt>
      <trkpt lat="45.49126" lon="4.66444">
        <ele>530</ele>
        <time>2018-08-15T08:44:27.259Z</time>
      </trkpt>
      <trkpt lat="45.49135" lon="4.66443">
        <ele>529</ele>
        <time>2018-08-15T08:44:28.253Z</time>
      </trkpt>
      <trkpt lat="45.49135" lon="4.66443">
        <ele>529</ele>
        <time>2018-08-15T08:44:29.245Z</time>
      </trkpt>
      <trkpt lat="45.49151" lon="4.6644">
        <ele>529</ele>
        <time>2018-08-15T08:44:30.253Z</time>
      </trkpt>
      <trkpt lat="45.49159" lon="4.66438">
        <ele>529</ele>
        <time>2018-08-15T08:44:31.265Z</time>
      </trkpt>
      <trkpt lat="45.49159" lon="4.66438">
        <ele>529</ele>
        <time>2018-08-15T08:44:32.251Z</time>
      </trkpt>
      <trkpt lat="45.49175" lon="4.66435">
        <ele>528</ele>
        <time>2018-08-15T08:44:33.261Z</time>
      </trkpt>
      <trkpt lat="45.49175" lon="4.66435">
        <ele>528</ele>
        <time>2018-08-15T08:44:34.236Z</time>
      </trkpt>
      <trkpt lat="45.4919" lon="4.66431">
        <ele>528</ele>
        <time>2018-08-15T08:44:35.247Z</time>
      </trkpt>
      <trkpt lat="45.4919" lon="4.66431">
        <ele>528</ele>
        <time>2018-08-15T08:44:36.262Z</time>
      </trkpt>
      <trkpt lat="45.49204" lon="4.66427">
        <ele>527</ele>
        <time>2018-08-15T08:44:37.252Z</time>
      </trkpt>
      <trkpt lat="45.49204" lon="4.66427">
        <ele>527</ele>
        <time>2018-08-15T08:44:38.259Z</time>
      </trkpt>
      <trkpt lat="45.49218" lon="4.66425">
        <ele>527</ele>
        <time>2018-08-15T08:44:39.268Z</time>
      </trkpt>
      <trkpt lat="45.49218" lon="4.66425">
        <ele>527</ele>
        <time>2018-08-15T08:44:40.243Z</time>
      </trkpt>
      <trkpt lat="45.49231" lon="4.6642">
        <ele>527</ele>
        <time>2018-08-15T08:44:41.250Z</time>
      </trkpt>
      <trkpt lat="45.49238" lon="4.66418">
        <ele>526</ele>
        <time>2018-08-15T08:44:42.259Z</time>
      </trkpt>
      <trkpt lat="45.49238" lon="4.66418">
        <ele>526</ele>
        <time>2018-08-15T08:44:43.259Z</time>
      </trkpt>
      <trkpt lat="45.49249" lon="4.66417">
        <ele>526</ele>
        <time>2018-08-15T08:44:44.269Z</time>
      </trkpt>
      <trkpt lat="45.49249" lon="4.66417">
        <ele>526</ele>
        <time>2018-08-15T08:44:45.263Z</time>
      </trkpt>
      <trkpt lat="45.49259" lon="4.66424">
        <ele>525</ele>
        <time>2018-08-15T08:44:46.272Z</time>
      </trkpt>
      <trkpt lat="45.49259" lon="4.66424">
        <ele>525</ele>
        <time>2018-08-15T08:44:47.251Z</time>
      </trkpt>
      <trkpt lat="45.49265" lon="4.66439">
        <ele>524</ele>
        <time>2018-08-15T08:44:48.264Z</time>
      </trkpt>
      <trkpt lat="45.49265" lon="4.66439">
        <ele>524</ele>
        <time>2018-08-15T08:44:49.235Z</time>
      </trkpt>
      <trkpt lat="45.49271" lon="4.66457">
        <ele>524</ele>
        <time>2018-08-15T08:44:50.249Z</time>
      </trkpt>
      <trkpt lat="45.49273" lon="4.66466">
        <ele>524</ele>
        <time>2018-08-15T08:44:51.252Z</time>
      </trkpt>
      <trkpt lat="45.49273" lon="4.66466">
        <ele>524</ele>
        <time>2018-08-15T08:44:52.240Z</time>
      </trkpt>
      <trkpt lat="45.49278" lon="4.66486">
        <ele>523</ele>
        <time>2018-08-15T08:44:53.249Z</time>
      </trkpt>
      <trkpt lat="45.49278" lon="4.66486">
        <ele>523</ele>
        <time>2018-08-15T08:44:54.261Z</time>
      </trkpt>
      <trkpt lat="45.49283" lon="4.66506">
        <ele>523</ele>
        <time>2018-08-15T08:44:55.271Z</time>
      </trkpt>
      <trkpt lat="45.49283" lon="4.66506">
        <ele>523</ele>
        <time>2018-08-15T08:44:56.259Z</time>
      </trkpt>
      <trkpt lat="45.49288" lon="4.66528">
        <ele>522</ele>
        <time>2018-08-15T08:44:57.243Z</time>
      </trkpt>
      <trkpt lat="45.49288" lon="4.66528">
        <ele>522</ele>
        <time>2018-08-15T08:44:58.240Z</time>
      </trkpt>
      <trkpt lat="45.49295" lon="4.6655">
        <ele>522</ele>
        <time>2018-08-15T08:44:59.249Z</time>
      </trkpt>
      <trkpt lat="45.49295" lon="4.6655">
        <ele>522</ele>
        <time>2018-08-15T08:45:00.269Z</time>
      </trkpt>
      <trkpt lat="45.493" lon="4.66572">
        <ele>521</ele>
        <time>2018-08-15T08:45:01.236Z</time>
      </trkpt>
      <trkpt lat="45.493" lon="4.66572">
        <ele>521</ele>
        <time>2018-08-15T08:45:02.257Z</time>
      </trkpt>
      <trkpt lat="45.49305" lon="4.66595">
        <ele>521</ele>
        <time>2018-08-15T08:45:03.273Z</time>
      </trkpt>
      <trkpt lat="45.49305" lon="4.66595">
        <ele>521</ele>
        <time>2018-08-15T08:45:04.244Z</time>
      </trkpt>
      <trkpt lat="45.49311" lon="4.66617">
        <ele>520</ele>
        <time>2018-08-15T08:45:05.251Z</time>
      </trkpt>
      <trkpt lat="45.49311" lon="4.66617">
        <ele>520</ele>
        <time>2018-08-15T08:45:06.243Z</time>
      </trkpt>
      <trkpt lat="45.49316" lon="4.66638">
        <ele>519</ele>
        <time>2018-08-15T08:45:07.252Z</time>
      </trkpt>
      <trkpt lat="45.49316" lon="4.66638">
        <ele>519</ele>
        <time>2018-08-15T08:45:08.256Z</time>
      </trkpt>
      <trkpt lat="45.49321" lon="4.66657">
        <ele>519</ele>
        <time>2018-08-15T08:45:09.266Z</time>
      </trkpt>
      <trkpt lat="45.49321" lon="4.66657">
        <ele>519</ele>
        <time>2018-08-15T08:45:10.252Z</time>
      </trkpt>
      <trkpt lat="45.49326" lon="4.66677">
        <ele>518</ele>
        <time>2018-08-15T08:45:11.263Z</time>
      </trkpt>
      <trkpt lat="45.49326" lon="4.66677">
        <ele>518</ele>
        <time>2018-08-15T08:45:12.257Z</time>
      </trkpt>
      <trkpt lat="45.49329" lon="4.66695">
        <ele>518</ele>
        <time>2018-08-15T08:45:13.267Z</time>
      </trkpt>
      <trkpt lat="45.49329" lon="4.66695">
        <ele>518</ele>
        <time>2018-08-15T08:45:14.267Z</time>
      </trkpt>
      <trkpt lat="45.49336" lon="4.66711">
        <ele>517</ele>
        <time>2018-08-15T08:45:15.232Z</time>
      </trkpt>
      <trkpt lat="45.49336" lon="4.66711">
        <ele>517</ele>
        <time>2018-08-15T08:45:16.259Z</time>
      </trkpt>
      <trkpt lat="45.49346" lon="4.66722">
        <ele>516</ele>
        <time>2018-08-15T08:45:17.270Z</time>
      </trkpt>
      <trkpt lat="45.49346" lon="4.66722">
        <ele>516</ele>
        <time>2018-08-15T08:45:18.261Z</time>
      </trkpt>
      <trkpt lat="45.49357" lon="4.6673">
        <ele>516</ele>
        <time>2018-08-15T08:45:19.273Z</time>
      </trkpt>
      <trkpt lat="45.49357" lon="4.6673">
        <ele>516</ele>
        <time>2018-08-15T08:45:20.256Z</time>
      </trkpt>
      <trkpt lat="45.49369" lon="4.66738">
        <ele>515</ele>
        <time>2018-08-15T08:45:21.263Z</time>
      </trkpt>
      <trkpt lat="45.49369" lon="4.66738">
        <ele>515</ele>
        <time>2018-08-15T08:45:22.261Z</time>
      </trkpt>
      <trkpt lat="45.49381" lon="4.66745">
        <ele>515</ele>
        <time>2018-08-15T08:45:23.269Z</time>
      </trkpt>
      <trkpt lat="45.49381" lon="4.66745">
        <ele>515</ele>
        <time>2018-08-15T08:45:24.239Z</time>
      </trkpt>
      <trkpt lat="45.4939" lon="4.66758">
        <ele>514</ele>
        <time>2018-08-15T08:45:25.272Z</time>
      </trkpt>
      <trkpt lat="45.49396" lon="4.66766">
        <ele>514</ele>
        <time>2018-08-15T08:45:26.258Z</time>
      </trkpt>
      <trkpt lat="45.49401" lon="4.66776">
        <ele>514</ele>
        <time>2018-08-15T08:45:27.257Z</time>
      </trkpt>
      <trkpt lat="45.49401" lon="4.66776">
        <ele>514</ele>
        <time>2018-08-15T08:45:28.249Z</time>
      </trkpt>
      <trkpt lat="45.49409" lon="4.66797">
        <ele>513</ele>
        <time>2018-08-15T08:45:29.256Z</time>
      </trkpt>
      <trkpt lat="45.49409" lon="4.66797">
        <ele>513</ele>
        <time>2018-08-15T08:45:30.248Z</time>
      </trkpt>
      <trkpt lat="45.49412" lon="4.66821">
        <ele>513</ele>
        <time>2018-08-15T08:45:31.254Z</time>
      </trkpt>
      <trkpt lat="45.49411" lon="4.66832">
        <ele>513</ele>
        <time>2018-08-15T08:45:32.245Z</time>
      </trkpt>
      <trkpt lat="45.49411" lon="4.66832">
        <ele>513</ele>
        <time>2018-08-15T08:45:33.266Z</time>
      </trkpt>
      <trkpt lat="45.49406" lon="4.66852">
        <ele>513</ele>
        <time>2018-08-15T08:45:34.234Z</time>
      </trkpt>
      <trkpt lat="45.49406" lon="4.66852">
        <ele>513</ele>
        <time>2018-08-15T08:45:35.253Z</time>
      </trkpt>
      <trkpt lat="45.49396" lon="4.66868">
        <ele>512</ele>
        <time>2018-08-15T08:45:36.238Z</time>
      </trkpt>
      <trkpt lat="45.49396" lon="4.66868">
        <ele>512</ele>
        <time>2018-08-15T08:45:37.246Z</time>
      </trkpt>
      <trkpt lat="45.49388" lon="4.66882">
        <ele>511</ele>
        <time>2018-08-15T08:45:38.266Z</time>
      </trkpt>
      <trkpt lat="45.49388" lon="4.66882">
        <ele>511</ele>
        <time>2018-08-15T08:45:39.247Z</time>
      </trkpt>
      <trkpt lat="45.49382" lon="4.66897">
        <ele>510</ele>
        <time>2018-08-15T08:45:40.255Z</time>
      </trkpt>
      <trkpt lat="45.49382" lon="4.66897">
        <ele>510</ele>
        <time>2018-08-15T08:45:41.263Z</time>
      </trkpt>
      <trkpt lat="45.49383" lon="4.66912">
        <ele>509</ele>
        <time>2018-08-15T08:45:42.271Z</time>
      </trkpt>
      <trkpt lat="45.49383" lon="4.66912">
        <ele>509</ele>
        <time>2018-08-15T08:45:43.254Z</time>
      </trkpt>
      <trkpt lat="45.49394" lon="4.66926">
        <ele>509</ele>
        <time>2018-08-15T08:45:44.262Z</time>
      </trkpt>
      <trkpt lat="45.49398" lon="4.66934">
        <ele>508</ele>
        <time>2018-08-15T08:45:45.251Z</time>
      </trkpt>
      <trkpt lat="45.49398" lon="4.66934">
        <ele>508</ele>
        <time>2018-08-15T08:45:46.267Z</time>
      </trkpt>
      <trkpt lat="45.49405" lon="4.66951">
        <ele>507</ele>
        <time>2018-08-15T08:45:47.278Z</time>
      </trkpt>
      <trkpt lat="45.49408" lon="4.6696">
        <ele>507</ele>
        <time>2018-08-15T08:45:48.237Z</time>
      </trkpt>
      <trkpt lat="45.49408" lon="4.6696">
        <ele>507</ele>
        <time>2018-08-15T08:45:49.249Z</time>
      </trkpt>
      <trkpt lat="45.49417" lon="4.66971">
        <ele>506</ele>
        <time>2018-08-15T08:45:50.257Z</time>
      </trkpt>
      <trkpt lat="45.49424" lon="4.66976">
        <ele>506</ele>
        <time>2018-08-15T08:45:51.232Z</time>
      </trkpt>
      <trkpt lat="45.49424" lon="4.66976">
        <ele>506</ele>
        <time>2018-08-15T08:45:52.269Z</time>
      </trkpt>
      <trkpt lat="45.49438" lon="4.6698">
        <ele>505</ele>
        <time>2018-08-15T08:45:53.259Z</time>
      </trkpt>
      <trkpt lat="45.49438" lon="4.6698">
        <ele>505</ele>
        <time>2018-08-15T08:45:54.239Z</time>
      </trkpt>
      <trkpt lat="45.49454" lon="4.66986">
        <ele>505</ele>
        <time>2018-08-15T08:45:55.248Z</time>
      </trkpt>
      <trkpt lat="45.49454" lon="4.66986">
        <ele>505</ele>
        <time>2018-08-15T08:45:56.234Z</time>
      </trkpt>
      <trkpt lat="45.49469" lon="4.66994">
        <ele>505</ele>
        <time>2018-08-15T08:45:57.255Z</time>
      </trkpt>
      <trkpt lat="45.49469" lon="4.66994">
        <ele>505</ele>
        <time>2018-08-15T08:45:58.259Z</time>
      </trkpt>
      <trkpt lat="45.49484" lon="4.67007">
        <ele>504</ele>
        <time>2018-08-15T08:45:59.268Z</time>
      </trkpt>
      <trkpt lat="45.49484" lon="4.67007">
        <ele>504</ele>
        <time>2018-08-15T08:46:00.234Z</time>
      </trkpt>
      <trkpt lat="45.49494" lon="4.67023">
        <ele>503</ele>
        <time>2018-08-15T08:46:01.250Z</time>
      </trkpt>
      <trkpt lat="45.49497" lon="4.67034">
        <ele>503</ele>
        <time>2018-08-15T08:46:02.242Z</time>
      </trkpt>
      <trkpt lat="45.49497" lon="4.67034">
        <ele>503</ele>
        <time>2018-08-15T08:46:03.257Z</time>
      </trkpt>
      <trkpt lat="45.49503" lon="4.67056">
        <ele>502</ele>
        <time>2018-08-15T08:46:04.268Z</time>
      </trkpt>
      <trkpt lat="45.49503" lon="4.67056">
        <ele>502</ele>
        <time>2018-08-15T08:46:05.250Z</time>
      </trkpt>
      <trkpt lat="45.49511" lon="4.67077">
        <ele>501</ele>
        <time>2018-08-15T08:46:06.259Z</time>
      </trkpt>
      <trkpt lat="45.49511" lon="4.67077">
        <ele>501</ele>
        <time>2018-08-15T08:46:07.253Z</time>
      </trkpt>
      <trkpt lat="45.49523" lon="4.67095">
        <ele>501</ele>
        <time>2018-08-15T08:46:08.261Z</time>
      </trkpt>
      <trkpt lat="45.49528" lon="4.67103">
        <ele>500</ele>
        <time>2018-08-15T08:46:09.259Z</time>
      </trkpt>
      <trkpt lat="45.49534" lon="4.67111">
        <ele>500</ele>
        <time>2018-08-15T08:46:10.256Z</time>
      </trkpt>
      <trkpt lat="45.49534" lon="4.67111">
        <ele>500</ele>
        <time>2018-08-15T08:46:11.256Z</time>
      </trkpt>
      <trkpt lat="45.49545" lon="4.67128">
        <ele>500</ele>
        <time>2018-08-15T08:46:12.265Z</time>
      </trkpt>
      <trkpt lat="45.49551" lon="4.67136">
        <ele>500</ele>
        <time>2018-08-15T08:46:13.255Z</time>
      </trkpt>
      <trkpt lat="45.49551" lon="4.67136">
        <ele>500</ele>
        <time>2018-08-15T08:46:14.243Z</time>
      </trkpt>
      <trkpt lat="45.49566" lon="4.67149">
        <ele>500</ele>
        <time>2018-08-15T08:46:15.252Z</time>
      </trkpt>
      <trkpt lat="45.49566" lon="4.67149">
        <ele>500</ele>
        <time>2018-08-15T08:46:16.258Z</time>
      </trkpt>
      <trkpt lat="45.49582" lon="4.67161">
        <ele>500</ele>
        <time>2018-08-15T08:46:17.267Z</time>
      </trkpt>
      <trkpt lat="45.49589" lon="4.67165">
        <ele>500</ele>
        <time>2018-08-15T08:46:18.258Z</time>
      </trkpt>
      <trkpt lat="45.49589" lon="4.67165">
        <ele>500</ele>
        <time>2018-08-15T08:46:19.255Z</time>
      </trkpt>
      <trkpt lat="45.49604" lon="4.67178">
        <ele>499</ele>
        <time>2018-08-15T08:46:20.266Z</time>
      </trkpt>
      <trkpt lat="45.4961" lon="4.67188">
        <ele>499</ele>
        <time>2018-08-15T08:46:21.233Z</time>
      </trkpt>
      <trkpt lat="45.4961" lon="4.67188">
        <ele>499</ele>
        <time>2018-08-15T08:46:22.236Z</time>
      </trkpt>
      <trkpt lat="45.49617" lon="4.67208">
        <ele>498</ele>
        <time>2018-08-15T08:46:23.245Z</time>
      </trkpt>
      <trkpt lat="45.49617" lon="4.67208">
        <ele>498</ele>
        <time>2018-08-15T08:46:24.259Z</time>
      </trkpt>
      <trkpt lat="45.49619" lon="4.67229">
        <ele>498</ele>
        <time>2018-08-15T08:46:25.269Z</time>
      </trkpt>
      <trkpt lat="45.49619" lon="4.67229">
        <ele>498</ele>
        <time>2018-08-15T08:46:26.259Z</time>
      </trkpt>
      <trkpt lat="45.49616" lon="4.6725">
        <ele>497</ele>
        <time>2018-08-15T08:46:27.278Z</time>
      </trkpt>
      <trkpt lat="45.49616" lon="4.6725">
        <ele>497</ele>
        <time>2018-08-15T08:46:28.249Z</time>
      </trkpt>
      <trkpt lat="45.49608" lon="4.67267">
        <ele>497</ele>
        <time>2018-08-15T08:46:29.298Z</time>
      </trkpt>
      <trkpt lat="45.49608" lon="4.67267">
        <ele>497</ele>
        <time>2018-08-15T08:46:30.245Z</time>
      </trkpt>
      <trkpt lat="45.496" lon="4.67284">
        <ele>496</ele>
        <time>2018-08-15T08:46:31.255Z</time>
      </trkpt>
      <trkpt lat="45.496" lon="4.67284">
        <ele>496</ele>
        <time>2018-08-15T08:46:32.251Z</time>
      </trkpt>
      <trkpt lat="45.49593" lon="4.67303">
        <ele>496</ele>
        <time>2018-08-15T08:46:33.266Z</time>
      </trkpt>
      <trkpt lat="45.49593" lon="4.67303">
        <ele>496</ele>
        <time>2018-08-15T08:46:34.265Z</time>
      </trkpt>
      <trkpt lat="45.49596" lon="4.67322">
        <ele>495</ele>
        <time>2018-08-15T08:46:35.232Z</time>
      </trkpt>
      <trkpt lat="45.49596" lon="4.67322">
        <ele>495</ele>
        <time>2018-08-15T08:46:36.265Z</time>
      </trkpt>
      <trkpt lat="45.49605" lon="4.67338">
        <ele>495</ele>
        <time>2018-08-15T08:46:37.256Z</time>
      </trkpt>
      <trkpt lat="45.49605" lon="4.67338">
        <ele>495</ele>
        <time>2018-08-15T08:46:38.265Z</time>
      </trkpt>
      <trkpt lat="45.49618" lon="4.67349">
        <ele>494</ele>
        <time>2018-08-15T08:46:39.241Z</time>
      </trkpt>
      <trkpt lat="45.49618" lon="4.67349">
        <ele>494</ele>
        <time>2018-08-15T08:46:40.247Z</time>
      </trkpt>
      <trkpt lat="45.49631" lon="4.67359">
        <ele>494</ele>
        <time>2018-08-15T08:46:41.254Z</time>
      </trkpt>
      <trkpt lat="45.49631" lon="4.67359">
        <ele>494</ele>
        <time>2018-08-15T08:46:42.243Z</time>
      </trkpt>
      <trkpt lat="45.49645" lon="4.67369">
        <ele>493</ele>
        <time>2018-08-15T08:46:43.254Z</time>
      </trkpt>
      <trkpt lat="45.49645" lon="4.67369">
        <ele>493</ele>
        <time>2018-08-15T08:46:44.267Z</time>
      </trkpt>
      <trkpt lat="45.49656" lon="4.67385">
        <ele>493</ele>
        <time>2018-08-15T08:46:45.236Z</time>
      </trkpt>
      <trkpt lat="45.49656" lon="4.67385">
        <ele>493</ele>
        <time>2018-08-15T08:46:46.259Z</time>
      </trkpt>
      <trkpt lat="45.4967" lon="4.67403">
        <ele>492</ele>
        <time>2018-08-15T08:46:47.269Z</time>
      </trkpt>
      <trkpt lat="45.49676" lon="4.67412">
        <ele>492</ele>
        <time>2018-08-15T08:46:48.258Z</time>
      </trkpt>
      <trkpt lat="45.49676" lon="4.67412">
        <ele>492</ele>
        <time>2018-08-15T08:46:49.258Z</time>
      </trkpt>
      <trkpt lat="45.49688" lon="4.67431">
        <ele>491</ele>
        <time>2018-08-15T08:46:50.267Z</time>
      </trkpt>
      <trkpt lat="45.49694" lon="4.6744">
        <ele>490</ele>
        <time>2018-08-15T08:46:51.236Z</time>
      </trkpt>
      <trkpt lat="45.49694" lon="4.6744">
        <ele>490</ele>
        <time>2018-08-15T08:46:52.266Z</time>
      </trkpt>
      <trkpt lat="45.49705" lon="4.67456">
        <ele>489</ele>
        <time>2018-08-15T08:46:53.280Z</time>
      </trkpt>
      <trkpt lat="45.49705" lon="4.67456">
        <ele>489</ele>
        <time>2018-08-15T08:46:54.269Z</time>
      </trkpt>
      <trkpt lat="45.49712" lon="4.67472">
        <ele>488</ele>
        <time>2018-08-15T08:46:55.237Z</time>
      </trkpt>
      <trkpt lat="45.49712" lon="4.67472">
        <ele>488</ele>
        <time>2018-08-15T08:46:56.233Z</time>
      </trkpt>
      <trkpt lat="45.49715" lon="4.67492">
        <ele>488</ele>
        <time>2018-08-15T08:46:57.248Z</time>
      </trkpt>
      <trkpt lat="45.49715" lon="4.67492">
        <ele>488</ele>
        <time>2018-08-15T08:46:58.270Z</time>
      </trkpt>
      <trkpt lat="45.49712" lon="4.6751">
        <ele>487</ele>
        <time>2018-08-15T08:46:59.242Z</time>
      </trkpt>
      <trkpt lat="45.49712" lon="4.6751">
        <ele>487</ele>
        <time>2018-08-15T08:47:00.234Z</time>
      </trkpt>
      <trkpt lat="45.49703" lon="4.67526">
        <ele>487</ele>
        <time>2018-08-15T08:47:01.262Z</time>
      </trkpt>
      <trkpt lat="45.49698" lon="4.67533">
        <ele>486</ele>
        <time>2018-08-15T08:47:02.267Z</time>
      </trkpt>
      <trkpt lat="45.49692" lon="4.6754">
        <ele>486</ele>
        <time>2018-08-15T08:47:03.265Z</time>
      </trkpt>
      <trkpt lat="45.49692" lon="4.6754">
        <ele>486</ele>
        <time>2018-08-15T08:47:04.268Z</time>
      </trkpt>
      <trkpt lat="45.4968" lon="4.67552">
        <ele>485</ele>
        <time>2018-08-15T08:47:05.238Z</time>
      </trkpt>
      <trkpt lat="45.4968" lon="4.67552">
        <ele>485</ele>
        <time>2018-08-15T08:47:06.243Z</time>
      </trkpt>
      <trkpt lat="45.49668" lon="4.67568">
        <ele>484</ele>
        <time>2018-08-15T08:47:07.251Z</time>
      </trkpt>
      <trkpt lat="45.49668" lon="4.67568">
        <ele>484</ele>
        <time>2018-08-15T08:47:08.246Z</time>
      </trkpt>
      <trkpt lat="45.49656" lon="4.67582">
        <ele>484</ele>
        <time>2018-08-15T08:47:09.258Z</time>
      </trkpt>
      <trkpt lat="45.49656" lon="4.67582">
        <ele>484</ele>
        <time>2018-08-15T08:47:10.259Z</time>
      </trkpt>
      <trkpt lat="45.49646" lon="4.67595">
        <ele>483</ele>
        <time>2018-08-15T08:47:11.269Z</time>
      </trkpt>
      <trkpt lat="45.49642" lon="4.67601">
        <ele>483</ele>
        <time>2018-08-15T08:47:12.278Z</time>
      </trkpt>
      <trkpt lat="45.49642" lon="4.67601">
        <ele>483</ele>
        <time>2018-08-15T08:47:13.264Z</time>
      </trkpt>
      <trkpt lat="45.49641" lon="4.67617">
        <ele>482</ele>
        <time>2018-08-15T08:47:14.232Z</time>
      </trkpt>
      <trkpt lat="45.49644" lon="4.67623">
        <ele>482</ele>
        <time>2018-08-15T08:47:15.261Z</time>
      </trkpt>
      <trkpt lat="45.49644" lon="4.67623">
        <ele>482</ele>
        <time>2018-08-15T08:47:16.251Z</time>
      </trkpt>
      <trkpt lat="45.49652" lon="4.67632">
        <ele>481</ele>
        <time>2018-08-15T08:47:17.233Z</time>
      </trkpt>
      <trkpt lat="45.49652" lon="4.67632">
        <ele>481</ele>
        <time>2018-08-15T08:47:18.259Z</time>
      </trkpt>
      <trkpt lat="45.49665" lon="4.67635">
        <ele>481</ele>
        <time>2018-08-15T08:47:19.269Z</time>
      </trkpt>
      <trkpt lat="45.49665" lon="4.67635">
        <ele>481</ele>
        <time>2018-08-15T08:47:20.271Z</time>
      </trkpt>
      <trkpt lat="45.49678" lon="4.67637">
        <ele>481</ele>
        <time>2018-08-15T08:47:21.239Z</time>
      </trkpt>
      <trkpt lat="45.49678" lon="4.67637">
        <ele>481</ele>
        <time>2018-08-15T08:47:22.263Z</time>
      </trkpt>
      <trkpt lat="45.49694" lon="4.67641">
        <ele>479</ele>
        <time>2018-08-15T08:47:23.232Z</time>
      </trkpt>
      <trkpt lat="45.49694" lon="4.67641">
        <ele>479</ele>
        <time>2018-08-15T08:47:24.254Z</time>
      </trkpt>
      <trkpt lat="45.49711" lon="4.67647">
        <ele>478</ele>
        <time>2018-08-15T08:47:25.261Z</time>
      </trkpt>
      <trkpt lat="45.49711" lon="4.67647">
        <ele>478</ele>
        <time>2018-08-15T08:47:26.256Z</time>
      </trkpt>
      <trkpt lat="45.49728" lon="4.67656">
        <ele>477</ele>
        <time>2018-08-15T08:47:27.270Z</time>
      </trkpt>
      <trkpt lat="45.49728" lon="4.67656">
        <ele>477</ele>
        <time>2018-08-15T08:47:28.250Z</time>
      </trkpt>
      <trkpt lat="45.49745" lon="4.67668">
        <ele>475</ele>
        <time>2018-08-15T08:47:29.259Z</time>
      </trkpt>
      <trkpt lat="45.49745" lon="4.67668">
        <ele>475</ele>
        <time>2018-08-15T08:47:30.248Z</time>
      </trkpt>
      <trkpt lat="45.4976" lon="4.67681">
        <ele>474</ele>
        <time>2018-08-15T08:47:31.259Z</time>
      </trkpt>
      <trkpt lat="45.4976" lon="4.67681">
        <ele>474</ele>
        <time>2018-08-15T08:47:32.258Z</time>
      </trkpt>
      <trkpt lat="45.49773" lon="4.67698">
        <ele>473</ele>
        <time>2018-08-15T08:47:33.267Z</time>
      </trkpt>
      <trkpt lat="45.49773" lon="4.67698">
        <ele>473</ele>
        <time>2018-08-15T08:47:34.264Z</time>
      </trkpt>
      <trkpt lat="45.49786" lon="4.67717">
        <ele>472</ele>
        <time>2018-08-15T08:47:35.233Z</time>
      </trkpt>
      <trkpt lat="45.49786" lon="4.67717">
        <ele>472</ele>
        <time>2018-08-15T08:47:36.256Z</time>
      </trkpt>
      <trkpt lat="45.49796" lon="4.67736">
        <ele>472</ele>
        <time>2018-08-15T08:47:37.234Z</time>
      </trkpt>
      <trkpt lat="45.49796" lon="4.67736">
        <ele>472</ele>
        <time>2018-08-15T08:47:38.262Z</time>
      </trkpt>
      <trkpt lat="45.49804" lon="4.67754">
        <ele>471</ele>
        <time>2018-08-15T08:47:39.239Z</time>
      </trkpt>
      <trkpt lat="45.49804" lon="4.67754">
        <ele>471</ele>
        <time>2018-08-15T08:47:40.241Z</time>
      </trkpt>
      <trkpt lat="45.49812" lon="4.6777">
        <ele>471</ele>
        <time>2018-08-15T08:47:41.249Z</time>
      </trkpt>
      <trkpt lat="45.49812" lon="4.6777">
        <ele>471</ele>
        <time>2018-08-15T08:47:42.234Z</time>
      </trkpt>
      <trkpt lat="45.49823" lon="4.67783">
        <ele>471</ele>
        <time>2018-08-15T08:47:43.248Z</time>
      </trkpt>
      <trkpt lat="45.49823" lon="4.67783">
        <ele>471</ele>
        <time>2018-08-15T08:47:44.266Z</time>
      </trkpt>
      <trkpt lat="45.49834" lon="4.67794">
        <ele>471</ele>
        <time>2018-08-15T08:47:45.257Z</time>
      </trkpt>
      <trkpt lat="45.49834" lon="4.67794">
        <ele>471</ele>
        <time>2018-08-15T08:47:46.259Z</time>
      </trkpt>
      <trkpt lat="45.49846" lon="4.67804">
        <ele>471</ele>
        <time>2018-08-15T08:47:47.250Z</time>
      </trkpt>
      <trkpt lat="45.49846" lon="4.67804">
        <ele>471</ele>
        <time>2018-08-15T08:47:48.259Z</time>
      </trkpt>
      <trkpt lat="45.49856" lon="4.67813">
        <ele>471</ele>
        <time>2018-08-15T08:47:49.267Z</time>
      </trkpt>
      <trkpt lat="45.49856" lon="4.67813">
        <ele>471</ele>
        <time>2018-08-15T08:47:50.232Z</time>
      </trkpt>
      <trkpt lat="45.49867" lon="4.67822">
        <ele>471</ele>
        <time>2018-08-15T08:47:51.242Z</time>
      </trkpt>
      <trkpt lat="45.49867" lon="4.67822">
        <ele>471</ele>
        <time>2018-08-15T08:47:52.259Z</time>
      </trkpt>
      <trkpt lat="45.49876" lon="4.6783">
        <ele>472</ele>
        <time>2018-08-15T08:47:53.267Z</time>
      </trkpt>
      <trkpt lat="45.49876" lon="4.6783">
        <ele>472</ele>
        <time>2018-08-15T08:47:54.270Z</time>
      </trkpt>
      <trkpt lat="45.49885" lon="4.67837">
        <ele>472</ele>
        <time>2018-08-15T08:47:55.242Z</time>
      </trkpt>
      <trkpt lat="45.49885" lon="4.67837">
        <ele>472</ele>
        <time>2018-08-15T08:47:56.265Z</time>
      </trkpt>
      <trkpt lat="45.49893" lon="4.67843">
        <ele>472</ele>
        <time>2018-08-15T08:47:57.334Z</time>
      </trkpt>
      <trkpt lat="45.49893" lon="4.67843">
        <ele>472</ele>
        <time>2018-08-15T08:47:58.242Z</time>
      </trkpt>
      <trkpt lat="45.499" lon="4.6785">
        <ele>472</ele>
        <time>2018-08-15T08:47:59.252Z</time>
      </trkpt>
      <trkpt lat="45.499" lon="4.6785">
        <ele>472</ele>
        <time>2018-08-15T08:48:00.258Z</time>
      </trkpt>
      <trkpt lat="45.49908" lon="4.67857">
        <ele>472</ele>
        <time>2018-08-15T08:48:01.266Z</time>
      </trkpt>
      <trkpt lat="45.49908" lon="4.67857">
        <ele>472</ele>
        <time>2018-08-15T08:48:02.258Z</time>
      </trkpt>
      <trkpt lat="45.49915" lon="4.6787">
        <ele>471</ele>
        <time>2018-08-15T08:48:03.269Z</time>
      </trkpt>
      <trkpt lat="45.49915" lon="4.6787">
        <ele>471</ele>
        <time>2018-08-15T08:48:04.243Z</time>
      </trkpt>
      <trkpt lat="45.4992" lon="4.67886">
        <ele>471</ele>
        <time>2018-08-15T08:48:05.253Z</time>
      </trkpt>
      <trkpt lat="45.4992" lon="4.67886">
        <ele>471</ele>
        <time>2018-08-15T08:48:06.241Z</time>
      </trkpt>
      <trkpt lat="45.49923" lon="4.67907">
        <ele>471</ele>
        <time>2018-08-15T08:48:07.252Z</time>
      </trkpt>
      <trkpt lat="45.49923" lon="4.67907">
        <ele>471</ele>
        <time>2018-08-15T08:48:08.253Z</time>
      </trkpt>
      <trkpt lat="45.49925" lon="4.67928">
        <ele>470</ele>
        <time>2018-08-15T08:48:09.262Z</time>
      </trkpt>
      <trkpt lat="45.49925" lon="4.67928">
        <ele>470</ele>
        <time>2018-08-15T08:48:10.253Z</time>
      </trkpt>
      <trkpt lat="45.49921" lon="4.67947">
        <ele>469</ele>
        <time>2018-08-15T08:48:11.264Z</time>
      </trkpt>
      <trkpt lat="45.49921" lon="4.67947">
        <ele>469</ele>
        <time>2018-08-15T08:48:12.242Z</time>
      </trkpt>
      <trkpt lat="45.49912" lon="4.67963">
        <ele>469</ele>
        <time>2018-08-15T08:48:13.258Z</time>
      </trkpt>
      <trkpt lat="45.49912" lon="4.67963">
        <ele>469</ele>
        <time>2018-08-15T08:48:14.244Z</time>
      </trkpt>
      <trkpt lat="45.49904" lon="4.67977">
        <ele>468</ele>
        <time>2018-08-15T08:48:15.254Z</time>
      </trkpt>
      <trkpt lat="45.49904" lon="4.67977">
        <ele>468</ele>
        <time>2018-08-15T08:48:16.242Z</time>
      </trkpt>
      <trkpt lat="45.49898" lon="4.67993">
        <ele>467</ele>
        <time>2018-08-15T08:48:17.252Z</time>
      </trkpt>
      <trkpt lat="45.49898" lon="4.67993">
        <ele>467</ele>
        <time>2018-08-15T08:48:18.241Z</time>
      </trkpt>
      <trkpt lat="45.49901" lon="4.68011">
        <ele>466</ele>
        <time>2018-08-15T08:48:19.264Z</time>
      </trkpt>
      <trkpt lat="45.49901" lon="4.68011">
        <ele>466</ele>
        <time>2018-08-15T08:48:20.234Z</time>
      </trkpt>
      <trkpt lat="45.49911" lon="4.68022">
        <ele>465</ele>
        <time>2018-08-15T08:48:21.246Z</time>
      </trkpt>
      <trkpt lat="45.49911" lon="4.68022">
        <ele>465</ele>
        <time>2018-08-15T08:48:22.260Z</time>
      </trkpt>
      <trkpt lat="45.49924" lon="4.68024">
        <ele>464</ele>
        <time>2018-08-15T08:48:23.269Z</time>
      </trkpt>
      <trkpt lat="45.49924" lon="4.68024">
        <ele>464</ele>
        <time>2018-08-15T08:48:24.255Z</time>
      </trkpt>
      <trkpt lat="45.49939" lon="4.68027">
        <ele>462</ele>
        <time>2018-08-15T08:48:25.243Z</time>
      </trkpt>
      <trkpt lat="45.49939" lon="4.68027">
        <ele>462</ele>
        <time>2018-08-15T08:48:26.262Z</time>
      </trkpt>
      <trkpt lat="45.49956" lon="4.68029">
        <ele>461</ele>
        <time>2018-08-15T08:48:27.270Z</time>
      </trkpt>
      <trkpt lat="45.49956" lon="4.68029">
        <ele>461</ele>
        <time>2018-08-15T08:48:28.243Z</time>
      </trkpt>
      <trkpt lat="45.49973" lon="4.68031">
        <ele>459</ele>
        <time>2018-08-15T08:48:29.242Z</time>
      </trkpt>
      <trkpt lat="45.49973" lon="4.68031">
        <ele>459</ele>
        <time>2018-08-15T08:48:30.244Z</time>
      </trkpt>
      <trkpt lat="45.49989" lon="4.68037">
        <ele>458</ele>
        <time>2018-08-15T08:48:31.257Z</time>
      </trkpt>
      <trkpt lat="45.49989" lon="4.68037">
        <ele>458</ele>
        <time>2018-08-15T08:48:32.259Z</time>
      </trkpt>
      <trkpt lat="45.50002" lon="4.68051">
        <ele>457</ele>
        <time>2018-08-15T08:48:33.232Z</time>
      </trkpt>
      <trkpt lat="45.50002" lon="4.68051">
        <ele>457</ele>
        <time>2018-08-15T08:48:34.259Z</time>
      </trkpt>
      <trkpt lat="45.50008" lon="4.6807">
        <ele>455</ele>
        <time>2018-08-15T08:48:35.267Z</time>
      </trkpt>
      <trkpt lat="45.50008" lon="4.6807">
        <ele>455</ele>
        <time>2018-08-15T08:48:36.265Z</time>
      </trkpt>
      <trkpt lat="45.50005" lon="4.68092">
        <ele>454</ele>
        <time>2018-08-15T08:48:37.252Z</time>
      </trkpt>
      <trkpt lat="45.50005" lon="4.68092">
        <ele>454</ele>
        <time>2018-08-15T08:48:38.243Z</time>
      </trkpt>
      <trkpt lat="45.49996" lon="4.68111">
        <ele>453</ele>
        <time>2018-08-15T08:48:39.251Z</time>
      </trkpt>
      <trkpt lat="45.49996" lon="4.68111">
        <ele>453</ele>
        <time>2018-08-15T08:48:40.254Z</time>
      </trkpt>
      <trkpt lat="45.49984" lon="4.68126">
        <ele>452</ele>
        <time>2018-08-15T08:48:41.269Z</time>
      </trkpt>
      <trkpt lat="45.49984" lon="4.68126">
        <ele>452</ele>
        <time>2018-08-15T08:48:42.241Z</time>
      </trkpt>
      <trkpt lat="45.49972" lon="4.68141">
        <ele>451</ele>
        <time>2018-08-15T08:48:43.250Z</time>
      </trkpt>
      <trkpt lat="45.49972" lon="4.68141">
        <ele>451</ele>
        <time>2018-08-15T08:48:44.243Z</time>
      </trkpt>
      <trkpt lat="45.49963" lon="4.68155">
        <ele>449</ele>
        <time>2018-08-15T08:48:45.267Z</time>
      </trkpt>
      <trkpt lat="45.49963" lon="4.68155">
        <ele>449</ele>
        <time>2018-08-15T08:48:46.254Z</time>
      </trkpt>
      <trkpt lat="45.49961" lon="4.68169">
        <ele>448</ele>
        <time>2018-08-15T08:48:47.234Z</time>
      </trkpt>
      <trkpt lat="45.49961" lon="4.68169">
        <ele>448</ele>
        <time>2018-08-15T08:48:48.266Z</time>
      </trkpt>
      <trkpt lat="45.49966" lon="4.68181">
        <ele>447</ele>
        <time>2018-08-15T08:48:49.234Z</time>
      </trkpt>
      <trkpt lat="45.49966" lon="4.68181">
        <ele>447</ele>
        <time>2018-08-15T08:48:50.237Z</time>
      </trkpt>
      <trkpt lat="45.49975" lon="4.68185">
        <ele>447</ele>
        <time>2018-08-15T08:48:51.249Z</time>
      </trkpt>
      <trkpt lat="45.49975" lon="4.68185">
        <ele>447</ele>
        <time>2018-08-15T08:48:52.240Z</time>
      </trkpt>
      <trkpt lat="45.49987" lon="4.68186">
        <ele>446</ele>
        <time>2018-08-15T08:48:53.251Z</time>
      </trkpt>
      <trkpt lat="45.49993" lon="4.68186">
        <ele>446</ele>
        <time>2018-08-15T08:48:54.295Z</time>
      </trkpt>
      <trkpt lat="45.49993" lon="4.68186">
        <ele>446</ele>
        <time>2018-08-15T08:48:55.242Z</time>
      </trkpt>
      <trkpt lat="45.50008" lon="4.68186">
        <ele>446</ele>
        <time>2018-08-15T08:48:56.250Z</time>
      </trkpt>
      <trkpt lat="45.50015" lon="4.68188">
        <ele>445</ele>
        <time>2018-08-15T08:48:57.269Z</time>
      </trkpt>
      <trkpt lat="45.50015" lon="4.68188">
        <ele>445</ele>
        <time>2018-08-15T08:48:58.259Z</time>
      </trkpt>
      <trkpt lat="45.50028" lon="4.68192">
        <ele>446</ele>
        <time>2018-08-15T08:48:59.267Z</time>
      </trkpt>
      <trkpt lat="45.50028" lon="4.68192">
        <ele>446</ele>
        <time>2018-08-15T08:49:00.248Z</time>
      </trkpt>
      <trkpt lat="45.50042" lon="4.68196">
        <ele>445</ele>
        <time>2018-08-15T08:49:01.258Z</time>
      </trkpt>
      <trkpt lat="45.50042" lon="4.68196">
        <ele>445</ele>
        <time>2018-08-15T08:49:02.262Z</time>
      </trkpt>
      <trkpt lat="45.50056" lon="4.68198">
        <ele>445</ele>
        <time>2018-08-15T08:49:03.249Z</time>
      </trkpt>
      <trkpt lat="45.50056" lon="4.68198">
        <ele>445</ele>
        <time>2018-08-15T08:49:04.255Z</time>
      </trkpt>
      <trkpt lat="45.50068" lon="4.68204">
        <ele>445</ele>
        <time>2018-08-15T08:49:05.265Z</time>
      </trkpt>
      <trkpt lat="45.50068" lon="4.68204">
        <ele>445</ele>
        <time>2018-08-15T08:49:06.232Z</time>
      </trkpt>
      <trkpt lat="45.5008" lon="4.68213">
        <ele>444</ele>
        <time>2018-08-15T08:49:07.243Z</time>
      </trkpt>
      <trkpt lat="45.5008" lon="4.68213">
        <ele>444</ele>
        <time>2018-08-15T08:49:08.240Z</time>
      </trkpt>
      <trkpt lat="45.5009" lon="4.68221">
        <ele>445</ele>
        <time>2018-08-15T08:49:09.250Z</time>
      </trkpt>
      <trkpt lat="45.5009" lon="4.68221">
        <ele>445</ele>
        <time>2018-08-15T08:49:10.258Z</time>
      </trkpt>
      <trkpt lat="45.501" lon="4.68228">
        <ele>445</ele>
        <time>2018-08-15T08:49:11.267Z</time>
      </trkpt>
      <trkpt lat="45.50104" lon="4.68232">
        <ele>445</ele>
        <time>2018-08-15T08:49:12.260Z</time>
      </trkpt>
      <trkpt lat="45.50104" lon="4.68232">
        <ele>445</ele>
        <time>2018-08-15T08:49:13.248Z</time>
      </trkpt>
      <trkpt lat="45.50112" lon="4.68241">
        <ele>445</ele>
        <time>2018-08-15T08:49:14.264Z</time>
      </trkpt>
      <trkpt lat="45.50112" lon="4.68241">
        <ele>445</ele>
        <time>2018-08-15T08:49:15.247Z</time>
      </trkpt>
      <trkpt lat="45.50119" lon="4.68249">
        <ele>446</ele>
        <time>2018-08-15T08:49:16.232Z</time>
      </trkpt>
      <trkpt lat="45.50119" lon="4.68249">
        <ele>446</ele>
        <time>2018-08-15T08:49:17.256Z</time>
      </trkpt>
      <trkpt lat="45.50126" lon="4.68259">
        <ele>446</ele>
        <time>2018-08-15T08:49:18.265Z</time>
      </trkpt>
      <trkpt lat="45.50126" lon="4.68259">
        <ele>446</ele>
        <time>2018-08-15T08:49:19.250Z</time>
      </trkpt>
      <trkpt lat="45.50133" lon="4.68269">
        <ele>446</ele>
        <time>2018-08-15T08:49:20.262Z</time>
      </trkpt>
      <trkpt lat="45.50136" lon="4.68275">
        <ele>446</ele>
        <time>2018-08-15T08:49:21.240Z</time>
      </trkpt>
      <trkpt lat="45.50136" lon="4.68275">
        <ele>446</ele>
        <time>2018-08-15T08:49:22.259Z</time>
      </trkpt>
      <trkpt lat="45.50142" lon="4.68287">
        <ele>445</ele>
        <time>2018-08-15T08:49:23.273Z</time>
      </trkpt>
      <trkpt lat="45.50145" lon="4.68293">
        <ele>445</ele>
        <time>2018-08-15T08:49:24.238Z</time>
      </trkpt>
      <trkpt lat="45.50145" lon="4.68293">
        <ele>445</ele>
        <time>2018-08-15T08:49:25.257Z</time>
      </trkpt>
      <trkpt lat="45.50152" lon="4.68306">
        <ele>444</ele>
        <time>2018-08-15T08:49:26.266Z</time>
      </trkpt>
      <trkpt lat="45.50155" lon="4.68312">
        <ele>444</ele>
        <time>2018-08-15T08:49:27.233Z</time>
      </trkpt>
      <trkpt lat="45.50155" lon="4.68312">
        <ele>444</ele>
        <time>2018-08-15T08:49:28.266Z</time>
      </trkpt>
      <trkpt lat="45.50162" lon="4.68325">
        <ele>444</ele>
        <time>2018-08-15T08:49:29.254Z</time>
      </trkpt>
      <trkpt lat="45.50162" lon="4.68325">
        <ele>444</ele>
        <time>2018-08-15T08:49:30.259Z</time>
      </trkpt>
      <trkpt lat="45.50168" lon="4.68338">
        <ele>444</ele>
        <time>2018-08-15T08:49:31.271Z</time>
      </trkpt>
      <trkpt lat="45.50168" lon="4.68338">
        <ele>444</ele>
        <time>2018-08-15T08:49:32.259Z</time>
      </trkpt>
      <trkpt lat="45.50174" lon="4.68351">
        <ele>444</ele>
        <time>2018-08-15T08:49:33.269Z</time>
      </trkpt>
      <trkpt lat="45.50174" lon="4.68351">
        <ele>444</ele>
        <time>2018-08-15T08:49:34.247Z</time>
      </trkpt>
      <trkpt lat="45.50181" lon="4.68362">
        <ele>444</ele>
        <time>2018-08-15T08:49:35.246Z</time>
      </trkpt>
      <trkpt lat="45.50181" lon="4.68362">
        <ele>444</ele>
        <time>2018-08-15T08:49:36.261Z</time>
      </trkpt>
      <trkpt lat="45.50189" lon="4.68372">
        <ele>444</ele>
        <time>2018-08-15T08:49:37.268Z</time>
      </trkpt>
      <trkpt lat="45.50189" lon="4.68372">
        <ele>444</ele>
        <time>2018-08-15T08:49:38.234Z</time>
      </trkpt>
      <trkpt lat="45.50197" lon="4.68379">
        <ele>444</ele>
        <time>2018-08-15T08:49:39.244Z</time>
      </trkpt>
      <trkpt lat="45.50197" lon="4.68379">
        <ele>444</ele>
        <time>2018-08-15T08:49:40.250Z</time>
      </trkpt>
      <trkpt lat="45.50206" lon="4.68384">
        <ele>444</ele>
        <time>2018-08-15T08:49:41.259Z</time>
      </trkpt>
      <trkpt lat="45.50206" lon="4.68384">
        <ele>444</ele>
        <time>2018-08-15T08:49:42.251Z</time>
      </trkpt>
      <trkpt lat="45.50215" lon="4.6839">
        <ele>445</ele>
        <time>2018-08-15T08:49:43.263Z</time>
      </trkpt>
      <trkpt lat="45.50219" lon="4.68393">
        <ele>445</ele>
        <time>2018-08-15T08:49:44.235Z</time>
      </trkpt>
      <trkpt lat="45.50224" lon="4.68396">
        <ele>445</ele>
        <time>2018-08-15T08:49:45.232Z</time>
      </trkpt>
      <trkpt lat="45.50224" lon="4.68396">
        <ele>445</ele>
        <time>2018-08-15T08:49:46.259Z</time>
      </trkpt>
      <trkpt lat="45.50233" lon="4.68402">
        <ele>446</ele>
        <time>2018-08-15T08:49:47.268Z</time>
      </trkpt>
      <trkpt lat="45.50237" lon="4.68405">
        <ele>446</ele>
        <time>2018-08-15T08:49:48.272Z</time>
      </trkpt>
      <trkpt lat="45.50237" lon="4.68405">
        <ele>446</ele>
        <time>2018-08-15T08:49:49.263Z</time>
      </trkpt>
      <trkpt lat="45.50246" lon="4.68411">
        <ele>446</ele>
        <time>2018-08-15T08:49:50.250Z</time>
      </trkpt>
      <trkpt lat="45.5025" lon="4.68415">
        <ele>446</ele>
        <time>2018-08-15T08:49:51.240Z</time>
      </trkpt>
      <trkpt lat="45.5025" lon="4.68415">
        <ele>446</ele>
        <time>2018-08-15T08:49:52.234Z</time>
      </trkpt>
      <trkpt lat="45.50258" lon="4.68423">
        <ele>447</ele>
        <time>2018-08-15T08:49:53.250Z</time>
      </trkpt>
      <trkpt lat="45.50258" lon="4.68423">
        <ele>447</ele>
        <time>2018-08-15T08:49:54.250Z</time>
      </trkpt>
      <trkpt lat="45.50265" lon="4.68431">
        <ele>448</ele>
        <time>2018-08-15T08:49:55.257Z</time>
      </trkpt>
      <trkpt lat="45.50269" lon="4.68435">
        <ele>448</ele>
        <time>2018-08-15T08:49:56.251Z</time>
      </trkpt>
      <trkpt lat="45.50273" lon="4.68438">
        <ele>448</ele>
        <time>2018-08-15T08:49:57.250Z</time>
      </trkpt>
      <trkpt lat="45.50273" lon="4.68438">
        <ele>448</ele>
        <time>2018-08-15T08:49:58.241Z</time>
      </trkpt>
      <trkpt lat="45.50281" lon="4.68445">
        <ele>450</ele>
        <time>2018-08-15T08:49:59.248Z</time>
      </trkpt>
      <trkpt lat="45.50281" lon="4.68445">
        <ele>450</ele>
        <time>2018-08-15T08:50:00.268Z</time>
      </trkpt>
      <trkpt lat="45.50289" lon="4.68451">
        <ele>451</ele>
        <time>2018-08-15T08:50:01.238Z</time>
      </trkpt>
      <trkpt lat="45.50289" lon="4.68451">
        <ele>451</ele>
        <time>2018-08-15T08:50:02.235Z</time>
      </trkpt>
      <trkpt lat="45.50297" lon="4.68457">
        <ele>452</ele>
        <time>2018-08-15T08:50:03.250Z</time>
      </trkpt>
      <trkpt lat="45.50297" lon="4.68457">
        <ele>452</ele>
        <time>2018-08-15T08:50:04.255Z</time>
      </trkpt>
      <trkpt lat="45.50304" lon="4.68465">
        <ele>454</ele>
        <time>2018-08-15T08:50:05.248Z</time>
      </trkpt>
      <trkpt lat="45.50304" lon="4.68465">
        <ele>454</ele>
        <time>2018-08-15T08:50:06.239Z</time>
      </trkpt>
      <trkpt lat="45.5031" lon="4.68473">
        <ele>454</ele>
        <time>2018-08-15T08:50:07.250Z</time>
      </trkpt>
      <trkpt lat="45.5031" lon="4.68473">
        <ele>454</ele>
        <time>2018-08-15T08:50:08.247Z</time>
      </trkpt>
      <trkpt lat="45.50317" lon="4.68482">
        <ele>455</ele>
        <time>2018-08-15T08:50:09.257Z</time>
      </trkpt>
      <trkpt lat="45.50317" lon="4.68482">
        <ele>455</ele>
        <time>2018-08-15T08:50:10.235Z</time>
      </trkpt>
      <trkpt lat="45.50322" lon="4.68492">
        <ele>455</ele>
        <time>2018-08-15T08:50:11.248Z</time>
      </trkpt>
      <trkpt lat="45.50322" lon="4.68492">
        <ele>455</ele>
        <time>2018-08-15T08:50:12.243Z</time>
      </trkpt>
      <trkpt lat="45.50326" lon="4.68502">
        <ele>456</ele>
        <time>2018-08-15T08:50:13.255Z</time>
      </trkpt>
      <trkpt lat="45.50328" lon="4.68507">
        <ele>456</ele>
        <time>2018-08-15T08:50:14.252Z</time>
      </trkpt>
      <trkpt lat="45.50329" lon="4.68513">
        <ele>457</ele>
        <time>2018-08-15T08:50:15.271Z</time>
      </trkpt>
      <trkpt lat="45.50329" lon="4.68513">
        <ele>457</ele>
        <time>2018-08-15T08:50:16.263Z</time>
      </trkpt>
      <trkpt lat="45.5033" lon="4.68524">
        <ele>457</ele>
        <time>2018-08-15T08:50:17.274Z</time>
      </trkpt>
      <trkpt lat="45.5033" lon="4.68524">
        <ele>457</ele>
        <time>2018-08-15T08:50:18.235Z</time>
      </trkpt>
      <trkpt lat="45.50331" lon="4.68535">
        <ele>458</ele>
        <time>2018-08-15T08:50:19.254Z</time>
      </trkpt>
      <trkpt lat="45.50332" lon="4.6854">
        <ele>458</ele>
        <time>2018-08-15T08:50:20.232Z</time>
      </trkpt>
      <trkpt lat="45.50332" lon="4.68546">
        <ele>458</ele>
        <time>2018-08-15T08:50:21.244Z</time>
      </trkpt>
      <trkpt lat="45.50332" lon="4.68546">
        <ele>458</ele>
        <time>2018-08-15T08:50:22.259Z</time>
      </trkpt>
      <trkpt lat="45.50333" lon="4.68559">
        <ele>458</ele>
        <time>2018-08-15T08:50:23.272Z</time>
      </trkpt>
      <trkpt lat="45.50333" lon="4.68559">
        <ele>458</ele>
        <time>2018-08-15T08:50:24.251Z</time>
      </trkpt>
      <trkpt lat="45.50333" lon="4.68571">
        <ele>458</ele>
        <time>2018-08-15T08:50:25.261Z</time>
      </trkpt>
      <trkpt lat="45.50333" lon="4.68571">
        <ele>458</ele>
        <time>2018-08-15T08:50:26.259Z</time>
      </trkpt>
      <trkpt lat="45.50334" lon="4.68583">
        <ele>458</ele>
        <time>2018-08-15T08:50:27.238Z</time>
      </trkpt>
      <trkpt lat="45.50334" lon="4.68583">
        <ele>458</ele>
        <time>2018-08-15T08:50:28.252Z</time>
      </trkpt>
      <trkpt lat="45.50334" lon="4.68592">
        <ele>458</ele>
        <time>2018-08-15T08:50:29.259Z</time>
      </trkpt>
      <trkpt lat="45.50334" lon="4.68592">
        <ele>458</ele>
        <time>2018-08-15T08:50:30.265Z</time>
      </trkpt>
      <trkpt lat="45.50335" lon="4.68602">
        <ele>459</ele>
        <time>2018-08-15T08:50:31.232Z</time>
      </trkpt>
      <trkpt lat="45.50336" lon="4.68607">
        <ele>459</ele>
        <time>2018-08-15T08:50:32.329Z</time>
      </trkpt>
      <trkpt lat="45.50336" lon="4.68607">
        <ele>459</ele>
        <time>2018-08-15T08:50:33.271Z</time>
      </trkpt>
      <trkpt lat="45.50336" lon="4.68616">
        <ele>459</ele>
        <time>2018-08-15T08:50:34.243Z</time>
      </trkpt>
      <trkpt lat="45.50336" lon="4.68616">
        <ele>459</ele>
        <time>2018-08-15T08:50:35.260Z</time>
      </trkpt>
      <trkpt lat="45.50336" lon="4.68625">
        <ele>459</ele>
        <time>2018-08-15T08:50:36.244Z</time>
      </trkpt>
      <trkpt lat="45.50336" lon="4.68625">
        <ele>459</ele>
        <time>2018-08-15T08:50:37.240Z</time>
      </trkpt>
      <trkpt lat="45.50337" lon="4.68633">
        <ele>459</ele>
        <time>2018-08-15T08:50:38.249Z</time>
      </trkpt>
      <trkpt lat="45.50337" lon="4.68637">
        <ele>460</ele>
        <time>2018-08-15T08:50:39.272Z</time>
      </trkpt>
      <trkpt lat="45.50337" lon="4.68637">
        <ele>460</ele>
        <time>2018-08-15T08:50:40.252Z</time>
      </trkpt>
      <trkpt lat="45.50338" lon="4.68645">
        <ele>460</ele>
        <time>2018-08-15T08:50:41.251Z</time>
      </trkpt>
      <trkpt lat="45.50338" lon="4.68645">
        <ele>460</ele>
        <time>2018-08-15T08:50:42.248Z</time>
      </trkpt>
      <trkpt lat="45.50339" lon="4.68653">
        <ele>460</ele>
        <time>2018-08-15T08:50:43.260Z</time>
      </trkpt>
      <trkpt lat="45.50339" lon="4.68653">
        <ele>460</ele>
        <time>2018-08-15T08:50:44.263Z</time>
      </trkpt>
      <trkpt lat="45.50342" lon="4.68661">
        <ele>460</ele>
        <time>2018-08-15T08:50:45.271Z</time>
      </trkpt>
      <trkpt lat="45.50342" lon="4.68661">
        <ele>460</ele>
        <time>2018-08-15T08:50:46.233Z</time>
      </trkpt>
      <trkpt lat="45.50344" lon="4.68669">
        <ele>460</ele>
        <time>2018-08-15T08:50:47.250Z</time>
      </trkpt>
      <trkpt lat="45.50344" lon="4.68669">
        <ele>460</ele>
        <time>2018-08-15T08:50:48.250Z</time>
      </trkpt>
      <trkpt lat="45.50347" lon="4.68676">
        <ele>460</ele>
        <time>2018-08-15T08:50:49.268Z</time>
      </trkpt>
      <trkpt lat="45.50347" lon="4.68676">
        <ele>460</ele>
        <time>2018-08-15T08:50:50.265Z</time>
      </trkpt>
      <trkpt lat="45.50351" lon="4.68682">
        <ele>460</ele>
        <time>2018-08-15T08:50:51.236Z</time>
      </trkpt>
      <trkpt lat="45.50351" lon="4.68682">
        <ele>460</ele>
        <time>2018-08-15T08:50:52.248Z</time>
      </trkpt>
      <trkpt lat="45.50355" lon="4.6869">
        <ele>460</ele>
        <time>2018-08-15T08:50:53.240Z</time>
      </trkpt>
      <trkpt lat="45.50356" lon="4.68694">
        <ele>460</ele>
        <time>2018-08-15T08:50:54.263Z</time>
      </trkpt>
      <trkpt lat="45.50356" lon="4.68694">
        <ele>460</ele>
        <time>2018-08-15T08:50:55.261Z</time>
      </trkpt>
      <trkpt lat="45.5036" lon="4.68702">
        <ele>461</ele>
        <time>2018-08-15T08:50:56.270Z</time>
      </trkpt>
      <trkpt lat="45.50362" lon="4.68707">
        <ele>461</ele>
        <time>2018-08-15T08:50:57.252Z</time>
      </trkpt>
      <trkpt lat="45.50362" lon="4.68707">
        <ele>461</ele>
        <time>2018-08-15T08:50:58.265Z</time>
      </trkpt>
      <trkpt lat="45.50366" lon="4.68715">
        <ele>461</ele>
        <time>2018-08-15T08:50:59.232Z</time>
      </trkpt>
      <trkpt lat="45.50366" lon="4.68715">
        <ele>461</ele>
        <time>2018-08-15T08:51:00.260Z</time>
      </trkpt>
      <trkpt lat="45.5037" lon="4.68723">
        <ele>461</ele>
        <time>2018-08-15T08:51:01.272Z</time>
      </trkpt>
      <trkpt lat="45.5037" lon="4.68723">
        <ele>461</ele>
        <time>2018-08-15T08:51:02.237Z</time>
      </trkpt>
      <trkpt lat="45.50374" lon="4.68731">
        <ele>461</ele>
        <time>2018-08-15T08:51:03.251Z</time>
      </trkpt>
      <trkpt lat="45.50374" lon="4.68731">
        <ele>461</ele>
        <time>2018-08-15T08:51:04.244Z</time>
      </trkpt>
      <trkpt lat="45.50378" lon="4.68739">
        <ele>461</ele>
        <time>2018-08-15T08:51:05.258Z</time>
      </trkpt>
      <trkpt lat="45.50378" lon="4.68739">
        <ele>461</ele>
        <time>2018-08-15T08:51:06.266Z</time>
      </trkpt>
      <trkpt lat="45.50381" lon="4.68748">
        <ele>461</ele>
        <time>2018-08-15T08:51:07.236Z</time>
      </trkpt>
      <trkpt lat="45.50381" lon="4.68748">
        <ele>461</ele>
        <time>2018-08-15T08:51:08.270Z</time>
      </trkpt>
      <trkpt lat="45.50383" lon="4.68756">
        <ele>461</ele>
        <time>2018-08-15T08:51:09.248Z</time>
      </trkpt>
      <trkpt lat="45.50383" lon="4.68756">
        <ele>461</ele>
        <time>2018-08-15T08:51:10.259Z</time>
      </trkpt>
      <trkpt lat="45.50385" lon="4.68764">
        <ele>462</ele>
        <time>2018-08-15T08:51:11.288Z</time>
      </trkpt>
      <trkpt lat="45.50385" lon="4.68764">
        <ele>462</ele>
        <time>2018-08-15T08:51:12.246Z</time>
      </trkpt>
      <trkpt lat="45.50387" lon="4.68772">
        <ele>462</ele>
        <time>2018-08-15T08:51:13.256Z</time>
      </trkpt>
      <trkpt lat="45.50387" lon="4.68772">
        <ele>462</ele>
        <time>2018-08-15T08:51:14.249Z</time>
      </trkpt>
      <trkpt lat="45.50389" lon="4.6878">
        <ele>463</ele>
        <time>2018-08-15T08:51:15.251Z</time>
      </trkpt>
      <trkpt lat="45.50389" lon="4.6878">
        <ele>463</ele>
        <time>2018-08-15T08:51:16.271Z</time>
      </trkpt>
      <trkpt lat="45.50391" lon="4.68787">
        <ele>463</ele>
        <time>2018-08-15T08:51:17.246Z</time>
      </trkpt>
      <trkpt lat="45.50391" lon="4.68787">
        <ele>463</ele>
        <time>2018-08-15T08:51:18.252Z</time>
      </trkpt>
      <trkpt lat="45.50392" lon="4.68795">
        <ele>464</ele>
        <time>2018-08-15T08:51:19.270Z</time>
      </trkpt>
      <trkpt lat="45.50392" lon="4.68795">
        <ele>464</ele>
        <time>2018-08-15T08:51:20.258Z</time>
      </trkpt>
      <trkpt lat="45.50395" lon="4.68803">
        <ele>464</ele>
        <time>2018-08-15T08:51:21.269Z</time>
      </trkpt>
      <trkpt lat="45.50395" lon="4.68803">
        <ele>464</ele>
        <time>2018-08-15T08:51:22.246Z</time>
      </trkpt>
      <trkpt lat="45.50397" lon="4.6881">
        <ele>465</ele>
        <time>2018-08-15T08:51:23.264Z</time>
      </trkpt>
      <trkpt lat="45.50397" lon="4.6881">
        <ele>465</ele>
        <time>2018-08-15T08:51:24.250Z</time>
      </trkpt>
      <trkpt lat="45.50399" lon="4.68817">
        <ele>465</ele>
        <time>2018-08-15T08:51:25.271Z</time>
      </trkpt>
      <trkpt lat="45.50399" lon="4.68817">
        <ele>465</ele>
        <time>2018-08-15T08:51:26.255Z</time>
      </trkpt>
      <trkpt lat="45.504" lon="4.68824">
        <ele>466</ele>
        <time>2018-08-15T08:51:27.233Z</time>
      </trkpt>
      <trkpt lat="45.504" lon="4.68824">
        <ele>466</ele>
        <time>2018-08-15T08:51:28.243Z</time>
      </trkpt>
      <trkpt lat="45.50402" lon="4.68829">
        <ele>466</ele>
        <time>2018-08-15T08:51:29.253Z</time>
      </trkpt>
      <trkpt lat="45.50402" lon="4.68829">
        <ele>466</ele>
        <time>2018-08-15T08:51:30.248Z</time>
      </trkpt>
      <trkpt lat="45.50408" lon="4.68833">
        <ele>468</ele>
        <time>2018-08-15T08:51:31.269Z</time>
      </trkpt>
      <trkpt lat="45.50408" lon="4.68833">
        <ele>468</ele>
        <time>2018-08-15T08:51:32.261Z</time>
      </trkpt>
      <trkpt lat="45.50411" lon="4.68834">
        <ele>468</ele>
        <time>2018-08-15T08:51:33.247Z</time>
      </trkpt>
      <trkpt lat="45.50411" lon="4.68834">
        <ele>468</ele>
        <time>2018-08-15T08:51:34.255Z</time>
      </trkpt>
      <trkpt lat="45.50416" lon="4.68831">
        <ele>468</ele>
        <time>2018-08-15T08:51:35.268Z</time>
      </trkpt>
      <trkpt lat="45.50416" lon="4.68831">
        <ele>468</ele>
        <time>2018-08-15T08:51:36.239Z</time>
      </trkpt>
      <trkpt lat="45.50424" lon="4.68828">
        <ele>468</ele>
        <time>2018-08-15T08:51:37.245Z</time>
      </trkpt>
      <trkpt lat="45.50424" lon="4.68828">
        <ele>468</ele>
        <time>2018-08-15T08:51:38.253Z</time>
      </trkpt>
      <trkpt lat="45.50433" lon="4.68824">
        <ele>468</ele>
        <time>2018-08-15T08:51:39.263Z</time>
      </trkpt>
      <trkpt lat="45.50433" lon="4.68824">
        <ele>468</ele>
        <time>2018-08-15T08:51:40.241Z</time>
      </trkpt>
      <trkpt lat="45.50442" lon="4.68821">
        <ele>469</ele>
        <time>2018-08-15T08:51:41.249Z</time>
      </trkpt>
      <trkpt lat="45.50442" lon="4.68821">
        <ele>469</ele>
        <time>2018-08-15T08:51:42.271Z</time>
      </trkpt>
      <trkpt lat="45.50451" lon="4.68822">
        <ele>468</ele>
        <time>2018-08-15T08:51:43.244Z</time>
      </trkpt>
      <trkpt lat="45.50451" lon="4.68822">
        <ele>468</ele>
        <time>2018-08-15T08:51:44.244Z</time>
      </trkpt>
      <trkpt lat="45.50461" lon="4.68821">
        <ele>468</ele>
        <time>2018-08-15T08:51:45.254Z</time>
      </trkpt>
      <trkpt lat="45.50461" lon="4.68821">
        <ele>468</ele>
        <time>2018-08-15T08:51:46.262Z</time>
      </trkpt>
      <trkpt lat="45.50469" lon="4.6882">
        <ele>468</ele>
        <time>2018-08-15T08:51:47.271Z</time>
      </trkpt>
      <trkpt lat="45.50469" lon="4.6882">
        <ele>468</ele>
        <time>2018-08-15T08:51:48.240Z</time>
      </trkpt>
      <trkpt lat="45.50476" lon="4.68818">
        <ele>466</ele>
        <time>2018-08-15T08:51:49.255Z</time>
      </trkpt>
      <trkpt lat="45.50476" lon="4.68818">
        <ele>466</ele>
        <time>2018-08-15T08:51:50.232Z</time>
      </trkpt>
      <trkpt lat="45.50481" lon="4.68816">
        <ele>466</ele>
        <time>2018-08-15T08:51:51.246Z</time>
      </trkpt>
      <trkpt lat="45.50481" lon="4.68816">
        <ele>466</ele>
        <time>2018-08-15T08:51:52.240Z</time>
      </trkpt>
      <trkpt lat="45.50487" lon="4.68822">
        <ele>466</ele>
        <time>2018-08-15T08:51:53.249Z</time>
      </trkpt>
      <trkpt lat="45.50487" lon="4.68822">
        <ele>466</ele>
        <time>2018-08-15T08:51:54.232Z</time>
      </trkpt>
      <trkpt lat="45.50491" lon="4.68832">
        <ele>466</ele>
        <time>2018-08-15T08:51:55.239Z</time>
      </trkpt>
      <trkpt lat="45.50491" lon="4.68832">
        <ele>466</ele>
        <time>2018-08-15T08:51:56.261Z</time>
      </trkpt>
      <trkpt lat="45.50494" lon="4.68845">
        <ele>466</ele>
        <time>2018-08-15T08:51:57.278Z</time>
      </trkpt>
      <trkpt lat="45.50494" lon="4.68845">
        <ele>466</ele>
        <time>2018-08-15T08:51:58.270Z</time>
      </trkpt>
      <trkpt lat="45.50497" lon="4.68856">
        <ele>466</ele>
        <time>2018-08-15T08:51:59.245Z</time>
      </trkpt>
      <trkpt lat="45.50497" lon="4.68856">
        <ele>466</ele>
        <time>2018-08-15T08:52:00.269Z</time>
      </trkpt>
      <trkpt lat="45.50497" lon="4.68856">
        <ele>466</ele>
        <time>2018-08-15T08:52:01.306Z</time>
      </trkpt>
      <trkpt lat="45.505" lon="4.68868">
        <ele>465</ele>
        <time>2018-08-15T08:52:02.267Z</time>
      </trkpt>
      <trkpt lat="45.50501" lon="4.68879">
        <ele>464</ele>
        <time>2018-08-15T08:52:03.238Z</time>
      </trkpt>
      <trkpt lat="45.50501" lon="4.68879">
        <ele>464</ele>
        <time>2018-08-15T08:52:04.269Z</time>
      </trkpt>
      <trkpt lat="45.50503" lon="4.68892">
        <ele>464</ele>
        <time>2018-08-15T08:52:05.237Z</time>
      </trkpt>
      <trkpt lat="45.50503" lon="4.68892">
        <ele>464</ele>
        <time>2018-08-15T08:52:06.240Z</time>
      </trkpt>
      <trkpt lat="45.50504" lon="4.68905">
        <ele>463</ele>
        <time>2018-08-15T08:52:07.251Z</time>
      </trkpt>
      <trkpt lat="45.50504" lon="4.68905">
        <ele>463</ele>
        <time>2018-08-15T08:52:08.263Z</time>
      </trkpt>
      <trkpt lat="45.50509" lon="4.68919">
        <ele>462</ele>
        <time>2018-08-15T08:52:09.233Z</time>
      </trkpt>
      <trkpt lat="45.50509" lon="4.68919">
        <ele>462</ele>
        <time>2018-08-15T08:52:10.250Z</time>
      </trkpt>
      <trkpt lat="45.50512" lon="4.68932">
        <ele>461</ele>
        <time>2018-08-15T08:52:11.268Z</time>
      </trkpt>
      <trkpt lat="45.50512" lon="4.68932">
        <ele>461</ele>
        <time>2018-08-15T08:52:12.233Z</time>
      </trkpt>
      <trkpt lat="45.50514" lon="4.68945">
        <ele>460</ele>
        <time>2018-08-15T08:52:13.253Z</time>
      </trkpt>
      <trkpt lat="45.50514" lon="4.68945">
        <ele>460</ele>
        <time>2018-08-15T08:52:14.251Z</time>
      </trkpt>
      <trkpt lat="45.50516" lon="4.68959">
        <ele>459</ele>
        <time>2018-08-15T08:52:15.262Z</time>
      </trkpt>
      <trkpt lat="45.50516" lon="4.68959">
        <ele>459</ele>
        <time>2018-08-15T08:52:16.268Z</time>
      </trkpt>
      <trkpt lat="45.50514" lon="4.68972">
        <ele>459</ele>
        <time>2018-08-15T08:52:17.238Z</time>
      </trkpt>
      <trkpt lat="45.50514" lon="4.68972">
        <ele>459</ele>
        <time>2018-08-15T08:52:18.242Z</time>
      </trkpt>
      <trkpt lat="45.50513" lon="4.68985">
        <ele>458</ele>
        <time>2018-08-15T08:52:19.266Z</time>
      </trkpt>
      <trkpt lat="45.50513" lon="4.68985">
        <ele>458</ele>
        <time>2018-08-15T08:52:20.249Z</time>
      </trkpt>
      <trkpt lat="45.50511" lon="4.69001">
        <ele>457</ele>
        <time>2018-08-15T08:52:21.258Z</time>
      </trkpt>
      <trkpt lat="45.50511" lon="4.69001">
        <ele>457</ele>
        <time>2018-08-15T08:52:22.249Z</time>
      </trkpt>
      <trkpt lat="45.50511" lon="4.69018">
        <ele>456</ele>
        <time>2018-08-15T08:52:23.256Z</time>
      </trkpt>
      <trkpt lat="45.50511" lon="4.69018">
        <ele>456</ele>
        <time>2018-08-15T08:52:24.268Z</time>
      </trkpt>
      <trkpt lat="45.5051" lon="4.69037">
        <ele>455</ele>
        <time>2018-08-15T08:52:25.234Z</time>
      </trkpt>
      <trkpt lat="45.5051" lon="4.69037">
        <ele>455</ele>
        <time>2018-08-15T08:52:26.239Z</time>
      </trkpt>
      <trkpt lat="45.50509" lon="4.69057">
        <ele>453</ele>
        <time>2018-08-15T08:52:27.250Z</time>
      </trkpt>
      <trkpt lat="45.50509" lon="4.69057">
        <ele>453</ele>
        <time>2018-08-15T08:52:28.249Z</time>
      </trkpt>
      <trkpt lat="45.50507" lon="4.69076">
        <ele>452</ele>
        <time>2018-08-15T08:52:29.258Z</time>
      </trkpt>
      <trkpt lat="45.50507" lon="4.69076">
        <ele>452</ele>
        <time>2018-08-15T08:52:30.246Z</time>
      </trkpt>
      <trkpt lat="45.50507" lon="4.69093">
        <ele>451</ele>
        <time>2018-08-15T08:52:31.254Z</time>
      </trkpt>
      <trkpt lat="45.50507" lon="4.69093">
        <ele>451</ele>
        <time>2018-08-15T08:52:32.261Z</time>
      </trkpt>
      <trkpt lat="45.50507" lon="4.69093">
        <ele>451</ele>
        <time>2018-08-15T08:52:33.233Z</time>
      </trkpt>
      <trkpt lat="45.50504" lon="4.69107">
        <ele>450</ele>
        <time>2018-08-15T08:52:34.269Z</time>
      </trkpt>
      <trkpt lat="45.50495" lon="4.69116">
        <ele>449</ele>
        <time>2018-08-15T08:52:35.248Z</time>
      </trkpt>
      <trkpt lat="45.50495" lon="4.69116">
        <ele>449</ele>
        <time>2018-08-15T08:52:36.240Z</time>
      </trkpt>
      <trkpt lat="45.50483" lon="4.69115">
        <ele>448</ele>
        <time>2018-08-15T08:52:37.251Z</time>
      </trkpt>
      <trkpt lat="45.50483" lon="4.69115">
        <ele>448</ele>
        <time>2018-08-15T08:52:38.271Z</time>
      </trkpt>
      <trkpt lat="45.5047" lon="4.69104">
        <ele>447</ele>
        <time>2018-08-15T08:52:39.239Z</time>
      </trkpt>
      <trkpt lat="45.5047" lon="4.69104">
        <ele>447</ele>
        <time>2018-08-15T08:52:40.270Z</time>
      </trkpt>
      <trkpt lat="45.50457" lon="4.69093">
        <ele>445</ele>
        <time>2018-08-15T08:52:41.268Z</time>
      </trkpt>
      <trkpt lat="45.50457" lon="4.69093">
        <ele>445</ele>
        <time>2018-08-15T08:52:42.272Z</time>
      </trkpt>
      <trkpt lat="45.50444" lon="4.69086">
        <ele>443</ele>
        <time>2018-08-15T08:52:43.240Z</time>
      </trkpt>
      <trkpt lat="45.50444" lon="4.69086">
        <ele>443</ele>
        <time>2018-08-15T08:52:44.238Z</time>
      </trkpt>
      <trkpt lat="45.50432" lon="4.69094">
        <ele>444</ele>
        <time>2018-08-15T08:52:45.247Z</time>
      </trkpt>
      <trkpt lat="45.50432" lon="4.69094">
        <ele>444</ele>
        <time>2018-08-15T08:52:46.237Z</time>
      </trkpt>
      <trkpt lat="45.50426" lon="4.69113">
        <ele>443</ele>
        <time>2018-08-15T08:52:47.253Z</time>
      </trkpt>
      <trkpt lat="45.50426" lon="4.69113">
        <ele>443</ele>
        <time>2018-08-15T08:52:48.269Z</time>
      </trkpt>
      <trkpt lat="45.50422" lon="4.69136">
        <ele>441</ele>
        <time>2018-08-15T08:52:49.247Z</time>
      </trkpt>
      <trkpt lat="45.50422" lon="4.69136">
        <ele>441</ele>
        <time>2018-08-15T08:52:50.261Z</time>
      </trkpt>
      <trkpt lat="45.50418" lon="4.69156">
        <ele>440</ele>
        <time>2018-08-15T08:52:51.268Z</time>
      </trkpt>
      <trkpt lat="45.50418" lon="4.69156">
        <ele>440</ele>
        <time>2018-08-15T08:52:52.259Z</time>
      </trkpt>
      <trkpt lat="45.50409" lon="4.69173">
        <ele>438</ele>
        <time>2018-08-15T08:52:53.287Z</time>
      </trkpt>
      <trkpt lat="45.50409" lon="4.69173">
        <ele>438</ele>
        <time>2018-08-15T08:52:54.233Z</time>
      </trkpt>
      <trkpt lat="45.50396" lon="4.69188">
        <ele>436</ele>
        <time>2018-08-15T08:52:55.240Z</time>
      </trkpt>
      <trkpt lat="45.50396" lon="4.69188">
        <ele>436</ele>
        <time>2018-08-15T08:52:56.263Z</time>
      </trkpt>
      <trkpt lat="45.5038" lon="4.69203">
        <ele>434</ele>
        <time>2018-08-15T08:52:57.259Z</time>
      </trkpt>
      <trkpt lat="45.5038" lon="4.69203">
        <ele>434</ele>
        <time>2018-08-15T08:52:58.260Z</time>
      </trkpt>
      <trkpt lat="45.50364" lon="4.69217">
        <ele>433</ele>
        <time>2018-08-15T08:52:59.268Z</time>
      </trkpt>
      <trkpt lat="45.50364" lon="4.69217">
        <ele>433</ele>
        <time>2018-08-15T08:53:00.270Z</time>
      </trkpt>
      <trkpt lat="45.50348" lon="4.6923">
        <ele>431</ele>
        <time>2018-08-15T08:53:01.264Z</time>
      </trkpt>
      <trkpt lat="45.50348" lon="4.6923">
        <ele>431</ele>
        <time>2018-08-15T08:53:02.264Z</time>
      </trkpt>
      <trkpt lat="45.50335" lon="4.69242">
        <ele>430</ele>
        <time>2018-08-15T08:53:03.278Z</time>
      </trkpt>
      <trkpt lat="45.50335" lon="4.69242">
        <ele>430</ele>
        <time>2018-08-15T08:53:04.246Z</time>
      </trkpt>
      <trkpt lat="45.5032" lon="4.69253">
        <ele>428</ele>
        <time>2018-08-15T08:53:05.247Z</time>
      </trkpt>
      <trkpt lat="45.5032" lon="4.69253">
        <ele>428</ele>
        <time>2018-08-15T08:53:06.239Z</time>
      </trkpt>
      <trkpt lat="45.50308" lon="4.69262">
        <ele>427</ele>
        <time>2018-08-15T08:53:07.248Z</time>
      </trkpt>
      <trkpt lat="45.50308" lon="4.69262">
        <ele>427</ele>
        <time>2018-08-15T08:53:08.240Z</time>
      </trkpt>
      <trkpt lat="45.503" lon="4.69277">
        <ele>426</ele>
        <time>2018-08-15T08:53:09.253Z</time>
      </trkpt>
      <trkpt lat="45.503" lon="4.69277">
        <ele>426</ele>
        <time>2018-08-15T08:53:10.271Z</time>
      </trkpt>
      <trkpt lat="45.50306" lon="4.69295">
        <ele>425</ele>
        <time>2018-08-15T08:53:11.239Z</time>
      </trkpt>
      <trkpt lat="45.50306" lon="4.69295">
        <ele>425</ele>
        <time>2018-08-15T08:53:12.241Z</time>
      </trkpt>
      <trkpt lat="45.5032" lon="4.69303">
        <ele>425</ele>
        <time>2018-08-15T08:53:13.250Z</time>
      </trkpt>
      <trkpt lat="45.5032" lon="4.69303">
        <ele>425</ele>
        <time>2018-08-15T08:53:14.248Z</time>
      </trkpt>
      <trkpt lat="45.50334" lon="4.69307">
        <ele>425</ele>
        <time>2018-08-15T08:53:15.258Z</time>
      </trkpt>
      <trkpt lat="45.50334" lon="4.69307">
        <ele>425</ele>
        <time>2018-08-15T08:53:16.239Z</time>
      </trkpt>
      <trkpt lat="45.50347" lon="4.69312">
        <ele>425</ele>
        <time>2018-08-15T08:53:17.258Z</time>
      </trkpt>
      <trkpt lat="45.50347" lon="4.69312">
        <ele>425</ele>
        <time>2018-08-15T08:53:18.242Z</time>
      </trkpt>
      <trkpt lat="45.50359" lon="4.69317">
        <ele>425</ele>
        <time>2018-08-15T08:53:19.249Z</time>
      </trkpt>
      <trkpt lat="45.50359" lon="4.69317">
        <ele>425</ele>
        <time>2018-08-15T08:53:20.254Z</time>
      </trkpt>
      <trkpt lat="45.50371" lon="4.69322">
        <ele>425</ele>
        <time>2018-08-15T08:53:21.263Z</time>
      </trkpt>
      <trkpt lat="45.50371" lon="4.69322">
        <ele>425</ele>
        <time>2018-08-15T08:53:22.250Z</time>
      </trkpt>
      <trkpt lat="45.50383" lon="4.69327">
        <ele>425</ele>
        <time>2018-08-15T08:53:23.261Z</time>
      </trkpt>
      <trkpt lat="45.50383" lon="4.69327">
        <ele>425</ele>
        <time>2018-08-15T08:53:24.261Z</time>
      </trkpt>
      <trkpt lat="45.50393" lon="4.69331">
        <ele>426</ele>
        <time>2018-08-15T08:53:25.258Z</time>
      </trkpt>
      <trkpt lat="45.50393" lon="4.69331">
        <ele>426</ele>
        <time>2018-08-15T08:53:26.254Z</time>
      </trkpt>
      <trkpt lat="45.50404" lon="4.69335">
        <ele>426</ele>
        <time>2018-08-15T08:53:27.263Z</time>
      </trkpt>
      <trkpt lat="45.50404" lon="4.69335">
        <ele>426</ele>
        <time>2018-08-15T08:53:28.263Z</time>
      </trkpt>
      <trkpt lat="45.50414" lon="4.69339">
        <ele>426</ele>
        <time>2018-08-15T08:53:29.272Z</time>
      </trkpt>
      <trkpt lat="45.50414" lon="4.69339">
        <ele>426</ele>
        <time>2018-08-15T08:53:30.250Z</time>
      </trkpt>
      <trkpt lat="45.50424" lon="4.69343">
        <ele>427</ele>
        <time>2018-08-15T08:53:31.265Z</time>
      </trkpt>
      <trkpt lat="45.50424" lon="4.69343">
        <ele>427</ele>
        <time>2018-08-15T08:53:32.247Z</time>
      </trkpt>
      <trkpt lat="45.50435" lon="4.69347">
        <ele>427</ele>
        <time>2018-08-15T08:53:33.254Z</time>
      </trkpt>
      <trkpt lat="45.50435" lon="4.69347">
        <ele>427</ele>
        <time>2018-08-15T08:53:34.240Z</time>
      </trkpt>
      <trkpt lat="45.50444" lon="4.69352">
        <ele>427</ele>
        <time>2018-08-15T08:53:35.241Z</time>
      </trkpt>
      <trkpt lat="45.50444" lon="4.69352">
        <ele>427</ele>
        <time>2018-08-15T08:53:36.242Z</time>
      </trkpt>
      <trkpt lat="45.50454" lon="4.69357">
        <ele>428</ele>
        <time>2018-08-15T08:53:37.266Z</time>
      </trkpt>
      <trkpt lat="45.50454" lon="4.69357">
        <ele>428</ele>
        <time>2018-08-15T08:53:38.244Z</time>
      </trkpt>
      <trkpt lat="45.50463" lon="4.69364">
        <ele>428</ele>
        <time>2018-08-15T08:53:39.258Z</time>
      </trkpt>
      <trkpt lat="45.50463" lon="4.69364">
        <ele>428</ele>
        <time>2018-08-15T08:53:40.262Z</time>
      </trkpt>
      <trkpt lat="45.50472" lon="4.6937">
        <ele>428</ele>
        <time>2018-08-15T08:53:41.234Z</time>
      </trkpt>
      <trkpt lat="45.50472" lon="4.6937">
        <ele>428</ele>
        <time>2018-08-15T08:53:42.265Z</time>
      </trkpt>
      <trkpt lat="45.50481" lon="4.69378">
        <ele>428</ele>
        <time>2018-08-15T08:53:43.236Z</time>
      </trkpt>
      <trkpt lat="45.50481" lon="4.69378">
        <ele>428</ele>
        <time>2018-08-15T08:53:44.253Z</time>
      </trkpt>
      <trkpt lat="45.50489" lon="4.69386">
        <ele>428</ele>
        <time>2018-08-15T08:53:45.263Z</time>
      </trkpt>
      <trkpt lat="45.50489" lon="4.69386">
        <ele>428</ele>
        <time>2018-08-15T08:53:46.257Z</time>
      </trkpt>
      <trkpt lat="45.50497" lon="4.69395">
        <ele>429</ele>
        <time>2018-08-15T08:53:47.267Z</time>
      </trkpt>
      <trkpt lat="45.50497" lon="4.69395">
        <ele>429</ele>
        <time>2018-08-15T08:53:48.264Z</time>
      </trkpt>
      <trkpt lat="45.50506" lon="4.69402">
        <ele>429</ele>
        <time>2018-08-15T08:53:49.234Z</time>
      </trkpt>
      <trkpt lat="45.50506" lon="4.69402">
        <ele>429</ele>
        <time>2018-08-15T08:53:50.252Z</time>
      </trkpt>
      <trkpt lat="45.50514" lon="4.69409">
        <ele>429</ele>
        <time>2018-08-15T08:53:51.263Z</time>
      </trkpt>
      <trkpt lat="45.50514" lon="4.69409">
        <ele>429</ele>
        <time>2018-08-15T08:53:52.248Z</time>
      </trkpt>
      <trkpt lat="45.50522" lon="4.69416">
        <ele>429</ele>
        <time>2018-08-15T08:53:53.260Z</time>
      </trkpt>
      <trkpt lat="45.50522" lon="4.69416">
        <ele>429</ele>
        <time>2018-08-15T08:53:54.249Z</time>
      </trkpt>
      <trkpt lat="45.50531" lon="4.69421">
        <ele>429</ele>
        <time>2018-08-15T08:53:55.248Z</time>
      </trkpt>
      <trkpt lat="45.50531" lon="4.69421">
        <ele>429</ele>
        <time>2018-08-15T08:53:56.258Z</time>
      </trkpt>
      <trkpt lat="45.5054" lon="4.69429">
        <ele>429</ele>
        <time>2018-08-15T08:53:57.277Z</time>
      </trkpt>
      <trkpt lat="45.5054" lon="4.69429">
        <ele>429</ele>
        <time>2018-08-15T08:53:58.242Z</time>
      </trkpt>
      <trkpt lat="45.5055" lon="4.69438">
        <ele>428</ele>
        <time>2018-08-15T08:53:59.250Z</time>
      </trkpt>
      <trkpt lat="45.5055" lon="4.69438">
        <ele>428</ele>
        <time>2018-08-15T08:54:00.247Z</time>
      </trkpt>
      <trkpt lat="45.50558" lon="4.6945">
        <ele>428</ele>
        <time>2018-08-15T08:54:01.256Z</time>
      </trkpt>
      <trkpt lat="45.50558" lon="4.6945">
        <ele>428</ele>
        <time>2018-08-15T08:54:02.262Z</time>
      </trkpt>
      <trkpt lat="45.50565" lon="4.69464">
        <ele>427</ele>
        <time>2018-08-15T08:54:03.246Z</time>
      </trkpt>
      <trkpt lat="45.50565" lon="4.69464">
        <ele>427</ele>
        <time>2018-08-15T08:54:04.255Z</time>
      </trkpt>
      <trkpt lat="45.50569" lon="4.69481">
        <ele>426</ele>
        <time>2018-08-15T08:54:05.266Z</time>
      </trkpt>
      <trkpt lat="45.50569" lon="4.69481">
        <ele>426</ele>
        <time>2018-08-15T08:54:06.252Z</time>
      </trkpt>
      <trkpt lat="45.50572" lon="4.695">
        <ele>425</ele>
        <time>2018-08-15T08:54:07.270Z</time>
      </trkpt>
      <trkpt lat="45.50573" lon="4.69509">
        <ele>425</ele>
        <time>2018-08-15T08:54:08.269Z</time>
      </trkpt>
      <trkpt lat="45.50574" lon="4.6952">
        <ele>425</ele>
        <time>2018-08-15T08:54:09.261Z</time>
      </trkpt>
      <trkpt lat="45.50574" lon="4.6952">
        <ele>425</ele>
        <time>2018-08-15T08:54:10.256Z</time>
      </trkpt>
      <trkpt lat="45.50572" lon="4.69542">
        <ele>424</ele>
        <time>2018-08-15T08:54:11.270Z</time>
      </trkpt>
      <trkpt lat="45.50572" lon="4.69542">
        <ele>424</ele>
        <time>2018-08-15T08:54:12.269Z</time>
      </trkpt>
      <trkpt lat="45.50569" lon="4.69564">
        <ele>424</ele>
        <time>2018-08-15T08:54:13.245Z</time>
      </trkpt>
      <trkpt lat="45.50569" lon="4.69564">
        <ele>424</ele>
        <time>2018-08-15T08:54:14.253Z</time>
      </trkpt>
      <trkpt lat="45.50567" lon="4.69586">
        <ele>423</ele>
        <time>2018-08-15T08:54:15.263Z</time>
      </trkpt>
      <trkpt lat="45.50567" lon="4.69586">
        <ele>423</ele>
        <time>2018-08-15T08:54:16.270Z</time>
      </trkpt>
      <trkpt lat="45.50563" lon="4.6961">
        <ele>422</ele>
        <time>2018-08-15T08:54:17.244Z</time>
      </trkpt>
      <trkpt lat="45.50563" lon="4.6961">
        <ele>422</ele>
        <time>2018-08-15T08:54:18.245Z</time>
      </trkpt>
      <trkpt lat="45.50558" lon="4.69635">
        <ele>421</ele>
        <time>2018-08-15T08:54:19.255Z</time>
      </trkpt>
      <trkpt lat="45.50558" lon="4.69635">
        <ele>421</ele>
        <time>2018-08-15T08:54:20.259Z</time>
      </trkpt>
      <trkpt lat="45.50554" lon="4.69659">
        <ele>420</ele>
        <time>2018-08-15T08:54:21.268Z</time>
      </trkpt>
      <trkpt lat="45.50554" lon="4.69659">
        <ele>420</ele>
        <time>2018-08-15T08:54:22.259Z</time>
      </trkpt>
      <trkpt lat="45.5055" lon="4.69679">
        <ele>420</ele>
        <time>2018-08-15T08:54:23.269Z</time>
      </trkpt>
      <trkpt lat="45.5055" lon="4.69679">
        <ele>420</ele>
        <time>2018-08-15T08:54:24.270Z</time>
      </trkpt>
      <trkpt lat="45.50547" lon="4.69697">
        <ele>419</ele>
        <time>2018-08-15T08:54:25.241Z</time>
      </trkpt>
      <trkpt lat="45.50547" lon="4.69697">
        <ele>419</ele>
        <time>2018-08-15T08:54:26.269Z</time>
      </trkpt>
      <trkpt lat="45.5055" lon="4.69714">
        <ele>418</ele>
        <time>2018-08-15T08:54:27.254Z</time>
      </trkpt>
      <trkpt lat="45.5055" lon="4.69714">
        <ele>418</ele>
        <time>2018-08-15T08:54:28.268Z</time>
      </trkpt>
      <trkpt lat="45.50558" lon="4.69727">
        <ele>417</ele>
        <time>2018-08-15T08:54:29.249Z</time>
      </trkpt>
      <trkpt lat="45.50558" lon="4.69727">
        <ele>417</ele>
        <time>2018-08-15T08:54:30.232Z</time>
      </trkpt>
      <trkpt lat="45.50567" lon="4.69738">
        <ele>417</ele>
        <time>2018-08-15T08:54:31.241Z</time>
      </trkpt>
      <trkpt lat="45.50567" lon="4.69738">
        <ele>417</ele>
        <time>2018-08-15T08:54:32.257Z</time>
      </trkpt>
      <trkpt lat="45.50578" lon="4.69743">
        <ele>417</ele>
        <time>2018-08-15T08:54:33.271Z</time>
      </trkpt>
      <trkpt lat="45.50578" lon="4.69743">
        <ele>417</ele>
        <time>2018-08-15T08:54:34.249Z</time>
      </trkpt>
      <trkpt lat="45.50588" lon="4.69739">
        <ele>417</ele>
        <time>2018-08-15T08:54:35.259Z</time>
      </trkpt>
      <trkpt lat="45.50588" lon="4.69739">
        <ele>417</ele>
        <time>2018-08-15T08:54:36.269Z</time>
      </trkpt>
      <trkpt lat="45.50596" lon="4.6973">
        <ele>417</ele>
        <time>2018-08-15T08:54:37.237Z</time>
      </trkpt>
      <trkpt lat="45.50596" lon="4.6973">
        <ele>417</ele>
        <time>2018-08-15T08:54:38.269Z</time>
      </trkpt>
      <trkpt lat="45.50601" lon="4.6972">
        <ele>417</ele>
        <time>2018-08-15T08:54:39.237Z</time>
      </trkpt>
      <trkpt lat="45.50601" lon="4.6972">
        <ele>417</ele>
        <time>2018-08-15T08:54:40.249Z</time>
      </trkpt>
      <trkpt lat="45.50606" lon="4.69708">
        <ele>417</ele>
        <time>2018-08-15T08:54:41.259Z</time>
      </trkpt>
      <trkpt lat="45.50606" lon="4.69708">
        <ele>417</ele>
        <time>2018-08-15T08:54:42.253Z</time>
      </trkpt>
      <trkpt lat="45.50611" lon="4.69697">
        <ele>417</ele>
        <time>2018-08-15T08:54:43.269Z</time>
      </trkpt>
      <trkpt lat="45.50611" lon="4.69697">
        <ele>417</ele>
        <time>2018-08-15T08:54:44.233Z</time>
      </trkpt>
      <trkpt lat="45.50615" lon="4.69687">
        <ele>418</ele>
        <time>2018-08-15T08:54:45.249Z</time>
      </trkpt>
      <trkpt lat="45.50615" lon="4.69687">
        <ele>418</ele>
        <time>2018-08-15T08:54:46.244Z</time>
      </trkpt>
      <trkpt lat="45.5062" lon="4.69679">
        <ele>419</ele>
        <time>2018-08-15T08:54:47.258Z</time>
      </trkpt>
      <trkpt lat="45.50622" lon="4.69674">
        <ele>419</ele>
        <time>2018-08-15T08:54:48.257Z</time>
      </trkpt>
      <trkpt lat="45.50622" lon="4.69674">
        <ele>419</ele>
        <time>2018-08-15T08:54:49.240Z</time>
      </trkpt>
      <trkpt lat="45.50626" lon="4.69666">
        <ele>420</ele>
        <time>2018-08-15T08:54:50.246Z</time>
      </trkpt>
      <trkpt lat="45.50628" lon="4.69661">
        <ele>420</ele>
        <time>2018-08-15T08:54:51.247Z</time>
      </trkpt>
      <trkpt lat="45.50628" lon="4.69661">
        <ele>420</ele>
        <time>2018-08-15T08:54:52.247Z</time>
      </trkpt>
      <trkpt lat="45.50632" lon="4.69652">
        <ele>421</ele>
        <time>2018-08-15T08:54:53.254Z</time>
      </trkpt>
      <trkpt lat="45.50632" lon="4.69652">
        <ele>421</ele>
        <time>2018-08-15T08:54:54.257Z</time>
      </trkpt>
      <trkpt lat="45.50636" lon="4.69643">
        <ele>422</ele>
        <time>2018-08-15T08:54:55.268Z</time>
      </trkpt>
      <trkpt lat="45.50636" lon="4.69643">
        <ele>422</ele>
        <time>2018-08-15T08:54:56.239Z</time>
      </trkpt>
      <trkpt lat="45.5064" lon="4.69634">
        <ele>423</ele>
        <time>2018-08-15T08:54:57.260Z</time>
      </trkpt>
      <trkpt lat="45.5064" lon="4.69634">
        <ele>423</ele>
        <time>2018-08-15T08:54:58.253Z</time>
      </trkpt>
      <trkpt lat="45.50645" lon="4.69624">
        <ele>423</ele>
        <time>2018-08-15T08:54:59.244Z</time>
      </trkpt>
      <trkpt lat="45.50645" lon="4.69624">
        <ele>423</ele>
        <time>2018-08-15T08:55:00.238Z</time>
      </trkpt>
      <trkpt lat="45.50649" lon="4.69616">
        <ele>424</ele>
        <time>2018-08-15T08:55:01.250Z</time>
      </trkpt>
      <trkpt lat="45.50651" lon="4.69612">
        <ele>424</ele>
        <time>2018-08-15T08:55:02.252Z</time>
      </trkpt>
      <trkpt lat="45.50651" lon="4.69612">
        <ele>424</ele>
        <time>2018-08-15T08:55:03.256Z</time>
      </trkpt>
      <trkpt lat="45.50654" lon="4.69603">
        <ele>424</ele>
        <time>2018-08-15T08:55:04.266Z</time>
      </trkpt>
      <trkpt lat="45.50655" lon="4.69599">
        <ele>425</ele>
        <time>2018-08-15T08:55:05.257Z</time>
      </trkpt>
      <trkpt lat="45.50655" lon="4.69599">
        <ele>425</ele>
        <time>2018-08-15T08:55:06.242Z</time>
      </trkpt>
      <trkpt lat="45.50657" lon="4.6959">
        <ele>425</ele>
        <time>2018-08-15T08:55:07.253Z</time>
      </trkpt>
      <trkpt lat="45.50657" lon="4.6959">
        <ele>425</ele>
        <time>2018-08-15T08:55:08.259Z</time>
      </trkpt>
      <trkpt lat="45.5066" lon="4.6958">
        <ele>426</ele>
        <time>2018-08-15T08:55:09.272Z</time>
      </trkpt>
      <trkpt lat="45.5066" lon="4.6958">
        <ele>426</ele>
        <time>2018-08-15T08:55:10.266Z</time>
      </trkpt>
      <trkpt lat="45.50663" lon="4.6957">
        <ele>426</ele>
        <time>2018-08-15T08:55:11.243Z</time>
      </trkpt>
      <trkpt lat="45.50663" lon="4.6957">
        <ele>426</ele>
        <time>2018-08-15T08:55:12.240Z</time>
      </trkpt>
      <trkpt lat="45.50666" lon="4.69561">
        <ele>426</ele>
        <time>2018-08-15T08:55:13.248Z</time>
      </trkpt>
      <trkpt lat="45.50667" lon="4.69557">
        <ele>426</ele>
        <time>2018-08-15T08:55:14.255Z</time>
      </trkpt>
      <trkpt lat="45.50669" lon="4.69553">
        <ele>427</ele>
        <time>2018-08-15T08:55:15.265Z</time>
      </trkpt>
      <trkpt lat="45.50669" lon="4.69553">
        <ele>427</ele>
        <time>2018-08-15T08:55:16.244Z</time>
      </trkpt>
      <trkpt lat="45.50673" lon="4.69545">
        <ele>427</ele>
        <time>2018-08-15T08:55:17.256Z</time>
      </trkpt>
      <trkpt lat="45.50673" lon="4.69545">
        <ele>427</ele>
        <time>2018-08-15T08:55:18.244Z</time>
      </trkpt>
      <trkpt lat="45.50676" lon="4.69537">
        <ele>427</ele>
        <time>2018-08-15T08:55:19.252Z</time>
      </trkpt>
      <trkpt lat="45.50678" lon="4.69533">
        <ele>427</ele>
        <time>2018-08-15T08:55:20.268Z</time>
      </trkpt>
      <trkpt lat="45.5068" lon="4.69529">
        <ele>427</ele>
        <time>2018-08-15T08:55:21.251Z</time>
      </trkpt>
      <trkpt lat="45.5068" lon="4.69529">
        <ele>427</ele>
        <time>2018-08-15T08:55:22.245Z</time>
      </trkpt>
      <trkpt lat="45.50684" lon="4.69521">
        <ele>428</ele>
        <time>2018-08-15T08:55:23.253Z</time>
      </trkpt>
      <trkpt lat="45.50684" lon="4.69521">
        <ele>428</ele>
        <time>2018-08-15T08:55:24.247Z</time>
      </trkpt>
      <trkpt lat="45.50687" lon="4.69514">
        <ele>428</ele>
        <time>2018-08-15T08:55:25.257Z</time>
      </trkpt>
      <trkpt lat="45.50687" lon="4.69514">
        <ele>428</ele>
        <time>2018-08-15T08:55:26.233Z</time>
      </trkpt>
      <trkpt lat="45.50691" lon="4.69506">
        <ele>428</ele>
        <time>2018-08-15T08:55:27.242Z</time>
      </trkpt>
      <trkpt lat="45.50691" lon="4.69506">
        <ele>428</ele>
        <time>2018-08-15T08:55:28.262Z</time>
      </trkpt>
      <trkpt lat="45.50696" lon="4.69498">
        <ele>428</ele>
        <time>2018-08-15T08:55:29.245Z</time>
      </trkpt>
      <trkpt lat="45.50696" lon="4.69498">
        <ele>428</ele>
        <time>2018-08-15T08:55:30.239Z</time>
      </trkpt>
      <trkpt lat="45.507" lon="4.69492">
        <ele>429</ele>
        <time>2018-08-15T08:55:31.276Z</time>
      </trkpt>
      <trkpt lat="45.507" lon="4.69492">
        <ele>429</ele>
        <time>2018-08-15T08:55:32.269Z</time>
      </trkpt>
      <trkpt lat="45.50705" lon="4.69486">
        <ele>429</ele>
        <time>2018-08-15T08:55:33.262Z</time>
      </trkpt>
      <trkpt lat="45.50705" lon="4.69486">
        <ele>429</ele>
        <time>2018-08-15T08:55:34.249Z</time>
      </trkpt>
      <trkpt lat="45.50711" lon="4.69483">
        <ele>429</ele>
        <time>2018-08-15T08:55:35.257Z</time>
      </trkpt>
      <trkpt lat="45.50711" lon="4.69483">
        <ele>429</ele>
        <time>2018-08-15T08:55:36.268Z</time>
      </trkpt>
      <trkpt lat="45.50717" lon="4.69482">
        <ele>430</ele>
        <time>2018-08-15T08:55:37.239Z</time>
      </trkpt>
      <trkpt lat="45.50717" lon="4.69482">
        <ele>430</ele>
        <time>2018-08-15T08:55:38.252Z</time>
      </trkpt>
      <trkpt lat="45.50723" lon="4.69484">
        <ele>430</ele>
        <time>2018-08-15T08:55:39.268Z</time>
      </trkpt>
      <trkpt lat="45.50723" lon="4.69484">
        <ele>430</ele>
        <time>2018-08-15T08:55:40.238Z</time>
      </trkpt>
      <trkpt lat="45.50727" lon="4.69489">
        <ele>430</ele>
        <time>2018-08-15T08:55:41.249Z</time>
      </trkpt>
      <trkpt lat="45.50727" lon="4.69489">
        <ele>430</ele>
        <time>2018-08-15T08:55:42.240Z</time>
      </trkpt>
      <trkpt lat="45.5073" lon="4.69495">
        <ele>430</ele>
        <time>2018-08-15T08:55:43.255Z</time>
      </trkpt>
      <trkpt lat="45.5073" lon="4.69495">
        <ele>430</ele>
        <time>2018-08-15T08:55:44.248Z</time>
      </trkpt>
      <trkpt lat="45.50733" lon="4.69502">
        <ele>431</ele>
        <time>2018-08-15T08:55:45.258Z</time>
      </trkpt>
      <trkpt lat="45.50733" lon="4.69502">
        <ele>431</ele>
        <time>2018-08-15T08:55:46.254Z</time>
      </trkpt>
      <trkpt lat="45.50734" lon="4.69508">
        <ele>431</ele>
        <time>2018-08-15T08:55:47.272Z</time>
      </trkpt>
      <trkpt lat="45.50734" lon="4.69508">
        <ele>431</ele>
        <time>2018-08-15T08:55:48.250Z</time>
      </trkpt>
      <trkpt lat="45.50736" lon="4.69516">
        <ele>431</ele>
        <time>2018-08-15T08:55:49.238Z</time>
      </trkpt>
      <trkpt lat="45.50736" lon="4.69516">
        <ele>431</ele>
        <time>2018-08-15T08:55:50.254Z</time>
      </trkpt>
      <trkpt lat="45.50737" lon="4.69523">
        <ele>432</ele>
        <time>2018-08-15T08:55:51.263Z</time>
      </trkpt>
      <trkpt lat="45.50737" lon="4.69523">
        <ele>432</ele>
        <time>2018-08-15T08:55:52.262Z</time>
      </trkpt>
      <trkpt lat="45.50738" lon="4.6953">
        <ele>432</ele>
        <time>2018-08-15T08:55:53.272Z</time>
      </trkpt>
      <trkpt lat="45.50738" lon="4.6953">
        <ele>432</ele>
        <time>2018-08-15T08:55:54.236Z</time>
      </trkpt>
      <trkpt lat="45.5074" lon="4.69538">
        <ele>432</ele>
        <time>2018-08-15T08:55:55.233Z</time>
      </trkpt>
      <trkpt lat="45.5074" lon="4.69538">
        <ele>432</ele>
        <time>2018-08-15T08:55:56.270Z</time>
      </trkpt>
      <trkpt lat="45.50741" lon="4.69545">
        <ele>432</ele>
        <time>2018-08-15T08:55:57.241Z</time>
      </trkpt>
      <trkpt lat="45.50741" lon="4.69545">
        <ele>432</ele>
        <time>2018-08-15T08:55:58.257Z</time>
      </trkpt>
      <trkpt lat="45.50742" lon="4.69553">
        <ele>432</ele>
        <time>2018-08-15T08:55:59.268Z</time>
      </trkpt>
      <trkpt lat="45.50742" lon="4.69553">
        <ele>432</ele>
        <time>2018-08-15T08:56:00.240Z</time>
      </trkpt>
      <trkpt lat="45.50744" lon="4.69561">
        <ele>432</ele>
        <time>2018-08-15T08:56:01.274Z</time>
      </trkpt>
      <trkpt lat="45.50744" lon="4.69561">
        <ele>432</ele>
        <time>2018-08-15T08:56:02.259Z</time>
      </trkpt>
      <trkpt lat="45.50745" lon="4.69568">
        <ele>433</ele>
        <time>2018-08-15T08:56:03.232Z</time>
      </trkpt>
      <trkpt lat="45.50745" lon="4.69568">
        <ele>433</ele>
        <time>2018-08-15T08:56:04.261Z</time>
      </trkpt>
      <trkpt lat="45.50745" lon="4.69568">
        <ele>433</ele>
        <time>2018-08-15T08:56:05.245Z</time>
      </trkpt>
      <trkpt lat="45.50746" lon="4.69575">
        <ele>433</ele>
        <time>2018-08-15T08:56:06.257Z</time>
      </trkpt>
      <trkpt lat="45.50747" lon="4.69582">
        <ele>433</ele>
        <time>2018-08-15T08:56:07.270Z</time>
      </trkpt>
      <trkpt lat="45.50747" lon="4.69582">
        <ele>433</ele>
        <time>2018-08-15T08:56:08.260Z</time>
      </trkpt>
      <trkpt lat="45.50749" lon="4.69589">
        <ele>434</ele>
        <time>2018-08-15T08:56:09.275Z</time>
      </trkpt>
      <trkpt lat="45.50749" lon="4.69589">
        <ele>434</ele>
        <time>2018-08-15T08:56:10.249Z</time>
      </trkpt>
      <trkpt lat="45.5075" lon="4.69596">
        <ele>435</ele>
        <time>2018-08-15T08:56:11.262Z</time>
      </trkpt>
      <trkpt lat="45.5075" lon="4.69596">
        <ele>435</ele>
        <time>2018-08-15T08:56:12.269Z</time>
      </trkpt>
      <trkpt lat="45.50751" lon="4.69604">
        <ele>435</ele>
        <time>2018-08-15T08:56:13.243Z</time>
      </trkpt>
      <trkpt lat="45.50751" lon="4.69604">
        <ele>435</ele>
        <time>2018-08-15T08:56:14.248Z</time>
      </trkpt>
      <trkpt lat="45.50753" lon="4.69611">
        <ele>435</ele>
        <time>2018-08-15T08:56:15.264Z</time>
      </trkpt>
      <trkpt lat="45.50753" lon="4.69611">
        <ele>435</ele>
        <time>2018-08-15T08:56:16.239Z</time>
      </trkpt>
      <trkpt lat="45.50754" lon="4.69618">
        <ele>435</ele>
        <time>2018-08-15T08:56:17.248Z</time>
      </trkpt>
      <trkpt lat="45.50754" lon="4.69618">
        <ele>435</ele>
        <time>2018-08-15T08:56:18.240Z</time>
      </trkpt>
      <trkpt lat="45.50756" lon="4.69626">
        <ele>435</ele>
        <time>2018-08-15T08:56:19.260Z</time>
      </trkpt>
      <trkpt lat="45.50756" lon="4.69626">
        <ele>435</ele>
        <time>2018-08-15T08:56:20.264Z</time>
      </trkpt>
      <trkpt lat="45.50758" lon="4.69633">
        <ele>435</ele>
        <time>2018-08-15T08:56:21.273Z</time>
      </trkpt>
      <trkpt lat="45.50758" lon="4.69633">
        <ele>435</ele>
        <time>2018-08-15T08:56:22.255Z</time>
      </trkpt>
      <trkpt lat="45.50761" lon="4.69641">
        <ele>436</ele>
        <time>2018-08-15T08:56:23.268Z</time>
      </trkpt>
      <trkpt lat="45.50761" lon="4.69641">
        <ele>436</ele>
        <time>2018-08-15T08:56:24.268Z</time>
      </trkpt>
      <trkpt lat="45.50764" lon="4.69649">
        <ele>435</ele>
        <time>2018-08-15T08:56:25.247Z</time>
      </trkpt>
      <trkpt lat="45.50764" lon="4.69649">
        <ele>435</ele>
        <time>2018-08-15T08:56:26.258Z</time>
      </trkpt>
      <trkpt lat="45.50767" lon="4.69656">
        <ele>436</ele>
        <time>2018-08-15T08:56:27.240Z</time>
      </trkpt>
      <trkpt lat="45.50767" lon="4.69656">
        <ele>436</ele>
        <time>2018-08-15T08:56:28.263Z</time>
      </trkpt>
      <trkpt lat="45.5077" lon="4.69663">
        <ele>436</ele>
        <time>2018-08-15T08:56:29.232Z</time>
      </trkpt>
      <trkpt lat="45.5077" lon="4.69663">
        <ele>436</ele>
        <time>2018-08-15T08:56:30.255Z</time>
      </trkpt>
      <trkpt lat="45.50773" lon="4.69669">
        <ele>436</ele>
        <time>2018-08-15T08:56:31.267Z</time>
      </trkpt>
      <trkpt lat="45.50773" lon="4.69669">
        <ele>436</ele>
        <time>2018-08-15T08:56:32.254Z</time>
      </trkpt>
      <trkpt lat="45.50775" lon="4.69676">
        <ele>436</ele>
        <time>2018-08-15T08:56:33.265Z</time>
      </trkpt>
      <trkpt lat="45.50775" lon="4.69676">
        <ele>436</ele>
        <time>2018-08-15T08:56:34.248Z</time>
      </trkpt>
      <trkpt lat="45.50778" lon="4.69682">
        <ele>436</ele>
        <time>2018-08-15T08:56:35.257Z</time>
      </trkpt>
      <trkpt lat="45.50778" lon="4.69682">
        <ele>436</ele>
        <time>2018-08-15T08:56:36.258Z</time>
      </trkpt>
      <trkpt lat="45.50781" lon="4.69689">
        <ele>436</ele>
        <time>2018-08-15T08:56:37.246Z</time>
      </trkpt>
      <trkpt lat="45.50781" lon="4.69689">
        <ele>436</ele>
        <time>2018-08-15T08:56:38.263Z</time>
      </trkpt>
      <trkpt lat="45.50784" lon="4.69695">
        <ele>436</ele>
        <time>2018-08-15T08:56:39.257Z</time>
      </trkpt>
      <trkpt lat="45.50784" lon="4.69695">
        <ele>436</ele>
        <time>2018-08-15T08:56:40.269Z</time>
      </trkpt>
      <trkpt lat="45.50787" lon="4.69702">
        <ele>437</ele>
        <time>2018-08-15T08:56:41.252Z</time>
      </trkpt>
      <trkpt lat="45.50787" lon="4.69702">
        <ele>437</ele>
        <time>2018-08-15T08:56:42.268Z</time>
      </trkpt>
      <trkpt lat="45.5079" lon="4.69709">
        <ele>437</ele>
        <time>2018-08-15T08:56:43.245Z</time>
      </trkpt>
      <trkpt lat="45.5079" lon="4.69709">
        <ele>437</ele>
        <time>2018-08-15T08:56:44.237Z</time>
      </trkpt>
      <trkpt lat="45.50792" lon="4.69716">
        <ele>437</ele>
        <time>2018-08-15T08:56:45.255Z</time>
      </trkpt>
      <trkpt lat="45.50792" lon="4.69716">
        <ele>437</ele>
        <time>2018-08-15T08:56:46.266Z</time>
      </trkpt>
      <trkpt lat="45.50795" lon="4.69723">
        <ele>437</ele>
        <time>2018-08-15T08:56:47.242Z</time>
      </trkpt>
      <trkpt lat="45.50795" lon="4.69723">
        <ele>437</ele>
        <time>2018-08-15T08:56:48.242Z</time>
      </trkpt>
      <trkpt lat="45.50799" lon="4.6973">
        <ele>438</ele>
        <time>2018-08-15T08:56:49.242Z</time>
      </trkpt>
      <trkpt lat="45.50799" lon="4.6973">
        <ele>438</ele>
        <time>2018-08-15T08:56:50.269Z</time>
      </trkpt>
      <trkpt lat="45.50802" lon="4.69737">
        <ele>438</ele>
        <time>2018-08-15T08:56:51.240Z</time>
      </trkpt>
      <trkpt lat="45.50802" lon="4.69737">
        <ele>438</ele>
        <time>2018-08-15T08:56:52.248Z</time>
      </trkpt>
      <trkpt lat="45.50804" lon="4.69744">
        <ele>438</ele>
        <time>2018-08-15T08:56:53.260Z</time>
      </trkpt>
      <trkpt lat="45.50804" lon="4.69744">
        <ele>438</ele>
        <time>2018-08-15T08:56:54.269Z</time>
      </trkpt>
      <trkpt lat="45.50807" lon="4.69751">
        <ele>438</ele>
        <time>2018-08-15T08:56:55.240Z</time>
      </trkpt>
      <trkpt lat="45.50807" lon="4.69751">
        <ele>438</ele>
        <time>2018-08-15T08:56:56.271Z</time>
      </trkpt>
      <trkpt lat="45.50811" lon="4.69758">
        <ele>438</ele>
        <time>2018-08-15T08:56:57.256Z</time>
      </trkpt>
      <trkpt lat="45.50811" lon="4.69758">
        <ele>438</ele>
        <time>2018-08-15T08:56:58.243Z</time>
      </trkpt>
      <trkpt lat="45.50814" lon="4.69766">
        <ele>438</ele>
        <time>2018-08-15T08:56:59.251Z</time>
      </trkpt>
      <trkpt lat="45.50814" lon="4.69766">
        <ele>438</ele>
        <time>2018-08-15T08:57:00.237Z</time>
      </trkpt>
      <trkpt lat="45.50817" lon="4.69774">
        <ele>438</ele>
        <time>2018-08-15T08:57:01.245Z</time>
      </trkpt>
      <trkpt lat="45.50817" lon="4.69774">
        <ele>438</ele>
        <time>2018-08-15T08:57:02.268Z</time>
      </trkpt>
      <trkpt lat="45.50821" lon="4.69782">
        <ele>438</ele>
        <time>2018-08-15T08:57:03.235Z</time>
      </trkpt>
      <trkpt lat="45.50821" lon="4.69782">
        <ele>438</ele>
        <time>2018-08-15T08:57:04.238Z</time>
      </trkpt>
      <trkpt lat="45.50826" lon="4.69792">
        <ele>437</ele>
        <time>2018-08-15T08:57:05.248Z</time>
      </trkpt>
      <trkpt lat="45.50826" lon="4.69792">
        <ele>437</ele>
        <time>2018-08-15T08:57:06.271Z</time>
      </trkpt>
      <trkpt lat="45.50831" lon="4.69802">
        <ele>437</ele>
        <time>2018-08-15T08:57:07.272Z</time>
      </trkpt>
      <trkpt lat="45.50834" lon="4.69807">
        <ele>437</ele>
        <time>2018-08-15T08:57:08.266Z</time>
      </trkpt>
      <trkpt lat="45.50836" lon="4.69813">
        <ele>436</ele>
        <time>2018-08-15T08:57:09.271Z</time>
      </trkpt>
      <trkpt lat="45.50836" lon="4.69813">
        <ele>436</ele>
        <time>2018-08-15T08:57:10.259Z</time>
      </trkpt>
      <trkpt lat="45.50842" lon="4.69824">
        <ele>436</ele>
        <time>2018-08-15T08:57:11.267Z</time>
      </trkpt>
      <trkpt lat="45.50842" lon="4.69824">
        <ele>436</ele>
        <time>2018-08-15T08:57:12.254Z</time>
      </trkpt>
      <trkpt lat="45.50848" lon="4.69836">
        <ele>436</ele>
        <time>2018-08-15T08:57:13.262Z</time>
      </trkpt>
      <trkpt lat="45.50848" lon="4.69836">
        <ele>436</ele>
        <time>2018-08-15T08:57:14.249Z</time>
      </trkpt>
      <trkpt lat="45.50854" lon="4.69849">
        <ele>436</ele>
        <time>2018-08-15T08:57:15.241Z</time>
      </trkpt>
      <trkpt lat="45.50854" lon="4.69849">
        <ele>436</ele>
        <time>2018-08-15T08:57:16.256Z</time>
      </trkpt>
      <trkpt lat="45.5086" lon="4.69861">
        <ele>435</ele>
        <time>2018-08-15T08:57:17.264Z</time>
      </trkpt>
      <trkpt lat="45.5086" lon="4.69861">
        <ele>435</ele>
        <time>2018-08-15T08:57:18.239Z</time>
      </trkpt>
      <trkpt lat="45.50867" lon="4.69872">
        <ele>435</ele>
        <time>2018-08-15T08:57:19.247Z</time>
      </trkpt>
      <trkpt lat="45.50867" lon="4.69872">
        <ele>435</ele>
        <time>2018-08-15T08:57:20.259Z</time>
      </trkpt>
      <trkpt lat="45.50875" lon="4.69884">
        <ele>434</ele>
        <time>2018-08-15T08:57:21.269Z</time>
      </trkpt>
      <trkpt lat="45.50875" lon="4.69884">
        <ele>434</ele>
        <time>2018-08-15T08:57:22.238Z</time>
      </trkpt>
      <trkpt lat="45.50884" lon="4.69898">
        <ele>433</ele>
        <time>2018-08-15T08:57:23.259Z</time>
      </trkpt>
      <trkpt lat="45.50884" lon="4.69898">
        <ele>433</ele>
        <time>2018-08-15T08:57:24.256Z</time>
      </trkpt>
      <trkpt lat="45.50892" lon="4.69914">
        <ele>432</ele>
        <time>2018-08-15T08:57:25.288Z</time>
      </trkpt>
      <trkpt lat="45.50892" lon="4.69914">
        <ele>432</ele>
        <time>2018-08-15T08:57:26.234Z</time>
      </trkpt>
      <trkpt lat="45.509" lon="4.69933">
        <ele>431</ele>
        <time>2018-08-15T08:57:27.243Z</time>
      </trkpt>
      <trkpt lat="45.509" lon="4.69933">
        <ele>431</ele>
        <time>2018-08-15T08:57:28.270Z</time>
      </trkpt>
      <trkpt lat="45.50906" lon="4.69955">
        <ele>430</ele>
        <time>2018-08-15T08:57:29.240Z</time>
      </trkpt>
      <trkpt lat="45.50906" lon="4.69955">
        <ele>430</ele>
        <time>2018-08-15T08:57:30.236Z</time>
      </trkpt>
      <trkpt lat="45.50912" lon="4.69978">
        <ele>429</ele>
        <time>2018-08-15T08:57:31.249Z</time>
      </trkpt>
      <trkpt lat="45.50912" lon="4.69978">
        <ele>429</ele>
        <time>2018-08-15T08:57:32.254Z</time>
      </trkpt>
      <trkpt lat="45.50918" lon="4.70003">
        <ele>428</ele>
        <time>2018-08-15T08:57:33.270Z</time>
      </trkpt>
      <trkpt lat="45.50918" lon="4.70003">
        <ele>428</ele>
        <time>2018-08-15T08:57:34.268Z</time>
      </trkpt>
      <trkpt lat="45.50927" lon="4.70027">
        <ele>427</ele>
        <time>2018-08-15T08:57:35.235Z</time>
      </trkpt>
      <trkpt lat="45.50927" lon="4.70027">
        <ele>427</ele>
        <time>2018-08-15T08:57:36.235Z</time>
      </trkpt>
      <trkpt lat="45.50939" lon="4.70045">
        <ele>426</ele>
        <time>2018-08-15T08:57:37.261Z</time>
      </trkpt>
      <trkpt lat="45.50939" lon="4.70045">
        <ele>426</ele>
        <time>2018-08-15T08:57:38.244Z</time>
      </trkpt>
      <trkpt lat="45.50953" lon="4.70061">
        <ele>426</ele>
        <time>2018-08-15T08:57:39.254Z</time>
      </trkpt>
      <trkpt lat="45.50953" lon="4.70061">
        <ele>426</ele>
        <time>2018-08-15T08:57:40.255Z</time>
      </trkpt>
      <trkpt lat="45.50966" lon="4.70076">
        <ele>426</ele>
        <time>2018-08-15T08:57:41.265Z</time>
      </trkpt>
      <trkpt lat="45.50966" lon="4.70076">
        <ele>426</ele>
        <time>2018-08-15T08:57:42.259Z</time>
      </trkpt>
      <trkpt lat="45.50978" lon="4.70092">
        <ele>425</ele>
        <time>2018-08-15T08:57:43.269Z</time>
      </trkpt>
      <trkpt lat="45.50978" lon="4.70092">
        <ele>425</ele>
        <time>2018-08-15T08:57:44.242Z</time>
      </trkpt>
      <trkpt lat="45.5099" lon="4.70107">
        <ele>425</ele>
        <time>2018-08-15T08:57:45.261Z</time>
      </trkpt>
      <trkpt lat="45.5099" lon="4.70107">
        <ele>425</ele>
        <time>2018-08-15T08:57:46.236Z</time>
      </trkpt>
      <trkpt lat="45.51004" lon="4.70119">
        <ele>425</ele>
        <time>2018-08-15T08:57:47.246Z</time>
      </trkpt>
      <trkpt lat="45.51004" lon="4.70119">
        <ele>425</ele>
        <time>2018-08-15T08:57:48.272Z</time>
      </trkpt>
      <trkpt lat="45.51019" lon="4.70126">
        <ele>425</ele>
        <time>2018-08-15T08:57:49.258Z</time>
      </trkpt>
      <trkpt lat="45.51019" lon="4.70126">
        <ele>425</ele>
        <time>2018-08-15T08:57:50.257Z</time>
      </trkpt>
      <trkpt lat="45.51035" lon="4.70128">
        <ele>424</ele>
        <time>2018-08-15T08:57:51.268Z</time>
      </trkpt>
      <trkpt lat="45.51035" lon="4.70128">
        <ele>424</ele>
        <time>2018-08-15T08:57:52.260Z</time>
      </trkpt>
      <trkpt lat="45.51052" lon="4.70128">
        <ele>424</ele>
        <time>2018-08-15T08:57:53.268Z</time>
      </trkpt>
      <trkpt lat="45.51052" lon="4.70128">
        <ele>424</ele>
        <time>2018-08-15T08:57:54.266Z</time>
      </trkpt>
      <trkpt lat="45.51069" lon="4.70127">
        <ele>423</ele>
        <time>2018-08-15T08:57:55.259Z</time>
      </trkpt>
      <trkpt lat="45.51069" lon="4.70127">
        <ele>423</ele>
        <time>2018-08-15T08:57:56.238Z</time>
      </trkpt>
      <trkpt lat="45.51087" lon="4.70127">
        <ele>422</ele>
        <time>2018-08-15T08:57:57.244Z</time>
      </trkpt>
      <trkpt lat="45.51087" lon="4.70127">
        <ele>422</ele>
        <time>2018-08-15T08:57:58.246Z</time>
      </trkpt>
      <trkpt lat="45.51106" lon="4.7013">
        <ele>421</ele>
        <time>2018-08-15T08:57:59.260Z</time>
      </trkpt>
      <trkpt lat="45.51106" lon="4.7013">
        <ele>421</ele>
        <time>2018-08-15T08:58:00.249Z</time>
      </trkpt>
      <trkpt lat="45.51125" lon="4.70133">
        <ele>419</ele>
        <time>2018-08-15T08:58:01.263Z</time>
      </trkpt>
      <trkpt lat="45.51125" lon="4.70133">
        <ele>419</ele>
        <time>2018-08-15T08:58:02.270Z</time>
      </trkpt>
      <trkpt lat="45.51144" lon="4.70138">
        <ele>418</ele>
        <time>2018-08-15T08:58:03.248Z</time>
      </trkpt>
      <trkpt lat="45.51144" lon="4.70138">
        <ele>418</ele>
        <time>2018-08-15T08:58:04.237Z</time>
      </trkpt>
      <trkpt lat="45.51162" lon="4.70144">
        <ele>417</ele>
        <time>2018-08-15T08:58:05.247Z</time>
      </trkpt>
      <trkpt lat="45.51162" lon="4.70144">
        <ele>417</ele>
        <time>2018-08-15T08:58:06.257Z</time>
      </trkpt>
      <trkpt lat="45.51179" lon="4.70153">
        <ele>417</ele>
        <time>2018-08-15T08:58:07.251Z</time>
      </trkpt>
      <trkpt lat="45.51179" lon="4.70153">
        <ele>417</ele>
        <time>2018-08-15T08:58:08.237Z</time>
      </trkpt>
      <trkpt lat="45.51195" lon="4.70165">
        <ele>417</ele>
        <time>2018-08-15T08:58:09.245Z</time>
      </trkpt>
      <trkpt lat="45.51195" lon="4.70165">
        <ele>417</ele>
        <time>2018-08-15T08:58:10.238Z</time>
      </trkpt>
      <trkpt lat="45.51209" lon="4.70178">
        <ele>417</ele>
        <time>2018-08-15T08:58:11.265Z</time>
      </trkpt>
      <trkpt lat="45.51209" lon="4.70178">
        <ele>417</ele>
        <time>2018-08-15T08:58:12.264Z</time>
      </trkpt>
      <trkpt lat="45.51221" lon="4.70191">
        <ele>418</ele>
        <time>2018-08-15T08:58:13.274Z</time>
      </trkpt>
      <trkpt lat="45.51221" lon="4.70191">
        <ele>418</ele>
        <time>2018-08-15T08:58:14.240Z</time>
      </trkpt>
      <trkpt lat="45.51232" lon="4.70205">
        <ele>418</ele>
        <time>2018-08-15T08:58:15.254Z</time>
      </trkpt>
      <trkpt lat="45.51232" lon="4.70205">
        <ele>418</ele>
        <time>2018-08-15T08:58:16.254Z</time>
      </trkpt>
      <trkpt lat="45.51242" lon="4.70217">
        <ele>418</ele>
        <time>2018-08-15T08:58:17.254Z</time>
      </trkpt>
      <trkpt lat="45.51242" lon="4.70217">
        <ele>418</ele>
        <time>2018-08-15T08:58:18.240Z</time>
      </trkpt>
      <trkpt lat="45.51253" lon="4.70229">
        <ele>418</ele>
        <time>2018-08-15T08:58:19.252Z</time>
      </trkpt>
      <trkpt lat="45.51253" lon="4.70229">
        <ele>418</ele>
        <time>2018-08-15T08:58:20.240Z</time>
      </trkpt>
      <trkpt lat="45.51264" lon="4.70242">
        <ele>417</ele>
        <time>2018-08-15T08:58:21.251Z</time>
      </trkpt>
      <trkpt lat="45.51264" lon="4.70242">
        <ele>417</ele>
        <time>2018-08-15T08:58:22.244Z</time>
      </trkpt>
      <trkpt lat="45.51275" lon="4.70255">
        <ele>417</ele>
        <time>2018-08-15T08:58:23.275Z</time>
      </trkpt>
      <trkpt lat="45.51275" lon="4.70255">
        <ele>417</ele>
        <time>2018-08-15T08:58:24.259Z</time>
      </trkpt>
      <trkpt lat="45.51286" lon="4.70268">
        <ele>417</ele>
        <time>2018-08-15T08:58:25.275Z</time>
      </trkpt>
      <trkpt lat="45.51286" lon="4.70268">
        <ele>417</ele>
        <time>2018-08-15T08:58:26.255Z</time>
      </trkpt>
      <trkpt lat="45.51296" lon="4.70281">
        <ele>417</ele>
        <time>2018-08-15T08:58:27.265Z</time>
      </trkpt>
      <trkpt lat="45.51296" lon="4.70281">
        <ele>417</ele>
        <time>2018-08-15T08:58:28.247Z</time>
      </trkpt>
      <trkpt lat="45.51306" lon="4.70292">
        <ele>417</ele>
        <time>2018-08-15T08:58:29.261Z</time>
      </trkpt>
      <trkpt lat="45.51306" lon="4.70292">
        <ele>417</ele>
        <time>2018-08-15T08:58:30.267Z</time>
      </trkpt>
      <trkpt lat="45.51316" lon="4.70304">
        <ele>417</ele>
        <time>2018-08-15T08:58:31.248Z</time>
      </trkpt>
      <trkpt lat="45.51316" lon="4.70304">
        <ele>417</ele>
        <time>2018-08-15T08:58:32.260Z</time>
      </trkpt>
      <trkpt lat="45.51326" lon="4.70315">
        <ele>417</ele>
        <time>2018-08-15T08:58:33.270Z</time>
      </trkpt>
      <trkpt lat="45.51326" lon="4.70315">
        <ele>417</ele>
        <time>2018-08-15T08:58:34.270Z</time>
      </trkpt>
      <trkpt lat="45.51335" lon="4.70325">
        <ele>417</ele>
        <time>2018-08-15T08:58:35.246Z</time>
      </trkpt>
      <trkpt lat="45.51335" lon="4.70325">
        <ele>417</ele>
        <time>2018-08-15T08:58:36.270Z</time>
      </trkpt>
      <trkpt lat="45.51343" lon="4.70334">
        <ele>418</ele>
        <time>2018-08-15T08:58:37.240Z</time>
      </trkpt>
      <trkpt lat="45.51343" lon="4.70334">
        <ele>418</ele>
        <time>2018-08-15T08:58:38.269Z</time>
      </trkpt>
      <trkpt lat="45.51352" lon="4.70341">
        <ele>418</ele>
        <time>2018-08-15T08:58:39.239Z</time>
      </trkpt>
      <trkpt lat="45.51352" lon="4.70341">
        <ele>418</ele>
        <time>2018-08-15T08:58:40.262Z</time>
      </trkpt>
      <trkpt lat="45.5136" lon="4.70342">
        <ele>419</ele>
        <time>2018-08-15T08:58:41.232Z</time>
      </trkpt>
      <trkpt lat="45.5136" lon="4.70342">
        <ele>419</ele>
        <time>2018-08-15T08:58:42.243Z</time>
      </trkpt>
      <trkpt lat="45.51369" lon="4.70337">
        <ele>419</ele>
        <time>2018-08-15T08:58:43.261Z</time>
      </trkpt>
      <trkpt lat="45.51369" lon="4.70337">
        <ele>419</ele>
        <time>2018-08-15T08:58:44.253Z</time>
      </trkpt>
      <trkpt lat="45.51379" lon="4.70331">
        <ele>418</ele>
        <time>2018-08-15T08:58:45.268Z</time>
      </trkpt>
      <trkpt lat="45.51379" lon="4.70331">
        <ele>418</ele>
        <time>2018-08-15T08:58:46.250Z</time>
      </trkpt>
      <trkpt lat="45.51389" lon="4.70323">
        <ele>418</ele>
        <time>2018-08-15T08:58:47.267Z</time>
      </trkpt>
      <trkpt lat="45.51395" lon="4.70318">
        <ele>417</ele>
        <time>2018-08-15T08:58:48.240Z</time>
      </trkpt>
      <trkpt lat="45.51395" lon="4.70318">
        <ele>417</ele>
        <time>2018-08-15T08:58:49.256Z</time>
      </trkpt>
      <trkpt lat="45.51407" lon="4.70309">
        <ele>416</ele>
        <time>2018-08-15T08:58:50.269Z</time>
      </trkpt>
      <trkpt lat="45.51414" lon="4.70304">
        <ele>416</ele>
        <time>2018-08-15T08:58:51.250Z</time>
      </trkpt>
      <trkpt lat="45.51414" lon="4.70304">
        <ele>416</ele>
        <time>2018-08-15T08:58:52.232Z</time>
      </trkpt>
      <trkpt lat="45.51428" lon="4.70293">
        <ele>415</ele>
        <time>2018-08-15T08:58:53.268Z</time>
      </trkpt>
      <trkpt lat="45.51428" lon="4.70293">
        <ele>415</ele>
        <time>2018-08-15T08:58:54.265Z</time>
      </trkpt>
      <trkpt lat="45.51443" lon="4.70282">
        <ele>414</ele>
        <time>2018-08-15T08:58:55.239Z</time>
      </trkpt>
      <trkpt lat="45.51443" lon="4.70282">
        <ele>414</ele>
        <time>2018-08-15T08:58:56.269Z</time>
      </trkpt>
      <trkpt lat="45.5146" lon="4.7027">
        <ele>413</ele>
        <time>2018-08-15T08:58:57.242Z</time>
      </trkpt>
      <trkpt lat="45.5146" lon="4.7027">
        <ele>413</ele>
        <time>2018-08-15T08:58:58.258Z</time>
      </trkpt>
      <trkpt lat="45.51477" lon="4.70258">
        <ele>412</ele>
        <time>2018-08-15T08:58:59.266Z</time>
      </trkpt>
      <trkpt lat="45.51477" lon="4.70258">
        <ele>412</ele>
        <time>2018-08-15T08:59:00.257Z</time>
      </trkpt>
      <trkpt lat="45.51495" lon="4.70245">
        <ele>411</ele>
        <time>2018-08-15T08:59:01.268Z</time>
      </trkpt>
      <trkpt lat="45.51495" lon="4.70245">
        <ele>411</ele>
        <time>2018-08-15T08:59:02.256Z</time>
      </trkpt>
      <trkpt lat="45.51513" lon="4.70233">
        <ele>410</ele>
        <time>2018-08-15T08:59:03.266Z</time>
      </trkpt>
      <trkpt lat="45.51513" lon="4.70233">
        <ele>410</ele>
        <time>2018-08-15T08:59:04.238Z</time>
      </trkpt>
      <trkpt lat="45.51531" lon="4.7022">
        <ele>409</ele>
        <time>2018-08-15T08:59:05.258Z</time>
      </trkpt>
      <trkpt lat="45.51531" lon="4.7022">
        <ele>409</ele>
        <time>2018-08-15T08:59:06.249Z</time>
      </trkpt>
      <trkpt lat="45.51549" lon="4.70208">
        <ele>409</ele>
        <time>2018-08-15T08:59:07.266Z</time>
      </trkpt>
      <trkpt lat="45.51557" lon="4.70202">
        <ele>409</ele>
        <time>2018-08-15T08:59:08.245Z</time>
      </trkpt>
      <trkpt lat="45.51566" lon="4.70196">
        <ele>409</ele>
        <time>2018-08-15T08:59:09.264Z</time>
      </trkpt>
      <trkpt lat="45.51566" lon="4.70196">
        <ele>409</ele>
        <time>2018-08-15T08:59:10.259Z</time>
      </trkpt>
      <trkpt lat="45.51583" lon="4.70184">
        <ele>408</ele>
        <time>2018-08-15T08:59:11.238Z</time>
      </trkpt>
      <trkpt lat="45.51583" lon="4.70184">
        <ele>408</ele>
        <time>2018-08-15T08:59:12.257Z</time>
      </trkpt>
      <trkpt lat="45.516" lon="4.70173">
        <ele>408</ele>
        <time>2018-08-15T08:59:13.268Z</time>
      </trkpt>
      <trkpt lat="45.516" lon="4.70173">
        <ele>408</ele>
        <time>2018-08-15T08:59:14.232Z</time>
      </trkpt>
      <trkpt lat="45.51616" lon="4.70161">
        <ele>408</ele>
        <time>2018-08-15T08:59:15.249Z</time>
      </trkpt>
      <trkpt lat="45.51616" lon="4.70161">
        <ele>408</ele>
        <time>2018-08-15T08:59:16.270Z</time>
      </trkpt>
      <trkpt lat="45.51631" lon="4.7015">
        <ele>407</ele>
        <time>2018-08-15T08:59:17.240Z</time>
      </trkpt>
      <trkpt lat="45.51639" lon="4.70145">
        <ele>407</ele>
        <time>2018-08-15T08:59:18.264Z</time>
      </trkpt>
      <trkpt lat="45.51639" lon="4.70145">
        <ele>407</ele>
        <time>2018-08-15T08:59:19.257Z</time>
      </trkpt>
      <trkpt lat="45.51654" lon="4.70133">
        <ele>406</ele>
        <time>2018-08-15T08:59:20.271Z</time>
      </trkpt>
      <trkpt lat="45.51661" lon="4.70128">
        <ele>406</ele>
        <time>2018-08-15T08:59:21.249Z</time>
      </trkpt>
      <trkpt lat="45.51661" lon="4.70128">
        <ele>406</ele>
        <time>2018-08-15T08:59:22.242Z</time>
      </trkpt>
      <trkpt lat="45.51676" lon="4.70117">
        <ele>406</ele>
        <time>2018-08-15T08:59:23.254Z</time>
      </trkpt>
      <trkpt lat="45.51676" lon="4.70117">
        <ele>406</ele>
        <time>2018-08-15T08:59:24.261Z</time>
      </trkpt>
      <trkpt lat="45.51691" lon="4.70106">
        <ele>405</ele>
        <time>2018-08-15T08:59:25.236Z</time>
      </trkpt>
      <trkpt lat="45.51699" lon="4.70101">
        <ele>405</ele>
        <time>2018-08-15T08:59:26.268Z</time>
      </trkpt>
      <trkpt lat="45.51706" lon="4.70096">
        <ele>404</ele>
        <time>2018-08-15T08:59:27.271Z</time>
      </trkpt>
      <trkpt lat="45.51706" lon="4.70096">
        <ele>404</ele>
        <time>2018-08-15T08:59:28.262Z</time>
      </trkpt>
      <trkpt lat="45.51721" lon="4.70087">
        <ele>403</ele>
        <time>2018-08-15T08:59:29.248Z</time>
      </trkpt>
      <trkpt lat="45.51721" lon="4.70087">
        <ele>403</ele>
        <time>2018-08-15T08:59:30.250Z</time>
      </trkpt>
      <trkpt lat="45.51737" lon="4.7008">
        <ele>402</ele>
        <time>2018-08-15T08:59:31.271Z</time>
      </trkpt>
      <trkpt lat="45.51737" lon="4.7008">
        <ele>402</ele>
        <time>2018-08-15T08:59:32.263Z</time>
      </trkpt>
      <trkpt lat="45.5175" lon="4.70077">
        <ele>402</ele>
        <time>2018-08-15T08:59:33.235Z</time>
      </trkpt>
      <trkpt lat="45.5175" lon="4.70077">
        <ele>402</ele>
        <time>2018-08-15T08:59:34.249Z</time>
      </trkpt>
      <trkpt lat="45.51764" lon="4.70077">
        <ele>401</ele>
        <time>2018-08-15T08:59:35.272Z</time>
      </trkpt>
      <trkpt lat="45.51764" lon="4.70077">
        <ele>401</ele>
        <time>2018-08-15T08:59:36.253Z</time>
      </trkpt>
      <trkpt lat="45.51777" lon="4.70079">
        <ele>401</ele>
        <time>2018-08-15T08:59:37.246Z</time>
      </trkpt>
      <trkpt lat="45.51784" lon="4.70081">
        <ele>401</ele>
        <time>2018-08-15T08:59:38.239Z</time>
      </trkpt>
      <trkpt lat="45.51791" lon="4.70084">
        <ele>400</ele>
        <time>2018-08-15T08:59:39.239Z</time>
      </trkpt>
      <trkpt lat="45.51791" lon="4.70084">
        <ele>400</ele>
        <time>2018-08-15T08:59:40.266Z</time>
      </trkpt>
      <trkpt lat="45.51802" lon="4.70094">
        <ele>400</ele>
        <time>2018-08-15T08:59:41.238Z</time>
      </trkpt>
      <trkpt lat="45.51802" lon="4.70094">
        <ele>400</ele>
        <time>2018-08-15T08:59:42.253Z</time>
      </trkpt>
      <trkpt lat="45.51813" lon="4.70106">
        <ele>400</ele>
        <time>2018-08-15T08:59:43.262Z</time>
      </trkpt>
      <trkpt lat="45.51818" lon="4.70112">
        <ele>400</ele>
        <time>2018-08-15T08:59:44.257Z</time>
      </trkpt>
      <trkpt lat="45.51823" lon="4.70119">
        <ele>400</ele>
        <time>2018-08-15T08:59:45.245Z</time>
      </trkpt>
      <trkpt lat="45.51823" lon="4.70119">
        <ele>400</ele>
        <time>2018-08-15T08:59:46.257Z</time>
      </trkpt>
      <trkpt lat="45.51833" lon="4.70131">
        <ele>399</ele>
        <time>2018-08-15T08:59:47.241Z</time>
      </trkpt>
      <trkpt lat="45.51833" lon="4.70131">
        <ele>399</ele>
        <time>2018-08-15T08:59:48.248Z</time>
      </trkpt>
      <trkpt lat="45.51842" lon="4.70141">
        <ele>399</ele>
        <time>2018-08-15T08:59:49.270Z</time>
      </trkpt>
      <trkpt lat="45.51842" lon="4.70141">
        <ele>399</ele>
        <time>2018-08-15T08:59:50.236Z</time>
      </trkpt>
      <trkpt lat="45.51846" lon="4.70147">
        <ele>399</ele>
        <time>2018-08-15T08:59:51.250Z</time>
      </trkpt>
      <trkpt lat="45.51846" lon="4.70147">
        <ele>399</ele>
        <time>2018-08-15T08:59:52.248Z</time>
      </trkpt>
      <trkpt lat="45.51848" lon="4.70151">
        <ele>399</ele>
        <time>2018-08-15T08:59:53.232Z</time>
      </trkpt>
      <trkpt lat="45.51848" lon="4.70151">
        <ele>399</ele>
        <time>2018-08-15T08:59:54.245Z</time>
      </trkpt>
      <trkpt lat="45.51849" lon="4.70151">
        <ele>399</ele>
        <time>2018-08-15T08:59:55.252Z</time>
      </trkpt>
      <trkpt lat="45.51849" lon="4.70151">
        <ele>399</ele>
        <time>2018-08-15T08:59:56.233Z</time>
      </trkpt>
      <trkpt lat="45.51849" lon="4.70151">
        <ele>399</ele>
        <time>2018-08-15T08:59:57.248Z</time>
      </trkpt>
      <trkpt lat="45.51854" lon="4.70158">
        <ele>399</ele>
        <time>2018-08-15T08:59:58.232Z</time>
      </trkpt>
      <trkpt lat="45.51854" lon="4.70158">
        <ele>399</ele>
        <time>2018-08-15T08:59:59.265Z</time>
      </trkpt>
      <trkpt lat="45.51858" lon="4.70157">
        <ele>399</ele>
        <time>2018-08-15T09:00:00.250Z</time>
      </trkpt>
      <trkpt lat="45.51858" lon="4.70157">
        <ele>399</ele>
        <time>2018-08-15T09:00:01.233Z</time>
      </trkpt>
      <trkpt lat="45.51862" lon="4.70154">
        <ele>399</ele>
        <time>2018-08-15T09:00:02.253Z</time>
      </trkpt>
      <trkpt lat="45.51862" lon="4.70154">
        <ele>399</ele>
        <time>2018-08-15T09:00:03.239Z</time>
      </trkpt>
      <trkpt lat="45.51868" lon="4.70149">
        <ele>399</ele>
        <time>2018-08-15T09:00:04.235Z</time>
      </trkpt>
      <trkpt lat="45.51868" lon="4.70149">
        <ele>399</ele>
        <time>2018-08-15T09:00:05.255Z</time>
      </trkpt>
      <trkpt lat="45.51875" lon="4.70145">
        <ele>399</ele>
        <time>2018-08-15T09:00:06.246Z</time>
      </trkpt>
      <trkpt lat="45.51879" lon="4.70142">
        <ele>398</ele>
        <time>2018-08-15T09:00:07.264Z</time>
      </trkpt>
      <trkpt lat="45.51879" lon="4.70142">
        <ele>398</ele>
        <time>2018-08-15T09:00:08.270Z</time>
      </trkpt>
      <trkpt lat="45.51888" lon="4.70135">
        <ele>398</ele>
        <time>2018-08-15T09:00:09.265Z</time>
      </trkpt>
      <trkpt lat="45.51894" lon="4.70131">
        <ele>398</ele>
        <time>2018-08-15T09:00:10.243Z</time>
      </trkpt>
      <trkpt lat="45.51899" lon="4.70127">
        <ele>398</ele>
        <time>2018-08-15T09:00:11.242Z</time>
      </trkpt>
      <trkpt lat="45.51899" lon="4.70127">
        <ele>398</ele>
        <time>2018-08-15T09:00:12.238Z</time>
      </trkpt>
      <trkpt lat="45.5191" lon="4.70118">
        <ele>397</ele>
        <time>2018-08-15T09:00:13.238Z</time>
      </trkpt>
      <trkpt lat="45.51916" lon="4.70114">
        <ele>397</ele>
        <time>2018-08-15T09:00:14.268Z</time>
      </trkpt>
      <trkpt lat="45.51916" lon="4.70114">
        <ele>397</ele>
        <time>2018-08-15T09:00:15.236Z</time>
      </trkpt>
      <trkpt lat="45.51928" lon="4.70105">
        <ele>396</ele>
        <time>2018-08-15T09:00:16.264Z</time>
      </trkpt>
      <trkpt lat="45.51928" lon="4.70105">
        <ele>396</ele>
        <time>2018-08-15T09:00:17.241Z</time>
      </trkpt>
      <trkpt lat="45.51941" lon="4.70095">
        <ele>396</ele>
        <time>2018-08-15T09:00:18.237Z</time>
      </trkpt>
      <trkpt lat="45.51941" lon="4.70095">
        <ele>396</ele>
        <time>2018-08-15T09:00:19.248Z</time>
      </trkpt>
      <trkpt lat="45.51954" lon="4.70085">
        <ele>395</ele>
        <time>2018-08-15T09:00:20.241Z</time>
      </trkpt>
      <trkpt lat="45.51954" lon="4.70085">
        <ele>395</ele>
        <time>2018-08-15T09:00:21.247Z</time>
      </trkpt>
      <trkpt lat="45.51968" lon="4.70075">
        <ele>394</ele>
        <time>2018-08-15T09:00:22.235Z</time>
      </trkpt>
      <trkpt lat="45.51968" lon="4.70075">
        <ele>394</ele>
        <time>2018-08-15T09:00:23.249Z</time>
      </trkpt>
      <trkpt lat="45.51983" lon="4.70065">
        <ele>394</ele>
        <time>2018-08-15T09:00:24.250Z</time>
      </trkpt>
      <trkpt lat="45.51983" lon="4.70065">
        <ele>394</ele>
        <time>2018-08-15T09:00:25.234Z</time>
      </trkpt>
      <trkpt lat="45.51998" lon="4.70054">
        <ele>393</ele>
        <time>2018-08-15T09:00:26.268Z</time>
      </trkpt>
      <trkpt lat="45.51998" lon="4.70054">
        <ele>393</ele>
        <time>2018-08-15T09:00:27.255Z</time>
      </trkpt>
      <trkpt lat="45.52012" lon="4.70042">
        <ele>393</ele>
        <time>2018-08-15T09:00:28.236Z</time>
      </trkpt>
      <trkpt lat="45.52012" lon="4.70042">
        <ele>393</ele>
        <time>2018-08-15T09:00:29.240Z</time>
      </trkpt>
      <trkpt lat="45.52026" lon="4.70029">
        <ele>392</ele>
        <time>2018-08-15T09:00:30.246Z</time>
      </trkpt>
      <trkpt lat="45.52026" lon="4.70029">
        <ele>392</ele>
        <time>2018-08-15T09:00:31.259Z</time>
      </trkpt>
      <trkpt lat="45.5204" lon="4.70015">
        <ele>392</ele>
        <time>2018-08-15T09:00:32.246Z</time>
      </trkpt>
      <trkpt lat="45.5204" lon="4.70015">
        <ele>392</ele>
        <time>2018-08-15T09:00:33.257Z</time>
      </trkpt>
      <trkpt lat="45.52053" lon="4.70001">
        <ele>391</ele>
        <time>2018-08-15T09:00:34.270Z</time>
      </trkpt>
      <trkpt lat="45.52053" lon="4.70001">
        <ele>391</ele>
        <time>2018-08-15T09:00:35.265Z</time>
      </trkpt>
      <trkpt lat="45.52067" lon="4.69986">
        <ele>391</ele>
        <time>2018-08-15T09:00:36.259Z</time>
      </trkpt>
      <trkpt lat="45.52067" lon="4.69986">
        <ele>391</ele>
        <time>2018-08-15T09:00:37.257Z</time>
      </trkpt>
      <trkpt lat="45.52079" lon="4.69972">
        <ele>391</ele>
        <time>2018-08-15T09:00:38.247Z</time>
      </trkpt>
      <trkpt lat="45.52079" lon="4.69972">
        <ele>391</ele>
        <time>2018-08-15T09:00:39.241Z</time>
      </trkpt>
      <trkpt lat="45.52092" lon="4.69958">
        <ele>390</ele>
        <time>2018-08-15T09:00:40.233Z</time>
      </trkpt>
      <trkpt lat="45.52092" lon="4.69958">
        <ele>390</ele>
        <time>2018-08-15T09:00:41.267Z</time>
      </trkpt>
      <trkpt lat="45.52104" lon="4.69944">
        <ele>390</ele>
        <time>2018-08-15T09:00:42.263Z</time>
      </trkpt>
      <trkpt lat="45.52104" lon="4.69944">
        <ele>390</ele>
        <time>2018-08-15T09:00:43.261Z</time>
      </trkpt>
      <trkpt lat="45.52116" lon="4.69931">
        <ele>390</ele>
        <time>2018-08-15T09:00:44.256Z</time>
      </trkpt>
      <trkpt lat="45.52116" lon="4.69931">
        <ele>390</ele>
        <time>2018-08-15T09:00:45.261Z</time>
      </trkpt>
      <trkpt lat="45.52128" lon="4.69917">
        <ele>390</ele>
        <time>2018-08-15T09:00:46.244Z</time>
      </trkpt>
      <trkpt lat="45.52128" lon="4.69917">
        <ele>390</ele>
        <time>2018-08-15T09:00:47.246Z</time>
      </trkpt>
      <trkpt lat="45.5214" lon="4.69905">
        <ele>389</ele>
        <time>2018-08-15T09:00:48.278Z</time>
      </trkpt>
      <trkpt lat="45.5214" lon="4.69905">
        <ele>389</ele>
        <time>2018-08-15T09:00:49.260Z</time>
      </trkpt>
      <trkpt lat="45.52151" lon="4.69892">
        <ele>389</ele>
        <time>2018-08-15T09:00:50.254Z</time>
      </trkpt>
      <trkpt lat="45.52151" lon="4.69892">
        <ele>389</ele>
        <time>2018-08-15T09:00:51.248Z</time>
      </trkpt>
      <trkpt lat="45.52162" lon="4.6988">
        <ele>389</ele>
        <time>2018-08-15T09:00:52.255Z</time>
      </trkpt>
      <trkpt lat="45.52162" lon="4.6988">
        <ele>389</ele>
        <time>2018-08-15T09:00:53.240Z</time>
      </trkpt>
      <trkpt lat="45.52173" lon="4.69868">
        <ele>389</ele>
        <time>2018-08-15T09:00:54.239Z</time>
      </trkpt>
      <trkpt lat="45.52173" lon="4.69868">
        <ele>389</ele>
        <time>2018-08-15T09:00:55.251Z</time>
      </trkpt>
      <trkpt lat="45.52183" lon="4.69857">
        <ele>389</ele>
        <time>2018-08-15T09:00:56.258Z</time>
      </trkpt>
      <trkpt lat="45.52183" lon="4.69857">
        <ele>389</ele>
        <time>2018-08-15T09:00:57.264Z</time>
      </trkpt>
      <trkpt lat="45.52194" lon="4.69844">
        <ele>389</ele>
        <time>2018-08-15T09:00:58.273Z</time>
      </trkpt>
      <trkpt lat="45.52194" lon="4.69844">
        <ele>389</ele>
        <time>2018-08-15T09:00:59.268Z</time>
      </trkpt>
      <trkpt lat="45.52204" lon="4.69831">
        <ele>389</ele>
        <time>2018-08-15T09:01:00.234Z</time>
      </trkpt>
      <trkpt lat="45.52204" lon="4.69831">
        <ele>389</ele>
        <time>2018-08-15T09:01:01.270Z</time>
      </trkpt>
      <trkpt lat="45.52214" lon="4.69819">
        <ele>389</ele>
        <time>2018-08-15T09:01:02.234Z</time>
      </trkpt>
      <trkpt lat="45.52214" lon="4.69819">
        <ele>389</ele>
        <time>2018-08-15T09:01:03.270Z</time>
      </trkpt>
      <trkpt lat="45.52223" lon="4.69806">
        <ele>389</ele>
        <time>2018-08-15T09:01:04.243Z</time>
      </trkpt>
      <trkpt lat="45.52223" lon="4.69806">
        <ele>389</ele>
        <time>2018-08-15T09:01:05.255Z</time>
      </trkpt>
      <trkpt lat="45.52233" lon="4.69794">
        <ele>389</ele>
        <time>2018-08-15T09:01:06.254Z</time>
      </trkpt>
      <trkpt lat="45.52233" lon="4.69794">
        <ele>389</ele>
        <time>2018-08-15T09:01:07.246Z</time>
      </trkpt>
      <trkpt lat="45.52242" lon="4.69782">
        <ele>389</ele>
        <time>2018-08-15T09:01:08.232Z</time>
      </trkpt>
      <trkpt lat="45.52242" lon="4.69782">
        <ele>389</ele>
        <time>2018-08-15T09:01:09.259Z</time>
      </trkpt>
      <trkpt lat="45.52251" lon="4.6977">
        <ele>389</ele>
        <time>2018-08-15T09:01:10.246Z</time>
      </trkpt>
      <trkpt lat="45.52251" lon="4.6977">
        <ele>389</ele>
        <time>2018-08-15T09:01:11.234Z</time>
      </trkpt>
      <trkpt lat="45.52259" lon="4.69757">
        <ele>389</ele>
        <time>2018-08-15T09:01:12.235Z</time>
      </trkpt>
      <trkpt lat="45.52259" lon="4.69757">
        <ele>389</ele>
        <time>2018-08-15T09:01:13.255Z</time>
      </trkpt>
      <trkpt lat="45.52267" lon="4.69746">
        <ele>389</ele>
        <time>2018-08-15T09:01:14.245Z</time>
      </trkpt>
      <trkpt lat="45.52267" lon="4.69746">
        <ele>389</ele>
        <time>2018-08-15T09:01:15.258Z</time>
      </trkpt>
      <trkpt lat="45.52275" lon="4.69735">
        <ele>390</ele>
        <time>2018-08-15T09:01:16.246Z</time>
      </trkpt>
      <trkpt lat="45.52275" lon="4.69735">
        <ele>390</ele>
        <time>2018-08-15T09:01:17.259Z</time>
      </trkpt>
      <trkpt lat="45.52282" lon="4.69724">
        <ele>390</ele>
        <time>2018-08-15T09:01:18.261Z</time>
      </trkpt>
      <trkpt lat="45.52282" lon="4.69724">
        <ele>390</ele>
        <time>2018-08-15T09:01:19.238Z</time>
      </trkpt>
      <trkpt lat="45.52289" lon="4.69714">
        <ele>390</ele>
        <time>2018-08-15T09:01:20.244Z</time>
      </trkpt>
      <trkpt lat="45.52289" lon="4.69714">
        <ele>390</ele>
        <time>2018-08-15T09:01:21.237Z</time>
      </trkpt>
      <trkpt lat="45.52297" lon="4.69704">
        <ele>390</ele>
        <time>2018-08-15T09:01:22.244Z</time>
      </trkpt>
      <trkpt lat="45.52297" lon="4.69704">
        <ele>390</ele>
        <time>2018-08-15T09:01:23.249Z</time>
      </trkpt>
      <trkpt lat="45.52304" lon="4.69694">
        <ele>390</ele>
        <time>2018-08-15T09:01:24.244Z</time>
      </trkpt>
      <trkpt lat="45.52304" lon="4.69694">
        <ele>390</ele>
        <time>2018-08-15T09:01:25.261Z</time>
      </trkpt>
      <trkpt lat="45.5231" lon="4.69684">
        <ele>390</ele>
        <time>2018-08-15T09:01:26.263Z</time>
      </trkpt>
      <trkpt lat="45.5231" lon="4.69684">
        <ele>390</ele>
        <time>2018-08-15T09:01:27.264Z</time>
      </trkpt>
      <trkpt lat="45.52317" lon="4.69674">
        <ele>390</ele>
        <time>2018-08-15T09:01:28.256Z</time>
      </trkpt>
      <trkpt lat="45.52317" lon="4.69674">
        <ele>390</ele>
        <time>2018-08-15T09:01:29.265Z</time>
      </trkpt>
      <trkpt lat="45.52324" lon="4.69664">
        <ele>390</ele>
        <time>2018-08-15T09:01:30.254Z</time>
      </trkpt>
      <trkpt lat="45.52328" lon="4.69659">
        <ele>390</ele>
        <time>2018-08-15T09:01:31.233Z</time>
      </trkpt>
      <trkpt lat="45.52332" lon="4.69654">
        <ele>390</ele>
        <time>2018-08-15T09:01:32.252Z</time>
      </trkpt>
      <trkpt lat="45.52332" lon="4.69654">
        <ele>390</ele>
        <time>2018-08-15T09:01:33.253Z</time>
      </trkpt>
      <trkpt lat="45.52339" lon="4.69645">
        <ele>391</ele>
        <time>2018-08-15T09:01:34.250Z</time>
      </trkpt>
      <trkpt lat="45.52339" lon="4.69645">
        <ele>391</ele>
        <time>2018-08-15T09:01:35.235Z</time>
      </trkpt>
      <trkpt lat="45.52346" lon="4.69635">
        <ele>391</ele>
        <time>2018-08-15T09:01:36.259Z</time>
      </trkpt>
      <trkpt lat="45.52346" lon="4.69635">
        <ele>391</ele>
        <time>2018-08-15T09:01:37.267Z</time>
      </trkpt>
      <trkpt lat="45.52353" lon="4.69625">
        <ele>391</ele>
        <time>2018-08-15T09:01:38.242Z</time>
      </trkpt>
      <trkpt lat="45.52353" lon="4.69625">
        <ele>391</ele>
        <time>2018-08-15T09:01:39.248Z</time>
      </trkpt>
      <trkpt lat="45.5236" lon="4.69615">
        <ele>391</ele>
        <time>2018-08-15T09:01:40.242Z</time>
      </trkpt>
      <trkpt lat="45.5236" lon="4.69615">
        <ele>391</ele>
        <time>2018-08-15T09:01:41.247Z</time>
      </trkpt>
      <trkpt lat="45.52367" lon="4.69606">
        <ele>391</ele>
        <time>2018-08-15T09:01:42.239Z</time>
      </trkpt>
      <trkpt lat="45.52367" lon="4.69606">
        <ele>391</ele>
        <time>2018-08-15T09:01:43.258Z</time>
      </trkpt>
      <trkpt lat="45.52374" lon="4.69596">
        <ele>391</ele>
        <time>2018-08-15T09:01:44.256Z</time>
      </trkpt>
      <trkpt lat="45.52374" lon="4.69596">
        <ele>391</ele>
        <time>2018-08-15T09:01:45.240Z</time>
      </trkpt>
      <trkpt lat="45.52381" lon="4.69586">
        <ele>392</ele>
        <time>2018-08-15T09:01:46.237Z</time>
      </trkpt>
      <trkpt lat="45.52381" lon="4.69586">
        <ele>392</ele>
        <time>2018-08-15T09:01:47.247Z</time>
      </trkpt>
      <trkpt lat="45.5239" lon="4.69576">
        <ele>391</ele>
        <time>2018-08-15T09:01:48.243Z</time>
      </trkpt>
      <trkpt lat="45.5239" lon="4.69576">
        <ele>391</ele>
        <time>2018-08-15T09:01:49.248Z</time>
      </trkpt>
      <trkpt lat="45.52398" lon="4.69566">
        <ele>391</ele>
        <time>2018-08-15T09:01:50.243Z</time>
      </trkpt>
      <trkpt lat="45.52398" lon="4.69566">
        <ele>391</ele>
        <time>2018-08-15T09:01:51.234Z</time>
      </trkpt>
      <trkpt lat="45.52407" lon="4.69556">
        <ele>391</ele>
        <time>2018-08-15T09:01:52.238Z</time>
      </trkpt>
      <trkpt lat="45.52407" lon="4.69556">
        <ele>391</ele>
        <time>2018-08-15T09:01:53.252Z</time>
      </trkpt>
      <trkpt lat="45.52417" lon="4.69546">
        <ele>391</ele>
        <time>2018-08-15T09:01:54.237Z</time>
      </trkpt>
      <trkpt lat="45.52417" lon="4.69546">
        <ele>391</ele>
        <time>2018-08-15T09:01:55.243Z</time>
      </trkpt>
      <trkpt lat="45.52427" lon="4.69537">
        <ele>391</ele>
        <time>2018-08-15T09:01:56.266Z</time>
      </trkpt>
      <trkpt lat="45.52427" lon="4.69537">
        <ele>391</ele>
        <time>2018-08-15T09:01:57.233Z</time>
      </trkpt>
      <trkpt lat="45.52438" lon="4.69528">
        <ele>392</ele>
        <time>2018-08-15T09:01:58.232Z</time>
      </trkpt>
      <trkpt lat="45.52438" lon="4.69528">
        <ele>392</ele>
        <time>2018-08-15T09:01:59.243Z</time>
      </trkpt>
      <trkpt lat="45.52448" lon="4.69519">
        <ele>391</ele>
        <time>2018-08-15T09:02:00.241Z</time>
      </trkpt>
      <trkpt lat="45.52454" lon="4.69515">
        <ele>391</ele>
        <time>2018-08-15T09:02:01.260Z</time>
      </trkpt>
      <trkpt lat="45.52459" lon="4.6951">
        <ele>391</ele>
        <time>2018-08-15T09:02:02.269Z</time>
      </trkpt>
      <trkpt lat="45.52459" lon="4.6951">
        <ele>391</ele>
        <time>2018-08-15T09:02:03.240Z</time>
      </trkpt>
      <trkpt lat="45.5247" lon="4.69502">
        <ele>391</ele>
        <time>2018-08-15T09:02:04.259Z</time>
      </trkpt>
      <trkpt lat="45.5247" lon="4.69502">
        <ele>391</ele>
        <time>2018-08-15T09:02:05.232Z</time>
      </trkpt>
      <trkpt lat="45.52481" lon="4.69493">
        <ele>391</ele>
        <time>2018-08-15T09:02:06.260Z</time>
      </trkpt>
      <trkpt lat="45.52481" lon="4.69493">
        <ele>391</ele>
        <time>2018-08-15T09:02:07.238Z</time>
      </trkpt>
      <trkpt lat="45.52492" lon="4.69484">
        <ele>391</ele>
        <time>2018-08-15T09:02:08.266Z</time>
      </trkpt>
      <trkpt lat="45.52492" lon="4.69484">
        <ele>391</ele>
        <time>2018-08-15T09:02:09.243Z</time>
      </trkpt>
      <trkpt lat="45.52503" lon="4.69476">
        <ele>391</ele>
        <time>2018-08-15T09:02:10.265Z</time>
      </trkpt>
      <trkpt lat="45.52503" lon="4.69476">
        <ele>391</ele>
        <time>2018-08-15T09:02:11.271Z</time>
      </trkpt>
      <trkpt lat="45.52513" lon="4.69467">
        <ele>391</ele>
        <time>2018-08-15T09:02:12.240Z</time>
      </trkpt>
      <trkpt lat="45.52513" lon="4.69467">
        <ele>391</ele>
        <time>2018-08-15T09:02:13.263Z</time>
      </trkpt>
      <trkpt lat="45.52524" lon="4.69459">
        <ele>391</ele>
        <time>2018-08-15T09:02:14.276Z</time>
      </trkpt>
      <trkpt lat="45.52524" lon="4.69459">
        <ele>391</ele>
        <time>2018-08-15T09:02:15.257Z</time>
      </trkpt>
      <trkpt lat="45.52535" lon="4.6945">
        <ele>391</ele>
        <time>2018-08-15T09:02:16.263Z</time>
      </trkpt>
      <trkpt lat="45.52535" lon="4.6945">
        <ele>391</ele>
        <time>2018-08-15T09:02:17.270Z</time>
      </trkpt>
      <trkpt lat="45.52545" lon="4.69442">
        <ele>391</ele>
        <time>2018-08-15T09:02:18.252Z</time>
      </trkpt>
      <trkpt lat="45.52545" lon="4.69442">
        <ele>391</ele>
        <time>2018-08-15T09:02:19.265Z</time>
      </trkpt>
      <trkpt lat="45.52555" lon="4.69434">
        <ele>391</ele>
        <time>2018-08-15T09:02:20.236Z</time>
      </trkpt>
      <trkpt lat="45.52555" lon="4.69434">
        <ele>391</ele>
        <time>2018-08-15T09:02:21.241Z</time>
      </trkpt>
      <trkpt lat="45.52566" lon="4.69426">
        <ele>391</ele>
        <time>2018-08-15T09:02:22.270Z</time>
      </trkpt>
      <trkpt lat="45.52566" lon="4.69426">
        <ele>391</ele>
        <time>2018-08-15T09:02:23.245Z</time>
      </trkpt>
      <trkpt lat="45.52576" lon="4.69418">
        <ele>391</ele>
        <time>2018-08-15T09:02:24.241Z</time>
      </trkpt>
      <trkpt lat="45.52576" lon="4.69418">
        <ele>391</ele>
        <time>2018-08-15T09:02:25.270Z</time>
      </trkpt>
      <trkpt lat="45.52585" lon="4.6941">
        <ele>391</ele>
        <time>2018-08-15T09:02:26.247Z</time>
      </trkpt>
      <trkpt lat="45.52585" lon="4.6941">
        <ele>391</ele>
        <time>2018-08-15T09:02:27.271Z</time>
      </trkpt>
      <trkpt lat="45.52595" lon="4.69403">
        <ele>391</ele>
        <time>2018-08-15T09:02:28.262Z</time>
      </trkpt>
      <trkpt lat="45.52595" lon="4.69403">
        <ele>391</ele>
        <time>2018-08-15T09:02:29.270Z</time>
      </trkpt>
      <trkpt lat="45.52604" lon="4.69396">
        <ele>391</ele>
        <time>2018-08-15T09:02:30.262Z</time>
      </trkpt>
      <trkpt lat="45.52604" lon="4.69396">
        <ele>391</ele>
        <time>2018-08-15T09:02:31.247Z</time>
      </trkpt>
      <trkpt lat="45.52612" lon="4.69388">
        <ele>391</ele>
        <time>2018-08-15T09:02:32.241Z</time>
      </trkpt>
      <trkpt lat="45.52612" lon="4.69388">
        <ele>391</ele>
        <time>2018-08-15T09:02:33.262Z</time>
      </trkpt>
      <trkpt lat="45.52621" lon="4.69382">
        <ele>391</ele>
        <time>2018-08-15T09:02:34.257Z</time>
      </trkpt>
      <trkpt lat="45.52621" lon="4.69382">
        <ele>391</ele>
        <time>2018-08-15T09:02:35.262Z</time>
      </trkpt>
      <trkpt lat="45.52629" lon="4.69375">
        <ele>391</ele>
        <time>2018-08-15T09:02:36.249Z</time>
      </trkpt>
      <trkpt lat="45.52629" lon="4.69375">
        <ele>391</ele>
        <time>2018-08-15T09:02:37.233Z</time>
      </trkpt>
      <trkpt lat="45.52637" lon="4.69368">
        <ele>392</ele>
        <time>2018-08-15T09:02:38.263Z</time>
      </trkpt>
      <trkpt lat="45.52637" lon="4.69368">
        <ele>392</ele>
        <time>2018-08-15T09:02:39.235Z</time>
      </trkpt>
      <trkpt lat="45.52646" lon="4.69361">
        <ele>392</ele>
        <time>2018-08-15T09:02:40.271Z</time>
      </trkpt>
      <trkpt lat="45.52646" lon="4.69361">
        <ele>392</ele>
        <time>2018-08-15T09:02:41.245Z</time>
      </trkpt>
      <trkpt lat="45.52654" lon="4.69355">
        <ele>392</ele>
        <time>2018-08-15T09:02:42.266Z</time>
      </trkpt>
      <trkpt lat="45.52654" lon="4.69355">
        <ele>392</ele>
        <time>2018-08-15T09:02:43.271Z</time>
      </trkpt>
      <trkpt lat="45.52663" lon="4.69347">
        <ele>392</ele>
        <time>2018-08-15T09:02:44.246Z</time>
      </trkpt>
      <trkpt lat="45.52663" lon="4.69347">
        <ele>392</ele>
        <time>2018-08-15T09:02:45.256Z</time>
      </trkpt>
      <trkpt lat="45.52671" lon="4.69339">
        <ele>392</ele>
        <time>2018-08-15T09:02:46.235Z</time>
      </trkpt>
      <trkpt lat="45.52671" lon="4.69339">
        <ele>392</ele>
        <time>2018-08-15T09:02:47.256Z</time>
      </trkpt>
      <trkpt lat="45.5268" lon="4.69332">
        <ele>392</ele>
        <time>2018-08-15T09:02:48.258Z</time>
      </trkpt>
      <trkpt lat="45.5268" lon="4.69332">
        <ele>392</ele>
        <time>2018-08-15T09:02:49.267Z</time>
      </trkpt>
      <trkpt lat="45.52689" lon="4.69325">
        <ele>392</ele>
        <time>2018-08-15T09:02:50.256Z</time>
      </trkpt>
      <trkpt lat="45.52689" lon="4.69325">
        <ele>392</ele>
        <time>2018-08-15T09:02:51.248Z</time>
      </trkpt>
      <trkpt lat="45.52697" lon="4.69317">
        <ele>392</ele>
        <time>2018-08-15T09:02:52.255Z</time>
      </trkpt>
      <trkpt lat="45.52697" lon="4.69317">
        <ele>392</ele>
        <time>2018-08-15T09:02:53.235Z</time>
      </trkpt>
      <trkpt lat="45.52706" lon="4.69308">
        <ele>392</ele>
        <time>2018-08-15T09:02:54.263Z</time>
      </trkpt>
      <trkpt lat="45.52706" lon="4.69308">
        <ele>392</ele>
        <time>2018-08-15T09:02:55.248Z</time>
      </trkpt>
      <trkpt lat="45.52716" lon="4.69299">
        <ele>392</ele>
        <time>2018-08-15T09:02:56.276Z</time>
      </trkpt>
      <trkpt lat="45.52716" lon="4.69299">
        <ele>392</ele>
        <time>2018-08-15T09:02:57.258Z</time>
      </trkpt>
      <trkpt lat="45.52725" lon="4.69289">
        <ele>391</ele>
        <time>2018-08-15T09:02:58.258Z</time>
      </trkpt>
      <trkpt lat="45.52725" lon="4.69289">
        <ele>391</ele>
        <time>2018-08-15T09:02:59.235Z</time>
      </trkpt>
      <trkpt lat="45.52735" lon="4.6928">
        <ele>391</ele>
        <time>2018-08-15T09:03:00.234Z</time>
      </trkpt>
      <trkpt lat="45.5274" lon="4.69275">
        <ele>391</ele>
        <time>2018-08-15T09:03:01.246Z</time>
      </trkpt>
      <trkpt lat="45.52745" lon="4.6927">
        <ele>391</ele>
        <time>2018-08-15T09:03:02.258Z</time>
      </trkpt>
      <trkpt lat="45.52745" lon="4.6927">
        <ele>391</ele>
        <time>2018-08-15T09:03:03.267Z</time>
      </trkpt>
      <trkpt lat="45.52754" lon="4.69259">
        <ele>390</ele>
        <time>2018-08-15T09:03:04.262Z</time>
      </trkpt>
      <trkpt lat="45.52754" lon="4.69259">
        <ele>390</ele>
        <time>2018-08-15T09:03:05.256Z</time>
      </trkpt>
      <trkpt lat="45.52764" lon="4.69248">
        <ele>390</ele>
        <time>2018-08-15T09:03:06.251Z</time>
      </trkpt>
      <trkpt lat="45.52764" lon="4.69248">
        <ele>390</ele>
        <time>2018-08-15T09:03:07.267Z</time>
      </trkpt>
      <trkpt lat="45.52774" lon="4.69236">
        <ele>390</ele>
        <time>2018-08-15T09:03:08.254Z</time>
      </trkpt>
      <trkpt lat="45.52774" lon="4.69236">
        <ele>390</ele>
        <time>2018-08-15T09:03:09.258Z</time>
      </trkpt>
      <trkpt lat="45.52783" lon="4.69224">
        <ele>390</ele>
        <time>2018-08-15T09:03:10.243Z</time>
      </trkpt>
      <trkpt lat="45.52783" lon="4.69224">
        <ele>390</ele>
        <time>2018-08-15T09:03:11.261Z</time>
      </trkpt>
      <trkpt lat="45.52793" lon="4.69211">
        <ele>390</ele>
        <time>2018-08-15T09:03:12.266Z</time>
      </trkpt>
      <trkpt lat="45.52793" lon="4.69211">
        <ele>390</ele>
        <time>2018-08-15T09:03:13.243Z</time>
      </trkpt>
      <trkpt lat="45.52802" lon="4.69196">
        <ele>389</ele>
        <time>2018-08-15T09:03:14.271Z</time>
      </trkpt>
      <trkpt lat="45.52802" lon="4.69196">
        <ele>389</ele>
        <time>2018-08-15T09:03:15.233Z</time>
      </trkpt>
      <trkpt lat="45.5281" lon="4.69181">
        <ele>389</ele>
        <time>2018-08-15T09:03:16.260Z</time>
      </trkpt>
      <trkpt lat="45.5281" lon="4.69181">
        <ele>389</ele>
        <time>2018-08-15T09:03:17.244Z</time>
      </trkpt>
      <trkpt lat="45.52819" lon="4.69165">
        <ele>388</ele>
        <time>2018-08-15T09:03:18.241Z</time>
      </trkpt>
      <trkpt lat="45.52819" lon="4.69165">
        <ele>388</ele>
        <time>2018-08-15T09:03:19.240Z</time>
      </trkpt>
      <trkpt lat="45.52828" lon="4.69148">
        <ele>388</ele>
        <time>2018-08-15T09:03:20.266Z</time>
      </trkpt>
      <trkpt lat="45.52828" lon="4.69148">
        <ele>388</ele>
        <time>2018-08-15T09:03:21.260Z</time>
      </trkpt>
      <trkpt lat="45.52837" lon="4.6913">
        <ele>387</ele>
        <time>2018-08-15T09:03:22.255Z</time>
      </trkpt>
      <trkpt lat="45.52837" lon="4.6913">
        <ele>387</ele>
        <time>2018-08-15T09:03:23.269Z</time>
      </trkpt>
      <trkpt lat="45.52846" lon="4.69112">
        <ele>386</ele>
        <time>2018-08-15T09:03:24.265Z</time>
      </trkpt>
      <trkpt lat="45.52851" lon="4.69102">
        <ele>386</ele>
        <time>2018-08-15T09:03:25.258Z</time>
      </trkpt>
      <trkpt lat="45.52856" lon="4.69092">
        <ele>386</ele>
        <time>2018-08-15T09:03:26.253Z</time>
      </trkpt>
      <trkpt lat="45.52856" lon="4.69092">
        <ele>386</ele>
        <time>2018-08-15T09:03:27.269Z</time>
      </trkpt>
      <trkpt lat="45.52867" lon="4.69072">
        <ele>385</ele>
        <time>2018-08-15T09:03:28.248Z</time>
      </trkpt>
      <trkpt lat="45.52872" lon="4.69062">
        <ele>385</ele>
        <time>2018-08-15T09:03:29.246Z</time>
      </trkpt>
      <trkpt lat="45.52872" lon="4.69062">
        <ele>385</ele>
        <time>2018-08-15T09:03:30.248Z</time>
      </trkpt>
      <trkpt lat="45.52883" lon="4.69043">
        <ele>384</ele>
        <time>2018-08-15T09:03:31.236Z</time>
      </trkpt>
      <trkpt lat="45.52883" lon="4.69043">
        <ele>384</ele>
        <time>2018-08-15T09:03:32.264Z</time>
      </trkpt>
      <trkpt lat="45.52895" lon="4.69023">
        <ele>384</ele>
        <time>2018-08-15T09:03:33.236Z</time>
      </trkpt>
      <trkpt lat="45.52895" lon="4.69023">
        <ele>384</ele>
        <time>2018-08-15T09:03:34.268Z</time>
      </trkpt>
      <trkpt lat="45.52907" lon="4.69005">
        <ele>384</ele>
        <time>2018-08-15T09:03:35.282Z</time>
      </trkpt>
      <trkpt lat="45.52907" lon="4.69005">
        <ele>384</ele>
        <time>2018-08-15T09:03:36.248Z</time>
      </trkpt>
      <trkpt lat="45.52919" lon="4.68988">
        <ele>383</ele>
        <time>2018-08-15T09:03:37.256Z</time>
      </trkpt>
      <trkpt lat="45.52925" lon="4.6898">
        <ele>383</ele>
        <time>2018-08-15T09:03:38.269Z</time>
      </trkpt>
      <trkpt lat="45.52925" lon="4.6898">
        <ele>383</ele>
        <time>2018-08-15T09:03:39.243Z</time>
      </trkpt>
      <trkpt lat="45.52938" lon="4.68964">
        <ele>383</ele>
        <time>2018-08-15T09:03:40.274Z</time>
      </trkpt>
      <trkpt lat="45.52938" lon="4.68964">
        <ele>383</ele>
        <time>2018-08-15T09:03:41.238Z</time>
      </trkpt>
      <trkpt lat="45.52951" lon="4.68949">
        <ele>383</ele>
        <time>2018-08-15T09:03:42.255Z</time>
      </trkpt>
      <trkpt lat="45.52951" lon="4.68949">
        <ele>383</ele>
        <time>2018-08-15T09:03:43.261Z</time>
      </trkpt>
      <trkpt lat="45.52964" lon="4.68935">
        <ele>383</ele>
        <time>2018-08-15T09:03:44.261Z</time>
      </trkpt>
      <trkpt lat="45.52964" lon="4.68935">
        <ele>383</ele>
        <time>2018-08-15T09:03:45.269Z</time>
      </trkpt>
      <trkpt lat="45.52975" lon="4.68921">
        <ele>383</ele>
        <time>2018-08-15T09:03:46.253Z</time>
      </trkpt>
      <trkpt lat="45.52975" lon="4.68921">
        <ele>383</ele>
        <time>2018-08-15T09:03:47.269Z</time>
      </trkpt>
      <trkpt lat="45.52987" lon="4.68907">
        <ele>383</ele>
        <time>2018-08-15T09:03:48.264Z</time>
      </trkpt>
      <trkpt lat="45.52987" lon="4.68907">
        <ele>383</ele>
        <time>2018-08-15T09:03:49.256Z</time>
      </trkpt>
      <trkpt lat="45.52998" lon="4.68895">
        <ele>383</ele>
        <time>2018-08-15T09:03:50.249Z</time>
      </trkpt>
      <trkpt lat="45.52998" lon="4.68895">
        <ele>383</ele>
        <time>2018-08-15T09:03:51.255Z</time>
      </trkpt>
      <trkpt lat="45.53008" lon="4.68882">
        <ele>384</ele>
        <time>2018-08-15T09:03:52.240Z</time>
      </trkpt>
      <trkpt lat="45.53008" lon="4.68882">
        <ele>384</ele>
        <time>2018-08-15T09:03:53.234Z</time>
      </trkpt>
      <trkpt lat="45.53019" lon="4.68871">
        <ele>384</ele>
        <time>2018-08-15T09:03:54.264Z</time>
      </trkpt>
      <trkpt lat="45.53019" lon="4.68871">
        <ele>384</ele>
        <time>2018-08-15T09:03:55.255Z</time>
      </trkpt>
      <trkpt lat="45.53028" lon="4.68859">
        <ele>384</ele>
        <time>2018-08-15T09:03:56.249Z</time>
      </trkpt>
      <trkpt lat="45.53028" lon="4.68859">
        <ele>384</ele>
        <time>2018-08-15T09:03:57.239Z</time>
      </trkpt>
      <trkpt lat="45.53038" lon="4.68848">
        <ele>384</ele>
        <time>2018-08-15T09:03:58.244Z</time>
      </trkpt>
      <trkpt lat="45.53038" lon="4.68848">
        <ele>384</ele>
        <time>2018-08-15T09:03:59.259Z</time>
      </trkpt>
      <trkpt lat="45.53047" lon="4.68836">
        <ele>384</ele>
        <time>2018-08-15T09:04:00.253Z</time>
      </trkpt>
      <trkpt lat="45.53047" lon="4.68836">
        <ele>384</ele>
        <time>2018-08-15T09:04:01.260Z</time>
      </trkpt>
      <trkpt lat="45.53058" lon="4.68824">
        <ele>383</ele>
        <time>2018-08-15T09:04:02.267Z</time>
      </trkpt>
      <trkpt lat="45.53058" lon="4.68824">
        <ele>383</ele>
        <time>2018-08-15T09:04:03.233Z</time>
      </trkpt>
      <trkpt lat="45.53068" lon="4.68812">
        <ele>383</ele>
        <time>2018-08-15T09:04:04.267Z</time>
      </trkpt>
      <trkpt lat="45.53068" lon="4.68812">
        <ele>383</ele>
        <time>2018-08-15T09:04:05.235Z</time>
      </trkpt>
      <trkpt lat="45.53079" lon="4.688">
        <ele>383</ele>
        <time>2018-08-15T09:04:06.272Z</time>
      </trkpt>
      <trkpt lat="45.53079" lon="4.688">
        <ele>383</ele>
        <time>2018-08-15T09:04:07.240Z</time>
      </trkpt>
      <trkpt lat="45.5309" lon="4.68787">
        <ele>383</ele>
        <time>2018-08-15T09:04:08.235Z</time>
      </trkpt>
      <trkpt lat="45.5309" lon="4.68787">
        <ele>383</ele>
        <time>2018-08-15T09:04:09.256Z</time>
      </trkpt>
      <trkpt lat="45.531" lon="4.68774">
        <ele>383</ele>
        <time>2018-08-15T09:04:10.251Z</time>
      </trkpt>
      <trkpt lat="45.531" lon="4.68774">
        <ele>383</ele>
        <time>2018-08-15T09:04:11.270Z</time>
      </trkpt>
      <trkpt lat="45.53111" lon="4.68762">
        <ele>383</ele>
        <time>2018-08-15T09:04:12.264Z</time>
      </trkpt>
      <trkpt lat="45.53111" lon="4.68762">
        <ele>383</ele>
        <time>2018-08-15T09:04:13.269Z</time>
      </trkpt>
      <trkpt lat="45.53121" lon="4.68748">
        <ele>383</ele>
        <time>2018-08-15T09:04:14.259Z</time>
      </trkpt>
      <trkpt lat="45.53121" lon="4.68748">
        <ele>383</ele>
        <time>2018-08-15T09:04:15.247Z</time>
      </trkpt>
      <trkpt lat="45.53132" lon="4.68735">
        <ele>383</ele>
        <time>2018-08-15T09:04:16.238Z</time>
      </trkpt>
      <trkpt lat="45.53132" lon="4.68735">
        <ele>383</ele>
        <time>2018-08-15T09:04:17.247Z</time>
      </trkpt>
      <trkpt lat="45.53143" lon="4.68722">
        <ele>382</ele>
        <time>2018-08-15T09:04:18.266Z</time>
      </trkpt>
      <trkpt lat="45.53149" lon="4.68715">
        <ele>382</ele>
        <time>2018-08-15T09:04:19.257Z</time>
      </trkpt>
      <trkpt lat="45.53149" lon="4.68715">
        <ele>382</ele>
        <time>2018-08-15T09:04:20.265Z</time>
      </trkpt>
      <trkpt lat="45.5316" lon="4.68702">
        <ele>383</ele>
        <time>2018-08-15T09:04:21.270Z</time>
      </trkpt>
      <trkpt lat="45.5316" lon="4.68702">
        <ele>383</ele>
        <time>2018-08-15T09:04:22.236Z</time>
      </trkpt>
      <trkpt lat="45.53172" lon="4.68688">
        <ele>383</ele>
        <time>2018-08-15T09:04:23.264Z</time>
      </trkpt>
      <trkpt lat="45.53178" lon="4.68681">
        <ele>382</ele>
        <time>2018-08-15T09:04:24.260Z</time>
      </trkpt>
      <trkpt lat="45.53178" lon="4.68681">
        <ele>382</ele>
        <time>2018-08-15T09:04:25.232Z</time>
      </trkpt>
      <trkpt lat="45.53189" lon="4.68669">
        <ele>382</ele>
        <time>2018-08-15T09:04:26.263Z</time>
      </trkpt>
      <trkpt lat="45.53189" lon="4.68669">
        <ele>382</ele>
        <time>2018-08-15T09:04:27.266Z</time>
      </trkpt>
      <trkpt lat="45.532" lon="4.68656">
        <ele>382</ele>
        <time>2018-08-15T09:04:28.255Z</time>
      </trkpt>
      <trkpt lat="45.532" lon="4.68656">
        <ele>382</ele>
        <time>2018-08-15T09:04:29.270Z</time>
      </trkpt>
      <trkpt lat="45.53211" lon="4.68645">
        <ele>382</ele>
        <time>2018-08-15T09:04:30.262Z</time>
      </trkpt>
      <trkpt lat="45.53211" lon="4.68645">
        <ele>382</ele>
        <time>2018-08-15T09:04:31.237Z</time>
      </trkpt>
      <trkpt lat="45.53222" lon="4.68635">
        <ele>382</ele>
        <time>2018-08-15T09:04:32.263Z</time>
      </trkpt>
      <trkpt lat="45.53222" lon="4.68635">
        <ele>382</ele>
        <time>2018-08-15T09:04:33.245Z</time>
      </trkpt>
      <trkpt lat="45.53234" lon="4.68625">
        <ele>381</ele>
        <time>2018-08-15T09:04:34.254Z</time>
      </trkpt>
      <trkpt lat="45.53234" lon="4.68625">
        <ele>381</ele>
        <time>2018-08-15T09:04:35.264Z</time>
      </trkpt>
      <trkpt lat="45.53246" lon="4.68616">
        <ele>381</ele>
        <time>2018-08-15T09:04:36.243Z</time>
      </trkpt>
      <trkpt lat="45.53252" lon="4.68612">
        <ele>382</ele>
        <time>2018-08-15T09:04:37.263Z</time>
      </trkpt>
      <trkpt lat="45.53259" lon="4.68609">
        <ele>382</ele>
        <time>2018-08-15T09:04:38.252Z</time>
      </trkpt>
      <trkpt lat="45.53259" lon="4.68609">
        <ele>382</ele>
        <time>2018-08-15T09:04:39.262Z</time>
      </trkpt>
      <trkpt lat="45.53272" lon="4.68602">
        <ele>381</ele>
        <time>2018-08-15T09:04:40.261Z</time>
      </trkpt>
      <trkpt lat="45.53272" lon="4.68602">
        <ele>381</ele>
        <time>2018-08-15T09:04:41.269Z</time>
      </trkpt>
      <trkpt lat="45.53286" lon="4.68595">
        <ele>381</ele>
        <time>2018-08-15T09:04:42.258Z</time>
      </trkpt>
      <trkpt lat="45.53286" lon="4.68595">
        <ele>381</ele>
        <time>2018-08-15T09:04:43.267Z</time>
      </trkpt>
      <trkpt lat="45.53301" lon="4.68587">
        <ele>380</ele>
        <time>2018-08-15T09:04:44.244Z</time>
      </trkpt>
      <trkpt lat="45.53301" lon="4.68587">
        <ele>380</ele>
        <time>2018-08-15T09:04:45.243Z</time>
      </trkpt>
      <trkpt lat="45.53316" lon="4.68579">
        <ele>380</ele>
        <time>2018-08-15T09:04:46.241Z</time>
      </trkpt>
      <trkpt lat="45.53316" lon="4.68579">
        <ele>380</ele>
        <time>2018-08-15T09:04:47.243Z</time>
      </trkpt>
      <trkpt lat="45.53332" lon="4.68571">
        <ele>380</ele>
        <time>2018-08-15T09:04:48.236Z</time>
      </trkpt>
      <trkpt lat="45.53332" lon="4.68571">
        <ele>380</ele>
        <time>2018-08-15T09:04:49.241Z</time>
      </trkpt>
      <trkpt lat="45.53347" lon="4.68562">
        <ele>379</ele>
        <time>2018-08-15T09:04:50.236Z</time>
      </trkpt>
      <trkpt lat="45.53347" lon="4.68562">
        <ele>379</ele>
        <time>2018-08-15T09:04:51.232Z</time>
      </trkpt>
      <trkpt lat="45.53363" lon="4.68552">
        <ele>379</ele>
        <time>2018-08-15T09:04:52.270Z</time>
      </trkpt>
      <trkpt lat="45.53363" lon="4.68552">
        <ele>379</ele>
        <time>2018-08-15T09:04:53.258Z</time>
      </trkpt>
      <trkpt lat="45.53377" lon="4.68541">
        <ele>378</ele>
        <time>2018-08-15T09:04:54.250Z</time>
      </trkpt>
      <trkpt lat="45.53377" lon="4.68541">
        <ele>378</ele>
        <time>2018-08-15T09:04:55.259Z</time>
      </trkpt>
      <trkpt lat="45.53392" lon="4.68528">
        <ele>377</ele>
        <time>2018-08-15T09:04:56.292Z</time>
      </trkpt>
      <trkpt lat="45.53392" lon="4.68528">
        <ele>377</ele>
        <time>2018-08-15T09:04:57.253Z</time>
      </trkpt>
      <trkpt lat="45.53406" lon="4.68514">
        <ele>377</ele>
        <time>2018-08-15T09:04:58.256Z</time>
      </trkpt>
      <trkpt lat="45.53406" lon="4.68514">
        <ele>377</ele>
        <time>2018-08-15T09:04:59.269Z</time>
      </trkpt>
      <trkpt lat="45.53419" lon="4.68498">
        <ele>376</ele>
        <time>2018-08-15T09:05:00.266Z</time>
      </trkpt>
      <trkpt lat="45.53419" lon="4.68498">
        <ele>376</ele>
        <time>2018-08-15T09:05:01.255Z</time>
      </trkpt>
      <trkpt lat="45.53432" lon="4.68481">
        <ele>375</ele>
        <time>2018-08-15T09:05:02.240Z</time>
      </trkpt>
      <trkpt lat="45.53432" lon="4.68481">
        <ele>375</ele>
        <time>2018-08-15T09:05:03.258Z</time>
      </trkpt>
      <trkpt lat="45.53445" lon="4.68464">
        <ele>375</ele>
        <time>2018-08-15T09:05:04.241Z</time>
      </trkpt>
      <trkpt lat="45.53445" lon="4.68464">
        <ele>375</ele>
        <time>2018-08-15T09:05:05.246Z</time>
      </trkpt>
      <trkpt lat="45.53459" lon="4.68446">
        <ele>374</ele>
        <time>2018-08-15T09:05:06.251Z</time>
      </trkpt>
      <trkpt lat="45.53459" lon="4.68446">
        <ele>374</ele>
        <time>2018-08-15T09:05:07.270Z</time>
      </trkpt>
      <trkpt lat="45.53473" lon="4.68428">
        <ele>372</ele>
        <time>2018-08-15T09:05:08.271Z</time>
      </trkpt>
      <trkpt lat="45.53473" lon="4.68428">
        <ele>372</ele>
        <time>2018-08-15T09:05:09.259Z</time>
      </trkpt>
      <trkpt lat="45.53486" lon="4.6841">
        <ele>371</ele>
        <time>2018-08-15T09:05:10.252Z</time>
      </trkpt>
      <trkpt lat="45.53486" lon="4.6841">
        <ele>371</ele>
        <time>2018-08-15T09:05:11.240Z</time>
      </trkpt>
      <trkpt lat="45.535" lon="4.68392">
        <ele>371</ele>
        <time>2018-08-15T09:05:12.240Z</time>
      </trkpt>
      <trkpt lat="45.535" lon="4.68392">
        <ele>371</ele>
        <time>2018-08-15T09:05:13.248Z</time>
      </trkpt>
      <trkpt lat="45.53514" lon="4.68375">
        <ele>370</ele>
        <time>2018-08-15T09:05:14.255Z</time>
      </trkpt>
      <trkpt lat="45.53514" lon="4.68375">
        <ele>370</ele>
        <time>2018-08-15T09:05:15.235Z</time>
      </trkpt>
      <trkpt lat="45.53527" lon="4.68357">
        <ele>369</ele>
        <time>2018-08-15T09:05:16.276Z</time>
      </trkpt>
      <trkpt lat="45.53527" lon="4.68357">
        <ele>369</ele>
        <time>2018-08-15T09:05:17.260Z</time>
      </trkpt>
      <trkpt lat="45.53541" lon="4.68339">
        <ele>369</ele>
        <time>2018-08-15T09:05:18.247Z</time>
      </trkpt>
      <trkpt lat="45.53548" lon="4.68331">
        <ele>368</ele>
        <time>2018-08-15T09:05:19.257Z</time>
      </trkpt>
      <trkpt lat="45.53555" lon="4.68322">
        <ele>368</ele>
        <time>2018-08-15T09:05:20.235Z</time>
      </trkpt>
      <trkpt lat="45.53555" lon="4.68322">
        <ele>368</ele>
        <time>2018-08-15T09:05:21.266Z</time>
      </trkpt>
      <trkpt lat="45.53568" lon="4.68304">
        <ele>367</ele>
        <time>2018-08-15T09:05:22.238Z</time>
      </trkpt>
      <trkpt lat="45.53568" lon="4.68304">
        <ele>367</ele>
        <time>2018-08-15T09:05:23.239Z</time>
      </trkpt>
      <trkpt lat="45.53581" lon="4.68286">
        <ele>367</ele>
        <time>2018-08-15T09:05:24.272Z</time>
      </trkpt>
      <trkpt lat="45.53581" lon="4.68286">
        <ele>367</ele>
        <time>2018-08-15T09:05:25.251Z</time>
      </trkpt>
      <trkpt lat="45.53595" lon="4.68269">
        <ele>366</ele>
        <time>2018-08-15T09:05:26.241Z</time>
      </trkpt>
      <trkpt lat="45.53595" lon="4.68269">
        <ele>366</ele>
        <time>2018-08-15T09:05:27.247Z</time>
      </trkpt>
      <trkpt lat="45.53608" lon="4.68251">
        <ele>366</ele>
        <time>2018-08-15T09:05:28.234Z</time>
      </trkpt>
      <trkpt lat="45.53608" lon="4.68251">
        <ele>366</ele>
        <time>2018-08-15T09:05:29.242Z</time>
      </trkpt>
      <trkpt lat="45.53621" lon="4.68233">
        <ele>365</ele>
        <time>2018-08-15T09:05:30.241Z</time>
      </trkpt>
      <trkpt lat="45.53621" lon="4.68233">
        <ele>365</ele>
        <time>2018-08-15T09:05:31.260Z</time>
      </trkpt>
      <trkpt lat="45.53634" lon="4.68214">
        <ele>364</ele>
        <time>2018-08-15T09:05:32.247Z</time>
      </trkpt>
      <trkpt lat="45.53634" lon="4.68214">
        <ele>364</ele>
        <time>2018-08-15T09:05:33.268Z</time>
      </trkpt>
      <trkpt lat="45.53646" lon="4.68194">
        <ele>363</ele>
        <time>2018-08-15T09:05:34.263Z</time>
      </trkpt>
      <trkpt lat="45.53646" lon="4.68194">
        <ele>363</ele>
        <time>2018-08-15T09:05:35.271Z</time>
      </trkpt>
      <trkpt lat="45.53656" lon="4.68171">
        <ele>362</ele>
        <time>2018-08-15T09:05:36.247Z</time>
      </trkpt>
      <trkpt lat="45.5366" lon="4.68159">
        <ele>362</ele>
        <time>2018-08-15T09:05:37.233Z</time>
      </trkpt>
      <trkpt lat="45.53664" lon="4.68147">
        <ele>361</ele>
        <time>2018-08-15T09:05:38.237Z</time>
      </trkpt>
      <trkpt lat="45.53664" lon="4.68147">
        <ele>361</ele>
        <time>2018-08-15T09:05:39.259Z</time>
      </trkpt>
      <trkpt lat="45.53671" lon="4.68122">
        <ele>361</ele>
        <time>2018-08-15T09:05:40.261Z</time>
      </trkpt>
      <trkpt lat="45.53675" lon="4.6811">
        <ele>360</ele>
        <time>2018-08-15T09:05:41.276Z</time>
      </trkpt>
      <trkpt lat="45.53675" lon="4.6811">
        <ele>360</ele>
        <time>2018-08-15T09:05:42.258Z</time>
      </trkpt>
      <trkpt lat="45.53683" lon="4.68084">
        <ele>358</ele>
        <time>2018-08-15T09:05:43.266Z</time>
      </trkpt>
      <trkpt lat="45.53688" lon="4.68071">
        <ele>358</ele>
        <time>2018-08-15T09:05:44.256Z</time>
      </trkpt>
      <trkpt lat="45.53688" lon="4.68071">
        <ele>358</ele>
        <time>2018-08-15T09:05:45.263Z</time>
      </trkpt>
      <trkpt lat="45.53699" lon="4.68047">
        <ele>356</ele>
        <time>2018-08-15T09:05:46.261Z</time>
      </trkpt>
      <trkpt lat="45.53699" lon="4.68047">
        <ele>356</ele>
        <time>2018-08-15T09:05:47.232Z</time>
      </trkpt>
      <trkpt lat="45.53712" lon="4.68024">
        <ele>354</ele>
        <time>2018-08-15T09:05:48.234Z</time>
      </trkpt>
      <trkpt lat="45.53712" lon="4.68024">
        <ele>354</ele>
        <time>2018-08-15T09:05:49.239Z</time>
      </trkpt>
      <trkpt lat="45.53725" lon="4.68005">
        <ele>352</ele>
        <time>2018-08-15T09:05:50.269Z</time>
      </trkpt>
      <trkpt lat="45.53725" lon="4.68005">
        <ele>352</ele>
        <time>2018-08-15T09:05:51.239Z</time>
      </trkpt>
      <trkpt lat="45.53737" lon="4.67988">
        <ele>351</ele>
        <time>2018-08-15T09:05:52.268Z</time>
      </trkpt>
      <trkpt lat="45.53737" lon="4.67988">
        <ele>351</ele>
        <time>2018-08-15T09:05:53.257Z</time>
      </trkpt>
      <trkpt lat="45.53747" lon="4.67975">
        <ele>350</ele>
        <time>2018-08-15T09:05:54.304Z</time>
      </trkpt>
      <trkpt lat="45.53747" lon="4.67975">
        <ele>350</ele>
        <time>2018-08-15T09:05:55.238Z</time>
      </trkpt>
      <trkpt lat="45.53755" lon="4.67963">
        <ele>349</ele>
        <time>2018-08-15T09:05:56.266Z</time>
      </trkpt>
      <trkpt lat="45.53755" lon="4.67963">
        <ele>349</ele>
        <time>2018-08-15T09:05:57.255Z</time>
      </trkpt>
      <trkpt lat="45.53764" lon="4.6795">
        <ele>348</ele>
        <time>2018-08-15T09:05:58.258Z</time>
      </trkpt>
      <trkpt lat="45.53764" lon="4.6795">
        <ele>348</ele>
        <time>2018-08-15T09:05:59.264Z</time>
      </trkpt>
      <trkpt lat="45.53773" lon="4.67936">
        <ele>347</ele>
        <time>2018-08-15T09:06:00.246Z</time>
      </trkpt>
      <trkpt lat="45.53773" lon="4.67936">
        <ele>347</ele>
        <time>2018-08-15T09:06:01.237Z</time>
      </trkpt>
      <trkpt lat="45.53783" lon="4.67921">
        <ele>346</ele>
        <time>2018-08-15T09:06:02.268Z</time>
      </trkpt>
      <trkpt lat="45.53783" lon="4.67921">
        <ele>346</ele>
        <time>2018-08-15T09:06:03.234Z</time>
      </trkpt>
      <trkpt lat="45.53794" lon="4.67906">
        <ele>345</ele>
        <time>2018-08-15T09:06:04.268Z</time>
      </trkpt>
      <trkpt lat="45.53794" lon="4.67906">
        <ele>345</ele>
        <time>2018-08-15T09:06:05.244Z</time>
      </trkpt>
      <trkpt lat="45.53805" lon="4.67889">
        <ele>344</ele>
        <time>2018-08-15T09:06:06.249Z</time>
      </trkpt>
      <trkpt lat="45.53805" lon="4.67889">
        <ele>344</ele>
        <time>2018-08-15T09:06:07.248Z</time>
      </trkpt>
      <trkpt lat="45.53816" lon="4.67872">
        <ele>343</ele>
        <time>2018-08-15T09:06:08.246Z</time>
      </trkpt>
      <trkpt lat="45.53816" lon="4.67872">
        <ele>343</ele>
        <time>2018-08-15T09:06:09.261Z</time>
      </trkpt>
      <trkpt lat="45.53827" lon="4.67856">
        <ele>342</ele>
        <time>2018-08-15T09:06:10.252Z</time>
      </trkpt>
      <trkpt lat="45.53833" lon="4.67847">
        <ele>341</ele>
        <time>2018-08-15T09:06:11.246Z</time>
      </trkpt>
      <trkpt lat="45.53839" lon="4.67838">
        <ele>340</ele>
        <time>2018-08-15T09:06:12.263Z</time>
      </trkpt>
      <trkpt lat="45.53839" lon="4.67838">
        <ele>340</ele>
        <time>2018-08-15T09:06:13.234Z</time>
      </trkpt>
      <trkpt lat="45.53851" lon="4.67821">
        <ele>339</ele>
        <time>2018-08-15T09:06:14.273Z</time>
      </trkpt>
      <trkpt lat="45.53851" lon="4.67821">
        <ele>339</ele>
        <time>2018-08-15T09:06:15.270Z</time>
      </trkpt>
      <trkpt lat="45.53862" lon="4.67805">
        <ele>338</ele>
        <time>2018-08-15T09:06:16.257Z</time>
      </trkpt>
      <trkpt lat="45.53862" lon="4.67805">
        <ele>338</ele>
        <time>2018-08-15T09:06:17.262Z</time>
      </trkpt>
      <trkpt lat="45.53873" lon="4.67788">
        <ele>337</ele>
        <time>2018-08-15T09:06:18.234Z</time>
      </trkpt>
      <trkpt lat="45.53873" lon="4.67788">
        <ele>337</ele>
        <time>2018-08-15T09:06:19.245Z</time>
      </trkpt>
      <trkpt lat="45.53884" lon="4.67772">
        <ele>336</ele>
        <time>2018-08-15T09:06:20.241Z</time>
      </trkpt>
      <trkpt lat="45.53884" lon="4.67772">
        <ele>336</ele>
        <time>2018-08-15T09:06:21.255Z</time>
      </trkpt>
      <trkpt lat="45.53893" lon="4.67756">
        <ele>335</ele>
        <time>2018-08-15T09:06:22.248Z</time>
      </trkpt>
      <trkpt lat="45.53893" lon="4.67756">
        <ele>335</ele>
        <time>2018-08-15T09:06:23.237Z</time>
      </trkpt>
      <trkpt lat="45.539" lon="4.6774">
        <ele>335</ele>
        <time>2018-08-15T09:06:24.272Z</time>
      </trkpt>
      <trkpt lat="45.53904" lon="4.67733">
        <ele>334</ele>
        <time>2018-08-15T09:06:25.254Z</time>
      </trkpt>
      <trkpt lat="45.53908" lon="4.67725">
        <ele>334</ele>
        <time>2018-08-15T09:06:26.242Z</time>
      </trkpt>
      <trkpt lat="45.53908" lon="4.67725">
        <ele>334</ele>
        <time>2018-08-15T09:06:27.242Z</time>
      </trkpt>
      <trkpt lat="45.53915" lon="4.67712">
        <ele>334</ele>
        <time>2018-08-15T09:06:28.236Z</time>
      </trkpt>
      <trkpt lat="45.53915" lon="4.67712">
        <ele>334</ele>
        <time>2018-08-15T09:06:29.255Z</time>
      </trkpt>
      <trkpt lat="45.53922" lon="4.67698">
        <ele>333</ele>
        <time>2018-08-15T09:06:30.252Z</time>
      </trkpt>
      <trkpt lat="45.53922" lon="4.67698">
        <ele>333</ele>
        <time>2018-08-15T09:06:31.271Z</time>
      </trkpt>
      <trkpt lat="45.5393" lon="4.67682">
        <ele>333</ele>
        <time>2018-08-15T09:06:32.266Z</time>
      </trkpt>
      <trkpt lat="45.5393" lon="4.67682">
        <ele>333</ele>
        <time>2018-08-15T09:06:33.239Z</time>
      </trkpt>
      <trkpt lat="45.53938" lon="4.67667">
        <ele>332</ele>
        <time>2018-08-15T09:06:34.269Z</time>
      </trkpt>
      <trkpt lat="45.53941" lon="4.6766">
        <ele>332</ele>
        <time>2018-08-15T09:06:35.266Z</time>
      </trkpt>
      <trkpt lat="45.53941" lon="4.6766">
        <ele>332</ele>
        <time>2018-08-15T09:06:36.261Z</time>
      </trkpt>
      <trkpt lat="45.53947" lon="4.67647">
        <ele>331</ele>
        <time>2018-08-15T09:06:37.236Z</time>
      </trkpt>
      <trkpt lat="45.5395" lon="4.67641">
        <ele>331</ele>
        <time>2018-08-15T09:06:38.266Z</time>
      </trkpt>
      <trkpt lat="45.5395" lon="4.67641">
        <ele>331</ele>
        <time>2018-08-15T09:06:39.266Z</time>
      </trkpt>
      <trkpt lat="45.53955" lon="4.6763">
        <ele>331</ele>
        <time>2018-08-15T09:06:40.247Z</time>
      </trkpt>
      <trkpt lat="45.53955" lon="4.6763">
        <ele>331</ele>
        <time>2018-08-15T09:06:41.256Z</time>
      </trkpt>
      <trkpt lat="45.53959" lon="4.67619">
        <ele>330</ele>
        <time>2018-08-15T09:06:42.235Z</time>
      </trkpt>
      <trkpt lat="45.53959" lon="4.67619">
        <ele>330</ele>
        <time>2018-08-15T09:06:43.234Z</time>
      </trkpt>
      <trkpt lat="45.53963" lon="4.67614">
        <ele>330</ele>
        <time>2018-08-15T09:06:44.266Z</time>
      </trkpt>
      <trkpt lat="45.53963" lon="4.67614">
        <ele>330</ele>
        <time>2018-08-15T09:06:45.251Z</time>
      </trkpt>
      <trkpt lat="45.53966" lon="4.67612">
        <ele>330</ele>
        <time>2018-08-15T09:06:46.246Z</time>
      </trkpt>
      <trkpt lat="45.53966" lon="4.67612">
        <ele>330</ele>
        <time>2018-08-15T09:06:47.260Z</time>
      </trkpt>
      <trkpt lat="45.53972" lon="4.67613">
        <ele>330</ele>
        <time>2018-08-15T09:06:48.257Z</time>
      </trkpt>
      <trkpt lat="45.53972" lon="4.67613">
        <ele>330</ele>
        <time>2018-08-15T09:06:49.241Z</time>
      </trkpt>
      <trkpt lat="45.53975" lon="4.67616">
        <ele>331</ele>
        <time>2018-08-15T09:06:50.238Z</time>
      </trkpt>
      <trkpt lat="45.53975" lon="4.67616">
        <ele>331</ele>
        <time>2018-08-15T09:06:51.243Z</time>
      </trkpt>
      <trkpt lat="45.53979" lon="4.6762">
        <ele>331</ele>
        <time>2018-08-15T09:06:52.246Z</time>
      </trkpt>
      <trkpt lat="45.53979" lon="4.6762">
        <ele>331</ele>
        <time>2018-08-15T09:06:53.255Z</time>
      </trkpt>
      <trkpt lat="45.53984" lon="4.67623">
        <ele>331</ele>
        <time>2018-08-15T09:06:54.244Z</time>
      </trkpt>
      <trkpt lat="45.53984" lon="4.67623">
        <ele>331</ele>
        <time>2018-08-15T09:06:55.255Z</time>
      </trkpt>
      <trkpt lat="45.53991" lon="4.67624">
        <ele>331</ele>
        <time>2018-08-15T09:06:56.234Z</time>
      </trkpt>
      <trkpt lat="45.53991" lon="4.67624">
        <ele>331</ele>
        <time>2018-08-15T09:06:57.243Z</time>
      </trkpt>
      <trkpt lat="45.53999" lon="4.67628">
        <ele>332</ele>
        <time>2018-08-15T09:06:58.270Z</time>
      </trkpt>
      <trkpt lat="45.53999" lon="4.67628">
        <ele>332</ele>
        <time>2018-08-15T09:06:59.260Z</time>
      </trkpt>
      <trkpt lat="45.54007" lon="4.67633">
        <ele>332</ele>
        <time>2018-08-15T09:07:00.252Z</time>
      </trkpt>
      <trkpt lat="45.54007" lon="4.67633">
        <ele>332</ele>
        <time>2018-08-15T09:07:01.260Z</time>
      </trkpt>
      <trkpt lat="45.54015" lon="4.67639">
        <ele>331</ele>
        <time>2018-08-15T09:07:02.266Z</time>
      </trkpt>
      <trkpt lat="45.54015" lon="4.67639">
        <ele>331</ele>
        <time>2018-08-15T09:07:03.257Z</time>
      </trkpt>
      <trkpt lat="45.54024" lon="4.67646">
        <ele>331</ele>
        <time>2018-08-15T09:07:04.256Z</time>
      </trkpt>
      <trkpt lat="45.54024" lon="4.67646">
        <ele>331</ele>
        <time>2018-08-15T09:07:05.237Z</time>
      </trkpt>
      <trkpt lat="45.54033" lon="4.67657">
        <ele>332</ele>
        <time>2018-08-15T09:07:06.266Z</time>
      </trkpt>
      <trkpt lat="45.54033" lon="4.67657">
        <ele>332</ele>
        <time>2018-08-15T09:07:07.239Z</time>
      </trkpt>
      <trkpt lat="45.54041" lon="4.67669">
        <ele>331</ele>
        <time>2018-08-15T09:07:08.267Z</time>
      </trkpt>
      <trkpt lat="45.54041" lon="4.67669">
        <ele>331</ele>
        <time>2018-08-15T09:07:09.266Z</time>
      </trkpt>
      <trkpt lat="45.54048" lon="4.67682">
        <ele>331</ele>
        <time>2018-08-15T09:07:10.266Z</time>
      </trkpt>
      <trkpt lat="45.54048" lon="4.67682">
        <ele>331</ele>
        <time>2018-08-15T09:07:11.247Z</time>
      </trkpt>
      <trkpt lat="45.54056" lon="4.67693">
        <ele>331</ele>
        <time>2018-08-15T09:07:12.235Z</time>
      </trkpt>
      <trkpt lat="45.54056" lon="4.67693">
        <ele>331</ele>
        <time>2018-08-15T09:07:13.244Z</time>
      </trkpt>
      <trkpt lat="45.54063" lon="4.67705">
        <ele>331</ele>
        <time>2018-08-15T09:07:14.236Z</time>
      </trkpt>
      <trkpt lat="45.54063" lon="4.67705">
        <ele>331</ele>
        <time>2018-08-15T09:07:15.268Z</time>
      </trkpt>
      <trkpt lat="45.54071" lon="4.67715">
        <ele>331</ele>
        <time>2018-08-15T09:07:16.264Z</time>
      </trkpt>
      <trkpt lat="45.54071" lon="4.67715">
        <ele>331</ele>
        <time>2018-08-15T09:07:17.271Z</time>
      </trkpt>
      <trkpt lat="45.54078" lon="4.67727">
        <ele>331</ele>
        <time>2018-08-15T09:07:18.270Z</time>
      </trkpt>
      <trkpt lat="45.54078" lon="4.67727">
        <ele>331</ele>
        <time>2018-08-15T09:07:19.240Z</time>
      </trkpt>
      <trkpt lat="45.54085" lon="4.67737">
        <ele>331</ele>
        <time>2018-08-15T09:07:20.247Z</time>
      </trkpt>
      <trkpt lat="45.54085" lon="4.67737">
        <ele>331</ele>
        <time>2018-08-15T09:07:21.255Z</time>
      </trkpt>
      <trkpt lat="45.54092" lon="4.67747">
        <ele>330</ele>
        <time>2018-08-15T09:07:22.249Z</time>
      </trkpt>
      <trkpt lat="45.54092" lon="4.67747">
        <ele>330</ele>
        <time>2018-08-15T09:07:23.268Z</time>
      </trkpt>
      <trkpt lat="45.54099" lon="4.67757">
        <ele>331</ele>
        <time>2018-08-15T09:07:24.257Z</time>
      </trkpt>
      <trkpt lat="45.54102" lon="4.67762">
        <ele>331</ele>
        <time>2018-08-15T09:07:25.243Z</time>
      </trkpt>
      <trkpt lat="45.54105" lon="4.67767">
        <ele>331</ele>
        <time>2018-08-15T09:07:26.249Z</time>
      </trkpt>
      <trkpt lat="45.54105" lon="4.67767">
        <ele>331</ele>
        <time>2018-08-15T09:07:27.246Z</time>
      </trkpt>
      <trkpt lat="45.54112" lon="4.67775">
        <ele>331</ele>
        <time>2018-08-15T09:07:28.239Z</time>
      </trkpt>
      <trkpt lat="45.54112" lon="4.67775">
        <ele>331</ele>
        <time>2018-08-15T09:07:29.255Z</time>
      </trkpt>
      <trkpt lat="45.54118" lon="4.67785">
        <ele>331</ele>
        <time>2018-08-15T09:07:30.247Z</time>
      </trkpt>
      <trkpt lat="45.54118" lon="4.67785">
        <ele>331</ele>
        <time>2018-08-15T09:07:31.234Z</time>
      </trkpt>
      <trkpt lat="45.54124" lon="4.67793">
        <ele>332</ele>
        <time>2018-08-15T09:07:32.267Z</time>
      </trkpt>
      <trkpt lat="45.54124" lon="4.67793">
        <ele>332</ele>
        <time>2018-08-15T09:07:33.265Z</time>
      </trkpt>
      <trkpt lat="45.5413" lon="4.67799">
        <ele>332</ele>
        <time>2018-08-15T09:07:34.265Z</time>
      </trkpt>
      <trkpt lat="45.5413" lon="4.67799">
        <ele>332</ele>
        <time>2018-08-15T09:07:35.234Z</time>
      </trkpt>
      <trkpt lat="45.54137" lon="4.67805">
        <ele>332</ele>
        <time>2018-08-15T09:07:36.236Z</time>
      </trkpt>
      <trkpt lat="45.54137" lon="4.67805">
        <ele>332</ele>
        <time>2018-08-15T09:07:37.253Z</time>
      </trkpt>
      <trkpt lat="45.54144" lon="4.67812">
        <ele>333</ele>
        <time>2018-08-15T09:07:38.256Z</time>
      </trkpt>
      <trkpt lat="45.54144" lon="4.67812">
        <ele>333</ele>
        <time>2018-08-15T09:07:39.243Z</time>
      </trkpt>
      <trkpt lat="45.5415" lon="4.67818">
        <ele>333</ele>
        <time>2018-08-15T09:07:40.246Z</time>
      </trkpt>
      <trkpt lat="45.5415" lon="4.67818">
        <ele>333</ele>
        <time>2018-08-15T09:07:41.245Z</time>
      </trkpt>
      <trkpt lat="45.54157" lon="4.67825">
        <ele>333</ele>
        <time>2018-08-15T09:07:42.250Z</time>
      </trkpt>
      <trkpt lat="45.54157" lon="4.67825">
        <ele>333</ele>
        <time>2018-08-15T09:07:43.264Z</time>
      </trkpt>
      <trkpt lat="45.54163" lon="4.6783">
        <ele>333</ele>
        <time>2018-08-15T09:07:44.252Z</time>
      </trkpt>
      <trkpt lat="45.54163" lon="4.6783">
        <ele>333</ele>
        <time>2018-08-15T09:07:45.261Z</time>
      </trkpt>
      <trkpt lat="45.54169" lon="4.67835">
        <ele>333</ele>
        <time>2018-08-15T09:07:46.258Z</time>
      </trkpt>
      <trkpt lat="45.54169" lon="4.67835">
        <ele>333</ele>
        <time>2018-08-15T09:07:47.243Z</time>
      </trkpt>
      <trkpt lat="45.54176" lon="4.6784">
        <ele>334</ele>
        <time>2018-08-15T09:07:48.252Z</time>
      </trkpt>
      <trkpt lat="45.54176" lon="4.6784">
        <ele>334</ele>
        <time>2018-08-15T09:07:49.255Z</time>
      </trkpt>
      <trkpt lat="45.54182" lon="4.67847">
        <ele>335</ele>
        <time>2018-08-15T09:07:50.247Z</time>
      </trkpt>
      <trkpt lat="45.54182" lon="4.67847">
        <ele>335</ele>
        <time>2018-08-15T09:07:51.254Z</time>
      </trkpt>
      <trkpt lat="45.54186" lon="4.67854">
        <ele>335</ele>
        <time>2018-08-15T09:07:52.246Z</time>
      </trkpt>
      <trkpt lat="45.54186" lon="4.67854">
        <ele>335</ele>
        <time>2018-08-15T09:07:53.253Z</time>
      </trkpt>
      <trkpt lat="45.54191" lon="4.67861">
        <ele>335</ele>
        <time>2018-08-15T09:07:54.244Z</time>
      </trkpt>
      <trkpt lat="45.54191" lon="4.67861">
        <ele>335</ele>
        <time>2018-08-15T09:07:55.270Z</time>
      </trkpt>
      <trkpt lat="45.54195" lon="4.67869">
        <ele>335</ele>
        <time>2018-08-15T09:07:56.254Z</time>
      </trkpt>
      <trkpt lat="45.54195" lon="4.67869">
        <ele>335</ele>
        <time>2018-08-15T09:07:57.267Z</time>
      </trkpt>
      <trkpt lat="45.54198" lon="4.67878">
        <ele>336</ele>
        <time>2018-08-15T09:07:58.266Z</time>
      </trkpt>
      <trkpt lat="45.54198" lon="4.67878">
        <ele>336</ele>
        <time>2018-08-15T09:07:59.257Z</time>
      </trkpt>
      <trkpt lat="45.54202" lon="4.67887">
        <ele>336</ele>
        <time>2018-08-15T09:08:00.260Z</time>
      </trkpt>
      <trkpt lat="45.54202" lon="4.67887">
        <ele>336</ele>
        <time>2018-08-15T09:08:01.236Z</time>
      </trkpt>
      <trkpt lat="45.54205" lon="4.67895">
        <ele>336</ele>
        <time>2018-08-15T09:08:02.258Z</time>
      </trkpt>
      <trkpt lat="45.54205" lon="4.67895">
        <ele>336</ele>
        <time>2018-08-15T09:08:03.269Z</time>
      </trkpt>
      <trkpt lat="45.54208" lon="4.67903">
        <ele>336</ele>
        <time>2018-08-15T09:08:04.266Z</time>
      </trkpt>
      <trkpt lat="45.54208" lon="4.67903">
        <ele>336</ele>
        <time>2018-08-15T09:08:05.255Z</time>
      </trkpt>
      <trkpt lat="45.5421" lon="4.6791">
        <ele>336</ele>
        <time>2018-08-15T09:08:06.246Z</time>
      </trkpt>
      <trkpt lat="45.5421" lon="4.6791">
        <ele>336</ele>
        <time>2018-08-15T09:08:07.234Z</time>
      </trkpt>
      <trkpt lat="45.54214" lon="4.67917">
        <ele>337</ele>
        <time>2018-08-15T09:08:08.236Z</time>
      </trkpt>
      <trkpt lat="45.54214" lon="4.67917">
        <ele>337</ele>
        <time>2018-08-15T09:08:09.245Z</time>
      </trkpt>
      <trkpt lat="45.54217" lon="4.67924">
        <ele>337</ele>
        <time>2018-08-15T09:08:10.271Z</time>
      </trkpt>
      <trkpt lat="45.54217" lon="4.67924">
        <ele>337</ele>
        <time>2018-08-15T09:08:11.254Z</time>
      </trkpt>
      <trkpt lat="45.54219" lon="4.67931">
        <ele>338</ele>
        <time>2018-08-15T09:08:12.241Z</time>
      </trkpt>
      <trkpt lat="45.54219" lon="4.67931">
        <ele>338</ele>
        <time>2018-08-15T09:08:13.257Z</time>
      </trkpt>
      <trkpt lat="45.54221" lon="4.67939">
        <ele>339</ele>
        <time>2018-08-15T09:08:14.239Z</time>
      </trkpt>
      <trkpt lat="45.54221" lon="4.67939">
        <ele>339</ele>
        <time>2018-08-15T09:08:15.269Z</time>
      </trkpt>
      <trkpt lat="45.54224" lon="4.67945">
        <ele>340</ele>
        <time>2018-08-15T09:08:16.262Z</time>
      </trkpt>
      <trkpt lat="45.54224" lon="4.67945">
        <ele>340</ele>
        <time>2018-08-15T09:08:17.243Z</time>
      </trkpt>
      <trkpt lat="45.54228" lon="4.67952">
        <ele>340</ele>
        <time>2018-08-15T09:08:18.246Z</time>
      </trkpt>
      <trkpt lat="45.54228" lon="4.67952">
        <ele>340</ele>
        <time>2018-08-15T09:08:19.258Z</time>
      </trkpt>
      <trkpt lat="45.54231" lon="4.6796">
        <ele>341</ele>
        <time>2018-08-15T09:08:20.258Z</time>
      </trkpt>
      <trkpt lat="45.54231" lon="4.6796">
        <ele>341</ele>
        <time>2018-08-15T09:08:21.233Z</time>
      </trkpt>
      <trkpt lat="45.54234" lon="4.67968">
        <ele>341</ele>
        <time>2018-08-15T09:08:22.263Z</time>
      </trkpt>
      <trkpt lat="45.54234" lon="4.67968">
        <ele>341</ele>
        <time>2018-08-15T09:08:23.254Z</time>
      </trkpt>
      <trkpt lat="45.54237" lon="4.67977">
        <ele>341</ele>
        <time>2018-08-15T09:08:24.251Z</time>
      </trkpt>
      <trkpt lat="45.54237" lon="4.67977">
        <ele>341</ele>
        <time>2018-08-15T09:08:25.247Z</time>
      </trkpt>
      <trkpt lat="45.54239" lon="4.67986">
        <ele>342</ele>
        <time>2018-08-15T09:08:26.255Z</time>
      </trkpt>
      <trkpt lat="45.54239" lon="4.67986">
        <ele>342</ele>
        <time>2018-08-15T09:08:27.239Z</time>
      </trkpt>
      <trkpt lat="45.54243" lon="4.67994">
        <ele>343</ele>
        <time>2018-08-15T09:08:28.237Z</time>
      </trkpt>
      <trkpt lat="45.54243" lon="4.67994">
        <ele>343</ele>
        <time>2018-08-15T09:08:29.236Z</time>
      </trkpt>
      <trkpt lat="45.54248" lon="4.68001">
        <ele>343</ele>
        <time>2018-08-15T09:08:30.262Z</time>
      </trkpt>
      <trkpt lat="45.54248" lon="4.68001">
        <ele>343</ele>
        <time>2018-08-15T09:08:31.233Z</time>
      </trkpt>
      <trkpt lat="45.54255" lon="4.68006">
        <ele>343</ele>
        <time>2018-08-15T09:08:32.275Z</time>
      </trkpt>
      <trkpt lat="45.54255" lon="4.68006">
        <ele>343</ele>
        <time>2018-08-15T09:08:33.251Z</time>
      </trkpt>
      <trkpt lat="45.54262" lon="4.68011">
        <ele>343</ele>
        <time>2018-08-15T09:08:34.262Z</time>
      </trkpt>
      <trkpt lat="45.54262" lon="4.68011">
        <ele>343</ele>
        <time>2018-08-15T09:08:35.257Z</time>
      </trkpt>
      <trkpt lat="45.5427" lon="4.68017">
        <ele>343</ele>
        <time>2018-08-15T09:08:36.249Z</time>
      </trkpt>
      <trkpt lat="45.5427" lon="4.68017">
        <ele>343</ele>
        <time>2018-08-15T09:08:37.270Z</time>
      </trkpt>
      <trkpt lat="45.54277" lon="4.68022">
        <ele>343</ele>
        <time>2018-08-15T09:08:38.266Z</time>
      </trkpt>
      <trkpt lat="45.54277" lon="4.68022">
        <ele>343</ele>
        <time>2018-08-15T09:08:39.232Z</time>
      </trkpt>
      <trkpt lat="45.54285" lon="4.68029">
        <ele>343</ele>
        <time>2018-08-15T09:08:40.274Z</time>
      </trkpt>
      <trkpt lat="45.54285" lon="4.68029">
        <ele>343</ele>
        <time>2018-08-15T09:08:41.265Z</time>
      </trkpt>
      <trkpt lat="45.54293" lon="4.68036">
        <ele>343</ele>
        <time>2018-08-15T09:08:42.258Z</time>
      </trkpt>
      <trkpt lat="45.54293" lon="4.68036">
        <ele>343</ele>
        <time>2018-08-15T09:08:43.256Z</time>
      </trkpt>
      <trkpt lat="45.54301" lon="4.68043">
        <ele>342</ele>
        <time>2018-08-15T09:08:44.251Z</time>
      </trkpt>
      <trkpt lat="45.54301" lon="4.68043">
        <ele>342</ele>
        <time>2018-08-15T09:08:45.257Z</time>
      </trkpt>
      <trkpt lat="45.5431" lon="4.68052">
        <ele>342</ele>
        <time>2018-08-15T09:08:46.265Z</time>
      </trkpt>
      <trkpt lat="45.5431" lon="4.68052">
        <ele>342</ele>
        <time>2018-08-15T09:08:47.252Z</time>
      </trkpt>
      <trkpt lat="45.54318" lon="4.68064">
        <ele>342</ele>
        <time>2018-08-15T09:08:48.236Z</time>
      </trkpt>
      <trkpt lat="45.54318" lon="4.68064">
        <ele>342</ele>
        <time>2018-08-15T09:08:49.244Z</time>
      </trkpt>
      <trkpt lat="45.54324" lon="4.68078">
        <ele>341</ele>
        <time>2018-08-15T09:08:50.234Z</time>
      </trkpt>
      <trkpt lat="45.54324" lon="4.68078">
        <ele>341</ele>
        <time>2018-08-15T09:08:51.237Z</time>
      </trkpt>
      <trkpt lat="45.5433" lon="4.68093">
        <ele>340</ele>
        <time>2018-08-15T09:08:52.260Z</time>
      </trkpt>
      <trkpt lat="45.5433" lon="4.68093">
        <ele>340</ele>
        <time>2018-08-15T09:08:53.265Z</time>
      </trkpt>
      <trkpt lat="45.54337" lon="4.68108">
        <ele>340</ele>
        <time>2018-08-15T09:08:54.261Z</time>
      </trkpt>
      <trkpt lat="45.54337" lon="4.68108">
        <ele>340</ele>
        <time>2018-08-15T09:08:55.233Z</time>
      </trkpt>
      <trkpt lat="45.54343" lon="4.68124">
        <ele>339</ele>
        <time>2018-08-15T09:08:56.251Z</time>
      </trkpt>
      <trkpt lat="45.54343" lon="4.68124">
        <ele>339</ele>
        <time>2018-08-15T09:08:57.265Z</time>
      </trkpt>
      <trkpt lat="45.54349" lon="4.68139">
        <ele>339</ele>
        <time>2018-08-15T09:08:58.272Z</time>
      </trkpt>
      <trkpt lat="45.54349" lon="4.68139">
        <ele>339</ele>
        <time>2018-08-15T09:08:59.254Z</time>
      </trkpt>
      <trkpt lat="45.54356" lon="4.68156">
        <ele>338</ele>
        <time>2018-08-15T09:09:00.258Z</time>
      </trkpt>
      <trkpt lat="45.54356" lon="4.68156">
        <ele>338</ele>
        <time>2018-08-15T09:09:01.270Z</time>
      </trkpt>
      <trkpt lat="45.54361" lon="4.68174">
        <ele>337</ele>
        <time>2018-08-15T09:09:02.257Z</time>
      </trkpt>
      <trkpt lat="45.54361" lon="4.68174">
        <ele>337</ele>
        <time>2018-08-15T09:09:03.258Z</time>
      </trkpt>
      <trkpt lat="45.54366" lon="4.68192">
        <ele>337</ele>
        <time>2018-08-15T09:09:04.250Z</time>
      </trkpt>
      <trkpt lat="45.54366" lon="4.68192">
        <ele>337</ele>
        <time>2018-08-15T09:09:05.258Z</time>
      </trkpt>
      <trkpt lat="45.54368" lon="4.6821">
        <ele>336</ele>
        <time>2018-08-15T09:09:06.248Z</time>
      </trkpt>
      <trkpt lat="45.54368" lon="4.6821">
        <ele>336</ele>
        <time>2018-08-15T09:09:07.255Z</time>
      </trkpt>
      <trkpt lat="45.54369" lon="4.68229">
        <ele>336</ele>
        <time>2018-08-15T09:09:08.247Z</time>
      </trkpt>
      <trkpt lat="45.54369" lon="4.68229">
        <ele>336</ele>
        <time>2018-08-15T09:09:09.257Z</time>
      </trkpt>
      <trkpt lat="45.54369" lon="4.68248">
        <ele>335</ele>
        <time>2018-08-15T09:09:10.253Z</time>
      </trkpt>
      <trkpt lat="45.54369" lon="4.68248">
        <ele>335</ele>
        <time>2018-08-15T09:09:11.259Z</time>
      </trkpt>
      <trkpt lat="45.54368" lon="4.68267">
        <ele>334</ele>
        <time>2018-08-15T09:09:12.256Z</time>
      </trkpt>
      <trkpt lat="45.54368" lon="4.68267">
        <ele>334</ele>
        <time>2018-08-15T09:09:13.261Z</time>
      </trkpt>
      <trkpt lat="45.54367" lon="4.68287">
        <ele>334</ele>
        <time>2018-08-15T09:09:14.266Z</time>
      </trkpt>
      <trkpt lat="45.54367" lon="4.68287">
        <ele>334</ele>
        <time>2018-08-15T09:09:15.270Z</time>
      </trkpt>
      <trkpt lat="45.54367" lon="4.68307">
        <ele>333</ele>
        <time>2018-08-15T09:09:16.267Z</time>
      </trkpt>
      <trkpt lat="45.54367" lon="4.68307">
        <ele>333</ele>
        <time>2018-08-15T09:09:17.235Z</time>
      </trkpt>
      <trkpt lat="45.54366" lon="4.68327">
        <ele>333</ele>
        <time>2018-08-15T09:09:18.250Z</time>
      </trkpt>
      <trkpt lat="45.54366" lon="4.68327">
        <ele>333</ele>
        <time>2018-08-15T09:09:19.259Z</time>
      </trkpt>
      <trkpt lat="45.54366" lon="4.68348">
        <ele>332</ele>
        <time>2018-08-15T09:09:20.233Z</time>
      </trkpt>
      <trkpt lat="45.54366" lon="4.68348">
        <ele>332</ele>
        <time>2018-08-15T09:09:21.264Z</time>
      </trkpt>
      <trkpt lat="45.54365" lon="4.68369">
        <ele>331</ele>
        <time>2018-08-15T09:09:22.249Z</time>
      </trkpt>
      <trkpt lat="45.54365" lon="4.68369">
        <ele>331</ele>
        <time>2018-08-15T09:09:23.258Z</time>
      </trkpt>
      <trkpt lat="45.54365" lon="4.6839">
        <ele>331</ele>
        <time>2018-08-15T09:09:24.257Z</time>
      </trkpt>
      <trkpt lat="45.54365" lon="4.6839">
        <ele>331</ele>
        <time>2018-08-15T09:09:25.269Z</time>
      </trkpt>
      <trkpt lat="45.54363" lon="4.68412">
        <ele>330</ele>
        <time>2018-08-15T09:09:26.272Z</time>
      </trkpt>
      <trkpt lat="45.54363" lon="4.68412">
        <ele>330</ele>
        <time>2018-08-15T09:09:27.257Z</time>
      </trkpt>
      <trkpt lat="45.54362" lon="4.68433">
        <ele>330</ele>
        <time>2018-08-15T09:09:28.263Z</time>
      </trkpt>
      <trkpt lat="45.54362" lon="4.68433">
        <ele>330</ele>
        <time>2018-08-15T09:09:29.236Z</time>
      </trkpt>
      <trkpt lat="45.5436" lon="4.68454">
        <ele>329</ele>
        <time>2018-08-15T09:09:30.266Z</time>
      </trkpt>
      <trkpt lat="45.5436" lon="4.68454">
        <ele>329</ele>
        <time>2018-08-15T09:09:31.257Z</time>
      </trkpt>
      <trkpt lat="45.54359" lon="4.68476">
        <ele>329</ele>
        <time>2018-08-15T09:09:32.239Z</time>
      </trkpt>
      <trkpt lat="45.54359" lon="4.68476">
        <ele>329</ele>
        <time>2018-08-15T09:09:33.245Z</time>
      </trkpt>
      <trkpt lat="45.5436" lon="4.68497">
        <ele>328</ele>
        <time>2018-08-15T09:09:34.235Z</time>
      </trkpt>
      <trkpt lat="45.5436" lon="4.68497">
        <ele>328</ele>
        <time>2018-08-15T09:09:35.265Z</time>
      </trkpt>
      <trkpt lat="45.54362" lon="4.68519">
        <ele>328</ele>
        <time>2018-08-15T09:09:36.262Z</time>
      </trkpt>
      <trkpt lat="45.54362" lon="4.68519">
        <ele>328</ele>
        <time>2018-08-15T09:09:37.267Z</time>
      </trkpt>
      <trkpt lat="45.54364" lon="4.68541">
        <ele>327</ele>
        <time>2018-08-15T09:09:38.255Z</time>
      </trkpt>
      <trkpt lat="45.54364" lon="4.68541">
        <ele>327</ele>
        <time>2018-08-15T09:09:39.238Z</time>
      </trkpt>
      <trkpt lat="45.54366" lon="4.68562">
        <ele>327</ele>
        <time>2018-08-15T09:09:40.237Z</time>
      </trkpt>
      <trkpt lat="45.54366" lon="4.68562">
        <ele>327</ele>
        <time>2018-08-15T09:09:41.269Z</time>
      </trkpt>
      <trkpt lat="45.54368" lon="4.68582">
        <ele>326</ele>
        <time>2018-08-15T09:09:42.259Z</time>
      </trkpt>
      <trkpt lat="45.54368" lon="4.68582">
        <ele>326</ele>
        <time>2018-08-15T09:09:43.257Z</time>
      </trkpt>
      <trkpt lat="45.5437" lon="4.68603">
        <ele>326</ele>
        <time>2018-08-15T09:09:44.278Z</time>
      </trkpt>
      <trkpt lat="45.5437" lon="4.68603">
        <ele>326</ele>
        <time>2018-08-15T09:09:45.258Z</time>
      </trkpt>
      <trkpt lat="45.54372" lon="4.68623">
        <ele>326</ele>
        <time>2018-08-15T09:09:46.238Z</time>
      </trkpt>
      <trkpt lat="45.54372" lon="4.68623">
        <ele>326</ele>
        <time>2018-08-15T09:09:47.251Z</time>
      </trkpt>
      <trkpt lat="45.54373" lon="4.68642">
        <ele>325</ele>
        <time>2018-08-15T09:09:48.238Z</time>
      </trkpt>
      <trkpt lat="45.54373" lon="4.68642">
        <ele>325</ele>
        <time>2018-08-15T09:09:49.264Z</time>
      </trkpt>
      <trkpt lat="45.54376" lon="4.68661">
        <ele>326</ele>
        <time>2018-08-15T09:09:50.266Z</time>
      </trkpt>
      <trkpt lat="45.54376" lon="4.68661">
        <ele>326</ele>
        <time>2018-08-15T09:09:51.272Z</time>
      </trkpt>
      <trkpt lat="45.54378" lon="4.68679">
        <ele>326</ele>
        <time>2018-08-15T09:09:52.246Z</time>
      </trkpt>
      <trkpt lat="45.54378" lon="4.68679">
        <ele>326</ele>
        <time>2018-08-15T09:09:53.254Z</time>
      </trkpt>
      <trkpt lat="45.54383" lon="4.68697">
        <ele>326</ele>
        <time>2018-08-15T09:09:54.241Z</time>
      </trkpt>
      <trkpt lat="45.54383" lon="4.68697">
        <ele>326</ele>
        <time>2018-08-15T09:09:55.246Z</time>
      </trkpt>
      <trkpt lat="45.54388" lon="4.68714">
        <ele>325</ele>
        <time>2018-08-15T09:09:56.251Z</time>
      </trkpt>
      <trkpt lat="45.54388" lon="4.68714">
        <ele>325</ele>
        <time>2018-08-15T09:09:57.251Z</time>
      </trkpt>
      <trkpt lat="45.54395" lon="4.6873">
        <ele>325</ele>
        <time>2018-08-15T09:09:58.239Z</time>
      </trkpt>
      <trkpt lat="45.54395" lon="4.6873">
        <ele>325</ele>
        <time>2018-08-15T09:09:59.269Z</time>
      </trkpt>
      <trkpt lat="45.54402" lon="4.68746">
        <ele>324</ele>
        <time>2018-08-15T09:10:00.281Z</time>
      </trkpt>
      <trkpt lat="45.54402" lon="4.68746">
        <ele>324</ele>
        <time>2018-08-15T09:10:01.248Z</time>
      </trkpt>
      <trkpt lat="45.54409" lon="4.68762">
        <ele>324</ele>
        <time>2018-08-15T09:10:02.238Z</time>
      </trkpt>
      <trkpt lat="45.54409" lon="4.68762">
        <ele>324</ele>
        <time>2018-08-15T09:10:03.244Z</time>
      </trkpt>
      <trkpt lat="45.54416" lon="4.68779">
        <ele>324</ele>
        <time>2018-08-15T09:10:04.238Z</time>
      </trkpt>
      <trkpt lat="45.54416" lon="4.68779">
        <ele>324</ele>
        <time>2018-08-15T09:10:05.243Z</time>
      </trkpt>
      <trkpt lat="45.54423" lon="4.68797">
        <ele>323</ele>
        <time>2018-08-15T09:10:06.258Z</time>
      </trkpt>
      <trkpt lat="45.54423" lon="4.68797">
        <ele>323</ele>
        <time>2018-08-15T09:10:07.245Z</time>
      </trkpt>
      <trkpt lat="45.5443" lon="4.68814">
        <ele>322</ele>
        <time>2018-08-15T09:10:08.248Z</time>
      </trkpt>
      <trkpt lat="45.5443" lon="4.68814">
        <ele>322</ele>
        <time>2018-08-15T09:10:09.249Z</time>
      </trkpt>
      <trkpt lat="45.54438" lon="4.68833">
        <ele>322</ele>
        <time>2018-08-15T09:10:10.242Z</time>
      </trkpt>
      <trkpt lat="45.54438" lon="4.68833">
        <ele>322</ele>
        <time>2018-08-15T09:10:11.251Z</time>
      </trkpt>
      <trkpt lat="45.54446" lon="4.68853">
        <ele>321</ele>
        <time>2018-08-15T09:10:12.263Z</time>
      </trkpt>
      <trkpt lat="45.54446" lon="4.68853">
        <ele>321</ele>
        <time>2018-08-15T09:10:13.237Z</time>
      </trkpt>
      <trkpt lat="45.54454" lon="4.68874">
        <ele>320</ele>
        <time>2018-08-15T09:10:14.245Z</time>
      </trkpt>
      <trkpt lat="45.54454" lon="4.68874">
        <ele>320</ele>
        <time>2018-08-15T09:10:15.255Z</time>
      </trkpt>
      <trkpt lat="45.54462" lon="4.68896">
        <ele>319</ele>
        <time>2018-08-15T09:10:16.246Z</time>
      </trkpt>
      <trkpt lat="45.54462" lon="4.68896">
        <ele>319</ele>
        <time>2018-08-15T09:10:17.253Z</time>
      </trkpt>
      <trkpt lat="45.5447" lon="4.68919">
        <ele>318</ele>
        <time>2018-08-15T09:10:18.233Z</time>
      </trkpt>
      <trkpt lat="45.5447" lon="4.68919">
        <ele>318</ele>
        <time>2018-08-15T09:10:19.269Z</time>
      </trkpt>
      <trkpt lat="45.54479" lon="4.68942">
        <ele>316</ele>
        <time>2018-08-15T09:10:20.276Z</time>
      </trkpt>
      <trkpt lat="45.54479" lon="4.68942">
        <ele>316</ele>
        <time>2018-08-15T09:10:21.241Z</time>
      </trkpt>
      <trkpt lat="45.54488" lon="4.68965">
        <ele>315</ele>
        <time>2018-08-15T09:10:22.267Z</time>
      </trkpt>
      <trkpt lat="45.54488" lon="4.68965">
        <ele>315</ele>
        <time>2018-08-15T09:10:23.246Z</time>
      </trkpt>
      <trkpt lat="45.54498" lon="4.68988">
        <ele>314</ele>
        <time>2018-08-15T09:10:24.251Z</time>
      </trkpt>
      <trkpt lat="45.54498" lon="4.68988">
        <ele>314</ele>
        <time>2018-08-15T09:10:25.239Z</time>
      </trkpt>
      <trkpt lat="45.54509" lon="4.69011">
        <ele>313</ele>
        <time>2018-08-15T09:10:26.265Z</time>
      </trkpt>
      <trkpt lat="45.54509" lon="4.69011">
        <ele>313</ele>
        <time>2018-08-15T09:10:27.232Z</time>
      </trkpt>
      <trkpt lat="45.5452" lon="4.69032">
        <ele>312</ele>
        <time>2018-08-15T09:10:28.272Z</time>
      </trkpt>
      <trkpt lat="45.5452" lon="4.69032">
        <ele>312</ele>
        <time>2018-08-15T09:10:29.237Z</time>
      </trkpt>
      <trkpt lat="45.54534" lon="4.6905">
        <ele>311</ele>
        <time>2018-08-15T09:10:30.266Z</time>
      </trkpt>
      <trkpt lat="45.54534" lon="4.6905">
        <ele>311</ele>
        <time>2018-08-15T09:10:31.234Z</time>
      </trkpt>
      <trkpt lat="45.54549" lon="4.69062">
        <ele>310</ele>
        <time>2018-08-15T09:10:32.264Z</time>
      </trkpt>
      <trkpt lat="45.54549" lon="4.69062">
        <ele>310</ele>
        <time>2018-08-15T09:10:33.257Z</time>
      </trkpt>
      <trkpt lat="45.54564" lon="4.69071">
        <ele>310</ele>
        <time>2018-08-15T09:10:34.240Z</time>
      </trkpt>
      <trkpt lat="45.54564" lon="4.69071">
        <ele>310</ele>
        <time>2018-08-15T09:10:35.245Z</time>
      </trkpt>
      <trkpt lat="45.54577" lon="4.6908">
        <ele>310</ele>
        <time>2018-08-15T09:10:36.257Z</time>
      </trkpt>
      <trkpt lat="45.54577" lon="4.6908">
        <ele>310</ele>
        <time>2018-08-15T09:10:37.269Z</time>
      </trkpt>
      <trkpt lat="45.54585" lon="4.69092">
        <ele>309</ele>
        <time>2018-08-15T09:10:38.264Z</time>
      </trkpt>
      <trkpt lat="45.54585" lon="4.69092">
        <ele>309</ele>
        <time>2018-08-15T09:10:39.233Z</time>
      </trkpt>
      <trkpt lat="45.54585" lon="4.69109">
        <ele>308</ele>
        <time>2018-08-15T09:10:40.267Z</time>
      </trkpt>
      <trkpt lat="45.54585" lon="4.69109">
        <ele>308</ele>
        <time>2018-08-15T09:10:41.233Z</time>
      </trkpt>
      <trkpt lat="45.54575" lon="4.69121">
        <ele>307</ele>
        <time>2018-08-15T09:10:42.266Z</time>
      </trkpt>
      <trkpt lat="45.54575" lon="4.69121">
        <ele>307</ele>
        <time>2018-08-15T09:10:43.242Z</time>
      </trkpt>
      <trkpt lat="45.54562" lon="4.69124">
        <ele>306</ele>
        <time>2018-08-15T09:10:44.242Z</time>
      </trkpt>
      <trkpt lat="45.54555" lon="4.69126">
        <ele>305</ele>
        <time>2018-08-15T09:10:45.269Z</time>
      </trkpt>
      <trkpt lat="45.54555" lon="4.69126">
        <ele>305</ele>
        <time>2018-08-15T09:10:46.241Z</time>
      </trkpt>
      <trkpt lat="45.54541" lon="4.6913">
        <ele>305</ele>
        <time>2018-08-15T09:10:47.253Z</time>
      </trkpt>
      <trkpt lat="45.54541" lon="4.6913">
        <ele>305</ele>
        <time>2018-08-15T09:10:48.266Z</time>
      </trkpt>
      <trkpt lat="45.54526" lon="4.69133">
        <ele>304</ele>
        <time>2018-08-15T09:10:49.276Z</time>
      </trkpt>
      <trkpt lat="45.54519" lon="4.69134">
        <ele>304</ele>
        <time>2018-08-15T09:10:50.266Z</time>
      </trkpt>
      <trkpt lat="45.54519" lon="4.69134">
        <ele>304</ele>
        <time>2018-08-15T09:10:51.235Z</time>
      </trkpt>
      <trkpt lat="45.54503" lon="4.69134">
        <ele>303</ele>
        <time>2018-08-15T09:10:52.264Z</time>
      </trkpt>
      <trkpt lat="45.54503" lon="4.69134">
        <ele>303</ele>
        <time>2018-08-15T09:10:53.260Z</time>
      </trkpt>
      <trkpt lat="45.54488" lon="4.69128">
        <ele>303</ele>
        <time>2018-08-15T09:10:54.266Z</time>
      </trkpt>
      <trkpt lat="45.54488" lon="4.69128">
        <ele>303</ele>
        <time>2018-08-15T09:10:55.234Z</time>
      </trkpt>
      <trkpt lat="45.54473" lon="4.69123">
        <ele>302</ele>
        <time>2018-08-15T09:10:56.235Z</time>
      </trkpt>
      <trkpt lat="45.54473" lon="4.69123">
        <ele>302</ele>
        <time>2018-08-15T09:10:57.244Z</time>
      </trkpt>
      <trkpt lat="45.54458" lon="4.69117">
        <ele>302</ele>
        <time>2018-08-15T09:10:58.271Z</time>
      </trkpt>
      <trkpt lat="45.54458" lon="4.69117">
        <ele>302</ele>
        <time>2018-08-15T09:10:59.237Z</time>
      </trkpt>
      <trkpt lat="45.54441" lon="4.69117">
        <ele>302</ele>
        <time>2018-08-15T09:11:00.256Z</time>
      </trkpt>
      <trkpt lat="45.54441" lon="4.69117">
        <ele>302</ele>
        <time>2018-08-15T09:11:01.250Z</time>
      </trkpt>
      <trkpt lat="45.54426" lon="4.69125">
        <ele>301</ele>
        <time>2018-08-15T09:11:02.256Z</time>
      </trkpt>
      <trkpt lat="45.54426" lon="4.69125">
        <ele>301</ele>
        <time>2018-08-15T09:11:03.262Z</time>
      </trkpt>
      <trkpt lat="45.54412" lon="4.69138">
        <ele>301</ele>
        <time>2018-08-15T09:11:04.267Z</time>
      </trkpt>
      <trkpt lat="45.54412" lon="4.69138">
        <ele>301</ele>
        <time>2018-08-15T09:11:05.233Z</time>
      </trkpt>
      <trkpt lat="45.54398" lon="4.69151">
        <ele>300</ele>
        <time>2018-08-15T09:11:06.265Z</time>
      </trkpt>
      <trkpt lat="45.54398" lon="4.69151">
        <ele>300</ele>
        <time>2018-08-15T09:11:07.247Z</time>
      </trkpt>
      <trkpt lat="45.54382" lon="4.6916">
        <ele>300</ele>
        <time>2018-08-15T09:11:08.253Z</time>
      </trkpt>
      <trkpt lat="45.54382" lon="4.6916">
        <ele>300</ele>
        <time>2018-08-15T09:11:09.261Z</time>
      </trkpt>
      <trkpt lat="45.54366" lon="4.69168">
        <ele>300</ele>
        <time>2018-08-15T09:11:10.260Z</time>
      </trkpt>
      <trkpt lat="45.54366" lon="4.69168">
        <ele>300</ele>
        <time>2018-08-15T09:11:11.234Z</time>
      </trkpt>
      <trkpt lat="45.54348" lon="4.69171">
        <ele>300</ele>
        <time>2018-08-15T09:11:12.273Z</time>
      </trkpt>
      <trkpt lat="45.54348" lon="4.69171">
        <ele>300</ele>
        <time>2018-08-15T09:11:13.255Z</time>
      </trkpt>
      <trkpt lat="45.5433" lon="4.69168">
        <ele>299</ele>
        <time>2018-08-15T09:11:14.254Z</time>
      </trkpt>
      <trkpt lat="45.5433" lon="4.69168">
        <ele>299</ele>
        <time>2018-08-15T09:11:15.257Z</time>
      </trkpt>
      <trkpt lat="45.54313" lon="4.6916">
        <ele>298</ele>
        <time>2018-08-15T09:11:16.232Z</time>
      </trkpt>
      <trkpt lat="45.54313" lon="4.6916">
        <ele>298</ele>
        <time>2018-08-15T09:11:17.238Z</time>
      </trkpt>
      <trkpt lat="45.54298" lon="4.69149">
        <ele>297</ele>
        <time>2018-08-15T09:11:18.232Z</time>
      </trkpt>
      <trkpt lat="45.54298" lon="4.69149">
        <ele>297</ele>
        <time>2018-08-15T09:11:19.236Z</time>
      </trkpt>
      <trkpt lat="45.54283" lon="4.69138">
        <ele>297</ele>
        <time>2018-08-15T09:11:20.255Z</time>
      </trkpt>
      <trkpt lat="45.54283" lon="4.69138">
        <ele>297</ele>
        <time>2018-08-15T09:11:21.253Z</time>
      </trkpt>
      <trkpt lat="45.54267" lon="4.69137">
        <ele>296</ele>
        <time>2018-08-15T09:11:22.246Z</time>
      </trkpt>
      <trkpt lat="45.54267" lon="4.69137">
        <ele>296</ele>
        <time>2018-08-15T09:11:23.246Z</time>
      </trkpt>
      <trkpt lat="45.5425" lon="4.69141">
        <ele>296</ele>
        <time>2018-08-15T09:11:24.237Z</time>
      </trkpt>
      <trkpt lat="45.5425" lon="4.69141">
        <ele>296</ele>
        <time>2018-08-15T09:11:25.259Z</time>
      </trkpt>
      <trkpt lat="45.54234" lon="4.69146">
        <ele>296</ele>
        <time>2018-08-15T09:11:26.269Z</time>
      </trkpt>
      <trkpt lat="45.54234" lon="4.69146">
        <ele>296</ele>
        <time>2018-08-15T09:11:27.234Z</time>
      </trkpt>
      <trkpt lat="45.54217" lon="4.69148">
        <ele>295</ele>
        <time>2018-08-15T09:11:28.276Z</time>
      </trkpt>
      <trkpt lat="45.54209" lon="4.69148">
        <ele>295</ele>
        <time>2018-08-15T09:11:29.240Z</time>
      </trkpt>
      <trkpt lat="45.54209" lon="4.69148">
        <ele>295</ele>
        <time>2018-08-15T09:11:30.253Z</time>
      </trkpt>
      <trkpt lat="45.54194" lon="4.69147">
        <ele>294</ele>
        <time>2018-08-15T09:11:31.248Z</time>
      </trkpt>
      <trkpt lat="45.54187" lon="4.69144">
        <ele>293</ele>
        <time>2018-08-15T09:11:32.256Z</time>
      </trkpt>
      <trkpt lat="45.54187" lon="4.69144">
        <ele>293</ele>
        <time>2018-08-15T09:11:33.263Z</time>
      </trkpt>
      <trkpt lat="45.54175" lon="4.69129">
        <ele>292</ele>
        <time>2018-08-15T09:11:34.266Z</time>
      </trkpt>
      <trkpt lat="45.54175" lon="4.69129">
        <ele>292</ele>
        <time>2018-08-15T09:11:35.239Z</time>
      </trkpt>
      <trkpt lat="45.54166" lon="4.69112">
        <ele>291</ele>
        <time>2018-08-15T09:11:36.234Z</time>
      </trkpt>
      <trkpt lat="45.54166" lon="4.69112">
        <ele>291</ele>
        <time>2018-08-15T09:11:37.255Z</time>
      </trkpt>
      <trkpt lat="45.54162" lon="4.69091">
        <ele>291</ele>
        <time>2018-08-15T09:11:38.245Z</time>
      </trkpt>
      <trkpt lat="45.54162" lon="4.69091">
        <ele>291</ele>
        <time>2018-08-15T09:11:39.271Z</time>
      </trkpt>
      <trkpt lat="45.5416" lon="4.6907">
        <ele>290</ele>
        <time>2018-08-15T09:11:40.271Z</time>
      </trkpt>
      <trkpt lat="45.5416" lon="4.6907">
        <ele>290</ele>
        <time>2018-08-15T09:11:41.253Z</time>
      </trkpt>
      <trkpt lat="45.54157" lon="4.6905">
        <ele>289</ele>
        <time>2018-08-15T09:11:42.262Z</time>
      </trkpt>
      <trkpt lat="45.54157" lon="4.6905">
        <ele>289</ele>
        <time>2018-08-15T09:11:43.243Z</time>
      </trkpt>
      <trkpt lat="45.54151" lon="4.6903">
        <ele>288</ele>
        <time>2018-08-15T09:11:44.233Z</time>
      </trkpt>
      <trkpt lat="45.54151" lon="4.6903">
        <ele>288</ele>
        <time>2018-08-15T09:11:45.238Z</time>
      </trkpt>
      <trkpt lat="45.54145" lon="4.69011">
        <ele>287</ele>
        <time>2018-08-15T09:11:46.258Z</time>
      </trkpt>
      <trkpt lat="45.54145" lon="4.69011">
        <ele>287</ele>
        <time>2018-08-15T09:11:47.245Z</time>
      </trkpt>
      <trkpt lat="45.54136" lon="4.6899">
        <ele>286</ele>
        <time>2018-08-15T09:11:48.257Z</time>
      </trkpt>
      <trkpt lat="45.54136" lon="4.6899">
        <ele>286</ele>
        <time>2018-08-15T09:11:49.268Z</time>
      </trkpt>
      <trkpt lat="45.54129" lon="4.68971">
        <ele>286</ele>
        <time>2018-08-15T09:11:50.251Z</time>
      </trkpt>
      <trkpt lat="45.54129" lon="4.68971">
        <ele>286</ele>
        <time>2018-08-15T09:11:51.236Z</time>
      </trkpt>
      <trkpt lat="45.54119" lon="4.68952">
        <ele>285</ele>
        <time>2018-08-15T09:11:52.249Z</time>
      </trkpt>
      <trkpt lat="45.54119" lon="4.68952">
        <ele>285</ele>
        <time>2018-08-15T09:11:53.262Z</time>
      </trkpt>
      <trkpt lat="45.54108" lon="4.68934">
        <ele>285</ele>
        <time>2018-08-15T09:11:54.251Z</time>
      </trkpt>
      <trkpt lat="45.54108" lon="4.68934">
        <ele>285</ele>
        <time>2018-08-15T09:11:55.265Z</time>
      </trkpt>
      <trkpt lat="45.541" lon="4.6892">
        <ele>284</ele>
        <time>2018-08-15T09:11:56.254Z</time>
      </trkpt>
      <trkpt lat="45.541" lon="4.6892">
        <ele>284</ele>
        <time>2018-08-15T09:11:57.264Z</time>
      </trkpt>
      <trkpt lat="45.54089" lon="4.68915">
        <ele>284</ele>
        <time>2018-08-15T09:11:58.237Z</time>
      </trkpt>
      <trkpt lat="45.54089" lon="4.68915">
        <ele>284</ele>
        <time>2018-08-15T09:11:59.258Z</time>
      </trkpt>
      <trkpt lat="45.5408" lon="4.68921">
        <ele>284</ele>
        <time>2018-08-15T09:12:00.235Z</time>
      </trkpt>
      <trkpt lat="45.54077" lon="4.68926">
        <ele>283</ele>
        <time>2018-08-15T09:12:01.248Z</time>
      </trkpt>
      <trkpt lat="45.54075" lon="4.68931">
        <ele>283</ele>
        <time>2018-08-15T09:12:02.266Z</time>
      </trkpt>
      <trkpt lat="45.54075" lon="4.68931">
        <ele>283</ele>
        <time>2018-08-15T09:12:03.272Z</time>
      </trkpt>
      <trkpt lat="45.54075" lon="4.68941">
        <ele>283</ele>
        <time>2018-08-15T09:12:04.246Z</time>
      </trkpt>
      <trkpt lat="45.54074" lon="4.68947">
        <ele>283</ele>
        <time>2018-08-15T09:12:05.271Z</time>
      </trkpt>
      <trkpt lat="45.54074" lon="4.68947">
        <ele>283</ele>
        <time>2018-08-15T09:12:06.237Z</time>
      </trkpt>
      <trkpt lat="45.54081" lon="4.68962">
        <ele>282</ele>
        <time>2018-08-15T09:12:07.266Z</time>
      </trkpt>
      <trkpt lat="45.54083" lon="4.6897">
        <ele>282</ele>
        <time>2018-08-15T09:12:08.256Z</time>
      </trkpt>
      <trkpt lat="45.54083" lon="4.6897">
        <ele>282</ele>
        <time>2018-08-15T09:12:09.266Z</time>
      </trkpt>
      <trkpt lat="45.54087" lon="4.68986">
        <ele>281</ele>
        <time>2018-08-15T09:12:10.263Z</time>
      </trkpt>
      <trkpt lat="45.54087" lon="4.68986">
        <ele>281</ele>
        <time>2018-08-15T09:12:11.245Z</time>
      </trkpt>
      <trkpt lat="45.5409" lon="4.69007">
        <ele>281</ele>
        <time>2018-08-15T09:12:12.236Z</time>
      </trkpt>
      <trkpt lat="45.5409" lon="4.69007">
        <ele>281</ele>
        <time>2018-08-15T09:12:13.244Z</time>
      </trkpt>
      <trkpt lat="45.5409" lon="4.69028">
        <ele>280</ele>
        <time>2018-08-15T09:12:14.246Z</time>
      </trkpt>
      <trkpt lat="45.5409" lon="4.69028">
        <ele>280</ele>
        <time>2018-08-15T09:12:15.257Z</time>
      </trkpt>
      <trkpt lat="45.54089" lon="4.69049">
        <ele>279</ele>
        <time>2018-08-15T09:12:16.237Z</time>
      </trkpt>
      <trkpt lat="45.54089" lon="4.69049">
        <ele>279</ele>
        <time>2018-08-15T09:12:17.260Z</time>
      </trkpt>
      <trkpt lat="45.54085" lon="4.69073">
        <ele>279</ele>
        <time>2018-08-15T09:12:18.246Z</time>
      </trkpt>
      <trkpt lat="45.54085" lon="4.69073">
        <ele>279</ele>
        <time>2018-08-15T09:12:19.266Z</time>
      </trkpt>
      <trkpt lat="45.5408" lon="4.69096">
        <ele>278</ele>
        <time>2018-08-15T09:12:20.265Z</time>
      </trkpt>
      <trkpt lat="45.5408" lon="4.69096">
        <ele>278</ele>
        <time>2018-08-15T09:12:21.241Z</time>
      </trkpt>
      <trkpt lat="45.54076" lon="4.69119">
        <ele>277</ele>
        <time>2018-08-15T09:12:22.279Z</time>
      </trkpt>
      <trkpt lat="45.54076" lon="4.69119">
        <ele>277</ele>
        <time>2018-08-15T09:12:23.271Z</time>
      </trkpt>
      <trkpt lat="45.54072" lon="4.69144">
        <ele>276</ele>
        <time>2018-08-15T09:12:24.265Z</time>
      </trkpt>
      <trkpt lat="45.54072" lon="4.69144">
        <ele>276</ele>
        <time>2018-08-15T09:12:25.240Z</time>
      </trkpt>
      <trkpt lat="45.54069" lon="4.69168">
        <ele>275</ele>
        <time>2018-08-15T09:12:26.252Z</time>
      </trkpt>
      <trkpt lat="45.54069" lon="4.69168">
        <ele>275</ele>
        <time>2018-08-15T09:12:27.240Z</time>
      </trkpt>
      <trkpt lat="45.54065" lon="4.69189">
        <ele>275</ele>
        <time>2018-08-15T09:12:28.251Z</time>
      </trkpt>
      <trkpt lat="45.54065" lon="4.69189">
        <ele>275</ele>
        <time>2018-08-15T09:12:29.257Z</time>
      </trkpt>
      <trkpt lat="45.54057" lon="4.69205">
        <ele>274</ele>
        <time>2018-08-15T09:12:30.254Z</time>
      </trkpt>
      <trkpt lat="45.54052" lon="4.6921">
        <ele>274</ele>
        <time>2018-08-15T09:12:31.268Z</time>
      </trkpt>
      <trkpt lat="45.54044" lon="4.69215">
        <ele>274</ele>
        <time>2018-08-15T09:12:32.264Z</time>
      </trkpt>
      <trkpt lat="45.54044" lon="4.69215">
        <ele>274</ele>
        <time>2018-08-15T09:12:33.254Z</time>
      </trkpt>
      <trkpt lat="45.54031" lon="4.69228">
        <ele>274</ele>
        <time>2018-08-15T09:12:34.246Z</time>
      </trkpt>
      <trkpt lat="45.54031" lon="4.69228">
        <ele>274</ele>
        <time>2018-08-15T09:12:35.269Z</time>
      </trkpt>
      <trkpt lat="45.54018" lon="4.69236">
        <ele>274</ele>
        <time>2018-08-15T09:12:36.257Z</time>
      </trkpt>
      <trkpt lat="45.54011" lon="4.69237">
        <ele>274</ele>
        <time>2018-08-15T09:12:37.235Z</time>
      </trkpt>
      <trkpt lat="45.54011" lon="4.69237">
        <ele>274</ele>
        <time>2018-08-15T09:12:38.244Z</time>
      </trkpt>
      <trkpt lat="45.53995" lon="4.69229">
        <ele>273</ele>
        <time>2018-08-15T09:12:39.279Z</time>
      </trkpt>
      <trkpt lat="45.53995" lon="4.69229">
        <ele>273</ele>
        <time>2018-08-15T09:12:40.244Z</time>
      </trkpt>
      <trkpt lat="45.53982" lon="4.69226">
        <ele>274</ele>
        <time>2018-08-15T09:12:41.242Z</time>
      </trkpt>
      <trkpt lat="45.53982" lon="4.69226">
        <ele>274</ele>
        <time>2018-08-15T09:12:42.233Z</time>
      </trkpt>
      <trkpt lat="45.53969" lon="4.69233">
        <ele>274</ele>
        <time>2018-08-15T09:12:43.234Z</time>
      </trkpt>
      <trkpt lat="45.53969" lon="4.69233">
        <ele>274</ele>
        <time>2018-08-15T09:12:44.258Z</time>
      </trkpt>
      <trkpt lat="45.5396" lon="4.69251">
        <ele>273</ele>
        <time>2018-08-15T09:12:45.237Z</time>
      </trkpt>
      <trkpt lat="45.53955" lon="4.69262">
        <ele>273</ele>
        <time>2018-08-15T09:12:46.239Z</time>
      </trkpt>
      <trkpt lat="45.5395" lon="4.69273">
        <ele>273</ele>
        <time>2018-08-15T09:12:47.236Z</time>
      </trkpt>
      <trkpt lat="45.5395" lon="4.69273">
        <ele>273</ele>
        <time>2018-08-15T09:12:48.247Z</time>
      </trkpt>
      <trkpt lat="45.53942" lon="4.69294">
        <ele>273</ele>
        <time>2018-08-15T09:12:49.232Z</time>
      </trkpt>
      <trkpt lat="45.53936" lon="4.69303">
        <ele>273</ele>
        <time>2018-08-15T09:12:50.252Z</time>
      </trkpt>
      <trkpt lat="45.53936" lon="4.69303">
        <ele>273</ele>
        <time>2018-08-15T09:12:51.257Z</time>
      </trkpt>
      <trkpt lat="45.53923" lon="4.69319">
        <ele>273</ele>
        <time>2018-08-15T09:12:52.253Z</time>
      </trkpt>
      <trkpt lat="45.53923" lon="4.69319">
        <ele>273</ele>
        <time>2018-08-15T09:12:53.258Z</time>
      </trkpt>
      <trkpt lat="45.53911" lon="4.69334">
        <ele>273</ele>
        <time>2018-08-15T09:12:54.244Z</time>
      </trkpt>
      <trkpt lat="45.53905" lon="4.69343">
        <ele>273</ele>
        <time>2018-08-15T09:12:55.248Z</time>
      </trkpt>
      <trkpt lat="45.539" lon="4.69352">
        <ele>273</ele>
        <time>2018-08-15T09:12:56.250Z</time>
      </trkpt>
      <trkpt lat="45.539" lon="4.69352">
        <ele>273</ele>
        <time>2018-08-15T09:12:57.265Z</time>
      </trkpt>
      <trkpt lat="45.53886" lon="4.69366">
        <ele>273</ele>
        <time>2018-08-15T09:12:58.253Z</time>
      </trkpt>
      <trkpt lat="45.53886" lon="4.69366">
        <ele>273</ele>
        <time>2018-08-15T09:12:59.259Z</time>
      </trkpt>
      <trkpt lat="45.53871" lon="4.69374">
        <ele>273</ele>
        <time>2018-08-15T09:13:00.252Z</time>
      </trkpt>
      <trkpt lat="45.53871" lon="4.69374">
        <ele>273</ele>
        <time>2018-08-15T09:13:01.254Z</time>
      </trkpt>
      <trkpt lat="45.53855" lon="4.69383">
        <ele>273</ele>
        <time>2018-08-15T09:13:02.257Z</time>
      </trkpt>
      <trkpt lat="45.53855" lon="4.69383">
        <ele>273</ele>
        <time>2018-08-15T09:13:03.253Z</time>
      </trkpt>
      <trkpt lat="45.53839" lon="4.69392">
        <ele>273</ele>
        <time>2018-08-15T09:13:04.234Z</time>
      </trkpt>
      <trkpt lat="45.53839" lon="4.69392">
        <ele>273</ele>
        <time>2018-08-15T09:13:05.239Z</time>
      </trkpt>
      <trkpt lat="45.53824" lon="4.69401">
        <ele>273</ele>
        <time>2018-08-15T09:13:06.261Z</time>
      </trkpt>
      <trkpt lat="45.53824" lon="4.69401">
        <ele>273</ele>
        <time>2018-08-15T09:13:07.242Z</time>
      </trkpt>
      <trkpt lat="45.53809" lon="4.69415">
        <ele>273</ele>
        <time>2018-08-15T09:13:08.246Z</time>
      </trkpt>
      <trkpt lat="45.53809" lon="4.69415">
        <ele>273</ele>
        <time>2018-08-15T09:13:09.238Z</time>
      </trkpt>
      <trkpt lat="45.53798" lon="4.69428">
        <ele>274</ele>
        <time>2018-08-15T09:13:10.269Z</time>
      </trkpt>
      <trkpt lat="45.53798" lon="4.69428">
        <ele>274</ele>
        <time>2018-08-15T09:13:11.252Z</time>
      </trkpt>
      <trkpt lat="45.53789" lon="4.69442">
        <ele>273</ele>
        <time>2018-08-15T09:13:12.267Z</time>
      </trkpt>
      <trkpt lat="45.53789" lon="4.69442">
        <ele>273</ele>
        <time>2018-08-15T09:13:13.258Z</time>
      </trkpt>
      <trkpt lat="45.53786" lon="4.69457">
        <ele>273</ele>
        <time>2018-08-15T09:13:14.257Z</time>
      </trkpt>
      <trkpt lat="45.53786" lon="4.69457">
        <ele>273</ele>
        <time>2018-08-15T09:13:15.271Z</time>
      </trkpt>
      <trkpt lat="45.53786" lon="4.69471">
        <ele>273</ele>
        <time>2018-08-15T09:13:16.259Z</time>
      </trkpt>
      <trkpt lat="45.53786" lon="4.69471">
        <ele>273</ele>
        <time>2018-08-15T09:13:17.261Z</time>
      </trkpt>
      <trkpt lat="45.53785" lon="4.69482">
        <ele>273</ele>
        <time>2018-08-15T09:13:18.256Z</time>
      </trkpt>
      <trkpt lat="45.53785" lon="4.69482">
        <ele>273</ele>
        <time>2018-08-15T09:13:19.262Z</time>
      </trkpt>
      <trkpt lat="45.53782" lon="4.69491">
        <ele>273</ele>
        <time>2018-08-15T09:13:20.257Z</time>
      </trkpt>
      <trkpt lat="45.53782" lon="4.69491">
        <ele>273</ele>
        <time>2018-08-15T09:13:21.262Z</time>
      </trkpt>
      <trkpt lat="45.53779" lon="4.695">
        <ele>273</ele>
        <time>2018-08-15T09:13:22.265Z</time>
      </trkpt>
      <trkpt lat="45.53779" lon="4.695">
        <ele>273</ele>
        <time>2018-08-15T09:13:23.270Z</time>
      </trkpt>
      <trkpt lat="45.53778" lon="4.6951">
        <ele>274</ele>
        <time>2018-08-15T09:13:24.256Z</time>
      </trkpt>
      <trkpt lat="45.53778" lon="4.6951">
        <ele>274</ele>
        <time>2018-08-15T09:13:25.265Z</time>
      </trkpt>
      <trkpt lat="45.53775" lon="4.69516">
        <ele>275</ele>
        <time>2018-08-15T09:13:26.252Z</time>
      </trkpt>
      <trkpt lat="45.53775" lon="4.69516">
        <ele>275</ele>
        <time>2018-08-15T09:13:27.259Z</time>
      </trkpt>
      <trkpt lat="45.53774" lon="4.69524">
        <ele>275</ele>
        <time>2018-08-15T09:13:28.246Z</time>
      </trkpt>
      <trkpt lat="45.53774" lon="4.69524">
        <ele>275</ele>
        <time>2018-08-15T09:13:29.256Z</time>
      </trkpt>
      <trkpt lat="45.53773" lon="4.69533">
        <ele>276</ele>
        <time>2018-08-15T09:13:30.247Z</time>
      </trkpt>
      <trkpt lat="45.53773" lon="4.69533">
        <ele>276</ele>
        <time>2018-08-15T09:13:31.256Z</time>
      </trkpt>
      <trkpt lat="45.53769" lon="4.69538">
        <ele>277</ele>
        <time>2018-08-15T09:13:32.246Z</time>
      </trkpt>
      <trkpt lat="45.53769" lon="4.69538">
        <ele>277</ele>
        <time>2018-08-15T09:13:33.265Z</time>
      </trkpt>
      <trkpt lat="45.53764" lon="4.69543">
        <ele>278</ele>
        <time>2018-08-15T09:13:34.268Z</time>
      </trkpt>
      <trkpt lat="45.53764" lon="4.69543">
        <ele>278</ele>
        <time>2018-08-15T09:13:35.252Z</time>
      </trkpt>
      <trkpt lat="45.53762" lon="4.6955">
        <ele>279</ele>
        <time>2018-08-15T09:13:36.251Z</time>
      </trkpt>
      <trkpt lat="45.53762" lon="4.6955">
        <ele>279</ele>
        <time>2018-08-15T09:13:37.252Z</time>
      </trkpt>
      <trkpt lat="45.53761" lon="4.69555">
        <ele>280</ele>
        <time>2018-08-15T09:13:38.239Z</time>
      </trkpt>
      <trkpt lat="45.53761" lon="4.69555">
        <ele>280</ele>
        <time>2018-08-15T09:13:39.242Z</time>
      </trkpt>
      <trkpt lat="45.53759" lon="4.69562">
        <ele>281</ele>
        <time>2018-08-15T09:13:40.234Z</time>
      </trkpt>
      <trkpt lat="45.53759" lon="4.69562">
        <ele>281</ele>
        <time>2018-08-15T09:13:41.239Z</time>
      </trkpt>
      <trkpt lat="45.5376" lon="4.69569">
        <ele>282</ele>
        <time>2018-08-15T09:13:42.268Z</time>
      </trkpt>
      <trkpt lat="45.5376" lon="4.69569">
        <ele>282</ele>
        <time>2018-08-15T09:13:43.245Z</time>
      </trkpt>
      <trkpt lat="45.53762" lon="4.69574">
        <ele>283</ele>
        <time>2018-08-15T09:13:44.269Z</time>
      </trkpt>
      <trkpt lat="45.53762" lon="4.69574">
        <ele>283</ele>
        <time>2018-08-15T09:13:45.237Z</time>
      </trkpt>
      <trkpt lat="45.53763" lon="4.69577">
        <ele>284</ele>
        <time>2018-08-15T09:13:46.275Z</time>
      </trkpt>
      <trkpt lat="45.53763" lon="4.69577">
        <ele>284</ele>
        <time>2018-08-15T09:13:47.252Z</time>
      </trkpt>
      <trkpt lat="45.53766" lon="4.69581">
        <ele>285</ele>
        <time>2018-08-15T09:13:48.262Z</time>
      </trkpt>
      <trkpt lat="45.53766" lon="4.69581">
        <ele>285</ele>
        <time>2018-08-15T09:13:49.250Z</time>
      </trkpt>
      <trkpt lat="45.53769" lon="4.69584">
        <ele>285</ele>
        <time>2018-08-15T09:13:50.246Z</time>
      </trkpt>
      <trkpt lat="45.53769" lon="4.69584">
        <ele>285</ele>
        <time>2018-08-15T09:13:51.257Z</time>
      </trkpt>
      <trkpt lat="45.53773" lon="4.69585">
        <ele>286</ele>
        <time>2018-08-15T09:13:52.246Z</time>
      </trkpt>
      <trkpt lat="45.53773" lon="4.69585">
        <ele>286</ele>
        <time>2018-08-15T09:13:53.256Z</time>
      </trkpt>
      <trkpt lat="45.53778" lon="4.69584">
        <ele>286</ele>
        <time>2018-08-15T09:13:54.244Z</time>
      </trkpt>
      <trkpt lat="45.53779" lon="4.69583">
        <ele>287</ele>
        <time>2018-08-15T09:13:55.255Z</time>
      </trkpt>
      <trkpt lat="45.53781" lon="4.69583">
        <ele>287</ele>
        <time>2018-08-15T09:13:56.261Z</time>
      </trkpt>
      <trkpt lat="45.53781" lon="4.69583">
        <ele>287</ele>
        <time>2018-08-15T09:13:57.271Z</time>
      </trkpt>
      <trkpt lat="45.53783" lon="4.69582">
        <ele>287</ele>
        <time>2018-08-15T09:13:58.260Z</time>
      </trkpt>
      <trkpt lat="45.53783" lon="4.69582">
        <ele>287</ele>
        <time>2018-08-15T09:13:59.253Z</time>
      </trkpt>
      <trkpt lat="45.53785" lon="4.69578">
        <ele>288</ele>
        <time>2018-08-15T09:14:00.261Z</time>
      </trkpt>
      <trkpt lat="45.53785" lon="4.69578">
        <ele>288</ele>
        <time>2018-08-15T09:14:01.256Z</time>
      </trkpt>
      <trkpt lat="45.53788" lon="4.69574">
        <ele>288</ele>
        <time>2018-08-15T09:14:02.250Z</time>
      </trkpt>
      <trkpt lat="45.53788" lon="4.69574">
        <ele>288</ele>
        <time>2018-08-15T09:14:03.259Z</time>
      </trkpt>
      <trkpt lat="45.5379" lon="4.69569">
        <ele>288</ele>
        <time>2018-08-15T09:14:04.246Z</time>
      </trkpt>
      <trkpt lat="45.53791" lon="4.69567">
        <ele>288</ele>
        <time>2018-08-15T09:14:05.275Z</time>
      </trkpt>
      <trkpt lat="45.53791" lon="4.69567">
        <ele>288</ele>
        <time>2018-08-15T09:14:06.266Z</time>
      </trkpt>
      <trkpt lat="45.53792" lon="4.69562">
        <ele>289</ele>
        <time>2018-08-15T09:14:07.266Z</time>
      </trkpt>
      <trkpt lat="45.53792" lon="4.69562">
        <ele>289</ele>
        <time>2018-08-15T09:14:08.232Z</time>
      </trkpt>
      <trkpt lat="45.53792" lon="4.69559">
        <ele>289</ele>
        <time>2018-08-15T09:14:09.261Z</time>
      </trkpt>
      <trkpt lat="45.53792" lon="4.69559">
        <ele>289</ele>
        <time>2018-08-15T09:14:10.266Z</time>
      </trkpt>
      <trkpt lat="45.5379" lon="4.69556">
        <ele>289</ele>
        <time>2018-08-15T09:14:11.236Z</time>
      </trkpt>
      <trkpt lat="45.5379" lon="4.69556">
        <ele>289</ele>
        <time>2018-08-15T09:14:12.244Z</time>
      </trkpt>
      <trkpt lat="45.5379" lon="4.69552">
        <ele>289</ele>
        <time>2018-08-15T09:14:13.244Z</time>
      </trkpt>
      <trkpt lat="45.5379" lon="4.6955">
        <ele>289</ele>
        <time>2018-08-15T09:14:14.256Z</time>
      </trkpt>
      <trkpt lat="45.5379" lon="4.6955">
        <ele>289</ele>
        <time>2018-08-15T09:14:15.262Z</time>
      </trkpt>
      <trkpt lat="45.53792" lon="4.69546">
        <ele>290</ele>
        <time>2018-08-15T09:14:16.268Z</time>
      </trkpt>
      <trkpt lat="45.53792" lon="4.69546">
        <ele>290</ele>
        <time>2018-08-15T09:14:17.269Z</time>
      </trkpt>
      <trkpt lat="45.53797" lon="4.69543">
        <ele>289</ele>
        <time>2018-08-15T09:14:18.269Z</time>
      </trkpt>
      <trkpt lat="45.53797" lon="4.69543">
        <ele>289</ele>
        <time>2018-08-15T09:14:19.234Z</time>
      </trkpt>
      <trkpt lat="45.53802" lon="4.69537">
        <ele>288</ele>
        <time>2018-08-15T09:14:20.262Z</time>
      </trkpt>
      <trkpt lat="45.53802" lon="4.69537">
        <ele>288</ele>
        <time>2018-08-15T09:14:21.241Z</time>
      </trkpt>
      <trkpt lat="45.53807" lon="4.69533">
        <ele>288</ele>
        <time>2018-08-15T09:14:22.241Z</time>
      </trkpt>
      <trkpt lat="45.53807" lon="4.69533">
        <ele>288</ele>
        <time>2018-08-15T09:14:23.254Z</time>
      </trkpt>
      <trkpt lat="45.53811" lon="4.69528">
        <ele>288</ele>
        <time>2018-08-15T09:14:24.244Z</time>
      </trkpt>
      <trkpt lat="45.53811" lon="4.69528">
        <ele>288</ele>
        <time>2018-08-15T09:14:25.254Z</time>
      </trkpt>
      <trkpt lat="45.53815" lon="4.69525">
        <ele>287</ele>
        <time>2018-08-15T09:14:26.243Z</time>
      </trkpt>
      <trkpt lat="45.53815" lon="4.69525">
        <ele>287</ele>
        <time>2018-08-15T09:14:27.267Z</time>
      </trkpt>
      <trkpt lat="45.5382" lon="4.69523">
        <ele>287</ele>
        <time>2018-08-15T09:14:28.265Z</time>
      </trkpt>
      <trkpt lat="45.5382" lon="4.69523">
        <ele>287</ele>
        <time>2018-08-15T09:14:29.248Z</time>
      </trkpt>
      <trkpt lat="45.53825" lon="4.69523">
        <ele>287</ele>
        <time>2018-08-15T09:14:30.239Z</time>
      </trkpt>
      <trkpt lat="45.53825" lon="4.69523">
        <ele>287</ele>
        <time>2018-08-15T09:14:31.244Z</time>
      </trkpt>
      <trkpt lat="45.53829" lon="4.69525">
        <ele>286</ele>
        <time>2018-08-15T09:14:32.258Z</time>
      </trkpt>
      <trkpt lat="45.53829" lon="4.69525">
        <ele>286</ele>
        <time>2018-08-15T09:14:33.264Z</time>
      </trkpt>
      <trkpt lat="45.53833" lon="4.69527">
        <ele>286</ele>
        <time>2018-08-15T09:14:34.266Z</time>
      </trkpt>
      <trkpt lat="45.53833" lon="4.69527">
        <ele>286</ele>
        <time>2018-08-15T09:14:35.234Z</time>
      </trkpt>
      <trkpt lat="45.53836" lon="4.6953">
        <ele>287</ele>
        <time>2018-08-15T09:14:36.276Z</time>
      </trkpt>
      <trkpt lat="45.53837" lon="4.69532">
        <ele>287</ele>
        <time>2018-08-15T09:14:37.244Z</time>
      </trkpt>
      <trkpt lat="45.53837" lon="4.69532">
        <ele>287</ele>
        <time>2018-08-15T09:14:38.249Z</time>
      </trkpt>
      <trkpt lat="45.5384" lon="4.69536">
        <ele>287</ele>
        <time>2018-08-15T09:14:39.240Z</time>
      </trkpt>
      <trkpt lat="45.5384" lon="4.69536">
        <ele>287</ele>
        <time>2018-08-15T09:14:40.250Z</time>
      </trkpt>
      <trkpt lat="45.53843" lon="4.69539">
        <ele>288</ele>
        <time>2018-08-15T09:14:41.236Z</time>
      </trkpt>
      <trkpt lat="45.53843" lon="4.69539">
        <ele>288</ele>
        <time>2018-08-15T09:14:42.244Z</time>
      </trkpt>
      <trkpt lat="45.53846" lon="4.69541">
        <ele>288</ele>
        <time>2018-08-15T09:14:43.236Z</time>
      </trkpt>
      <trkpt lat="45.53848" lon="4.69542">
        <ele>288</ele>
        <time>2018-08-15T09:14:44.246Z</time>
      </trkpt>
      <trkpt lat="45.53848" lon="4.69542">
        <ele>288</ele>
        <time>2018-08-15T09:14:45.264Z</time>
      </trkpt>
      <trkpt lat="45.53851" lon="4.69543">
        <ele>288</ele>
        <time>2018-08-15T09:14:46.246Z</time>
      </trkpt>
      <trkpt lat="45.53851" lon="4.69543">
        <ele>288</ele>
        <time>2018-08-15T09:14:47.253Z</time>
      </trkpt>
      <trkpt lat="45.53856" lon="4.69546">
        <ele>289</ele>
        <time>2018-08-15T09:14:48.250Z</time>
      </trkpt>
      <trkpt lat="45.53856" lon="4.69546">
        <ele>289</ele>
        <time>2018-08-15T09:14:49.260Z</time>
      </trkpt>
      <trkpt lat="45.5386" lon="4.69547">
        <ele>289</ele>
        <time>2018-08-15T09:14:50.249Z</time>
      </trkpt>
      <trkpt lat="45.5386" lon="4.69547">
        <ele>289</ele>
        <time>2018-08-15T09:14:51.239Z</time>
      </trkpt>
      <trkpt lat="45.53864" lon="4.69548">
        <ele>289</ele>
        <time>2018-08-15T09:14:52.239Z</time>
      </trkpt>
      <trkpt lat="45.53864" lon="4.69548">
        <ele>289</ele>
        <time>2018-08-15T09:14:53.264Z</time>
      </trkpt>
      <trkpt lat="45.53867" lon="4.69548">
        <ele>289</ele>
        <time>2018-08-15T09:14:54.262Z</time>
      </trkpt>
      <trkpt lat="45.53867" lon="4.69548">
        <ele>289</ele>
        <time>2018-08-15T09:14:55.267Z</time>
      </trkpt>
      <trkpt lat="45.53871" lon="4.69547">
        <ele>290</ele>
        <time>2018-08-15T09:14:56.270Z</time>
      </trkpt>
      <trkpt lat="45.53871" lon="4.69547">
        <ele>290</ele>
        <time>2018-08-15T09:14:57.235Z</time>
      </trkpt>
      <trkpt lat="45.53876" lon="4.69547">
        <ele>290</ele>
        <time>2018-08-15T09:14:58.262Z</time>
      </trkpt>
      <trkpt lat="45.53876" lon="4.69547">
        <ele>290</ele>
        <time>2018-08-15T09:14:59.262Z</time>
      </trkpt>
      <trkpt lat="45.5388" lon="4.69545">
        <ele>290</ele>
        <time>2018-08-15T09:15:00.261Z</time>
      </trkpt>
      <trkpt lat="45.5388" lon="4.69545">
        <ele>290</ele>
        <time>2018-08-15T09:15:01.237Z</time>
      </trkpt>
      <trkpt lat="45.53884" lon="4.69543">
        <ele>290</ele>
        <time>2018-08-15T09:15:02.256Z</time>
      </trkpt>
      <trkpt lat="45.53884" lon="4.69543">
        <ele>290</ele>
        <time>2018-08-15T09:15:03.246Z</time>
      </trkpt>
      <trkpt lat="45.53888" lon="4.69542">
        <ele>290</ele>
        <time>2018-08-15T09:15:04.273Z</time>
      </trkpt>
      <trkpt lat="45.53888" lon="4.69542">
        <ele>290</ele>
        <time>2018-08-15T09:15:05.248Z</time>
      </trkpt>
      <trkpt lat="45.53892" lon="4.69539">
        <ele>290</ele>
        <time>2018-08-15T09:15:06.233Z</time>
      </trkpt>
      <trkpt lat="45.53892" lon="4.69539">
        <ele>290</ele>
        <time>2018-08-15T09:15:07.260Z</time>
      </trkpt>
      <trkpt lat="45.53895" lon="4.69536">
        <ele>290</ele>
        <time>2018-08-15T09:15:08.266Z</time>
      </trkpt>
      <trkpt lat="45.53895" lon="4.69536">
        <ele>290</ele>
        <time>2018-08-15T09:15:09.239Z</time>
      </trkpt>
      <trkpt lat="45.53899" lon="4.69534">
        <ele>290</ele>
        <time>2018-08-15T09:15:10.275Z</time>
      </trkpt>
      <trkpt lat="45.53899" lon="4.69534">
        <ele>290</ele>
        <time>2018-08-15T09:15:11.232Z</time>
      </trkpt>
      <trkpt lat="45.53903" lon="4.69533">
        <ele>290</ele>
        <time>2018-08-15T09:15:12.263Z</time>
      </trkpt>
      <trkpt lat="45.53903" lon="4.69533">
        <ele>290</ele>
        <time>2018-08-15T09:15:13.268Z</time>
      </trkpt>
      <trkpt lat="45.53905" lon="4.69529">
        <ele>291</ele>
        <time>2018-08-15T09:15:14.266Z</time>
      </trkpt>
      <trkpt lat="45.53905" lon="4.69529">
        <ele>291</ele>
        <time>2018-08-15T09:15:15.262Z</time>
      </trkpt>
      <trkpt lat="45.53908" lon="4.69526">
        <ele>291</ele>
        <time>2018-08-15T09:15:16.256Z</time>
      </trkpt>
      <trkpt lat="45.53908" lon="4.69526">
        <ele>291</ele>
        <time>2018-08-15T09:15:17.245Z</time>
      </trkpt>
      <trkpt lat="45.53911" lon="4.69522">
        <ele>292</ele>
        <time>2018-08-15T09:15:18.242Z</time>
      </trkpt>
      <trkpt lat="45.53911" lon="4.69522">
        <ele>292</ele>
        <time>2018-08-15T09:15:19.257Z</time>
      </trkpt>
      <trkpt lat="45.53913" lon="4.69519">
        <ele>292</ele>
        <time>2018-08-15T09:15:20.249Z</time>
      </trkpt>
      <trkpt lat="45.53913" lon="4.69519">
        <ele>292</ele>
        <time>2018-08-15T09:15:21.241Z</time>
      </trkpt>
      <trkpt lat="45.53916" lon="4.69515">
        <ele>293</ele>
        <time>2018-08-15T09:15:22.243Z</time>
      </trkpt>
      <trkpt lat="45.53916" lon="4.69515">
        <ele>293</ele>
        <time>2018-08-15T09:15:23.259Z</time>
      </trkpt>
      <trkpt lat="45.53919" lon="4.69511">
        <ele>293</ele>
        <time>2018-08-15T09:15:24.266Z</time>
      </trkpt>
      <trkpt lat="45.53919" lon="4.69511">
        <ele>293</ele>
        <time>2018-08-15T09:15:25.239Z</time>
      </trkpt>
      <trkpt lat="45.53921" lon="4.69506">
        <ele>294</ele>
        <time>2018-08-15T09:15:26.244Z</time>
      </trkpt>
      <trkpt lat="45.53923" lon="4.69505">
        <ele>294</ele>
        <time>2018-08-15T09:15:27.239Z</time>
      </trkpt>
      <trkpt lat="45.53923" lon="4.69505">
        <ele>294</ele>
        <time>2018-08-15T09:15:28.251Z</time>
      </trkpt>
      <trkpt lat="45.53925" lon="4.69501">
        <ele>294</ele>
        <time>2018-08-15T09:15:29.241Z</time>
      </trkpt>
      <trkpt lat="45.53926" lon="4.69499">
        <ele>294</ele>
        <time>2018-08-15T09:15:30.239Z</time>
      </trkpt>
      <trkpt lat="45.53926" lon="4.69499">
        <ele>294</ele>
        <time>2018-08-15T09:15:31.247Z</time>
      </trkpt>
      <trkpt lat="45.53929" lon="4.69495">
        <ele>295</ele>
        <time>2018-08-15T09:15:32.239Z</time>
      </trkpt>
      <trkpt lat="45.53929" lon="4.69495">
        <ele>295</ele>
        <time>2018-08-15T09:15:33.269Z</time>
      </trkpt>
      <trkpt lat="45.53933" lon="4.6949">
        <ele>295</ele>
        <time>2018-08-15T09:15:34.254Z</time>
      </trkpt>
      <trkpt lat="45.53933" lon="4.6949">
        <ele>295</ele>
        <time>2018-08-15T09:15:35.260Z</time>
      </trkpt>
      <trkpt lat="45.53936" lon="4.69485">
        <ele>296</ele>
        <time>2018-08-15T09:15:36.269Z</time>
      </trkpt>
      <trkpt lat="45.53936" lon="4.69485">
        <ele>296</ele>
        <time>2018-08-15T09:15:37.247Z</time>
      </trkpt>
      <trkpt lat="45.53939" lon="4.69482">
        <ele>296</ele>
        <time>2018-08-15T09:15:38.239Z</time>
      </trkpt>
      <trkpt lat="45.53939" lon="4.69482">
        <ele>296</ele>
        <time>2018-08-15T09:15:39.247Z</time>
      </trkpt>
      <trkpt lat="45.53943" lon="4.69478">
        <ele>296</ele>
        <time>2018-08-15T09:15:40.256Z</time>
      </trkpt>
      <trkpt lat="45.53943" lon="4.69478">
        <ele>296</ele>
        <time>2018-08-15T09:15:41.233Z</time>
      </trkpt>
      <trkpt lat="45.53948" lon="4.69473">
        <ele>296</ele>
        <time>2018-08-15T09:15:42.269Z</time>
      </trkpt>
      <trkpt lat="45.53948" lon="4.69473">
        <ele>296</ele>
        <time>2018-08-15T09:15:43.237Z</time>
      </trkpt>
      <trkpt lat="45.53952" lon="4.69468">
        <ele>296</ele>
        <time>2018-08-15T09:15:44.246Z</time>
      </trkpt>
      <trkpt lat="45.53952" lon="4.69468">
        <ele>296</ele>
        <time>2018-08-15T09:15:45.252Z</time>
      </trkpt>
      <trkpt lat="45.53956" lon="4.69465">
        <ele>296</ele>
        <time>2018-08-15T09:15:46.245Z</time>
      </trkpt>
      <trkpt lat="45.53956" lon="4.69465">
        <ele>296</ele>
        <time>2018-08-15T09:15:47.263Z</time>
      </trkpt>
      <trkpt lat="45.5396" lon="4.69463">
        <ele>296</ele>
        <time>2018-08-15T09:15:48.251Z</time>
      </trkpt>
      <trkpt lat="45.5396" lon="4.69463">
        <ele>296</ele>
        <time>2018-08-15T09:15:49.266Z</time>
      </trkpt>
      <trkpt lat="45.53964" lon="4.69461">
        <ele>296</ele>
        <time>2018-08-15T09:15:50.252Z</time>
      </trkpt>
      <trkpt lat="45.53964" lon="4.69461">
        <ele>296</ele>
        <time>2018-08-15T09:15:51.268Z</time>
      </trkpt>
      <trkpt lat="45.53968" lon="4.69458">
        <ele>296</ele>
        <time>2018-08-15T09:15:52.263Z</time>
      </trkpt>
      <trkpt lat="45.53968" lon="4.69458">
        <ele>296</ele>
        <time>2018-08-15T09:15:53.248Z</time>
      </trkpt>
      <trkpt lat="45.53972" lon="4.69456">
        <ele>296</ele>
        <time>2018-08-15T09:15:54.251Z</time>
      </trkpt>
      <trkpt lat="45.53972" lon="4.69456">
        <ele>296</ele>
        <time>2018-08-15T09:15:55.263Z</time>
      </trkpt>
      <trkpt lat="45.53977" lon="4.69454">
        <ele>295</ele>
        <time>2018-08-15T09:15:56.261Z</time>
      </trkpt>
      <trkpt lat="45.53977" lon="4.69454">
        <ele>295</ele>
        <time>2018-08-15T09:15:57.232Z</time>
      </trkpt>
      <trkpt lat="45.53981" lon="4.69454">
        <ele>295</ele>
        <time>2018-08-15T09:15:58.244Z</time>
      </trkpt>
      <trkpt lat="45.53981" lon="4.69454">
        <ele>295</ele>
        <time>2018-08-15T09:15:59.266Z</time>
      </trkpt>
      <trkpt lat="45.53985" lon="4.69454">
        <ele>295</ele>
        <time>2018-08-15T09:16:00.238Z</time>
      </trkpt>
      <trkpt lat="45.53985" lon="4.69454">
        <ele>295</ele>
        <time>2018-08-15T09:16:01.237Z</time>
      </trkpt>
      <trkpt lat="45.5399" lon="4.69454">
        <ele>295</ele>
        <time>2018-08-15T09:16:02.272Z</time>
      </trkpt>
      <trkpt lat="45.5399" lon="4.69454">
        <ele>295</ele>
        <time>2018-08-15T09:16:03.238Z</time>
      </trkpt>
      <trkpt lat="45.53994" lon="4.69455">
        <ele>296</ele>
        <time>2018-08-15T09:16:04.249Z</time>
      </trkpt>
      <trkpt lat="45.53994" lon="4.69455">
        <ele>296</ele>
        <time>2018-08-15T09:16:05.255Z</time>
      </trkpt>
      <trkpt lat="45.53998" lon="4.69456">
        <ele>296</ele>
        <time>2018-08-15T09:16:06.256Z</time>
      </trkpt>
      <trkpt lat="45.53998" lon="4.69456">
        <ele>296</ele>
        <time>2018-08-15T09:16:07.261Z</time>
      </trkpt>
      <trkpt lat="45.54002" lon="4.69458">
        <ele>297</ele>
        <time>2018-08-15T09:16:08.249Z</time>
      </trkpt>
      <trkpt lat="45.54002" lon="4.69458">
        <ele>297</ele>
        <time>2018-08-15T09:16:09.241Z</time>
      </trkpt>
      <trkpt lat="45.54006" lon="4.6946">
        <ele>297</ele>
        <time>2018-08-15T09:16:10.234Z</time>
      </trkpt>
      <trkpt lat="45.54006" lon="4.6946">
        <ele>297</ele>
        <time>2018-08-15T09:16:11.250Z</time>
      </trkpt>
      <trkpt lat="45.54009" lon="4.69463">
        <ele>297</ele>
        <time>2018-08-15T09:16:12.257Z</time>
      </trkpt>
      <trkpt lat="45.54009" lon="4.69463">
        <ele>297</ele>
        <time>2018-08-15T09:16:13.262Z</time>
      </trkpt>
      <trkpt lat="45.54014" lon="4.69468">
        <ele>296</ele>
        <time>2018-08-15T09:16:14.255Z</time>
      </trkpt>
      <trkpt lat="45.54014" lon="4.69468">
        <ele>296</ele>
        <time>2018-08-15T09:16:15.238Z</time>
      </trkpt>
      <trkpt lat="45.54017" lon="4.69471">
        <ele>297</ele>
        <time>2018-08-15T09:16:16.270Z</time>
      </trkpt>
      <trkpt lat="45.54017" lon="4.69471">
        <ele>297</ele>
        <time>2018-08-15T09:16:17.251Z</time>
      </trkpt>
      <trkpt lat="45.5402" lon="4.69476">
        <ele>297</ele>
        <time>2018-08-15T09:16:18.253Z</time>
      </trkpt>
      <trkpt lat="45.5402" lon="4.69476">
        <ele>297</ele>
        <time>2018-08-15T09:16:19.237Z</time>
      </trkpt>
      <trkpt lat="45.54023" lon="4.6948">
        <ele>297</ele>
        <time>2018-08-15T09:16:20.234Z</time>
      </trkpt>
      <trkpt lat="45.54023" lon="4.6948">
        <ele>297</ele>
        <time>2018-08-15T09:16:21.247Z</time>
      </trkpt>
      <trkpt lat="45.54026" lon="4.69485">
        <ele>297</ele>
        <time>2018-08-15T09:16:22.236Z</time>
      </trkpt>
      <trkpt lat="45.54026" lon="4.69485">
        <ele>297</ele>
        <time>2018-08-15T09:16:23.247Z</time>
      </trkpt>
      <trkpt lat="45.54029" lon="4.69489">
        <ele>297</ele>
        <time>2018-08-15T09:16:24.253Z</time>
      </trkpt>
      <trkpt lat="45.54029" lon="4.69489">
        <ele>297</ele>
        <time>2018-08-15T09:16:25.262Z</time>
      </trkpt>
      <trkpt lat="45.54032" lon="4.69493">
        <ele>297</ele>
        <time>2018-08-15T09:16:26.245Z</time>
      </trkpt>
      <trkpt lat="45.54032" lon="4.69493">
        <ele>297</ele>
        <time>2018-08-15T09:16:27.255Z</time>
      </trkpt>
      <trkpt lat="45.54036" lon="4.69496">
        <ele>297</ele>
        <time>2018-08-15T09:16:28.258Z</time>
      </trkpt>
      <trkpt lat="45.54036" lon="4.69496">
        <ele>297</ele>
        <time>2018-08-15T09:16:29.253Z</time>
      </trkpt>
      <trkpt lat="45.5404" lon="4.69499">
        <ele>297</ele>
        <time>2018-08-15T09:16:30.242Z</time>
      </trkpt>
      <trkpt lat="45.5404" lon="4.69499">
        <ele>297</ele>
        <time>2018-08-15T09:16:31.248Z</time>
      </trkpt>
      <trkpt lat="45.54044" lon="4.69502">
        <ele>297</ele>
        <time>2018-08-15T09:16:32.241Z</time>
      </trkpt>
      <trkpt lat="45.54044" lon="4.69502">
        <ele>297</ele>
        <time>2018-08-15T09:16:33.270Z</time>
      </trkpt>
      <trkpt lat="45.54047" lon="4.69503">
        <ele>297</ele>
        <time>2018-08-15T09:16:34.233Z</time>
      </trkpt>
      <trkpt lat="45.54047" lon="4.69503">
        <ele>297</ele>
        <time>2018-08-15T09:16:35.253Z</time>
      </trkpt>
      <trkpt lat="45.54051" lon="4.69503">
        <ele>297</ele>
        <time>2018-08-15T09:16:36.246Z</time>
      </trkpt>
      <trkpt lat="45.54051" lon="4.69503">
        <ele>297</ele>
        <time>2018-08-15T09:16:37.262Z</time>
      </trkpt>
      <trkpt lat="45.54055" lon="4.69502">
        <ele>297</ele>
        <time>2018-08-15T09:16:38.266Z</time>
      </trkpt>
      <trkpt lat="45.54055" lon="4.69502">
        <ele>297</ele>
        <time>2018-08-15T09:16:39.267Z</time>
      </trkpt>
      <trkpt lat="45.54059" lon="4.69502">
        <ele>297</ele>
        <time>2018-08-15T09:16:40.263Z</time>
      </trkpt>
      <trkpt lat="45.54059" lon="4.69502">
        <ele>297</ele>
        <time>2018-08-15T09:16:41.239Z</time>
      </trkpt>
      <trkpt lat="45.54063" lon="4.69503">
        <ele>297</ele>
        <time>2018-08-15T09:16:42.271Z</time>
      </trkpt>
      <trkpt lat="45.54063" lon="4.69503">
        <ele>297</ele>
        <time>2018-08-15T09:16:43.268Z</time>
      </trkpt>
      <trkpt lat="45.54068" lon="4.69503">
        <ele>297</ele>
        <time>2018-08-15T09:16:44.247Z</time>
      </trkpt>
      <trkpt lat="45.54068" lon="4.69503">
        <ele>297</ele>
        <time>2018-08-15T09:16:45.254Z</time>
      </trkpt>
      <trkpt lat="45.54072" lon="4.69501">
        <ele>297</ele>
        <time>2018-08-15T09:16:46.242Z</time>
      </trkpt>
      <trkpt lat="45.54072" lon="4.69501">
        <ele>297</ele>
        <time>2018-08-15T09:16:47.248Z</time>
      </trkpt>
      <trkpt lat="45.54076" lon="4.69499">
        <ele>297</ele>
        <time>2018-08-15T09:16:48.241Z</time>
      </trkpt>
      <trkpt lat="45.54076" lon="4.69499">
        <ele>297</ele>
        <time>2018-08-15T09:16:49.262Z</time>
      </trkpt>
      <trkpt lat="45.54081" lon="4.69497">
        <ele>297</ele>
        <time>2018-08-15T09:16:50.252Z</time>
      </trkpt>
      <trkpt lat="45.54081" lon="4.69497">
        <ele>297</ele>
        <time>2018-08-15T09:16:51.254Z</time>
      </trkpt>
      <trkpt lat="45.54084" lon="4.69496">
        <ele>297</ele>
        <time>2018-08-15T09:16:52.252Z</time>
      </trkpt>
      <trkpt lat="45.54086" lon="4.69495">
        <ele>296</ele>
        <time>2018-08-15T09:16:53.243Z</time>
      </trkpt>
      <trkpt lat="45.54086" lon="4.69495">
        <ele>296</ele>
        <time>2018-08-15T09:16:54.239Z</time>
      </trkpt>
      <trkpt lat="45.5409" lon="4.69493">
        <ele>296</ele>
        <time>2018-08-15T09:16:55.246Z</time>
      </trkpt>
      <trkpt lat="45.54092" lon="4.69493">
        <ele>296</ele>
        <time>2018-08-15T09:16:56.265Z</time>
      </trkpt>
      <trkpt lat="45.54092" lon="4.69493">
        <ele>296</ele>
        <time>2018-08-15T09:16:57.235Z</time>
      </trkpt>
      <trkpt lat="45.54097" lon="4.69491">
        <ele>297</ele>
        <time>2018-08-15T09:16:58.266Z</time>
      </trkpt>
      <trkpt lat="45.54097" lon="4.69491">
        <ele>297</ele>
        <time>2018-08-15T09:16:59.240Z</time>
      </trkpt>
      <trkpt lat="45.54101" lon="4.69489">
        <ele>297</ele>
        <time>2018-08-15T09:17:00.243Z</time>
      </trkpt>
      <trkpt lat="45.54101" lon="4.69489">
        <ele>297</ele>
        <time>2018-08-15T09:17:01.239Z</time>
      </trkpt>
      <trkpt lat="45.54104" lon="4.69486">
        <ele>297</ele>
        <time>2018-08-15T09:17:02.232Z</time>
      </trkpt>
      <trkpt lat="45.54104" lon="4.69486">
        <ele>297</ele>
        <time>2018-08-15T09:17:03.269Z</time>
      </trkpt>
      <trkpt lat="45.54107" lon="4.69484">
        <ele>297</ele>
        <time>2018-08-15T09:17:04.252Z</time>
      </trkpt>
      <trkpt lat="45.54107" lon="4.69484">
        <ele>297</ele>
        <time>2018-08-15T09:17:05.252Z</time>
      </trkpt>
      <trkpt lat="45.54111" lon="4.69482">
        <ele>297</ele>
        <time>2018-08-15T09:17:06.240Z</time>
      </trkpt>
      <trkpt lat="45.54111" lon="4.69482">
        <ele>297</ele>
        <time>2018-08-15T09:17:07.250Z</time>
      </trkpt>
      <trkpt lat="45.54115" lon="4.69478">
        <ele>297</ele>
        <time>2018-08-15T09:17:08.232Z</time>
      </trkpt>
      <trkpt lat="45.54115" lon="4.69478">
        <ele>297</ele>
        <time>2018-08-15T09:17:09.240Z</time>
      </trkpt>
      <trkpt lat="45.5412" lon="4.69474">
        <ele>297</ele>
        <time>2018-08-15T09:17:10.238Z</time>
      </trkpt>
      <trkpt lat="45.5412" lon="4.69474">
        <ele>297</ele>
        <time>2018-08-15T09:17:11.251Z</time>
      </trkpt>
      <trkpt lat="45.54124" lon="4.69471">
        <ele>298</ele>
        <time>2018-08-15T09:17:12.243Z</time>
      </trkpt>
      <trkpt lat="45.54124" lon="4.69471">
        <ele>298</ele>
        <time>2018-08-15T09:17:13.259Z</time>
      </trkpt>
      <trkpt lat="45.54128" lon="4.69468">
        <ele>298</ele>
        <time>2018-08-15T09:17:14.265Z</time>
      </trkpt>
      <trkpt lat="45.54128" lon="4.69468">
        <ele>298</ele>
        <time>2018-08-15T09:17:15.261Z</time>
      </trkpt>
      <trkpt lat="45.54132" lon="4.69465">
        <ele>298</ele>
        <time>2018-08-15T09:17:16.232Z</time>
      </trkpt>
      <trkpt lat="45.54132" lon="4.69465">
        <ele>298</ele>
        <time>2018-08-15T09:17:17.244Z</time>
      </trkpt>
      <trkpt lat="45.54137" lon="4.69461">
        <ele>299</ele>
        <time>2018-08-15T09:17:18.236Z</time>
      </trkpt>
      <trkpt lat="45.54137" lon="4.69461">
        <ele>299</ele>
        <time>2018-08-15T09:17:19.255Z</time>
      </trkpt>
      <trkpt lat="45.5414" lon="4.69458">
        <ele>299</ele>
        <time>2018-08-15T09:17:20.264Z</time>
      </trkpt>
      <trkpt lat="45.5414" lon="4.69458">
        <ele>299</ele>
        <time>2018-08-15T09:17:21.269Z</time>
      </trkpt>
      <trkpt lat="45.54144" lon="4.69459">
        <ele>299</ele>
        <time>2018-08-15T09:17:22.255Z</time>
      </trkpt>
      <trkpt lat="45.54144" lon="4.69459">
        <ele>299</ele>
        <time>2018-08-15T09:17:23.250Z</time>
      </trkpt>
      <trkpt lat="45.54149" lon="4.69458">
        <ele>300</ele>
        <time>2018-08-15T09:17:24.237Z</time>
      </trkpt>
      <trkpt lat="45.54149" lon="4.69458">
        <ele>300</ele>
        <time>2018-08-15T09:17:25.242Z</time>
      </trkpt>
      <trkpt lat="45.54154" lon="4.69458">
        <ele>300</ele>
        <time>2018-08-15T09:17:26.236Z</time>
      </trkpt>
      <trkpt lat="45.54154" lon="4.69458">
        <ele>300</ele>
        <time>2018-08-15T09:17:27.270Z</time>
      </trkpt>
      <trkpt lat="45.54158" lon="4.69458">
        <ele>301</ele>
        <time>2018-08-15T09:17:28.235Z</time>
      </trkpt>
      <trkpt lat="45.54158" lon="4.69458">
        <ele>301</ele>
        <time>2018-08-15T09:17:29.246Z</time>
      </trkpt>
      <trkpt lat="45.54161" lon="4.69459">
        <ele>301</ele>
        <time>2018-08-15T09:17:30.240Z</time>
      </trkpt>
      <trkpt lat="45.54163" lon="4.6946">
        <ele>302</ele>
        <time>2018-08-15T09:17:31.245Z</time>
      </trkpt>
      <trkpt lat="45.54165" lon="4.69461">
        <ele>302</ele>
        <time>2018-08-15T09:17:32.251Z</time>
      </trkpt>
      <trkpt lat="45.54165" lon="4.69461">
        <ele>302</ele>
        <time>2018-08-15T09:17:33.239Z</time>
      </trkpt>
      <trkpt lat="45.54168" lon="4.69462">
        <ele>303</ele>
        <time>2018-08-15T09:17:34.270Z</time>
      </trkpt>
      <trkpt lat="45.54168" lon="4.69462">
        <ele>303</ele>
        <time>2018-08-15T09:17:35.270Z</time>
      </trkpt>
      <trkpt lat="45.54171" lon="4.69464">
        <ele>305</ele>
        <time>2018-08-15T09:17:36.259Z</time>
      </trkpt>
      <trkpt lat="45.54171" lon="4.69464">
        <ele>305</ele>
        <time>2018-08-15T09:17:37.262Z</time>
      </trkpt>
      <trkpt lat="45.54174" lon="4.69467">
        <ele>306</ele>
        <time>2018-08-15T09:17:38.249Z</time>
      </trkpt>
      <trkpt lat="45.54174" lon="4.69467">
        <ele>306</ele>
        <time>2018-08-15T09:17:39.264Z</time>
      </trkpt>
      <trkpt lat="45.54177" lon="4.69471">
        <ele>306</ele>
        <time>2018-08-15T09:17:40.255Z</time>
      </trkpt>
      <trkpt lat="45.54177" lon="4.69471">
        <ele>306</ele>
        <time>2018-08-15T09:17:41.252Z</time>
      </trkpt>
      <trkpt lat="45.5418" lon="4.69475">
        <ele>307</ele>
        <time>2018-08-15T09:17:42.266Z</time>
      </trkpt>
      <trkpt lat="45.5418" lon="4.69475">
        <ele>307</ele>
        <time>2018-08-15T09:17:43.272Z</time>
      </trkpt>
      <trkpt lat="45.54182" lon="4.6948">
        <ele>307</ele>
        <time>2018-08-15T09:17:44.266Z</time>
      </trkpt>
      <trkpt lat="45.54182" lon="4.6948">
        <ele>307</ele>
        <time>2018-08-15T09:17:45.233Z</time>
      </trkpt>
      <trkpt lat="45.54184" lon="4.69486">
        <ele>307</ele>
        <time>2018-08-15T09:17:46.270Z</time>
      </trkpt>
      <trkpt lat="45.54184" lon="4.69486">
        <ele>307</ele>
        <time>2018-08-15T09:17:47.250Z</time>
      </trkpt>
      <trkpt lat="45.54187" lon="4.69491">
        <ele>307</ele>
        <time>2018-08-15T09:17:48.250Z</time>
      </trkpt>
      <trkpt lat="45.54187" lon="4.69491">
        <ele>307</ele>
        <time>2018-08-15T09:17:49.237Z</time>
      </trkpt>
      <trkpt lat="45.5419" lon="4.69496">
        <ele>307</ele>
        <time>2018-08-15T09:17:50.261Z</time>
      </trkpt>
      <trkpt lat="45.5419" lon="4.69496">
        <ele>307</ele>
        <time>2018-08-15T09:17:51.253Z</time>
      </trkpt>
      <trkpt lat="45.54192" lon="4.69502">
        <ele>307</ele>
        <time>2018-08-15T09:17:52.257Z</time>
      </trkpt>
      <trkpt lat="45.54192" lon="4.69502">
        <ele>307</ele>
        <time>2018-08-15T09:17:53.247Z</time>
      </trkpt>
      <trkpt lat="45.54194" lon="4.69507">
        <ele>308</ele>
        <time>2018-08-15T09:17:54.252Z</time>
      </trkpt>
      <trkpt lat="45.54194" lon="4.69507">
        <ele>308</ele>
        <time>2018-08-15T09:17:55.239Z</time>
      </trkpt>
      <trkpt lat="45.54197" lon="4.69511">
        <ele>308</ele>
        <time>2018-08-15T09:17:56.236Z</time>
      </trkpt>
      <trkpt lat="45.54197" lon="4.69511">
        <ele>308</ele>
        <time>2018-08-15T09:17:57.241Z</time>
      </trkpt>
      <trkpt lat="45.542" lon="4.69516">
        <ele>308</ele>
        <time>2018-08-15T09:17:58.246Z</time>
      </trkpt>
      <trkpt lat="45.542" lon="4.69516">
        <ele>308</ele>
        <time>2018-08-15T09:17:59.263Z</time>
      </trkpt>
      <trkpt lat="45.54203" lon="4.69522">
        <ele>309</ele>
        <time>2018-08-15T09:18:00.246Z</time>
      </trkpt>
      <trkpt lat="45.54204" lon="4.69524">
        <ele>309</ele>
        <time>2018-08-15T09:18:01.241Z</time>
      </trkpt>
      <trkpt lat="45.54206" lon="4.69527">
        <ele>309</ele>
        <time>2018-08-15T09:18:02.245Z</time>
      </trkpt>
      <trkpt lat="45.54206" lon="4.69527">
        <ele>309</ele>
        <time>2018-08-15T09:18:03.238Z</time>
      </trkpt>
      <trkpt lat="45.54209" lon="4.69532">
        <ele>309</ele>
        <time>2018-08-15T09:18:04.275Z</time>
      </trkpt>
      <trkpt lat="45.54209" lon="4.69532">
        <ele>309</ele>
        <time>2018-08-15T09:18:05.243Z</time>
      </trkpt>
      <trkpt lat="45.54211" lon="4.69537">
        <ele>310</ele>
        <time>2018-08-15T09:18:06.266Z</time>
      </trkpt>
      <trkpt lat="45.54211" lon="4.69537">
        <ele>310</ele>
        <time>2018-08-15T09:18:07.271Z</time>
      </trkpt>
      <trkpt lat="45.54214" lon="4.69543">
        <ele>310</ele>
        <time>2018-08-15T09:18:08.266Z</time>
      </trkpt>
      <trkpt lat="45.54214" lon="4.69543">
        <ele>310</ele>
        <time>2018-08-15T09:18:09.234Z</time>
      </trkpt>
      <trkpt lat="45.54216" lon="4.69548">
        <ele>311</ele>
        <time>2018-08-15T09:18:10.248Z</time>
      </trkpt>
      <trkpt lat="45.54216" lon="4.69548">
        <ele>311</ele>
        <time>2018-08-15T09:18:11.256Z</time>
      </trkpt>
      <trkpt lat="45.54218" lon="4.69554">
        <ele>311</ele>
        <time>2018-08-15T09:18:12.250Z</time>
      </trkpt>
      <trkpt lat="45.54218" lon="4.69554">
        <ele>311</ele>
        <time>2018-08-15T09:18:13.269Z</time>
      </trkpt>
      <trkpt lat="45.54219" lon="4.69559">
        <ele>312</ele>
        <time>2018-08-15T09:18:14.246Z</time>
      </trkpt>
      <trkpt lat="45.54219" lon="4.69559">
        <ele>312</ele>
        <time>2018-08-15T09:18:15.258Z</time>
      </trkpt>
      <trkpt lat="45.5422" lon="4.69565">
        <ele>312</ele>
        <time>2018-08-15T09:18:16.271Z</time>
      </trkpt>
      <trkpt lat="45.5422" lon="4.69565">
        <ele>312</ele>
        <time>2018-08-15T09:18:17.239Z</time>
      </trkpt>
      <trkpt lat="45.54221" lon="4.69571">
        <ele>313</ele>
        <time>2018-08-15T09:18:18.266Z</time>
      </trkpt>
      <trkpt lat="45.54221" lon="4.69571">
        <ele>313</ele>
        <time>2018-08-15T09:18:19.252Z</time>
      </trkpt>
      <trkpt lat="45.5422" lon="4.69578">
        <ele>313</ele>
        <time>2018-08-15T09:18:20.261Z</time>
      </trkpt>
      <trkpt lat="45.5422" lon="4.69578">
        <ele>313</ele>
        <time>2018-08-15T09:18:21.237Z</time>
      </trkpt>
      <trkpt lat="45.5422" lon="4.69584">
        <ele>314</ele>
        <time>2018-08-15T09:18:22.270Z</time>
      </trkpt>
      <trkpt lat="45.5422" lon="4.69584">
        <ele>314</ele>
        <time>2018-08-15T09:18:23.253Z</time>
      </trkpt>
      <trkpt lat="45.54218" lon="4.6959">
        <ele>314</ele>
        <time>2018-08-15T09:18:24.266Z</time>
      </trkpt>
      <trkpt lat="45.54218" lon="4.6959">
        <ele>314</ele>
        <time>2018-08-15T09:18:25.252Z</time>
      </trkpt>
      <trkpt lat="45.54217" lon="4.69596">
        <ele>314</ele>
        <time>2018-08-15T09:18:26.254Z</time>
      </trkpt>
      <trkpt lat="45.54217" lon="4.69596">
        <ele>314</ele>
        <time>2018-08-15T09:18:27.238Z</time>
      </trkpt>
      <trkpt lat="45.54216" lon="4.69601">
        <ele>315</ele>
        <time>2018-08-15T09:18:28.270Z</time>
      </trkpt>
      <trkpt lat="45.54216" lon="4.69601">
        <ele>315</ele>
        <time>2018-08-15T09:18:29.242Z</time>
      </trkpt>
      <trkpt lat="45.54218" lon="4.69607">
        <ele>316</ele>
        <time>2018-08-15T09:18:30.246Z</time>
      </trkpt>
      <trkpt lat="45.54218" lon="4.69607">
        <ele>316</ele>
        <time>2018-08-15T09:18:31.257Z</time>
      </trkpt>
      <trkpt lat="45.54218" lon="4.69613">
        <ele>316</ele>
        <time>2018-08-15T09:18:32.249Z</time>
      </trkpt>
      <trkpt lat="45.54218" lon="4.69613">
        <ele>316</ele>
        <time>2018-08-15T09:18:33.239Z</time>
      </trkpt>
      <trkpt lat="45.54219" lon="4.69619">
        <ele>318</ele>
        <time>2018-08-15T09:18:34.241Z</time>
      </trkpt>
      <trkpt lat="45.54219" lon="4.69619">
        <ele>318</ele>
        <time>2018-08-15T09:18:35.269Z</time>
      </trkpt>
      <trkpt lat="45.54222" lon="4.69623">
        <ele>318</ele>
        <time>2018-08-15T09:18:36.259Z</time>
      </trkpt>
      <trkpt lat="45.54222" lon="4.69623">
        <ele>318</ele>
        <time>2018-08-15T09:18:37.241Z</time>
      </trkpt>
      <trkpt lat="45.54225" lon="4.69628">
        <ele>319</ele>
        <time>2018-08-15T09:18:38.232Z</time>
      </trkpt>
      <trkpt lat="45.54225" lon="4.69628">
        <ele>319</ele>
        <time>2018-08-15T09:18:39.232Z</time>
      </trkpt>
      <trkpt lat="45.54228" lon="4.69632">
        <ele>319</ele>
        <time>2018-08-15T09:18:40.239Z</time>
      </trkpt>
      <trkpt lat="45.54228" lon="4.69632">
        <ele>319</ele>
        <time>2018-08-15T09:18:41.236Z</time>
      </trkpt>
      <trkpt lat="45.54232" lon="4.69635">
        <ele>319</ele>
        <time>2018-08-15T09:18:42.258Z</time>
      </trkpt>
      <trkpt lat="45.54232" lon="4.69635">
        <ele>319</ele>
        <time>2018-08-15T09:18:43.252Z</time>
      </trkpt>
      <trkpt lat="45.54236" lon="4.69638">
        <ele>319</ele>
        <time>2018-08-15T09:18:44.236Z</time>
      </trkpt>
      <trkpt lat="45.54236" lon="4.69638">
        <ele>319</ele>
        <time>2018-08-15T09:18:45.269Z</time>
      </trkpt>
      <trkpt lat="45.5424" lon="4.69642">
        <ele>319</ele>
        <time>2018-08-15T09:18:46.263Z</time>
      </trkpt>
      <trkpt lat="45.5424" lon="4.69642">
        <ele>319</ele>
        <time>2018-08-15T09:18:47.254Z</time>
      </trkpt>
      <trkpt lat="45.54244" lon="4.69647">
        <ele>319</ele>
        <time>2018-08-15T09:18:48.240Z</time>
      </trkpt>
      <trkpt lat="45.54244" lon="4.69647">
        <ele>319</ele>
        <time>2018-08-15T09:18:49.259Z</time>
      </trkpt>
      <trkpt lat="45.54248" lon="4.6965">
        <ele>319</ele>
        <time>2018-08-15T09:18:50.240Z</time>
      </trkpt>
      <trkpt lat="45.54248" lon="4.6965">
        <ele>319</ele>
        <time>2018-08-15T09:18:51.267Z</time>
      </trkpt>
      <trkpt lat="45.54253" lon="4.69653">
        <ele>319</ele>
        <time>2018-08-15T09:18:52.236Z</time>
      </trkpt>
      <trkpt lat="45.54253" lon="4.69653">
        <ele>319</ele>
        <time>2018-08-15T09:18:53.247Z</time>
      </trkpt>
      <trkpt lat="45.54258" lon="4.69655">
        <ele>319</ele>
        <time>2018-08-15T09:18:54.252Z</time>
      </trkpt>
      <trkpt lat="45.54258" lon="4.69655">
        <ele>319</ele>
        <time>2018-08-15T09:18:55.269Z</time>
      </trkpt>
      <trkpt lat="45.54262" lon="4.69657">
        <ele>319</ele>
        <time>2018-08-15T09:18:56.257Z</time>
      </trkpt>
      <trkpt lat="45.54262" lon="4.69657">
        <ele>319</ele>
        <time>2018-08-15T09:18:57.263Z</time>
      </trkpt>
      <trkpt lat="45.54267" lon="4.69658">
        <ele>319</ele>
        <time>2018-08-15T09:18:58.257Z</time>
      </trkpt>
      <trkpt lat="45.54267" lon="4.69658">
        <ele>319</ele>
        <time>2018-08-15T09:18:59.271Z</time>
      </trkpt>
      <trkpt lat="45.54272" lon="4.69659">
        <ele>319</ele>
        <time>2018-08-15T09:19:00.268Z</time>
      </trkpt>
      <trkpt lat="45.54272" lon="4.69659">
        <ele>319</ele>
        <time>2018-08-15T09:19:01.233Z</time>
      </trkpt>
      <trkpt lat="45.54277" lon="4.69658">
        <ele>319</ele>
        <time>2018-08-15T09:19:02.264Z</time>
      </trkpt>
      <trkpt lat="45.54277" lon="4.69658">
        <ele>319</ele>
        <time>2018-08-15T09:19:03.271Z</time>
      </trkpt>
      <trkpt lat="45.54282" lon="4.69657">
        <ele>319</ele>
        <time>2018-08-15T09:19:04.262Z</time>
      </trkpt>
      <trkpt lat="45.54282" lon="4.69657">
        <ele>319</ele>
        <time>2018-08-15T09:19:05.268Z</time>
      </trkpt>
      <trkpt lat="45.54287" lon="4.69657">
        <ele>319</ele>
        <time>2018-08-15T09:19:06.261Z</time>
      </trkpt>
      <trkpt lat="45.54287" lon="4.69657">
        <ele>319</ele>
        <time>2018-08-15T09:19:07.243Z</time>
      </trkpt>
      <trkpt lat="45.54291" lon="4.69657">
        <ele>319</ele>
        <time>2018-08-15T09:19:08.249Z</time>
      </trkpt>
      <trkpt lat="45.54291" lon="4.69657">
        <ele>319</ele>
        <time>2018-08-15T09:19:09.252Z</time>
      </trkpt>
      <trkpt lat="45.54296" lon="4.69655">
        <ele>319</ele>
        <time>2018-08-15T09:19:10.249Z</time>
      </trkpt>
      <trkpt lat="45.54296" lon="4.69655">
        <ele>319</ele>
        <time>2018-08-15T09:19:11.269Z</time>
      </trkpt>
      <trkpt lat="45.543" lon="4.69654">
        <ele>319</ele>
        <time>2018-08-15T09:19:12.248Z</time>
      </trkpt>
      <trkpt lat="45.543" lon="4.69654">
        <ele>319</ele>
        <time>2018-08-15T09:19:13.237Z</time>
      </trkpt>
      <trkpt lat="45.54305" lon="4.69653">
        <ele>320</ele>
        <time>2018-08-15T09:19:14.243Z</time>
      </trkpt>
      <trkpt lat="45.54305" lon="4.69653">
        <ele>320</ele>
        <time>2018-08-15T09:19:15.262Z</time>
      </trkpt>
      <trkpt lat="45.54309" lon="4.69652">
        <ele>320</ele>
        <time>2018-08-15T09:19:16.249Z</time>
      </trkpt>
      <trkpt lat="45.54312" lon="4.69652">
        <ele>320</ele>
        <time>2018-08-15T09:19:17.232Z</time>
      </trkpt>
      <trkpt lat="45.54312" lon="4.69652">
        <ele>320</ele>
        <time>2018-08-15T09:19:18.252Z</time>
      </trkpt>
      <trkpt lat="45.54317" lon="4.69652">
        <ele>320</ele>
        <time>2018-08-15T09:19:19.236Z</time>
      </trkpt>
      <trkpt lat="45.54319" lon="4.69652">
        <ele>320</ele>
        <time>2018-08-15T09:19:20.248Z</time>
      </trkpt>
      <trkpt lat="45.54319" lon="4.69652">
        <ele>320</ele>
        <time>2018-08-15T09:19:21.272Z</time>
      </trkpt>
      <trkpt lat="45.54324" lon="4.69652">
        <ele>320</ele>
        <time>2018-08-15T09:19:22.235Z</time>
      </trkpt>
      <trkpt lat="45.54324" lon="4.69652">
        <ele>320</ele>
        <time>2018-08-15T09:19:23.267Z</time>
      </trkpt>
      <trkpt lat="45.54328" lon="4.69653">
        <ele>320</ele>
        <time>2018-08-15T09:19:24.236Z</time>
      </trkpt>
      <trkpt lat="45.54328" lon="4.69653">
        <ele>320</ele>
        <time>2018-08-15T09:19:25.236Z</time>
      </trkpt>
      <trkpt lat="45.54333" lon="4.69655">
        <ele>320</ele>
        <time>2018-08-15T09:19:26.249Z</time>
      </trkpt>
      <trkpt lat="45.54333" lon="4.69655">
        <ele>320</ele>
        <time>2018-08-15T09:19:27.234Z</time>
      </trkpt>
      <trkpt lat="45.54337" lon="4.69659">
        <ele>320</ele>
        <time>2018-08-15T09:19:28.271Z</time>
      </trkpt>
      <trkpt lat="45.54337" lon="4.69659">
        <ele>320</ele>
        <time>2018-08-15T09:19:29.235Z</time>
      </trkpt>
      <trkpt lat="45.54341" lon="4.69664">
        <ele>320</ele>
        <time>2018-08-15T09:19:30.266Z</time>
      </trkpt>
      <trkpt lat="45.54341" lon="4.69664">
        <ele>320</ele>
        <time>2018-08-15T09:19:31.271Z</time>
      </trkpt>
      <trkpt lat="45.54344" lon="4.6967">
        <ele>320</ele>
        <time>2018-08-15T09:19:32.256Z</time>
      </trkpt>
      <trkpt lat="45.54344" lon="4.6967">
        <ele>320</ele>
        <time>2018-08-15T09:19:33.265Z</time>
      </trkpt>
      <trkpt lat="45.54346" lon="4.69676">
        <ele>320</ele>
        <time>2018-08-15T09:19:34.267Z</time>
      </trkpt>
      <trkpt lat="45.54346" lon="4.69676">
        <ele>320</ele>
        <time>2018-08-15T09:19:35.232Z</time>
      </trkpt>
      <trkpt lat="45.54348" lon="4.69682">
        <ele>320</ele>
        <time>2018-08-15T09:19:36.248Z</time>
      </trkpt>
      <trkpt lat="45.54348" lon="4.69682">
        <ele>320</ele>
        <time>2018-08-15T09:19:37.258Z</time>
      </trkpt>
      <trkpt lat="45.54349" lon="4.69688">
        <ele>321</ele>
        <time>2018-08-15T09:19:38.251Z</time>
      </trkpt>
      <trkpt lat="45.54349" lon="4.69688">
        <ele>321</ele>
        <time>2018-08-15T09:19:39.268Z</time>
      </trkpt>
      <trkpt lat="45.5435" lon="4.69695">
        <ele>321</ele>
        <time>2018-08-15T09:19:40.271Z</time>
      </trkpt>
      <trkpt lat="45.5435" lon="4.69695">
        <ele>321</ele>
        <time>2018-08-15T09:19:41.241Z</time>
      </trkpt>
      <trkpt lat="45.5435" lon="4.69701">
        <ele>321</ele>
        <time>2018-08-15T09:19:42.286Z</time>
      </trkpt>
      <trkpt lat="45.5435" lon="4.69701">
        <ele>321</ele>
        <time>2018-08-15T09:19:43.258Z</time>
      </trkpt>
      <trkpt lat="45.54351" lon="4.69708">
        <ele>321</ele>
        <time>2018-08-15T09:19:44.246Z</time>
      </trkpt>
      <trkpt lat="45.54351" lon="4.69708">
        <ele>321</ele>
        <time>2018-08-15T09:19:45.254Z</time>
      </trkpt>
      <trkpt lat="45.54351" lon="4.69715">
        <ele>321</ele>
        <time>2018-08-15T09:19:46.255Z</time>
      </trkpt>
      <trkpt lat="45.54351" lon="4.69715">
        <ele>321</ele>
        <time>2018-08-15T09:19:47.250Z</time>
      </trkpt>
      <trkpt lat="45.54353" lon="4.69721">
        <ele>322</ele>
        <time>2018-08-15T09:19:48.247Z</time>
      </trkpt>
      <trkpt lat="45.54353" lon="4.69721">
        <ele>322</ele>
        <time>2018-08-15T09:19:49.256Z</time>
      </trkpt>
      <trkpt lat="45.54353" lon="4.69728">
        <ele>322</ele>
        <time>2018-08-15T09:19:50.247Z</time>
      </trkpt>
      <trkpt lat="45.54353" lon="4.69728">
        <ele>322</ele>
        <time>2018-08-15T09:19:51.253Z</time>
      </trkpt>
      <trkpt lat="45.54354" lon="4.69734">
        <ele>322</ele>
        <time>2018-08-15T09:19:52.246Z</time>
      </trkpt>
      <trkpt lat="45.54354" lon="4.69734">
        <ele>322</ele>
        <time>2018-08-15T09:19:53.251Z</time>
      </trkpt>
      <trkpt lat="45.54354" lon="4.69741">
        <ele>322</ele>
        <time>2018-08-15T09:19:54.255Z</time>
      </trkpt>
      <trkpt lat="45.54354" lon="4.69741">
        <ele>322</ele>
        <time>2018-08-15T09:19:55.235Z</time>
      </trkpt>
      <trkpt lat="45.54355" lon="4.69748">
        <ele>322</ele>
        <time>2018-08-15T09:19:56.276Z</time>
      </trkpt>
      <trkpt lat="45.54355" lon="4.69748">
        <ele>322</ele>
        <time>2018-08-15T09:19:57.240Z</time>
      </trkpt>
      <trkpt lat="45.54356" lon="4.69755">
        <ele>323</ele>
        <time>2018-08-15T09:19:58.237Z</time>
      </trkpt>
      <trkpt lat="45.54356" lon="4.69755">
        <ele>323</ele>
        <time>2018-08-15T09:19:59.253Z</time>
      </trkpt>
      <trkpt lat="45.54357" lon="4.69762">
        <ele>323</ele>
        <time>2018-08-15T09:20:00.236Z</time>
      </trkpt>
      <trkpt lat="45.54357" lon="4.69762">
        <ele>323</ele>
        <time>2018-08-15T09:20:01.236Z</time>
      </trkpt>
      <trkpt lat="45.54357" lon="4.69769">
        <ele>323</ele>
        <time>2018-08-15T09:20:02.266Z</time>
      </trkpt>
      <trkpt lat="45.54357" lon="4.69769">
        <ele>323</ele>
        <time>2018-08-15T09:20:03.233Z</time>
      </trkpt>
      <trkpt lat="45.54357" lon="4.69776">
        <ele>323</ele>
        <time>2018-08-15T09:20:04.269Z</time>
      </trkpt>
      <trkpt lat="45.54357" lon="4.69776">
        <ele>323</ele>
        <time>2018-08-15T09:20:05.258Z</time>
      </trkpt>
      <trkpt lat="45.54357" lon="4.69783">
        <ele>323</ele>
        <time>2018-08-15T09:20:06.244Z</time>
      </trkpt>
      <trkpt lat="45.54358" lon="4.69787">
        <ele>323</ele>
        <time>2018-08-15T09:20:07.241Z</time>
      </trkpt>
      <trkpt lat="45.54358" lon="4.69791">
        <ele>324</ele>
        <time>2018-08-15T09:20:08.246Z</time>
      </trkpt>
      <trkpt lat="45.54358" lon="4.69791">
        <ele>324</ele>
        <time>2018-08-15T09:20:09.241Z</time>
      </trkpt>
      <trkpt lat="45.54358" lon="4.69798">
        <ele>324</ele>
        <time>2018-08-15T09:20:10.242Z</time>
      </trkpt>
      <trkpt lat="45.54358" lon="4.69798">
        <ele>324</ele>
        <time>2018-08-15T09:20:11.232Z</time>
      </trkpt>
      <trkpt lat="45.54357" lon="4.69804">
        <ele>324</ele>
        <time>2018-08-15T09:20:12.232Z</time>
      </trkpt>
      <trkpt lat="45.54357" lon="4.69804">
        <ele>324</ele>
        <time>2018-08-15T09:20:13.267Z</time>
      </trkpt>
      <trkpt lat="45.54357" lon="4.69812">
        <ele>325</ele>
        <time>2018-08-15T09:20:14.276Z</time>
      </trkpt>
      <trkpt lat="45.54357" lon="4.69812">
        <ele>325</ele>
        <time>2018-08-15T09:20:15.252Z</time>
      </trkpt>
      <trkpt lat="45.54357" lon="4.69818">
        <ele>325</ele>
        <time>2018-08-15T09:20:16.266Z</time>
      </trkpt>
      <trkpt lat="45.54357" lon="4.69818">
        <ele>325</ele>
        <time>2018-08-15T09:20:17.233Z</time>
      </trkpt>
      <trkpt lat="45.54356" lon="4.69825">
        <ele>325</ele>
        <time>2018-08-15T09:20:18.263Z</time>
      </trkpt>
      <trkpt lat="45.54356" lon="4.69825">
        <ele>325</ele>
        <time>2018-08-15T09:20:19.237Z</time>
      </trkpt>
      <trkpt lat="45.54355" lon="4.69832">
        <ele>326</ele>
        <time>2018-08-15T09:20:20.262Z</time>
      </trkpt>
      <trkpt lat="45.54355" lon="4.69832">
        <ele>326</ele>
        <time>2018-08-15T09:20:21.268Z</time>
      </trkpt>
      <trkpt lat="45.54355" lon="4.69838">
        <ele>326</ele>
        <time>2018-08-15T09:20:22.261Z</time>
      </trkpt>
      <trkpt lat="45.54355" lon="4.69838">
        <ele>326</ele>
        <time>2018-08-15T09:20:23.272Z</time>
      </trkpt>
      <trkpt lat="45.54355" lon="4.69844">
        <ele>326</ele>
        <time>2018-08-15T09:20:24.236Z</time>
      </trkpt>
      <trkpt lat="45.54355" lon="4.69844">
        <ele>326</ele>
        <time>2018-08-15T09:20:25.262Z</time>
      </trkpt>
      <trkpt lat="45.54356" lon="4.6985">
        <ele>327</ele>
        <time>2018-08-15T09:20:26.235Z</time>
      </trkpt>
      <trkpt lat="45.54356" lon="4.6985">
        <ele>327</ele>
        <time>2018-08-15T09:20:27.236Z</time>
      </trkpt>
      <trkpt lat="45.54355" lon="4.69856">
        <ele>327</ele>
        <time>2018-08-15T09:20:28.233Z</time>
      </trkpt>
      <trkpt lat="45.54355" lon="4.69856">
        <ele>327</ele>
        <time>2018-08-15T09:20:29.262Z</time>
      </trkpt>
      <trkpt lat="45.54355" lon="4.69862">
        <ele>328</ele>
        <time>2018-08-15T09:20:30.250Z</time>
      </trkpt>
      <trkpt lat="45.54355" lon="4.69862">
        <ele>328</ele>
        <time>2018-08-15T09:20:31.256Z</time>
      </trkpt>
      <trkpt lat="45.54355" lon="4.69868">
        <ele>328</ele>
        <time>2018-08-15T09:20:32.246Z</time>
      </trkpt>
      <trkpt lat="45.54355" lon="4.69868">
        <ele>328</ele>
        <time>2018-08-15T09:20:33.268Z</time>
      </trkpt>
      <trkpt lat="45.54354" lon="4.69874">
        <ele>329</ele>
        <time>2018-08-15T09:20:34.266Z</time>
      </trkpt>
      <trkpt lat="45.54354" lon="4.69874">
        <ele>329</ele>
        <time>2018-08-15T09:20:35.270Z</time>
      </trkpt>
      <trkpt lat="45.54354" lon="4.69881">
        <ele>329</ele>
        <time>2018-08-15T09:20:36.266Z</time>
      </trkpt>
      <trkpt lat="45.54354" lon="4.69881">
        <ele>329</ele>
        <time>2018-08-15T09:20:37.235Z</time>
      </trkpt>
      <trkpt lat="45.54354" lon="4.69888">
        <ele>330</ele>
        <time>2018-08-15T09:20:38.233Z</time>
      </trkpt>
      <trkpt lat="45.54354" lon="4.69888">
        <ele>330</ele>
        <time>2018-08-15T09:20:39.245Z</time>
      </trkpt>
      <trkpt lat="45.54353" lon="4.69895">
        <ele>330</ele>
        <time>2018-08-15T09:20:40.234Z</time>
      </trkpt>
      <trkpt lat="45.54353" lon="4.69895">
        <ele>330</ele>
        <time>2018-08-15T09:20:41.232Z</time>
      </trkpt>
      <trkpt lat="45.54353" lon="4.69902">
        <ele>330</ele>
        <time>2018-08-15T09:20:42.259Z</time>
      </trkpt>
      <trkpt lat="45.54353" lon="4.69905">
        <ele>331</ele>
        <time>2018-08-15T09:20:43.243Z</time>
      </trkpt>
      <trkpt lat="45.54353" lon="4.69909">
        <ele>331</ele>
        <time>2018-08-15T09:20:44.247Z</time>
      </trkpt>
      <trkpt lat="45.54353" lon="4.69909">
        <ele>331</ele>
        <time>2018-08-15T09:20:45.269Z</time>
      </trkpt>
      <trkpt lat="45.54354" lon="4.69915">
        <ele>331</ele>
        <time>2018-08-15T09:20:46.264Z</time>
      </trkpt>
      <trkpt lat="45.54354" lon="4.69915">
        <ele>331</ele>
        <time>2018-08-15T09:20:47.270Z</time>
      </trkpt>
      <trkpt lat="45.54355" lon="4.69922">
        <ele>332</ele>
        <time>2018-08-15T09:20:48.271Z</time>
      </trkpt>
      <trkpt lat="45.54355" lon="4.69922">
        <ele>332</ele>
        <time>2018-08-15T09:20:49.243Z</time>
      </trkpt>
      <trkpt lat="45.54357" lon="4.69929">
        <ele>332</ele>
        <time>2018-08-15T09:20:50.237Z</time>
      </trkpt>
      <trkpt lat="45.54357" lon="4.69929">
        <ele>332</ele>
        <time>2018-08-15T09:20:51.268Z</time>
      </trkpt>
      <trkpt lat="45.54359" lon="4.69935">
        <ele>333</ele>
        <time>2018-08-15T09:20:52.265Z</time>
      </trkpt>
      <trkpt lat="45.54359" lon="4.69935">
        <ele>333</ele>
        <time>2018-08-15T09:20:53.270Z</time>
      </trkpt>
      <trkpt lat="45.54362" lon="4.69941">
        <ele>334</ele>
        <time>2018-08-15T09:20:54.255Z</time>
      </trkpt>
      <trkpt lat="45.54362" lon="4.69941">
        <ele>334</ele>
        <time>2018-08-15T09:20:55.241Z</time>
      </trkpt>
      <trkpt lat="45.54365" lon="4.69947">
        <ele>333</ele>
        <time>2018-08-15T09:20:56.271Z</time>
      </trkpt>
      <trkpt lat="45.54365" lon="4.69947">
        <ele>333</ele>
        <time>2018-08-15T09:20:57.236Z</time>
      </trkpt>
      <trkpt lat="45.54369" lon="4.69952">
        <ele>333</ele>
        <time>2018-08-15T09:20:58.263Z</time>
      </trkpt>
      <trkpt lat="45.54369" lon="4.69952">
        <ele>333</ele>
        <time>2018-08-15T09:20:59.270Z</time>
      </trkpt>
      <trkpt lat="45.54371" lon="4.69958">
        <ele>334</ele>
        <time>2018-08-15T09:21:00.263Z</time>
      </trkpt>
      <trkpt lat="45.54371" lon="4.69958">
        <ele>334</ele>
        <time>2018-08-15T09:21:01.268Z</time>
      </trkpt>
      <trkpt lat="45.54375" lon="4.69962">
        <ele>334</ele>
        <time>2018-08-15T09:21:02.256Z</time>
      </trkpt>
      <trkpt lat="45.54375" lon="4.69962">
        <ele>334</ele>
        <time>2018-08-15T09:21:03.234Z</time>
      </trkpt>
      <trkpt lat="45.54379" lon="4.69966">
        <ele>334</ele>
        <time>2018-08-15T09:21:04.274Z</time>
      </trkpt>
      <trkpt lat="45.54379" lon="4.69966">
        <ele>334</ele>
        <time>2018-08-15T09:21:05.240Z</time>
      </trkpt>
      <trkpt lat="45.54383" lon="4.69969">
        <ele>334</ele>
        <time>2018-08-15T09:21:06.246Z</time>
      </trkpt>
      <trkpt lat="45.54383" lon="4.69969">
        <ele>334</ele>
        <time>2018-08-15T09:21:07.259Z</time>
      </trkpt>
      <trkpt lat="45.54386" lon="4.69971">
        <ele>335</ele>
        <time>2018-08-15T09:21:08.233Z</time>
      </trkpt>
      <trkpt lat="45.54386" lon="4.69971">
        <ele>335</ele>
        <time>2018-08-15T09:21:09.232Z</time>
      </trkpt>
      <trkpt lat="45.54391" lon="4.69973">
        <ele>334</ele>
        <time>2018-08-15T09:21:10.270Z</time>
      </trkpt>
      <trkpt lat="45.54391" lon="4.69973">
        <ele>334</ele>
        <time>2018-08-15T09:21:11.234Z</time>
      </trkpt>
      <trkpt lat="45.54396" lon="4.69976">
        <ele>334</ele>
        <time>2018-08-15T09:21:12.258Z</time>
      </trkpt>
      <trkpt lat="45.54396" lon="4.69976">
        <ele>334</ele>
        <time>2018-08-15T09:21:13.233Z</time>
      </trkpt>
      <trkpt lat="45.54401" lon="4.69979">
        <ele>335</ele>
        <time>2018-08-15T09:21:14.236Z</time>
      </trkpt>
      <trkpt lat="45.54401" lon="4.69979">
        <ele>335</ele>
        <time>2018-08-15T09:21:15.246Z</time>
      </trkpt>
      <trkpt lat="45.54405" lon="4.69981">
        <ele>334</ele>
        <time>2018-08-15T09:21:16.239Z</time>
      </trkpt>
      <trkpt lat="45.54405" lon="4.69981">
        <ele>334</ele>
        <time>2018-08-15T09:21:17.237Z</time>
      </trkpt>
      <trkpt lat="45.5441" lon="4.69984">
        <ele>335</ele>
        <time>2018-08-15T09:21:18.236Z</time>
      </trkpt>
      <trkpt lat="45.54412" lon="4.69985">
        <ele>335</ele>
        <time>2018-08-15T09:21:19.262Z</time>
      </trkpt>
      <trkpt lat="45.54414" lon="4.69986">
        <ele>335</ele>
        <time>2018-08-15T09:21:20.245Z</time>
      </trkpt>
      <trkpt lat="45.54417" lon="4.69988">
        <ele>335</ele>
        <time>2018-08-15T09:21:21.251Z</time>
      </trkpt>
      <trkpt lat="45.54417" lon="4.69988">
        <ele>335</ele>
        <time>2018-08-15T09:21:22.259Z</time>
      </trkpt>
      <trkpt lat="45.54422" lon="4.6999">
        <ele>335</ele>
        <time>2018-08-15T09:21:23.266Z</time>
      </trkpt>
      <trkpt lat="45.54422" lon="4.6999">
        <ele>335</ele>
        <time>2018-08-15T09:21:24.234Z</time>
      </trkpt>
      <trkpt lat="45.54426" lon="4.69991">
        <ele>336</ele>
        <time>2018-08-15T09:21:25.276Z</time>
      </trkpt>
      <trkpt lat="45.54428" lon="4.69993">
        <ele>336</ele>
        <time>2018-08-15T09:21:26.250Z</time>
      </trkpt>
      <trkpt lat="45.54428" lon="4.69993">
        <ele>336</ele>
        <time>2018-08-15T09:21:27.257Z</time>
      </trkpt>
      <trkpt lat="45.54432" lon="4.69996">
        <ele>336</ele>
        <time>2018-08-15T09:21:28.259Z</time>
      </trkpt>
      <trkpt lat="45.54432" lon="4.69996">
        <ele>336</ele>
        <time>2018-08-15T09:21:29.266Z</time>
      </trkpt>
      <trkpt lat="45.54437" lon="4.69999">
        <ele>337</ele>
        <time>2018-08-15T09:21:30.256Z</time>
      </trkpt>
      <trkpt lat="45.54437" lon="4.69999">
        <ele>337</ele>
        <time>2018-08-15T09:21:31.268Z</time>
      </trkpt>
      <trkpt lat="45.5444" lon="4.70002">
        <ele>337</ele>
        <time>2018-08-15T09:21:32.263Z</time>
      </trkpt>
      <trkpt lat="45.5444" lon="4.70002">
        <ele>337</ele>
        <time>2018-08-15T09:21:33.255Z</time>
      </trkpt>
      <trkpt lat="45.54444" lon="4.70005">
        <ele>338</ele>
        <time>2018-08-15T09:21:34.236Z</time>
      </trkpt>
      <trkpt lat="45.54444" lon="4.70005">
        <ele>338</ele>
        <time>2018-08-15T09:21:35.268Z</time>
      </trkpt>
      <trkpt lat="45.54447" lon="4.70009">
        <ele>338</ele>
        <time>2018-08-15T09:21:36.240Z</time>
      </trkpt>
      <trkpt lat="45.54449" lon="4.70011">
        <ele>338</ele>
        <time>2018-08-15T09:21:37.237Z</time>
      </trkpt>
      <trkpt lat="45.54451" lon="4.70014">
        <ele>338</ele>
        <time>2018-08-15T09:21:38.233Z</time>
      </trkpt>
      <trkpt lat="45.54451" lon="4.70014">
        <ele>338</ele>
        <time>2018-08-15T09:21:39.240Z</time>
      </trkpt>
      <trkpt lat="45.54454" lon="4.70018">
        <ele>339</ele>
        <time>2018-08-15T09:21:40.273Z</time>
      </trkpt>
      <trkpt lat="45.54454" lon="4.70018">
        <ele>339</ele>
        <time>2018-08-15T09:21:41.253Z</time>
      </trkpt>
      <trkpt lat="45.54457" lon="4.70023">
        <ele>339</ele>
        <time>2018-08-15T09:21:42.266Z</time>
      </trkpt>
      <trkpt lat="45.54457" lon="4.70023">
        <ele>339</ele>
        <time>2018-08-15T09:21:43.271Z</time>
      </trkpt>
      <trkpt lat="45.5446" lon="4.70028">
        <ele>340</ele>
        <time>2018-08-15T09:21:44.257Z</time>
      </trkpt>
      <trkpt lat="45.5446" lon="4.70028">
        <ele>340</ele>
        <time>2018-08-15T09:21:45.271Z</time>
      </trkpt>
      <trkpt lat="45.54464" lon="4.70034">
        <ele>340</ele>
        <time>2018-08-15T09:21:46.258Z</time>
      </trkpt>
      <trkpt lat="45.54464" lon="4.70034">
        <ele>340</ele>
        <time>2018-08-15T09:21:47.232Z</time>
      </trkpt>
      <trkpt lat="45.54467" lon="4.70039">
        <ele>340</ele>
        <time>2018-08-15T09:21:48.236Z</time>
      </trkpt>
      <trkpt lat="45.54467" lon="4.70039">
        <ele>340</ele>
        <time>2018-08-15T09:21:49.241Z</time>
      </trkpt>
      <trkpt lat="45.54471" lon="4.70044">
        <ele>340</ele>
        <time>2018-08-15T09:21:50.236Z</time>
      </trkpt>
      <trkpt lat="45.54471" lon="4.70044">
        <ele>340</ele>
        <time>2018-08-15T09:21:51.248Z</time>
      </trkpt>
      <trkpt lat="45.54474" lon="4.70049">
        <ele>341</ele>
        <time>2018-08-15T09:21:52.238Z</time>
      </trkpt>
      <trkpt lat="45.54474" lon="4.70049">
        <ele>341</ele>
        <time>2018-08-15T09:21:53.252Z</time>
      </trkpt>
      <trkpt lat="45.54477" lon="4.70053">
        <ele>341</ele>
        <time>2018-08-15T09:21:54.243Z</time>
      </trkpt>
      <trkpt lat="45.54477" lon="4.70053">
        <ele>341</ele>
        <time>2018-08-15T09:21:55.235Z</time>
      </trkpt>
      <trkpt lat="45.5448" lon="4.70058">
        <ele>341</ele>
        <time>2018-08-15T09:21:56.266Z</time>
      </trkpt>
      <trkpt lat="45.5448" lon="4.70058">
        <ele>341</ele>
        <time>2018-08-15T09:21:57.254Z</time>
      </trkpt>
      <trkpt lat="45.54483" lon="4.70063">
        <ele>341</ele>
        <time>2018-08-15T09:21:58.254Z</time>
      </trkpt>
      <trkpt lat="45.54483" lon="4.70063">
        <ele>341</ele>
        <time>2018-08-15T09:21:59.261Z</time>
      </trkpt>
      <trkpt lat="45.54486" lon="4.70068">
        <ele>341</ele>
        <time>2018-08-15T09:22:00.257Z</time>
      </trkpt>
      <trkpt lat="45.54486" lon="4.70068">
        <ele>341</ele>
        <time>2018-08-15T09:22:01.270Z</time>
      </trkpt>
      <trkpt lat="45.5449" lon="4.70073">
        <ele>342</ele>
        <time>2018-08-15T09:22:02.246Z</time>
      </trkpt>
      <trkpt lat="45.5449" lon="4.70073">
        <ele>342</ele>
        <time>2018-08-15T09:22:03.245Z</time>
      </trkpt>
      <trkpt lat="45.54493" lon="4.70077">
        <ele>342</ele>
        <time>2018-08-15T09:22:04.234Z</time>
      </trkpt>
      <trkpt lat="45.54493" lon="4.70077">
        <ele>342</ele>
        <time>2018-08-15T09:22:05.259Z</time>
      </trkpt>
      <trkpt lat="45.54496" lon="4.70083">
        <ele>342</ele>
        <time>2018-08-15T09:22:06.256Z</time>
      </trkpt>
      <trkpt lat="45.54496" lon="4.70083">
        <ele>342</ele>
        <time>2018-08-15T09:22:07.262Z</time>
      </trkpt>
      <trkpt lat="45.54499" lon="4.70087">
        <ele>342</ele>
        <time>2018-08-15T09:22:08.266Z</time>
      </trkpt>
      <trkpt lat="45.54499" lon="4.70087">
        <ele>342</ele>
        <time>2018-08-15T09:22:09.260Z</time>
      </trkpt>
      <trkpt lat="45.54502" lon="4.70092">
        <ele>342</ele>
        <time>2018-08-15T09:22:10.248Z</time>
      </trkpt>
      <trkpt lat="45.54502" lon="4.70092">
        <ele>342</ele>
        <time>2018-08-15T09:22:11.250Z</time>
      </trkpt>
      <trkpt lat="45.54505" lon="4.70096">
        <ele>343</ele>
        <time>2018-08-15T09:22:12.246Z</time>
      </trkpt>
      <trkpt lat="45.54505" lon="4.70096">
        <ele>343</ele>
        <time>2018-08-15T09:22:13.236Z</time>
      </trkpt>
      <trkpt lat="45.54508" lon="4.70101">
        <ele>343</ele>
        <time>2018-08-15T09:22:14.234Z</time>
      </trkpt>
      <trkpt lat="45.54508" lon="4.70101">
        <ele>343</ele>
        <time>2018-08-15T09:22:15.241Z</time>
      </trkpt>
      <trkpt lat="45.54511" lon="4.70106">
        <ele>343</ele>
        <time>2018-08-15T09:22:16.247Z</time>
      </trkpt>
      <trkpt lat="45.54511" lon="4.70106">
        <ele>343</ele>
        <time>2018-08-15T09:22:17.244Z</time>
      </trkpt>
      <trkpt lat="45.54515" lon="4.70111">
        <ele>343</ele>
        <time>2018-08-15T09:22:18.243Z</time>
      </trkpt>
      <trkpt lat="45.54515" lon="4.70111">
        <ele>343</ele>
        <time>2018-08-15T09:22:19.240Z</time>
      </trkpt>
      <trkpt lat="45.54518" lon="4.70116">
        <ele>343</ele>
        <time>2018-08-15T09:22:20.244Z</time>
      </trkpt>
      <trkpt lat="45.54518" lon="4.70116">
        <ele>343</ele>
        <time>2018-08-15T09:22:21.235Z</time>
      </trkpt>
      <trkpt lat="45.54521" lon="4.70121">
        <ele>343</ele>
        <time>2018-08-15T09:22:22.266Z</time>
      </trkpt>
      <trkpt lat="45.54521" lon="4.70121">
        <ele>343</ele>
        <time>2018-08-15T09:22:23.248Z</time>
      </trkpt>
      <trkpt lat="45.54524" lon="4.70127">
        <ele>343</ele>
        <time>2018-08-15T09:22:24.246Z</time>
      </trkpt>
      <trkpt lat="45.54524" lon="4.70127">
        <ele>343</ele>
        <time>2018-08-15T09:22:25.257Z</time>
      </trkpt>
      <trkpt lat="45.54526" lon="4.70132">
        <ele>343</ele>
        <time>2018-08-15T09:22:26.257Z</time>
      </trkpt>
      <trkpt lat="45.54526" lon="4.70132">
        <ele>343</ele>
        <time>2018-08-15T09:22:27.241Z</time>
      </trkpt>
      <trkpt lat="45.54528" lon="4.70138">
        <ele>343</ele>
        <time>2018-08-15T09:22:28.232Z</time>
      </trkpt>
      <trkpt lat="45.54528" lon="4.70138">
        <ele>343</ele>
        <time>2018-08-15T09:22:29.257Z</time>
      </trkpt>
      <trkpt lat="45.5453" lon="4.70145">
        <ele>343</ele>
        <time>2018-08-15T09:22:30.259Z</time>
      </trkpt>
      <trkpt lat="45.5453" lon="4.70145">
        <ele>343</ele>
        <time>2018-08-15T09:22:31.267Z</time>
      </trkpt>
      <trkpt lat="45.54531" lon="4.70151">
        <ele>343</ele>
        <time>2018-08-15T09:22:32.234Z</time>
      </trkpt>
      <trkpt lat="45.54531" lon="4.70151">
        <ele>343</ele>
        <time>2018-08-15T09:22:33.240Z</time>
      </trkpt>
      <trkpt lat="45.54532" lon="4.70157">
        <ele>344</ele>
        <time>2018-08-15T09:22:34.237Z</time>
      </trkpt>
      <trkpt lat="45.54532" lon="4.70157">
        <ele>344</ele>
        <time>2018-08-15T09:22:35.248Z</time>
      </trkpt>
      <trkpt lat="45.54533" lon="4.70164">
        <ele>344</ele>
        <time>2018-08-15T09:22:36.257Z</time>
      </trkpt>
      <trkpt lat="45.54533" lon="4.70168">
        <ele>344</ele>
        <time>2018-08-15T09:22:37.242Z</time>
      </trkpt>
      <trkpt lat="45.54533" lon="4.70168">
        <ele>344</ele>
        <time>2018-08-15T09:22:38.269Z</time>
      </trkpt>
      <trkpt lat="45.54533" lon="4.70176">
        <ele>344</ele>
        <time>2018-08-15T09:22:39.253Z</time>
      </trkpt>
      <trkpt lat="45.54533" lon="4.70176">
        <ele>344</ele>
        <time>2018-08-15T09:22:40.265Z</time>
      </trkpt>
      <trkpt lat="45.54533" lon="4.70184">
        <ele>344</ele>
        <time>2018-08-15T09:22:41.252Z</time>
      </trkpt>
      <trkpt lat="45.54533" lon="4.70184">
        <ele>344</ele>
        <time>2018-08-15T09:22:42.238Z</time>
      </trkpt>
      <trkpt lat="45.54533" lon="4.70192">
        <ele>344</ele>
        <time>2018-08-15T09:22:43.237Z</time>
      </trkpt>
      <trkpt lat="45.54533" lon="4.70196">
        <ele>343</ele>
        <time>2018-08-15T09:22:44.241Z</time>
      </trkpt>
      <trkpt lat="45.54533" lon="4.70196">
        <ele>343</ele>
        <time>2018-08-15T09:22:45.257Z</time>
      </trkpt>
      <trkpt lat="45.54533" lon="4.70204">
        <ele>344</ele>
        <time>2018-08-15T09:22:46.258Z</time>
      </trkpt>
      <trkpt lat="45.54533" lon="4.70204">
        <ele>344</ele>
        <time>2018-08-15T09:22:47.245Z</time>
      </trkpt>
      <trkpt lat="45.54533" lon="4.70211">
        <ele>343</ele>
        <time>2018-08-15T09:22:48.245Z</time>
      </trkpt>
      <trkpt lat="45.54533" lon="4.70211">
        <ele>343</ele>
        <time>2018-08-15T09:22:49.234Z</time>
      </trkpt>
      <trkpt lat="45.54532" lon="4.70219">
        <ele>344</ele>
        <time>2018-08-15T09:22:50.236Z</time>
      </trkpt>
      <trkpt lat="45.54532" lon="4.70219">
        <ele>344</ele>
        <time>2018-08-15T09:22:51.261Z</time>
      </trkpt>
      <trkpt lat="45.54532" lon="4.70227">
        <ele>343</ele>
        <time>2018-08-15T09:22:52.271Z</time>
      </trkpt>
      <trkpt lat="45.54532" lon="4.70227">
        <ele>343</ele>
        <time>2018-08-15T09:22:53.236Z</time>
      </trkpt>
      <trkpt lat="45.54532" lon="4.70234">
        <ele>343</ele>
        <time>2018-08-15T09:22:54.243Z</time>
      </trkpt>
      <trkpt lat="45.54532" lon="4.70234">
        <ele>343</ele>
        <time>2018-08-15T09:22:55.251Z</time>
      </trkpt>
      <trkpt lat="45.54532" lon="4.70242">
        <ele>343</ele>
        <time>2018-08-15T09:22:56.250Z</time>
      </trkpt>
      <trkpt lat="45.54532" lon="4.70242">
        <ele>343</ele>
        <time>2018-08-15T09:22:57.256Z</time>
      </trkpt>
      <trkpt lat="45.54532" lon="4.7025">
        <ele>343</ele>
        <time>2018-08-15T09:22:58.243Z</time>
      </trkpt>
      <trkpt lat="45.54532" lon="4.7025">
        <ele>343</ele>
        <time>2018-08-15T09:22:59.239Z</time>
      </trkpt>
      <trkpt lat="45.54532" lon="4.70259">
        <ele>343</ele>
        <time>2018-08-15T09:23:00.254Z</time>
      </trkpt>
      <trkpt lat="45.54532" lon="4.70259">
        <ele>343</ele>
        <time>2018-08-15T09:23:01.260Z</time>
      </trkpt>
      <trkpt lat="45.54532" lon="4.70269">
        <ele>343</ele>
        <time>2018-08-15T09:23:02.256Z</time>
      </trkpt>
      <trkpt lat="45.54532" lon="4.70269">
        <ele>343</ele>
        <time>2018-08-15T09:23:03.267Z</time>
      </trkpt>
      <trkpt lat="45.54532" lon="4.7028">
        <ele>343</ele>
        <time>2018-08-15T09:23:04.240Z</time>
      </trkpt>
      <trkpt lat="45.54532" lon="4.7028">
        <ele>343</ele>
        <time>2018-08-15T09:23:05.261Z</time>
      </trkpt>
      <trkpt lat="45.54532" lon="4.70291">
        <ele>344</ele>
        <time>2018-08-15T09:23:06.302Z</time>
      </trkpt>
      <trkpt lat="45.54532" lon="4.70291">
        <ele>344</ele>
        <time>2018-08-15T09:23:07.245Z</time>
      </trkpt>
      <trkpt lat="45.54533" lon="4.70303">
        <ele>344</ele>
        <time>2018-08-15T09:23:08.246Z</time>
      </trkpt>
      <trkpt lat="45.54533" lon="4.70303">
        <ele>344</ele>
        <time>2018-08-15T09:23:09.267Z</time>
      </trkpt>
      <trkpt lat="45.54533" lon="4.70316">
        <ele>344</ele>
        <time>2018-08-15T09:23:10.256Z</time>
      </trkpt>
      <trkpt lat="45.54533" lon="4.70316">
        <ele>344</ele>
        <time>2018-08-15T09:23:11.266Z</time>
      </trkpt>
      <trkpt lat="45.54531" lon="4.7033">
        <ele>344</ele>
        <time>2018-08-15T09:23:12.266Z</time>
      </trkpt>
      <trkpt lat="45.54531" lon="4.7033">
        <ele>344</ele>
        <time>2018-08-15T09:23:13.241Z</time>
      </trkpt>
      <trkpt lat="45.54531" lon="4.70345">
        <ele>343</ele>
        <time>2018-08-15T09:23:14.239Z</time>
      </trkpt>
      <trkpt lat="45.54531" lon="4.70345">
        <ele>343</ele>
        <time>2018-08-15T09:23:15.237Z</time>
      </trkpt>
      <trkpt lat="45.54531" lon="4.7036">
        <ele>342</ele>
        <time>2018-08-15T09:23:16.266Z</time>
      </trkpt>
      <trkpt lat="45.54531" lon="4.7036">
        <ele>342</ele>
        <time>2018-08-15T09:23:17.256Z</time>
      </trkpt>
      <trkpt lat="45.5453" lon="4.70376">
        <ele>341</ele>
        <time>2018-08-15T09:23:18.245Z</time>
      </trkpt>
      <trkpt lat="45.5453" lon="4.70385">
        <ele>341</ele>
        <time>2018-08-15T09:23:19.266Z</time>
      </trkpt>
      <trkpt lat="45.5453" lon="4.70393">
        <ele>341</ele>
        <time>2018-08-15T09:23:20.259Z</time>
      </trkpt>
      <trkpt lat="45.5453" lon="4.70393">
        <ele>341</ele>
        <time>2018-08-15T09:23:21.240Z</time>
      </trkpt>
      <trkpt lat="45.54529" lon="4.70409">
        <ele>341</ele>
        <time>2018-08-15T09:23:22.245Z</time>
      </trkpt>
      <trkpt lat="45.54529" lon="4.70409">
        <ele>341</ele>
        <time>2018-08-15T09:23:23.251Z</time>
      </trkpt>
      <trkpt lat="45.54528" lon="4.70424">
        <ele>341</ele>
        <time>2018-08-15T09:23:24.245Z</time>
      </trkpt>
      <trkpt lat="45.54528" lon="4.70424">
        <ele>341</ele>
        <time>2018-08-15T09:23:25.264Z</time>
      </trkpt>
      <trkpt lat="45.54528" lon="4.70438">
        <ele>341</ele>
        <time>2018-08-15T09:23:26.258Z</time>
      </trkpt>
      <trkpt lat="45.54528" lon="4.70438">
        <ele>341</ele>
        <time>2018-08-15T09:23:27.258Z</time>
      </trkpt>
      <trkpt lat="45.54529" lon="4.70451">
        <ele>342</ele>
        <time>2018-08-15T09:23:28.257Z</time>
      </trkpt>
      <trkpt lat="45.54529" lon="4.70451">
        <ele>342</ele>
        <time>2018-08-15T09:23:29.269Z</time>
      </trkpt>
      <trkpt lat="45.5453" lon="4.70463">
        <ele>342</ele>
        <time>2018-08-15T09:23:30.269Z</time>
      </trkpt>
      <trkpt lat="45.5453" lon="4.70463">
        <ele>342</ele>
        <time>2018-08-15T09:23:31.250Z</time>
      </trkpt>
      <trkpt lat="45.54533" lon="4.70474">
        <ele>342</ele>
        <time>2018-08-15T09:23:32.245Z</time>
      </trkpt>
      <trkpt lat="45.54533" lon="4.70474">
        <ele>342</ele>
        <time>2018-08-15T09:23:33.261Z</time>
      </trkpt>
      <trkpt lat="45.54538" lon="4.70483">
        <ele>342</ele>
        <time>2018-08-15T09:23:34.262Z</time>
      </trkpt>
      <trkpt lat="45.54538" lon="4.70483">
        <ele>342</ele>
        <time>2018-08-15T09:23:35.269Z</time>
      </trkpt>
      <trkpt lat="45.54543" lon="4.7049">
        <ele>342</ele>
        <time>2018-08-15T09:23:36.256Z</time>
      </trkpt>
      <trkpt lat="45.54543" lon="4.7049">
        <ele>342</ele>
        <time>2018-08-15T09:23:37.247Z</time>
      </trkpt>
      <trkpt lat="45.54548" lon="4.70497">
        <ele>342</ele>
        <time>2018-08-15T09:23:38.236Z</time>
      </trkpt>
      <trkpt lat="45.54548" lon="4.70497">
        <ele>342</ele>
        <time>2018-08-15T09:23:39.268Z</time>
      </trkpt>
      <trkpt lat="45.54553" lon="4.70504">
        <ele>342</ele>
        <time>2018-08-15T09:23:40.268Z</time>
      </trkpt>
      <trkpt lat="45.54553" lon="4.70504">
        <ele>342</ele>
        <time>2018-08-15T09:23:41.239Z</time>
      </trkpt>
      <trkpt lat="45.54558" lon="4.7051">
        <ele>342</ele>
        <time>2018-08-15T09:23:42.234Z</time>
      </trkpt>
      <trkpt lat="45.54558" lon="4.7051">
        <ele>342</ele>
        <time>2018-08-15T09:23:43.249Z</time>
      </trkpt>
      <trkpt lat="45.54563" lon="4.70517">
        <ele>342</ele>
        <time>2018-08-15T09:23:44.247Z</time>
      </trkpt>
      <trkpt lat="45.54563" lon="4.70517">
        <ele>342</ele>
        <time>2018-08-15T09:23:45.238Z</time>
      </trkpt>
      <trkpt lat="45.54568" lon="4.70523">
        <ele>342</ele>
        <time>2018-08-15T09:23:46.240Z</time>
      </trkpt>
      <trkpt lat="45.54568" lon="4.70523">
        <ele>342</ele>
        <time>2018-08-15T09:23:47.250Z</time>
      </trkpt>
      <trkpt lat="45.54572" lon="4.7053">
        <ele>343</ele>
        <time>2018-08-15T09:23:48.253Z</time>
      </trkpt>
      <trkpt lat="45.54572" lon="4.7053">
        <ele>343</ele>
        <time>2018-08-15T09:23:49.264Z</time>
      </trkpt>
      <trkpt lat="45.54577" lon="4.70537">
        <ele>343</ele>
        <time>2018-08-15T09:23:50.265Z</time>
      </trkpt>
      <trkpt lat="45.54577" lon="4.70537">
        <ele>343</ele>
        <time>2018-08-15T09:23:51.255Z</time>
      </trkpt>
      <trkpt lat="45.54582" lon="4.70543">
        <ele>343</ele>
        <time>2018-08-15T09:23:52.243Z</time>
      </trkpt>
      <trkpt lat="45.54582" lon="4.70543">
        <ele>343</ele>
        <time>2018-08-15T09:23:53.255Z</time>
      </trkpt>
      <trkpt lat="45.54587" lon="4.70549">
        <ele>344</ele>
        <time>2018-08-15T09:23:54.244Z</time>
      </trkpt>
      <trkpt lat="45.54587" lon="4.70549">
        <ele>344</ele>
        <time>2018-08-15T09:23:55.251Z</time>
      </trkpt>
      <trkpt lat="45.54592" lon="4.70554">
        <ele>345</ele>
        <time>2018-08-15T09:23:56.245Z</time>
      </trkpt>
      <trkpt lat="45.54592" lon="4.70554">
        <ele>345</ele>
        <time>2018-08-15T09:23:57.261Z</time>
      </trkpt>
      <trkpt lat="45.54597" lon="4.70559">
        <ele>345</ele>
        <time>2018-08-15T09:23:58.262Z</time>
      </trkpt>
      <trkpt lat="45.54597" lon="4.70559">
        <ele>345</ele>
        <time>2018-08-15T09:23:59.265Z</time>
      </trkpt>
      <trkpt lat="45.54601" lon="4.70565">
        <ele>346</ele>
        <time>2018-08-15T09:24:00.258Z</time>
      </trkpt>
      <trkpt lat="45.54601" lon="4.70565">
        <ele>346</ele>
        <time>2018-08-15T09:24:01.256Z</time>
      </trkpt>
      <trkpt lat="45.54607" lon="4.70569">
        <ele>347</ele>
        <time>2018-08-15T09:24:02.254Z</time>
      </trkpt>
      <trkpt lat="45.54607" lon="4.70569">
        <ele>347</ele>
        <time>2018-08-15T09:24:03.258Z</time>
      </trkpt>
      <trkpt lat="45.54612" lon="4.70574">
        <ele>347</ele>
        <time>2018-08-15T09:24:04.254Z</time>
      </trkpt>
      <trkpt lat="45.54612" lon="4.70574">
        <ele>347</ele>
        <time>2018-08-15T09:24:05.251Z</time>
      </trkpt>
      <trkpt lat="45.54617" lon="4.70579">
        <ele>348</ele>
        <time>2018-08-15T09:24:06.235Z</time>
      </trkpt>
      <trkpt lat="45.54617" lon="4.70579">
        <ele>348</ele>
        <time>2018-08-15T09:24:07.250Z</time>
      </trkpt>
      <trkpt lat="45.54623" lon="4.70584">
        <ele>348</ele>
        <time>2018-08-15T09:24:08.245Z</time>
      </trkpt>
      <trkpt lat="45.54623" lon="4.70584">
        <ele>348</ele>
        <time>2018-08-15T09:24:09.258Z</time>
      </trkpt>
      <trkpt lat="45.54629" lon="4.7059">
        <ele>348</ele>
        <time>2018-08-15T09:24:10.255Z</time>
      </trkpt>
      <trkpt lat="45.54629" lon="4.7059">
        <ele>348</ele>
        <time>2018-08-15T09:24:11.267Z</time>
      </trkpt>
      <trkpt lat="45.54636" lon="4.70595">
        <ele>348</ele>
        <time>2018-08-15T09:24:12.251Z</time>
      </trkpt>
      <trkpt lat="45.54636" lon="4.70595">
        <ele>348</ele>
        <time>2018-08-15T09:24:13.237Z</time>
      </trkpt>
      <trkpt lat="45.54643" lon="4.706">
        <ele>348</ele>
        <time>2018-08-15T09:24:14.265Z</time>
      </trkpt>
      <trkpt lat="45.54643" lon="4.706">
        <ele>348</ele>
        <time>2018-08-15T09:24:15.247Z</time>
      </trkpt>
      <trkpt lat="45.54651" lon="4.70604">
        <ele>349</ele>
        <time>2018-08-15T09:24:16.236Z</time>
      </trkpt>
      <trkpt lat="45.54651" lon="4.70604">
        <ele>349</ele>
        <time>2018-08-15T09:24:17.247Z</time>
      </trkpt>
      <trkpt lat="45.5466" lon="4.70608">
        <ele>349</ele>
        <time>2018-08-15T09:24:18.233Z</time>
      </trkpt>
      <trkpt lat="45.5466" lon="4.70608">
        <ele>349</ele>
        <time>2018-08-15T09:24:19.267Z</time>
      </trkpt>
      <trkpt lat="45.5467" lon="4.7061">
        <ele>348</ele>
        <time>2018-08-15T09:24:20.276Z</time>
      </trkpt>
      <trkpt lat="45.5467" lon="4.7061">
        <ele>348</ele>
        <time>2018-08-15T09:24:21.247Z</time>
      </trkpt>
      <trkpt lat="45.54681" lon="4.70612">
        <ele>348</ele>
        <time>2018-08-15T09:24:22.244Z</time>
      </trkpt>
      <trkpt lat="45.54681" lon="4.70612">
        <ele>348</ele>
        <time>2018-08-15T09:24:23.265Z</time>
      </trkpt>
      <trkpt lat="45.54692" lon="4.70614">
        <ele>348</ele>
        <time>2018-08-15T09:24:24.257Z</time>
      </trkpt>
      <trkpt lat="45.54692" lon="4.70614">
        <ele>348</ele>
        <time>2018-08-15T09:24:25.239Z</time>
      </trkpt>
      <trkpt lat="45.54703" lon="4.70616">
        <ele>347</ele>
        <time>2018-08-15T09:24:26.235Z</time>
      </trkpt>
      <trkpt lat="45.54703" lon="4.70616">
        <ele>347</ele>
        <time>2018-08-15T09:24:27.250Z</time>
      </trkpt>
      <trkpt lat="45.54714" lon="4.70616">
        <ele>347</ele>
        <time>2018-08-15T09:24:28.238Z</time>
      </trkpt>
      <trkpt lat="45.54714" lon="4.70616">
        <ele>347</ele>
        <time>2018-08-15T09:24:29.248Z</time>
      </trkpt>
      <trkpt lat="45.54725" lon="4.70616">
        <ele>347</ele>
        <time>2018-08-15T09:24:30.241Z</time>
      </trkpt>
      <trkpt lat="45.54725" lon="4.70616">
        <ele>347</ele>
        <time>2018-08-15T09:24:31.250Z</time>
      </trkpt>
      <trkpt lat="45.54736" lon="4.70616">
        <ele>347</ele>
        <time>2018-08-15T09:24:32.247Z</time>
      </trkpt>
      <trkpt lat="45.54736" lon="4.70616">
        <ele>347</ele>
        <time>2018-08-15T09:24:33.248Z</time>
      </trkpt>
      <trkpt lat="45.54747" lon="4.70616">
        <ele>347</ele>
        <time>2018-08-15T09:24:34.239Z</time>
      </trkpt>
      <trkpt lat="45.54747" lon="4.70616">
        <ele>347</ele>
        <time>2018-08-15T09:24:35.262Z</time>
      </trkpt>
      <trkpt lat="45.54759" lon="4.70617">
        <ele>347</ele>
        <time>2018-08-15T09:24:36.262Z</time>
      </trkpt>
      <trkpt lat="45.54759" lon="4.70617">
        <ele>347</ele>
        <time>2018-08-15T09:24:37.234Z</time>
      </trkpt>
      <trkpt lat="45.54771" lon="4.70621">
        <ele>346</ele>
        <time>2018-08-15T09:24:38.237Z</time>
      </trkpt>
      <trkpt lat="45.54771" lon="4.70621">
        <ele>346</ele>
        <time>2018-08-15T09:24:39.250Z</time>
      </trkpt>
      <trkpt lat="45.54782" lon="4.70626">
        <ele>346</ele>
        <time>2018-08-15T09:24:40.246Z</time>
      </trkpt>
      <trkpt lat="45.54782" lon="4.70626">
        <ele>346</ele>
        <time>2018-08-15T09:24:41.265Z</time>
      </trkpt>
      <trkpt lat="45.54792" lon="4.70632">
        <ele>345</ele>
        <time>2018-08-15T09:24:42.256Z</time>
      </trkpt>
      <trkpt lat="45.54792" lon="4.70632">
        <ele>345</ele>
        <time>2018-08-15T09:24:43.248Z</time>
      </trkpt>
      <trkpt lat="45.54803" lon="4.70638">
        <ele>345</ele>
        <time>2018-08-15T09:24:44.266Z</time>
      </trkpt>
      <trkpt lat="45.54803" lon="4.70638">
        <ele>345</ele>
        <time>2018-08-15T09:24:45.267Z</time>
      </trkpt>
      <trkpt lat="45.54814" lon="4.70645">
        <ele>345</ele>
        <time>2018-08-15T09:24:46.257Z</time>
      </trkpt>
      <trkpt lat="45.54814" lon="4.70645">
        <ele>345</ele>
        <time>2018-08-15T09:24:47.243Z</time>
      </trkpt>
      <trkpt lat="45.54825" lon="4.70654">
        <ele>344</ele>
        <time>2018-08-15T09:24:48.242Z</time>
      </trkpt>
      <trkpt lat="45.54825" lon="4.70654">
        <ele>344</ele>
        <time>2018-08-15T09:24:49.232Z</time>
      </trkpt>
      <trkpt lat="45.54835" lon="4.70666">
        <ele>344</ele>
        <time>2018-08-15T09:24:50.265Z</time>
      </trkpt>
      <trkpt lat="45.54835" lon="4.70666">
        <ele>344</ele>
        <time>2018-08-15T09:24:51.258Z</time>
      </trkpt>
      <trkpt lat="45.54845" lon="4.70679">
        <ele>343</ele>
        <time>2018-08-15T09:24:52.263Z</time>
      </trkpt>
      <trkpt lat="45.54845" lon="4.70679">
        <ele>343</ele>
        <time>2018-08-15T09:24:53.247Z</time>
      </trkpt>
      <trkpt lat="45.54853" lon="4.70694">
        <ele>343</ele>
        <time>2018-08-15T09:24:54.251Z</time>
      </trkpt>
      <trkpt lat="45.54853" lon="4.70694">
        <ele>343</ele>
        <time>2018-08-15T09:24:55.264Z</time>
      </trkpt>
      <trkpt lat="45.5486" lon="4.7071">
        <ele>343</ele>
        <time>2018-08-15T09:24:56.236Z</time>
      </trkpt>
      <trkpt lat="45.5486" lon="4.7071">
        <ele>343</ele>
        <time>2018-08-15T09:24:57.259Z</time>
      </trkpt>
      <trkpt lat="45.54865" lon="4.70728">
        <ele>342</ele>
        <time>2018-08-15T09:24:58.243Z</time>
      </trkpt>
      <trkpt lat="45.54865" lon="4.70728">
        <ele>342</ele>
        <time>2018-08-15T09:24:59.250Z</time>
      </trkpt>
      <trkpt lat="45.54868" lon="4.70746">
        <ele>342</ele>
        <time>2018-08-15T09:25:00.246Z</time>
      </trkpt>
      <trkpt lat="45.54869" lon="4.70755">
        <ele>342</ele>
        <time>2018-08-15T09:25:01.261Z</time>
      </trkpt>
      <trkpt lat="45.54869" lon="4.70755">
        <ele>342</ele>
        <time>2018-08-15T09:25:02.269Z</time>
      </trkpt>
      <trkpt lat="45.5487" lon="4.70774">
        <ele>342</ele>
        <time>2018-08-15T09:25:03.238Z</time>
      </trkpt>
      <trkpt lat="45.5487" lon="4.70774">
        <ele>342</ele>
        <time>2018-08-15T09:25:04.241Z</time>
      </trkpt>
      <trkpt lat="45.54871" lon="4.70791">
        <ele>342</ele>
        <time>2018-08-15T09:25:05.244Z</time>
      </trkpt>
      <trkpt lat="45.54871" lon="4.70798">
        <ele>342</ele>
        <time>2018-08-15T09:25:06.266Z</time>
      </trkpt>
      <trkpt lat="45.54871" lon="4.70798">
        <ele>342</ele>
        <time>2018-08-15T09:25:07.247Z</time>
      </trkpt>
      <trkpt lat="45.5487" lon="4.70813">
        <ele>343</ele>
        <time>2018-08-15T09:25:08.313Z</time>
      </trkpt>
      <trkpt lat="45.5487" lon="4.70813">
        <ele>343</ele>
        <time>2018-08-15T09:25:09.268Z</time>
      </trkpt>
      <trkpt lat="45.54869" lon="4.70826">
        <ele>343</ele>
        <time>2018-08-15T09:25:10.264Z</time>
      </trkpt>
      <trkpt lat="45.54869" lon="4.70833">
        <ele>343</ele>
        <time>2018-08-15T09:25:11.247Z</time>
      </trkpt>
      <trkpt lat="45.54869" lon="4.70833">
        <ele>343</ele>
        <time>2018-08-15T09:25:12.261Z</time>
      </trkpt>
      <trkpt lat="45.54868" lon="4.70846">
        <ele>344</ele>
        <time>2018-08-15T09:25:13.256Z</time>
      </trkpt>
      <trkpt lat="45.54868" lon="4.70852">
        <ele>345</ele>
        <time>2018-08-15T09:25:14.256Z</time>
      </trkpt>
      <trkpt lat="45.54868" lon="4.70852">
        <ele>345</ele>
        <time>2018-08-15T09:25:15.252Z</time>
      </trkpt>
      <trkpt lat="45.54867" lon="4.70864">
        <ele>346</ele>
        <time>2018-08-15T09:25:16.253Z</time>
      </trkpt>
      <trkpt lat="45.54867" lon="4.70864">
        <ele>346</ele>
        <time>2018-08-15T09:25:17.247Z</time>
      </trkpt>
      <trkpt lat="45.54866" lon="4.70876">
        <ele>346</ele>
        <time>2018-08-15T09:25:18.252Z</time>
      </trkpt>
      <trkpt lat="45.54866" lon="4.70876">
        <ele>346</ele>
        <time>2018-08-15T09:25:19.264Z</time>
      </trkpt>
      <trkpt lat="45.54866" lon="4.70888">
        <ele>347</ele>
        <time>2018-08-15T09:25:20.267Z</time>
      </trkpt>
      <trkpt lat="45.54866" lon="4.70888">
        <ele>347</ele>
        <time>2018-08-15T09:25:21.237Z</time>
      </trkpt>
      <trkpt lat="45.54866" lon="4.709">
        <ele>347</ele>
        <time>2018-08-15T09:25:22.258Z</time>
      </trkpt>
      <trkpt lat="45.54866" lon="4.709">
        <ele>347</ele>
        <time>2018-08-15T09:25:23.263Z</time>
      </trkpt>
      <trkpt lat="45.54865" lon="4.70911">
        <ele>348</ele>
        <time>2018-08-15T09:25:24.262Z</time>
      </trkpt>
      <trkpt lat="45.54865" lon="4.70911">
        <ele>348</ele>
        <time>2018-08-15T09:25:25.267Z</time>
      </trkpt>
      <trkpt lat="45.54864" lon="4.70923">
        <ele>349</ele>
        <time>2018-08-15T09:25:26.264Z</time>
      </trkpt>
      <trkpt lat="45.54864" lon="4.70923">
        <ele>349</ele>
        <time>2018-08-15T09:25:27.242Z</time>
      </trkpt>
      <trkpt lat="45.54864" lon="4.70935">
        <ele>349</ele>
        <time>2018-08-15T09:25:28.239Z</time>
      </trkpt>
      <trkpt lat="45.54864" lon="4.70935">
        <ele>349</ele>
        <time>2018-08-15T09:25:29.249Z</time>
      </trkpt>
      <trkpt lat="45.54864" lon="4.70947">
        <ele>350</ele>
        <time>2018-08-15T09:25:30.260Z</time>
      </trkpt>
      <trkpt lat="45.54864" lon="4.70947">
        <ele>350</ele>
        <time>2018-08-15T09:25:31.265Z</time>
      </trkpt>
      <trkpt lat="45.54863" lon="4.70958">
        <ele>350</ele>
        <time>2018-08-15T09:25:32.246Z</time>
      </trkpt>
      <trkpt lat="45.54863" lon="4.70958">
        <ele>350</ele>
        <time>2018-08-15T09:25:33.241Z</time>
      </trkpt>
      <trkpt lat="45.54862" lon="4.70968">
        <ele>350</ele>
        <time>2018-08-15T09:25:34.268Z</time>
      </trkpt>
      <trkpt lat="45.54862" lon="4.70968">
        <ele>350</ele>
        <time>2018-08-15T09:25:35.249Z</time>
      </trkpt>
      <trkpt lat="45.54861" lon="4.70977">
        <ele>351</ele>
        <time>2018-08-15T09:25:36.263Z</time>
      </trkpt>
      <trkpt lat="45.54861" lon="4.70977">
        <ele>351</ele>
        <time>2018-08-15T09:25:37.267Z</time>
      </trkpt>
      <trkpt lat="45.54861" lon="4.70987">
        <ele>351</ele>
        <time>2018-08-15T09:25:38.263Z</time>
      </trkpt>
      <trkpt lat="45.54861" lon="4.70987">
        <ele>351</ele>
        <time>2018-08-15T09:25:39.258Z</time>
      </trkpt>
      <trkpt lat="45.5486" lon="4.70996">
        <ele>351</ele>
        <time>2018-08-15T09:25:40.241Z</time>
      </trkpt>
      <trkpt lat="45.5486" lon="4.70996">
        <ele>351</ele>
        <time>2018-08-15T09:25:41.246Z</time>
      </trkpt>
      <trkpt lat="45.54859" lon="4.71006">
        <ele>352</ele>
        <time>2018-08-15T09:25:42.246Z</time>
      </trkpt>
      <trkpt lat="45.54858" lon="4.7101">
        <ele>353</ele>
        <time>2018-08-15T09:25:43.235Z</time>
      </trkpt>
      <trkpt lat="45.54858" lon="4.71014">
        <ele>353</ele>
        <time>2018-08-15T09:25:44.236Z</time>
      </trkpt>
      <trkpt lat="45.54858" lon="4.71014">
        <ele>353</ele>
        <time>2018-08-15T09:25:45.241Z</time>
      </trkpt>
      <trkpt lat="45.54857" lon="4.71023">
        <ele>354</ele>
        <time>2018-08-15T09:25:46.237Z</time>
      </trkpt>
      <trkpt lat="45.54857" lon="4.71023">
        <ele>354</ele>
        <time>2018-08-15T09:25:47.242Z</time>
      </trkpt>
      <trkpt lat="45.54856" lon="4.71031">
        <ele>355</ele>
        <time>2018-08-15T09:25:48.234Z</time>
      </trkpt>
      <trkpt lat="45.54856" lon="4.71031">
        <ele>355</ele>
        <time>2018-08-15T09:25:49.239Z</time>
      </trkpt>
      <trkpt lat="45.54855" lon="4.71039">
        <ele>355</ele>
        <time>2018-08-15T09:25:50.267Z</time>
      </trkpt>
      <trkpt lat="45.54855" lon="4.71039">
        <ele>355</ele>
        <time>2018-08-15T09:25:51.249Z</time>
      </trkpt>
      <trkpt lat="45.54855" lon="4.71048">
        <ele>356</ele>
        <time>2018-08-15T09:25:52.257Z</time>
      </trkpt>
      <trkpt lat="45.54855" lon="4.71048">
        <ele>356</ele>
        <time>2018-08-15T09:25:53.263Z</time>
      </trkpt>
      <trkpt lat="45.54854" lon="4.71056">
        <ele>358</ele>
        <time>2018-08-15T09:25:54.256Z</time>
      </trkpt>
      <trkpt lat="45.54853" lon="4.7106">
        <ele>358</ele>
        <time>2018-08-15T09:25:55.236Z</time>
      </trkpt>
      <trkpt lat="45.54852" lon="4.71063">
        <ele>358</ele>
        <time>2018-08-15T09:25:56.268Z</time>
      </trkpt>
      <trkpt lat="45.54852" lon="4.71063">
        <ele>358</ele>
        <time>2018-08-15T09:25:57.246Z</time>
      </trkpt>
      <trkpt lat="45.5485" lon="4.71071">
        <ele>359</ele>
        <time>2018-08-15T09:25:58.246Z</time>
      </trkpt>
      <trkpt lat="45.5485" lon="4.71071">
        <ele>359</ele>
        <time>2018-08-15T09:25:59.257Z</time>
      </trkpt>
      <trkpt lat="45.54848" lon="4.71078">
        <ele>359</ele>
        <time>2018-08-15T09:26:00.247Z</time>
      </trkpt>
      <trkpt lat="45.54848" lon="4.71078">
        <ele>359</ele>
        <time>2018-08-15T09:26:01.269Z</time>
      </trkpt>
      <trkpt lat="45.54846" lon="4.71084">
        <ele>360</ele>
        <time>2018-08-15T09:26:02.265Z</time>
      </trkpt>
      <trkpt lat="45.54846" lon="4.71084">
        <ele>360</ele>
        <time>2018-08-15T09:26:03.259Z</time>
      </trkpt>
      <trkpt lat="45.54842" lon="4.71091">
        <ele>360</ele>
        <time>2018-08-15T09:26:04.265Z</time>
      </trkpt>
      <trkpt lat="45.54842" lon="4.71091">
        <ele>360</ele>
        <time>2018-08-15T09:26:05.243Z</time>
      </trkpt>
      <trkpt lat="45.5484" lon="4.71098">
        <ele>361</ele>
        <time>2018-08-15T09:26:06.235Z</time>
      </trkpt>
      <trkpt lat="45.54838" lon="4.71102">
        <ele>361</ele>
        <time>2018-08-15T09:26:07.233Z</time>
      </trkpt>
      <trkpt lat="45.54837" lon="4.71105">
        <ele>361</ele>
        <time>2018-08-15T09:26:08.239Z</time>
      </trkpt>
      <trkpt lat="45.54837" lon="4.71105">
        <ele>361</ele>
        <time>2018-08-15T09:26:09.247Z</time>
      </trkpt>
      <trkpt lat="45.54833" lon="4.71111">
        <ele>362</ele>
        <time>2018-08-15T09:26:10.234Z</time>
      </trkpt>
      <trkpt lat="45.54833" lon="4.71111">
        <ele>362</ele>
        <time>2018-08-15T09:26:11.262Z</time>
      </trkpt>
      <trkpt lat="45.5483" lon="4.71117">
        <ele>362</ele>
        <time>2018-08-15T09:26:12.257Z</time>
      </trkpt>
      <trkpt lat="45.5483" lon="4.71117">
        <ele>362</ele>
        <time>2018-08-15T09:26:13.265Z</time>
      </trkpt>
      <trkpt lat="45.54827" lon="4.71124">
        <ele>362</ele>
        <time>2018-08-15T09:26:14.273Z</time>
      </trkpt>
      <trkpt lat="45.54827" lon="4.71124">
        <ele>362</ele>
        <time>2018-08-15T09:26:15.247Z</time>
      </trkpt>
      <trkpt lat="45.54823" lon="4.71131">
        <ele>362</ele>
        <time>2018-08-15T09:26:16.237Z</time>
      </trkpt>
      <trkpt lat="45.54823" lon="4.71131">
        <ele>362</ele>
        <time>2018-08-15T09:26:17.263Z</time>
      </trkpt>
      <trkpt lat="45.54819" lon="4.71139">
        <ele>362</ele>
        <time>2018-08-15T09:26:18.257Z</time>
      </trkpt>
      <trkpt lat="45.54819" lon="4.71139">
        <ele>362</ele>
        <time>2018-08-15T09:26:19.236Z</time>
      </trkpt>
      <trkpt lat="45.54815" lon="4.71148">
        <ele>362</ele>
        <time>2018-08-15T09:26:20.236Z</time>
      </trkpt>
      <trkpt lat="45.54815" lon="4.71148">
        <ele>362</ele>
        <time>2018-08-15T09:26:21.249Z</time>
      </trkpt>
      <trkpt lat="45.5481" lon="4.71158">
        <ele>363</ele>
        <time>2018-08-15T09:26:22.244Z</time>
      </trkpt>
      <trkpt lat="45.5481" lon="4.71158">
        <ele>363</ele>
        <time>2018-08-15T09:26:23.245Z</time>
      </trkpt>
      <trkpt lat="45.54806" lon="4.71168">
        <ele>362</ele>
        <time>2018-08-15T09:26:24.237Z</time>
      </trkpt>
      <trkpt lat="45.54806" lon="4.71168">
        <ele>362</ele>
        <time>2018-08-15T09:26:25.251Z</time>
      </trkpt>
      <trkpt lat="45.54801" lon="4.71178">
        <ele>361</ele>
        <time>2018-08-15T09:26:26.241Z</time>
      </trkpt>
      <trkpt lat="45.54801" lon="4.71178">
        <ele>361</ele>
        <time>2018-08-15T09:26:27.256Z</time>
      </trkpt>
      <trkpt lat="45.54795" lon="4.7119">
        <ele>361</ele>
        <time>2018-08-15T09:26:28.247Z</time>
      </trkpt>
      <trkpt lat="45.54795" lon="4.7119">
        <ele>361</ele>
        <time>2018-08-15T09:26:29.264Z</time>
      </trkpt>
      <trkpt lat="45.5479" lon="4.71202">
        <ele>361</ele>
        <time>2018-08-15T09:26:30.232Z</time>
      </trkpt>
      <trkpt lat="45.5479" lon="4.71202">
        <ele>361</ele>
        <time>2018-08-15T09:26:31.256Z</time>
      </trkpt>
      <trkpt lat="45.54785" lon="4.71216">
        <ele>360</ele>
        <time>2018-08-15T09:26:32.275Z</time>
      </trkpt>
      <trkpt lat="45.54785" lon="4.71216">
        <ele>360</ele>
        <time>2018-08-15T09:26:33.251Z</time>
      </trkpt>
      <trkpt lat="45.5478" lon="4.7123">
        <ele>360</ele>
        <time>2018-08-15T09:26:34.256Z</time>
      </trkpt>
      <trkpt lat="45.5478" lon="4.7123">
        <ele>360</ele>
        <time>2018-08-15T09:26:35.263Z</time>
      </trkpt>
      <trkpt lat="45.54775" lon="4.71243">
        <ele>361</ele>
        <time>2018-08-15T09:26:36.305Z</time>
      </trkpt>
      <trkpt lat="45.54774" lon="4.7125">
        <ele>360</ele>
        <time>2018-08-15T09:26:37.236Z</time>
      </trkpt>
      <trkpt lat="45.54773" lon="4.71257">
        <ele>360</ele>
        <time>2018-08-15T09:26:38.242Z</time>
      </trkpt>
      <trkpt lat="45.54773" lon="4.71257">
        <ele>360</ele>
        <time>2018-08-15T09:26:39.264Z</time>
      </trkpt>
      <trkpt lat="45.54773" lon="4.71271">
        <ele>360</ele>
        <time>2018-08-15T09:26:40.253Z</time>
      </trkpt>
      <trkpt lat="45.54773" lon="4.71271">
        <ele>360</ele>
        <time>2018-08-15T09:26:41.239Z</time>
      </trkpt>
      <trkpt lat="45.54775" lon="4.71284">
        <ele>360</ele>
        <time>2018-08-15T09:26:42.239Z</time>
      </trkpt>
      <trkpt lat="45.54775" lon="4.71284">
        <ele>360</ele>
        <time>2018-08-15T09:26:43.249Z</time>
      </trkpt>
      <trkpt lat="45.54778" lon="4.71296">
        <ele>360</ele>
        <time>2018-08-15T09:26:44.247Z</time>
      </trkpt>
      <trkpt lat="45.54778" lon="4.71296">
        <ele>360</ele>
        <time>2018-08-15T09:26:45.249Z</time>
      </trkpt>
      <trkpt lat="45.54782" lon="4.71307">
        <ele>360</ele>
        <time>2018-08-15T09:26:46.238Z</time>
      </trkpt>
      <trkpt lat="45.54782" lon="4.71307">
        <ele>360</ele>
        <time>2018-08-15T09:26:47.255Z</time>
      </trkpt>
      <trkpt lat="45.54787" lon="4.71316">
        <ele>360</ele>
        <time>2018-08-15T09:26:48.247Z</time>
      </trkpt>
      <trkpt lat="45.54787" lon="4.71316">
        <ele>360</ele>
        <time>2018-08-15T09:26:49.246Z</time>
      </trkpt>
      <trkpt lat="45.54793" lon="4.71323">
        <ele>360</ele>
        <time>2018-08-15T09:26:50.244Z</time>
      </trkpt>
      <trkpt lat="45.54793" lon="4.71323">
        <ele>360</ele>
        <time>2018-08-15T09:26:51.251Z</time>
      </trkpt>
      <trkpt lat="45.54799" lon="4.71331">
        <ele>360</ele>
        <time>2018-08-15T09:26:52.232Z</time>
      </trkpt>
      <trkpt lat="45.54799" lon="4.71331">
        <ele>360</ele>
        <time>2018-08-15T09:26:53.271Z</time>
      </trkpt>
      <trkpt lat="45.54807" lon="4.71338">
        <ele>360</ele>
        <time>2018-08-15T09:26:54.257Z</time>
      </trkpt>
      <trkpt lat="45.54807" lon="4.71338">
        <ele>360</ele>
        <time>2018-08-15T09:26:55.268Z</time>
      </trkpt>
      <trkpt lat="45.54813" lon="4.71343">
        <ele>360</ele>
        <time>2018-08-15T09:26:56.260Z</time>
      </trkpt>
      <trkpt lat="45.54813" lon="4.71343">
        <ele>360</ele>
        <time>2018-08-15T09:26:57.257Z</time>
      </trkpt>
      <trkpt lat="45.5482" lon="4.71348">
        <ele>361</ele>
        <time>2018-08-15T09:26:58.254Z</time>
      </trkpt>
      <trkpt lat="45.5482" lon="4.71348">
        <ele>361</ele>
        <time>2018-08-15T09:26:59.242Z</time>
      </trkpt>
      <trkpt lat="45.54827" lon="4.71354">
        <ele>361</ele>
        <time>2018-08-15T09:27:00.270Z</time>
      </trkpt>
      <trkpt lat="45.54827" lon="4.71354">
        <ele>361</ele>
        <time>2018-08-15T09:27:01.263Z</time>
      </trkpt>
      <trkpt lat="45.54833" lon="4.7136">
        <ele>362</ele>
        <time>2018-08-15T09:27:02.252Z</time>
      </trkpt>
      <trkpt lat="45.54833" lon="4.7136">
        <ele>362</ele>
        <time>2018-08-15T09:27:03.271Z</time>
      </trkpt>
      <trkpt lat="45.54839" lon="4.71364">
        <ele>362</ele>
        <time>2018-08-15T09:27:04.275Z</time>
      </trkpt>
      <trkpt lat="45.54843" lon="4.71367">
        <ele>362</ele>
        <time>2018-08-15T09:27:05.233Z</time>
      </trkpt>
      <trkpt lat="45.54843" lon="4.71367">
        <ele>362</ele>
        <time>2018-08-15T09:27:06.248Z</time>
      </trkpt>
      <trkpt lat="45.54849" lon="4.71372">
        <ele>362</ele>
        <time>2018-08-15T09:27:07.244Z</time>
      </trkpt>
      <trkpt lat="45.54849" lon="4.71372">
        <ele>362</ele>
        <time>2018-08-15T09:27:08.239Z</time>
      </trkpt>
      <trkpt lat="45.54856" lon="4.71377">
        <ele>362</ele>
        <time>2018-08-15T09:27:09.240Z</time>
      </trkpt>
      <trkpt lat="45.54856" lon="4.71377">
        <ele>362</ele>
        <time>2018-08-15T09:27:10.243Z</time>
      </trkpt>
      <trkpt lat="45.54864" lon="4.7138">
        <ele>362</ele>
        <time>2018-08-15T09:27:11.236Z</time>
      </trkpt>
      <trkpt lat="45.54864" lon="4.7138">
        <ele>362</ele>
        <time>2018-08-15T09:27:12.259Z</time>
      </trkpt>
      <trkpt lat="45.54873" lon="4.71383">
        <ele>362</ele>
        <time>2018-08-15T09:27:13.283Z</time>
      </trkpt>
      <trkpt lat="45.54873" lon="4.71383">
        <ele>362</ele>
        <time>2018-08-15T09:27:14.269Z</time>
      </trkpt>
      <trkpt lat="45.54883" lon="4.71387">
        <ele>361</ele>
        <time>2018-08-15T09:27:15.267Z</time>
      </trkpt>
      <trkpt lat="45.54888" lon="4.7139">
        <ele>361</ele>
        <time>2018-08-15T09:27:16.234Z</time>
      </trkpt>
      <trkpt lat="45.54888" lon="4.7139">
        <ele>361</ele>
        <time>2018-08-15T09:27:17.247Z</time>
      </trkpt>
      <trkpt lat="45.54898" lon="4.71395">
        <ele>361</ele>
        <time>2018-08-15T09:27:18.239Z</time>
      </trkpt>
      <trkpt lat="45.54898" lon="4.71395">
        <ele>361</ele>
        <time>2018-08-15T09:27:19.251Z</time>
      </trkpt>
      <trkpt lat="45.54908" lon="4.71399">
        <ele>360</ele>
        <time>2018-08-15T09:27:20.247Z</time>
      </trkpt>
      <trkpt lat="45.54908" lon="4.71399">
        <ele>360</ele>
        <time>2018-08-15T09:27:21.255Z</time>
      </trkpt>
      <trkpt lat="45.54919" lon="4.71404">
        <ele>360</ele>
        <time>2018-08-15T09:27:22.242Z</time>
      </trkpt>
      <trkpt lat="45.54919" lon="4.71404">
        <ele>360</ele>
        <time>2018-08-15T09:27:23.252Z</time>
      </trkpt>
      <trkpt lat="45.54931" lon="4.7141">
        <ele>360</ele>
        <time>2018-08-15T09:27:24.266Z</time>
      </trkpt>
      <trkpt lat="45.54931" lon="4.7141">
        <ele>360</ele>
        <time>2018-08-15T09:27:25.271Z</time>
      </trkpt>
      <trkpt lat="45.54943" lon="4.71416">
        <ele>360</ele>
        <time>2018-08-15T09:27:26.269Z</time>
      </trkpt>
      <trkpt lat="45.54943" lon="4.71416">
        <ele>360</ele>
        <time>2018-08-15T09:27:27.250Z</time>
      </trkpt>
      <trkpt lat="45.54955" lon="4.71423">
        <ele>359</ele>
        <time>2018-08-15T09:27:28.246Z</time>
      </trkpt>
      <trkpt lat="45.54955" lon="4.71423">
        <ele>359</ele>
        <time>2018-08-15T09:27:29.252Z</time>
      </trkpt>
      <trkpt lat="45.54967" lon="4.7143">
        <ele>359</ele>
        <time>2018-08-15T09:27:30.245Z</time>
      </trkpt>
      <trkpt lat="45.54973" lon="4.71433">
        <ele>359</ele>
        <time>2018-08-15T09:27:31.274Z</time>
      </trkpt>
      <trkpt lat="45.54978" lon="4.71435">
        <ele>359</ele>
        <time>2018-08-15T09:27:32.266Z</time>
      </trkpt>
      <trkpt lat="45.54978" lon="4.71435">
        <ele>359</ele>
        <time>2018-08-15T09:27:33.245Z</time>
      </trkpt>
      <trkpt lat="45.54988" lon="4.71441">
        <ele>360</ele>
        <time>2018-08-15T09:27:34.267Z</time>
      </trkpt>
      <trkpt lat="45.54988" lon="4.71441">
        <ele>360</ele>
        <time>2018-08-15T09:27:35.261Z</time>
      </trkpt>
      <trkpt lat="45.54998" lon="4.71445">
        <ele>360</ele>
        <time>2018-08-15T09:27:36.232Z</time>
      </trkpt>
      <trkpt lat="45.54998" lon="4.71445">
        <ele>360</ele>
        <time>2018-08-15T09:27:37.264Z</time>
      </trkpt>
      <trkpt lat="45.55006" lon="4.7145">
        <ele>360</ele>
        <time>2018-08-15T09:27:38.253Z</time>
      </trkpt>
      <trkpt lat="45.55006" lon="4.7145">
        <ele>360</ele>
        <time>2018-08-15T09:27:39.246Z</time>
      </trkpt>
      <trkpt lat="45.55013" lon="4.71452">
        <ele>360</ele>
        <time>2018-08-15T09:27:40.239Z</time>
      </trkpt>
      <trkpt lat="45.55013" lon="4.71452">
        <ele>360</ele>
        <time>2018-08-15T09:27:41.250Z</time>
      </trkpt>
      <trkpt lat="45.55019" lon="4.71452">
        <ele>360</ele>
        <time>2018-08-15T09:27:42.234Z</time>
      </trkpt>
      <trkpt lat="45.55019" lon="4.71452">
        <ele>360</ele>
        <time>2018-08-15T09:27:43.237Z</time>
      </trkpt>
      <trkpt lat="45.55025" lon="4.71452">
        <ele>360</ele>
        <time>2018-08-15T09:27:44.234Z</time>
      </trkpt>
      <trkpt lat="45.55025" lon="4.71452">
        <ele>360</ele>
        <time>2018-08-15T09:27:45.253Z</time>
      </trkpt>
      <trkpt lat="45.5503" lon="4.71449">
        <ele>360</ele>
        <time>2018-08-15T09:27:46.237Z</time>
      </trkpt>
      <trkpt lat="45.5503" lon="4.71449">
        <ele>360</ele>
        <time>2018-08-15T09:27:47.248Z</time>
      </trkpt>
      <trkpt lat="45.55035" lon="4.71446">
        <ele>361</ele>
        <time>2018-08-15T09:27:48.240Z</time>
      </trkpt>
      <trkpt lat="45.55035" lon="4.71446">
        <ele>361</ele>
        <time>2018-08-15T09:27:49.259Z</time>
      </trkpt>
      <trkpt lat="45.55041" lon="4.71443">
        <ele>361</ele>
        <time>2018-08-15T09:27:50.241Z</time>
      </trkpt>
      <trkpt lat="45.55041" lon="4.71443">
        <ele>361</ele>
        <time>2018-08-15T09:27:51.245Z</time>
      </trkpt>
      <trkpt lat="45.55048" lon="4.71439">
        <ele>361</ele>
        <time>2018-08-15T09:27:52.235Z</time>
      </trkpt>
      <trkpt lat="45.55048" lon="4.71439">
        <ele>361</ele>
        <time>2018-08-15T09:27:53.246Z</time>
      </trkpt>
      <trkpt lat="45.55055" lon="4.71434">
        <ele>361</ele>
        <time>2018-08-15T09:27:54.242Z</time>
      </trkpt>
      <trkpt lat="45.55055" lon="4.71434">
        <ele>361</ele>
        <time>2018-08-15T09:27:55.233Z</time>
      </trkpt>
      <trkpt lat="45.5506" lon="4.71427">
        <ele>362</ele>
        <time>2018-08-15T09:27:56.264Z</time>
      </trkpt>
      <trkpt lat="45.5506" lon="4.71427">
        <ele>362</ele>
        <time>2018-08-15T09:27:57.234Z</time>
      </trkpt>
      <trkpt lat="45.55065" lon="4.71422">
        <ele>362</ele>
        <time>2018-08-15T09:27:58.249Z</time>
      </trkpt>
      <trkpt lat="45.55065" lon="4.71422">
        <ele>362</ele>
        <time>2018-08-15T09:27:59.256Z</time>
      </trkpt>
      <trkpt lat="45.5507" lon="4.71419">
        <ele>362</ele>
        <time>2018-08-15T09:28:00.240Z</time>
      </trkpt>
      <trkpt lat="45.5507" lon="4.71419">
        <ele>362</ele>
        <time>2018-08-15T09:28:01.247Z</time>
      </trkpt>
      <trkpt lat="45.55075" lon="4.71416">
        <ele>363</ele>
        <time>2018-08-15T09:28:02.256Z</time>
      </trkpt>
      <trkpt lat="45.55075" lon="4.71416">
        <ele>363</ele>
        <time>2018-08-15T09:28:03.267Z</time>
      </trkpt>
      <trkpt lat="45.55081" lon="4.71414">
        <ele>363</ele>
        <time>2018-08-15T09:28:04.276Z</time>
      </trkpt>
      <trkpt lat="45.55081" lon="4.71414">
        <ele>363</ele>
        <time>2018-08-15T09:28:05.247Z</time>
      </trkpt>
      <trkpt lat="45.55086" lon="4.71411">
        <ele>364</ele>
        <time>2018-08-15T09:28:06.234Z</time>
      </trkpt>
      <trkpt lat="45.5509" lon="4.7141">
        <ele>364</ele>
        <time>2018-08-15T09:28:07.256Z</time>
      </trkpt>
      <trkpt lat="45.5509" lon="4.7141">
        <ele>364</ele>
        <time>2018-08-15T09:28:08.242Z</time>
      </trkpt>
      <trkpt lat="45.55097" lon="4.71407">
        <ele>364</ele>
        <time>2018-08-15T09:28:09.254Z</time>
      </trkpt>
      <trkpt lat="45.55097" lon="4.71407">
        <ele>364</ele>
        <time>2018-08-15T09:28:10.249Z</time>
      </trkpt>
      <trkpt lat="45.55102" lon="4.71404">
        <ele>365</ele>
        <time>2018-08-15T09:28:11.248Z</time>
      </trkpt>
      <trkpt lat="45.55102" lon="4.71404">
        <ele>365</ele>
        <time>2018-08-15T09:28:12.242Z</time>
      </trkpt>
      <trkpt lat="45.55108" lon="4.71403">
        <ele>365</ele>
        <time>2018-08-15T09:28:13.236Z</time>
      </trkpt>
      <trkpt lat="45.55112" lon="4.71402">
        <ele>365</ele>
        <time>2018-08-15T09:28:14.258Z</time>
      </trkpt>
      <trkpt lat="45.55112" lon="4.71402">
        <ele>365</ele>
        <time>2018-08-15T09:28:15.266Z</time>
      </trkpt>
      <trkpt lat="45.55118" lon="4.71404">
        <ele>366</ele>
        <time>2018-08-15T09:28:16.266Z</time>
      </trkpt>
      <trkpt lat="45.55118" lon="4.71404">
        <ele>366</ele>
        <time>2018-08-15T09:28:17.242Z</time>
      </trkpt>
      <trkpt lat="45.55123" lon="4.71409">
        <ele>366</ele>
        <time>2018-08-15T09:28:18.236Z</time>
      </trkpt>
      <trkpt lat="45.55123" lon="4.71409">
        <ele>366</ele>
        <time>2018-08-15T09:28:19.242Z</time>
      </trkpt>
      <trkpt lat="45.55128" lon="4.71415">
        <ele>366</ele>
        <time>2018-08-15T09:28:20.240Z</time>
      </trkpt>
      <trkpt lat="45.55128" lon="4.71415">
        <ele>366</ele>
        <time>2018-08-15T09:28:21.248Z</time>
      </trkpt>
      <trkpt lat="45.55134" lon="4.71421">
        <ele>367</ele>
        <time>2018-08-15T09:28:22.232Z</time>
      </trkpt>
      <trkpt lat="45.55134" lon="4.71421">
        <ele>367</ele>
        <time>2018-08-15T09:28:23.254Z</time>
      </trkpt>
      <trkpt lat="45.55138" lon="4.71425">
        <ele>368</ele>
        <time>2018-08-15T09:28:24.256Z</time>
      </trkpt>
      <trkpt lat="45.55138" lon="4.71425">
        <ele>368</ele>
        <time>2018-08-15T09:28:25.269Z</time>
      </trkpt>
      <trkpt lat="45.55145" lon="4.71433">
        <ele>368</ele>
        <time>2018-08-15T09:28:26.261Z</time>
      </trkpt>
      <trkpt lat="45.55145" lon="4.71433">
        <ele>368</ele>
        <time>2018-08-15T09:28:27.267Z</time>
      </trkpt>
      <trkpt lat="45.55151" lon="4.71441">
        <ele>368</ele>
        <time>2018-08-15T09:28:28.250Z</time>
      </trkpt>
      <trkpt lat="45.55151" lon="4.71441">
        <ele>368</ele>
        <time>2018-08-15T09:28:29.255Z</time>
      </trkpt>
      <trkpt lat="45.55156" lon="4.71449">
        <ele>369</ele>
        <time>2018-08-15T09:28:30.254Z</time>
      </trkpt>
      <trkpt lat="45.55156" lon="4.71449">
        <ele>369</ele>
        <time>2018-08-15T09:28:31.259Z</time>
      </trkpt>
      <trkpt lat="45.55162" lon="4.71456">
        <ele>369</ele>
        <time>2018-08-15T09:28:32.246Z</time>
      </trkpt>
      <trkpt lat="45.55162" lon="4.71456">
        <ele>369</ele>
        <time>2018-08-15T09:28:33.252Z</time>
      </trkpt>
      <trkpt lat="45.55165" lon="4.71463">
        <ele>370</ele>
        <time>2018-08-15T09:28:34.252Z</time>
      </trkpt>
      <trkpt lat="45.55165" lon="4.71463">
        <ele>370</ele>
        <time>2018-08-15T09:28:35.269Z</time>
      </trkpt>
      <trkpt lat="45.55168" lon="4.71471">
        <ele>371</ele>
        <time>2018-08-15T09:28:36.258Z</time>
      </trkpt>
      <trkpt lat="45.55168" lon="4.71471">
        <ele>371</ele>
        <time>2018-08-15T09:28:37.260Z</time>
      </trkpt>
      <trkpt lat="45.5517" lon="4.71483">
        <ele>371</ele>
        <time>2018-08-15T09:28:38.268Z</time>
      </trkpt>
      <trkpt lat="45.55171" lon="4.71488">
        <ele>371</ele>
        <time>2018-08-15T09:28:39.254Z</time>
      </trkpt>
      <trkpt lat="45.55171" lon="4.71488">
        <ele>371</ele>
        <time>2018-08-15T09:28:40.263Z</time>
      </trkpt>
      <trkpt lat="45.55172" lon="4.71498">
        <ele>372</ele>
        <time>2018-08-15T09:28:41.250Z</time>
      </trkpt>
      <trkpt lat="45.55172" lon="4.71498">
        <ele>372</ele>
        <time>2018-08-15T09:28:42.238Z</time>
      </trkpt>
      <trkpt lat="45.55173" lon="4.71507">
        <ele>373</ele>
        <time>2018-08-15T09:28:43.272Z</time>
      </trkpt>
      <trkpt lat="45.55173" lon="4.71511">
        <ele>373</ele>
        <time>2018-08-15T09:28:44.271Z</time>
      </trkpt>
      <trkpt lat="45.55173" lon="4.71511">
        <ele>373</ele>
        <time>2018-08-15T09:28:45.245Z</time>
      </trkpt>
      <trkpt lat="45.55172" lon="4.71521">
        <ele>374</ele>
        <time>2018-08-15T09:28:46.266Z</time>
      </trkpt>
      <trkpt lat="45.55172" lon="4.71521">
        <ele>374</ele>
        <time>2018-08-15T09:28:47.271Z</time>
      </trkpt>
      <trkpt lat="45.55172" lon="4.7153">
        <ele>375</ele>
        <time>2018-08-15T09:28:48.265Z</time>
      </trkpt>
      <trkpt lat="45.55172" lon="4.7153">
        <ele>375</ele>
        <time>2018-08-15T09:28:49.269Z</time>
      </trkpt>
      <trkpt lat="45.55175" lon="4.71538">
        <ele>376</ele>
        <time>2018-08-15T09:28:50.254Z</time>
      </trkpt>
      <trkpt lat="45.55175" lon="4.71538">
        <ele>376</ele>
        <time>2018-08-15T09:28:51.269Z</time>
      </trkpt>
      <trkpt lat="45.55173" lon="4.71546">
        <ele>377</ele>
        <time>2018-08-15T09:28:52.233Z</time>
      </trkpt>
      <trkpt lat="45.55173" lon="4.71546">
        <ele>377</ele>
        <time>2018-08-15T09:28:53.270Z</time>
      </trkpt>
      <trkpt lat="45.55172" lon="4.71555">
        <ele>377</ele>
        <time>2018-08-15T09:28:54.238Z</time>
      </trkpt>
      <trkpt lat="45.55171" lon="4.71559">
        <ele>378</ele>
        <time>2018-08-15T09:28:55.234Z</time>
      </trkpt>
      <trkpt lat="45.55171" lon="4.71564">
        <ele>378</ele>
        <time>2018-08-15T09:28:56.248Z</time>
      </trkpt>
      <trkpt lat="45.55171" lon="4.71564">
        <ele>378</ele>
        <time>2018-08-15T09:28:57.236Z</time>
      </trkpt>
      <trkpt lat="45.55171" lon="4.71575">
        <ele>379</ele>
        <time>2018-08-15T09:28:58.241Z</time>
      </trkpt>
      <trkpt lat="45.55171" lon="4.71575">
        <ele>379</ele>
        <time>2018-08-15T09:28:59.254Z</time>
      </trkpt>
      <trkpt lat="45.55171" lon="4.71586">
        <ele>380</ele>
        <time>2018-08-15T09:29:00.243Z</time>
      </trkpt>
      <trkpt lat="45.55171" lon="4.71586">
        <ele>380</ele>
        <time>2018-08-15T09:29:01.255Z</time>
      </trkpt>
      <trkpt lat="45.55169" lon="4.71598">
        <ele>381</ele>
        <time>2018-08-15T09:29:02.256Z</time>
      </trkpt>
      <trkpt lat="45.55169" lon="4.71598">
        <ele>381</ele>
        <time>2018-08-15T09:29:03.270Z</time>
      </trkpt>
      <trkpt lat="45.55166" lon="4.71611">
        <ele>381</ele>
        <time>2018-08-15T09:29:04.269Z</time>
      </trkpt>
      <trkpt lat="45.55166" lon="4.71611">
        <ele>381</ele>
        <time>2018-08-15T09:29:05.246Z</time>
      </trkpt>
      <trkpt lat="45.55163" lon="4.71623">
        <ele>382</ele>
        <time>2018-08-15T09:29:06.243Z</time>
      </trkpt>
      <trkpt lat="45.55163" lon="4.71623">
        <ele>382</ele>
        <time>2018-08-15T09:29:07.235Z</time>
      </trkpt>
      <trkpt lat="45.55158" lon="4.71636">
        <ele>382</ele>
        <time>2018-08-15T09:29:08.232Z</time>
      </trkpt>
      <trkpt lat="45.55158" lon="4.71636">
        <ele>382</ele>
        <time>2018-08-15T09:29:09.232Z</time>
      </trkpt>
      <trkpt lat="45.55151" lon="4.71651">
        <ele>382</ele>
        <time>2018-08-15T09:29:10.247Z</time>
      </trkpt>
      <trkpt lat="45.55151" lon="4.71651">
        <ele>382</ele>
        <time>2018-08-15T09:29:11.245Z</time>
      </trkpt>
      <trkpt lat="45.55146" lon="4.71664">
        <ele>383</ele>
        <time>2018-08-15T09:29:12.246Z</time>
      </trkpt>
      <trkpt lat="45.55146" lon="4.71664">
        <ele>383</ele>
        <time>2018-08-15T09:29:13.256Z</time>
      </trkpt>
      <trkpt lat="45.55142" lon="4.71676">
        <ele>383</ele>
        <time>2018-08-15T09:29:14.256Z</time>
      </trkpt>
      <trkpt lat="45.55142" lon="4.71676">
        <ele>383</ele>
        <time>2018-08-15T09:29:15.264Z</time>
      </trkpt>
      <trkpt lat="45.55141" lon="4.7169">
        <ele>383</ele>
        <time>2018-08-15T09:29:16.259Z</time>
      </trkpt>
      <trkpt lat="45.55141" lon="4.7169">
        <ele>383</ele>
        <time>2018-08-15T09:29:17.253Z</time>
      </trkpt>
      <trkpt lat="45.55139" lon="4.71704">
        <ele>383</ele>
        <time>2018-08-15T09:29:18.238Z</time>
      </trkpt>
      <trkpt lat="45.55138" lon="4.7171">
        <ele>383</ele>
        <time>2018-08-15T09:29:19.246Z</time>
      </trkpt>
      <trkpt lat="45.55138" lon="4.71718">
        <ele>383</ele>
        <time>2018-08-15T09:29:20.256Z</time>
      </trkpt>
      <trkpt lat="45.55138" lon="4.71718">
        <ele>383</ele>
        <time>2018-08-15T09:29:21.264Z</time>
      </trkpt>
      <trkpt lat="45.55141" lon="4.71732">
        <ele>382</ele>
        <time>2018-08-15T09:29:22.260Z</time>
      </trkpt>
      <trkpt lat="45.55142" lon="4.71738">
        <ele>382</ele>
        <time>2018-08-15T09:29:23.250Z</time>
      </trkpt>
      <trkpt lat="45.55142" lon="4.71738">
        <ele>382</ele>
        <time>2018-08-15T09:29:24.260Z</time>
      </trkpt>
      <trkpt lat="45.55146" lon="4.71751">
        <ele>381</ele>
        <time>2018-08-15T09:29:25.255Z</time>
      </trkpt>
      <trkpt lat="45.55146" lon="4.71751">
        <ele>381</ele>
        <time>2018-08-15T09:29:26.270Z</time>
      </trkpt>
      <trkpt lat="45.55149" lon="4.71761">
        <ele>381</ele>
        <time>2018-08-15T09:29:27.269Z</time>
      </trkpt>
      <trkpt lat="45.55151" lon="4.71766">
        <ele>381</ele>
        <time>2018-08-15T09:29:28.236Z</time>
      </trkpt>
      <trkpt lat="45.55151" lon="4.71766">
        <ele>381</ele>
        <time>2018-08-15T09:29:29.240Z</time>
      </trkpt>
      <trkpt lat="45.55156" lon="4.71777">
        <ele>382</ele>
        <time>2018-08-15T09:29:30.246Z</time>
      </trkpt>
      <trkpt lat="45.55158" lon="4.71782">
        <ele>382</ele>
        <time>2018-08-15T09:29:31.237Z</time>
      </trkpt>
      <trkpt lat="45.55159" lon="4.71787">
        <ele>382</ele>
        <time>2018-08-15T09:29:32.246Z</time>
      </trkpt>
      <trkpt lat="45.55159" lon="4.71787">
        <ele>382</ele>
        <time>2018-08-15T09:29:33.253Z</time>
      </trkpt>
      <trkpt lat="45.55162" lon="4.71797">
        <ele>382</ele>
        <time>2018-08-15T09:29:34.239Z</time>
      </trkpt>
      <trkpt lat="45.55162" lon="4.71797">
        <ele>382</ele>
        <time>2018-08-15T09:29:35.245Z</time>
      </trkpt>
      <trkpt lat="45.55166" lon="4.71808">
        <ele>381</ele>
        <time>2018-08-15T09:29:36.240Z</time>
      </trkpt>
      <trkpt lat="45.55166" lon="4.71808">
        <ele>381</ele>
        <time>2018-08-15T09:29:37.243Z</time>
      </trkpt>
      <trkpt lat="45.55168" lon="4.7182">
        <ele>381</ele>
        <time>2018-08-15T09:29:38.236Z</time>
      </trkpt>
      <trkpt lat="45.55168" lon="4.7182">
        <ele>381</ele>
        <time>2018-08-15T09:29:39.247Z</time>
      </trkpt>
      <trkpt lat="45.55172" lon="4.71832">
        <ele>380</ele>
        <time>2018-08-15T09:29:40.246Z</time>
      </trkpt>
      <trkpt lat="45.55172" lon="4.71832">
        <ele>380</ele>
        <time>2018-08-15T09:29:41.232Z</time>
      </trkpt>
      <trkpt lat="45.55175" lon="4.71844">
        <ele>380</ele>
        <time>2018-08-15T09:29:42.240Z</time>
      </trkpt>
      <trkpt lat="45.55175" lon="4.71844">
        <ele>380</ele>
        <time>2018-08-15T09:29:43.266Z</time>
      </trkpt>
      <trkpt lat="45.55178" lon="4.71854">
        <ele>380</ele>
        <time>2018-08-15T09:29:44.256Z</time>
      </trkpt>
      <trkpt lat="45.55178" lon="4.71854">
        <ele>380</ele>
        <time>2018-08-15T09:29:45.237Z</time>
      </trkpt>
      <trkpt lat="45.55181" lon="4.71865">
        <ele>380</ele>
        <time>2018-08-15T09:29:46.269Z</time>
      </trkpt>
      <trkpt lat="45.55181" lon="4.71865">
        <ele>380</ele>
        <time>2018-08-15T09:29:47.266Z</time>
      </trkpt>
      <trkpt lat="45.55183" lon="4.71879">
        <ele>380</ele>
        <time>2018-08-15T09:29:48.262Z</time>
      </trkpt>
      <trkpt lat="45.55183" lon="4.71879">
        <ele>380</ele>
        <time>2018-08-15T09:29:49.268Z</time>
      </trkpt>
      <trkpt lat="45.55184" lon="4.71894">
        <ele>380</ele>
        <time>2018-08-15T09:29:50.261Z</time>
      </trkpt>
      <trkpt lat="45.55184" lon="4.71894">
        <ele>380</ele>
        <time>2018-08-15T09:29:51.266Z</time>
      </trkpt>
      <trkpt lat="45.5519" lon="4.71908">
        <ele>379</ele>
        <time>2018-08-15T09:29:52.300Z</time>
      </trkpt>
      <trkpt lat="45.5519" lon="4.71908">
        <ele>379</ele>
        <time>2018-08-15T09:29:53.253Z</time>
      </trkpt>
      <trkpt lat="45.55198" lon="4.71921">
        <ele>379</ele>
        <time>2018-08-15T09:29:54.266Z</time>
      </trkpt>
      <trkpt lat="45.55198" lon="4.71921">
        <ele>379</ele>
        <time>2018-08-15T09:29:55.237Z</time>
      </trkpt>
      <trkpt lat="45.55206" lon="4.71937">
        <ele>376</ele>
        <time>2018-08-15T09:29:56.241Z</time>
      </trkpt>
      <trkpt lat="45.55206" lon="4.71937">
        <ele>376</ele>
        <time>2018-08-15T09:29:57.235Z</time>
      </trkpt>
      <trkpt lat="45.55213" lon="4.71955">
        <ele>375</ele>
        <time>2018-08-15T09:29:58.259Z</time>
      </trkpt>
      <trkpt lat="45.55213" lon="4.71955">
        <ele>375</ele>
        <time>2018-08-15T09:29:59.248Z</time>
      </trkpt>
      <trkpt lat="45.5522" lon="4.71975">
        <ele>373</ele>
        <time>2018-08-15T09:30:00.233Z</time>
      </trkpt>
      <trkpt lat="45.55223" lon="4.71985">
        <ele>373</ele>
        <time>2018-08-15T09:30:01.242Z</time>
      </trkpt>
      <trkpt lat="45.55227" lon="4.71996">
        <ele>372</ele>
        <time>2018-08-15T09:30:02.251Z</time>
      </trkpt>
      <trkpt lat="45.55227" lon="4.71996">
        <ele>372</ele>
        <time>2018-08-15T09:30:03.243Z</time>
      </trkpt>
      <trkpt lat="45.55234" lon="4.72017">
        <ele>371</ele>
        <time>2018-08-15T09:30:04.238Z</time>
      </trkpt>
      <trkpt lat="45.55238" lon="4.72028">
        <ele>370</ele>
        <time>2018-08-15T09:30:05.257Z</time>
      </trkpt>
      <trkpt lat="45.55238" lon="4.72028">
        <ele>370</ele>
        <time>2018-08-15T09:30:06.267Z</time>
      </trkpt>
      <trkpt lat="45.55245" lon="4.72051">
        <ele>369</ele>
        <time>2018-08-15T09:30:07.232Z</time>
      </trkpt>
      <trkpt lat="45.55249" lon="4.72062">
        <ele>369</ele>
        <time>2018-08-15T09:30:08.236Z</time>
      </trkpt>
      <trkpt lat="45.55249" lon="4.72062">
        <ele>369</ele>
        <time>2018-08-15T09:30:09.258Z</time>
      </trkpt>
      <trkpt lat="45.55256" lon="4.72084">
        <ele>368</ele>
        <time>2018-08-15T09:30:10.263Z</time>
      </trkpt>
      <trkpt lat="45.55256" lon="4.72084">
        <ele>368</ele>
        <time>2018-08-15T09:30:11.249Z</time>
      </trkpt>
      <trkpt lat="45.55263" lon="4.72107">
        <ele>367</ele>
        <time>2018-08-15T09:30:12.244Z</time>
      </trkpt>
      <trkpt lat="45.55263" lon="4.72107">
        <ele>367</ele>
        <time>2018-08-15T09:30:13.237Z</time>
      </trkpt>
      <trkpt lat="45.55271" lon="4.72131">
        <ele>366</ele>
        <time>2018-08-15T09:30:14.262Z</time>
      </trkpt>
      <trkpt lat="45.55271" lon="4.72131">
        <ele>366</ele>
        <time>2018-08-15T09:30:15.270Z</time>
      </trkpt>
      <trkpt lat="45.55279" lon="4.72156">
        <ele>365</ele>
        <time>2018-08-15T09:30:16.257Z</time>
      </trkpt>
      <trkpt lat="45.55283" lon="4.72168">
        <ele>364</ele>
        <time>2018-08-15T09:30:17.253Z</time>
      </trkpt>
      <trkpt lat="45.55283" lon="4.72168">
        <ele>364</ele>
        <time>2018-08-15T09:30:18.232Z</time>
      </trkpt>
      <trkpt lat="45.55291" lon="4.72193">
        <ele>363</ele>
        <time>2018-08-15T09:30:19.264Z</time>
      </trkpt>
      <trkpt lat="45.55295" lon="4.72206">
        <ele>363</ele>
        <time>2018-08-15T09:30:20.266Z</time>
      </trkpt>
      <trkpt lat="45.55295" lon="4.72206">
        <ele>363</ele>
        <time>2018-08-15T09:30:21.246Z</time>
      </trkpt>
      <trkpt lat="45.55301" lon="4.72232">
        <ele>361</ele>
        <time>2018-08-15T09:30:22.235Z</time>
      </trkpt>
      <trkpt lat="45.55301" lon="4.72232">
        <ele>361</ele>
        <time>2018-08-15T09:30:23.254Z</time>
      </trkpt>
      <trkpt lat="45.55307" lon="4.72259">
        <ele>360</ele>
        <time>2018-08-15T09:30:24.256Z</time>
      </trkpt>
      <trkpt lat="45.55307" lon="4.72259">
        <ele>360</ele>
        <time>2018-08-15T09:30:25.248Z</time>
      </trkpt>
      <trkpt lat="45.55313" lon="4.72286">
        <ele>359</ele>
        <time>2018-08-15T09:30:26.242Z</time>
      </trkpt>
      <trkpt lat="45.55313" lon="4.72286">
        <ele>359</ele>
        <time>2018-08-15T09:30:27.251Z</time>
      </trkpt>
      <trkpt lat="45.55319" lon="4.72314">
        <ele>357</ele>
        <time>2018-08-15T09:30:28.246Z</time>
      </trkpt>
      <trkpt lat="45.55319" lon="4.72314">
        <ele>357</ele>
        <time>2018-08-15T09:30:29.269Z</time>
      </trkpt>
      <trkpt lat="45.55325" lon="4.72343">
        <ele>355</ele>
        <time>2018-08-15T09:30:30.270Z</time>
      </trkpt>
      <trkpt lat="45.55325" lon="4.72343">
        <ele>355</ele>
        <time>2018-08-15T09:30:31.247Z</time>
      </trkpt>
      <trkpt lat="45.55331" lon="4.72372">
        <ele>354</ele>
        <time>2018-08-15T09:30:32.240Z</time>
      </trkpt>
      <trkpt lat="45.55331" lon="4.72372">
        <ele>354</ele>
        <time>2018-08-15T09:30:33.261Z</time>
      </trkpt>
      <trkpt lat="45.55337" lon="4.72402">
        <ele>352</ele>
        <time>2018-08-15T09:30:34.255Z</time>
      </trkpt>
      <trkpt lat="45.55337" lon="4.72402">
        <ele>352</ele>
        <time>2018-08-15T09:30:35.245Z</time>
      </trkpt>
      <trkpt lat="45.55347" lon="4.7243">
        <ele>351</ele>
        <time>2018-08-15T09:30:36.256Z</time>
      </trkpt>
      <trkpt lat="45.55347" lon="4.7243">
        <ele>351</ele>
        <time>2018-08-15T09:30:37.259Z</time>
      </trkpt>
      <trkpt lat="45.55358" lon="4.72456">
        <ele>350</ele>
        <time>2018-08-15T09:30:38.243Z</time>
      </trkpt>
      <trkpt lat="45.55358" lon="4.72456">
        <ele>350</ele>
        <time>2018-08-15T09:30:39.251Z</time>
      </trkpt>
      <trkpt lat="45.55367" lon="4.72481">
        <ele>349</ele>
        <time>2018-08-15T09:30:40.237Z</time>
      </trkpt>
      <trkpt lat="45.55367" lon="4.72481">
        <ele>349</ele>
        <time>2018-08-15T09:30:41.261Z</time>
      </trkpt>
      <trkpt lat="45.55377" lon="4.72505">
        <ele>348</ele>
        <time>2018-08-15T09:30:42.256Z</time>
      </trkpt>
      <trkpt lat="45.55377" lon="4.72505">
        <ele>348</ele>
        <time>2018-08-15T09:30:43.269Z</time>
      </trkpt>
      <trkpt lat="45.55386" lon="4.7253">
        <ele>347</ele>
        <time>2018-08-15T09:30:44.263Z</time>
      </trkpt>
      <trkpt lat="45.55386" lon="4.7253">
        <ele>347</ele>
        <time>2018-08-15T09:30:45.237Z</time>
      </trkpt>
      <trkpt lat="45.55395" lon="4.72554">
        <ele>346</ele>
        <time>2018-08-15T09:30:46.271Z</time>
      </trkpt>
      <trkpt lat="45.55395" lon="4.72554">
        <ele>346</ele>
        <time>2018-08-15T09:30:47.252Z</time>
      </trkpt>
      <trkpt lat="45.55405" lon="4.72576">
        <ele>346</ele>
        <time>2018-08-15T09:30:48.259Z</time>
      </trkpt>
      <trkpt lat="45.55405" lon="4.72576">
        <ele>346</ele>
        <time>2018-08-15T09:30:49.235Z</time>
      </trkpt>
      <trkpt lat="45.55413" lon="4.72598">
        <ele>345</ele>
        <time>2018-08-15T09:30:50.256Z</time>
      </trkpt>
      <trkpt lat="45.55413" lon="4.72598">
        <ele>345</ele>
        <time>2018-08-15T09:30:51.271Z</time>
      </trkpt>
      <trkpt lat="45.55421" lon="4.72618">
        <ele>345</ele>
        <time>2018-08-15T09:30:52.254Z</time>
      </trkpt>
      <trkpt lat="45.55421" lon="4.72618">
        <ele>345</ele>
        <time>2018-08-15T09:30:53.263Z</time>
      </trkpt>
      <trkpt lat="45.55429" lon="4.72638">
        <ele>345</ele>
        <time>2018-08-15T09:30:54.253Z</time>
      </trkpt>
      <trkpt lat="45.55429" lon="4.72638">
        <ele>345</ele>
        <time>2018-08-15T09:30:55.263Z</time>
      </trkpt>
      <trkpt lat="45.55436" lon="4.72657">
        <ele>345</ele>
        <time>2018-08-15T09:30:56.245Z</time>
      </trkpt>
      <trkpt lat="45.55436" lon="4.72657">
        <ele>345</ele>
        <time>2018-08-15T09:30:57.235Z</time>
      </trkpt>
      <trkpt lat="45.55443" lon="4.72676">
        <ele>345</ele>
        <time>2018-08-15T09:30:58.268Z</time>
      </trkpt>
      <trkpt lat="45.55443" lon="4.72676">
        <ele>345</ele>
        <time>2018-08-15T09:30:59.261Z</time>
      </trkpt>
      <trkpt lat="45.55449" lon="4.72694">
        <ele>346</ele>
        <time>2018-08-15T09:31:00.243Z</time>
      </trkpt>
      <trkpt lat="45.55449" lon="4.72694">
        <ele>346</ele>
        <time>2018-08-15T09:31:01.271Z</time>
      </trkpt>
      <trkpt lat="45.55454" lon="4.72713">
        <ele>346</ele>
        <time>2018-08-15T09:31:02.268Z</time>
      </trkpt>
      <trkpt lat="45.55454" lon="4.72713">
        <ele>346</ele>
        <time>2018-08-15T09:31:03.233Z</time>
      </trkpt>
      <trkpt lat="45.55457" lon="4.72731">
        <ele>346</ele>
        <time>2018-08-15T09:31:04.276Z</time>
      </trkpt>
      <trkpt lat="45.55457" lon="4.72731">
        <ele>346</ele>
        <time>2018-08-15T09:31:05.245Z</time>
      </trkpt>
      <trkpt lat="45.55459" lon="4.7275">
        <ele>345</ele>
        <time>2018-08-15T09:31:06.243Z</time>
      </trkpt>
      <trkpt lat="45.55459" lon="4.7275">
        <ele>345</ele>
        <time>2018-08-15T09:31:07.270Z</time>
      </trkpt>
      <trkpt lat="45.55461" lon="4.7277">
        <ele>345</ele>
        <time>2018-08-15T09:31:08.266Z</time>
      </trkpt>
      <trkpt lat="45.55461" lon="4.7277">
        <ele>345</ele>
        <time>2018-08-15T09:31:09.232Z</time>
      </trkpt>
      <trkpt lat="45.55461" lon="4.72792">
        <ele>345</ele>
        <time>2018-08-15T09:31:10.262Z</time>
      </trkpt>
      <trkpt lat="45.55461" lon="4.72792">
        <ele>345</ele>
        <time>2018-08-15T09:31:11.257Z</time>
      </trkpt>
      <trkpt lat="45.55458" lon="4.72814">
        <ele>344</ele>
        <time>2018-08-15T09:31:12.258Z</time>
      </trkpt>
      <trkpt lat="45.55455" lon="4.72824">
        <ele>344</ele>
        <time>2018-08-15T09:31:13.242Z</time>
      </trkpt>
      <trkpt lat="45.5545" lon="4.72832">
        <ele>343</ele>
        <time>2018-08-15T09:31:14.241Z</time>
      </trkpt>
      <trkpt lat="45.5545" lon="4.72832">
        <ele>343</ele>
        <time>2018-08-15T09:31:15.233Z</time>
      </trkpt>
      <trkpt lat="45.55436" lon="4.7284">
        <ele>342</ele>
        <time>2018-08-15T09:31:16.271Z</time>
      </trkpt>
      <trkpt lat="45.55436" lon="4.7284">
        <ele>342</ele>
        <time>2018-08-15T09:31:17.236Z</time>
      </trkpt>
      <trkpt lat="45.55418" lon="4.72842">
        <ele>341</ele>
        <time>2018-08-15T09:31:18.236Z</time>
      </trkpt>
      <trkpt lat="45.55418" lon="4.72842">
        <ele>341</ele>
        <time>2018-08-15T09:31:19.269Z</time>
      </trkpt>
      <trkpt lat="45.55399" lon="4.72842">
        <ele>340</ele>
        <time>2018-08-15T09:31:20.266Z</time>
      </trkpt>
      <trkpt lat="45.55399" lon="4.72842">
        <ele>340</ele>
        <time>2018-08-15T09:31:21.232Z</time>
      </trkpt>
      <trkpt lat="45.55379" lon="4.72844">
        <ele>339</ele>
        <time>2018-08-15T09:31:22.265Z</time>
      </trkpt>
      <trkpt lat="45.55379" lon="4.72844">
        <ele>339</ele>
        <time>2018-08-15T09:31:23.267Z</time>
      </trkpt>
      <trkpt lat="45.55358" lon="4.72843">
        <ele>338</ele>
        <time>2018-08-15T09:31:24.266Z</time>
      </trkpt>
      <trkpt lat="45.55358" lon="4.72843">
        <ele>338</ele>
        <time>2018-08-15T09:31:25.244Z</time>
      </trkpt>
      <trkpt lat="45.55336" lon="4.72848">
        <ele>337</ele>
        <time>2018-08-15T09:31:26.265Z</time>
      </trkpt>
      <trkpt lat="45.55336" lon="4.72848">
        <ele>337</ele>
        <time>2018-08-15T09:31:27.234Z</time>
      </trkpt>
      <trkpt lat="45.55315" lon="4.72855">
        <ele>335</ele>
        <time>2018-08-15T09:31:28.270Z</time>
      </trkpt>
      <trkpt lat="45.55315" lon="4.72855">
        <ele>335</ele>
        <time>2018-08-15T09:31:29.236Z</time>
      </trkpt>
      <trkpt lat="45.55294" lon="4.72861">
        <ele>334</ele>
        <time>2018-08-15T09:31:30.240Z</time>
      </trkpt>
      <trkpt lat="45.55284" lon="4.72864">
        <ele>334</ele>
        <time>2018-08-15T09:31:31.249Z</time>
      </trkpt>
      <trkpt lat="45.55284" lon="4.72864">
        <ele>334</ele>
        <time>2018-08-15T09:31:32.254Z</time>
      </trkpt>
      <trkpt lat="45.55268" lon="4.7287">
        <ele>333</ele>
        <time>2018-08-15T09:31:33.248Z</time>
      </trkpt>
      <trkpt lat="45.55268" lon="4.7287">
        <ele>333</ele>
        <time>2018-08-15T09:31:34.260Z</time>
      </trkpt>
      <trkpt lat="45.55255" lon="4.72873">
        <ele>332</ele>
        <time>2018-08-15T09:31:35.264Z</time>
      </trkpt>
      <trkpt lat="45.55255" lon="4.72873">
        <ele>332</ele>
        <time>2018-08-15T09:31:36.269Z</time>
      </trkpt>
      <trkpt lat="45.55243" lon="4.72873">
        <ele>330</ele>
        <time>2018-08-15T09:31:37.257Z</time>
      </trkpt>
      <trkpt lat="45.55235" lon="4.72875">
        <ele>330</ele>
        <time>2018-08-15T09:31:38.266Z</time>
      </trkpt>
      <trkpt lat="45.55235" lon="4.72875">
        <ele>330</ele>
        <time>2018-08-15T09:31:39.232Z</time>
      </trkpt>
      <trkpt lat="45.55223" lon="4.72883">
        <ele>329</ele>
        <time>2018-08-15T09:31:40.265Z</time>
      </trkpt>
      <trkpt lat="45.55223" lon="4.72883">
        <ele>329</ele>
        <time>2018-08-15T09:31:41.238Z</time>
      </trkpt>
      <trkpt lat="45.55218" lon="4.729">
        <ele>328</ele>
        <time>2018-08-15T09:31:42.276Z</time>
      </trkpt>
      <trkpt lat="45.55218" lon="4.729">
        <ele>328</ele>
        <time>2018-08-15T09:31:43.244Z</time>
      </trkpt>
      <trkpt lat="45.55223" lon="4.72911">
        <ele>328</ele>
        <time>2018-08-15T09:31:44.247Z</time>
      </trkpt>
      <trkpt lat="45.55223" lon="4.72911">
        <ele>328</ele>
        <time>2018-08-15T09:31:45.266Z</time>
      </trkpt>
      <trkpt lat="45.55234" lon="4.72913">
        <ele>326</ele>
        <time>2018-08-15T09:31:46.261Z</time>
      </trkpt>
      <trkpt lat="45.55234" lon="4.72913">
        <ele>326</ele>
        <time>2018-08-15T09:31:47.266Z</time>
      </trkpt>
      <trkpt lat="45.55247" lon="4.72912">
        <ele>326</ele>
        <time>2018-08-15T09:31:48.249Z</time>
      </trkpt>
      <trkpt lat="45.55247" lon="4.72912">
        <ele>326</ele>
        <time>2018-08-15T09:31:49.256Z</time>
      </trkpt>
      <trkpt lat="45.5526" lon="4.72912">
        <ele>324</ele>
        <time>2018-08-15T09:31:50.256Z</time>
      </trkpt>
      <trkpt lat="45.5526" lon="4.72912">
        <ele>324</ele>
        <time>2018-08-15T09:31:51.237Z</time>
      </trkpt>
      <trkpt lat="45.55275" lon="4.72912">
        <ele>323</ele>
        <time>2018-08-15T09:31:52.235Z</time>
      </trkpt>
      <trkpt lat="45.55275" lon="4.72912">
        <ele>323</ele>
        <time>2018-08-15T09:31:53.246Z</time>
      </trkpt>
      <trkpt lat="45.55291" lon="4.72916">
        <ele>322</ele>
        <time>2018-08-15T09:31:54.233Z</time>
      </trkpt>
      <trkpt lat="45.55291" lon="4.72916">
        <ele>322</ele>
        <time>2018-08-15T09:31:55.247Z</time>
      </trkpt>
      <trkpt lat="45.55307" lon="4.72926">
        <ele>321</ele>
        <time>2018-08-15T09:31:56.244Z</time>
      </trkpt>
      <trkpt lat="45.55307" lon="4.72926">
        <ele>321</ele>
        <time>2018-08-15T09:31:57.259Z</time>
      </trkpt>
      <trkpt lat="45.55323" lon="4.72939">
        <ele>321</ele>
        <time>2018-08-15T09:31:58.248Z</time>
      </trkpt>
      <trkpt lat="45.55323" lon="4.72939">
        <ele>321</ele>
        <time>2018-08-15T09:31:59.263Z</time>
      </trkpt>
      <trkpt lat="45.5534" lon="4.72951">
        <ele>320</ele>
        <time>2018-08-15T09:32:00.243Z</time>
      </trkpt>
      <trkpt lat="45.5535" lon="4.72954">
        <ele>320</ele>
        <time>2018-08-15T09:32:01.239Z</time>
      </trkpt>
      <trkpt lat="45.55357" lon="4.72956">
        <ele>319</ele>
        <time>2018-08-15T09:32:02.269Z</time>
      </trkpt>
      <trkpt lat="45.55357" lon="4.72956">
        <ele>319</ele>
        <time>2018-08-15T09:32:03.235Z</time>
      </trkpt>
      <trkpt lat="45.55372" lon="4.72961">
        <ele>318</ele>
        <time>2018-08-15T09:32:04.276Z</time>
      </trkpt>
      <trkpt lat="45.55372" lon="4.72961">
        <ele>318</ele>
        <time>2018-08-15T09:32:05.241Z</time>
      </trkpt>
      <trkpt lat="45.55387" lon="4.72971">
        <ele>317</ele>
        <time>2018-08-15T09:32:06.273Z</time>
      </trkpt>
      <trkpt lat="45.55387" lon="4.72971">
        <ele>317</ele>
        <time>2018-08-15T09:32:07.253Z</time>
      </trkpt>
      <trkpt lat="45.55401" lon="4.72982">
        <ele>316</ele>
        <time>2018-08-15T09:32:08.257Z</time>
      </trkpt>
      <trkpt lat="45.55401" lon="4.72982">
        <ele>316</ele>
        <time>2018-08-15T09:32:09.244Z</time>
      </trkpt>
      <trkpt lat="45.55414" lon="4.72991">
        <ele>316</ele>
        <time>2018-08-15T09:32:10.239Z</time>
      </trkpt>
      <trkpt lat="45.55421" lon="4.72996">
        <ele>316</ele>
        <time>2018-08-15T09:32:11.243Z</time>
      </trkpt>
      <trkpt lat="45.55421" lon="4.72996">
        <ele>316</ele>
        <time>2018-08-15T09:32:12.244Z</time>
      </trkpt>
      <trkpt lat="45.55433" lon="4.73006">
        <ele>315</ele>
        <time>2018-08-15T09:32:13.274Z</time>
      </trkpt>
      <trkpt lat="45.55439" lon="4.73011">
        <ele>315</ele>
        <time>2018-08-15T09:32:14.276Z</time>
      </trkpt>
      <trkpt lat="45.55439" lon="4.73011">
        <ele>315</ele>
        <time>2018-08-15T09:32:15.260Z</time>
      </trkpt>
      <trkpt lat="45.5545" lon="4.73021">
        <ele>315</ele>
        <time>2018-08-15T09:32:16.262Z</time>
      </trkpt>
      <trkpt lat="45.5545" lon="4.73021">
        <ele>315</ele>
        <time>2018-08-15T09:32:17.246Z</time>
      </trkpt>
      <trkpt lat="45.55462" lon="4.73028">
        <ele>315</ele>
        <time>2018-08-15T09:32:18.250Z</time>
      </trkpt>
      <trkpt lat="45.55462" lon="4.73028">
        <ele>315</ele>
        <time>2018-08-15T09:32:19.234Z</time>
      </trkpt>
      <trkpt lat="45.55472" lon="4.73033">
        <ele>315</ele>
        <time>2018-08-15T09:32:20.268Z</time>
      </trkpt>
      <trkpt lat="45.55472" lon="4.73033">
        <ele>315</ele>
        <time>2018-08-15T09:32:21.246Z</time>
      </trkpt>
      <trkpt lat="45.55483" lon="4.7304">
        <ele>314</ele>
        <time>2018-08-15T09:32:22.255Z</time>
      </trkpt>
      <trkpt lat="45.55483" lon="4.7304">
        <ele>314</ele>
        <time>2018-08-15T09:32:23.270Z</time>
      </trkpt>
      <trkpt lat="45.55494" lon="4.73046">
        <ele>314</ele>
        <time>2018-08-15T09:32:24.264Z</time>
      </trkpt>
      <trkpt lat="45.55494" lon="4.73046">
        <ele>314</ele>
        <time>2018-08-15T09:32:25.245Z</time>
      </trkpt>
      <trkpt lat="45.55505" lon="4.73051">
        <ele>315</ele>
        <time>2018-08-15T09:32:26.271Z</time>
      </trkpt>
      <trkpt lat="45.55505" lon="4.73051">
        <ele>315</ele>
        <time>2018-08-15T09:32:27.244Z</time>
      </trkpt>
      <trkpt lat="45.55515" lon="4.73056">
        <ele>315</ele>
        <time>2018-08-15T09:32:28.254Z</time>
      </trkpt>
      <trkpt lat="45.55515" lon="4.73056">
        <ele>315</ele>
        <time>2018-08-15T09:32:29.269Z</time>
      </trkpt>
      <trkpt lat="45.55524" lon="4.73061">
        <ele>315</ele>
        <time>2018-08-15T09:32:30.268Z</time>
      </trkpt>
      <trkpt lat="45.55528" lon="4.73063">
        <ele>316</ele>
        <time>2018-08-15T09:32:31.240Z</time>
      </trkpt>
      <trkpt lat="45.55533" lon="4.73066">
        <ele>316</ele>
        <time>2018-08-15T09:32:32.260Z</time>
      </trkpt>
      <trkpt lat="45.55533" lon="4.73066">
        <ele>316</ele>
        <time>2018-08-15T09:32:33.265Z</time>
      </trkpt>
      <trkpt lat="45.55542" lon="4.7307">
        <ele>318</ele>
        <time>2018-08-15T09:32:34.263Z</time>
      </trkpt>
      <trkpt lat="45.55542" lon="4.7307">
        <ele>318</ele>
        <time>2018-08-15T09:32:35.258Z</time>
      </trkpt>
      <trkpt lat="45.5555" lon="4.73075">
        <ele>319</ele>
        <time>2018-08-15T09:32:36.257Z</time>
      </trkpt>
      <trkpt lat="45.5555" lon="4.73075">
        <ele>319</ele>
        <time>2018-08-15T09:32:37.248Z</time>
      </trkpt>
      <trkpt lat="45.55558" lon="4.73081">
        <ele>320</ele>
        <time>2018-08-15T09:32:38.242Z</time>
      </trkpt>
      <trkpt lat="45.55558" lon="4.73081">
        <ele>320</ele>
        <time>2018-08-15T09:32:39.258Z</time>
      </trkpt>
      <trkpt lat="45.55565" lon="4.73086">
        <ele>320</ele>
        <time>2018-08-15T09:32:40.260Z</time>
      </trkpt>
      <trkpt lat="45.55565" lon="4.73086">
        <ele>320</ele>
        <time>2018-08-15T09:32:41.266Z</time>
      </trkpt>
      <trkpt lat="45.55572" lon="4.73094">
        <ele>321</ele>
        <time>2018-08-15T09:32:42.266Z</time>
      </trkpt>
      <trkpt lat="45.55572" lon="4.73094">
        <ele>321</ele>
        <time>2018-08-15T09:32:43.248Z</time>
      </trkpt>
      <trkpt lat="45.55576" lon="4.73098">
        <ele>323</ele>
        <time>2018-08-15T09:32:44.235Z</time>
      </trkpt>
      <trkpt lat="45.55576" lon="4.73098">
        <ele>323</ele>
        <time>2018-08-15T09:32:45.255Z</time>
      </trkpt>
      <trkpt lat="45.55581" lon="4.73103">
        <ele>324</ele>
        <time>2018-08-15T09:32:46.270Z</time>
      </trkpt>
      <trkpt lat="45.55581" lon="4.73103">
        <ele>324</ele>
        <time>2018-08-15T09:32:47.260Z</time>
      </trkpt>
      <trkpt lat="45.55586" lon="4.73109">
        <ele>325</ele>
        <time>2018-08-15T09:32:48.256Z</time>
      </trkpt>
      <trkpt lat="45.55586" lon="4.73109">
        <ele>325</ele>
        <time>2018-08-15T09:32:49.269Z</time>
      </trkpt>
      <trkpt lat="45.55592" lon="4.73115">
        <ele>326</ele>
        <time>2018-08-15T09:32:50.259Z</time>
      </trkpt>
      <trkpt lat="45.55592" lon="4.73115">
        <ele>326</ele>
        <time>2018-08-15T09:32:51.252Z</time>
      </trkpt>
      <trkpt lat="45.55599" lon="4.73119">
        <ele>326</ele>
        <time>2018-08-15T09:32:52.250Z</time>
      </trkpt>
      <trkpt lat="45.55599" lon="4.73119">
        <ele>326</ele>
        <time>2018-08-15T09:32:53.255Z</time>
      </trkpt>
      <trkpt lat="45.55606" lon="4.73121">
        <ele>327</ele>
        <time>2018-08-15T09:32:54.256Z</time>
      </trkpt>
      <trkpt lat="45.55606" lon="4.73121">
        <ele>327</ele>
        <time>2018-08-15T09:32:55.242Z</time>
      </trkpt>
      <trkpt lat="45.55613" lon="4.73122">
        <ele>328</ele>
        <time>2018-08-15T09:32:56.247Z</time>
      </trkpt>
      <trkpt lat="45.55613" lon="4.73122">
        <ele>328</ele>
        <time>2018-08-15T09:32:57.246Z</time>
      </trkpt>
      <trkpt lat="45.5562" lon="4.73124">
        <ele>329</ele>
        <time>2018-08-15T09:32:58.233Z</time>
      </trkpt>
      <trkpt lat="45.5562" lon="4.73124">
        <ele>329</ele>
        <time>2018-08-15T09:32:59.244Z</time>
      </trkpt>
      <trkpt lat="45.55627" lon="4.73125">
        <ele>330</ele>
        <time>2018-08-15T09:33:00.235Z</time>
      </trkpt>
      <trkpt lat="45.55627" lon="4.73125">
        <ele>330</ele>
        <time>2018-08-15T09:33:01.262Z</time>
      </trkpt>
      <trkpt lat="45.55634" lon="4.73128">
        <ele>330</ele>
        <time>2018-08-15T09:33:02.262Z</time>
      </trkpt>
      <trkpt lat="45.55634" lon="4.73128">
        <ele>330</ele>
        <time>2018-08-15T09:33:03.260Z</time>
      </trkpt>
      <trkpt lat="45.5564" lon="4.73132">
        <ele>331</ele>
        <time>2018-08-15T09:33:04.265Z</time>
      </trkpt>
      <trkpt lat="45.5564" lon="4.73132">
        <ele>331</ele>
        <time>2018-08-15T09:33:05.262Z</time>
      </trkpt>
      <trkpt lat="45.55647" lon="4.73138">
        <ele>330</ele>
        <time>2018-08-15T09:33:06.256Z</time>
      </trkpt>
      <trkpt lat="45.55647" lon="4.73138">
        <ele>330</ele>
        <time>2018-08-15T09:33:07.244Z</time>
      </trkpt>
      <trkpt lat="45.55652" lon="4.73148">
        <ele>331</ele>
        <time>2018-08-15T09:33:08.235Z</time>
      </trkpt>
      <trkpt lat="45.55652" lon="4.73148">
        <ele>331</ele>
        <time>2018-08-15T09:33:09.244Z</time>
      </trkpt>
      <trkpt lat="45.55655" lon="4.7316">
        <ele>331</ele>
        <time>2018-08-15T09:33:10.244Z</time>
      </trkpt>
      <trkpt lat="45.55655" lon="4.7316">
        <ele>331</ele>
        <time>2018-08-15T09:33:11.249Z</time>
      </trkpt>
      <trkpt lat="45.55657" lon="4.73172">
        <ele>331</ele>
        <time>2018-08-15T09:33:12.242Z</time>
      </trkpt>
      <trkpt lat="45.55657" lon="4.73172">
        <ele>331</ele>
        <time>2018-08-15T09:33:13.255Z</time>
      </trkpt>
      <trkpt lat="45.55657" lon="4.73186">
        <ele>330</ele>
        <time>2018-08-15T09:33:14.248Z</time>
      </trkpt>
      <trkpt lat="45.55657" lon="4.73186">
        <ele>330</ele>
        <time>2018-08-15T09:33:15.256Z</time>
      </trkpt>
      <trkpt lat="45.55655" lon="4.732">
        <ele>330</ele>
        <time>2018-08-15T09:33:16.266Z</time>
      </trkpt>
      <trkpt lat="45.55655" lon="4.732">
        <ele>330</ele>
        <time>2018-08-15T09:33:17.271Z</time>
      </trkpt>
      <trkpt lat="45.55651" lon="4.73215">
        <ele>330</ele>
        <time>2018-08-15T09:33:18.270Z</time>
      </trkpt>
      <trkpt lat="45.55648" lon="4.73223">
        <ele>330</ele>
        <time>2018-08-15T09:33:19.276Z</time>
      </trkpt>
      <trkpt lat="45.55646" lon="4.73231">
        <ele>330</ele>
        <time>2018-08-15T09:33:20.272Z</time>
      </trkpt>
      <trkpt lat="45.55646" lon="4.73231">
        <ele>330</ele>
        <time>2018-08-15T09:33:21.261Z</time>
      </trkpt>
      <trkpt lat="45.5564" lon="4.73248">
        <ele>330</ele>
        <time>2018-08-15T09:33:22.272Z</time>
      </trkpt>
      <trkpt lat="45.55638" lon="4.73256">
        <ele>330</ele>
        <time>2018-08-15T09:33:23.232Z</time>
      </trkpt>
      <trkpt lat="45.55638" lon="4.73256">
        <ele>330</ele>
        <time>2018-08-15T09:33:24.252Z</time>
      </trkpt>
      <trkpt lat="45.55631" lon="4.73274">
        <ele>330</ele>
        <time>2018-08-15T09:33:25.262Z</time>
      </trkpt>
      <trkpt lat="45.55628" lon="4.73283">
        <ele>330</ele>
        <time>2018-08-15T09:33:26.249Z</time>
      </trkpt>
      <trkpt lat="45.55628" lon="4.73283">
        <ele>330</ele>
        <time>2018-08-15T09:33:27.269Z</time>
      </trkpt>
      <trkpt lat="45.55621" lon="4.73302">
        <ele>329</ele>
        <time>2018-08-15T09:33:28.262Z</time>
      </trkpt>
      <trkpt lat="45.55621" lon="4.73302">
        <ele>329</ele>
        <time>2018-08-15T09:33:29.267Z</time>
      </trkpt>
      <trkpt lat="45.55615" lon="4.73321">
        <ele>329</ele>
        <time>2018-08-15T09:33:30.233Z</time>
      </trkpt>
      <trkpt lat="45.55612" lon="4.73331">
        <ele>329</ele>
        <time>2018-08-15T09:33:31.245Z</time>
      </trkpt>
      <trkpt lat="45.55609" lon="4.73341">
        <ele>329</ele>
        <time>2018-08-15T09:33:32.257Z</time>
      </trkpt>
      <trkpt lat="45.55609" lon="4.73341">
        <ele>329</ele>
        <time>2018-08-15T09:33:33.269Z</time>
      </trkpt>
      <trkpt lat="45.55604" lon="4.7336">
        <ele>329</ele>
        <time>2018-08-15T09:33:34.266Z</time>
      </trkpt>
      <trkpt lat="45.55604" lon="4.7336">
        <ele>329</ele>
        <time>2018-08-15T09:33:35.252Z</time>
      </trkpt>
      <trkpt lat="45.55598" lon="4.73379">
        <ele>329</ele>
        <time>2018-08-15T09:33:36.266Z</time>
      </trkpt>
      <trkpt lat="45.55598" lon="4.73379">
        <ele>329</ele>
        <time>2018-08-15T09:33:37.245Z</time>
      </trkpt>
      <trkpt lat="45.55593" lon="4.73398">
        <ele>329</ele>
        <time>2018-08-15T09:33:38.246Z</time>
      </trkpt>
      <trkpt lat="45.55593" lon="4.73398">
        <ele>329</ele>
        <time>2018-08-15T09:33:39.271Z</time>
      </trkpt>
      <trkpt lat="45.55591" lon="4.73417">
        <ele>329</ele>
        <time>2018-08-15T09:33:40.256Z</time>
      </trkpt>
      <trkpt lat="45.55591" lon="4.73417">
        <ele>329</ele>
        <time>2018-08-15T09:33:41.271Z</time>
      </trkpt>
      <trkpt lat="45.55597" lon="4.73437">
        <ele>329</ele>
        <time>2018-08-15T09:33:42.266Z</time>
      </trkpt>
      <trkpt lat="45.55597" lon="4.73437">
        <ele>329</ele>
        <time>2018-08-15T09:33:43.260Z</time>
      </trkpt>
      <trkpt lat="45.55604" lon="4.73448">
        <ele>329</ele>
        <time>2018-08-15T09:33:44.262Z</time>
      </trkpt>
      <trkpt lat="45.55604" lon="4.73448">
        <ele>329</ele>
        <time>2018-08-15T09:33:45.261Z</time>
      </trkpt>
      <trkpt lat="45.55612" lon="4.73443">
        <ele>329</ele>
        <time>2018-08-15T09:33:46.247Z</time>
      </trkpt>
      <trkpt lat="45.55612" lon="4.73443">
        <ele>329</ele>
        <time>2018-08-15T09:33:47.236Z</time>
      </trkpt>
      <trkpt lat="45.55618" lon="4.73437">
        <ele>329</ele>
        <time>2018-08-15T09:33:48.264Z</time>
      </trkpt>
      <trkpt lat="45.55618" lon="4.73437">
        <ele>329</ele>
        <time>2018-08-15T09:33:49.269Z</time>
      </trkpt>
      <trkpt lat="45.55622" lon="4.73429">
        <ele>330</ele>
        <time>2018-08-15T09:33:50.258Z</time>
      </trkpt>
      <trkpt lat="45.55622" lon="4.73429">
        <ele>330</ele>
        <time>2018-08-15T09:33:51.243Z</time>
      </trkpt>
      <trkpt lat="45.55625" lon="4.73422">
        <ele>330</ele>
        <time>2018-08-15T09:33:52.244Z</time>
      </trkpt>
      <trkpt lat="45.55625" lon="4.73422">
        <ele>330</ele>
        <time>2018-08-15T09:33:53.248Z</time>
      </trkpt>
      <trkpt lat="45.5563" lon="4.73415">
        <ele>330</ele>
        <time>2018-08-15T09:33:54.240Z</time>
      </trkpt>
      <trkpt lat="45.5563" lon="4.73415">
        <ele>330</ele>
        <time>2018-08-15T09:33:55.255Z</time>
      </trkpt>
      <trkpt lat="45.55634" lon="4.73408">
        <ele>331</ele>
        <time>2018-08-15T09:33:56.249Z</time>
      </trkpt>
      <trkpt lat="45.55634" lon="4.73408">
        <ele>331</ele>
        <time>2018-08-15T09:33:57.255Z</time>
      </trkpt>
      <trkpt lat="45.55638" lon="4.73402">
        <ele>331</ele>
        <time>2018-08-15T09:33:58.247Z</time>
      </trkpt>
      <trkpt lat="45.55638" lon="4.73402">
        <ele>331</ele>
        <time>2018-08-15T09:33:59.252Z</time>
      </trkpt>
      <trkpt lat="45.55642" lon="4.73396">
        <ele>331</ele>
        <time>2018-08-15T09:34:00.256Z</time>
      </trkpt>
      <trkpt lat="45.55642" lon="4.73396">
        <ele>331</ele>
        <time>2018-08-15T09:34:01.250Z</time>
      </trkpt>
      <trkpt lat="45.55646" lon="4.73391">
        <ele>331</ele>
        <time>2018-08-15T09:34:02.236Z</time>
      </trkpt>
      <trkpt lat="45.55646" lon="4.73391">
        <ele>331</ele>
        <time>2018-08-15T09:34:03.259Z</time>
      </trkpt>
      <trkpt lat="45.55651" lon="4.73386">
        <ele>331</ele>
        <time>2018-08-15T09:34:04.246Z</time>
      </trkpt>
      <trkpt lat="45.55651" lon="4.73386">
        <ele>331</ele>
        <time>2018-08-15T09:34:05.249Z</time>
      </trkpt>
      <trkpt lat="45.55656" lon="4.73381">
        <ele>331</ele>
        <time>2018-08-15T09:34:06.243Z</time>
      </trkpt>
      <trkpt lat="45.55656" lon="4.73381">
        <ele>331</ele>
        <time>2018-08-15T09:34:07.260Z</time>
      </trkpt>
      <trkpt lat="45.55661" lon="4.73377">
        <ele>332</ele>
        <time>2018-08-15T09:34:08.256Z</time>
      </trkpt>
      <trkpt lat="45.55661" lon="4.73377">
        <ele>332</ele>
        <time>2018-08-15T09:34:09.250Z</time>
      </trkpt>
      <trkpt lat="45.55664" lon="4.73375">
        <ele>332</ele>
        <time>2018-08-15T09:34:10.262Z</time>
      </trkpt>
      <trkpt lat="45.55664" lon="4.73375">
        <ele>332</ele>
        <time>2018-08-15T09:34:11.233Z</time>
      </trkpt>
      <trkpt lat="45.55669" lon="4.73371">
        <ele>332</ele>
        <time>2018-08-15T09:34:12.232Z</time>
      </trkpt>
      <trkpt lat="45.55669" lon="4.73371">
        <ele>332</ele>
        <time>2018-08-15T09:34:13.235Z</time>
      </trkpt>
      <trkpt lat="45.55674" lon="4.73367">
        <ele>332</ele>
        <time>2018-08-15T09:34:14.275Z</time>
      </trkpt>
      <trkpt lat="45.55674" lon="4.73367">
        <ele>332</ele>
        <time>2018-08-15T09:34:15.255Z</time>
      </trkpt>
      <trkpt lat="45.55679" lon="4.73362">
        <ele>332</ele>
        <time>2018-08-15T09:34:16.256Z</time>
      </trkpt>
      <trkpt lat="45.55682" lon="4.73361">
        <ele>332</ele>
        <time>2018-08-15T09:34:17.266Z</time>
      </trkpt>
      <trkpt lat="45.55682" lon="4.73361">
        <ele>332</ele>
        <time>2018-08-15T09:34:18.253Z</time>
      </trkpt>
      <trkpt lat="45.55687" lon="4.73358">
        <ele>333</ele>
        <time>2018-08-15T09:34:19.252Z</time>
      </trkpt>
      <trkpt lat="45.5569" lon="4.73357">
        <ele>333</ele>
        <time>2018-08-15T09:34:20.246Z</time>
      </trkpt>
      <trkpt lat="45.5569" lon="4.73357">
        <ele>333</ele>
        <time>2018-08-15T09:34:21.251Z</time>
      </trkpt>
      <trkpt lat="45.55695" lon="4.73354">
        <ele>333</ele>
        <time>2018-08-15T09:34:22.243Z</time>
      </trkpt>
      <trkpt lat="45.55695" lon="4.73354">
        <ele>333</ele>
        <time>2018-08-15T09:34:23.249Z</time>
      </trkpt>
      <trkpt lat="45.55701" lon="4.73351">
        <ele>332</ele>
        <time>2018-08-15T09:34:24.251Z</time>
      </trkpt>
      <trkpt lat="45.55701" lon="4.73351">
        <ele>332</ele>
        <time>2018-08-15T09:34:25.240Z</time>
      </trkpt>
      <trkpt lat="45.55706" lon="4.73348">
        <ele>333</ele>
        <time>2018-08-15T09:34:26.275Z</time>
      </trkpt>
      <trkpt lat="45.55706" lon="4.73348">
        <ele>333</ele>
        <time>2018-08-15T09:34:27.260Z</time>
      </trkpt>
      <trkpt lat="45.5571" lon="4.73345">
        <ele>332</ele>
        <time>2018-08-15T09:34:28.257Z</time>
      </trkpt>
      <trkpt lat="45.5571" lon="4.73345">
        <ele>332</ele>
        <time>2018-08-15T09:34:29.243Z</time>
      </trkpt>
      <trkpt lat="45.55714" lon="4.73343">
        <ele>333</ele>
        <time>2018-08-15T09:34:30.264Z</time>
      </trkpt>
      <trkpt lat="45.55714" lon="4.73343">
        <ele>333</ele>
        <time>2018-08-15T09:34:31.243Z</time>
      </trkpt>
      <trkpt lat="45.55718" lon="4.7334">
        <ele>333</ele>
        <time>2018-08-15T09:34:32.276Z</time>
      </trkpt>
      <trkpt lat="45.55718" lon="4.7334">
        <ele>333</ele>
        <time>2018-08-15T09:34:33.263Z</time>
      </trkpt>
      <trkpt lat="45.55723" lon="4.73338">
        <ele>333</ele>
        <time>2018-08-15T09:34:34.266Z</time>
      </trkpt>
      <trkpt lat="45.55723" lon="4.73338">
        <ele>333</ele>
        <time>2018-08-15T09:34:35.262Z</time>
      </trkpt>
      <trkpt lat="45.55727" lon="4.73337">
        <ele>334</ele>
        <time>2018-08-15T09:34:36.258Z</time>
      </trkpt>
      <trkpt lat="45.55727" lon="4.73337">
        <ele>334</ele>
        <time>2018-08-15T09:34:37.270Z</time>
      </trkpt>
      <trkpt lat="45.55731" lon="4.73335">
        <ele>334</ele>
        <time>2018-08-15T09:34:38.260Z</time>
      </trkpt>
      <trkpt lat="45.55731" lon="4.73335">
        <ele>334</ele>
        <time>2018-08-15T09:34:39.264Z</time>
      </trkpt>
      <trkpt lat="45.55736" lon="4.73333">
        <ele>335</ele>
        <time>2018-08-15T09:34:40.265Z</time>
      </trkpt>
      <trkpt lat="45.55736" lon="4.73333">
        <ele>335</ele>
        <time>2018-08-15T09:34:41.232Z</time>
      </trkpt>
      <trkpt lat="45.55741" lon="4.73331">
        <ele>335</ele>
        <time>2018-08-15T09:34:42.261Z</time>
      </trkpt>
      <trkpt lat="45.55741" lon="4.73331">
        <ele>335</ele>
        <time>2018-08-15T09:34:43.255Z</time>
      </trkpt>
      <trkpt lat="45.55746" lon="4.7333">
        <ele>336</ele>
        <time>2018-08-15T09:34:44.246Z</time>
      </trkpt>
      <trkpt lat="45.55746" lon="4.7333">
        <ele>336</ele>
        <time>2018-08-15T09:34:45.257Z</time>
      </trkpt>
      <trkpt lat="45.5575" lon="4.73329">
        <ele>336</ele>
        <time>2018-08-15T09:34:46.269Z</time>
      </trkpt>
      <trkpt lat="45.5575" lon="4.73329">
        <ele>336</ele>
        <time>2018-08-15T09:34:47.237Z</time>
      </trkpt>
      <trkpt lat="45.55754" lon="4.73328">
        <ele>337</ele>
        <time>2018-08-15T09:34:48.268Z</time>
      </trkpt>
      <trkpt lat="45.55754" lon="4.73328">
        <ele>337</ele>
        <time>2018-08-15T09:34:49.260Z</time>
      </trkpt>
      <trkpt lat="45.55758" lon="4.73329">
        <ele>337</ele>
        <time>2018-08-15T09:34:50.255Z</time>
      </trkpt>
      <trkpt lat="45.55758" lon="4.73329">
        <ele>337</ele>
        <time>2018-08-15T09:34:51.243Z</time>
      </trkpt>
      <trkpt lat="45.55763" lon="4.7333">
        <ele>337</ele>
        <time>2018-08-15T09:34:52.250Z</time>
      </trkpt>
      <trkpt lat="45.55763" lon="4.7333">
        <ele>337</ele>
        <time>2018-08-15T09:34:53.255Z</time>
      </trkpt>
      <trkpt lat="45.55767" lon="4.7333">
        <ele>338</ele>
        <time>2018-08-15T09:34:54.247Z</time>
      </trkpt>
      <trkpt lat="45.55767" lon="4.7333">
        <ele>338</ele>
        <time>2018-08-15T09:34:55.255Z</time>
      </trkpt>
      <trkpt lat="45.55771" lon="4.73332">
        <ele>338</ele>
        <time>2018-08-15T09:34:56.246Z</time>
      </trkpt>
      <trkpt lat="45.55771" lon="4.73332">
        <ele>338</ele>
        <time>2018-08-15T09:34:57.244Z</time>
      </trkpt>
      <trkpt lat="45.55776" lon="4.73334">
        <ele>338</ele>
        <time>2018-08-15T09:34:58.273Z</time>
      </trkpt>
      <trkpt lat="45.55776" lon="4.73334">
        <ele>338</ele>
        <time>2018-08-15T09:34:59.252Z</time>
      </trkpt>
      <trkpt lat="45.5578" lon="4.73336">
        <ele>339</ele>
        <time>2018-08-15T09:35:00.255Z</time>
      </trkpt>
      <trkpt lat="45.5578" lon="4.73336">
        <ele>339</ele>
        <time>2018-08-15T09:35:01.261Z</time>
      </trkpt>
      <trkpt lat="45.55783" lon="4.73338">
        <ele>339</ele>
        <time>2018-08-15T09:35:02.245Z</time>
      </trkpt>
      <trkpt lat="45.55783" lon="4.73338">
        <ele>339</ele>
        <time>2018-08-15T09:35:03.250Z</time>
      </trkpt>
      <trkpt lat="45.55787" lon="4.73341">
        <ele>339</ele>
        <time>2018-08-15T09:35:04.244Z</time>
      </trkpt>
      <trkpt lat="45.55787" lon="4.73341">
        <ele>339</ele>
        <time>2018-08-15T09:35:05.232Z</time>
      </trkpt>
      <trkpt lat="45.5579" lon="4.73345">
        <ele>340</ele>
        <time>2018-08-15T09:35:06.251Z</time>
      </trkpt>
      <trkpt lat="45.5579" lon="4.73345">
        <ele>340</ele>
        <time>2018-08-15T09:35:07.251Z</time>
      </trkpt>
      <trkpt lat="45.55793" lon="4.73349">
        <ele>340</ele>
        <time>2018-08-15T09:35:08.247Z</time>
      </trkpt>
      <trkpt lat="45.55793" lon="4.73349">
        <ele>340</ele>
        <time>2018-08-15T09:35:09.257Z</time>
      </trkpt>
      <trkpt lat="45.55796" lon="4.73354">
        <ele>340</ele>
        <time>2018-08-15T09:35:10.241Z</time>
      </trkpt>
      <trkpt lat="45.55796" lon="4.73354">
        <ele>340</ele>
        <time>2018-08-15T09:35:11.256Z</time>
      </trkpt>
      <trkpt lat="45.55799" lon="4.73359">
        <ele>340</ele>
        <time>2018-08-15T09:35:12.266Z</time>
      </trkpt>
      <trkpt lat="45.55799" lon="4.73359">
        <ele>340</ele>
        <time>2018-08-15T09:35:13.232Z</time>
      </trkpt>
      <trkpt lat="45.55802" lon="4.73363">
        <ele>341</ele>
        <time>2018-08-15T09:35:14.264Z</time>
      </trkpt>
      <trkpt lat="45.55802" lon="4.73363">
        <ele>341</ele>
        <time>2018-08-15T09:35:15.265Z</time>
      </trkpt>
      <trkpt lat="45.55805" lon="4.73368">
        <ele>341</ele>
        <time>2018-08-15T09:35:16.256Z</time>
      </trkpt>
      <trkpt lat="45.55805" lon="4.73368">
        <ele>341</ele>
        <time>2018-08-15T09:35:17.242Z</time>
      </trkpt>
      <trkpt lat="45.55808" lon="4.73373">
        <ele>341</ele>
        <time>2018-08-15T09:35:18.236Z</time>
      </trkpt>
      <trkpt lat="45.55808" lon="4.73373">
        <ele>341</ele>
        <time>2018-08-15T09:35:19.243Z</time>
      </trkpt>
      <trkpt lat="45.55811" lon="4.73378">
        <ele>342</ele>
        <time>2018-08-15T09:35:20.242Z</time>
      </trkpt>
      <trkpt lat="45.55811" lon="4.73378">
        <ele>342</ele>
        <time>2018-08-15T09:35:21.270Z</time>
      </trkpt>
      <trkpt lat="45.55813" lon="4.73383">
        <ele>342</ele>
        <time>2018-08-15T09:35:22.254Z</time>
      </trkpt>
      <trkpt lat="45.55813" lon="4.73383">
        <ele>342</ele>
        <time>2018-08-15T09:35:23.245Z</time>
      </trkpt>
      <trkpt lat="45.55816" lon="4.73387">
        <ele>343</ele>
        <time>2018-08-15T09:35:24.266Z</time>
      </trkpt>
      <trkpt lat="45.55816" lon="4.73387">
        <ele>343</ele>
        <time>2018-08-15T09:35:25.271Z</time>
      </trkpt>
      <trkpt lat="45.55818" lon="4.73392">
        <ele>343</ele>
        <time>2018-08-15T09:35:26.236Z</time>
      </trkpt>
      <trkpt lat="45.55818" lon="4.73392">
        <ele>343</ele>
        <time>2018-08-15T09:35:27.248Z</time>
      </trkpt>
      <trkpt lat="45.5582" lon="4.73396">
        <ele>344</ele>
        <time>2018-08-15T09:35:28.244Z</time>
      </trkpt>
      <trkpt lat="45.5582" lon="4.73396">
        <ele>344</ele>
        <time>2018-08-15T09:35:29.249Z</time>
      </trkpt>
      <trkpt lat="45.55823" lon="4.73401">
        <ele>344</ele>
        <time>2018-08-15T09:35:30.256Z</time>
      </trkpt>
      <trkpt lat="45.55825" lon="4.73403">
        <ele>344</ele>
        <time>2018-08-15T09:35:31.266Z</time>
      </trkpt>
      <trkpt lat="45.55826" lon="4.73405">
        <ele>345</ele>
        <time>2018-08-15T09:35:32.259Z</time>
      </trkpt>
      <trkpt lat="45.55826" lon="4.73405">
        <ele>345</ele>
        <time>2018-08-15T09:35:33.264Z</time>
      </trkpt>
      <trkpt lat="45.55829" lon="4.73409">
        <ele>346</ele>
        <time>2018-08-15T09:35:34.258Z</time>
      </trkpt>
      <trkpt lat="45.55829" lon="4.73409">
        <ele>346</ele>
        <time>2018-08-15T09:35:35.263Z</time>
      </trkpt>
      <trkpt lat="45.55831" lon="4.73414">
        <ele>346</ele>
        <time>2018-08-15T09:35:36.249Z</time>
      </trkpt>
      <trkpt lat="45.55833" lon="4.73416">
        <ele>346</ele>
        <time>2018-08-15T09:35:37.260Z</time>
      </trkpt>
      <trkpt lat="45.55834" lon="4.73419">
        <ele>347</ele>
        <time>2018-08-15T09:35:38.238Z</time>
      </trkpt>
      <trkpt lat="45.55834" lon="4.73419">
        <ele>347</ele>
        <time>2018-08-15T09:35:39.243Z</time>
      </trkpt>
      <trkpt lat="45.55837" lon="4.73424">
        <ele>347</ele>
        <time>2018-08-15T09:35:40.237Z</time>
      </trkpt>
      <trkpt lat="45.55837" lon="4.73424">
        <ele>347</ele>
        <time>2018-08-15T09:35:41.254Z</time>
      </trkpt>
      <trkpt lat="45.55841" lon="4.73429">
        <ele>347</ele>
        <time>2018-08-15T09:35:42.253Z</time>
      </trkpt>
      <trkpt lat="45.55841" lon="4.73429">
        <ele>347</ele>
        <time>2018-08-15T09:35:43.258Z</time>
      </trkpt>
      <trkpt lat="45.55845" lon="4.73433">
        <ele>347</ele>
        <time>2018-08-15T09:35:44.266Z</time>
      </trkpt>
      <trkpt lat="45.55845" lon="4.73433">
        <ele>347</ele>
        <time>2018-08-15T09:35:45.258Z</time>
      </trkpt>
      <trkpt lat="45.55848" lon="4.73437">
        <ele>347</ele>
        <time>2018-08-15T09:35:46.250Z</time>
      </trkpt>
      <trkpt lat="45.55848" lon="4.73437">
        <ele>347</ele>
        <time>2018-08-15T09:35:47.237Z</time>
      </trkpt>
      <trkpt lat="45.55852" lon="4.73441">
        <ele>348</ele>
        <time>2018-08-15T09:35:48.265Z</time>
      </trkpt>
      <trkpt lat="45.55852" lon="4.73441">
        <ele>348</ele>
        <time>2018-08-15T09:35:49.271Z</time>
      </trkpt>
      <trkpt lat="45.55856" lon="4.73444">
        <ele>348</ele>
        <time>2018-08-15T09:35:50.269Z</time>
      </trkpt>
      <trkpt lat="45.55856" lon="4.73444">
        <ele>348</ele>
        <time>2018-08-15T09:35:51.250Z</time>
      </trkpt>
      <trkpt lat="45.5586" lon="4.73448">
        <ele>348</ele>
        <time>2018-08-15T09:35:52.276Z</time>
      </trkpt>
      <trkpt lat="45.5586" lon="4.73448">
        <ele>348</ele>
        <time>2018-08-15T09:35:53.261Z</time>
      </trkpt>
      <trkpt lat="45.55864" lon="4.73451">
        <ele>348</ele>
        <time>2018-08-15T09:35:54.253Z</time>
      </trkpt>
      <trkpt lat="45.55864" lon="4.73451">
        <ele>348</ele>
        <time>2018-08-15T09:35:55.259Z</time>
      </trkpt>
      <trkpt lat="45.55868" lon="4.73454">
        <ele>348</ele>
        <time>2018-08-15T09:35:56.262Z</time>
      </trkpt>
      <trkpt lat="45.55868" lon="4.73454">
        <ele>348</ele>
        <time>2018-08-15T09:35:57.243Z</time>
      </trkpt>
      <trkpt lat="45.55873" lon="4.73457">
        <ele>348</ele>
        <time>2018-08-15T09:35:58.269Z</time>
      </trkpt>
      <trkpt lat="45.55873" lon="4.73457">
        <ele>348</ele>
        <time>2018-08-15T09:35:59.235Z</time>
      </trkpt>
      <trkpt lat="45.55877" lon="4.7346">
        <ele>348</ele>
        <time>2018-08-15T09:36:00.239Z</time>
      </trkpt>
      <trkpt lat="45.55879" lon="4.73461">
        <ele>348</ele>
        <time>2018-08-15T09:36:01.276Z</time>
      </trkpt>
      <trkpt lat="45.55881" lon="4.73462">
        <ele>348</ele>
        <time>2018-08-15T09:36:02.266Z</time>
      </trkpt>
      <trkpt lat="45.55881" lon="4.73462">
        <ele>348</ele>
        <time>2018-08-15T09:36:03.264Z</time>
      </trkpt>
      <trkpt lat="45.55886" lon="4.73464">
        <ele>348</ele>
        <time>2018-08-15T09:36:04.247Z</time>
      </trkpt>
      <trkpt lat="45.55886" lon="4.73464">
        <ele>348</ele>
        <time>2018-08-15T09:36:05.253Z</time>
      </trkpt>
      <trkpt lat="45.55891" lon="4.73467">
        <ele>348</ele>
        <time>2018-08-15T09:36:06.245Z</time>
      </trkpt>
      <trkpt lat="45.55893" lon="4.73468">
        <ele>348</ele>
        <time>2018-08-15T09:36:07.266Z</time>
      </trkpt>
      <trkpt lat="45.55896" lon="4.73468">
        <ele>348</ele>
        <time>2018-08-15T09:36:08.274Z</time>
      </trkpt>
      <trkpt lat="45.55896" lon="4.73468">
        <ele>348</ele>
        <time>2018-08-15T09:36:09.253Z</time>
      </trkpt>
      <trkpt lat="45.55901" lon="4.7347">
        <ele>348</ele>
        <time>2018-08-15T09:36:10.255Z</time>
      </trkpt>
      <trkpt lat="45.55901" lon="4.7347">
        <ele>348</ele>
        <time>2018-08-15T09:36:11.248Z</time>
      </trkpt>
      <trkpt lat="45.55905" lon="4.73473">
        <ele>349</ele>
        <time>2018-08-15T09:36:12.240Z</time>
      </trkpt>
      <trkpt lat="45.55905" lon="4.73473">
        <ele>349</ele>
        <time>2018-08-15T09:36:13.258Z</time>
      </trkpt>
      <trkpt lat="45.5591" lon="4.73476">
        <ele>349</ele>
        <time>2018-08-15T09:36:14.248Z</time>
      </trkpt>
      <trkpt lat="45.5591" lon="4.73476">
        <ele>349</ele>
        <time>2018-08-15T09:36:15.246Z</time>
      </trkpt>
      <trkpt lat="45.55915" lon="4.73478">
        <ele>349</ele>
        <time>2018-08-15T09:36:16.247Z</time>
      </trkpt>
      <trkpt lat="45.55915" lon="4.73478">
        <ele>349</ele>
        <time>2018-08-15T09:36:17.256Z</time>
      </trkpt>
      <trkpt lat="45.5592" lon="4.7348">
        <ele>349</ele>
        <time>2018-08-15T09:36:18.272Z</time>
      </trkpt>
      <trkpt lat="45.5592" lon="4.7348">
        <ele>349</ele>
        <time>2018-08-15T09:36:19.251Z</time>
      </trkpt>
      <trkpt lat="45.55925" lon="4.73482">
        <ele>349</ele>
        <time>2018-08-15T09:36:20.248Z</time>
      </trkpt>
      <trkpt lat="45.55925" lon="4.73482">
        <ele>349</ele>
        <time>2018-08-15T09:36:21.249Z</time>
      </trkpt>
      <trkpt lat="45.55929" lon="4.73485">
        <ele>349</ele>
        <time>2018-08-15T09:36:22.256Z</time>
      </trkpt>
      <trkpt lat="45.55932" lon="4.73486">
        <ele>349</ele>
        <time>2018-08-15T09:36:23.246Z</time>
      </trkpt>
      <trkpt lat="45.55932" lon="4.73486">
        <ele>349</ele>
        <time>2018-08-15T09:36:24.259Z</time>
      </trkpt>
      <trkpt lat="45.55936" lon="4.73488">
        <ele>349</ele>
        <time>2018-08-15T09:36:25.240Z</time>
      </trkpt>
      <trkpt lat="45.55939" lon="4.7349">
        <ele>349</ele>
        <time>2018-08-15T09:36:26.265Z</time>
      </trkpt>
      <trkpt lat="45.55939" lon="4.7349">
        <ele>349</ele>
        <time>2018-08-15T09:36:27.249Z</time>
      </trkpt>
      <trkpt lat="45.55943" lon="4.73493">
        <ele>349</ele>
        <time>2018-08-15T09:36:28.249Z</time>
      </trkpt>
      <trkpt lat="45.55943" lon="4.73493">
        <ele>349</ele>
        <time>2018-08-15T09:36:29.256Z</time>
      </trkpt>
      <trkpt lat="45.55948" lon="4.73496">
        <ele>349</ele>
        <time>2018-08-15T09:36:30.256Z</time>
      </trkpt>
      <trkpt lat="45.55948" lon="4.73496">
        <ele>349</ele>
        <time>2018-08-15T09:36:31.261Z</time>
      </trkpt>
      <trkpt lat="45.55952" lon="4.73499">
        <ele>349</ele>
        <time>2018-08-15T09:36:32.255Z</time>
      </trkpt>
      <trkpt lat="45.55952" lon="4.73499">
        <ele>349</ele>
        <time>2018-08-15T09:36:33.236Z</time>
      </trkpt>
      <trkpt lat="45.55957" lon="4.73502">
        <ele>350</ele>
        <time>2018-08-15T09:36:34.235Z</time>
      </trkpt>
      <trkpt lat="45.55957" lon="4.73502">
        <ele>350</ele>
        <time>2018-08-15T09:36:35.253Z</time>
      </trkpt>
      <trkpt lat="45.55961" lon="4.73506">
        <ele>350</ele>
        <time>2018-08-15T09:36:36.287Z</time>
      </trkpt>
      <trkpt lat="45.55961" lon="4.73506">
        <ele>350</ele>
        <time>2018-08-15T09:36:37.239Z</time>
      </trkpt>
      <trkpt lat="45.55966" lon="4.73509">
        <ele>350</ele>
        <time>2018-08-15T09:36:38.244Z</time>
      </trkpt>
      <trkpt lat="45.55966" lon="4.73509">
        <ele>350</ele>
        <time>2018-08-15T09:36:39.232Z</time>
      </trkpt>
      <trkpt lat="45.55971" lon="4.73512">
        <ele>350</ele>
        <time>2018-08-15T09:36:40.268Z</time>
      </trkpt>
      <trkpt lat="45.55971" lon="4.73512">
        <ele>350</ele>
        <time>2018-08-15T09:36:41.252Z</time>
      </trkpt>
      <trkpt lat="45.55976" lon="4.73515">
        <ele>350</ele>
        <time>2018-08-15T09:36:42.257Z</time>
      </trkpt>
      <trkpt lat="45.55976" lon="4.73515">
        <ele>350</ele>
        <time>2018-08-15T09:36:43.262Z</time>
      </trkpt>
      <trkpt lat="45.5598" lon="4.73518">
        <ele>350</ele>
        <time>2018-08-15T09:36:44.266Z</time>
      </trkpt>
      <trkpt lat="45.5598" lon="4.73518">
        <ele>350</ele>
        <time>2018-08-15T09:36:45.249Z</time>
      </trkpt>
      <trkpt lat="45.55985" lon="4.73521">
        <ele>350</ele>
        <time>2018-08-15T09:36:46.244Z</time>
      </trkpt>
      <trkpt lat="45.55985" lon="4.73521">
        <ele>350</ele>
        <time>2018-08-15T09:36:47.259Z</time>
      </trkpt>
      <trkpt lat="45.5599" lon="4.73524">
        <ele>350</ele>
        <time>2018-08-15T09:36:48.256Z</time>
      </trkpt>
      <trkpt lat="45.55992" lon="4.73526">
        <ele>350</ele>
        <time>2018-08-15T09:36:49.232Z</time>
      </trkpt>
      <trkpt lat="45.55994" lon="4.73528">
        <ele>350</ele>
        <time>2018-08-15T09:36:50.251Z</time>
      </trkpt>
      <trkpt lat="45.55994" lon="4.73528">
        <ele>350</ele>
        <time>2018-08-15T09:36:51.257Z</time>
      </trkpt>
      <trkpt lat="45.55999" lon="4.73531">
        <ele>349</ele>
        <time>2018-08-15T09:36:52.241Z</time>
      </trkpt>
      <trkpt lat="45.55999" lon="4.73531">
        <ele>349</ele>
        <time>2018-08-15T09:36:53.253Z</time>
      </trkpt>
      <trkpt lat="45.56004" lon="4.73535">
        <ele>349</ele>
        <time>2018-08-15T09:36:54.256Z</time>
      </trkpt>
      <trkpt lat="45.56004" lon="4.73535">
        <ele>349</ele>
        <time>2018-08-15T09:36:55.261Z</time>
      </trkpt>
      <trkpt lat="45.56009" lon="4.73538">
        <ele>349</ele>
        <time>2018-08-15T09:36:56.263Z</time>
      </trkpt>
      <trkpt lat="45.56009" lon="4.73538">
        <ele>349</ele>
        <time>2018-08-15T09:36:57.233Z</time>
      </trkpt>
      <trkpt lat="45.56015" lon="4.73541">
        <ele>349</ele>
        <time>2018-08-15T09:36:58.266Z</time>
      </trkpt>
      <trkpt lat="45.56015" lon="4.73541">
        <ele>349</ele>
        <time>2018-08-15T09:36:59.245Z</time>
      </trkpt>
      <trkpt lat="45.5602" lon="4.73545">
        <ele>349</ele>
        <time>2018-08-15T09:37:00.238Z</time>
      </trkpt>
      <trkpt lat="45.5602" lon="4.73545">
        <ele>349</ele>
        <time>2018-08-15T09:37:01.253Z</time>
      </trkpt>
      <trkpt lat="45.56025" lon="4.73549">
        <ele>349</ele>
        <time>2018-08-15T09:37:02.248Z</time>
      </trkpt>
      <trkpt lat="45.56025" lon="4.73549">
        <ele>349</ele>
        <time>2018-08-15T09:37:03.248Z</time>
      </trkpt>
      <trkpt lat="45.5603" lon="4.73553">
        <ele>349</ele>
        <time>2018-08-15T09:37:04.252Z</time>
      </trkpt>
      <trkpt lat="45.56033" lon="4.73555">
        <ele>349</ele>
        <time>2018-08-15T09:37:05.236Z</time>
      </trkpt>
      <trkpt lat="45.56033" lon="4.73555">
        <ele>349</ele>
        <time>2018-08-15T09:37:06.250Z</time>
      </trkpt>
      <trkpt lat="45.56038" lon="4.7356">
        <ele>349</ele>
        <time>2018-08-15T09:37:07.251Z</time>
      </trkpt>
      <trkpt lat="45.56041" lon="4.73562">
        <ele>349</ele>
        <time>2018-08-15T09:37:08.259Z</time>
      </trkpt>
      <trkpt lat="45.56044" lon="4.73564">
        <ele>349</ele>
        <time>2018-08-15T09:37:09.256Z</time>
      </trkpt>
      <trkpt lat="45.56044" lon="4.73564">
        <ele>349</ele>
        <time>2018-08-15T09:37:10.270Z</time>
      </trkpt>
      <trkpt lat="45.56049" lon="4.73569">
        <ele>349</ele>
        <time>2018-08-15T09:37:11.255Z</time>
      </trkpt>
      <trkpt lat="45.56049" lon="4.73569">
        <ele>349</ele>
        <time>2018-08-15T09:37:12.260Z</time>
      </trkpt>
      <trkpt lat="45.56054" lon="4.73574">
        <ele>349</ele>
        <time>2018-08-15T09:37:13.242Z</time>
      </trkpt>
      <trkpt lat="45.56057" lon="4.73577">
        <ele>349</ele>
        <time>2018-08-15T09:37:14.246Z</time>
      </trkpt>
      <trkpt lat="45.56057" lon="4.73577">
        <ele>349</ele>
        <time>2018-08-15T09:37:15.249Z</time>
      </trkpt>
      <trkpt lat="45.56062" lon="4.73582">
        <ele>349</ele>
        <time>2018-08-15T09:37:16.269Z</time>
      </trkpt>
      <trkpt lat="45.56062" lon="4.73582">
        <ele>349</ele>
        <time>2018-08-15T09:37:17.269Z</time>
      </trkpt>
      <trkpt lat="45.56067" lon="4.73587">
        <ele>349</ele>
        <time>2018-08-15T09:37:18.265Z</time>
      </trkpt>
      <trkpt lat="45.56067" lon="4.73587">
        <ele>349</ele>
        <time>2018-08-15T09:37:19.260Z</time>
      </trkpt>
      <trkpt lat="45.56072" lon="4.73592">
        <ele>349</ele>
        <time>2018-08-15T09:37:20.257Z</time>
      </trkpt>
      <trkpt lat="45.56075" lon="4.73595">
        <ele>349</ele>
        <time>2018-08-15T09:37:21.262Z</time>
      </trkpt>
      <trkpt lat="45.56075" lon="4.73595">
        <ele>349</ele>
        <time>2018-08-15T09:37:22.253Z</time>
      </trkpt>
      <trkpt lat="45.5608" lon="4.736">
        <ele>349</ele>
        <time>2018-08-15T09:37:23.241Z</time>
      </trkpt>
      <trkpt lat="45.5608" lon="4.736">
        <ele>349</ele>
        <time>2018-08-15T09:37:24.247Z</time>
      </trkpt>
      <trkpt lat="45.56085" lon="4.73605">
        <ele>349</ele>
        <time>2018-08-15T09:37:25.237Z</time>
      </trkpt>
      <trkpt lat="45.56087" lon="4.73608">
        <ele>349</ele>
        <time>2018-08-15T09:37:26.257Z</time>
      </trkpt>
      <trkpt lat="45.56087" lon="4.73608">
        <ele>349</ele>
        <time>2018-08-15T09:37:27.234Z</time>
      </trkpt>
      <trkpt lat="45.56093" lon="4.73613">
        <ele>349</ele>
        <time>2018-08-15T09:37:28.273Z</time>
      </trkpt>
      <trkpt lat="45.56093" lon="4.73613">
        <ele>349</ele>
        <time>2018-08-15T09:37:29.253Z</time>
      </trkpt>
      <trkpt lat="45.56098" lon="4.73619">
        <ele>349</ele>
        <time>2018-08-15T09:37:30.251Z</time>
      </trkpt>
      <trkpt lat="45.561" lon="4.73621">
        <ele>349</ele>
        <time>2018-08-15T09:37:31.246Z</time>
      </trkpt>
      <trkpt lat="45.56103" lon="4.73624">
        <ele>349</ele>
        <time>2018-08-15T09:37:32.286Z</time>
      </trkpt>
      <trkpt lat="45.56103" lon="4.73624">
        <ele>349</ele>
        <time>2018-08-15T09:37:33.251Z</time>
      </trkpt>
      <trkpt lat="45.56108" lon="4.7363">
        <ele>350</ele>
        <time>2018-08-15T09:37:34.247Z</time>
      </trkpt>
      <trkpt lat="45.56108" lon="4.7363">
        <ele>350</ele>
        <time>2018-08-15T09:37:35.244Z</time>
      </trkpt>
      <trkpt lat="45.56113" lon="4.73635">
        <ele>350</ele>
        <time>2018-08-15T09:37:36.246Z</time>
      </trkpt>
      <trkpt lat="45.56115" lon="4.73638">
        <ele>350</ele>
        <time>2018-08-15T09:37:37.266Z</time>
      </trkpt>
      <trkpt lat="45.56118" lon="4.7364">
        <ele>350</ele>
        <time>2018-08-15T09:37:38.235Z</time>
      </trkpt>
      <trkpt lat="45.56118" lon="4.7364">
        <ele>350</ele>
        <time>2018-08-15T09:37:39.258Z</time>
      </trkpt>
      <trkpt lat="45.56122" lon="4.73646">
        <ele>350</ele>
        <time>2018-08-15T09:37:40.242Z</time>
      </trkpt>
      <trkpt lat="45.56122" lon="4.73646">
        <ele>350</ele>
        <time>2018-08-15T09:37:41.247Z</time>
      </trkpt>
      <trkpt lat="45.56127" lon="4.73651">
        <ele>350</ele>
        <time>2018-08-15T09:37:42.248Z</time>
      </trkpt>
      <trkpt lat="45.56127" lon="4.73651">
        <ele>350</ele>
        <time>2018-08-15T09:37:43.256Z</time>
      </trkpt>
      <trkpt lat="45.56131" lon="4.73656">
        <ele>350</ele>
        <time>2018-08-15T09:37:44.250Z</time>
      </trkpt>
      <trkpt lat="45.56131" lon="4.73656">
        <ele>350</ele>
        <time>2018-08-15T09:37:45.263Z</time>
      </trkpt>
      <trkpt lat="45.56136" lon="4.73661">
        <ele>350</ele>
        <time>2018-08-15T09:37:46.263Z</time>
      </trkpt>
      <trkpt lat="45.56136" lon="4.73661">
        <ele>350</ele>
        <time>2018-08-15T09:37:47.244Z</time>
      </trkpt>
      <trkpt lat="45.56141" lon="4.73666">
        <ele>350</ele>
        <time>2018-08-15T09:37:48.233Z</time>
      </trkpt>
      <trkpt lat="45.56143" lon="4.73668">
        <ele>350</ele>
        <time>2018-08-15T09:37:49.246Z</time>
      </trkpt>
      <trkpt lat="45.56145" lon="4.73671">
        <ele>350</ele>
        <time>2018-08-15T09:37:50.266Z</time>
      </trkpt>
      <trkpt lat="45.56145" lon="4.73671">
        <ele>350</ele>
        <time>2018-08-15T09:37:51.242Z</time>
      </trkpt>
      <trkpt lat="45.5615" lon="4.73676">
        <ele>350</ele>
        <time>2018-08-15T09:37:52.232Z</time>
      </trkpt>
      <trkpt lat="45.5615" lon="4.73676">
        <ele>350</ele>
        <time>2018-08-15T09:37:53.266Z</time>
      </trkpt>
      <trkpt lat="45.56156" lon="4.73682">
        <ele>350</ele>
        <time>2018-08-15T09:37:54.252Z</time>
      </trkpt>
      <trkpt lat="45.56156" lon="4.73682">
        <ele>350</ele>
        <time>2018-08-15T09:37:55.266Z</time>
      </trkpt>
      <trkpt lat="45.56161" lon="4.73688">
        <ele>350</ele>
        <time>2018-08-15T09:37:56.264Z</time>
      </trkpt>
      <trkpt lat="45.56161" lon="4.73688">
        <ele>350</ele>
        <time>2018-08-15T09:37:57.245Z</time>
      </trkpt>
      <trkpt lat="45.56167" lon="4.73693">
        <ele>350</ele>
        <time>2018-08-15T09:37:58.246Z</time>
      </trkpt>
      <trkpt lat="45.56167" lon="4.73693">
        <ele>350</ele>
        <time>2018-08-15T09:37:59.243Z</time>
      </trkpt>
      <trkpt lat="45.56173" lon="4.73699">
        <ele>349</ele>
        <time>2018-08-15T09:38:00.266Z</time>
      </trkpt>
      <trkpt lat="45.56177" lon="4.73702">
        <ele>349</ele>
        <time>2018-08-15T09:38:01.241Z</time>
      </trkpt>
      <trkpt lat="45.5618" lon="4.73704">
        <ele>349</ele>
        <time>2018-08-15T09:38:02.244Z</time>
      </trkpt>
      <trkpt lat="45.5618" lon="4.73704">
        <ele>349</ele>
        <time>2018-08-15T09:38:03.242Z</time>
      </trkpt>
      <trkpt lat="45.56189" lon="4.73708">
        <ele>348</ele>
        <time>2018-08-15T09:38:04.268Z</time>
      </trkpt>
      <trkpt lat="45.56189" lon="4.73708">
        <ele>348</ele>
        <time>2018-08-15T09:38:05.269Z</time>
      </trkpt>
      <trkpt lat="45.56199" lon="4.7371">
        <ele>348</ele>
        <time>2018-08-15T09:38:06.260Z</time>
      </trkpt>
      <trkpt lat="45.56199" lon="4.7371">
        <ele>348</ele>
        <time>2018-08-15T09:38:07.241Z</time>
      </trkpt>
      <trkpt lat="45.5621" lon="4.73712">
        <ele>347</ele>
        <time>2018-08-15T09:38:08.236Z</time>
      </trkpt>
      <trkpt lat="45.5621" lon="4.73712">
        <ele>347</ele>
        <time>2018-08-15T09:38:09.247Z</time>
      </trkpt>
      <trkpt lat="45.56222" lon="4.73715">
        <ele>346</ele>
        <time>2018-08-15T09:38:10.241Z</time>
      </trkpt>
      <trkpt lat="45.56222" lon="4.73715">
        <ele>346</ele>
        <time>2018-08-15T09:38:11.259Z</time>
      </trkpt>
      <trkpt lat="45.56236" lon="4.73719">
        <ele>345</ele>
        <time>2018-08-15T09:38:12.249Z</time>
      </trkpt>
      <trkpt lat="45.56236" lon="4.73719">
        <ele>345</ele>
        <time>2018-08-15T09:38:13.248Z</time>
      </trkpt>
      <trkpt lat="45.5625" lon="4.73721">
        <ele>344</ele>
        <time>2018-08-15T09:38:14.242Z</time>
      </trkpt>
      <trkpt lat="45.5625" lon="4.73721">
        <ele>344</ele>
        <time>2018-08-15T09:38:15.249Z</time>
      </trkpt>
      <trkpt lat="45.56265" lon="4.73724">
        <ele>343</ele>
        <time>2018-08-15T09:38:16.259Z</time>
      </trkpt>
      <trkpt lat="45.56265" lon="4.73724">
        <ele>343</ele>
        <time>2018-08-15T09:38:17.235Z</time>
      </trkpt>
      <trkpt lat="45.56281" lon="4.73726">
        <ele>342</ele>
        <time>2018-08-15T09:38:18.256Z</time>
      </trkpt>
      <trkpt lat="45.56281" lon="4.73726">
        <ele>342</ele>
        <time>2018-08-15T09:38:19.249Z</time>
      </trkpt>
      <trkpt lat="45.56297" lon="4.7373">
        <ele>342</ele>
        <time>2018-08-15T09:38:20.253Z</time>
      </trkpt>
      <trkpt lat="45.56297" lon="4.7373">
        <ele>342</ele>
        <time>2018-08-15T09:38:21.271Z</time>
      </trkpt>
      <trkpt lat="45.56313" lon="4.73733">
        <ele>341</ele>
        <time>2018-08-15T09:38:22.276Z</time>
      </trkpt>
      <trkpt lat="45.56313" lon="4.73733">
        <ele>341</ele>
        <time>2018-08-15T09:38:23.261Z</time>
      </trkpt>
      <trkpt lat="45.5633" lon="4.73737">
        <ele>340</ele>
        <time>2018-08-15T09:38:24.258Z</time>
      </trkpt>
      <trkpt lat="45.5633" lon="4.73737">
        <ele>340</ele>
        <time>2018-08-15T09:38:25.271Z</time>
      </trkpt>
      <trkpt lat="45.56345" lon="4.73739">
        <ele>339</ele>
        <time>2018-08-15T09:38:26.243Z</time>
      </trkpt>
      <trkpt lat="45.56345" lon="4.73739">
        <ele>339</ele>
        <time>2018-08-15T09:38:27.258Z</time>
      </trkpt>
      <trkpt lat="45.56361" lon="4.73742">
        <ele>339</ele>
        <time>2018-08-15T09:38:28.257Z</time>
      </trkpt>
      <trkpt lat="45.56361" lon="4.73742">
        <ele>339</ele>
        <time>2018-08-15T09:38:29.247Z</time>
      </trkpt>
      <trkpt lat="45.56377" lon="4.73746">
        <ele>338</ele>
        <time>2018-08-15T09:38:30.269Z</time>
      </trkpt>
      <trkpt lat="45.56377" lon="4.73746">
        <ele>338</ele>
        <time>2018-08-15T09:38:31.268Z</time>
      </trkpt>
      <trkpt lat="45.56392" lon="4.73749">
        <ele>337</ele>
        <time>2018-08-15T09:38:32.234Z</time>
      </trkpt>
      <trkpt lat="45.56392" lon="4.73749">
        <ele>337</ele>
        <time>2018-08-15T09:38:33.242Z</time>
      </trkpt>
      <trkpt lat="45.56408" lon="4.73751">
        <ele>336</ele>
        <time>2018-08-15T09:38:34.236Z</time>
      </trkpt>
      <trkpt lat="45.56408" lon="4.73751">
        <ele>336</ele>
        <time>2018-08-15T09:38:35.241Z</time>
      </trkpt>
      <trkpt lat="45.56424" lon="4.73754">
        <ele>336</ele>
        <time>2018-08-15T09:38:36.266Z</time>
      </trkpt>
      <trkpt lat="45.56432" lon="4.73755">
        <ele>335</ele>
        <time>2018-08-15T09:38:37.233Z</time>
      </trkpt>
      <trkpt lat="45.5644" lon="4.73756">
        <ele>335</ele>
        <time>2018-08-15T09:38:38.266Z</time>
      </trkpt>
      <trkpt lat="45.5644" lon="4.73756">
        <ele>335</ele>
        <time>2018-08-15T09:38:39.236Z</time>
      </trkpt>
      <trkpt lat="45.56457" lon="4.73759">
        <ele>334</ele>
        <time>2018-08-15T09:38:40.263Z</time>
      </trkpt>
      <trkpt lat="45.56457" lon="4.73759">
        <ele>334</ele>
        <time>2018-08-15T09:38:41.248Z</time>
      </trkpt>
      <trkpt lat="45.56474" lon="4.73762">
        <ele>334</ele>
        <time>2018-08-15T09:38:42.244Z</time>
      </trkpt>
      <trkpt lat="45.56474" lon="4.73762">
        <ele>334</ele>
        <time>2018-08-15T09:38:43.261Z</time>
      </trkpt>
      <trkpt lat="45.5649" lon="4.73764">
        <ele>333</ele>
        <time>2018-08-15T09:38:44.266Z</time>
      </trkpt>
      <trkpt lat="45.5649" lon="4.73764">
        <ele>333</ele>
        <time>2018-08-15T09:38:45.243Z</time>
      </trkpt>
      <trkpt lat="45.56506" lon="4.73766">
        <ele>333</ele>
        <time>2018-08-15T09:38:46.240Z</time>
      </trkpt>
      <trkpt lat="45.56506" lon="4.73766">
        <ele>333</ele>
        <time>2018-08-15T09:38:47.240Z</time>
      </trkpt>
      <trkpt lat="45.56521" lon="4.73766">
        <ele>333</ele>
        <time>2018-08-15T09:38:48.236Z</time>
      </trkpt>
      <trkpt lat="45.56521" lon="4.73766">
        <ele>333</ele>
        <time>2018-08-15T09:38:49.249Z</time>
      </trkpt>
      <trkpt lat="45.56536" lon="4.73766">
        <ele>333</ele>
        <time>2018-08-15T09:38:50.238Z</time>
      </trkpt>
      <trkpt lat="45.56536" lon="4.73766">
        <ele>333</ele>
        <time>2018-08-15T09:38:51.251Z</time>
      </trkpt>
      <trkpt lat="45.56549" lon="4.73764">
        <ele>333</ele>
        <time>2018-08-15T09:38:52.256Z</time>
      </trkpt>
      <trkpt lat="45.56549" lon="4.73764">
        <ele>333</ele>
        <time>2018-08-15T09:38:53.241Z</time>
      </trkpt>
      <trkpt lat="45.56563" lon="4.73762">
        <ele>333</ele>
        <time>2018-08-15T09:38:54.238Z</time>
      </trkpt>
      <trkpt lat="45.56563" lon="4.73762">
        <ele>333</ele>
        <time>2018-08-15T09:38:55.246Z</time>
      </trkpt>
      <trkpt lat="45.56576" lon="4.7376">
        <ele>333</ele>
        <time>2018-08-15T09:38:56.245Z</time>
      </trkpt>
      <trkpt lat="45.56576" lon="4.7376">
        <ele>333</ele>
        <time>2018-08-15T09:38:57.266Z</time>
      </trkpt>
      <trkpt lat="45.56588" lon="4.7376">
        <ele>333</ele>
        <time>2018-08-15T09:38:58.276Z</time>
      </trkpt>
      <trkpt lat="45.56588" lon="4.7376">
        <ele>333</ele>
        <time>2018-08-15T09:38:59.243Z</time>
      </trkpt>
      <trkpt lat="45.56601" lon="4.73762">
        <ele>333</ele>
        <time>2018-08-15T09:39:00.238Z</time>
      </trkpt>
      <trkpt lat="45.56601" lon="4.73762">
        <ele>333</ele>
        <time>2018-08-15T09:39:01.269Z</time>
      </trkpt>
      <trkpt lat="45.56613" lon="4.73764">
        <ele>332</ele>
        <time>2018-08-15T09:39:02.267Z</time>
      </trkpt>
      <trkpt lat="45.56613" lon="4.73764">
        <ele>332</ele>
        <time>2018-08-15T09:39:03.232Z</time>
      </trkpt>
      <trkpt lat="45.56625" lon="4.73768">
        <ele>332</ele>
        <time>2018-08-15T09:39:04.260Z</time>
      </trkpt>
      <trkpt lat="45.56625" lon="4.73768">
        <ele>332</ele>
        <time>2018-08-15T09:39:05.265Z</time>
      </trkpt>
      <trkpt lat="45.56637" lon="4.73772">
        <ele>332</ele>
        <time>2018-08-15T09:39:06.257Z</time>
      </trkpt>
      <trkpt lat="45.56637" lon="4.73772">
        <ele>332</ele>
        <time>2018-08-15T09:39:07.246Z</time>
      </trkpt>
      <trkpt lat="45.56649" lon="4.73778">
        <ele>332</ele>
        <time>2018-08-15T09:39:08.250Z</time>
      </trkpt>
      <trkpt lat="45.56649" lon="4.73778">
        <ele>332</ele>
        <time>2018-08-15T09:39:09.247Z</time>
      </trkpt>
      <trkpt lat="45.5666" lon="4.73783">
        <ele>332</ele>
        <time>2018-08-15T09:39:10.276Z</time>
      </trkpt>
      <trkpt lat="45.5666" lon="4.73783">
        <ele>332</ele>
        <time>2018-08-15T09:39:11.249Z</time>
      </trkpt>
      <trkpt lat="45.56671" lon="4.73789">
        <ele>331</ele>
        <time>2018-08-15T09:39:12.242Z</time>
      </trkpt>
      <trkpt lat="45.56671" lon="4.73789">
        <ele>331</ele>
        <time>2018-08-15T09:39:13.256Z</time>
      </trkpt>
      <trkpt lat="45.56683" lon="4.73793">
        <ele>331</ele>
        <time>2018-08-15T09:39:14.249Z</time>
      </trkpt>
      <trkpt lat="45.56683" lon="4.73793">
        <ele>331</ele>
        <time>2018-08-15T09:39:15.255Z</time>
      </trkpt>
      <trkpt lat="45.56694" lon="4.73798">
        <ele>331</ele>
        <time>2018-08-15T09:39:16.244Z</time>
      </trkpt>
      <trkpt lat="45.56694" lon="4.73798">
        <ele>331</ele>
        <time>2018-08-15T09:39:17.248Z</time>
      </trkpt>
      <trkpt lat="45.56706" lon="4.73803">
        <ele>331</ele>
        <time>2018-08-15T09:39:18.249Z</time>
      </trkpt>
      <trkpt lat="45.56706" lon="4.73803">
        <ele>331</ele>
        <time>2018-08-15T09:39:19.269Z</time>
      </trkpt>
      <trkpt lat="45.56717" lon="4.73809">
        <ele>331</ele>
        <time>2018-08-15T09:39:20.237Z</time>
      </trkpt>
      <trkpt lat="45.56717" lon="4.73809">
        <ele>331</ele>
        <time>2018-08-15T09:39:21.258Z</time>
      </trkpt>
      <trkpt lat="45.56729" lon="4.73814">
        <ele>331</ele>
        <time>2018-08-15T09:39:22.255Z</time>
      </trkpt>
      <trkpt lat="45.56729" lon="4.73814">
        <ele>331</ele>
        <time>2018-08-15T09:39:23.258Z</time>
      </trkpt>
      <trkpt lat="45.56742" lon="4.73819">
        <ele>331</ele>
        <time>2018-08-15T09:39:24.260Z</time>
      </trkpt>
      <trkpt lat="45.56742" lon="4.73819">
        <ele>331</ele>
        <time>2018-08-15T09:39:25.269Z</time>
      </trkpt>
      <trkpt lat="45.56754" lon="4.73824">
        <ele>331</ele>
        <time>2018-08-15T09:39:26.269Z</time>
      </trkpt>
      <trkpt lat="45.56754" lon="4.73824">
        <ele>331</ele>
        <time>2018-08-15T09:39:27.258Z</time>
      </trkpt>
      <trkpt lat="45.56767" lon="4.73829">
        <ele>330</ele>
        <time>2018-08-15T09:39:28.250Z</time>
      </trkpt>
      <trkpt lat="45.56767" lon="4.73829">
        <ele>330</ele>
        <time>2018-08-15T09:39:29.258Z</time>
      </trkpt>
      <trkpt lat="45.5678" lon="4.73836">
        <ele>330</ele>
        <time>2018-08-15T09:39:30.239Z</time>
      </trkpt>
      <trkpt lat="45.5678" lon="4.73836">
        <ele>330</ele>
        <time>2018-08-15T09:39:31.262Z</time>
      </trkpt>
      <trkpt lat="45.56793" lon="4.73843">
        <ele>329</ele>
        <time>2018-08-15T09:39:32.246Z</time>
      </trkpt>
      <trkpt lat="45.56793" lon="4.73843">
        <ele>329</ele>
        <time>2018-08-15T09:39:33.252Z</time>
      </trkpt>
      <trkpt lat="45.56807" lon="4.73851">
        <ele>329</ele>
        <time>2018-08-15T09:39:34.249Z</time>
      </trkpt>
      <trkpt lat="45.56807" lon="4.73851">
        <ele>329</ele>
        <time>2018-08-15T09:39:35.271Z</time>
      </trkpt>
      <trkpt lat="45.56819" lon="4.73861">
        <ele>328</ele>
        <time>2018-08-15T09:39:36.256Z</time>
      </trkpt>
      <trkpt lat="45.56819" lon="4.73861">
        <ele>328</ele>
        <time>2018-08-15T09:39:37.240Z</time>
      </trkpt>
      <trkpt lat="45.56832" lon="4.73872">
        <ele>327</ele>
        <time>2018-08-15T09:39:38.269Z</time>
      </trkpt>
      <trkpt lat="45.56832" lon="4.73872">
        <ele>327</ele>
        <time>2018-08-15T09:39:39.241Z</time>
      </trkpt>
      <trkpt lat="45.56844" lon="4.73884">
        <ele>327</ele>
        <time>2018-08-15T09:39:40.236Z</time>
      </trkpt>
      <trkpt lat="45.56844" lon="4.73884">
        <ele>327</ele>
        <time>2018-08-15T09:39:41.246Z</time>
      </trkpt>
      <trkpt lat="45.56856" lon="4.73897">
        <ele>326</ele>
        <time>2018-08-15T09:39:42.232Z</time>
      </trkpt>
      <trkpt lat="45.56856" lon="4.73897">
        <ele>326</ele>
        <time>2018-08-15T09:39:43.241Z</time>
      </trkpt>
      <trkpt lat="45.56868" lon="4.73911">
        <ele>326</ele>
        <time>2018-08-15T09:39:44.237Z</time>
      </trkpt>
      <trkpt lat="45.56868" lon="4.73911">
        <ele>326</ele>
        <time>2018-08-15T09:39:45.238Z</time>
      </trkpt>
      <trkpt lat="45.5688" lon="4.73925">
        <ele>325</ele>
        <time>2018-08-15T09:39:46.236Z</time>
      </trkpt>
      <trkpt lat="45.5688" lon="4.73925">
        <ele>325</ele>
        <time>2018-08-15T09:39:47.260Z</time>
      </trkpt>
      <trkpt lat="45.56892" lon="4.7394">
        <ele>324</ele>
        <time>2018-08-15T09:39:48.254Z</time>
      </trkpt>
      <trkpt lat="45.56892" lon="4.7394">
        <ele>324</ele>
        <time>2018-08-15T09:39:49.243Z</time>
      </trkpt>
      <trkpt lat="45.56904" lon="4.73955">
        <ele>324</ele>
        <time>2018-08-15T09:39:50.241Z</time>
      </trkpt>
      <trkpt lat="45.56904" lon="4.73955">
        <ele>324</ele>
        <time>2018-08-15T09:39:51.271Z</time>
      </trkpt>
      <trkpt lat="45.56916" lon="4.7397">
        <ele>323</ele>
        <time>2018-08-15T09:39:52.268Z</time>
      </trkpt>
      <trkpt lat="45.56916" lon="4.7397">
        <ele>323</ele>
        <time>2018-08-15T09:39:53.260Z</time>
      </trkpt>
      <trkpt lat="45.56928" lon="4.73986">
        <ele>323</ele>
        <time>2018-08-15T09:39:54.253Z</time>
      </trkpt>
      <trkpt lat="45.56928" lon="4.73986">
        <ele>323</ele>
        <time>2018-08-15T09:39:55.263Z</time>
      </trkpt>
      <trkpt lat="45.5694" lon="4.74002">
        <ele>321</ele>
        <time>2018-08-15T09:39:56.266Z</time>
      </trkpt>
      <trkpt lat="45.5694" lon="4.74002">
        <ele>321</ele>
        <time>2018-08-15T09:39:57.271Z</time>
      </trkpt>
      <trkpt lat="45.56953" lon="4.74018">
        <ele>320</ele>
        <time>2018-08-15T09:39:58.275Z</time>
      </trkpt>
      <trkpt lat="45.56953" lon="4.74018">
        <ele>320</ele>
        <time>2018-08-15T09:39:59.241Z</time>
      </trkpt>
      <trkpt lat="45.56966" lon="4.74035">
        <ele>319</ele>
        <time>2018-08-15T09:40:00.236Z</time>
      </trkpt>
      <trkpt lat="45.56972" lon="4.74044">
        <ele>319</ele>
        <time>2018-08-15T09:40:01.241Z</time>
      </trkpt>
      <trkpt lat="45.56978" lon="4.74053">
        <ele>319</ele>
        <time>2018-08-15T09:40:02.264Z</time>
      </trkpt>
      <trkpt lat="45.56978" lon="4.74053">
        <ele>319</ele>
        <time>2018-08-15T09:40:03.241Z</time>
      </trkpt>
      <trkpt lat="45.56989" lon="4.74072">
        <ele>318</ele>
        <time>2018-08-15T09:40:04.264Z</time>
      </trkpt>
      <trkpt lat="45.56989" lon="4.74072">
        <ele>318</ele>
        <time>2018-08-15T09:40:05.242Z</time>
      </trkpt>
      <trkpt lat="45.56997" lon="4.74094">
        <ele>318</ele>
        <time>2018-08-15T09:40:06.237Z</time>
      </trkpt>
      <trkpt lat="45.56997" lon="4.74094">
        <ele>318</ele>
        <time>2018-08-15T09:40:07.253Z</time>
      </trkpt>
      <trkpt lat="45.57005" lon="4.74116">
        <ele>317</ele>
        <time>2018-08-15T09:40:08.246Z</time>
      </trkpt>
      <trkpt lat="45.57005" lon="4.74116">
        <ele>317</ele>
        <time>2018-08-15T09:40:09.260Z</time>
      </trkpt>
      <trkpt lat="45.57012" lon="4.74137">
        <ele>317</ele>
        <time>2018-08-15T09:40:10.250Z</time>
      </trkpt>
      <trkpt lat="45.57012" lon="4.74137">
        <ele>317</ele>
        <time>2018-08-15T09:40:11.259Z</time>
      </trkpt>
      <trkpt lat="45.57019" lon="4.74158">
        <ele>316</ele>
        <time>2018-08-15T09:40:12.256Z</time>
      </trkpt>
      <trkpt lat="45.57019" lon="4.74158">
        <ele>316</ele>
        <time>2018-08-15T09:40:13.261Z</time>
      </trkpt>
      <trkpt lat="45.57026" lon="4.74179">
        <ele>316</ele>
        <time>2018-08-15T09:40:14.252Z</time>
      </trkpt>
      <trkpt lat="45.57026" lon="4.74179">
        <ele>316</ele>
        <time>2018-08-15T09:40:15.233Z</time>
      </trkpt>
      <trkpt lat="45.57034" lon="4.742">
        <ele>315</ele>
        <time>2018-08-15T09:40:16.234Z</time>
      </trkpt>
      <trkpt lat="45.57034" lon="4.742">
        <ele>315</ele>
        <time>2018-08-15T09:40:17.233Z</time>
      </trkpt>
      <trkpt lat="45.57042" lon="4.74221">
        <ele>314</ele>
        <time>2018-08-15T09:40:18.236Z</time>
      </trkpt>
      <trkpt lat="45.57042" lon="4.74221">
        <ele>314</ele>
        <time>2018-08-15T09:40:19.246Z</time>
      </trkpt>
      <trkpt lat="45.57053" lon="4.7424">
        <ele>313</ele>
        <time>2018-08-15T09:40:20.237Z</time>
      </trkpt>
      <trkpt lat="45.57053" lon="4.7424">
        <ele>313</ele>
        <time>2018-08-15T09:40:21.241Z</time>
      </trkpt>
      <trkpt lat="45.57066" lon="4.74256">
        <ele>312</ele>
        <time>2018-08-15T09:40:22.247Z</time>
      </trkpt>
      <trkpt lat="45.57066" lon="4.74256">
        <ele>312</ele>
        <time>2018-08-15T09:40:23.270Z</time>
      </trkpt>
      <trkpt lat="45.5708" lon="4.74273">
        <ele>311</ele>
        <time>2018-08-15T09:40:24.268Z</time>
      </trkpt>
      <trkpt lat="45.5708" lon="4.74273">
        <ele>311</ele>
        <time>2018-08-15T09:40:25.242Z</time>
      </trkpt>
      <trkpt lat="45.57094" lon="4.74292">
        <ele>310</ele>
        <time>2018-08-15T09:40:26.236Z</time>
      </trkpt>
      <trkpt lat="45.57094" lon="4.74292">
        <ele>310</ele>
        <time>2018-08-15T09:40:27.270Z</time>
      </trkpt>
      <trkpt lat="45.57107" lon="4.74312">
        <ele>309</ele>
        <time>2018-08-15T09:40:28.269Z</time>
      </trkpt>
      <trkpt lat="45.57107" lon="4.74312">
        <ele>309</ele>
        <time>2018-08-15T09:40:29.235Z</time>
      </trkpt>
      <trkpt lat="45.5712" lon="4.74334">
        <ele>307</ele>
        <time>2018-08-15T09:40:30.272Z</time>
      </trkpt>
      <trkpt lat="45.57126" lon="4.74346">
        <ele>307</ele>
        <time>2018-08-15T09:40:31.246Z</time>
      </trkpt>
      <trkpt lat="45.57126" lon="4.74346">
        <ele>307</ele>
        <time>2018-08-15T09:40:32.265Z</time>
      </trkpt>
      <trkpt lat="45.57134" lon="4.74372">
        <ele>306</ele>
        <time>2018-08-15T09:40:33.242Z</time>
      </trkpt>
      <trkpt lat="45.57134" lon="4.74372">
        <ele>306</ele>
        <time>2018-08-15T09:40:34.258Z</time>
      </trkpt>
      <trkpt lat="45.57143" lon="4.74396">
        <ele>305</ele>
        <time>2018-08-15T09:40:35.256Z</time>
      </trkpt>
      <trkpt lat="45.57143" lon="4.74396">
        <ele>305</ele>
        <time>2018-08-15T09:40:36.237Z</time>
      </trkpt>
      <trkpt lat="45.57154" lon="4.74417">
        <ele>303</ele>
        <time>2018-08-15T09:40:37.262Z</time>
      </trkpt>
      <trkpt lat="45.57161" lon="4.74426">
        <ele>303</ele>
        <time>2018-08-15T09:40:38.266Z</time>
      </trkpt>
      <trkpt lat="45.57161" lon="4.74426">
        <ele>303</ele>
        <time>2018-08-15T09:40:39.245Z</time>
      </trkpt>
      <trkpt lat="45.57179" lon="4.7444">
        <ele>302</ele>
        <time>2018-08-15T09:40:40.240Z</time>
      </trkpt>
      <trkpt lat="45.57179" lon="4.7444">
        <ele>302</ele>
        <time>2018-08-15T09:40:41.246Z</time>
      </trkpt>
      <trkpt lat="45.57197" lon="4.74455">
        <ele>301</ele>
        <time>2018-08-15T09:40:42.255Z</time>
      </trkpt>
      <trkpt lat="45.57197" lon="4.74455">
        <ele>301</ele>
        <time>2018-08-15T09:40:43.242Z</time>
      </trkpt>
      <trkpt lat="45.57212" lon="4.74475">
        <ele>300</ele>
        <time>2018-08-15T09:40:44.272Z</time>
      </trkpt>
      <trkpt lat="45.57212" lon="4.74475">
        <ele>300</ele>
        <time>2018-08-15T09:40:45.244Z</time>
      </trkpt>
      <trkpt lat="45.57225" lon="4.74499">
        <ele>299</ele>
        <time>2018-08-15T09:40:46.239Z</time>
      </trkpt>
      <trkpt lat="45.57225" lon="4.74499">
        <ele>299</ele>
        <time>2018-08-15T09:40:47.259Z</time>
      </trkpt>
      <trkpt lat="45.57237" lon="4.74522">
        <ele>298</ele>
        <time>2018-08-15T09:40:48.247Z</time>
      </trkpt>
      <trkpt lat="45.57237" lon="4.74522">
        <ele>298</ele>
        <time>2018-08-15T09:40:49.269Z</time>
      </trkpt>
      <trkpt lat="45.57254" lon="4.74539">
        <ele>297</ele>
        <time>2018-08-15T09:40:50.266Z</time>
      </trkpt>
      <trkpt lat="45.57254" lon="4.74539">
        <ele>297</ele>
        <time>2018-08-15T09:40:51.271Z</time>
      </trkpt>
      <trkpt lat="45.57274" lon="4.74555">
        <ele>296</ele>
        <time>2018-08-15T09:40:52.256Z</time>
      </trkpt>
      <trkpt lat="45.57283" lon="4.74562">
        <ele>295</ele>
        <time>2018-08-15T09:40:53.260Z</time>
      </trkpt>
      <trkpt lat="45.57283" lon="4.74562">
        <ele>295</ele>
        <time>2018-08-15T09:40:54.257Z</time>
      </trkpt>
      <trkpt lat="45.57304" lon="4.74574">
        <ele>294</ele>
        <time>2018-08-15T09:40:55.256Z</time>
      </trkpt>
      <trkpt lat="45.57315" lon="4.74578">
        <ele>293</ele>
        <time>2018-08-15T09:40:56.252Z</time>
      </trkpt>
      <trkpt lat="45.57315" lon="4.74578">
        <ele>293</ele>
        <time>2018-08-15T09:40:57.256Z</time>
      </trkpt>
      <trkpt lat="45.57336" lon="4.74586">
        <ele>291</ele>
        <time>2018-08-15T09:40:58.270Z</time>
      </trkpt>
      <trkpt lat="45.57336" lon="4.74586">
        <ele>291</ele>
        <time>2018-08-15T09:40:59.249Z</time>
      </trkpt>
      <trkpt lat="45.57358" lon="4.74596">
        <ele>289</ele>
        <time>2018-08-15T09:41:00.241Z</time>
      </trkpt>
      <trkpt lat="45.57358" lon="4.74596">
        <ele>289</ele>
        <time>2018-08-15T09:41:01.252Z</time>
      </trkpt>
      <trkpt lat="45.57381" lon="4.74605">
        <ele>287</ele>
        <time>2018-08-15T09:41:02.242Z</time>
      </trkpt>
      <trkpt lat="45.57381" lon="4.74605">
        <ele>287</ele>
        <time>2018-08-15T09:41:03.241Z</time>
      </trkpt>
      <trkpt lat="45.57404" lon="4.74613">
        <ele>286</ele>
        <time>2018-08-15T09:41:04.256Z</time>
      </trkpt>
      <trkpt lat="45.57404" lon="4.74613">
        <ele>286</ele>
        <time>2018-08-15T09:41:05.268Z</time>
      </trkpt>
      <trkpt lat="45.57427" lon="4.74618">
        <ele>284</ele>
        <time>2018-08-15T09:41:06.263Z</time>
      </trkpt>
      <trkpt lat="45.57427" lon="4.74618">
        <ele>284</ele>
        <time>2018-08-15T09:41:07.264Z</time>
      </trkpt>
      <trkpt lat="45.57451" lon="4.74623">
        <ele>282</ele>
        <time>2018-08-15T09:41:08.256Z</time>
      </trkpt>
      <trkpt lat="45.57451" lon="4.74623">
        <ele>282</ele>
        <time>2018-08-15T09:41:09.262Z</time>
      </trkpt>
      <trkpt lat="45.57473" lon="4.7463">
        <ele>280</ele>
        <time>2018-08-15T09:41:10.254Z</time>
      </trkpt>
      <trkpt lat="45.57473" lon="4.7463">
        <ele>280</ele>
        <time>2018-08-15T09:41:11.270Z</time>
      </trkpt>
      <trkpt lat="45.57494" lon="4.74641">
        <ele>279</ele>
        <time>2018-08-15T09:41:12.369Z</time>
      </trkpt>
      <trkpt lat="45.57494" lon="4.74641">
        <ele>279</ele>
        <time>2018-08-15T09:41:13.268Z</time>
      </trkpt>
      <trkpt lat="45.57512" lon="4.74659">
        <ele>278</ele>
        <time>2018-08-15T09:41:14.239Z</time>
      </trkpt>
      <trkpt lat="45.57512" lon="4.74659">
        <ele>278</ele>
        <time>2018-08-15T09:41:15.262Z</time>
      </trkpt>
      <trkpt lat="45.5753" lon="4.74679">
        <ele>277</ele>
        <time>2018-08-15T09:41:16.273Z</time>
      </trkpt>
      <trkpt lat="45.5753" lon="4.74679">
        <ele>277</ele>
        <time>2018-08-15T09:41:17.241Z</time>
      </trkpt>
      <trkpt lat="45.5755" lon="4.74692">
        <ele>276</ele>
        <time>2018-08-15T09:41:18.256Z</time>
      </trkpt>
      <trkpt lat="45.5755" lon="4.74692">
        <ele>276</ele>
        <time>2018-08-15T09:41:19.240Z</time>
      </trkpt>
      <trkpt lat="45.57569" lon="4.74706">
        <ele>275</ele>
        <time>2018-08-15T09:41:20.267Z</time>
      </trkpt>
      <trkpt lat="45.57569" lon="4.74706">
        <ele>275</ele>
        <time>2018-08-15T09:41:21.237Z</time>
      </trkpt>
      <trkpt lat="45.57589" lon="4.7472">
        <ele>274</ele>
        <time>2018-08-15T09:41:22.261Z</time>
      </trkpt>
      <trkpt lat="45.57589" lon="4.7472">
        <ele>274</ele>
        <time>2018-08-15T09:41:23.259Z</time>
      </trkpt>
      <trkpt lat="45.57608" lon="4.7473">
        <ele>272</ele>
        <time>2018-08-15T09:41:24.268Z</time>
      </trkpt>
      <trkpt lat="45.57608" lon="4.7473">
        <ele>272</ele>
        <time>2018-08-15T09:41:25.233Z</time>
      </trkpt>
      <trkpt lat="45.57625" lon="4.74741">
        <ele>270</ele>
        <time>2018-08-15T09:41:26.267Z</time>
      </trkpt>
      <trkpt lat="45.57625" lon="4.74741">
        <ele>270</ele>
        <time>2018-08-15T09:41:27.254Z</time>
      </trkpt>
      <trkpt lat="45.57641" lon="4.74757">
        <ele>269</ele>
        <time>2018-08-15T09:41:28.249Z</time>
      </trkpt>
      <trkpt lat="45.57641" lon="4.74757">
        <ele>269</ele>
        <time>2018-08-15T09:41:29.258Z</time>
      </trkpt>
      <trkpt lat="45.57651" lon="4.7478">
        <ele>268</ele>
        <time>2018-08-15T09:41:30.256Z</time>
      </trkpt>
      <trkpt lat="45.57651" lon="4.7478">
        <ele>268</ele>
        <time>2018-08-15T09:41:31.269Z</time>
      </trkpt>
      <trkpt lat="45.57654" lon="4.74809">
        <ele>267</ele>
        <time>2018-08-15T09:41:32.248Z</time>
      </trkpt>
      <trkpt lat="45.57654" lon="4.74809">
        <ele>267</ele>
        <time>2018-08-15T09:41:33.240Z</time>
      </trkpt>
      <trkpt lat="45.57654" lon="4.74836">
        <ele>266</ele>
        <time>2018-08-15T09:41:34.276Z</time>
      </trkpt>
      <trkpt lat="45.57654" lon="4.74836">
        <ele>266</ele>
        <time>2018-08-15T09:41:35.246Z</time>
      </trkpt>
      <trkpt lat="45.57659" lon="4.74862">
        <ele>265</ele>
        <time>2018-08-15T09:41:36.308Z</time>
      </trkpt>
      <trkpt lat="45.57661" lon="4.74877">
        <ele>265</ele>
        <time>2018-08-15T09:41:37.254Z</time>
      </trkpt>
      <trkpt lat="45.57661" lon="4.74892">
        <ele>264</ele>
        <time>2018-08-15T09:41:38.258Z</time>
      </trkpt>
      <trkpt lat="45.57661" lon="4.74892">
        <ele>264</ele>
        <time>2018-08-15T09:41:39.263Z</time>
      </trkpt>
      <trkpt lat="45.57661" lon="4.7492">
        <ele>263</ele>
        <time>2018-08-15T09:41:40.262Z</time>
      </trkpt>
      <trkpt lat="45.57661" lon="4.7492">
        <ele>263</ele>
        <time>2018-08-15T09:41:41.248Z</time>
      </trkpt>
      <trkpt lat="45.57664" lon="4.74947">
        <ele>263</ele>
        <time>2018-08-15T09:41:42.235Z</time>
      </trkpt>
      <trkpt lat="45.57664" lon="4.74947">
        <ele>263</ele>
        <time>2018-08-15T09:41:43.254Z</time>
      </trkpt>
      <trkpt lat="45.5767" lon="4.74974">
        <ele>261</ele>
        <time>2018-08-15T09:41:44.250Z</time>
      </trkpt>
      <trkpt lat="45.5767" lon="4.74974">
        <ele>261</ele>
        <time>2018-08-15T09:41:45.258Z</time>
      </trkpt>
      <trkpt lat="45.57675" lon="4.75002">
        <ele>261</ele>
        <time>2018-08-15T09:41:46.232Z</time>
      </trkpt>
      <trkpt lat="45.57675" lon="4.75002">
        <ele>261</ele>
        <time>2018-08-15T09:41:47.258Z</time>
      </trkpt>
      <trkpt lat="45.57675" lon="4.75029">
        <ele>260</ele>
        <time>2018-08-15T09:41:48.237Z</time>
      </trkpt>
      <trkpt lat="45.57675" lon="4.75029">
        <ele>260</ele>
        <time>2018-08-15T09:41:49.253Z</time>
      </trkpt>
      <trkpt lat="45.57669" lon="4.75054">
        <ele>259</ele>
        <time>2018-08-15T09:41:50.253Z</time>
      </trkpt>
      <trkpt lat="45.57669" lon="4.75054">
        <ele>259</ele>
        <time>2018-08-15T09:41:51.258Z</time>
      </trkpt>
      <trkpt lat="45.57661" lon="4.75079">
        <ele>258</ele>
        <time>2018-08-15T09:41:52.244Z</time>
      </trkpt>
      <trkpt lat="45.57661" lon="4.75079">
        <ele>258</ele>
        <time>2018-08-15T09:41:53.263Z</time>
      </trkpt>
      <trkpt lat="45.57652" lon="4.75106">
        <ele>257</ele>
        <time>2018-08-15T09:41:54.238Z</time>
      </trkpt>
      <trkpt lat="45.57648" lon="4.7512">
        <ele>256</ele>
        <time>2018-08-15T09:41:55.235Z</time>
      </trkpt>
      <trkpt lat="45.57648" lon="4.7512">
        <ele>256</ele>
        <time>2018-08-15T09:41:56.254Z</time>
      </trkpt>
      <trkpt lat="45.5764" lon="4.7515">
        <ele>255</ele>
        <time>2018-08-15T09:41:57.246Z</time>
      </trkpt>
      <trkpt lat="45.5764" lon="4.7515">
        <ele>255</ele>
        <time>2018-08-15T09:41:58.266Z</time>
      </trkpt>
      <trkpt lat="45.57634" lon="4.75182">
        <ele>254</ele>
        <time>2018-08-15T09:41:59.235Z</time>
      </trkpt>
      <trkpt lat="45.57634" lon="4.75182">
        <ele>254</ele>
        <time>2018-08-15T09:42:00.255Z</time>
      </trkpt>
      <trkpt lat="45.57633" lon="4.75214">
        <ele>252</ele>
        <time>2018-08-15T09:42:01.261Z</time>
      </trkpt>
      <trkpt lat="45.57633" lon="4.75214">
        <ele>252</ele>
        <time>2018-08-15T09:42:02.243Z</time>
      </trkpt>
      <trkpt lat="45.57635" lon="4.75249">
        <ele>252</ele>
        <time>2018-08-15T09:42:03.257Z</time>
      </trkpt>
      <trkpt lat="45.57635" lon="4.75249">
        <ele>252</ele>
        <time>2018-08-15T09:42:04.237Z</time>
      </trkpt>
      <trkpt lat="45.57643" lon="4.75279">
        <ele>250</ele>
        <time>2018-08-15T09:42:05.258Z</time>
      </trkpt>
      <trkpt lat="45.57643" lon="4.75279">
        <ele>250</ele>
        <time>2018-08-15T09:42:06.236Z</time>
      </trkpt>
      <trkpt lat="45.57657" lon="4.75304">
        <ele>249</ele>
        <time>2018-08-15T09:42:07.268Z</time>
      </trkpt>
      <trkpt lat="45.57657" lon="4.75304">
        <ele>249</ele>
        <time>2018-08-15T09:42:08.244Z</time>
      </trkpt>
      <trkpt lat="45.57675" lon="4.75328">
        <ele>248</ele>
        <time>2018-08-15T09:42:09.264Z</time>
      </trkpt>
      <trkpt lat="45.57682" lon="4.75342">
        <ele>247</ele>
        <time>2018-08-15T09:42:10.243Z</time>
      </trkpt>
      <trkpt lat="45.57682" lon="4.75342">
        <ele>247</ele>
        <time>2018-08-15T09:42:11.260Z</time>
      </trkpt>
      <trkpt lat="45.57696" lon="4.75373">
        <ele>245</ele>
        <time>2018-08-15T09:42:12.248Z</time>
      </trkpt>
      <trkpt lat="45.57702" lon="4.7539">
        <ele>244</ele>
        <time>2018-08-15T09:42:13.245Z</time>
      </trkpt>
      <trkpt lat="45.57702" lon="4.7539">
        <ele>244</ele>
        <time>2018-08-15T09:42:14.263Z</time>
      </trkpt>
      <trkpt lat="45.57708" lon="4.75423">
        <ele>242</ele>
        <time>2018-08-15T09:42:15.248Z</time>
      </trkpt>
      <trkpt lat="45.57708" lon="4.75423">
        <ele>242</ele>
        <time>2018-08-15T09:42:16.268Z</time>
      </trkpt>
      <trkpt lat="45.5771" lon="4.75454">
        <ele>240</ele>
        <time>2018-08-15T09:42:17.248Z</time>
      </trkpt>
      <trkpt lat="45.5771" lon="4.75454">
        <ele>240</ele>
        <time>2018-08-15T09:42:18.266Z</time>
      </trkpt>
      <trkpt lat="45.57714" lon="4.75485">
        <ele>238</ele>
        <time>2018-08-15T09:42:19.232Z</time>
      </trkpt>
      <trkpt lat="45.57719" lon="4.75499">
        <ele>237</ele>
        <time>2018-08-15T09:42:20.263Z</time>
      </trkpt>
      <trkpt lat="45.57719" lon="4.75499">
        <ele>237</ele>
        <time>2018-08-15T09:42:21.242Z</time>
      </trkpt>
      <trkpt lat="45.57733" lon="4.75527">
        <ele>235</ele>
        <time>2018-08-15T09:42:22.251Z</time>
      </trkpt>
      <trkpt lat="45.57733" lon="4.75527">
        <ele>235</ele>
        <time>2018-08-15T09:42:23.263Z</time>
      </trkpt>
      <trkpt lat="45.57748" lon="4.75554">
        <ele>234</ele>
        <time>2018-08-15T09:42:24.246Z</time>
      </trkpt>
      <trkpt lat="45.57748" lon="4.75554">
        <ele>234</ele>
        <time>2018-08-15T09:42:25.251Z</time>
      </trkpt>
      <trkpt lat="45.57759" lon="4.75577">
        <ele>231</ele>
        <time>2018-08-15T09:42:26.269Z</time>
      </trkpt>
      <trkpt lat="45.57759" lon="4.75577">
        <ele>231</ele>
        <time>2018-08-15T09:42:27.247Z</time>
      </trkpt>
      <trkpt lat="45.5777" lon="4.75596">
        <ele>229</ele>
        <time>2018-08-15T09:42:28.260Z</time>
      </trkpt>
      <trkpt lat="45.5777" lon="4.75596">
        <ele>229</ele>
        <time>2018-08-15T09:42:29.240Z</time>
      </trkpt>
      <trkpt lat="45.57785" lon="4.75607">
        <ele>226</ele>
        <time>2018-08-15T09:42:30.237Z</time>
      </trkpt>
      <trkpt lat="45.57785" lon="4.75607">
        <ele>226</ele>
        <time>2018-08-15T09:42:31.257Z</time>
      </trkpt>
      <trkpt lat="45.57805" lon="4.75609">
        <ele>224</ele>
        <time>2018-08-15T09:42:32.264Z</time>
      </trkpt>
      <trkpt lat="45.57805" lon="4.75609">
        <ele>224</ele>
        <time>2018-08-15T09:42:33.233Z</time>
      </trkpt>
      <trkpt lat="45.57827" lon="4.75609">
        <ele>221</ele>
        <time>2018-08-15T09:42:34.232Z</time>
      </trkpt>
      <trkpt lat="45.57827" lon="4.75609">
        <ele>221</ele>
        <time>2018-08-15T09:42:35.251Z</time>
      </trkpt>
      <trkpt lat="45.57849" lon="4.75607">
        <ele>218</ele>
        <time>2018-08-15T09:42:36.248Z</time>
      </trkpt>
      <trkpt lat="45.57849" lon="4.75607">
        <ele>218</ele>
        <time>2018-08-15T09:42:37.267Z</time>
      </trkpt>
      <trkpt lat="45.57872" lon="4.75603">
        <ele>216</ele>
        <time>2018-08-15T09:42:38.238Z</time>
      </trkpt>
      <trkpt lat="45.57872" lon="4.75603">
        <ele>216</ele>
        <time>2018-08-15T09:42:39.258Z</time>
      </trkpt>
      <trkpt lat="45.57895" lon="4.75595">
        <ele>213</ele>
        <time>2018-08-15T09:42:40.266Z</time>
      </trkpt>
      <trkpt lat="45.57895" lon="4.75595">
        <ele>213</ele>
        <time>2018-08-15T09:42:41.244Z</time>
      </trkpt>
      <trkpt lat="45.57917" lon="4.75583">
        <ele>210</ele>
        <time>2018-08-15T09:42:42.255Z</time>
      </trkpt>
      <trkpt lat="45.57917" lon="4.75583">
        <ele>210</ele>
        <time>2018-08-15T09:42:43.232Z</time>
      </trkpt>
      <trkpt lat="45.57939" lon="4.75572">
        <ele>208</ele>
        <time>2018-08-15T09:42:44.261Z</time>
      </trkpt>
      <trkpt lat="45.57939" lon="4.75572">
        <ele>208</ele>
        <time>2018-08-15T09:42:45.239Z</time>
      </trkpt>
      <trkpt lat="45.5796" lon="4.75562">
        <ele>206</ele>
        <time>2018-08-15T09:42:46.233Z</time>
      </trkpt>
      <trkpt lat="45.5796" lon="4.75562">
        <ele>206</ele>
        <time>2018-08-15T09:42:47.253Z</time>
      </trkpt>
      <trkpt lat="45.5798" lon="4.75555">
        <ele>203</ele>
        <time>2018-08-15T09:42:48.267Z</time>
      </trkpt>
      <trkpt lat="45.5798" lon="4.75555">
        <ele>203</ele>
        <time>2018-08-15T09:42:49.245Z</time>
      </trkpt>
      <trkpt lat="45.58001" lon="4.7555">
        <ele>201</ele>
        <time>2018-08-15T09:42:50.257Z</time>
      </trkpt>
      <trkpt lat="45.58001" lon="4.7555">
        <ele>201</ele>
        <time>2018-08-15T09:42:51.238Z</time>
      </trkpt>
      <trkpt lat="45.5802" lon="4.75547">
        <ele>199</ele>
        <time>2018-08-15T09:42:52.267Z</time>
      </trkpt>
      <trkpt lat="45.5802" lon="4.75547">
        <ele>199</ele>
        <time>2018-08-15T09:42:53.245Z</time>
      </trkpt>
      <trkpt lat="45.58039" lon="4.75546">
        <ele>198</ele>
        <time>2018-08-15T09:42:54.252Z</time>
      </trkpt>
      <trkpt lat="45.58039" lon="4.75546">
        <ele>198</ele>
        <time>2018-08-15T09:42:55.265Z</time>
      </trkpt>
      <trkpt lat="45.58056" lon="4.75548">
        <ele>196</ele>
        <time>2018-08-15T09:42:56.266Z</time>
      </trkpt>
      <trkpt lat="45.58056" lon="4.75548">
        <ele>196</ele>
        <time>2018-08-15T09:42:57.241Z</time>
      </trkpt>
      <trkpt lat="45.58073" lon="4.75549">
        <ele>194</ele>
        <time>2018-08-15T09:42:58.249Z</time>
      </trkpt>
      <trkpt lat="45.58073" lon="4.75549">
        <ele>194</ele>
        <time>2018-08-15T09:42:59.267Z</time>
      </trkpt>
      <trkpt lat="45.58089" lon="4.75547">
        <ele>192</ele>
        <time>2018-08-15T09:43:00.267Z</time>
      </trkpt>
      <trkpt lat="45.58089" lon="4.75547">
        <ele>192</ele>
        <time>2018-08-15T09:43:01.243Z</time>
      </trkpt>
      <trkpt lat="45.58105" lon="4.75539">
        <ele>191</ele>
        <time>2018-08-15T09:43:02.258Z</time>
      </trkpt>
      <trkpt lat="45.58105" lon="4.75539">
        <ele>191</ele>
        <time>2018-08-15T09:43:03.247Z</time>
      </trkpt>
      <trkpt lat="45.58119" lon="4.75526">
        <ele>190</ele>
        <time>2018-08-15T09:43:04.237Z</time>
      </trkpt>
      <trkpt lat="45.58119" lon="4.75526">
        <ele>190</ele>
        <time>2018-08-15T09:43:05.258Z</time>
      </trkpt>
      <trkpt lat="45.58129" lon="4.7551">
        <ele>188</ele>
        <time>2018-08-15T09:43:06.241Z</time>
      </trkpt>
      <trkpt lat="45.58129" lon="4.7551">
        <ele>188</ele>
        <time>2018-08-15T09:43:07.256Z</time>
      </trkpt>
      <trkpt lat="45.58132" lon="4.75491">
        <ele>187</ele>
        <time>2018-08-15T09:43:08.238Z</time>
      </trkpt>
      <trkpt lat="45.58132" lon="4.75491">
        <ele>187</ele>
        <time>2018-08-15T09:43:09.269Z</time>
      </trkpt>
      <trkpt lat="45.58128" lon="4.75474">
        <ele>186</ele>
        <time>2018-08-15T09:43:10.276Z</time>
      </trkpt>
      <trkpt lat="45.58128" lon="4.75474">
        <ele>186</ele>
        <time>2018-08-15T09:43:11.245Z</time>
      </trkpt>
      <trkpt lat="45.58121" lon="4.75459">
        <ele>184</ele>
        <time>2018-08-15T09:43:12.257Z</time>
      </trkpt>
      <trkpt lat="45.58121" lon="4.75459">
        <ele>184</ele>
        <time>2018-08-15T09:43:13.267Z</time>
      </trkpt>
      <trkpt lat="45.58119" lon="4.75446">
        <ele>183</ele>
        <time>2018-08-15T09:43:14.248Z</time>
      </trkpt>
      <trkpt lat="45.58119" lon="4.75446">
        <ele>183</ele>
        <time>2018-08-15T09:43:15.270Z</time>
      </trkpt>
      <trkpt lat="45.58129" lon="4.75441">
        <ele>182</ele>
        <time>2018-08-15T09:43:16.262Z</time>
      </trkpt>
      <trkpt lat="45.58129" lon="4.75441">
        <ele>182</ele>
        <time>2018-08-15T09:43:17.241Z</time>
      </trkpt>
      <trkpt lat="45.58139" lon="4.75449">
        <ele>181</ele>
        <time>2018-08-15T09:43:18.266Z</time>
      </trkpt>
      <trkpt lat="45.58139" lon="4.75449">
        <ele>181</ele>
        <time>2018-08-15T09:43:19.245Z</time>
      </trkpt>
      <trkpt lat="45.58148" lon="4.75465">
        <ele>179</ele>
        <time>2018-08-15T09:43:20.275Z</time>
      </trkpt>
      <trkpt lat="45.58148" lon="4.75465">
        <ele>179</ele>
        <time>2018-08-15T09:43:21.248Z</time>
      </trkpt>
      <trkpt lat="45.58157" lon="4.75483">
        <ele>178</ele>
        <time>2018-08-15T09:43:22.241Z</time>
      </trkpt>
      <trkpt lat="45.58157" lon="4.75483">
        <ele>178</ele>
        <time>2018-08-15T09:43:23.257Z</time>
      </trkpt>
      <trkpt lat="45.58164" lon="4.75502">
        <ele>177</ele>
        <time>2018-08-15T09:43:24.242Z</time>
      </trkpt>
      <trkpt lat="45.58164" lon="4.75502">
        <ele>177</ele>
        <time>2018-08-15T09:43:25.242Z</time>
      </trkpt>
      <trkpt lat="45.58164" lon="4.75525">
        <ele>175</ele>
        <time>2018-08-15T09:43:26.238Z</time>
      </trkpt>
      <trkpt lat="45.58164" lon="4.75525">
        <ele>175</ele>
        <time>2018-08-15T09:43:27.243Z</time>
      </trkpt>
      <trkpt lat="45.58159" lon="4.75548">
        <ele>174</ele>
        <time>2018-08-15T09:43:28.233Z</time>
      </trkpt>
      <trkpt lat="45.58159" lon="4.75548">
        <ele>174</ele>
        <time>2018-08-15T09:43:29.242Z</time>
      </trkpt>
      <trkpt lat="45.58159" lon="4.75572">
        <ele>173</ele>
        <time>2018-08-15T09:43:30.232Z</time>
      </trkpt>
      <trkpt lat="45.58159" lon="4.75572">
        <ele>173</ele>
        <time>2018-08-15T09:43:31.239Z</time>
      </trkpt>
      <trkpt lat="45.58164" lon="4.75592">
        <ele>172</ele>
        <time>2018-08-15T09:43:32.246Z</time>
      </trkpt>
      <trkpt lat="45.58164" lon="4.75592">
        <ele>172</ele>
        <time>2018-08-15T09:43:33.251Z</time>
      </trkpt>
      <trkpt lat="45.58173" lon="4.75604">
        <ele>171</ele>
        <time>2018-08-15T09:43:34.248Z</time>
      </trkpt>
      <trkpt lat="45.58173" lon="4.75604">
        <ele>171</ele>
        <time>2018-08-15T09:43:35.239Z</time>
      </trkpt>
      <trkpt lat="45.58186" lon="4.75606">
        <ele>169</ele>
        <time>2018-08-15T09:43:36.337Z</time>
      </trkpt>
      <trkpt lat="45.58192" lon="4.75603">
        <ele>169</ele>
        <time>2018-08-15T09:43:37.262Z</time>
      </trkpt>
      <trkpt lat="45.58198" lon="4.75598">
        <ele>169</ele>
        <time>2018-08-15T09:43:38.237Z</time>
      </trkpt>
      <trkpt lat="45.58198" lon="4.75598">
        <ele>169</ele>
        <time>2018-08-15T09:43:39.252Z</time>
      </trkpt>
      <trkpt lat="45.58208" lon="4.75591">
        <ele>169</ele>
        <time>2018-08-15T09:43:40.255Z</time>
      </trkpt>
      <trkpt lat="45.58208" lon="4.75591">
        <ele>169</ele>
        <time>2018-08-15T09:43:41.264Z</time>
      </trkpt>
      <trkpt lat="45.58218" lon="4.75585">
        <ele>169</ele>
        <time>2018-08-15T09:43:42.256Z</time>
      </trkpt>
      <trkpt lat="45.58218" lon="4.75585">
        <ele>169</ele>
        <time>2018-08-15T09:43:43.239Z</time>
      </trkpt>
      <trkpt lat="45.58225" lon="4.75582">
        <ele>169</ele>
        <time>2018-08-15T09:43:44.247Z</time>
      </trkpt>
      <trkpt lat="45.58225" lon="4.75582">
        <ele>169</ele>
        <time>2018-08-15T09:43:45.238Z</time>
      </trkpt>
      <trkpt lat="45.58233" lon="4.75579">
        <ele>169</ele>
        <time>2018-08-15T09:43:46.236Z</time>
      </trkpt>
      <trkpt lat="45.58233" lon="4.75579">
        <ele>169</ele>
        <time>2018-08-15T09:43:47.258Z</time>
      </trkpt>
      <trkpt lat="45.5824" lon="4.75575">
        <ele>169</ele>
        <time>2018-08-15T09:43:48.254Z</time>
      </trkpt>
      <trkpt lat="45.5824" lon="4.75575">
        <ele>169</ele>
        <time>2018-08-15T09:43:49.249Z</time>
      </trkpt>
      <trkpt lat="45.58248" lon="4.75571">
        <ele>169</ele>
        <time>2018-08-15T09:43:50.386Z</time>
      </trkpt>
      <trkpt lat="45.58248" lon="4.75571">
        <ele>169</ele>
        <time>2018-08-15T09:43:51.258Z</time>
      </trkpt>
      <trkpt lat="45.58259" lon="4.7557">
        <ele>169</ele>
        <time>2018-08-15T09:43:52.244Z</time>
      </trkpt>
      <trkpt lat="45.58259" lon="4.7557">
        <ele>169</ele>
        <time>2018-08-15T09:43:53.241Z</time>
      </trkpt>
      <trkpt lat="45.58272" lon="4.75572">
        <ele>166</ele>
        <time>2018-08-15T09:43:54.243Z</time>
      </trkpt>
      <trkpt lat="45.58272" lon="4.75572">
        <ele>166</ele>
        <time>2018-08-15T09:43:55.237Z</time>
      </trkpt>
      <trkpt lat="45.58283" lon="4.75579">
        <ele>165</ele>
        <time>2018-08-15T09:43:56.258Z</time>
      </trkpt>
      <trkpt lat="45.58283" lon="4.75579">
        <ele>165</ele>
        <time>2018-08-15T09:43:57.237Z</time>
      </trkpt>
      <trkpt lat="45.5829" lon="4.75591">
        <ele>164</ele>
        <time>2018-08-15T09:43:58.281Z</time>
      </trkpt>
      <trkpt lat="45.5829" lon="4.75591">
        <ele>164</ele>
        <time>2018-08-15T09:43:59.269Z</time>
      </trkpt>
      <trkpt lat="45.58293" lon="4.7561">
        <ele>163</ele>
        <time>2018-08-15T09:44:00.236Z</time>
      </trkpt>
      <trkpt lat="45.58293" lon="4.7561">
        <ele>163</ele>
        <time>2018-08-15T09:44:01.242Z</time>
      </trkpt>
      <trkpt lat="45.58296" lon="4.75632">
        <ele>162</ele>
        <time>2018-08-15T09:44:02.265Z</time>
      </trkpt>
      <trkpt lat="45.58296" lon="4.75632">
        <ele>162</ele>
        <time>2018-08-15T09:44:03.248Z</time>
      </trkpt>
      <trkpt lat="45.58301" lon="4.75653">
        <ele>161</ele>
        <time>2018-08-15T09:44:04.257Z</time>
      </trkpt>
      <trkpt lat="45.58301" lon="4.75653">
        <ele>161</ele>
        <time>2018-08-15T09:44:05.237Z</time>
      </trkpt>
      <trkpt lat="45.58305" lon="4.75674">
        <ele>160</ele>
        <time>2018-08-15T09:44:06.233Z</time>
      </trkpt>
      <trkpt lat="45.58305" lon="4.75674">
        <ele>160</ele>
        <time>2018-08-15T09:44:07.264Z</time>
      </trkpt>
      <trkpt lat="45.58309" lon="4.75694">
        <ele>160</ele>
        <time>2018-08-15T09:44:08.268Z</time>
      </trkpt>
      <trkpt lat="45.58309" lon="4.75694">
        <ele>160</ele>
        <time>2018-08-15T09:44:09.241Z</time>
      </trkpt>
      <trkpt lat="45.58312" lon="4.75713">
        <ele>159</ele>
        <time>2018-08-15T09:44:10.236Z</time>
      </trkpt>
      <trkpt lat="45.58312" lon="4.75713">
        <ele>159</ele>
        <time>2018-08-15T09:44:11.253Z</time>
      </trkpt>
      <trkpt lat="45.58314" lon="4.75732">
        <ele>158</ele>
        <time>2018-08-15T09:44:12.247Z</time>
      </trkpt>
      <trkpt lat="45.58314" lon="4.75732">
        <ele>158</ele>
        <time>2018-08-15T09:44:13.240Z</time>
      </trkpt>
      <trkpt lat="45.58318" lon="4.75751">
        <ele>158</ele>
        <time>2018-08-15T09:44:14.242Z</time>
      </trkpt>
      <trkpt lat="45.58318" lon="4.75751">
        <ele>158</ele>
        <time>2018-08-15T09:44:15.263Z</time>
      </trkpt>
      <trkpt lat="45.58322" lon="4.75769">
        <ele>158</ele>
        <time>2018-08-15T09:44:16.250Z</time>
      </trkpt>
      <trkpt lat="45.58322" lon="4.75769">
        <ele>158</ele>
        <time>2018-08-15T09:44:17.242Z</time>
      </trkpt>
      <trkpt lat="45.58327" lon="4.75786">
        <ele>158</ele>
        <time>2018-08-15T09:44:18.266Z</time>
      </trkpt>
      <trkpt lat="45.58327" lon="4.75786">
        <ele>158</ele>
        <time>2018-08-15T09:44:19.247Z</time>
      </trkpt>
      <trkpt lat="45.58332" lon="4.75803">
        <ele>158</ele>
        <time>2018-08-15T09:44:20.236Z</time>
      </trkpt>
      <trkpt lat="45.58332" lon="4.75803">
        <ele>158</ele>
        <time>2018-08-15T09:44:21.254Z</time>
      </trkpt>
      <trkpt lat="45.58337" lon="4.75821">
        <ele>158</ele>
        <time>2018-08-15T09:44:22.256Z</time>
      </trkpt>
      <trkpt lat="45.58337" lon="4.75821">
        <ele>158</ele>
        <time>2018-08-15T09:44:23.267Z</time>
      </trkpt>
      <trkpt lat="45.58343" lon="4.75838">
        <ele>158</ele>
        <time>2018-08-15T09:44:24.279Z</time>
      </trkpt>
      <trkpt lat="45.58343" lon="4.75838">
        <ele>158</ele>
        <time>2018-08-15T09:44:25.258Z</time>
      </trkpt>
      <trkpt lat="45.58347" lon="4.75856">
        <ele>158</ele>
        <time>2018-08-15T09:44:26.256Z</time>
      </trkpt>
      <trkpt lat="45.58347" lon="4.75856">
        <ele>158</ele>
        <time>2018-08-15T09:44:27.261Z</time>
      </trkpt>
      <trkpt lat="45.58352" lon="4.75874">
        <ele>158</ele>
        <time>2018-08-15T09:44:28.251Z</time>
      </trkpt>
      <trkpt lat="45.58352" lon="4.75874">
        <ele>158</ele>
        <time>2018-08-15T09:44:29.266Z</time>
      </trkpt>
      <trkpt lat="45.58355" lon="4.75893">
        <ele>158</ele>
        <time>2018-08-15T09:44:30.254Z</time>
      </trkpt>
      <trkpt lat="45.58355" lon="4.75893">
        <ele>158</ele>
        <time>2018-08-15T09:44:31.263Z</time>
      </trkpt>
      <trkpt lat="45.58359" lon="4.7591">
        <ele>157</ele>
        <time>2018-08-15T09:44:32.250Z</time>
      </trkpt>
      <trkpt lat="45.58359" lon="4.7591">
        <ele>157</ele>
        <time>2018-08-15T09:44:33.256Z</time>
      </trkpt>
      <trkpt lat="45.58364" lon="4.75927">
        <ele>157</ele>
        <time>2018-08-15T09:44:34.260Z</time>
      </trkpt>
      <trkpt lat="45.58364" lon="4.75927">
        <ele>157</ele>
        <time>2018-08-15T09:44:35.268Z</time>
      </trkpt>
      <trkpt lat="45.58369" lon="4.75944">
        <ele>157</ele>
        <time>2018-08-15T09:44:36.258Z</time>
      </trkpt>
      <trkpt lat="45.58372" lon="4.75952">
        <ele>157</ele>
        <time>2018-08-15T09:44:37.246Z</time>
      </trkpt>
      <trkpt lat="45.58376" lon="4.7596">
        <ele>157</ele>
        <time>2018-08-15T09:44:38.241Z</time>
      </trkpt>
      <trkpt lat="45.58376" lon="4.7596">
        <ele>157</ele>
        <time>2018-08-15T09:44:39.247Z</time>
      </trkpt>
      <trkpt lat="45.58383" lon="4.75974">
        <ele>157</ele>
        <time>2018-08-15T09:44:40.242Z</time>
      </trkpt>
      <trkpt lat="45.58383" lon="4.75974">
        <ele>157</ele>
        <time>2018-08-15T09:44:41.242Z</time>
      </trkpt>
      <trkpt lat="45.58391" lon="4.75988">
        <ele>157</ele>
        <time>2018-08-15T09:44:42.232Z</time>
      </trkpt>
      <trkpt lat="45.58391" lon="4.75988">
        <ele>157</ele>
        <time>2018-08-15T09:44:43.249Z</time>
      </trkpt>
      <trkpt lat="45.58401" lon="4.76">
        <ele>157</ele>
        <time>2018-08-15T09:44:44.241Z</time>
      </trkpt>
      <trkpt lat="45.58401" lon="4.76">
        <ele>157</ele>
        <time>2018-08-15T09:44:45.239Z</time>
      </trkpt>
      <trkpt lat="45.58411" lon="4.76011">
        <ele>157</ele>
        <time>2018-08-15T09:44:46.248Z</time>
      </trkpt>
      <trkpt lat="45.58411" lon="4.76011">
        <ele>157</ele>
        <time>2018-08-15T09:44:47.259Z</time>
      </trkpt>
      <trkpt lat="45.58421" lon="4.76021">
        <ele>157</ele>
        <time>2018-08-15T09:44:48.239Z</time>
      </trkpt>
      <trkpt lat="45.58421" lon="4.76021">
        <ele>157</ele>
        <time>2018-08-15T09:44:49.235Z</time>
      </trkpt>
      <trkpt lat="45.58431" lon="4.76031">
        <ele>157</ele>
        <time>2018-08-15T09:44:50.236Z</time>
      </trkpt>
      <trkpt lat="45.58431" lon="4.76031">
        <ele>157</ele>
        <time>2018-08-15T09:44:51.243Z</time>
      </trkpt>
      <trkpt lat="45.58441" lon="4.7604">
        <ele>157</ele>
        <time>2018-08-15T09:44:52.276Z</time>
      </trkpt>
      <trkpt lat="45.58441" lon="4.7604">
        <ele>157</ele>
        <time>2018-08-15T09:44:53.260Z</time>
      </trkpt>
      <trkpt lat="45.58451" lon="4.76049">
        <ele>157</ele>
        <time>2018-08-15T09:44:54.255Z</time>
      </trkpt>
      <trkpt lat="45.58451" lon="4.76049">
        <ele>157</ele>
        <time>2018-08-15T09:44:55.262Z</time>
      </trkpt>
      <trkpt lat="45.58461" lon="4.76058">
        <ele>156</ele>
        <time>2018-08-15T09:44:56.251Z</time>
      </trkpt>
      <trkpt lat="45.58461" lon="4.76058">
        <ele>156</ele>
        <time>2018-08-15T09:44:57.268Z</time>
      </trkpt>
      <trkpt lat="45.58471" lon="4.76067">
        <ele>156</ele>
        <time>2018-08-15T09:44:58.251Z</time>
      </trkpt>
      <trkpt lat="45.58471" lon="4.76067">
        <ele>156</ele>
        <time>2018-08-15T09:44:59.236Z</time>
      </trkpt>
      <trkpt lat="45.58482" lon="4.76078">
        <ele>156</ele>
        <time>2018-08-15T09:45:00.267Z</time>
      </trkpt>
      <trkpt lat="45.58482" lon="4.76078">
        <ele>156</ele>
        <time>2018-08-15T09:45:01.264Z</time>
      </trkpt>
      <trkpt lat="45.58492" lon="4.76088">
        <ele>155</ele>
        <time>2018-08-15T09:45:02.262Z</time>
      </trkpt>
      <trkpt lat="45.58492" lon="4.76088">
        <ele>155</ele>
        <time>2018-08-15T09:45:03.240Z</time>
      </trkpt>
      <trkpt lat="45.58502" lon="4.76099">
        <ele>155</ele>
        <time>2018-08-15T09:45:04.264Z</time>
      </trkpt>
      <trkpt lat="45.58507" lon="4.76104">
        <ele>155</ele>
        <time>2018-08-15T09:45:05.236Z</time>
      </trkpt>
      <trkpt lat="45.58512" lon="4.76109">
        <ele>155</ele>
        <time>2018-08-15T09:45:06.250Z</time>
      </trkpt>
      <trkpt lat="45.58512" lon="4.76109">
        <ele>155</ele>
        <time>2018-08-15T09:45:07.250Z</time>
      </trkpt>
      <trkpt lat="45.58522" lon="4.76119">
        <ele>155</ele>
        <time>2018-08-15T09:45:08.259Z</time>
      </trkpt>
      <trkpt lat="45.58522" lon="4.76119">
        <ele>155</ele>
        <time>2018-08-15T09:45:09.264Z</time>
      </trkpt>
      <trkpt lat="45.58531" lon="4.76131">
        <ele>156</ele>
        <time>2018-08-15T09:45:10.263Z</time>
      </trkpt>
      <trkpt lat="45.58531" lon="4.76131">
        <ele>156</ele>
        <time>2018-08-15T09:45:11.269Z</time>
      </trkpt>
      <trkpt lat="45.58538" lon="4.76143">
        <ele>156</ele>
        <time>2018-08-15T09:45:12.260Z</time>
      </trkpt>
      <trkpt lat="45.58538" lon="4.76143">
        <ele>156</ele>
        <time>2018-08-15T09:45:13.268Z</time>
      </trkpt>
      <trkpt lat="45.58545" lon="4.76156">
        <ele>156</ele>
        <time>2018-08-15T09:45:14.247Z</time>
      </trkpt>
      <trkpt lat="45.58545" lon="4.76156">
        <ele>156</ele>
        <time>2018-08-15T09:45:15.265Z</time>
      </trkpt>
      <trkpt lat="45.5855" lon="4.7617">
        <ele>156</ele>
        <time>2018-08-15T09:45:16.266Z</time>
      </trkpt>
      <trkpt lat="45.5855" lon="4.7617">
        <ele>156</ele>
        <time>2018-08-15T09:45:17.239Z</time>
      </trkpt>
      <trkpt lat="45.58555" lon="4.76184">
        <ele>156</ele>
        <time>2018-08-15T09:45:18.243Z</time>
      </trkpt>
      <trkpt lat="45.58555" lon="4.76184">
        <ele>156</ele>
        <time>2018-08-15T09:45:19.250Z</time>
      </trkpt>
      <trkpt lat="45.58558" lon="4.76197">
        <ele>156</ele>
        <time>2018-08-15T09:45:20.235Z</time>
      </trkpt>
      <trkpt lat="45.58558" lon="4.76197">
        <ele>156</ele>
        <time>2018-08-15T09:45:21.253Z</time>
      </trkpt>
      <trkpt lat="45.58559" lon="4.76211">
        <ele>156</ele>
        <time>2018-08-15T09:45:22.247Z</time>
      </trkpt>
      <trkpt lat="45.58559" lon="4.76211">
        <ele>156</ele>
        <time>2018-08-15T09:45:23.252Z</time>
      </trkpt>
      <trkpt lat="45.5856" lon="4.76224">
        <ele>156</ele>
        <time>2018-08-15T09:45:24.244Z</time>
      </trkpt>
      <trkpt lat="45.5856" lon="4.76224">
        <ele>156</ele>
        <time>2018-08-15T09:45:25.263Z</time>
      </trkpt>
      <trkpt lat="45.5856" lon="4.76236">
        <ele>157</ele>
        <time>2018-08-15T09:45:26.249Z</time>
      </trkpt>
      <trkpt lat="45.5856" lon="4.76236">
        <ele>157</ele>
        <time>2018-08-15T09:45:27.249Z</time>
      </trkpt>
      <trkpt lat="45.58559" lon="4.76248">
        <ele>157</ele>
        <time>2018-08-15T09:45:28.267Z</time>
      </trkpt>
      <trkpt lat="45.58559" lon="4.76248">
        <ele>157</ele>
        <time>2018-08-15T09:45:29.239Z</time>
      </trkpt>
      <trkpt lat="45.58557" lon="4.76261">
        <ele>158</ele>
        <time>2018-08-15T09:45:30.237Z</time>
      </trkpt>
      <trkpt lat="45.58557" lon="4.76261">
        <ele>158</ele>
        <time>2018-08-15T09:45:31.268Z</time>
      </trkpt>
      <trkpt lat="45.58553" lon="4.76274">
        <ele>158</ele>
        <time>2018-08-15T09:45:32.264Z</time>
      </trkpt>
      <trkpt lat="45.58553" lon="4.76274">
        <ele>158</ele>
        <time>2018-08-15T09:45:33.267Z</time>
      </trkpt>
      <trkpt lat="45.58551" lon="4.76288">
        <ele>159</ele>
        <time>2018-08-15T09:45:34.247Z</time>
      </trkpt>
      <trkpt lat="45.58551" lon="4.76288">
        <ele>159</ele>
        <time>2018-08-15T09:45:35.237Z</time>
      </trkpt>
      <trkpt lat="45.58548" lon="4.76302">
        <ele>160</ele>
        <time>2018-08-15T09:45:36.265Z</time>
      </trkpt>
      <trkpt lat="45.58548" lon="4.76302">
        <ele>160</ele>
        <time>2018-08-15T09:45:37.242Z</time>
      </trkpt>
      <trkpt lat="45.58545" lon="4.76315">
        <ele>161</ele>
        <time>2018-08-15T09:45:38.239Z</time>
      </trkpt>
      <trkpt lat="45.58545" lon="4.76315">
        <ele>161</ele>
        <time>2018-08-15T09:45:39.264Z</time>
      </trkpt>
      <trkpt lat="45.58543" lon="4.76329">
        <ele>162</ele>
        <time>2018-08-15T09:45:40.262Z</time>
      </trkpt>
      <trkpt lat="45.58543" lon="4.76329">
        <ele>162</ele>
        <time>2018-08-15T09:45:41.234Z</time>
      </trkpt>
      <trkpt lat="45.58542" lon="4.76343">
        <ele>162</ele>
        <time>2018-08-15T09:45:42.266Z</time>
      </trkpt>
      <trkpt lat="45.58542" lon="4.76343">
        <ele>162</ele>
        <time>2018-08-15T09:45:43.234Z</time>
      </trkpt>
      <trkpt lat="45.5854" lon="4.76357">
        <ele>163</ele>
        <time>2018-08-15T09:45:44.254Z</time>
      </trkpt>
      <trkpt lat="45.5854" lon="4.76357">
        <ele>163</ele>
        <time>2018-08-15T09:45:45.236Z</time>
      </trkpt>
      <trkpt lat="45.58537" lon="4.7637">
        <ele>164</ele>
        <time>2018-08-15T09:45:46.248Z</time>
      </trkpt>
      <trkpt lat="45.58537" lon="4.7637">
        <ele>164</ele>
        <time>2018-08-15T09:45:47.234Z</time>
      </trkpt>
      <trkpt lat="45.58535" lon="4.76383">
        <ele>164</ele>
        <time>2018-08-15T09:45:48.266Z</time>
      </trkpt>
      <trkpt lat="45.58535" lon="4.76383">
        <ele>164</ele>
        <time>2018-08-15T09:45:49.252Z</time>
      </trkpt>
      <trkpt lat="45.58533" lon="4.76397">
        <ele>165</ele>
        <time>2018-08-15T09:45:50.264Z</time>
      </trkpt>
      <trkpt lat="45.58533" lon="4.76397">
        <ele>165</ele>
        <time>2018-08-15T09:45:51.243Z</time>
      </trkpt>
      <trkpt lat="45.5853" lon="4.7641">
        <ele>165</ele>
        <time>2018-08-15T09:45:52.257Z</time>
      </trkpt>
      <trkpt lat="45.5853" lon="4.7641">
        <ele>165</ele>
        <time>2018-08-15T09:45:53.238Z</time>
      </trkpt>
      <trkpt lat="45.58526" lon="4.76421">
        <ele>165</ele>
        <time>2018-08-15T09:45:54.276Z</time>
      </trkpt>
      <trkpt lat="45.58526" lon="4.76421">
        <ele>165</ele>
        <time>2018-08-15T09:45:55.267Z</time>
      </trkpt>
      <trkpt lat="45.5852" lon="4.7643">
        <ele>166</ele>
        <time>2018-08-15T09:45:56.239Z</time>
      </trkpt>
      <trkpt lat="45.5852" lon="4.7643">
        <ele>166</ele>
        <time>2018-08-15T09:45:57.257Z</time>
      </trkpt>
      <trkpt lat="45.58513" lon="4.76438">
        <ele>167</ele>
        <time>2018-08-15T09:45:58.234Z</time>
      </trkpt>
      <trkpt lat="45.58513" lon="4.76438">
        <ele>167</ele>
        <time>2018-08-15T09:45:59.252Z</time>
      </trkpt>
      <trkpt lat="45.58505" lon="4.76446">
        <ele>167</ele>
        <time>2018-08-15T09:46:00.265Z</time>
      </trkpt>
      <trkpt lat="45.58505" lon="4.76446">
        <ele>167</ele>
        <time>2018-08-15T09:46:01.241Z</time>
      </trkpt>
      <trkpt lat="45.58498" lon="4.76451">
        <ele>167</ele>
        <time>2018-08-15T09:46:02.236Z</time>
      </trkpt>
      <trkpt lat="45.58498" lon="4.76451">
        <ele>167</ele>
        <time>2018-08-15T09:46:03.254Z</time>
      </trkpt>
      <trkpt lat="45.5849" lon="4.76456">
        <ele>168</ele>
        <time>2018-08-15T09:46:04.233Z</time>
      </trkpt>
      <trkpt lat="45.5849" lon="4.76456">
        <ele>168</ele>
        <time>2018-08-15T09:46:05.254Z</time>
      </trkpt>
      <trkpt lat="45.58483" lon="4.76461">
        <ele>167</ele>
        <time>2018-08-15T09:46:06.234Z</time>
      </trkpt>
      <trkpt lat="45.58483" lon="4.76461">
        <ele>167</ele>
        <time>2018-08-15T09:46:07.247Z</time>
      </trkpt>
      <trkpt lat="45.58475" lon="4.76466">
        <ele>168</ele>
        <time>2018-08-15T09:46:08.261Z</time>
      </trkpt>
      <trkpt lat="45.58475" lon="4.76466">
        <ele>168</ele>
        <time>2018-08-15T09:46:09.237Z</time>
      </trkpt>
      <trkpt lat="45.58467" lon="4.76472">
        <ele>168</ele>
        <time>2018-08-15T09:46:10.248Z</time>
      </trkpt>
      <trkpt lat="45.58467" lon="4.76472">
        <ele>168</ele>
        <time>2018-08-15T09:46:11.264Z</time>
      </trkpt>
      <trkpt lat="45.5846" lon="4.7648">
        <ele>169</ele>
        <time>2018-08-15T09:46:12.238Z</time>
      </trkpt>
      <trkpt lat="45.5846" lon="4.7648">
        <ele>169</ele>
        <time>2018-08-15T09:46:13.255Z</time>
      </trkpt>
      <trkpt lat="45.58455" lon="4.7649">
        <ele>169</ele>
        <time>2018-08-15T09:46:14.272Z</time>
      </trkpt>
      <trkpt lat="45.58455" lon="4.7649">
        <ele>169</ele>
        <time>2018-08-15T09:46:15.244Z</time>
      </trkpt>
      <trkpt lat="45.58452" lon="4.76503">
        <ele>169</ele>
        <time>2018-08-15T09:46:16.271Z</time>
      </trkpt>
      <trkpt lat="45.58452" lon="4.76503">
        <ele>169</ele>
        <time>2018-08-15T09:46:17.250Z</time>
      </trkpt>
      <trkpt lat="45.58452" lon="4.76518">
        <ele>170</ele>
        <time>2018-08-15T09:46:18.266Z</time>
      </trkpt>
      <trkpt lat="45.58452" lon="4.76518">
        <ele>170</ele>
        <time>2018-08-15T09:46:19.253Z</time>
      </trkpt>
      <trkpt lat="45.58454" lon="4.76535">
        <ele>170</ele>
        <time>2018-08-15T09:46:20.237Z</time>
      </trkpt>
      <trkpt lat="45.58454" lon="4.76535">
        <ele>170</ele>
        <time>2018-08-15T09:46:21.264Z</time>
      </trkpt>
      <trkpt lat="45.58458" lon="4.76554">
        <ele>171</ele>
        <time>2018-08-15T09:46:22.248Z</time>
      </trkpt>
      <trkpt lat="45.58458" lon="4.76554">
        <ele>171</ele>
        <time>2018-08-15T09:46:23.239Z</time>
      </trkpt>
      <trkpt lat="45.58457" lon="4.76575">
        <ele>171</ele>
        <time>2018-08-15T09:46:24.274Z</time>
      </trkpt>
      <trkpt lat="45.58457" lon="4.76575">
        <ele>171</ele>
        <time>2018-08-15T09:46:25.240Z</time>
      </trkpt>
      <trkpt lat="45.58461" lon="4.76599">
        <ele>171</ele>
        <time>2018-08-15T09:46:26.236Z</time>
      </trkpt>
      <trkpt lat="45.58461" lon="4.76599">
        <ele>171</ele>
        <time>2018-08-15T09:46:27.245Z</time>
      </trkpt>
      <trkpt lat="45.58464" lon="4.76622">
        <ele>171</ele>
        <time>2018-08-15T09:46:28.232Z</time>
      </trkpt>
      <trkpt lat="45.58464" lon="4.76622">
        <ele>171</ele>
        <time>2018-08-15T09:46:29.265Z</time>
      </trkpt>
      <trkpt lat="45.58469" lon="4.76644">
        <ele>172</ele>
        <time>2018-08-15T09:46:30.255Z</time>
      </trkpt>
      <trkpt lat="45.58469" lon="4.76644">
        <ele>172</ele>
        <time>2018-08-15T09:46:31.264Z</time>
      </trkpt>
      <trkpt lat="45.58475" lon="4.76663">
        <ele>171</ele>
        <time>2018-08-15T09:46:32.265Z</time>
      </trkpt>
      <trkpt lat="45.58475" lon="4.76663">
        <ele>171</ele>
        <time>2018-08-15T09:46:33.255Z</time>
      </trkpt>
      <trkpt lat="45.58481" lon="4.76679">
        <ele>172</ele>
        <time>2018-08-15T09:46:34.271Z</time>
      </trkpt>
      <trkpt lat="45.58481" lon="4.76679">
        <ele>172</ele>
        <time>2018-08-15T09:46:35.268Z</time>
      </trkpt>
      <trkpt lat="45.58485" lon="4.76696">
        <ele>171</ele>
        <time>2018-08-15T09:46:36.250Z</time>
      </trkpt>
      <trkpt lat="45.58485" lon="4.76696">
        <ele>171</ele>
        <time>2018-08-15T09:46:37.255Z</time>
      </trkpt>
      <trkpt lat="45.58493" lon="4.76711">
        <ele>171</ele>
        <time>2018-08-15T09:46:38.246Z</time>
      </trkpt>
      <trkpt lat="45.58493" lon="4.76711">
        <ele>171</ele>
        <time>2018-08-15T09:46:39.242Z</time>
      </trkpt>
      <trkpt lat="45.58502" lon="4.76726">
        <ele>171</ele>
        <time>2018-08-15T09:46:40.238Z</time>
      </trkpt>
      <trkpt lat="45.58502" lon="4.76726">
        <ele>171</ele>
        <time>2018-08-15T09:46:41.237Z</time>
      </trkpt>
      <trkpt lat="45.58512" lon="4.76742">
        <ele>171</ele>
        <time>2018-08-15T09:46:42.232Z</time>
      </trkpt>
      <trkpt lat="45.58512" lon="4.76742">
        <ele>171</ele>
        <time>2018-08-15T09:46:43.250Z</time>
      </trkpt>
      <trkpt lat="45.58523" lon="4.76756">
        <ele>171</ele>
        <time>2018-08-15T09:46:44.242Z</time>
      </trkpt>
      <trkpt lat="45.58523" lon="4.76756">
        <ele>171</ele>
        <time>2018-08-15T09:46:45.265Z</time>
      </trkpt>
      <trkpt lat="45.58533" lon="4.76769">
        <ele>171</ele>
        <time>2018-08-15T09:46:46.266Z</time>
      </trkpt>
      <trkpt lat="45.58533" lon="4.76769">
        <ele>171</ele>
        <time>2018-08-15T09:46:47.257Z</time>
      </trkpt>
      <trkpt lat="45.5854" lon="4.76784">
        <ele>171</ele>
        <time>2018-08-15T09:46:48.242Z</time>
      </trkpt>
      <trkpt lat="45.5854" lon="4.76784">
        <ele>171</ele>
        <time>2018-08-15T09:46:49.251Z</time>
      </trkpt>
      <trkpt lat="45.58546" lon="4.76802">
        <ele>171</ele>
        <time>2018-08-15T09:46:50.251Z</time>
      </trkpt>
      <trkpt lat="45.58546" lon="4.76802">
        <ele>171</ele>
        <time>2018-08-15T09:46:51.252Z</time>
      </trkpt>
      <trkpt lat="45.58549" lon="4.7682">
        <ele>172</ele>
        <time>2018-08-15T09:46:52.256Z</time>
      </trkpt>
      <trkpt lat="45.58549" lon="4.7682">
        <ele>172</ele>
        <time>2018-08-15T09:46:53.240Z</time>
      </trkpt>
      <trkpt lat="45.58555" lon="4.76838">
        <ele>172</ele>
        <time>2018-08-15T09:46:54.242Z</time>
      </trkpt>
      <trkpt lat="45.58555" lon="4.76838">
        <ele>172</ele>
        <time>2018-08-15T09:46:55.241Z</time>
      </trkpt>
      <trkpt lat="45.5856" lon="4.76856">
        <ele>172</ele>
        <time>2018-08-15T09:46:56.271Z</time>
      </trkpt>
      <trkpt lat="45.5856" lon="4.76856">
        <ele>172</ele>
        <time>2018-08-15T09:46:57.257Z</time>
      </trkpt>
      <trkpt lat="45.58563" lon="4.76873">
        <ele>171</ele>
        <time>2018-08-15T09:46:58.245Z</time>
      </trkpt>
      <trkpt lat="45.58563" lon="4.76873">
        <ele>171</ele>
        <time>2018-08-15T09:46:59.261Z</time>
      </trkpt>
      <trkpt lat="45.58566" lon="4.76888">
        <ele>171</ele>
        <time>2018-08-15T09:47:00.249Z</time>
      </trkpt>
      <trkpt lat="45.58566" lon="4.76888">
        <ele>171</ele>
        <time>2018-08-15T09:47:01.259Z</time>
      </trkpt>
      <trkpt lat="45.58568" lon="4.76901">
        <ele>171</ele>
        <time>2018-08-15T09:47:02.263Z</time>
      </trkpt>
      <trkpt lat="45.58568" lon="4.76901">
        <ele>171</ele>
        <time>2018-08-15T09:47:03.239Z</time>
      </trkpt>
      <trkpt lat="45.58562" lon="4.76908">
        <ele>171</ele>
        <time>2018-08-15T09:47:04.235Z</time>
      </trkpt>
      <trkpt lat="45.58562" lon="4.76908">
        <ele>171</ele>
        <time>2018-08-15T09:47:05.238Z</time>
      </trkpt>
      <trkpt lat="45.58552" lon="4.76907">
        <ele>171</ele>
        <time>2018-08-15T09:47:06.237Z</time>
      </trkpt>
      <trkpt lat="45.58552" lon="4.76907">
        <ele>171</ele>
        <time>2018-08-15T09:47:07.235Z</time>
      </trkpt>
      <trkpt lat="45.58541" lon="4.76905">
        <ele>172</ele>
        <time>2018-08-15T09:47:08.267Z</time>
      </trkpt>
      <trkpt lat="45.58541" lon="4.76905">
        <ele>172</ele>
        <time>2018-08-15T09:47:09.235Z</time>
      </trkpt>
      <trkpt lat="45.58533" lon="4.76905">
        <ele>172</ele>
        <time>2018-08-15T09:47:10.235Z</time>
      </trkpt>
      <trkpt lat="45.58533" lon="4.76905">
        <ele>172</ele>
        <time>2018-08-15T09:47:11.255Z</time>
      </trkpt>
      <trkpt lat="45.58525" lon="4.76914">
        <ele>173</ele>
        <time>2018-08-15T09:47:12.242Z</time>
      </trkpt>
      <trkpt lat="45.58525" lon="4.76914">
        <ele>173</ele>
        <time>2018-08-15T09:47:13.265Z</time>
      </trkpt>
      <trkpt lat="45.58517" lon="4.76923">
        <ele>173</ele>
        <time>2018-08-15T09:47:14.236Z</time>
      </trkpt>
      <trkpt lat="45.58517" lon="4.76923">
        <ele>173</ele>
        <time>2018-08-15T09:47:15.258Z</time>
      </trkpt>
      <trkpt lat="45.5851" lon="4.76933">
        <ele>174</ele>
        <time>2018-08-15T09:47:16.258Z</time>
      </trkpt>
      <trkpt lat="45.5851" lon="4.76933">
        <ele>174</ele>
        <time>2018-08-15T09:47:17.240Z</time>
      </trkpt>
      <trkpt lat="45.58503" lon="4.7694">
        <ele>174</ele>
        <time>2018-08-15T09:47:18.254Z</time>
      </trkpt>
      <trkpt lat="45.58503" lon="4.7694">
        <ele>174</ele>
        <time>2018-08-15T09:47:19.261Z</time>
      </trkpt>
      <trkpt lat="45.58496" lon="4.7695">
        <ele>175</ele>
        <time>2018-08-15T09:47:20.239Z</time>
      </trkpt>
      <trkpt lat="45.58496" lon="4.7695">
        <ele>175</ele>
        <time>2018-08-15T09:47:21.245Z</time>
      </trkpt>
      <trkpt lat="45.58488" lon="4.7696">
        <ele>175</ele>
        <time>2018-08-15T09:47:22.259Z</time>
      </trkpt>
      <trkpt lat="45.58488" lon="4.7696">
        <ele>175</ele>
        <time>2018-08-15T09:47:23.238Z</time>
      </trkpt>
      <trkpt lat="45.58481" lon="4.76968">
        <ele>176</ele>
        <time>2018-08-15T09:47:24.252Z</time>
      </trkpt>
      <trkpt lat="45.58481" lon="4.76968">
        <ele>176</ele>
        <time>2018-08-15T09:47:25.264Z</time>
      </trkpt>
      <trkpt lat="45.58477" lon="4.76973">
        <ele>177</ele>
        <time>2018-08-15T09:47:26.263Z</time>
      </trkpt>
      <trkpt lat="45.58477" lon="4.76973">
        <ele>177</ele>
        <time>2018-08-15T09:47:27.243Z</time>
      </trkpt>
      <trkpt lat="45.58473" lon="4.76979">
        <ele>178</ele>
        <time>2018-08-15T09:47:28.255Z</time>
      </trkpt>
      <trkpt lat="45.58473" lon="4.76979">
        <ele>178</ele>
        <time>2018-08-15T09:47:29.235Z</time>
      </trkpt>
      <trkpt lat="45.58468" lon="4.76986">
        <ele>179</ele>
        <time>2018-08-15T09:47:30.248Z</time>
      </trkpt>
      <trkpt lat="45.58468" lon="4.76986">
        <ele>179</ele>
        <time>2018-08-15T09:47:31.267Z</time>
      </trkpt>
      <trkpt lat="45.58463" lon="4.76993">
        <ele>179</ele>
        <time>2018-08-15T09:47:32.256Z</time>
      </trkpt>
      <trkpt lat="45.58463" lon="4.76993">
        <ele>179</ele>
        <time>2018-08-15T09:47:33.241Z</time>
      </trkpt>
      <trkpt lat="45.58457" lon="4.76999">
        <ele>180</ele>
        <time>2018-08-15T09:47:34.254Z</time>
      </trkpt>
      <trkpt lat="45.58457" lon="4.76999">
        <ele>180</ele>
        <time>2018-08-15T09:47:35.258Z</time>
      </trkpt>
      <trkpt lat="45.5845" lon="4.77007">
        <ele>180</ele>
        <time>2018-08-15T09:47:36.263Z</time>
      </trkpt>
      <trkpt lat="45.58447" lon="4.77011">
        <ele>181</ele>
        <time>2018-08-15T09:47:37.233Z</time>
      </trkpt>
      <trkpt lat="45.58443" lon="4.77015">
        <ele>181</ele>
        <time>2018-08-15T09:47:38.266Z</time>
      </trkpt>
      <trkpt lat="45.58443" lon="4.77015">
        <ele>181</ele>
        <time>2018-08-15T09:47:39.237Z</time>
      </trkpt>
      <trkpt lat="45.58436" lon="4.77023">
        <ele>182</ele>
        <time>2018-08-15T09:47:40.244Z</time>
      </trkpt>
      <trkpt lat="45.58436" lon="4.77023">
        <ele>182</ele>
        <time>2018-08-15T09:47:41.253Z</time>
      </trkpt>
      <trkpt lat="45.58429" lon="4.77031">
        <ele>182</ele>
        <time>2018-08-15T09:47:42.248Z</time>
      </trkpt>
      <trkpt lat="45.58429" lon="4.77031">
        <ele>182</ele>
        <time>2018-08-15T09:47:43.262Z</time>
      </trkpt>
      <trkpt lat="45.58422" lon="4.77039">
        <ele>183</ele>
        <time>2018-08-15T09:47:44.255Z</time>
      </trkpt>
      <trkpt lat="45.58422" lon="4.77039">
        <ele>183</ele>
        <time>2018-08-15T09:47:45.263Z</time>
      </trkpt>
      <trkpt lat="45.58416" lon="4.77047">
        <ele>182</ele>
        <time>2018-08-15T09:47:46.267Z</time>
      </trkpt>
      <trkpt lat="45.58416" lon="4.77047">
        <ele>182</ele>
        <time>2018-08-15T09:47:47.239Z</time>
      </trkpt>
      <trkpt lat="45.58414" lon="4.77054">
        <ele>184</ele>
        <time>2018-08-15T09:47:48.278Z</time>
      </trkpt>
      <trkpt lat="45.58414" lon="4.77054">
        <ele>184</ele>
        <time>2018-08-15T09:47:49.245Z</time>
      </trkpt>
      <trkpt lat="45.58416" lon="4.77062">
        <ele>184</ele>
        <time>2018-08-15T09:47:50.248Z</time>
      </trkpt>
      <trkpt lat="45.58416" lon="4.77062">
        <ele>184</ele>
        <time>2018-08-15T09:47:51.269Z</time>
      </trkpt>
      <trkpt lat="45.58417" lon="4.77072">
        <ele>184</ele>
        <time>2018-08-15T09:47:52.257Z</time>
      </trkpt>
      <trkpt lat="45.58419" lon="4.77079">
        <ele>184</ele>
        <time>2018-08-15T09:47:53.272Z</time>
      </trkpt>
      <trkpt lat="45.58419" lon="4.77079">
        <ele>184</ele>
        <time>2018-08-15T09:47:54.242Z</time>
      </trkpt>
      <trkpt lat="45.58422" lon="4.77092">
        <ele>184</ele>
        <time>2018-08-15T09:47:55.239Z</time>
      </trkpt>
      <trkpt lat="45.58424" lon="4.77098">
        <ele>184</ele>
        <time>2018-08-15T09:47:56.266Z</time>
      </trkpt>
      <trkpt lat="45.58424" lon="4.77098">
        <ele>184</ele>
        <time>2018-08-15T09:47:57.239Z</time>
      </trkpt>
      <trkpt lat="45.58427" lon="4.77109">
        <ele>185</ele>
        <time>2018-08-15T09:47:58.246Z</time>
      </trkpt>
      <trkpt lat="45.58427" lon="4.77109">
        <ele>185</ele>
        <time>2018-08-15T09:47:59.253Z</time>
      </trkpt>
      <trkpt lat="45.58431" lon="4.77119">
        <ele>185</ele>
        <time>2018-08-15T09:48:00.244Z</time>
      </trkpt>
      <trkpt lat="45.58431" lon="4.77119">
        <ele>185</ele>
        <time>2018-08-15T09:48:01.261Z</time>
      </trkpt>
      <trkpt lat="45.58436" lon="4.77129">
        <ele>186</ele>
        <time>2018-08-15T09:48:02.266Z</time>
      </trkpt>
      <trkpt lat="45.58436" lon="4.77129">
        <ele>186</ele>
        <time>2018-08-15T09:48:03.270Z</time>
      </trkpt>
      <trkpt lat="45.58435" lon="4.77138">
        <ele>186</ele>
        <time>2018-08-15T09:48:04.236Z</time>
      </trkpt>
      <trkpt lat="45.58435" lon="4.77138">
        <ele>186</ele>
        <time>2018-08-15T09:48:05.266Z</time>
      </trkpt>
      <trkpt lat="45.58431" lon="4.77146">
        <ele>187</ele>
        <time>2018-08-15T09:48:06.255Z</time>
      </trkpt>
      <trkpt lat="45.58431" lon="4.77146">
        <ele>187</ele>
        <time>2018-08-15T09:48:07.253Z</time>
      </trkpt>
      <trkpt lat="45.58424" lon="4.7715">
        <ele>187</ele>
        <time>2018-08-15T09:48:08.256Z</time>
      </trkpt>
      <trkpt lat="45.58424" lon="4.7715">
        <ele>187</ele>
        <time>2018-08-15T09:48:09.259Z</time>
      </trkpt>
      <trkpt lat="45.58418" lon="4.77156">
        <ele>188</ele>
        <time>2018-08-15T09:48:10.270Z</time>
      </trkpt>
      <trkpt lat="45.58418" lon="4.77156">
        <ele>188</ele>
        <time>2018-08-15T09:48:11.239Z</time>
      </trkpt>
      <trkpt lat="45.58409" lon="4.77163">
        <ele>188</ele>
        <time>2018-08-15T09:48:12.271Z</time>
      </trkpt>
      <trkpt lat="45.58409" lon="4.77163">
        <ele>188</ele>
        <time>2018-08-15T09:48:13.237Z</time>
      </trkpt>
      <trkpt lat="45.58401" lon="4.77171">
        <ele>188</ele>
        <time>2018-08-15T09:48:14.248Z</time>
      </trkpt>
      <trkpt lat="45.58401" lon="4.77171">
        <ele>188</ele>
        <time>2018-08-15T09:48:15.240Z</time>
      </trkpt>
      <trkpt lat="45.58392" lon="4.77178">
        <ele>188</ele>
        <time>2018-08-15T09:48:16.246Z</time>
      </trkpt>
      <trkpt lat="45.58392" lon="4.77178">
        <ele>188</ele>
        <time>2018-08-15T09:48:17.254Z</time>
      </trkpt>
      <trkpt lat="45.58383" lon="4.77185">
        <ele>189</ele>
        <time>2018-08-15T09:48:18.247Z</time>
      </trkpt>
      <trkpt lat="45.58383" lon="4.77185">
        <ele>189</ele>
        <time>2018-08-15T09:48:19.245Z</time>
      </trkpt>
      <trkpt lat="45.58375" lon="4.77193">
        <ele>189</ele>
        <time>2018-08-15T09:48:20.250Z</time>
      </trkpt>
      <trkpt lat="45.58375" lon="4.77193">
        <ele>189</ele>
        <time>2018-08-15T09:48:21.257Z</time>
      </trkpt>
      <trkpt lat="45.58366" lon="4.77201">
        <ele>189</ele>
        <time>2018-08-15T09:48:22.256Z</time>
      </trkpt>
      <trkpt lat="45.58366" lon="4.77201">
        <ele>189</ele>
        <time>2018-08-15T09:48:23.236Z</time>
      </trkpt>
      <trkpt lat="45.58357" lon="4.77208">
        <ele>189</ele>
        <time>2018-08-15T09:48:24.256Z</time>
      </trkpt>
      <trkpt lat="45.58357" lon="4.77208">
        <ele>189</ele>
        <time>2018-08-15T09:48:25.267Z</time>
      </trkpt>
      <trkpt lat="45.5835" lon="4.77216">
        <ele>189</ele>
        <time>2018-08-15T09:48:26.261Z</time>
      </trkpt>
      <trkpt lat="45.5835" lon="4.77216">
        <ele>189</ele>
        <time>2018-08-15T09:48:27.238Z</time>
      </trkpt>
      <trkpt lat="45.58341" lon="4.77225">
        <ele>188</ele>
        <time>2018-08-15T09:48:28.269Z</time>
      </trkpt>
      <trkpt lat="45.58341" lon="4.77225">
        <ele>188</ele>
        <time>2018-08-15T09:48:29.260Z</time>
      </trkpt>
      <trkpt lat="45.5833" lon="4.77232">
        <ele>188</ele>
        <time>2018-08-15T09:48:30.276Z</time>
      </trkpt>
      <trkpt lat="45.58326" lon="4.77234">
        <ele>188</ele>
        <time>2018-08-15T09:48:31.259Z</time>
      </trkpt>
      <trkpt lat="45.58321" lon="4.77238">
        <ele>188</ele>
        <time>2018-08-15T09:48:32.262Z</time>
      </trkpt>
      <trkpt lat="45.58321" lon="4.77238">
        <ele>188</ele>
        <time>2018-08-15T09:48:33.266Z</time>
      </trkpt>
      <trkpt lat="45.58311" lon="4.77245">
        <ele>188</ele>
        <time>2018-08-15T09:48:34.242Z</time>
      </trkpt>
      <trkpt lat="45.58311" lon="4.77245">
        <ele>188</ele>
        <time>2018-08-15T09:48:35.258Z</time>
      </trkpt>
      <trkpt lat="45.58303" lon="4.77253">
        <ele>187</ele>
        <time>2018-08-15T09:48:36.265Z</time>
      </trkpt>
      <trkpt lat="45.58303" lon="4.77253">
        <ele>187</ele>
        <time>2018-08-15T09:48:37.262Z</time>
      </trkpt>
      <trkpt lat="45.58295" lon="4.7726">
        <ele>187</ele>
        <time>2018-08-15T09:48:38.255Z</time>
      </trkpt>
      <trkpt lat="45.58295" lon="4.7726">
        <ele>187</ele>
        <time>2018-08-15T09:48:39.237Z</time>
      </trkpt>
      <trkpt lat="45.58288" lon="4.77266">
        <ele>188</ele>
        <time>2018-08-15T09:48:40.273Z</time>
      </trkpt>
      <trkpt lat="45.58288" lon="4.77266">
        <ele>188</ele>
        <time>2018-08-15T09:48:41.265Z</time>
      </trkpt>
      <trkpt lat="45.5828" lon="4.77274">
        <ele>188</ele>
        <time>2018-08-15T09:48:42.259Z</time>
      </trkpt>
      <trkpt lat="45.5828" lon="4.77274">
        <ele>188</ele>
        <time>2018-08-15T09:48:43.254Z</time>
      </trkpt>
      <trkpt lat="45.58272" lon="4.7728">
        <ele>188</ele>
        <time>2018-08-15T09:48:44.255Z</time>
      </trkpt>
      <trkpt lat="45.58272" lon="4.7728">
        <ele>188</ele>
        <time>2018-08-15T09:48:45.240Z</time>
      </trkpt>
      <trkpt lat="45.58265" lon="4.77286">
        <ele>188</ele>
        <time>2018-08-15T09:48:46.243Z</time>
      </trkpt>
      <trkpt lat="45.58265" lon="4.77286">
        <ele>188</ele>
        <time>2018-08-15T09:48:47.262Z</time>
      </trkpt>
      <trkpt lat="45.58261" lon="4.77291">
        <ele>187</ele>
        <time>2018-08-15T09:48:48.260Z</time>
      </trkpt>
      <trkpt lat="45.58261" lon="4.77294">
        <ele>187</ele>
        <time>2018-08-15T09:48:49.258Z</time>
      </trkpt>
      <trkpt lat="45.58262" lon="4.77296">
        <ele>187</ele>
        <time>2018-08-15T09:48:50.246Z</time>
      </trkpt>
      <trkpt lat="45.58262" lon="4.77296">
        <ele>187</ele>
        <time>2018-08-15T09:48:51.262Z</time>
      </trkpt>
      <trkpt lat="45.58266" lon="4.773">
        <ele>186</ele>
        <time>2018-08-15T09:48:52.243Z</time>
      </trkpt>
      <trkpt lat="45.58266" lon="4.773">
        <ele>186</ele>
        <time>2018-08-15T09:48:53.268Z</time>
      </trkpt>
      <trkpt lat="45.58273" lon="4.77301">
        <ele>186</ele>
        <time>2018-08-15T09:48:54.267Z</time>
      </trkpt>
      <trkpt lat="45.58273" lon="4.77301">
        <ele>186</ele>
        <time>2018-08-15T09:48:55.255Z</time>
      </trkpt>
      <trkpt lat="45.58279" lon="4.77302">
        <ele>186</ele>
        <time>2018-08-15T09:48:56.237Z</time>
      </trkpt>
      <trkpt lat="45.58283" lon="4.77302">
        <ele>186</ele>
        <time>2018-08-15T09:48:57.241Z</time>
      </trkpt>
      <trkpt lat="45.58283" lon="4.77302">
        <ele>186</ele>
        <time>2018-08-15T09:48:58.243Z</time>
      </trkpt>
      <trkpt lat="45.58293" lon="4.77302">
        <ele>186</ele>
        <time>2018-08-15T09:48:59.271Z</time>
      </trkpt>
      <trkpt lat="45.58293" lon="4.77302">
        <ele>186</ele>
        <time>2018-08-15T09:49:00.238Z</time>
      </trkpt>
      <trkpt lat="45.58303" lon="4.773">
        <ele>188</ele>
        <time>2018-08-15T09:49:01.241Z</time>
      </trkpt>
      <trkpt lat="45.58307" lon="4.773">
        <ele>189</ele>
        <time>2018-08-15T09:49:02.247Z</time>
      </trkpt>
      <trkpt lat="45.58307" lon="4.773">
        <ele>189</ele>
        <time>2018-08-15T09:49:03.259Z</time>
      </trkpt>
      <trkpt lat="45.58314" lon="4.773">
        <ele>188</ele>
        <time>2018-08-15T09:49:04.248Z</time>
      </trkpt>
      <trkpt lat="45.58314" lon="4.773">
        <ele>188</ele>
        <time>2018-08-15T09:49:05.265Z</time>
      </trkpt>
      <trkpt lat="45.5832" lon="4.77301">
        <ele>187</ele>
        <time>2018-08-15T09:49:06.265Z</time>
      </trkpt>
      <trkpt lat="45.58325" lon="4.77302">
        <ele>187</ele>
        <time>2018-08-15T09:49:07.239Z</time>
      </trkpt>
      <trkpt lat="45.58329" lon="4.77304">
        <ele>187</ele>
        <time>2018-08-15T09:49:08.257Z</time>
      </trkpt>
      <trkpt lat="45.58329" lon="4.77304">
        <ele>187</ele>
        <time>2018-08-15T09:49:09.239Z</time>
      </trkpt>
      <trkpt lat="45.58337" lon="4.77309">
        <ele>187</ele>
        <time>2018-08-15T09:49:10.237Z</time>
      </trkpt>
      <trkpt lat="45.58337" lon="4.77309">
        <ele>187</ele>
        <time>2018-08-15T09:49:11.256Z</time>
      </trkpt>
      <trkpt lat="45.58345" lon="4.77311">
        <ele>187</ele>
        <time>2018-08-15T09:49:12.250Z</time>
      </trkpt>
      <trkpt lat="45.58345" lon="4.77311">
        <ele>187</ele>
        <time>2018-08-15T09:49:13.255Z</time>
      </trkpt>
      <trkpt lat="45.58354" lon="4.77316">
        <ele>186</ele>
        <time>2018-08-15T09:49:14.245Z</time>
      </trkpt>
      <trkpt lat="45.58354" lon="4.77316">
        <ele>186</ele>
        <time>2018-08-15T09:49:15.270Z</time>
      </trkpt>
      <trkpt lat="45.58363" lon="4.77322">
        <ele>186</ele>
        <time>2018-08-15T09:49:16.236Z</time>
      </trkpt>
      <trkpt lat="45.58363" lon="4.77322">
        <ele>186</ele>
        <time>2018-08-15T09:49:17.242Z</time>
      </trkpt>
      <trkpt lat="45.58374" lon="4.77332">
        <ele>185</ele>
        <time>2018-08-15T09:49:18.241Z</time>
      </trkpt>
      <trkpt lat="45.58374" lon="4.77332">
        <ele>185</ele>
        <time>2018-08-15T09:49:19.261Z</time>
      </trkpt>
      <trkpt lat="45.58383" lon="4.77339">
        <ele>185</ele>
        <time>2018-08-15T09:49:20.258Z</time>
      </trkpt>
      <trkpt lat="45.58383" lon="4.77339">
        <ele>185</ele>
        <time>2018-08-15T09:49:21.266Z</time>
      </trkpt>
      <trkpt lat="45.58392" lon="4.77346">
        <ele>184</ele>
        <time>2018-08-15T09:49:22.264Z</time>
      </trkpt>
      <trkpt lat="45.58392" lon="4.77346">
        <ele>184</ele>
        <time>2018-08-15T09:49:23.247Z</time>
      </trkpt>
      <trkpt lat="45.58402" lon="4.77353">
        <ele>184</ele>
        <time>2018-08-15T09:49:24.236Z</time>
      </trkpt>
      <trkpt lat="45.58402" lon="4.77353">
        <ele>184</ele>
        <time>2018-08-15T09:49:25.241Z</time>
      </trkpt>
      <trkpt lat="45.58412" lon="4.7736">
        <ele>184</ele>
        <time>2018-08-15T09:49:26.246Z</time>
      </trkpt>
      <trkpt lat="45.58412" lon="4.7736">
        <ele>184</ele>
        <time>2018-08-15T09:49:27.239Z</time>
      </trkpt>
      <trkpt lat="45.58421" lon="4.77366">
        <ele>184</ele>
        <time>2018-08-15T09:49:28.270Z</time>
      </trkpt>
      <trkpt lat="45.58421" lon="4.77366">
        <ele>184</ele>
        <time>2018-08-15T09:49:29.251Z</time>
      </trkpt>
      <trkpt lat="45.58431" lon="4.77371">
        <ele>184</ele>
        <time>2018-08-15T09:49:30.249Z</time>
      </trkpt>
      <trkpt lat="45.58431" lon="4.77371">
        <ele>184</ele>
        <time>2018-08-15T09:49:31.268Z</time>
      </trkpt>
      <trkpt lat="45.5844" lon="4.77377">
        <ele>183</ele>
        <time>2018-08-15T09:49:32.235Z</time>
      </trkpt>
      <trkpt lat="45.5844" lon="4.77377">
        <ele>183</ele>
        <time>2018-08-15T09:49:33.269Z</time>
      </trkpt>
      <trkpt lat="45.58447" lon="4.77382">
        <ele>183</ele>
        <time>2018-08-15T09:49:34.276Z</time>
      </trkpt>
      <trkpt lat="45.58447" lon="4.77382">
        <ele>183</ele>
        <time>2018-08-15T09:49:35.250Z</time>
      </trkpt>
      <trkpt lat="45.58451" lon="4.77386">
        <ele>182</ele>
        <time>2018-08-15T09:49:36.252Z</time>
      </trkpt>
      <trkpt lat="45.58451" lon="4.77386">
        <ele>182</ele>
        <time>2018-08-15T09:49:37.257Z</time>
      </trkpt>
      <trkpt lat="45.58459" lon="4.77391">
        <ele>181</ele>
        <time>2018-08-15T09:49:38.249Z</time>
      </trkpt>
      <trkpt lat="45.58459" lon="4.77391">
        <ele>181</ele>
        <time>2018-08-15T09:49:39.240Z</time>
      </trkpt>
      <trkpt lat="45.58467" lon="4.77398">
        <ele>180</ele>
        <time>2018-08-15T09:49:40.246Z</time>
      </trkpt>
      <trkpt lat="45.58467" lon="4.77398">
        <ele>180</ele>
        <time>2018-08-15T09:49:41.250Z</time>
      </trkpt>
      <trkpt lat="45.58476" lon="4.77403">
        <ele>180</ele>
        <time>2018-08-15T09:49:42.246Z</time>
      </trkpt>
      <trkpt lat="45.58476" lon="4.77403">
        <ele>180</ele>
        <time>2018-08-15T09:49:43.236Z</time>
      </trkpt>
      <trkpt lat="45.58485" lon="4.77408">
        <ele>179</ele>
        <time>2018-08-15T09:49:44.232Z</time>
      </trkpt>
      <trkpt lat="45.58485" lon="4.77408">
        <ele>179</ele>
        <time>2018-08-15T09:49:45.244Z</time>
      </trkpt>
      <trkpt lat="45.58491" lon="4.77412">
        <ele>179</ele>
        <time>2018-08-15T09:49:46.273Z</time>
      </trkpt>
      <trkpt lat="45.58491" lon="4.77412">
        <ele>179</ele>
        <time>2018-08-15T09:49:47.238Z</time>
      </trkpt>
      <trkpt lat="45.58499" lon="4.77417">
        <ele>178</ele>
        <time>2018-08-15T09:49:48.248Z</time>
      </trkpt>
      <trkpt lat="45.58499" lon="4.77417">
        <ele>178</ele>
        <time>2018-08-15T09:49:49.258Z</time>
      </trkpt>
      <trkpt lat="45.58507" lon="4.77422">
        <ele>177</ele>
        <time>2018-08-15T09:49:50.247Z</time>
      </trkpt>
      <trkpt lat="45.58507" lon="4.77422">
        <ele>177</ele>
        <time>2018-08-15T09:49:51.256Z</time>
      </trkpt>
      <trkpt lat="45.58515" lon="4.77428">
        <ele>176</ele>
        <time>2018-08-15T09:49:52.265Z</time>
      </trkpt>
      <trkpt lat="45.58515" lon="4.77428">
        <ele>176</ele>
        <time>2018-08-15T09:49:53.249Z</time>
      </trkpt>
      <trkpt lat="45.58523" lon="4.77434">
        <ele>175</ele>
        <time>2018-08-15T09:49:54.234Z</time>
      </trkpt>
      <trkpt lat="45.58523" lon="4.77434">
        <ele>175</ele>
        <time>2018-08-15T09:49:55.263Z</time>
      </trkpt>
      <trkpt lat="45.5853" lon="4.77438">
        <ele>173</ele>
        <time>2018-08-15T09:49:56.260Z</time>
      </trkpt>
      <trkpt lat="45.5853" lon="4.77438">
        <ele>173</ele>
        <time>2018-08-15T09:49:57.256Z</time>
      </trkpt>
      <trkpt lat="45.58536" lon="4.77442">
        <ele>172</ele>
        <time>2018-08-15T09:49:58.243Z</time>
      </trkpt>
      <trkpt lat="45.58536" lon="4.77442">
        <ele>172</ele>
        <time>2018-08-15T09:49:59.263Z</time>
      </trkpt>
      <trkpt lat="45.58542" lon="4.77447">
        <ele>171</ele>
        <time>2018-08-15T09:50:00.256Z</time>
      </trkpt>
      <trkpt lat="45.58542" lon="4.77447">
        <ele>171</ele>
        <time>2018-08-15T09:50:01.262Z</time>
      </trkpt>
      <trkpt lat="45.58544" lon="4.77456">
        <ele>170</ele>
        <time>2018-08-15T09:50:02.276Z</time>
      </trkpt>
      <trkpt lat="45.58544" lon="4.77456">
        <ele>170</ele>
        <time>2018-08-15T09:50:03.247Z</time>
      </trkpt>
      <trkpt lat="45.58546" lon="4.77464">
        <ele>171</ele>
        <time>2018-08-15T09:50:04.233Z</time>
      </trkpt>
      <trkpt lat="45.58546" lon="4.77464">
        <ele>171</ele>
        <time>2018-08-15T09:50:05.269Z</time>
      </trkpt>
      <trkpt lat="45.58545" lon="4.77471">
        <ele>170</ele>
        <time>2018-08-15T09:50:06.246Z</time>
      </trkpt>
      <trkpt lat="45.58545" lon="4.77471">
        <ele>170</ele>
        <time>2018-08-15T09:50:07.263Z</time>
      </trkpt>
      <trkpt lat="45.5854" lon="4.77479">
        <ele>171</ele>
        <time>2018-08-15T09:50:08.265Z</time>
      </trkpt>
      <trkpt lat="45.5854" lon="4.77479">
        <ele>171</ele>
        <time>2018-08-15T09:50:09.235Z</time>
      </trkpt>
      <trkpt lat="45.58535" lon="4.77489">
        <ele>170</ele>
        <time>2018-08-15T09:50:10.238Z</time>
      </trkpt>
      <trkpt lat="45.58535" lon="4.77489">
        <ele>170</ele>
        <time>2018-08-15T09:50:11.270Z</time>
      </trkpt>
      <trkpt lat="45.58529" lon="4.77499">
        <ele>170</ele>
        <time>2018-08-15T09:50:12.252Z</time>
      </trkpt>
      <trkpt lat="45.58529" lon="4.77499">
        <ele>170</ele>
        <time>2018-08-15T09:50:13.270Z</time>
      </trkpt>
      <trkpt lat="45.58522" lon="4.7751">
        <ele>170</ele>
        <time>2018-08-15T09:50:14.236Z</time>
      </trkpt>
      <trkpt lat="45.58522" lon="4.7751">
        <ele>170</ele>
        <time>2018-08-15T09:50:15.256Z</time>
      </trkpt>
      <trkpt lat="45.58515" lon="4.77521">
        <ele>170</ele>
        <time>2018-08-15T09:50:16.236Z</time>
      </trkpt>
      <trkpt lat="45.58515" lon="4.77521">
        <ele>170</ele>
        <time>2018-08-15T09:50:17.247Z</time>
      </trkpt>
      <trkpt lat="45.58508" lon="4.77533">
        <ele>169</ele>
        <time>2018-08-15T09:50:18.246Z</time>
      </trkpt>
      <trkpt lat="45.58508" lon="4.77533">
        <ele>169</ele>
        <time>2018-08-15T09:50:19.239Z</time>
      </trkpt>
      <trkpt lat="45.585" lon="4.77545">
        <ele>168</ele>
        <time>2018-08-15T09:50:20.242Z</time>
      </trkpt>
      <trkpt lat="45.585" lon="4.77545">
        <ele>168</ele>
        <time>2018-08-15T09:50:21.233Z</time>
      </trkpt>
      <trkpt lat="45.58492" lon="4.77557">
        <ele>168</ele>
        <time>2018-08-15T09:50:22.234Z</time>
      </trkpt>
      <trkpt lat="45.58492" lon="4.77557">
        <ele>168</ele>
        <time>2018-08-15T09:50:23.249Z</time>
      </trkpt>
      <trkpt lat="45.58484" lon="4.77569">
        <ele>167</ele>
        <time>2018-08-15T09:50:24.268Z</time>
      </trkpt>
      <trkpt lat="45.58484" lon="4.77569">
        <ele>167</ele>
        <time>2018-08-15T09:50:25.264Z</time>
      </trkpt>
      <trkpt lat="45.58476" lon="4.77581">
        <ele>166</ele>
        <time>2018-08-15T09:50:26.256Z</time>
      </trkpt>
      <trkpt lat="45.58476" lon="4.77581">
        <ele>166</ele>
        <time>2018-08-15T09:50:27.266Z</time>
      </trkpt>
      <trkpt lat="45.58469" lon="4.77592">
        <ele>166</ele>
        <time>2018-08-15T09:50:28.253Z</time>
      </trkpt>
      <trkpt lat="45.58466" lon="4.77597">
        <ele>165</ele>
        <time>2018-08-15T09:50:29.269Z</time>
      </trkpt>
      <trkpt lat="45.58466" lon="4.77597">
        <ele>165</ele>
        <time>2018-08-15T09:50:30.248Z</time>
      </trkpt>
      <trkpt lat="45.58458" lon="4.77607">
        <ele>165</ele>
        <time>2018-08-15T09:50:31.262Z</time>
      </trkpt>
      <trkpt lat="45.58454" lon="4.77612">
        <ele>165</ele>
        <time>2018-08-15T09:50:32.266Z</time>
      </trkpt>
      <trkpt lat="45.58454" lon="4.77612">
        <ele>165</ele>
        <time>2018-08-15T09:50:33.237Z</time>
      </trkpt>
      <trkpt lat="45.58445" lon="4.77619">
        <ele>164</ele>
        <time>2018-08-15T09:50:34.266Z</time>
      </trkpt>
      <trkpt lat="45.58445" lon="4.77619">
        <ele>164</ele>
        <time>2018-08-15T09:50:35.232Z</time>
      </trkpt>
      <trkpt lat="45.58435" lon="4.77627">
        <ele>164</ele>
        <time>2018-08-15T09:50:36.263Z</time>
      </trkpt>
      <trkpt lat="45.5843" lon="4.77631">
        <ele>165</ele>
        <time>2018-08-15T09:50:37.242Z</time>
      </trkpt>
      <trkpt lat="45.58425" lon="4.77636">
        <ele>165</ele>
        <time>2018-08-15T09:50:38.264Z</time>
      </trkpt>
      <trkpt lat="45.58425" lon="4.77636">
        <ele>165</ele>
        <time>2018-08-15T09:50:39.265Z</time>
      </trkpt>
      <trkpt lat="45.58414" lon="4.77646">
        <ele>165</ele>
        <time>2018-08-15T09:50:40.268Z</time>
      </trkpt>
      <trkpt lat="45.58414" lon="4.77646">
        <ele>165</ele>
        <time>2018-08-15T09:50:41.233Z</time>
      </trkpt>
      <trkpt lat="45.58403" lon="4.77655">
        <ele>164</ele>
        <time>2018-08-15T09:50:42.272Z</time>
      </trkpt>
      <trkpt lat="45.58403" lon="4.77655">
        <ele>164</ele>
        <time>2018-08-15T09:50:43.238Z</time>
      </trkpt>
      <trkpt lat="45.58392" lon="4.77661">
        <ele>164</ele>
        <time>2018-08-15T09:50:44.265Z</time>
      </trkpt>
      <trkpt lat="45.58392" lon="4.77661">
        <ele>164</ele>
        <time>2018-08-15T09:50:45.239Z</time>
      </trkpt>
      <trkpt lat="45.58381" lon="4.77666">
        <ele>163</ele>
        <time>2018-08-15T09:50:46.246Z</time>
      </trkpt>
      <trkpt lat="45.58381" lon="4.77666">
        <ele>163</ele>
        <time>2018-08-15T09:50:47.263Z</time>
      </trkpt>
      <trkpt lat="45.58371" lon="4.77671">
        <ele>163</ele>
        <time>2018-08-15T09:50:48.242Z</time>
      </trkpt>
      <trkpt lat="45.58371" lon="4.77671">
        <ele>163</ele>
        <time>2018-08-15T09:50:49.262Z</time>
      </trkpt>
      <trkpt lat="45.58361" lon="4.77675">
        <ele>163</ele>
        <time>2018-08-15T09:50:50.256Z</time>
      </trkpt>
      <trkpt lat="45.58361" lon="4.77675">
        <ele>163</ele>
        <time>2018-08-15T09:50:51.254Z</time>
      </trkpt>
      <trkpt lat="45.58351" lon="4.77679">
        <ele>162</ele>
        <time>2018-08-15T09:50:52.251Z</time>
      </trkpt>
      <trkpt lat="45.58351" lon="4.77679">
        <ele>162</ele>
        <time>2018-08-15T09:50:53.268Z</time>
      </trkpt>
      <trkpt lat="45.58343" lon="4.77683">
        <ele>162</ele>
        <time>2018-08-15T09:50:54.249Z</time>
      </trkpt>
      <trkpt lat="45.58343" lon="4.77683">
        <ele>162</ele>
        <time>2018-08-15T09:50:55.232Z</time>
      </trkpt>
      <trkpt lat="45.58335" lon="4.77686">
        <ele>162</ele>
        <time>2018-08-15T09:50:56.268Z</time>
      </trkpt>
      <trkpt lat="45.58335" lon="4.77686">
        <ele>162</ele>
        <time>2018-08-15T09:50:57.262Z</time>
      </trkpt>
      <trkpt lat="45.58328" lon="4.7769">
        <ele>162</ele>
        <time>2018-08-15T09:50:58.261Z</time>
      </trkpt>
      <trkpt lat="45.58328" lon="4.7769">
        <ele>162</ele>
        <time>2018-08-15T09:50:59.254Z</time>
      </trkpt>
      <trkpt lat="45.58322" lon="4.77692">
        <ele>162</ele>
        <time>2018-08-15T09:51:00.250Z</time>
      </trkpt>
      <trkpt lat="45.58322" lon="4.77692">
        <ele>162</ele>
        <time>2018-08-15T09:51:01.256Z</time>
      </trkpt>
      <trkpt lat="45.58317" lon="4.77693">
        <ele>162</ele>
        <time>2018-08-15T09:51:02.253Z</time>
      </trkpt>
      <trkpt lat="45.58317" lon="4.77693">
        <ele>162</ele>
        <time>2018-08-15T09:51:03.233Z</time>
      </trkpt>
      <trkpt lat="45.58308" lon="4.77701">
        <ele>164</ele>
        <time>2018-08-15T09:51:04.264Z</time>
      </trkpt>
      <trkpt lat="45.58308" lon="4.77701">
        <ele>164</ele>
        <time>2018-08-15T09:51:05.246Z</time>
      </trkpt>
      <trkpt lat="45.583" lon="4.77705">
        <ele>164</ele>
        <time>2018-08-15T09:51:06.247Z</time>
      </trkpt>
      <trkpt lat="45.583" lon="4.77705">
        <ele>164</ele>
        <time>2018-08-15T09:51:07.271Z</time>
      </trkpt>
      <trkpt lat="45.5829" lon="4.77709">
        <ele>165</ele>
        <time>2018-08-15T09:51:08.265Z</time>
      </trkpt>
      <trkpt lat="45.5829" lon="4.77709">
        <ele>165</ele>
        <time>2018-08-15T09:51:09.233Z</time>
      </trkpt>
      <trkpt lat="45.5828" lon="4.77715">
        <ele>166</ele>
        <time>2018-08-15T09:51:10.268Z</time>
      </trkpt>
      <trkpt lat="45.5828" lon="4.77715">
        <ele>166</ele>
        <time>2018-08-15T09:51:11.251Z</time>
      </trkpt>
      <trkpt lat="45.5827" lon="4.77722">
        <ele>166</ele>
        <time>2018-08-15T09:51:12.236Z</time>
      </trkpt>
      <trkpt lat="45.58265" lon="4.77725">
        <ele>166</ele>
        <time>2018-08-15T09:51:13.250Z</time>
      </trkpt>
      <trkpt lat="45.58265" lon="4.77725">
        <ele>166</ele>
        <time>2018-08-15T09:51:14.254Z</time>
      </trkpt>
      <trkpt lat="45.58257" lon="4.77734">
        <ele>167</ele>
        <time>2018-08-15T09:51:15.254Z</time>
      </trkpt>
      <trkpt lat="45.58253" lon="4.77738">
        <ele>167</ele>
        <time>2018-08-15T09:51:16.258Z</time>
      </trkpt>
      <trkpt lat="45.58253" lon="4.77738">
        <ele>167</ele>
        <time>2018-08-15T09:51:17.270Z</time>
      </trkpt>
      <trkpt lat="45.58244" lon="4.77746">
        <ele>167</ele>
        <time>2018-08-15T09:51:18.269Z</time>
      </trkpt>
      <trkpt lat="45.58244" lon="4.77746">
        <ele>167</ele>
        <time>2018-08-15T09:51:19.240Z</time>
      </trkpt>
      <trkpt lat="45.58236" lon="4.77752">
        <ele>167</ele>
        <time>2018-08-15T09:51:20.240Z</time>
      </trkpt>
      <trkpt lat="45.58236" lon="4.77752">
        <ele>167</ele>
        <time>2018-08-15T09:51:21.243Z</time>
      </trkpt>
      <trkpt lat="45.58226" lon="4.77758">
        <ele>168</ele>
        <time>2018-08-15T09:51:22.241Z</time>
      </trkpt>
      <trkpt lat="45.58226" lon="4.77758">
        <ele>168</ele>
        <time>2018-08-15T09:51:23.258Z</time>
      </trkpt>
      <trkpt lat="45.58217" lon="4.77767">
        <ele>169</ele>
        <time>2018-08-15T09:51:24.256Z</time>
      </trkpt>
      <trkpt lat="45.58217" lon="4.77767">
        <ele>169</ele>
        <time>2018-08-15T09:51:25.249Z</time>
      </trkpt>
      <trkpt lat="45.58207" lon="4.77775">
        <ele>169</ele>
        <time>2018-08-15T09:51:26.249Z</time>
      </trkpt>
      <trkpt lat="45.58207" lon="4.77775">
        <ele>169</ele>
        <time>2018-08-15T09:51:27.270Z</time>
      </trkpt>
      <trkpt lat="45.58197" lon="4.77783">
        <ele>170</ele>
        <time>2018-08-15T09:51:28.261Z</time>
      </trkpt>
      <trkpt lat="45.58197" lon="4.77783">
        <ele>170</ele>
        <time>2018-08-15T09:51:29.267Z</time>
      </trkpt>
      <trkpt lat="45.58187" lon="4.7779">
        <ele>170</ele>
        <time>2018-08-15T09:51:30.254Z</time>
      </trkpt>
      <trkpt lat="45.58187" lon="4.7779">
        <ele>170</ele>
        <time>2018-08-15T09:51:31.239Z</time>
      </trkpt>
      <trkpt lat="45.58178" lon="4.77797">
        <ele>170</ele>
        <time>2018-08-15T09:51:32.270Z</time>
      </trkpt>
      <trkpt lat="45.58178" lon="4.77797">
        <ele>170</ele>
        <time>2018-08-15T09:51:33.248Z</time>
      </trkpt>
      <trkpt lat="45.58168" lon="4.77802">
        <ele>169</ele>
        <time>2018-08-15T09:51:34.246Z</time>
      </trkpt>
      <trkpt lat="45.58168" lon="4.77802">
        <ele>169</ele>
        <time>2018-08-15T09:51:35.270Z</time>
      </trkpt>
      <trkpt lat="45.5816" lon="4.77806">
        <ele>170</ele>
        <time>2018-08-15T09:51:36.298Z</time>
      </trkpt>
      <trkpt lat="45.58156" lon="4.77808">
        <ele>170</ele>
        <time>2018-08-15T09:51:37.247Z</time>
      </trkpt>
      <trkpt lat="45.58152" lon="4.77811">
        <ele>170</ele>
        <time>2018-08-15T09:51:38.258Z</time>
      </trkpt>
      <trkpt lat="45.58152" lon="4.77811">
        <ele>170</ele>
        <time>2018-08-15T09:51:39.249Z</time>
      </trkpt>
      <trkpt lat="45.58143" lon="4.77815">
        <ele>170</ele>
        <time>2018-08-15T09:51:40.262Z</time>
      </trkpt>
      <trkpt lat="45.58143" lon="4.77815">
        <ele>170</ele>
        <time>2018-08-15T09:51:41.267Z</time>
      </trkpt>
      <trkpt lat="45.58135" lon="4.77817">
        <ele>170</ele>
        <time>2018-08-15T09:51:42.251Z</time>
      </trkpt>
      <trkpt lat="45.58135" lon="4.77817">
        <ele>170</ele>
        <time>2018-08-15T09:51:43.239Z</time>
      </trkpt>
      <trkpt lat="45.58127" lon="4.77822">
        <ele>169</ele>
        <time>2018-08-15T09:51:44.266Z</time>
      </trkpt>
      <trkpt lat="45.58127" lon="4.77822">
        <ele>169</ele>
        <time>2018-08-15T09:51:45.232Z</time>
      </trkpt>
      <trkpt lat="45.58118" lon="4.77826">
        <ele>169</ele>
        <time>2018-08-15T09:51:46.257Z</time>
      </trkpt>
      <trkpt lat="45.58118" lon="4.77826">
        <ele>169</ele>
        <time>2018-08-15T09:51:47.239Z</time>
      </trkpt>
      <trkpt lat="45.58107" lon="4.77834">
        <ele>170</ele>
        <time>2018-08-15T09:51:48.232Z</time>
      </trkpt>
      <trkpt lat="45.58107" lon="4.77834">
        <ele>170</ele>
        <time>2018-08-15T09:51:49.240Z</time>
      </trkpt>
      <trkpt lat="45.58096" lon="4.77844">
        <ele>171</ele>
        <time>2018-08-15T09:51:50.236Z</time>
      </trkpt>
      <trkpt lat="45.58096" lon="4.77844">
        <ele>171</ele>
        <time>2018-08-15T09:51:51.269Z</time>
      </trkpt>
      <trkpt lat="45.58085" lon="4.77854">
        <ele>171</ele>
        <time>2018-08-15T09:51:52.264Z</time>
      </trkpt>
      <trkpt lat="45.58085" lon="4.77854">
        <ele>171</ele>
        <time>2018-08-15T09:51:53.257Z</time>
      </trkpt>
      <trkpt lat="45.5808" lon="4.77867">
        <ele>172</ele>
        <time>2018-08-15T09:51:54.243Z</time>
      </trkpt>
      <trkpt lat="45.5808" lon="4.77867">
        <ele>172</ele>
        <time>2018-08-15T09:51:55.249Z</time>
      </trkpt>
      <trkpt lat="45.58083" lon="4.77879">
        <ele>174</ele>
        <time>2018-08-15T09:51:56.247Z</time>
      </trkpt>
      <trkpt lat="45.58083" lon="4.77879">
        <ele>174</ele>
        <time>2018-08-15T09:51:57.271Z</time>
      </trkpt>
      <trkpt lat="45.58089" lon="4.77888">
        <ele>175</ele>
        <time>2018-08-15T09:51:58.237Z</time>
      </trkpt>
      <trkpt lat="45.58089" lon="4.77888">
        <ele>175</ele>
        <time>2018-08-15T09:51:59.248Z</time>
      </trkpt>
      <trkpt lat="45.58096" lon="4.77898">
        <ele>175</ele>
        <time>2018-08-15T09:52:00.236Z</time>
      </trkpt>
      <trkpt lat="45.58096" lon="4.77898">
        <ele>175</ele>
        <time>2018-08-15T09:52:01.262Z</time>
      </trkpt>
      <trkpt lat="45.58101" lon="4.77906">
        <ele>175</ele>
        <time>2018-08-15T09:52:02.258Z</time>
      </trkpt>
      <trkpt lat="45.58101" lon="4.77906">
        <ele>175</ele>
        <time>2018-08-15T09:52:03.234Z</time>
      </trkpt>
      <trkpt lat="45.58108" lon="4.77917">
        <ele>175</ele>
        <time>2018-08-15T09:52:04.246Z</time>
      </trkpt>
      <trkpt lat="45.58108" lon="4.77917">
        <ele>175</ele>
        <time>2018-08-15T09:52:05.260Z</time>
      </trkpt>
      <trkpt lat="45.58114" lon="4.77932">
        <ele>175</ele>
        <time>2018-08-15T09:52:06.256Z</time>
      </trkpt>
      <trkpt lat="45.58114" lon="4.77932">
        <ele>175</ele>
        <time>2018-08-15T09:52:07.241Z</time>
      </trkpt>
      <trkpt lat="45.58121" lon="4.77941">
        <ele>174</ele>
        <time>2018-08-15T09:52:08.261Z</time>
      </trkpt>
      <trkpt lat="45.58121" lon="4.77941">
        <ele>174</ele>
        <time>2018-08-15T09:52:09.247Z</time>
      </trkpt>
      <trkpt lat="45.58127" lon="4.77949">
        <ele>174</ele>
        <time>2018-08-15T09:52:10.266Z</time>
      </trkpt>
      <trkpt lat="45.5813" lon="4.77953">
        <ele>175</ele>
        <time>2018-08-15T09:52:11.266Z</time>
      </trkpt>
      <trkpt lat="45.5813" lon="4.77953">
        <ele>175</ele>
        <time>2018-08-15T09:52:12.268Z</time>
      </trkpt>
      <trkpt lat="45.58136" lon="4.77961">
        <ele>175</ele>
        <time>2018-08-15T09:52:13.236Z</time>
      </trkpt>
      <trkpt lat="45.58136" lon="4.77961">
        <ele>175</ele>
        <time>2018-08-15T09:52:14.257Z</time>
      </trkpt>
      <trkpt lat="45.58142" lon="4.77971">
        <ele>174</ele>
        <time>2018-08-15T09:52:15.266Z</time>
      </trkpt>
      <trkpt lat="45.58142" lon="4.77971">
        <ele>174</ele>
        <time>2018-08-15T09:52:16.238Z</time>
      </trkpt>
      <trkpt lat="45.58147" lon="4.77978">
        <ele>174</ele>
        <time>2018-08-15T09:52:17.272Z</time>
      </trkpt>
      <trkpt lat="45.58147" lon="4.77978">
        <ele>174</ele>
        <time>2018-08-15T09:52:18.236Z</time>
      </trkpt>
      <trkpt lat="45.58152" lon="4.77984">
        <ele>174</ele>
        <time>2018-08-15T09:52:19.271Z</time>
      </trkpt>
      <trkpt lat="45.58154" lon="4.77987">
        <ele>175</ele>
        <time>2018-08-15T09:52:20.233Z</time>
      </trkpt>
      <trkpt lat="45.58154" lon="4.77987">
        <ele>175</ele>
        <time>2018-08-15T09:52:21.236Z</time>
      </trkpt>
      <trkpt lat="45.58161" lon="4.77997">
        <ele>175</ele>
        <time>2018-08-15T09:52:22.262Z</time>
      </trkpt>
      <trkpt lat="45.58161" lon="4.77997">
        <ele>175</ele>
        <time>2018-08-15T09:52:23.264Z</time>
      </trkpt>
      <trkpt lat="45.58167" lon="4.78008">
        <ele>175</ele>
        <time>2018-08-15T09:52:24.276Z</time>
      </trkpt>
      <trkpt lat="45.58167" lon="4.78008">
        <ele>175</ele>
        <time>2018-08-15T09:52:25.248Z</time>
      </trkpt>
      <trkpt lat="45.58174" lon="4.78019">
        <ele>174</ele>
        <time>2018-08-15T09:52:26.235Z</time>
      </trkpt>
      <trkpt lat="45.58174" lon="4.78019">
        <ele>174</ele>
        <time>2018-08-15T09:52:27.236Z</time>
      </trkpt>
      <trkpt lat="45.58182" lon="4.78029">
        <ele>174</ele>
        <time>2018-08-15T09:52:28.273Z</time>
      </trkpt>
      <trkpt lat="45.58182" lon="4.78029">
        <ele>174</ele>
        <time>2018-08-15T09:52:29.234Z</time>
      </trkpt>
      <trkpt lat="45.58189" lon="4.78041">
        <ele>174</ele>
        <time>2018-08-15T09:52:30.266Z</time>
      </trkpt>
      <trkpt lat="45.58189" lon="4.78041">
        <ele>174</ele>
        <time>2018-08-15T09:52:31.243Z</time>
      </trkpt>
      <trkpt lat="45.58197" lon="4.78052">
        <ele>174</ele>
        <time>2018-08-15T09:52:32.236Z</time>
      </trkpt>
      <trkpt lat="45.58197" lon="4.78052">
        <ele>174</ele>
        <time>2018-08-15T09:52:33.259Z</time>
      </trkpt>
      <trkpt lat="45.58206" lon="4.78064">
        <ele>174</ele>
        <time>2018-08-15T09:52:34.247Z</time>
      </trkpt>
      <trkpt lat="45.58206" lon="4.78064">
        <ele>174</ele>
        <time>2018-08-15T09:52:35.250Z</time>
      </trkpt>
      <trkpt lat="45.58216" lon="4.78077">
        <ele>173</ele>
        <time>2018-08-15T09:52:36.249Z</time>
      </trkpt>
      <trkpt lat="45.58216" lon="4.78077">
        <ele>173</ele>
        <time>2018-08-15T09:52:37.243Z</time>
      </trkpt>
      <trkpt lat="45.58225" lon="4.78091">
        <ele>173</ele>
        <time>2018-08-15T09:52:38.276Z</time>
      </trkpt>
      <trkpt lat="45.58225" lon="4.78091">
        <ele>173</ele>
        <time>2018-08-15T09:52:39.257Z</time>
      </trkpt>
      <trkpt lat="45.58235" lon="4.78105">
        <ele>172</ele>
        <time>2018-08-15T09:52:40.247Z</time>
      </trkpt>
      <trkpt lat="45.58235" lon="4.78105">
        <ele>172</ele>
        <time>2018-08-15T09:52:41.256Z</time>
      </trkpt>
      <trkpt lat="45.58244" lon="4.78119">
        <ele>172</ele>
        <time>2018-08-15T09:52:42.240Z</time>
      </trkpt>
      <trkpt lat="45.58244" lon="4.78119">
        <ele>172</ele>
        <time>2018-08-15T09:52:43.259Z</time>
      </trkpt>
      <trkpt lat="45.58254" lon="4.78133">
        <ele>171</ele>
        <time>2018-08-15T09:52:44.246Z</time>
      </trkpt>
      <trkpt lat="45.58254" lon="4.78133">
        <ele>171</ele>
        <time>2018-08-15T09:52:45.257Z</time>
      </trkpt>
      <trkpt lat="45.58264" lon="4.78148">
        <ele>171</ele>
        <time>2018-08-15T09:52:46.261Z</time>
      </trkpt>
      <trkpt lat="45.58264" lon="4.78148">
        <ele>171</ele>
        <time>2018-08-15T09:52:47.266Z</time>
      </trkpt>
      <trkpt lat="45.58276" lon="4.78163">
        <ele>170</ele>
        <time>2018-08-15T09:52:48.235Z</time>
      </trkpt>
      <trkpt lat="45.58276" lon="4.78163">
        <ele>170</ele>
        <time>2018-08-15T09:52:49.246Z</time>
      </trkpt>
      <trkpt lat="45.58287" lon="4.78178">
        <ele>170</ele>
        <time>2018-08-15T09:52:50.235Z</time>
      </trkpt>
      <trkpt lat="45.58287" lon="4.78178">
        <ele>170</ele>
        <time>2018-08-15T09:52:51.238Z</time>
      </trkpt>
      <trkpt lat="45.58296" lon="4.78192">
        <ele>170</ele>
        <time>2018-08-15T09:52:52.235Z</time>
      </trkpt>
      <trkpt lat="45.58296" lon="4.78192">
        <ele>170</ele>
        <time>2018-08-15T09:52:53.241Z</time>
      </trkpt>
      <trkpt lat="45.58307" lon="4.78205">
        <ele>170</ele>
        <time>2018-08-15T09:52:54.252Z</time>
      </trkpt>
      <trkpt lat="45.58307" lon="4.78205">
        <ele>170</ele>
        <time>2018-08-15T09:52:55.250Z</time>
      </trkpt>
      <trkpt lat="45.58316" lon="4.78219">
        <ele>169</ele>
        <time>2018-08-15T09:52:56.235Z</time>
      </trkpt>
      <trkpt lat="45.58316" lon="4.78219">
        <ele>169</ele>
        <time>2018-08-15T09:52:57.265Z</time>
      </trkpt>
      <trkpt lat="45.58326" lon="4.78232">
        <ele>169</ele>
        <time>2018-08-15T09:52:58.255Z</time>
      </trkpt>
      <trkpt lat="45.58326" lon="4.78232">
        <ele>169</ele>
        <time>2018-08-15T09:52:59.264Z</time>
      </trkpt>
      <trkpt lat="45.58334" lon="4.78244">
        <ele>168</ele>
        <time>2018-08-15T09:53:00.270Z</time>
      </trkpt>
      <trkpt lat="45.58338" lon="4.7825">
        <ele>168</ele>
        <time>2018-08-15T09:53:01.233Z</time>
      </trkpt>
      <trkpt lat="45.58342" lon="4.78256">
        <ele>167</ele>
        <time>2018-08-15T09:53:02.270Z</time>
      </trkpt>
      <trkpt lat="45.58342" lon="4.78256">
        <ele>167</ele>
        <time>2018-08-15T09:53:03.247Z</time>
      </trkpt>
      <trkpt lat="45.58351" lon="4.78269">
        <ele>167</ele>
        <time>2018-08-15T09:53:04.252Z</time>
      </trkpt>
      <trkpt lat="45.58351" lon="4.78269">
        <ele>167</ele>
        <time>2018-08-15T09:53:05.251Z</time>
      </trkpt>
      <trkpt lat="45.58359" lon="4.78282">
        <ele>166</ele>
        <time>2018-08-15T09:53:06.251Z</time>
      </trkpt>
      <trkpt lat="45.58359" lon="4.78282">
        <ele>166</ele>
        <time>2018-08-15T09:53:07.256Z</time>
      </trkpt>
      <trkpt lat="45.58369" lon="4.78299">
        <ele>166</ele>
        <time>2018-08-15T09:53:08.262Z</time>
      </trkpt>
      <trkpt lat="45.58369" lon="4.78299">
        <ele>166</ele>
        <time>2018-08-15T09:53:09.236Z</time>
      </trkpt>
      <trkpt lat="45.58378" lon="4.78315">
        <ele>166</ele>
        <time>2018-08-15T09:53:10.256Z</time>
      </trkpt>
      <trkpt lat="45.58378" lon="4.78315">
        <ele>166</ele>
        <time>2018-08-15T09:53:11.264Z</time>
      </trkpt>
      <trkpt lat="45.58385" lon="4.78331">
        <ele>166</ele>
        <time>2018-08-15T09:53:12.262Z</time>
      </trkpt>
      <trkpt lat="45.58385" lon="4.78331">
        <ele>166</ele>
        <time>2018-08-15T09:53:13.241Z</time>
      </trkpt>
      <trkpt lat="45.58394" lon="4.7834">
        <ele>166</ele>
        <time>2018-08-15T09:53:14.236Z</time>
      </trkpt>
      <trkpt lat="45.58394" lon="4.7834">
        <ele>166</ele>
        <time>2018-08-15T09:53:15.245Z</time>
      </trkpt>
      <trkpt lat="45.58404" lon="4.78346">
        <ele>166</ele>
        <time>2018-08-15T09:53:16.275Z</time>
      </trkpt>
      <trkpt lat="45.58404" lon="4.78346">
        <ele>166</ele>
        <time>2018-08-15T09:53:17.241Z</time>
      </trkpt>
      <trkpt lat="45.58412" lon="4.78355">
        <ele>165</ele>
        <time>2018-08-15T09:53:18.256Z</time>
      </trkpt>
      <trkpt lat="45.58412" lon="4.78355">
        <ele>165</ele>
        <time>2018-08-15T09:53:19.239Z</time>
      </trkpt>
      <trkpt lat="45.58422" lon="4.78365">
        <ele>165</ele>
        <time>2018-08-15T09:53:20.237Z</time>
      </trkpt>
      <trkpt lat="45.58422" lon="4.78365">
        <ele>165</ele>
        <time>2018-08-15T09:53:21.256Z</time>
      </trkpt>
      <trkpt lat="45.58432" lon="4.78374">
        <ele>165</ele>
        <time>2018-08-15T09:53:22.249Z</time>
      </trkpt>
      <trkpt lat="45.58432" lon="4.78374">
        <ele>165</ele>
        <time>2018-08-15T09:53:23.254Z</time>
      </trkpt>
      <trkpt lat="45.58443" lon="4.78383">
        <ele>165</ele>
        <time>2018-08-15T09:53:24.265Z</time>
      </trkpt>
      <trkpt lat="45.58443" lon="4.78383">
        <ele>165</ele>
        <time>2018-08-15T09:53:25.245Z</time>
      </trkpt>
      <trkpt lat="45.58454" lon="4.7839">
        <ele>165</ele>
        <time>2018-08-15T09:53:26.233Z</time>
      </trkpt>
      <trkpt lat="45.58454" lon="4.7839">
        <ele>165</ele>
        <time>2018-08-15T09:53:27.251Z</time>
      </trkpt>
      <trkpt lat="45.58464" lon="4.78398">
        <ele>164</ele>
        <time>2018-08-15T09:53:28.250Z</time>
      </trkpt>
      <trkpt lat="45.58464" lon="4.78398">
        <ele>164</ele>
        <time>2018-08-15T09:53:29.246Z</time>
      </trkpt>
      <trkpt lat="45.58474" lon="4.78405">
        <ele>164</ele>
        <time>2018-08-15T09:53:30.248Z</time>
      </trkpt>
      <trkpt lat="45.58474" lon="4.78405">
        <ele>164</ele>
        <time>2018-08-15T09:53:31.250Z</time>
      </trkpt>
      <trkpt lat="45.58484" lon="4.78412">
        <ele>164</ele>
        <time>2018-08-15T09:53:32.242Z</time>
      </trkpt>
      <trkpt lat="45.58484" lon="4.78412">
        <ele>164</ele>
        <time>2018-08-15T09:53:33.236Z</time>
      </trkpt>
      <trkpt lat="45.58494" lon="4.78418">
        <ele>164</ele>
        <time>2018-08-15T09:53:34.240Z</time>
      </trkpt>
      <trkpt lat="45.58494" lon="4.78418">
        <ele>164</ele>
        <time>2018-08-15T09:53:35.234Z</time>
      </trkpt>
      <trkpt lat="45.58502" lon="4.78423">
        <ele>165</ele>
        <time>2018-08-15T09:53:36.286Z</time>
      </trkpt>
      <trkpt lat="45.58506" lon="4.78426">
        <ele>166</ele>
        <time>2018-08-15T09:53:37.233Z</time>
      </trkpt>
      <trkpt lat="45.58511" lon="4.7843">
        <ele>166</ele>
        <time>2018-08-15T09:53:38.243Z</time>
      </trkpt>
      <trkpt lat="45.58511" lon="4.7843">
        <ele>166</ele>
        <time>2018-08-15T09:53:39.268Z</time>
      </trkpt>
      <trkpt lat="45.58521" lon="4.78437">
        <ele>166</ele>
        <time>2018-08-15T09:53:40.232Z</time>
      </trkpt>
      <trkpt lat="45.58521" lon="4.78437">
        <ele>166</ele>
        <time>2018-08-15T09:53:41.271Z</time>
      </trkpt>
      <trkpt lat="45.58531" lon="4.78443">
        <ele>165</ele>
        <time>2018-08-15T09:53:42.267Z</time>
      </trkpt>
      <trkpt lat="45.58531" lon="4.78443">
        <ele>165</ele>
        <time>2018-08-15T09:53:43.246Z</time>
      </trkpt>
      <trkpt lat="45.58541" lon="4.78447">
        <ele>166</ele>
        <time>2018-08-15T09:53:44.246Z</time>
      </trkpt>
      <trkpt lat="45.58541" lon="4.78447">
        <ele>166</ele>
        <time>2018-08-15T09:53:45.255Z</time>
      </trkpt>
      <trkpt lat="45.58549" lon="4.78452">
        <ele>165</ele>
        <time>2018-08-15T09:53:46.251Z</time>
      </trkpt>
      <trkpt lat="45.58549" lon="4.78452">
        <ele>165</ele>
        <time>2018-08-15T09:53:47.236Z</time>
      </trkpt>
      <trkpt lat="45.58557" lon="4.78457">
        <ele>165</ele>
        <time>2018-08-15T09:53:48.240Z</time>
      </trkpt>
      <trkpt lat="45.58557" lon="4.78457">
        <ele>165</ele>
        <time>2018-08-15T09:53:49.249Z</time>
      </trkpt>
      <trkpt lat="45.58565" lon="4.7846">
        <ele>166</ele>
        <time>2018-08-15T09:53:50.250Z</time>
      </trkpt>
      <trkpt lat="45.58565" lon="4.7846">
        <ele>166</ele>
        <time>2018-08-15T09:53:51.254Z</time>
      </trkpt>
      <trkpt lat="45.5857" lon="4.78462">
        <ele>165</ele>
        <time>2018-08-15T09:53:52.241Z</time>
      </trkpt>
      <trkpt lat="45.5857" lon="4.78462">
        <ele>165</ele>
        <time>2018-08-15T09:53:53.261Z</time>
      </trkpt>
      <trkpt lat="45.58572" lon="4.78461">
        <ele>166</ele>
        <time>2018-08-15T09:53:54.266Z</time>
      </trkpt>
      <trkpt lat="45.58571" lon="4.78461">
        <ele>166</ele>
        <time>2018-08-15T09:53:55.252Z</time>
      </trkpt>
      <trkpt lat="45.58571" lon="4.78461">
        <ele>166</ele>
        <time>2018-08-15T09:53:56.234Z</time>
      </trkpt>
      <trkpt lat="45.58578" lon="4.78466">
        <ele>163</ele>
        <time>2018-08-15T09:53:57.259Z</time>
      </trkpt>
      <trkpt lat="45.58578" lon="4.78466">
        <ele>163</ele>
        <time>2018-08-15T09:53:58.254Z</time>
      </trkpt>
      <trkpt lat="45.58579" lon="4.78465">
        <ele>162</ele>
        <time>2018-08-15T09:53:59.262Z</time>
      </trkpt>
      <trkpt lat="45.58579" lon="4.78465">
        <ele>162</ele>
        <time>2018-08-15T09:54:00.255Z</time>
      </trkpt>
      <trkpt lat="45.58579" lon="4.78464">
        <ele>162</ele>
        <time>2018-08-15T09:54:01.274Z</time>
      </trkpt>
    </trkseg>
  </trk>
</gpx>